<?xml version="1.0" encoding="UTF-8" standalone="no" ?>
<gpx xmlns="http://www.topografix.com/GPX/1/1" xmlns:xsi="http://www.w3.org/2001/XMLSchema-instance" xsi:schemaLocation="http://www.topografix.com/GPX/1/1 http://www.topografix.com/GPX/1/1/gpx.xsd" version="1.1" creator="VisuGPX - https://www.visugpx.com">
  <metadata>
    <name>14 mai 2026</name>
    <desc><![CDATA[Depuis Roquebrune on part à la Colle-sur-Loup pour le rassemblement annuel GTR]]></desc>
  </metadata>
  <trk>
    <name><![CDATA[14 mai 2026]]></name>
    <extensions>
      <line xmlns="http://www.topografix.com/GPX/gpx_style/0/2">
        <color>0000FF</color>
        <width>4</width>
      </line>
    </extensions>
    <trkseg>
      <trkpt lat="43.76158" lon="7.4842">
        <ele>2.9</ele>
        <time>2026-05-14T08:06:04Z</time>
      </trkpt>
      <trkpt lat="43.76155" lon="7.48418">
        <ele>3</ele>
        <time>2026-05-14T08:06:05Z</time>
      </trkpt>
      <trkpt lat="43.76153" lon="7.48418">
        <ele>3</ele>
        <time>2026-05-14T08:06:06Z</time>
      </trkpt>
      <trkpt lat="43.76155" lon="7.48419">
        <ele>2.9</ele>
        <time>2026-05-14T08:06:07Z</time>
      </trkpt>
      <trkpt lat="43.76155" lon="7.48419">
        <ele>2.9</ele>
        <time>2026-05-14T08:06:08Z</time>
      </trkpt>
      <trkpt lat="43.76154" lon="7.48418">
        <ele>3</ele>
        <time>2026-05-14T08:06:09Z</time>
      </trkpt>
      <trkpt lat="43.76152" lon="7.48417">
        <ele>3</ele>
        <time>2026-05-14T08:06:10Z</time>
      </trkpt>
      <trkpt lat="43.76151" lon="7.48418">
        <ele>2.9</ele>
        <time>2026-05-14T08:06:11Z</time>
      </trkpt>
      <trkpt lat="43.76151" lon="7.48418">
        <ele>2.9</ele>
        <time>2026-05-14T08:06:12Z</time>
      </trkpt>
      <trkpt lat="43.76149" lon="7.48418">
        <ele>2.9</ele>
        <time>2026-05-14T08:06:13Z</time>
      </trkpt>
      <trkpt lat="43.76148" lon="7.48419">
        <ele>2.9</ele>
        <time>2026-05-14T08:06:14Z</time>
      </trkpt>
      <trkpt lat="43.76149" lon="7.48419">
        <ele>2.9</ele>
        <time>2026-05-14T08:06:15Z</time>
      </trkpt>
      <trkpt lat="43.76148" lon="7.48419">
        <ele>2.9</ele>
        <time>2026-05-14T08:06:16Z</time>
      </trkpt>
      <trkpt lat="43.76147" lon="7.48419">
        <ele>2.9</ele>
        <time>2026-05-14T08:06:17Z</time>
      </trkpt>
      <trkpt lat="43.76146" lon="7.48419">
        <ele>2.9</ele>
        <time>2026-05-14T08:06:18Z</time>
      </trkpt>
      <trkpt lat="43.76145" lon="7.4842">
        <ele>2.8</ele>
        <time>2026-05-14T08:06:19Z</time>
      </trkpt>
      <trkpt lat="43.76142" lon="7.48419">
        <ele>2.9</ele>
        <time>2026-05-14T08:06:20Z</time>
      </trkpt>
      <trkpt lat="43.76139" lon="7.48419">
        <ele>2.8</ele>
        <time>2026-05-14T08:06:21Z</time>
      </trkpt>
      <trkpt lat="43.76134" lon="7.48415">
        <ele>3</ele>
        <time>2026-05-14T08:06:22Z</time>
      </trkpt>
      <trkpt lat="43.76127" lon="7.48411">
        <ele>3</ele>
        <time>2026-05-14T08:06:23Z</time>
      </trkpt>
      <trkpt lat="43.76121" lon="7.48406">
        <ele>3</ele>
        <time>2026-05-14T08:06:24Z</time>
      </trkpt>
      <trkpt lat="43.76115" lon="7.48402">
        <ele>3</ele>
        <time>2026-05-14T08:06:25Z</time>
      </trkpt>
      <trkpt lat="43.76109" lon="7.48398">
        <ele>3</ele>
        <time>2026-05-14T08:06:26Z</time>
      </trkpt>
      <trkpt lat="43.76102" lon="7.48393">
        <ele>2.9</ele>
        <time>2026-05-14T08:06:27Z</time>
      </trkpt>
      <trkpt lat="43.76094" lon="7.48389">
        <ele>3</ele>
        <time>2026-05-14T08:06:28Z</time>
      </trkpt>
      <trkpt lat="43.76086" lon="7.48383">
        <ele>3</ele>
        <time>2026-05-14T08:06:29Z</time>
      </trkpt>
      <trkpt lat="43.76078" lon="7.48378">
        <ele>2.9</ele>
        <time>2026-05-14T08:06:30Z</time>
      </trkpt>
      <trkpt lat="43.7607" lon="7.48372">
        <ele>2.8</ele>
        <time>2026-05-14T08:06:31Z</time>
      </trkpt>
      <trkpt lat="43.76063" lon="7.48366">
        <ele>2.9</ele>
        <time>2026-05-14T08:06:32Z</time>
      </trkpt>
      <trkpt lat="43.76056" lon="7.4836">
        <ele>3</ele>
        <time>2026-05-14T08:06:33Z</time>
      </trkpt>
      <trkpt lat="43.76051" lon="7.48355">
        <ele>3</ele>
        <time>2026-05-14T08:06:34Z</time>
      </trkpt>
      <trkpt lat="43.76048" lon="7.48353">
        <ele>3</ele>
        <time>2026-05-14T08:06:35Z</time>
      </trkpt>
      <trkpt lat="43.76047" lon="7.48352">
        <ele>3</ele>
        <time>2026-05-14T08:06:36Z</time>
      </trkpt>
      <trkpt lat="43.76045" lon="7.48351">
        <ele>3</ele>
        <time>2026-05-14T08:06:37Z</time>
      </trkpt>
      <trkpt lat="43.76044" lon="7.4835">
        <ele>3</ele>
        <time>2026-05-14T08:06:38Z</time>
      </trkpt>
      <trkpt lat="43.76041" lon="7.48347">
        <ele>3</ele>
        <time>2026-05-14T08:06:39Z</time>
      </trkpt>
      <trkpt lat="43.76037" lon="7.48345">
        <ele>3</ele>
        <time>2026-05-14T08:06:40Z</time>
      </trkpt>
      <trkpt lat="43.76033" lon="7.48345">
        <ele>3</ele>
        <time>2026-05-14T08:06:41Z</time>
      </trkpt>
      <trkpt lat="43.76029" lon="7.48347">
        <ele>3</ele>
        <time>2026-05-14T08:06:42Z</time>
      </trkpt>
      <trkpt lat="43.76028" lon="7.48352">
        <ele>3</ele>
        <time>2026-05-14T08:06:43Z</time>
      </trkpt>
      <trkpt lat="43.76029" lon="7.48356">
        <ele>3</ele>
        <time>2026-05-14T08:06:44Z</time>
      </trkpt>
      <trkpt lat="43.76032" lon="7.4836">
        <ele>3</ele>
        <time>2026-05-14T08:06:45Z</time>
      </trkpt>
      <trkpt lat="43.76038" lon="7.4836">
        <ele>3</ele>
        <time>2026-05-14T08:06:46Z</time>
      </trkpt>
      <trkpt lat="43.76044" lon="7.48361">
        <ele>3</ele>
        <time>2026-05-14T08:06:47Z</time>
      </trkpt>
      <trkpt lat="43.76048" lon="7.48363">
        <ele>2.9</ele>
        <time>2026-05-14T08:06:48Z</time>
      </trkpt>
      <trkpt lat="43.76052" lon="7.48365">
        <ele>2.9</ele>
        <time>2026-05-14T08:06:49Z</time>
      </trkpt>
      <trkpt lat="43.76057" lon="7.48368">
        <ele>2.8</ele>
        <time>2026-05-14T08:06:50Z</time>
      </trkpt>
      <trkpt lat="43.76062" lon="7.48372">
        <ele>2.7</ele>
        <time>2026-05-14T08:06:51Z</time>
      </trkpt>
      <trkpt lat="43.76067" lon="7.48376">
        <ele>2.7</ele>
        <time>2026-05-14T08:06:52Z</time>
      </trkpt>
      <trkpt lat="43.76073" lon="7.4838">
        <ele>2.7</ele>
        <time>2026-05-14T08:06:53Z</time>
      </trkpt>
      <trkpt lat="43.76079" lon="7.48384">
        <ele>2.9</ele>
        <time>2026-05-14T08:06:54Z</time>
      </trkpt>
      <trkpt lat="43.76085" lon="7.48388">
        <ele>3</ele>
        <time>2026-05-14T08:06:55Z</time>
      </trkpt>
      <trkpt lat="43.76092" lon="7.48392">
        <ele>2.8</ele>
        <time>2026-05-14T08:06:56Z</time>
      </trkpt>
      <trkpt lat="43.76098" lon="7.48396">
        <ele>2.8</ele>
        <time>2026-05-14T08:06:57Z</time>
      </trkpt>
      <trkpt lat="43.76103" lon="7.484">
        <ele>2.8</ele>
        <time>2026-05-14T08:06:58Z</time>
      </trkpt>
      <trkpt lat="43.76108" lon="7.48404">
        <ele>2.9</ele>
        <time>2026-05-14T08:06:59Z</time>
      </trkpt>
      <trkpt lat="43.76112" lon="7.48407">
        <ele>3</ele>
        <time>2026-05-14T08:07:00Z</time>
      </trkpt>
      <trkpt lat="43.76116" lon="7.4841">
        <ele>3</ele>
        <time>2026-05-14T08:07:01Z</time>
      </trkpt>
      <trkpt lat="43.7612" lon="7.48413">
        <ele>3</ele>
        <time>2026-05-14T08:07:02Z</time>
      </trkpt>
      <trkpt lat="43.76126" lon="7.48416">
        <ele>3</ele>
        <time>2026-05-14T08:07:03Z</time>
      </trkpt>
      <trkpt lat="43.76132" lon="7.48419">
        <ele>2.8</ele>
        <time>2026-05-14T08:07:04Z</time>
      </trkpt>
      <trkpt lat="43.76139" lon="7.48423">
        <ele>2.5</ele>
        <time>2026-05-14T08:07:05Z</time>
      </trkpt>
      <trkpt lat="43.76146" lon="7.48428">
        <ele>2.4</ele>
        <time>2026-05-14T08:07:06Z</time>
      </trkpt>
      <trkpt lat="43.76152" lon="7.48432">
        <ele>2.4</ele>
        <time>2026-05-14T08:07:07Z</time>
      </trkpt>
      <trkpt lat="43.76156" lon="7.48435">
        <ele>2.5</ele>
        <time>2026-05-14T08:07:08Z</time>
      </trkpt>
      <trkpt lat="43.76159" lon="7.48437">
        <ele>2.6</ele>
        <time>2026-05-14T08:07:09Z</time>
      </trkpt>
      <trkpt lat="43.76161" lon="7.48439">
        <ele>2.7</ele>
        <time>2026-05-14T08:07:10Z</time>
      </trkpt>
      <trkpt lat="43.76164" lon="7.48438">
        <ele>2.9</ele>
        <time>2026-05-14T08:07:11Z</time>
      </trkpt>
      <trkpt lat="43.76165" lon="7.48436">
        <ele>2.9</ele>
        <time>2026-05-14T08:07:12Z</time>
      </trkpt>
      <trkpt lat="43.76165" lon="7.48433">
        <ele>2.9</ele>
        <time>2026-05-14T08:07:13Z</time>
      </trkpt>
      <trkpt lat="43.76164" lon="7.4843">
        <ele>2.9</ele>
        <time>2026-05-14T08:07:14Z</time>
      </trkpt>
      <trkpt lat="43.76163" lon="7.48428">
        <ele>2.9</ele>
        <time>2026-05-14T08:07:15Z</time>
      </trkpt>
      <trkpt lat="43.7616" lon="7.48428">
        <ele>2.8</ele>
        <time>2026-05-14T08:07:16Z</time>
      </trkpt>
      <trkpt lat="43.76158" lon="7.48427">
        <ele>2.8</ele>
        <time>2026-05-14T08:07:17Z</time>
      </trkpt>
      <trkpt lat="43.76154" lon="7.48427">
        <ele>2.7</ele>
        <time>2026-05-14T08:07:18Z</time>
      </trkpt>
      <trkpt lat="43.76151" lon="7.48425">
        <ele>2.7</ele>
        <time>2026-05-14T08:07:19Z</time>
      </trkpt>
      <trkpt lat="43.76148" lon="7.48424">
        <ele>2.6</ele>
        <time>2026-05-14T08:07:20Z</time>
      </trkpt>
      <trkpt lat="43.76144" lon="7.48423">
        <ele>2.6</ele>
        <time>2026-05-14T08:07:21Z</time>
      </trkpt>
      <trkpt lat="43.76141" lon="7.48421">
        <ele>2.7</ele>
        <time>2026-05-14T08:07:22Z</time>
      </trkpt>
      <trkpt lat="43.76137" lon="7.48418">
        <ele>2.9</ele>
        <time>2026-05-14T08:07:23Z</time>
      </trkpt>
      <trkpt lat="43.76133" lon="7.48416">
        <ele>3</ele>
        <time>2026-05-14T08:07:24Z</time>
      </trkpt>
      <trkpt lat="43.76129" lon="7.48413">
        <ele>3</ele>
        <time>2026-05-14T08:07:25Z</time>
      </trkpt>
      <trkpt lat="43.76127" lon="7.48411">
        <ele>3</ele>
        <time>2026-05-14T08:07:26Z</time>
      </trkpt>
      <trkpt lat="43.76125" lon="7.48409">
        <ele>3</ele>
        <time>2026-05-14T08:07:27Z</time>
      </trkpt>
      <trkpt lat="43.76124" lon="7.48407">
        <ele>3</ele>
        <time>2026-05-14T08:07:28Z</time>
      </trkpt>
      <trkpt lat="43.76123" lon="7.48405">
        <ele>3</ele>
        <time>2026-05-14T08:07:29Z</time>
      </trkpt>
      <trkpt lat="43.76123" lon="7.48403">
        <ele>3</ele>
        <time>2026-05-14T08:07:30Z</time>
      </trkpt>
      <trkpt lat="43.76122" lon="7.48403">
        <ele>3</ele>
        <time>2026-05-14T08:07:31Z</time>
      </trkpt>
      <trkpt lat="43.76122" lon="7.48402">
        <ele>3</ele>
        <time>2026-05-14T08:07:32Z</time>
      </trkpt>
      <trkpt lat="43.76121" lon="7.48402">
        <ele>3</ele>
        <time>2026-05-14T08:07:33Z</time>
      </trkpt>
      <trkpt lat="43.76121" lon="7.48402">
        <ele>3</ele>
        <time>2026-05-14T08:07:34Z</time>
      </trkpt>
      <trkpt lat="43.76121" lon="7.48402">
        <ele>3</ele>
        <time>2026-05-14T08:07:35Z</time>
      </trkpt>
      <trkpt lat="43.76121" lon="7.48402">
        <ele>3</ele>
        <time>2026-05-14T08:07:36Z</time>
      </trkpt>
      <trkpt lat="43.76121" lon="7.48403">
        <ele>3</ele>
        <time>2026-05-14T08:07:37Z</time>
      </trkpt>
      <trkpt lat="43.76121" lon="7.48403">
        <ele>3</ele>
        <time>2026-05-14T08:07:38Z</time>
      </trkpt>
      <trkpt lat="43.76122" lon="7.48403">
        <ele>3</ele>
        <time>2026-05-14T08:07:39Z</time>
      </trkpt>
      <trkpt lat="43.76122" lon="7.48403">
        <ele>3</ele>
        <time>2026-05-14T08:07:40Z</time>
      </trkpt>
      <trkpt lat="43.76122" lon="7.48403">
        <ele>3</ele>
        <time>2026-05-14T08:07:41Z</time>
      </trkpt>
      <trkpt lat="43.76123" lon="7.48403">
        <ele>3</ele>
        <time>2026-05-14T08:07:42Z</time>
      </trkpt>
      <trkpt lat="43.76123" lon="7.48403">
        <ele>3</ele>
        <time>2026-05-14T08:07:43Z</time>
      </trkpt>
      <trkpt lat="43.76123" lon="7.48403">
        <ele>3</ele>
        <time>2026-05-14T08:07:44Z</time>
      </trkpt>
      <trkpt lat="43.76123" lon="7.48403">
        <ele>3</ele>
        <time>2026-05-14T08:07:45Z</time>
      </trkpt>
      <trkpt lat="43.76124" lon="7.48403">
        <ele>3</ele>
        <time>2026-05-14T08:07:46Z</time>
      </trkpt>
      <trkpt lat="43.76124" lon="7.48403">
        <ele>3</ele>
        <time>2026-05-14T08:07:47Z</time>
      </trkpt>
      <trkpt lat="43.76124" lon="7.48403">
        <ele>3</ele>
        <time>2026-05-14T08:07:48Z</time>
      </trkpt>
      <trkpt lat="43.76124" lon="7.48403">
        <ele>3</ele>
        <time>2026-05-14T08:07:49Z</time>
      </trkpt>
      <trkpt lat="43.76124" lon="7.48403">
        <ele>3</ele>
        <time>2026-05-14T08:07:50Z</time>
      </trkpt>
      <trkpt lat="43.76124" lon="7.48403">
        <ele>3</ele>
        <time>2026-05-14T08:07:51Z</time>
      </trkpt>
      <trkpt lat="43.76124" lon="7.48403">
        <ele>3</ele>
        <time>2026-05-14T08:07:52Z</time>
      </trkpt>
      <trkpt lat="43.76124" lon="7.48403">
        <ele>3</ele>
        <time>2026-05-14T08:07:53Z</time>
      </trkpt>
      <trkpt lat="43.76124" lon="7.48403">
        <ele>3</ele>
        <time>2026-05-14T08:07:54Z</time>
      </trkpt>
      <trkpt lat="43.76124" lon="7.48403">
        <ele>3</ele>
        <time>2026-05-14T08:07:55Z</time>
      </trkpt>
      <trkpt lat="43.76124" lon="7.48403">
        <ele>3</ele>
        <time>2026-05-14T08:07:56Z</time>
      </trkpt>
      <trkpt lat="43.76124" lon="7.48403">
        <ele>3</ele>
        <time>2026-05-14T08:07:57Z</time>
      </trkpt>
      <trkpt lat="43.76124" lon="7.48403">
        <ele>3</ele>
        <time>2026-05-14T08:07:58Z</time>
      </trkpt>
      <trkpt lat="43.76124" lon="7.48403">
        <ele>3</ele>
        <time>2026-05-14T08:07:59Z</time>
      </trkpt>
      <trkpt lat="43.76124" lon="7.48403">
        <ele>3</ele>
        <time>2026-05-14T08:08:00Z</time>
      </trkpt>
      <trkpt lat="43.76124" lon="7.48403">
        <ele>3</ele>
        <time>2026-05-14T08:08:01Z</time>
      </trkpt>
      <trkpt lat="43.76124" lon="7.48403">
        <ele>3</ele>
        <time>2026-05-14T08:08:02Z</time>
      </trkpt>
      <trkpt lat="43.76124" lon="7.48403">
        <ele>3</ele>
        <time>2026-05-14T08:08:03Z</time>
      </trkpt>
      <trkpt lat="43.76124" lon="7.48403">
        <ele>3</ele>
        <time>2026-05-14T08:08:04Z</time>
      </trkpt>
      <trkpt lat="43.76124" lon="7.48403">
        <ele>3</ele>
        <time>2026-05-14T08:08:05Z</time>
      </trkpt>
      <trkpt lat="43.76124" lon="7.48403">
        <ele>3</ele>
        <time>2026-05-14T08:08:06Z</time>
      </trkpt>
      <trkpt lat="43.76133" lon="7.48395">
        <ele>3</ele>
        <time>2026-05-14T08:19:47Z</time>
      </trkpt>
      <trkpt lat="43.76133" lon="7.4839">
        <ele>3</ele>
        <time>2026-05-14T08:19:48Z</time>
      </trkpt>
      <trkpt lat="43.76135" lon="7.48389">
        <ele>3</ele>
        <time>2026-05-14T08:19:49Z</time>
      </trkpt>
      <trkpt lat="43.76137" lon="7.48388">
        <ele>3</ele>
        <time>2026-05-14T08:19:50Z</time>
      </trkpt>
      <trkpt lat="43.76134" lon="7.48389">
        <ele>3</ele>
        <time>2026-05-14T08:19:51Z</time>
      </trkpt>
      <trkpt lat="43.76133" lon="7.48394">
        <ele>3</ele>
        <time>2026-05-14T08:19:52Z</time>
      </trkpt>
      <trkpt lat="43.76132" lon="7.48399">
        <ele>3</ele>
        <time>2026-05-14T08:19:53Z</time>
      </trkpt>
      <trkpt lat="43.7613" lon="7.48401">
        <ele>3</ele>
        <time>2026-05-14T08:19:54Z</time>
      </trkpt>
      <trkpt lat="43.7613" lon="7.484">
        <ele>3</ele>
        <time>2026-05-14T08:19:55Z</time>
      </trkpt>
      <trkpt lat="43.76129" lon="7.484">
        <ele>3</ele>
        <time>2026-05-14T08:19:56Z</time>
      </trkpt>
      <trkpt lat="43.76127" lon="7.484">
        <ele>3</ele>
        <time>2026-05-14T08:19:57Z</time>
      </trkpt>
      <trkpt lat="43.76124" lon="7.48399">
        <ele>3</ele>
        <time>2026-05-14T08:19:58Z</time>
      </trkpt>
      <trkpt lat="43.7612" lon="7.48397">
        <ele>3</ele>
        <time>2026-05-14T08:19:59Z</time>
      </trkpt>
      <trkpt lat="43.76115" lon="7.48394">
        <ele>3</ele>
        <time>2026-05-14T08:20:00Z</time>
      </trkpt>
      <trkpt lat="43.76109" lon="7.48391">
        <ele>3</ele>
        <time>2026-05-14T08:20:01Z</time>
      </trkpt>
      <trkpt lat="43.76102" lon="7.48388">
        <ele>3</ele>
        <time>2026-05-14T08:20:02Z</time>
      </trkpt>
      <trkpt lat="43.76095" lon="7.48385">
        <ele>3.1</ele>
        <time>2026-05-14T08:20:03Z</time>
      </trkpt>
      <trkpt lat="43.76089" lon="7.48382">
        <ele>3.1</ele>
        <time>2026-05-14T08:20:04Z</time>
      </trkpt>
      <trkpt lat="43.76082" lon="7.48379">
        <ele>3</ele>
        <time>2026-05-14T08:20:05Z</time>
      </trkpt>
      <trkpt lat="43.76076" lon="7.48374">
        <ele>2.9</ele>
        <time>2026-05-14T08:20:06Z</time>
      </trkpt>
      <trkpt lat="43.7607" lon="7.4837">
        <ele>2.8</ele>
        <time>2026-05-14T08:20:07Z</time>
      </trkpt>
      <trkpt lat="43.76065" lon="7.48366">
        <ele>2.9</ele>
        <time>2026-05-14T08:20:08Z</time>
      </trkpt>
      <trkpt lat="43.7606" lon="7.48362">
        <ele>3</ele>
        <time>2026-05-14T08:20:09Z</time>
      </trkpt>
      <trkpt lat="43.76053" lon="7.48357">
        <ele>3</ele>
        <time>2026-05-14T08:20:10Z</time>
      </trkpt>
      <trkpt lat="43.76048" lon="7.48352">
        <ele>3</ele>
        <time>2026-05-14T08:20:11Z</time>
      </trkpt>
      <trkpt lat="43.76042" lon="7.48348">
        <ele>3</ele>
        <time>2026-05-14T08:20:12Z</time>
      </trkpt>
      <trkpt lat="43.76035" lon="7.48344">
        <ele>3</ele>
        <time>2026-05-14T08:20:13Z</time>
      </trkpt>
      <trkpt lat="43.76027" lon="7.48341">
        <ele>3</ele>
        <time>2026-05-14T08:20:14Z</time>
      </trkpt>
      <trkpt lat="43.76019" lon="7.48337">
        <ele>2.9</ele>
        <time>2026-05-14T08:20:15Z</time>
      </trkpt>
      <trkpt lat="43.7601" lon="7.4833">
        <ele>3</ele>
        <time>2026-05-14T08:20:16Z</time>
      </trkpt>
      <trkpt lat="43.76003" lon="7.48325">
        <ele>3</ele>
        <time>2026-05-14T08:20:17Z</time>
      </trkpt>
      <trkpt lat="43.75996" lon="7.48319">
        <ele>2.9</ele>
        <time>2026-05-14T08:20:18Z</time>
      </trkpt>
      <trkpt lat="43.75989" lon="7.48315">
        <ele>2.7</ele>
        <time>2026-05-14T08:20:19Z</time>
      </trkpt>
      <trkpt lat="43.75982" lon="7.4831">
        <ele>2.8</ele>
        <time>2026-05-14T08:20:20Z</time>
      </trkpt>
      <trkpt lat="43.75975" lon="7.48305">
        <ele>3</ele>
        <time>2026-05-14T08:20:21Z</time>
      </trkpt>
      <trkpt lat="43.75966" lon="7.48301">
        <ele>2.8</ele>
        <time>2026-05-14T08:20:22Z</time>
      </trkpt>
      <trkpt lat="43.75957" lon="7.48296">
        <ele>2.6</ele>
        <time>2026-05-14T08:20:23Z</time>
      </trkpt>
      <trkpt lat="43.75949" lon="7.4829">
        <ele>2.6</ele>
        <time>2026-05-14T08:20:24Z</time>
      </trkpt>
      <trkpt lat="43.75941" lon="7.48286">
        <ele>2.7</ele>
        <time>2026-05-14T08:20:25Z</time>
      </trkpt>
      <trkpt lat="43.75934" lon="7.48281">
        <ele>2.8</ele>
        <time>2026-05-14T08:20:26Z</time>
      </trkpt>
      <trkpt lat="43.75927" lon="7.48277">
        <ele>3</ele>
        <time>2026-05-14T08:20:27Z</time>
      </trkpt>
      <trkpt lat="43.75921" lon="7.48273">
        <ele>2.9</ele>
        <time>2026-05-14T08:20:28Z</time>
      </trkpt>
      <trkpt lat="43.75915" lon="7.48269">
        <ele>3</ele>
        <time>2026-05-14T08:20:29Z</time>
      </trkpt>
      <trkpt lat="43.75909" lon="7.48266">
        <ele>2.8</ele>
        <time>2026-05-14T08:20:30Z</time>
      </trkpt>
      <trkpt lat="43.75904" lon="7.48262">
        <ele>2.8</ele>
        <time>2026-05-14T08:20:31Z</time>
      </trkpt>
      <trkpt lat="43.75898" lon="7.48259">
        <ele>2.8</ele>
        <time>2026-05-14T08:20:32Z</time>
      </trkpt>
      <trkpt lat="43.75891" lon="7.48254">
        <ele>2.9</ele>
        <time>2026-05-14T08:20:33Z</time>
      </trkpt>
      <trkpt lat="43.75884" lon="7.4825">
        <ele>2.8</ele>
        <time>2026-05-14T08:20:34Z</time>
      </trkpt>
      <trkpt lat="43.75877" lon="7.48246">
        <ele>2.6</ele>
        <time>2026-05-14T08:20:35Z</time>
      </trkpt>
      <trkpt lat="43.7587" lon="7.48241">
        <ele>2.5</ele>
        <time>2026-05-14T08:20:36Z</time>
      </trkpt>
      <trkpt lat="43.75864" lon="7.48237">
        <ele>2.5</ele>
        <time>2026-05-14T08:20:37Z</time>
      </trkpt>
      <trkpt lat="43.75859" lon="7.48234">
        <ele>2.5</ele>
        <time>2026-05-14T08:20:38Z</time>
      </trkpt>
      <trkpt lat="43.75854" lon="7.4823">
        <ele>2.6</ele>
        <time>2026-05-14T08:20:39Z</time>
      </trkpt>
      <trkpt lat="43.75849" lon="7.48227">
        <ele>2.8</ele>
        <time>2026-05-14T08:20:40Z</time>
      </trkpt>
      <trkpt lat="43.75844" lon="7.48225">
        <ele>2.8</ele>
        <time>2026-05-14T08:20:41Z</time>
      </trkpt>
      <trkpt lat="43.75839" lon="7.48222">
        <ele>3</ele>
        <time>2026-05-14T08:20:42Z</time>
      </trkpt>
      <trkpt lat="43.75835" lon="7.48219">
        <ele>3</ele>
        <time>2026-05-14T08:20:43Z</time>
      </trkpt>
      <trkpt lat="43.75832" lon="7.48217">
        <ele>3</ele>
        <time>2026-05-14T08:20:44Z</time>
      </trkpt>
      <trkpt lat="43.75827" lon="7.48214">
        <ele>2.8</ele>
        <time>2026-05-14T08:20:45Z</time>
      </trkpt>
      <trkpt lat="43.75822" lon="7.48211">
        <ele>2.8</ele>
        <time>2026-05-14T08:20:46Z</time>
      </trkpt>
      <trkpt lat="43.75817" lon="7.48207">
        <ele>2.7</ele>
        <time>2026-05-14T08:20:47Z</time>
      </trkpt>
      <trkpt lat="43.7581" lon="7.48204">
        <ele>2.7</ele>
        <time>2026-05-14T08:20:48Z</time>
      </trkpt>
      <trkpt lat="43.75804" lon="7.48199">
        <ele>2.8</ele>
        <time>2026-05-14T08:20:49Z</time>
      </trkpt>
      <trkpt lat="43.75797" lon="7.48195">
        <ele>3</ele>
        <time>2026-05-14T08:20:50Z</time>
      </trkpt>
      <trkpt lat="43.7579" lon="7.4819">
        <ele>3.1</ele>
        <time>2026-05-14T08:20:51Z</time>
      </trkpt>
      <trkpt lat="43.75782" lon="7.48186">
        <ele>3.3</ele>
        <time>2026-05-14T08:20:52Z</time>
      </trkpt>
      <trkpt lat="43.75776" lon="7.48183">
        <ele>3.3</ele>
        <time>2026-05-14T08:20:53Z</time>
      </trkpt>
      <trkpt lat="43.75769" lon="7.4818">
        <ele>3.2</ele>
        <time>2026-05-14T08:20:54Z</time>
      </trkpt>
      <trkpt lat="43.75764" lon="7.48177">
        <ele>3.1</ele>
        <time>2026-05-14T08:20:55Z</time>
      </trkpt>
      <trkpt lat="43.75758" lon="7.48174">
        <ele>3</ele>
        <time>2026-05-14T08:20:56Z</time>
      </trkpt>
      <trkpt lat="43.75753" lon="7.48171">
        <ele>3</ele>
        <time>2026-05-14T08:20:57Z</time>
      </trkpt>
      <trkpt lat="43.75749" lon="7.48169">
        <ele>2.9</ele>
        <time>2026-05-14T08:20:58Z</time>
      </trkpt>
      <trkpt lat="43.75745" lon="7.48167">
        <ele>3</ele>
        <time>2026-05-14T08:20:59Z</time>
      </trkpt>
      <trkpt lat="43.75741" lon="7.48165">
        <ele>3.1</ele>
        <time>2026-05-14T08:21:00Z</time>
      </trkpt>
      <trkpt lat="43.75738" lon="7.48163">
        <ele>3.1</ele>
        <time>2026-05-14T08:21:01Z</time>
      </trkpt>
      <trkpt lat="43.75736" lon="7.48162">
        <ele>3.2</ele>
        <time>2026-05-14T08:21:02Z</time>
      </trkpt>
      <trkpt lat="43.75734" lon="7.4816">
        <ele>3.2</ele>
        <time>2026-05-14T08:21:03Z</time>
      </trkpt>
      <trkpt lat="43.75731" lon="7.48159">
        <ele>3.3</ele>
        <time>2026-05-14T08:21:04Z</time>
      </trkpt>
      <trkpt lat="43.75728" lon="7.48158">
        <ele>3.3</ele>
        <time>2026-05-14T08:21:05Z</time>
      </trkpt>
      <trkpt lat="43.75725" lon="7.48157">
        <ele>3.3</ele>
        <time>2026-05-14T08:21:06Z</time>
      </trkpt>
      <trkpt lat="43.75721" lon="7.48156">
        <ele>3.4</ele>
        <time>2026-05-14T08:21:07Z</time>
      </trkpt>
      <trkpt lat="43.75717" lon="7.48153">
        <ele>3.7</ele>
        <time>2026-05-14T08:21:08Z</time>
      </trkpt>
      <trkpt lat="43.75713" lon="7.4815">
        <ele>3.9</ele>
        <time>2026-05-14T08:21:09Z</time>
      </trkpt>
      <trkpt lat="43.7571" lon="7.48146">
        <ele>4.2</ele>
        <time>2026-05-14T08:21:10Z</time>
      </trkpt>
      <trkpt lat="43.75704" lon="7.48144">
        <ele>4.5</ele>
        <time>2026-05-14T08:21:11Z</time>
      </trkpt>
      <trkpt lat="43.75698" lon="7.4814">
        <ele>4.8</ele>
        <time>2026-05-14T08:21:12Z</time>
      </trkpt>
      <trkpt lat="43.75692" lon="7.48135">
        <ele>5.1</ele>
        <time>2026-05-14T08:21:13Z</time>
      </trkpt>
      <trkpt lat="43.75686" lon="7.4813">
        <ele>5.4</ele>
        <time>2026-05-14T08:21:14Z</time>
      </trkpt>
      <trkpt lat="43.75679" lon="7.48125">
        <ele>5.8</ele>
        <time>2026-05-14T08:21:15Z</time>
      </trkpt>
      <trkpt lat="43.75669" lon="7.48122">
        <ele>6.5</ele>
        <time>2026-05-14T08:21:16Z</time>
      </trkpt>
      <trkpt lat="43.7566" lon="7.48122">
        <ele>8.2</ele>
        <time>2026-05-14T08:21:17Z</time>
      </trkpt>
      <trkpt lat="43.7565" lon="7.48127">
        <ele>9.8</ele>
        <time>2026-05-14T08:21:18Z</time>
      </trkpt>
      <trkpt lat="43.75641" lon="7.48135">
        <ele>9.7</ele>
        <time>2026-05-14T08:21:19Z</time>
      </trkpt>
      <trkpt lat="43.75636" lon="7.48147">
        <ele>10.4</ele>
        <time>2026-05-14T08:21:20Z</time>
      </trkpt>
      <trkpt lat="43.7563" lon="7.48159">
        <ele>12.9</ele>
        <time>2026-05-14T08:21:21Z</time>
      </trkpt>
      <trkpt lat="43.75624" lon="7.48174">
        <ele>13.7</ele>
        <time>2026-05-14T08:21:22Z</time>
      </trkpt>
      <trkpt lat="43.75616" lon="7.48188">
        <ele>13.4</ele>
        <time>2026-05-14T08:21:23Z</time>
      </trkpt>
      <trkpt lat="43.75607" lon="7.482">
        <ele>14</ele>
        <time>2026-05-14T08:21:24Z</time>
      </trkpt>
      <trkpt lat="43.75598" lon="7.48211">
        <ele>15.5</ele>
        <time>2026-05-14T08:21:25Z</time>
      </trkpt>
      <trkpt lat="43.75588" lon="7.48223">
        <ele>16.1</ele>
        <time>2026-05-14T08:21:26Z</time>
      </trkpt>
      <trkpt lat="43.75577" lon="7.48236">
        <ele>18.3</ele>
        <time>2026-05-14T08:21:27Z</time>
      </trkpt>
      <trkpt lat="43.75566" lon="7.48248">
        <ele>21.3</ele>
        <time>2026-05-14T08:21:28Z</time>
      </trkpt>
      <trkpt lat="43.75555" lon="7.48261">
        <ele>21.7</ele>
        <time>2026-05-14T08:21:29Z</time>
      </trkpt>
      <trkpt lat="43.75544" lon="7.48275">
        <ele>21.3</ele>
        <time>2026-05-14T08:21:30Z</time>
      </trkpt>
      <trkpt lat="43.75532" lon="7.48287">
        <ele>23.2</ele>
        <time>2026-05-14T08:21:31Z</time>
      </trkpt>
      <trkpt lat="43.75521" lon="7.48299">
        <ele>22.7</ele>
        <time>2026-05-14T08:21:32Z</time>
      </trkpt>
      <trkpt lat="43.7551" lon="7.48311">
        <ele>23.7</ele>
        <time>2026-05-14T08:21:33Z</time>
      </trkpt>
      <trkpt lat="43.75499" lon="7.48323">
        <ele>23.9</ele>
        <time>2026-05-14T08:21:34Z</time>
      </trkpt>
      <trkpt lat="43.75487" lon="7.48334">
        <ele>25.3</ele>
        <time>2026-05-14T08:21:35Z</time>
      </trkpt>
      <trkpt lat="43.75475" lon="7.48344">
        <ele>27.2</ele>
        <time>2026-05-14T08:21:36Z</time>
      </trkpt>
      <trkpt lat="43.75463" lon="7.48353">
        <ele>27.3</ele>
        <time>2026-05-14T08:21:37Z</time>
      </trkpt>
      <trkpt lat="43.75451" lon="7.48362">
        <ele>27.6</ele>
        <time>2026-05-14T08:21:38Z</time>
      </trkpt>
      <trkpt lat="43.75439" lon="7.4837">
        <ele>28.2</ele>
        <time>2026-05-14T08:21:39Z</time>
      </trkpt>
      <trkpt lat="43.75427" lon="7.48379">
        <ele>28</ele>
        <time>2026-05-14T08:21:40Z</time>
      </trkpt>
      <trkpt lat="43.75415" lon="7.48387">
        <ele>28.1</ele>
        <time>2026-05-14T08:21:41Z</time>
      </trkpt>
      <trkpt lat="43.75403" lon="7.48396">
        <ele>28</ele>
        <time>2026-05-14T08:21:42Z</time>
      </trkpt>
      <trkpt lat="43.75393" lon="7.48405">
        <ele>28.9</ele>
        <time>2026-05-14T08:21:43Z</time>
      </trkpt>
      <trkpt lat="43.75383" lon="7.48415">
        <ele>30.4</ele>
        <time>2026-05-14T08:21:44Z</time>
      </trkpt>
      <trkpt lat="43.75374" lon="7.48428">
        <ele>29.6</ele>
        <time>2026-05-14T08:21:45Z</time>
      </trkpt>
      <trkpt lat="43.75366" lon="7.48441">
        <ele>29.3</ele>
        <time>2026-05-14T08:21:46Z</time>
      </trkpt>
      <trkpt lat="43.75357" lon="7.48452">
        <ele>29.2</ele>
        <time>2026-05-14T08:21:47Z</time>
      </trkpt>
      <trkpt lat="43.75348" lon="7.48459">
        <ele>29.5</ele>
        <time>2026-05-14T08:21:48Z</time>
      </trkpt>
      <trkpt lat="43.75338" lon="7.48462">
        <ele>32</ele>
        <time>2026-05-14T08:21:49Z</time>
      </trkpt>
      <trkpt lat="43.75328" lon="7.4846">
        <ele>35.2</ele>
        <time>2026-05-14T08:21:50Z</time>
      </trkpt>
      <trkpt lat="43.75317" lon="7.48456">
        <ele>38.2</ele>
        <time>2026-05-14T08:21:51Z</time>
      </trkpt>
      <trkpt lat="43.75306" lon="7.4845">
        <ele>41.1</ele>
        <time>2026-05-14T08:21:52Z</time>
      </trkpt>
      <trkpt lat="43.75298" lon="7.4844">
        <ele>43.1</ele>
        <time>2026-05-14T08:21:53Z</time>
      </trkpt>
      <trkpt lat="43.75293" lon="7.48429">
        <ele>44.9</ele>
        <time>2026-05-14T08:21:54Z</time>
      </trkpt>
      <trkpt lat="43.75285" lon="7.4842">
        <ele>46.3</ele>
        <time>2026-05-14T08:21:55Z</time>
      </trkpt>
      <trkpt lat="43.75278" lon="7.48411">
        <ele>47.8</ele>
        <time>2026-05-14T08:21:56Z</time>
      </trkpt>
      <trkpt lat="43.75358" lon="7.48387">
        <ele>40.1</ele>
        <time>2026-05-14T08:22:02Z</time>
      </trkpt>
      <trkpt lat="43.75391" lon="7.48383">
        <ele>35.6</ele>
        <time>2026-05-14T08:22:03Z</time>
      </trkpt>
      <trkpt lat="43.75408" lon="7.48375">
        <ele>34.2</ele>
        <time>2026-05-14T08:22:04Z</time>
      </trkpt>
      <trkpt lat="43.7542" lon="7.48365">
        <ele>34.8</ele>
        <time>2026-05-14T08:22:05Z</time>
      </trkpt>
      <trkpt lat="43.75433" lon="7.48355">
        <ele>35.1</ele>
        <time>2026-05-14T08:22:06Z</time>
      </trkpt>
      <trkpt lat="43.75445" lon="7.48343">
        <ele>36.4</ele>
        <time>2026-05-14T08:22:07Z</time>
      </trkpt>
      <trkpt lat="43.75458" lon="7.48331">
        <ele>37.3</ele>
        <time>2026-05-14T08:22:08Z</time>
      </trkpt>
      <trkpt lat="43.7547" lon="7.48317">
        <ele>38.8</ele>
        <time>2026-05-14T08:22:09Z</time>
      </trkpt>
      <trkpt lat="43.7548" lon="7.48303">
        <ele>39.4</ele>
        <time>2026-05-14T08:22:10Z</time>
      </trkpt>
      <trkpt lat="43.75491" lon="7.4829">
        <ele>38.7</ele>
        <time>2026-05-14T08:22:11Z</time>
      </trkpt>
      <trkpt lat="43.75501" lon="7.48278">
        <ele>39.6</ele>
        <time>2026-05-14T08:22:12Z</time>
      </trkpt>
      <trkpt lat="43.75511" lon="7.48268">
        <ele>38.7</ele>
        <time>2026-05-14T08:22:13Z</time>
      </trkpt>
      <trkpt lat="43.75521" lon="7.48257">
        <ele>39.2</ele>
        <time>2026-05-14T08:22:14Z</time>
      </trkpt>
      <trkpt lat="43.75529" lon="7.48245">
        <ele>40</ele>
        <time>2026-05-14T08:22:15Z</time>
      </trkpt>
      <trkpt lat="43.75537" lon="7.48231">
        <ele>39.6</ele>
        <time>2026-05-14T08:22:16Z</time>
      </trkpt>
      <trkpt lat="43.75544" lon="7.48215">
        <ele>40.8</ele>
        <time>2026-05-14T08:22:17Z</time>
      </trkpt>
      <trkpt lat="43.7555" lon="7.48198">
        <ele>41.4</ele>
        <time>2026-05-14T08:22:18Z</time>
      </trkpt>
      <trkpt lat="43.75555" lon="7.4818">
        <ele>41.6</ele>
        <time>2026-05-14T08:22:19Z</time>
      </trkpt>
      <trkpt lat="43.7556" lon="7.48164">
        <ele>41.2</ele>
        <time>2026-05-14T08:22:20Z</time>
      </trkpt>
      <trkpt lat="43.75565" lon="7.4815">
        <ele>42.3</ele>
        <time>2026-05-14T08:22:21Z</time>
      </trkpt>
      <trkpt lat="43.75571" lon="7.48137">
        <ele>43.5</ele>
        <time>2026-05-14T08:22:22Z</time>
      </trkpt>
      <trkpt lat="43.75576" lon="7.48124">
        <ele>44.5</ele>
        <time>2026-05-14T08:22:23Z</time>
      </trkpt>
      <trkpt lat="43.75581" lon="7.48113">
        <ele>45.1</ele>
        <time>2026-05-14T08:22:24Z</time>
      </trkpt>
      <trkpt lat="43.75585" lon="7.48103">
        <ele>45.2</ele>
        <time>2026-05-14T08:22:25Z</time>
      </trkpt>
      <trkpt lat="43.7559" lon="7.48092">
        <ele>44.6</ele>
        <time>2026-05-14T08:22:26Z</time>
      </trkpt>
      <trkpt lat="43.75595" lon="7.48081">
        <ele>44.5</ele>
        <time>2026-05-14T08:22:27Z</time>
      </trkpt>
      <trkpt lat="43.75599" lon="7.4807">
        <ele>45</ele>
        <time>2026-05-14T08:22:28Z</time>
      </trkpt>
      <trkpt lat="43.75602" lon="7.4806">
        <ele>45.9</ele>
        <time>2026-05-14T08:22:29Z</time>
      </trkpt>
      <trkpt lat="43.75605" lon="7.48052">
        <ele>46.6</ele>
        <time>2026-05-14T08:22:30Z</time>
      </trkpt>
      <trkpt lat="43.75608" lon="7.48044">
        <ele>47.2</ele>
        <time>2026-05-14T08:22:31Z</time>
      </trkpt>
      <trkpt lat="43.75612" lon="7.48036">
        <ele>47.4</ele>
        <time>2026-05-14T08:22:32Z</time>
      </trkpt>
      <trkpt lat="43.75615" lon="7.48029">
        <ele>47.4</ele>
        <time>2026-05-14T08:22:33Z</time>
      </trkpt>
      <trkpt lat="43.75617" lon="7.48022">
        <ele>47.8</ele>
        <time>2026-05-14T08:22:34Z</time>
      </trkpt>
      <trkpt lat="43.75619" lon="7.48016">
        <ele>48.2</ele>
        <time>2026-05-14T08:22:35Z</time>
      </trkpt>
      <trkpt lat="43.75621" lon="7.48011">
        <ele>48.5</ele>
        <time>2026-05-14T08:22:36Z</time>
      </trkpt>
      <trkpt lat="43.75623" lon="7.48006">
        <ele>49.1</ele>
        <time>2026-05-14T08:22:37Z</time>
      </trkpt>
      <trkpt lat="43.75625" lon="7.48002">
        <ele>49.6</ele>
        <time>2026-05-14T08:22:38Z</time>
      </trkpt>
      <trkpt lat="43.75629" lon="7.47998">
        <ele>49.6</ele>
        <time>2026-05-14T08:22:39Z</time>
      </trkpt>
      <trkpt lat="43.75633" lon="7.47994">
        <ele>49.4</ele>
        <time>2026-05-14T08:22:40Z</time>
      </trkpt>
      <trkpt lat="43.75636" lon="7.47988">
        <ele>49.6</ele>
        <time>2026-05-14T08:22:41Z</time>
      </trkpt>
      <trkpt lat="43.75635" lon="7.4798">
        <ele>50.5</ele>
        <time>2026-05-14T08:22:42Z</time>
      </trkpt>
      <trkpt lat="43.75632" lon="7.47973">
        <ele>51.4</ele>
        <time>2026-05-14T08:22:43Z</time>
      </trkpt>
      <trkpt lat="43.7563" lon="7.47967">
        <ele>51.8</ele>
        <time>2026-05-14T08:22:44Z</time>
      </trkpt>
      <trkpt lat="43.7563" lon="7.47958">
        <ele>52</ele>
        <time>2026-05-14T08:22:45Z</time>
      </trkpt>
      <trkpt lat="43.75631" lon="7.47947">
        <ele>52.1</ele>
        <time>2026-05-14T08:22:46Z</time>
      </trkpt>
      <trkpt lat="43.75633" lon="7.47933">
        <ele>52.7</ele>
        <time>2026-05-14T08:22:47Z</time>
      </trkpt>
      <trkpt lat="43.75635" lon="7.47919">
        <ele>53.4</ele>
        <time>2026-05-14T08:22:48Z</time>
      </trkpt>
      <trkpt lat="43.75637" lon="7.47905">
        <ele>54.1</ele>
        <time>2026-05-14T08:22:49Z</time>
      </trkpt>
      <trkpt lat="43.75638" lon="7.47892">
        <ele>54.9</ele>
        <time>2026-05-14T08:22:50Z</time>
      </trkpt>
      <trkpt lat="43.75638" lon="7.47878">
        <ele>55.9</ele>
        <time>2026-05-14T08:22:51Z</time>
      </trkpt>
      <trkpt lat="43.75637" lon="7.47865">
        <ele>57</ele>
        <time>2026-05-14T08:22:52Z</time>
      </trkpt>
      <trkpt lat="43.75636" lon="7.47851">
        <ele>57.1</ele>
        <time>2026-05-14T08:22:53Z</time>
      </trkpt>
      <trkpt lat="43.75634" lon="7.47838">
        <ele>57.2</ele>
        <time>2026-05-14T08:22:54Z</time>
      </trkpt>
      <trkpt lat="43.75631" lon="7.47826">
        <ele>58.2</ele>
        <time>2026-05-14T08:22:55Z</time>
      </trkpt>
      <trkpt lat="43.75628" lon="7.47815">
        <ele>59.4</ele>
        <time>2026-05-14T08:22:56Z</time>
      </trkpt>
      <trkpt lat="43.75624" lon="7.47804">
        <ele>60.6</ele>
        <time>2026-05-14T08:22:57Z</time>
      </trkpt>
      <trkpt lat="43.75621" lon="7.47796">
        <ele>61</ele>
        <time>2026-05-14T08:22:58Z</time>
      </trkpt>
      <trkpt lat="43.75618" lon="7.47788">
        <ele>61.3</ele>
        <time>2026-05-14T08:22:59Z</time>
      </trkpt>
      <trkpt lat="43.75615" lon="7.47781">
        <ele>61.5</ele>
        <time>2026-05-14T08:23:00Z</time>
      </trkpt>
      <trkpt lat="43.75612" lon="7.47775">
        <ele>61.9</ele>
        <time>2026-05-14T08:23:01Z</time>
      </trkpt>
      <trkpt lat="43.7561" lon="7.47769">
        <ele>62.1</ele>
        <time>2026-05-14T08:23:02Z</time>
      </trkpt>
      <trkpt lat="43.75608" lon="7.47762">
        <ele>62.2</ele>
        <time>2026-05-14T08:23:03Z</time>
      </trkpt>
      <trkpt lat="43.75608" lon="7.47755">
        <ele>62.1</ele>
        <time>2026-05-14T08:23:04Z</time>
      </trkpt>
      <trkpt lat="43.7561" lon="7.47746">
        <ele>62</ele>
        <time>2026-05-14T08:23:05Z</time>
      </trkpt>
      <trkpt lat="43.75614" lon="7.47737">
        <ele>61.7</ele>
        <time>2026-05-14T08:23:06Z</time>
      </trkpt>
      <trkpt lat="43.75619" lon="7.47727">
        <ele>61.2</ele>
        <time>2026-05-14T08:23:07Z</time>
      </trkpt>
      <trkpt lat="43.75624" lon="7.47716">
        <ele>60.8</ele>
        <time>2026-05-14T08:23:08Z</time>
      </trkpt>
      <trkpt lat="43.75628" lon="7.47703">
        <ele>61</ele>
        <time>2026-05-14T08:23:09Z</time>
      </trkpt>
      <trkpt lat="43.75631" lon="7.4769">
        <ele>61.3</ele>
        <time>2026-05-14T08:23:10Z</time>
      </trkpt>
      <trkpt lat="43.75634" lon="7.47678">
        <ele>61.2</ele>
        <time>2026-05-14T08:23:11Z</time>
      </trkpt>
      <trkpt lat="43.75637" lon="7.47666">
        <ele>61.1</ele>
        <time>2026-05-14T08:23:12Z</time>
      </trkpt>
      <trkpt lat="43.7564" lon="7.47654">
        <ele>60.9</ele>
        <time>2026-05-14T08:23:13Z</time>
      </trkpt>
      <trkpt lat="43.75644" lon="7.47643">
        <ele>60.4</ele>
        <time>2026-05-14T08:23:14Z</time>
      </trkpt>
      <trkpt lat="43.75648" lon="7.47633">
        <ele>60.4</ele>
        <time>2026-05-14T08:23:15Z</time>
      </trkpt>
      <trkpt lat="43.75652" lon="7.47625">
        <ele>60.6</ele>
        <time>2026-05-14T08:23:16Z</time>
      </trkpt>
      <trkpt lat="43.75654" lon="7.47619">
        <ele>60.9</ele>
        <time>2026-05-14T08:23:17Z</time>
      </trkpt>
      <trkpt lat="43.75655" lon="7.47615">
        <ele>61.1</ele>
        <time>2026-05-14T08:23:18Z</time>
      </trkpt>
      <trkpt lat="43.75656" lon="7.47612">
        <ele>61.3</ele>
        <time>2026-05-14T08:23:19Z</time>
      </trkpt>
      <trkpt lat="43.75657" lon="7.47608">
        <ele>61.5</ele>
        <time>2026-05-14T08:23:20Z</time>
      </trkpt>
      <trkpt lat="43.75658" lon="7.47606">
        <ele>61.5</ele>
        <time>2026-05-14T08:23:21Z</time>
      </trkpt>
      <trkpt lat="43.7566" lon="7.47602">
        <ele>61.6</ele>
        <time>2026-05-14T08:23:22Z</time>
      </trkpt>
      <trkpt lat="43.75662" lon="7.47598">
        <ele>61.6</ele>
        <time>2026-05-14T08:23:23Z</time>
      </trkpt>
      <trkpt lat="43.75664" lon="7.47591">
        <ele>61.8</ele>
        <time>2026-05-14T08:23:24Z</time>
      </trkpt>
      <trkpt lat="43.75667" lon="7.47585">
        <ele>61.9</ele>
        <time>2026-05-14T08:23:25Z</time>
      </trkpt>
      <trkpt lat="43.75669" lon="7.47579">
        <ele>62.2</ele>
        <time>2026-05-14T08:23:26Z</time>
      </trkpt>
      <trkpt lat="43.75672" lon="7.47573">
        <ele>62.5</ele>
        <time>2026-05-14T08:23:27Z</time>
      </trkpt>
      <trkpt lat="43.75675" lon="7.47565">
        <ele>62.8</ele>
        <time>2026-05-14T08:23:28Z</time>
      </trkpt>
      <trkpt lat="43.75679" lon="7.47557">
        <ele>63</ele>
        <time>2026-05-14T08:23:29Z</time>
      </trkpt>
      <trkpt lat="43.75682" lon="7.47549">
        <ele>63.2</ele>
        <time>2026-05-14T08:23:30Z</time>
      </trkpt>
      <trkpt lat="43.75686" lon="7.47539">
        <ele>63.6</ele>
        <time>2026-05-14T08:23:31Z</time>
      </trkpt>
      <trkpt lat="43.7569" lon="7.47528">
        <ele>64</ele>
        <time>2026-05-14T08:23:32Z</time>
      </trkpt>
      <trkpt lat="43.75695" lon="7.47517">
        <ele>64.7</ele>
        <time>2026-05-14T08:23:33Z</time>
      </trkpt>
      <trkpt lat="43.757" lon="7.47504">
        <ele>65.1</ele>
        <time>2026-05-14T08:23:34Z</time>
      </trkpt>
      <trkpt lat="43.75704" lon="7.47493">
        <ele>65.5</ele>
        <time>2026-05-14T08:23:35Z</time>
      </trkpt>
      <trkpt lat="43.75707" lon="7.47484">
        <ele>66</ele>
        <time>2026-05-14T08:23:36Z</time>
      </trkpt>
      <trkpt lat="43.75709" lon="7.47477">
        <ele>66.6</ele>
        <time>2026-05-14T08:23:37Z</time>
      </trkpt>
      <trkpt lat="43.75711" lon="7.4747">
        <ele>67.1</ele>
        <time>2026-05-14T08:23:38Z</time>
      </trkpt>
      <trkpt lat="43.75714" lon="7.47465">
        <ele>67.3</ele>
        <time>2026-05-14T08:23:39Z</time>
      </trkpt>
      <trkpt lat="43.75716" lon="7.4746">
        <ele>67.4</ele>
        <time>2026-05-14T08:23:40Z</time>
      </trkpt>
      <trkpt lat="43.75717" lon="7.47455">
        <ele>67.6</ele>
        <time>2026-05-14T08:23:41Z</time>
      </trkpt>
      <trkpt lat="43.7572" lon="7.47449">
        <ele>67.8</ele>
        <time>2026-05-14T08:23:42Z</time>
      </trkpt>
      <trkpt lat="43.75725" lon="7.47442">
        <ele>68.1</ele>
        <time>2026-05-14T08:23:43Z</time>
      </trkpt>
      <trkpt lat="43.7573" lon="7.47436">
        <ele>68.3</ele>
        <time>2026-05-14T08:23:44Z</time>
      </trkpt>
      <trkpt lat="43.75735" lon="7.47432">
        <ele>68.5</ele>
        <time>2026-05-14T08:23:45Z</time>
      </trkpt>
      <trkpt lat="43.75741" lon="7.47428">
        <ele>68.7</ele>
        <time>2026-05-14T08:23:46Z</time>
      </trkpt>
      <trkpt lat="43.75747" lon="7.47427">
        <ele>68.9</ele>
        <time>2026-05-14T08:23:47Z</time>
      </trkpt>
      <trkpt lat="43.75753" lon="7.47424">
        <ele>69.1</ele>
        <time>2026-05-14T08:23:48Z</time>
      </trkpt>
      <trkpt lat="43.75758" lon="7.47421">
        <ele>69.3</ele>
        <time>2026-05-14T08:23:49Z</time>
      </trkpt>
      <trkpt lat="43.75764" lon="7.47419">
        <ele>69.5</ele>
        <time>2026-05-14T08:23:50Z</time>
      </trkpt>
      <trkpt lat="43.75771" lon="7.47416">
        <ele>69.7</ele>
        <time>2026-05-14T08:23:51Z</time>
      </trkpt>
      <trkpt lat="43.75778" lon="7.47413">
        <ele>69.9</ele>
        <time>2026-05-14T08:23:52Z</time>
      </trkpt>
      <trkpt lat="43.75784" lon="7.4741">
        <ele>69.9</ele>
        <time>2026-05-14T08:23:53Z</time>
      </trkpt>
      <trkpt lat="43.7579" lon="7.47407">
        <ele>70</ele>
        <time>2026-05-14T08:23:54Z</time>
      </trkpt>
      <trkpt lat="43.75797" lon="7.47404">
        <ele>70.2</ele>
        <time>2026-05-14T08:23:55Z</time>
      </trkpt>
      <trkpt lat="43.75804" lon="7.474">
        <ele>70.5</ele>
        <time>2026-05-14T08:23:56Z</time>
      </trkpt>
      <trkpt lat="43.75811" lon="7.47394">
        <ele>71</ele>
        <time>2026-05-14T08:23:57Z</time>
      </trkpt>
      <trkpt lat="43.75817" lon="7.47386">
        <ele>71.6</ele>
        <time>2026-05-14T08:23:58Z</time>
      </trkpt>
      <trkpt lat="43.75822" lon="7.47376">
        <ele>72.2</ele>
        <time>2026-05-14T08:23:59Z</time>
      </trkpt>
      <trkpt lat="43.75825" lon="7.47363">
        <ele>72.9</ele>
        <time>2026-05-14T08:24:00Z</time>
      </trkpt>
      <trkpt lat="43.75827" lon="7.4735">
        <ele>72.9</ele>
        <time>2026-05-14T08:24:01Z</time>
      </trkpt>
      <trkpt lat="43.75828" lon="7.47337">
        <ele>72.6</ele>
        <time>2026-05-14T08:24:02Z</time>
      </trkpt>
      <trkpt lat="43.75828" lon="7.47323">
        <ele>72.5</ele>
        <time>2026-05-14T08:24:03Z</time>
      </trkpt>
      <trkpt lat="43.75827" lon="7.47309">
        <ele>72.5</ele>
        <time>2026-05-14T08:24:04Z</time>
      </trkpt>
      <trkpt lat="43.75826" lon="7.47295">
        <ele>72.8</ele>
        <time>2026-05-14T08:24:05Z</time>
      </trkpt>
      <trkpt lat="43.75824" lon="7.47282">
        <ele>72.9</ele>
        <time>2026-05-14T08:24:06Z</time>
      </trkpt>
      <trkpt lat="43.75823" lon="7.4727">
        <ele>73.1</ele>
        <time>2026-05-14T08:24:07Z</time>
      </trkpt>
      <trkpt lat="43.75822" lon="7.47259">
        <ele>73.2</ele>
        <time>2026-05-14T08:24:08Z</time>
      </trkpt>
      <trkpt lat="43.75821" lon="7.47246">
        <ele>73</ele>
        <time>2026-05-14T08:24:09Z</time>
      </trkpt>
      <trkpt lat="43.75821" lon="7.47231">
        <ele>72.2</ele>
        <time>2026-05-14T08:24:10Z</time>
      </trkpt>
      <trkpt lat="43.75821" lon="7.47217">
        <ele>71.7</ele>
        <time>2026-05-14T08:24:11Z</time>
      </trkpt>
      <trkpt lat="43.75822" lon="7.47204">
        <ele>71.9</ele>
        <time>2026-05-14T08:24:12Z</time>
      </trkpt>
      <trkpt lat="43.75823" lon="7.4719">
        <ele>72.2</ele>
        <time>2026-05-14T08:24:13Z</time>
      </trkpt>
      <trkpt lat="43.75824" lon="7.47175">
        <ele>72.6</ele>
        <time>2026-05-14T08:24:14Z</time>
      </trkpt>
      <trkpt lat="43.75824" lon="7.47161">
        <ele>73</ele>
        <time>2026-05-14T08:24:15Z</time>
      </trkpt>
      <trkpt lat="43.75824" lon="7.47148">
        <ele>73.8</ele>
        <time>2026-05-14T08:24:16Z</time>
      </trkpt>
      <trkpt lat="43.75822" lon="7.47135">
        <ele>74.1</ele>
        <time>2026-05-14T08:24:17Z</time>
      </trkpt>
      <trkpt lat="43.7582" lon="7.47121">
        <ele>74.5</ele>
        <time>2026-05-14T08:24:18Z</time>
      </trkpt>
      <trkpt lat="43.75816" lon="7.47107">
        <ele>75.1</ele>
        <time>2026-05-14T08:24:19Z</time>
      </trkpt>
      <trkpt lat="43.75812" lon="7.47092">
        <ele>76</ele>
        <time>2026-05-14T08:24:20Z</time>
      </trkpt>
      <trkpt lat="43.75808" lon="7.47078">
        <ele>76.5</ele>
        <time>2026-05-14T08:24:21Z</time>
      </trkpt>
      <trkpt lat="43.75803" lon="7.47064">
        <ele>76.3</ele>
        <time>2026-05-14T08:24:22Z</time>
      </trkpt>
      <trkpt lat="43.75799" lon="7.47051">
        <ele>76.8</ele>
        <time>2026-05-14T08:24:23Z</time>
      </trkpt>
      <trkpt lat="43.75795" lon="7.47037">
        <ele>78.3</ele>
        <time>2026-05-14T08:24:24Z</time>
      </trkpt>
      <trkpt lat="43.7579" lon="7.47023">
        <ele>79.1</ele>
        <time>2026-05-14T08:24:25Z</time>
      </trkpt>
      <trkpt lat="43.75787" lon="7.4701">
        <ele>79.7</ele>
        <time>2026-05-14T08:24:26Z</time>
      </trkpt>
      <trkpt lat="43.75783" lon="7.46997">
        <ele>79.7</ele>
        <time>2026-05-14T08:24:27Z</time>
      </trkpt>
      <trkpt lat="43.75781" lon="7.46983">
        <ele>80.2</ele>
        <time>2026-05-14T08:24:28Z</time>
      </trkpt>
      <trkpt lat="43.75779" lon="7.46969">
        <ele>80.4</ele>
        <time>2026-05-14T08:24:29Z</time>
      </trkpt>
      <trkpt lat="43.75779" lon="7.46954">
        <ele>80.4</ele>
        <time>2026-05-14T08:24:30Z</time>
      </trkpt>
      <trkpt lat="43.75779" lon="7.46939">
        <ele>80.5</ele>
        <time>2026-05-14T08:24:31Z</time>
      </trkpt>
      <trkpt lat="43.75779" lon="7.46924">
        <ele>80.5</ele>
        <time>2026-05-14T08:24:32Z</time>
      </trkpt>
      <trkpt lat="43.7578" lon="7.46909">
        <ele>80.9</ele>
        <time>2026-05-14T08:24:33Z</time>
      </trkpt>
      <trkpt lat="43.75782" lon="7.46894">
        <ele>81.6</ele>
        <time>2026-05-14T08:24:34Z</time>
      </trkpt>
      <trkpt lat="43.75785" lon="7.46879">
        <ele>80.6</ele>
        <time>2026-05-14T08:24:35Z</time>
      </trkpt>
      <trkpt lat="43.7579" lon="7.46865">
        <ele>79.6</ele>
        <time>2026-05-14T08:24:36Z</time>
      </trkpt>
      <trkpt lat="43.75796" lon="7.4685">
        <ele>80.3</ele>
        <time>2026-05-14T08:24:37Z</time>
      </trkpt>
      <trkpt lat="43.75802" lon="7.46836">
        <ele>81.7</ele>
        <time>2026-05-14T08:24:38Z</time>
      </trkpt>
      <trkpt lat="43.75808" lon="7.46822">
        <ele>81.8</ele>
        <time>2026-05-14T08:24:39Z</time>
      </trkpt>
      <trkpt lat="43.75815" lon="7.46807">
        <ele>81.6</ele>
        <time>2026-05-14T08:24:40Z</time>
      </trkpt>
      <trkpt lat="43.75822" lon="7.46794">
        <ele>81.7</ele>
        <time>2026-05-14T08:24:41Z</time>
      </trkpt>
      <trkpt lat="43.75828" lon="7.46781">
        <ele>82</ele>
        <time>2026-05-14T08:24:42Z</time>
      </trkpt>
      <trkpt lat="43.75836" lon="7.46767">
        <ele>82.7</ele>
        <time>2026-05-14T08:24:43Z</time>
      </trkpt>
      <trkpt lat="43.75843" lon="7.46754">
        <ele>82.6</ele>
        <time>2026-05-14T08:24:44Z</time>
      </trkpt>
      <trkpt lat="43.75851" lon="7.4674">
        <ele>82.7</ele>
        <time>2026-05-14T08:24:45Z</time>
      </trkpt>
      <trkpt lat="43.75859" lon="7.46726">
        <ele>82.9</ele>
        <time>2026-05-14T08:24:46Z</time>
      </trkpt>
      <trkpt lat="43.75868" lon="7.46713">
        <ele>83.8</ele>
        <time>2026-05-14T08:24:47Z</time>
      </trkpt>
      <trkpt lat="43.75876" lon="7.467">
        <ele>84.5</ele>
        <time>2026-05-14T08:24:48Z</time>
      </trkpt>
      <trkpt lat="43.75884" lon="7.46688">
        <ele>85.3</ele>
        <time>2026-05-14T08:24:49Z</time>
      </trkpt>
      <trkpt lat="43.75892" lon="7.46677">
        <ele>85.7</ele>
        <time>2026-05-14T08:24:50Z</time>
      </trkpt>
      <trkpt lat="43.759" lon="7.46665">
        <ele>85.7</ele>
        <time>2026-05-14T08:24:51Z</time>
      </trkpt>
      <trkpt lat="43.75908" lon="7.46654">
        <ele>86.3</ele>
        <time>2026-05-14T08:24:52Z</time>
      </trkpt>
      <trkpt lat="43.75916" lon="7.46643">
        <ele>86.7</ele>
        <time>2026-05-14T08:24:53Z</time>
      </trkpt>
      <trkpt lat="43.75925" lon="7.46631">
        <ele>86.6</ele>
        <time>2026-05-14T08:24:54Z</time>
      </trkpt>
      <trkpt lat="43.75934" lon="7.46619">
        <ele>86.2</ele>
        <time>2026-05-14T08:24:55Z</time>
      </trkpt>
      <trkpt lat="43.75942" lon="7.46607">
        <ele>85.9</ele>
        <time>2026-05-14T08:24:56Z</time>
      </trkpt>
      <trkpt lat="43.75951" lon="7.46596">
        <ele>87.4</ele>
        <time>2026-05-14T08:24:57Z</time>
      </trkpt>
      <trkpt lat="43.7596" lon="7.46585">
        <ele>88.7</ele>
        <time>2026-05-14T08:24:58Z</time>
      </trkpt>
      <trkpt lat="43.75969" lon="7.46574">
        <ele>89.1</ele>
        <time>2026-05-14T08:24:59Z</time>
      </trkpt>
      <trkpt lat="43.75979" lon="7.46562">
        <ele>89.2</ele>
        <time>2026-05-14T08:25:00Z</time>
      </trkpt>
      <trkpt lat="43.75989" lon="7.46549">
        <ele>89</ele>
        <time>2026-05-14T08:25:01Z</time>
      </trkpt>
      <trkpt lat="43.75998" lon="7.46538">
        <ele>89.3</ele>
        <time>2026-05-14T08:25:02Z</time>
      </trkpt>
      <trkpt lat="43.76007" lon="7.46525">
        <ele>89.3</ele>
        <time>2026-05-14T08:25:03Z</time>
      </trkpt>
      <trkpt lat="43.76015" lon="7.46512">
        <ele>88.7</ele>
        <time>2026-05-14T08:25:04Z</time>
      </trkpt>
      <trkpt lat="43.76023" lon="7.46501">
        <ele>88.7</ele>
        <time>2026-05-14T08:25:05Z</time>
      </trkpt>
      <trkpt lat="43.76029" lon="7.46489">
        <ele>87.4</ele>
        <time>2026-05-14T08:25:06Z</time>
      </trkpt>
      <trkpt lat="43.76035" lon="7.4648">
        <ele>86.5</ele>
        <time>2026-05-14T08:25:07Z</time>
      </trkpt>
      <trkpt lat="43.76042" lon="7.46471">
        <ele>86.2</ele>
        <time>2026-05-14T08:25:08Z</time>
      </trkpt>
      <trkpt lat="43.76047" lon="7.46465">
        <ele>86.1</ele>
        <time>2026-05-14T08:25:09Z</time>
      </trkpt>
      <trkpt lat="43.76051" lon="7.4646">
        <ele>86.2</ele>
        <time>2026-05-14T08:25:10Z</time>
      </trkpt>
      <trkpt lat="43.76054" lon="7.46458">
        <ele>86.9</ele>
        <time>2026-05-14T08:25:11Z</time>
      </trkpt>
      <trkpt lat="43.76057" lon="7.46456">
        <ele>87.4</ele>
        <time>2026-05-14T08:25:12Z</time>
      </trkpt>
      <trkpt lat="43.76058" lon="7.46454">
        <ele>87.2</ele>
        <time>2026-05-14T08:25:13Z</time>
      </trkpt>
      <trkpt lat="43.7606" lon="7.46452">
        <ele>87.2</ele>
        <time>2026-05-14T08:25:14Z</time>
      </trkpt>
      <trkpt lat="43.76062" lon="7.46451">
        <ele>87.3</ele>
        <time>2026-05-14T08:25:15Z</time>
      </trkpt>
      <trkpt lat="43.76063" lon="7.46449">
        <ele>87.1</ele>
        <time>2026-05-14T08:25:16Z</time>
      </trkpt>
      <trkpt lat="43.76065" lon="7.46448">
        <ele>87.2</ele>
        <time>2026-05-14T08:25:17Z</time>
      </trkpt>
      <trkpt lat="43.76066" lon="7.46447">
        <ele>87.1</ele>
        <time>2026-05-14T08:25:18Z</time>
      </trkpt>
      <trkpt lat="43.76066" lon="7.46447">
        <ele>87.1</ele>
        <time>2026-05-14T08:25:19Z</time>
      </trkpt>
      <trkpt lat="43.76066" lon="7.46447">
        <ele>87.1</ele>
        <time>2026-05-14T08:25:20Z</time>
      </trkpt>
      <trkpt lat="43.76066" lon="7.46447">
        <ele>87.1</ele>
        <time>2026-05-14T08:25:21Z</time>
      </trkpt>
      <trkpt lat="43.76066" lon="7.46446">
        <ele>86.9</ele>
        <time>2026-05-14T08:25:22Z</time>
      </trkpt>
      <trkpt lat="43.76068" lon="7.46445">
        <ele>86.9</ele>
        <time>2026-05-14T08:25:23Z</time>
      </trkpt>
      <trkpt lat="43.76069" lon="7.46444">
        <ele>86.7</ele>
        <time>2026-05-14T08:25:24Z</time>
      </trkpt>
      <trkpt lat="43.7607" lon="7.46444">
        <ele>86.9</ele>
        <time>2026-05-14T08:25:25Z</time>
      </trkpt>
      <trkpt lat="43.76071" lon="7.46443">
        <ele>86.5</ele>
        <time>2026-05-14T08:25:26Z</time>
      </trkpt>
      <trkpt lat="43.76071" lon="7.46443">
        <ele>86.5</ele>
        <time>2026-05-14T08:25:27Z</time>
      </trkpt>
      <trkpt lat="43.76071" lon="7.46444">
        <ele>87</ele>
        <time>2026-05-14T08:25:28Z</time>
      </trkpt>
      <trkpt lat="43.76071" lon="7.46444">
        <ele>87</ele>
        <time>2026-05-14T08:25:29Z</time>
      </trkpt>
      <trkpt lat="43.76073" lon="7.46444">
        <ele>87.3</ele>
        <time>2026-05-14T08:25:30Z</time>
      </trkpt>
      <trkpt lat="43.76075" lon="7.46446">
        <ele>88.2</ele>
        <time>2026-05-14T08:25:31Z</time>
      </trkpt>
      <trkpt lat="43.76078" lon="7.46449">
        <ele>89.6</ele>
        <time>2026-05-14T08:25:32Z</time>
      </trkpt>
      <trkpt lat="43.76079" lon="7.46455">
        <ele>91.6</ele>
        <time>2026-05-14T08:25:33Z</time>
      </trkpt>
      <trkpt lat="43.76071" lon="7.46463">
        <ele>92</ele>
        <time>2026-05-14T08:25:34Z</time>
      </trkpt>
      <trkpt lat="43.76064" lon="7.46468">
        <ele>91.5</ele>
        <time>2026-05-14T08:25:35Z</time>
      </trkpt>
      <trkpt lat="43.76055" lon="7.46474">
        <ele>90.1</ele>
        <time>2026-05-14T08:25:36Z</time>
      </trkpt>
      <trkpt lat="43.76046" lon="7.46483">
        <ele>89.3</ele>
        <time>2026-05-14T08:25:37Z</time>
      </trkpt>
      <trkpt lat="43.76037" lon="7.46496">
        <ele>90.2</ele>
        <time>2026-05-14T08:25:38Z</time>
      </trkpt>
      <trkpt lat="43.76028" lon="7.46511">
        <ele>92.4</ele>
        <time>2026-05-14T08:25:39Z</time>
      </trkpt>
      <trkpt lat="43.76019" lon="7.46525">
        <ele>92.8</ele>
        <time>2026-05-14T08:25:40Z</time>
      </trkpt>
      <trkpt lat="43.7601" lon="7.4654">
        <ele>93.2</ele>
        <time>2026-05-14T08:25:41Z</time>
      </trkpt>
      <trkpt lat="43.76001" lon="7.46555">
        <ele>93.2</ele>
        <time>2026-05-14T08:25:42Z</time>
      </trkpt>
      <trkpt lat="43.75992" lon="7.46569">
        <ele>94.2</ele>
        <time>2026-05-14T08:25:43Z</time>
      </trkpt>
      <trkpt lat="43.75984" lon="7.46582">
        <ele>95.1</ele>
        <time>2026-05-14T08:25:44Z</time>
      </trkpt>
      <trkpt lat="43.75977" lon="7.46594">
        <ele>95.2</ele>
        <time>2026-05-14T08:25:45Z</time>
      </trkpt>
      <trkpt lat="43.75969" lon="7.46607">
        <ele>94.4</ele>
        <time>2026-05-14T08:25:46Z</time>
      </trkpt>
      <trkpt lat="43.75962" lon="7.4662">
        <ele>94.5</ele>
        <time>2026-05-14T08:25:47Z</time>
      </trkpt>
      <trkpt lat="43.75955" lon="7.46632">
        <ele>95.1</ele>
        <time>2026-05-14T08:25:48Z</time>
      </trkpt>
      <trkpt lat="43.75948" lon="7.46644">
        <ele>95.5</ele>
        <time>2026-05-14T08:25:49Z</time>
      </trkpt>
      <trkpt lat="43.75942" lon="7.46656">
        <ele>95.9</ele>
        <time>2026-05-14T08:25:50Z</time>
      </trkpt>
      <trkpt lat="43.75937" lon="7.46666">
        <ele>96.3</ele>
        <time>2026-05-14T08:25:51Z</time>
      </trkpt>
      <trkpt lat="43.75931" lon="7.46676">
        <ele>96.2</ele>
        <time>2026-05-14T08:25:52Z</time>
      </trkpt>
      <trkpt lat="43.75925" lon="7.46686">
        <ele>96.9</ele>
        <time>2026-05-14T08:25:53Z</time>
      </trkpt>
      <trkpt lat="43.75918" lon="7.46698">
        <ele>98.9</ele>
        <time>2026-05-14T08:25:54Z</time>
      </trkpt>
      <trkpt lat="43.75911" lon="7.4671">
        <ele>99.4</ele>
        <time>2026-05-14T08:25:55Z</time>
      </trkpt>
      <trkpt lat="43.75905" lon="7.46723">
        <ele>100</ele>
        <time>2026-05-14T08:25:56Z</time>
      </trkpt>
      <trkpt lat="43.75899" lon="7.46735">
        <ele>100.6</ele>
        <time>2026-05-14T08:25:57Z</time>
      </trkpt>
      <trkpt lat="43.75894" lon="7.46747">
        <ele>101.4</ele>
        <time>2026-05-14T08:25:58Z</time>
      </trkpt>
      <trkpt lat="43.75889" lon="7.46759">
        <ele>102.3</ele>
        <time>2026-05-14T08:25:59Z</time>
      </trkpt>
      <trkpt lat="43.75884" lon="7.4677">
        <ele>102.9</ele>
        <time>2026-05-14T08:26:00Z</time>
      </trkpt>
      <trkpt lat="43.75879" lon="7.46782">
        <ele>103.2</ele>
        <time>2026-05-14T08:26:01Z</time>
      </trkpt>
      <trkpt lat="43.75874" lon="7.46793">
        <ele>103.4</ele>
        <time>2026-05-14T08:26:02Z</time>
      </trkpt>
      <trkpt lat="43.75869" lon="7.46805">
        <ele>104</ele>
        <time>2026-05-14T08:26:03Z</time>
      </trkpt>
      <trkpt lat="43.75865" lon="7.46815">
        <ele>104.1</ele>
        <time>2026-05-14T08:26:04Z</time>
      </trkpt>
      <trkpt lat="43.75862" lon="7.46823">
        <ele>104</ele>
        <time>2026-05-14T08:26:05Z</time>
      </trkpt>
      <trkpt lat="43.75859" lon="7.46829">
        <ele>103.4</ele>
        <time>2026-05-14T08:26:06Z</time>
      </trkpt>
      <trkpt lat="43.75856" lon="7.46836">
        <ele>103.1</ele>
        <time>2026-05-14T08:26:07Z</time>
      </trkpt>
      <trkpt lat="43.75854" lon="7.46841">
        <ele>103.1</ele>
        <time>2026-05-14T08:26:08Z</time>
      </trkpt>
      <trkpt lat="43.75852" lon="7.46846">
        <ele>103.2</ele>
        <time>2026-05-14T08:26:09Z</time>
      </trkpt>
      <trkpt lat="43.7585" lon="7.46852">
        <ele>103.4</ele>
        <time>2026-05-14T08:26:10Z</time>
      </trkpt>
      <trkpt lat="43.75848" lon="7.46857">
        <ele>103.5</ele>
        <time>2026-05-14T08:26:11Z</time>
      </trkpt>
      <trkpt lat="43.75846" lon="7.46863">
        <ele>103.9</ele>
        <time>2026-05-14T08:26:12Z</time>
      </trkpt>
      <trkpt lat="43.75844" lon="7.4687">
        <ele>104.7</ele>
        <time>2026-05-14T08:26:13Z</time>
      </trkpt>
      <trkpt lat="43.75841" lon="7.46877">
        <ele>104.9</ele>
        <time>2026-05-14T08:26:14Z</time>
      </trkpt>
      <trkpt lat="43.75839" lon="7.46884">
        <ele>105.6</ele>
        <time>2026-05-14T08:26:15Z</time>
      </trkpt>
      <trkpt lat="43.75837" lon="7.46892">
        <ele>105.8</ele>
        <time>2026-05-14T08:26:16Z</time>
      </trkpt>
      <trkpt lat="43.75835" lon="7.469">
        <ele>105.2</ele>
        <time>2026-05-14T08:26:17Z</time>
      </trkpt>
      <trkpt lat="43.75833" lon="7.46907">
        <ele>104.5</ele>
        <time>2026-05-14T08:26:18Z</time>
      </trkpt>
      <trkpt lat="43.75832" lon="7.46914">
        <ele>104.3</ele>
        <time>2026-05-14T08:26:19Z</time>
      </trkpt>
      <trkpt lat="43.75832" lon="7.4692">
        <ele>104.1</ele>
        <time>2026-05-14T08:26:20Z</time>
      </trkpt>
      <trkpt lat="43.75833" lon="7.46925">
        <ele>104.2</ele>
        <time>2026-05-14T08:26:21Z</time>
      </trkpt>
      <trkpt lat="43.75833" lon="7.46929">
        <ele>104</ele>
        <time>2026-05-14T08:26:22Z</time>
      </trkpt>
      <trkpt lat="43.75835" lon="7.46933">
        <ele>104.5</ele>
        <time>2026-05-14T08:26:23Z</time>
      </trkpt>
      <trkpt lat="43.75836" lon="7.46937">
        <ele>104.5</ele>
        <time>2026-05-14T08:26:24Z</time>
      </trkpt>
      <trkpt lat="43.75837" lon="7.4694">
        <ele>104.5</ele>
        <time>2026-05-14T08:26:25Z</time>
      </trkpt>
      <trkpt lat="43.75838" lon="7.46943">
        <ele>104.5</ele>
        <time>2026-05-14T08:26:26Z</time>
      </trkpt>
      <trkpt lat="43.75839" lon="7.46946">
        <ele>104.3</ele>
        <time>2026-05-14T08:26:27Z</time>
      </trkpt>
      <trkpt lat="43.7584" lon="7.46947">
        <ele>104.4</ele>
        <time>2026-05-14T08:26:28Z</time>
      </trkpt>
      <trkpt lat="43.75839" lon="7.46946">
        <ele>104.3</ele>
        <time>2026-05-14T08:26:29Z</time>
      </trkpt>
      <trkpt lat="43.75839" lon="7.46946">
        <ele>104.3</ele>
        <time>2026-05-14T08:26:30Z</time>
      </trkpt>
      <trkpt lat="43.7584" lon="7.46947">
        <ele>104.4</ele>
        <time>2026-05-14T08:26:31Z</time>
      </trkpt>
      <trkpt lat="43.7584" lon="7.46948">
        <ele>104.2</ele>
        <time>2026-05-14T08:26:32Z</time>
      </trkpt>
      <trkpt lat="43.75841" lon="7.46949">
        <ele>104.2</ele>
        <time>2026-05-14T08:26:33Z</time>
      </trkpt>
      <trkpt lat="43.75842" lon="7.4695">
        <ele>104.3</ele>
        <time>2026-05-14T08:26:34Z</time>
      </trkpt>
      <trkpt lat="43.75843" lon="7.46953">
        <ele>103.9</ele>
        <time>2026-05-14T08:26:35Z</time>
      </trkpt>
      <trkpt lat="43.75847" lon="7.46959">
        <ele>103.8</ele>
        <time>2026-05-14T08:26:36Z</time>
      </trkpt>
      <trkpt lat="43.75852" lon="7.4696">
        <ele>105</ele>
        <time>2026-05-14T08:26:37Z</time>
      </trkpt>
      <trkpt lat="43.75856" lon="7.46958">
        <ele>106.6</ele>
        <time>2026-05-14T08:26:38Z</time>
      </trkpt>
      <trkpt lat="43.75859" lon="7.46952">
        <ele>108.8</ele>
        <time>2026-05-14T08:26:39Z</time>
      </trkpt>
      <trkpt lat="43.75858" lon="7.46945">
        <ele>110</ele>
        <time>2026-05-14T08:26:40Z</time>
      </trkpt>
      <trkpt lat="43.75854" lon="7.46935">
        <ele>111.1</ele>
        <time>2026-05-14T08:26:41Z</time>
      </trkpt>
      <trkpt lat="43.75851" lon="7.46924">
        <ele>112.4</ele>
        <time>2026-05-14T08:26:42Z</time>
      </trkpt>
      <trkpt lat="43.75849" lon="7.46911">
        <ele>112.6</ele>
        <time>2026-05-14T08:26:43Z</time>
      </trkpt>
      <trkpt lat="43.7585" lon="7.46897">
        <ele>112.3</ele>
        <time>2026-05-14T08:26:44Z</time>
      </trkpt>
      <trkpt lat="43.75853" lon="7.46883">
        <ele>111.8</ele>
        <time>2026-05-14T08:26:45Z</time>
      </trkpt>
      <trkpt lat="43.75858" lon="7.46867">
        <ele>110.1</ele>
        <time>2026-05-14T08:26:46Z</time>
      </trkpt>
      <trkpt lat="43.75866" lon="7.46851">
        <ele>111.6</ele>
        <time>2026-05-14T08:26:47Z</time>
      </trkpt>
      <trkpt lat="43.75874" lon="7.46836">
        <ele>113.1</ele>
        <time>2026-05-14T08:26:48Z</time>
      </trkpt>
      <trkpt lat="43.75883" lon="7.46819">
        <ele>113.5</ele>
        <time>2026-05-14T08:26:49Z</time>
      </trkpt>
      <trkpt lat="43.75893" lon="7.46803">
        <ele>113.6</ele>
        <time>2026-05-14T08:26:50Z</time>
      </trkpt>
      <trkpt lat="43.75903" lon="7.46787">
        <ele>114.8</ele>
        <time>2026-05-14T08:26:51Z</time>
      </trkpt>
      <trkpt lat="43.75914" lon="7.46772">
        <ele>115.5</ele>
        <time>2026-05-14T08:26:52Z</time>
      </trkpt>
      <trkpt lat="43.75925" lon="7.46758">
        <ele>116.4</ele>
        <time>2026-05-14T08:26:53Z</time>
      </trkpt>
      <trkpt lat="43.75936" lon="7.46747">
        <ele>117.3</ele>
        <time>2026-05-14T08:26:54Z</time>
      </trkpt>
      <trkpt lat="43.75946" lon="7.46736">
        <ele>118.4</ele>
        <time>2026-05-14T08:26:55Z</time>
      </trkpt>
      <trkpt lat="43.75958" lon="7.46725">
        <ele>117.8</ele>
        <time>2026-05-14T08:26:56Z</time>
      </trkpt>
      <trkpt lat="43.75969" lon="7.46714">
        <ele>115.4</ele>
        <time>2026-05-14T08:26:57Z</time>
      </trkpt>
      <trkpt lat="43.75981" lon="7.46702">
        <ele>115.4</ele>
        <time>2026-05-14T08:26:58Z</time>
      </trkpt>
      <trkpt lat="43.75992" lon="7.46688">
        <ele>118.3</ele>
        <time>2026-05-14T08:26:59Z</time>
      </trkpt>
      <trkpt lat="43.76003" lon="7.46674">
        <ele>123.4</ele>
        <time>2026-05-14T08:27:00Z</time>
      </trkpt>
      <trkpt lat="43.76013" lon="7.4666">
        <ele>124.5</ele>
        <time>2026-05-14T08:27:01Z</time>
      </trkpt>
      <trkpt lat="43.76025" lon="7.46647">
        <ele>124.6</ele>
        <time>2026-05-14T08:27:02Z</time>
      </trkpt>
      <trkpt lat="43.76038" lon="7.46636">
        <ele>124</ele>
        <time>2026-05-14T08:27:03Z</time>
      </trkpt>
      <trkpt lat="43.76051" lon="7.46626">
        <ele>124.7</ele>
        <time>2026-05-14T08:27:04Z</time>
      </trkpt>
      <trkpt lat="43.76065" lon="7.46617">
        <ele>126.8</ele>
        <time>2026-05-14T08:27:05Z</time>
      </trkpt>
      <trkpt lat="43.76079" lon="7.46607">
        <ele>128.2</ele>
        <time>2026-05-14T08:27:06Z</time>
      </trkpt>
      <trkpt lat="43.76092" lon="7.46597">
        <ele>130.1</ele>
        <time>2026-05-14T08:27:07Z</time>
      </trkpt>
      <trkpt lat="43.76103" lon="7.46585">
        <ele>131.4</ele>
        <time>2026-05-14T08:27:08Z</time>
      </trkpt>
      <trkpt lat="43.76112" lon="7.46572">
        <ele>131.8</ele>
        <time>2026-05-14T08:27:09Z</time>
      </trkpt>
      <trkpt lat="43.76123" lon="7.4656">
        <ele>132</ele>
        <time>2026-05-14T08:27:10Z</time>
      </trkpt>
      <trkpt lat="43.76135" lon="7.4655">
        <ele>133.1</ele>
        <time>2026-05-14T08:27:11Z</time>
      </trkpt>
      <trkpt lat="43.76146" lon="7.46541">
        <ele>134.7</ele>
        <time>2026-05-14T08:27:12Z</time>
      </trkpt>
      <trkpt lat="43.76156" lon="7.46531">
        <ele>135.8</ele>
        <time>2026-05-14T08:27:13Z</time>
      </trkpt>
      <trkpt lat="43.76165" lon="7.46517">
        <ele>136.3</ele>
        <time>2026-05-14T08:27:14Z</time>
      </trkpt>
      <trkpt lat="43.76173" lon="7.46504">
        <ele>137.7</ele>
        <time>2026-05-14T08:27:15Z</time>
      </trkpt>
      <trkpt lat="43.7618" lon="7.46489">
        <ele>139.2</ele>
        <time>2026-05-14T08:27:16Z</time>
      </trkpt>
      <trkpt lat="43.76188" lon="7.46469">
        <ele>140.8</ele>
        <time>2026-05-14T08:27:17Z</time>
      </trkpt>
      <trkpt lat="43.76197" lon="7.46453">
        <ele>140.8</ele>
        <time>2026-05-14T08:27:18Z</time>
      </trkpt>
      <trkpt lat="43.76206" lon="7.46439">
        <ele>141</ele>
        <time>2026-05-14T08:27:19Z</time>
      </trkpt>
      <trkpt lat="43.76217" lon="7.46428">
        <ele>141.8</ele>
        <time>2026-05-14T08:27:20Z</time>
      </trkpt>
      <trkpt lat="43.76229" lon="7.46417">
        <ele>143.3</ele>
        <time>2026-05-14T08:27:21Z</time>
      </trkpt>
      <trkpt lat="43.76241" lon="7.46406">
        <ele>145.4</ele>
        <time>2026-05-14T08:27:22Z</time>
      </trkpt>
      <trkpt lat="43.76253" lon="7.4639">
        <ele>144.9</ele>
        <time>2026-05-14T08:27:23Z</time>
      </trkpt>
      <trkpt lat="43.76265" lon="7.46375">
        <ele>146.5</ele>
        <time>2026-05-14T08:27:24Z</time>
      </trkpt>
      <trkpt lat="43.76279" lon="7.46361">
        <ele>147.6</ele>
        <time>2026-05-14T08:27:25Z</time>
      </trkpt>
      <trkpt lat="43.76291" lon="7.46347">
        <ele>150.2</ele>
        <time>2026-05-14T08:27:26Z</time>
      </trkpt>
      <trkpt lat="43.76303" lon="7.46331">
        <ele>150.4</ele>
        <time>2026-05-14T08:27:27Z</time>
      </trkpt>
      <trkpt lat="43.76314" lon="7.46316">
        <ele>151.4</ele>
        <time>2026-05-14T08:27:28Z</time>
      </trkpt>
      <trkpt lat="43.76324" lon="7.46301">
        <ele>152</ele>
        <time>2026-05-14T08:27:29Z</time>
      </trkpt>
      <trkpt lat="43.76333" lon="7.46287">
        <ele>151.8</ele>
        <time>2026-05-14T08:27:30Z</time>
      </trkpt>
      <trkpt lat="43.76342" lon="7.46273">
        <ele>152.4</ele>
        <time>2026-05-14T08:27:31Z</time>
      </trkpt>
      <trkpt lat="43.76351" lon="7.46261">
        <ele>153.4</ele>
        <time>2026-05-14T08:27:32Z</time>
      </trkpt>
      <trkpt lat="43.7636" lon="7.46251">
        <ele>153.9</ele>
        <time>2026-05-14T08:27:33Z</time>
      </trkpt>
      <trkpt lat="43.76369" lon="7.46245">
        <ele>156.5</ele>
        <time>2026-05-14T08:27:34Z</time>
      </trkpt>
      <trkpt lat="43.76376" lon="7.46236">
        <ele>156.3</ele>
        <time>2026-05-14T08:27:35Z</time>
      </trkpt>
      <trkpt lat="43.76381" lon="7.46225">
        <ele>153.4</ele>
        <time>2026-05-14T08:27:36Z</time>
      </trkpt>
      <trkpt lat="43.76384" lon="7.46211">
        <ele>157.6</ele>
        <time>2026-05-14T08:27:37Z</time>
      </trkpt>
      <trkpt lat="43.76383" lon="7.46196">
        <ele>162.4</ele>
        <time>2026-05-14T08:27:38Z</time>
      </trkpt>
      <trkpt lat="43.76378" lon="7.4618">
        <ele>161.7</ele>
        <time>2026-05-14T08:27:39Z</time>
      </trkpt>
      <trkpt lat="43.76373" lon="7.46169">
        <ele>160.5</ele>
        <time>2026-05-14T08:27:40Z</time>
      </trkpt>
      <trkpt lat="43.76373" lon="7.46154">
        <ele>161.2</ele>
        <time>2026-05-14T08:27:41Z</time>
      </trkpt>
      <trkpt lat="43.76375" lon="7.4614">
        <ele>163</ele>
        <time>2026-05-14T08:27:42Z</time>
      </trkpt>
      <trkpt lat="43.7638" lon="7.46125">
        <ele>162.9</ele>
        <time>2026-05-14T08:27:43Z</time>
      </trkpt>
      <trkpt lat="43.76386" lon="7.46112">
        <ele>162.8</ele>
        <time>2026-05-14T08:27:44Z</time>
      </trkpt>
      <trkpt lat="43.76391" lon="7.46098">
        <ele>164.1</ele>
        <time>2026-05-14T08:27:45Z</time>
      </trkpt>
      <trkpt lat="43.76391" lon="7.46084">
        <ele>162.6</ele>
        <time>2026-05-14T08:27:46Z</time>
      </trkpt>
      <trkpt lat="43.76388" lon="7.4607">
        <ele>165.8</ele>
        <time>2026-05-14T08:27:47Z</time>
      </trkpt>
      <trkpt lat="43.76382" lon="7.46058">
        <ele>167.3</ele>
        <time>2026-05-14T08:27:48Z</time>
      </trkpt>
      <trkpt lat="43.76375" lon="7.46045">
        <ele>167.9</ele>
        <time>2026-05-14T08:27:49Z</time>
      </trkpt>
      <trkpt lat="43.76366" lon="7.46033">
        <ele>166.9</ele>
        <time>2026-05-14T08:27:50Z</time>
      </trkpt>
      <trkpt lat="43.76359" lon="7.46019">
        <ele>166.8</ele>
        <time>2026-05-14T08:27:51Z</time>
      </trkpt>
      <trkpt lat="43.76354" lon="7.46006">
        <ele>167.2</ele>
        <time>2026-05-14T08:27:52Z</time>
      </trkpt>
      <trkpt lat="43.76352" lon="7.45994">
        <ele>167.7</ele>
        <time>2026-05-14T08:27:53Z</time>
      </trkpt>
      <trkpt lat="43.76352" lon="7.45982">
        <ele>167.7</ele>
        <time>2026-05-14T08:27:54Z</time>
      </trkpt>
      <trkpt lat="43.76355" lon="7.45969">
        <ele>168.8</ele>
        <time>2026-05-14T08:27:55Z</time>
      </trkpt>
      <trkpt lat="43.76359" lon="7.45956">
        <ele>168.9</ele>
        <time>2026-05-14T08:27:56Z</time>
      </trkpt>
      <trkpt lat="43.76366" lon="7.45942">
        <ele>169.5</ele>
        <time>2026-05-14T08:27:57Z</time>
      </trkpt>
      <trkpt lat="43.76375" lon="7.45927">
        <ele>170.8</ele>
        <time>2026-05-14T08:27:58Z</time>
      </trkpt>
      <trkpt lat="43.76384" lon="7.45915">
        <ele>171.4</ele>
        <time>2026-05-14T08:27:59Z</time>
      </trkpt>
      <trkpt lat="43.76394" lon="7.45904">
        <ele>172.7</ele>
        <time>2026-05-14T08:28:00Z</time>
      </trkpt>
      <trkpt lat="43.76404" lon="7.45893">
        <ele>173.1</ele>
        <time>2026-05-14T08:28:01Z</time>
      </trkpt>
      <trkpt lat="43.76412" lon="7.4588">
        <ele>173.3</ele>
        <time>2026-05-14T08:28:02Z</time>
      </trkpt>
      <trkpt lat="43.76416" lon="7.45864">
        <ele>173.1</ele>
        <time>2026-05-14T08:28:03Z</time>
      </trkpt>
      <trkpt lat="43.76422" lon="7.45848">
        <ele>174.4</ele>
        <time>2026-05-14T08:28:04Z</time>
      </trkpt>
      <trkpt lat="43.76429" lon="7.45836">
        <ele>174.7</ele>
        <time>2026-05-14T08:28:05Z</time>
      </trkpt>
      <trkpt lat="43.76435" lon="7.45824">
        <ele>172.2</ele>
        <time>2026-05-14T08:28:06Z</time>
      </trkpt>
      <trkpt lat="43.76445" lon="7.45816">
        <ele>171.5</ele>
        <time>2026-05-14T08:28:07Z</time>
      </trkpt>
      <trkpt lat="43.76457" lon="7.45815">
        <ele>173</ele>
        <time>2026-05-14T08:28:08Z</time>
      </trkpt>
      <trkpt lat="43.76468" lon="7.45817">
        <ele>175.8</ele>
        <time>2026-05-14T08:28:09Z</time>
      </trkpt>
      <trkpt lat="43.76477" lon="7.45813">
        <ele>175.5</ele>
        <time>2026-05-14T08:28:10Z</time>
      </trkpt>
      <trkpt lat="43.76485" lon="7.45806">
        <ele>174.3</ele>
        <time>2026-05-14T08:28:11Z</time>
      </trkpt>
      <trkpt lat="43.76486" lon="7.45792">
        <ele>179.8</ele>
        <time>2026-05-14T08:28:12Z</time>
      </trkpt>
      <trkpt lat="43.76484" lon="7.45782">
        <ele>182.8</ele>
        <time>2026-05-14T08:28:13Z</time>
      </trkpt>
      <trkpt lat="43.76481" lon="7.45771">
        <ele>186</ele>
        <time>2026-05-14T08:28:14Z</time>
      </trkpt>
      <trkpt lat="43.76475" lon="7.4576">
        <ele>188.3</ele>
        <time>2026-05-14T08:28:15Z</time>
      </trkpt>
      <trkpt lat="43.76461" lon="7.45751">
        <ele>185.8</ele>
        <time>2026-05-14T08:28:16Z</time>
      </trkpt>
      <trkpt lat="43.76449" lon="7.4574">
        <ele>185.2</ele>
        <time>2026-05-14T08:28:17Z</time>
      </trkpt>
      <trkpt lat="43.76438" lon="7.4573">
        <ele>185.7</ele>
        <time>2026-05-14T08:28:18Z</time>
      </trkpt>
      <trkpt lat="43.76427" lon="7.45722">
        <ele>185.2</ele>
        <time>2026-05-14T08:28:19Z</time>
      </trkpt>
      <trkpt lat="43.76417" lon="7.45714">
        <ele>183.8</ele>
        <time>2026-05-14T08:28:20Z</time>
      </trkpt>
      <trkpt lat="43.76408" lon="7.45707">
        <ele>183.6</ele>
        <time>2026-05-14T08:28:21Z</time>
      </trkpt>
      <trkpt lat="43.76402" lon="7.45699">
        <ele>184.7</ele>
        <time>2026-05-14T08:28:22Z</time>
      </trkpt>
      <trkpt lat="43.76399" lon="7.4569">
        <ele>185.3</ele>
        <time>2026-05-14T08:28:23Z</time>
      </trkpt>
      <trkpt lat="43.76402" lon="7.45679">
        <ele>185.2</ele>
        <time>2026-05-14T08:28:24Z</time>
      </trkpt>
      <trkpt lat="43.76405" lon="7.45669">
        <ele>185.1</ele>
        <time>2026-05-14T08:28:25Z</time>
      </trkpt>
      <trkpt lat="43.76413" lon="7.45661">
        <ele>184.7</ele>
        <time>2026-05-14T08:28:26Z</time>
      </trkpt>
      <trkpt lat="43.76423" lon="7.45656">
        <ele>185.8</ele>
        <time>2026-05-14T08:28:27Z</time>
      </trkpt>
      <trkpt lat="43.76436" lon="7.4565">
        <ele>187.6</ele>
        <time>2026-05-14T08:28:28Z</time>
      </trkpt>
      <trkpt lat="43.76449" lon="7.45646">
        <ele>189.7</ele>
        <time>2026-05-14T08:28:29Z</time>
      </trkpt>
      <trkpt lat="43.76464" lon="7.4564">
        <ele>190.7</ele>
        <time>2026-05-14T08:28:30Z</time>
      </trkpt>
      <trkpt lat="43.76479" lon="7.45634">
        <ele>192.8</ele>
        <time>2026-05-14T08:28:31Z</time>
      </trkpt>
      <trkpt lat="43.76493" lon="7.45625">
        <ele>194.5</ele>
        <time>2026-05-14T08:28:32Z</time>
      </trkpt>
      <trkpt lat="43.76508" lon="7.45616">
        <ele>195.9</ele>
        <time>2026-05-14T08:28:33Z</time>
      </trkpt>
      <trkpt lat="43.76522" lon="7.45607">
        <ele>196.6</ele>
        <time>2026-05-14T08:28:34Z</time>
      </trkpt>
      <trkpt lat="43.76536" lon="7.45597">
        <ele>198.2</ele>
        <time>2026-05-14T08:28:35Z</time>
      </trkpt>
      <trkpt lat="43.76549" lon="7.45585">
        <ele>198.6</ele>
        <time>2026-05-14T08:28:36Z</time>
      </trkpt>
      <trkpt lat="43.76562" lon="7.45572">
        <ele>200.2</ele>
        <time>2026-05-14T08:28:37Z</time>
      </trkpt>
      <trkpt lat="43.76575" lon="7.45559">
        <ele>200.4</ele>
        <time>2026-05-14T08:28:38Z</time>
      </trkpt>
      <trkpt lat="43.76588" lon="7.45549">
        <ele>201.1</ele>
        <time>2026-05-14T08:28:39Z</time>
      </trkpt>
      <trkpt lat="43.76602" lon="7.45537">
        <ele>201.2</ele>
        <time>2026-05-14T08:28:40Z</time>
      </trkpt>
      <trkpt lat="43.76616" lon="7.45527">
        <ele>202.4</ele>
        <time>2026-05-14T08:28:41Z</time>
      </trkpt>
      <trkpt lat="43.7663" lon="7.45516">
        <ele>205.2</ele>
        <time>2026-05-14T08:28:42Z</time>
      </trkpt>
      <trkpt lat="43.76644" lon="7.45505">
        <ele>206.9</ele>
        <time>2026-05-14T08:28:43Z</time>
      </trkpt>
      <trkpt lat="43.76656" lon="7.45492">
        <ele>207.5</ele>
        <time>2026-05-14T08:28:44Z</time>
      </trkpt>
      <trkpt lat="43.76666" lon="7.45479">
        <ele>207.3</ele>
        <time>2026-05-14T08:28:45Z</time>
      </trkpt>
      <trkpt lat="43.76673" lon="7.45463">
        <ele>207.9</ele>
        <time>2026-05-14T08:28:46Z</time>
      </trkpt>
      <trkpt lat="43.76679" lon="7.45448">
        <ele>208.8</ele>
        <time>2026-05-14T08:28:47Z</time>
      </trkpt>
      <trkpt lat="43.76686" lon="7.45433">
        <ele>208.1</ele>
        <time>2026-05-14T08:28:48Z</time>
      </trkpt>
      <trkpt lat="43.76694" lon="7.4542">
        <ele>208</ele>
        <time>2026-05-14T08:28:49Z</time>
      </trkpt>
      <trkpt lat="43.76709" lon="7.45413">
        <ele>211.3</ele>
        <time>2026-05-14T08:28:50Z</time>
      </trkpt>
      <trkpt lat="43.76721" lon="7.45401">
        <ele>211.8</ele>
        <time>2026-05-14T08:28:51Z</time>
      </trkpt>
      <trkpt lat="43.76732" lon="7.45387">
        <ele>211.8</ele>
        <time>2026-05-14T08:28:52Z</time>
      </trkpt>
      <trkpt lat="43.76744" lon="7.45375">
        <ele>212.3</ele>
        <time>2026-05-14T08:28:53Z</time>
      </trkpt>
      <trkpt lat="43.76758" lon="7.45368">
        <ele>213.3</ele>
        <time>2026-05-14T08:28:54Z</time>
      </trkpt>
      <trkpt lat="43.76773" lon="7.45364">
        <ele>214.3</ele>
        <time>2026-05-14T08:28:55Z</time>
      </trkpt>
      <trkpt lat="43.76788" lon="7.4536">
        <ele>216.8</ele>
        <time>2026-05-14T08:28:56Z</time>
      </trkpt>
      <trkpt lat="43.76803" lon="7.45353">
        <ele>219.4</ele>
        <time>2026-05-14T08:28:57Z</time>
      </trkpt>
      <trkpt lat="43.76816" lon="7.45337">
        <ele>220.6</ele>
        <time>2026-05-14T08:28:58Z</time>
      </trkpt>
      <trkpt lat="43.76828" lon="7.45323">
        <ele>221.1</ele>
        <time>2026-05-14T08:28:59Z</time>
      </trkpt>
      <trkpt lat="43.76837" lon="7.45307">
        <ele>220.2</ele>
        <time>2026-05-14T08:29:00Z</time>
      </trkpt>
      <trkpt lat="43.76845" lon="7.45289">
        <ele>223.1</ele>
        <time>2026-05-14T08:29:01Z</time>
      </trkpt>
      <trkpt lat="43.76852" lon="7.45272">
        <ele>224.5</ele>
        <time>2026-05-14T08:29:02Z</time>
      </trkpt>
      <trkpt lat="43.76858" lon="7.45256">
        <ele>223.8</ele>
        <time>2026-05-14T08:29:03Z</time>
      </trkpt>
      <trkpt lat="43.76865" lon="7.45241">
        <ele>224.5</ele>
        <time>2026-05-14T08:29:04Z</time>
      </trkpt>
      <trkpt lat="43.76871" lon="7.45228">
        <ele>225.2</ele>
        <time>2026-05-14T08:29:05Z</time>
      </trkpt>
      <trkpt lat="43.76878" lon="7.45216">
        <ele>225.2</ele>
        <time>2026-05-14T08:29:06Z</time>
      </trkpt>
      <trkpt lat="43.76887" lon="7.45205">
        <ele>225.8</ele>
        <time>2026-05-14T08:29:07Z</time>
      </trkpt>
      <trkpt lat="43.76897" lon="7.45196">
        <ele>227.9</ele>
        <time>2026-05-14T08:29:08Z</time>
      </trkpt>
      <trkpt lat="43.76907" lon="7.45187">
        <ele>230</ele>
        <time>2026-05-14T08:29:09Z</time>
      </trkpt>
      <trkpt lat="43.76914" lon="7.45179">
        <ele>230.6</ele>
        <time>2026-05-14T08:29:10Z</time>
      </trkpt>
      <trkpt lat="43.76918" lon="7.45168">
        <ele>228.1</ele>
        <time>2026-05-14T08:29:11Z</time>
      </trkpt>
      <trkpt lat="43.76919" lon="7.45155">
        <ele>229.5</ele>
        <time>2026-05-14T08:29:12Z</time>
      </trkpt>
      <trkpt lat="43.76918" lon="7.45142">
        <ele>230.9</ele>
        <time>2026-05-14T08:29:13Z</time>
      </trkpt>
      <trkpt lat="43.76915" lon="7.45128">
        <ele>232.8</ele>
        <time>2026-05-14T08:29:14Z</time>
      </trkpt>
      <trkpt lat="43.76908" lon="7.45115">
        <ele>233.3</ele>
        <time>2026-05-14T08:29:15Z</time>
      </trkpt>
      <trkpt lat="43.76898" lon="7.45106">
        <ele>231.4</ele>
        <time>2026-05-14T08:29:16Z</time>
      </trkpt>
      <trkpt lat="43.76888" lon="7.45098">
        <ele>230</ele>
        <time>2026-05-14T08:29:17Z</time>
      </trkpt>
      <trkpt lat="43.76878" lon="7.45093">
        <ele>232.7</ele>
        <time>2026-05-14T08:29:18Z</time>
      </trkpt>
      <trkpt lat="43.76867" lon="7.45093">
        <ele>234.8</ele>
        <time>2026-05-14T08:29:19Z</time>
      </trkpt>
      <trkpt lat="43.76857" lon="7.45099">
        <ele>234.6</ele>
        <time>2026-05-14T08:29:20Z</time>
      </trkpt>
      <trkpt lat="43.76844" lon="7.45105">
        <ele>234.2</ele>
        <time>2026-05-14T08:29:21Z</time>
      </trkpt>
      <trkpt lat="43.76831" lon="7.45107">
        <ele>234.9</ele>
        <time>2026-05-14T08:29:22Z</time>
      </trkpt>
      <trkpt lat="43.76818" lon="7.45109">
        <ele>235</ele>
        <time>2026-05-14T08:29:23Z</time>
      </trkpt>
      <trkpt lat="43.76806" lon="7.4511">
        <ele>235.4</ele>
        <time>2026-05-14T08:29:24Z</time>
      </trkpt>
      <trkpt lat="43.76795" lon="7.45113">
        <ele>237</ele>
        <time>2026-05-14T08:29:25Z</time>
      </trkpt>
      <trkpt lat="43.76785" lon="7.45117">
        <ele>237.9</ele>
        <time>2026-05-14T08:29:26Z</time>
      </trkpt>
      <trkpt lat="43.76775" lon="7.4512">
        <ele>238.6</ele>
        <time>2026-05-14T08:29:27Z</time>
      </trkpt>
      <trkpt lat="43.76766" lon="7.45121">
        <ele>238.6</ele>
        <time>2026-05-14T08:29:28Z</time>
      </trkpt>
      <trkpt lat="43.76756" lon="7.4512">
        <ele>239.5</ele>
        <time>2026-05-14T08:29:29Z</time>
      </trkpt>
      <trkpt lat="43.76745" lon="7.45113">
        <ele>242.6</ele>
        <time>2026-05-14T08:29:30Z</time>
      </trkpt>
      <trkpt lat="43.76733" lon="7.45111">
        <ele>242.2</ele>
        <time>2026-05-14T08:29:31Z</time>
      </trkpt>
      <trkpt lat="43.7672" lon="7.4511">
        <ele>241.9</ele>
        <time>2026-05-14T08:29:32Z</time>
      </trkpt>
      <trkpt lat="43.76708" lon="7.45111">
        <ele>242.1</ele>
        <time>2026-05-14T08:29:33Z</time>
      </trkpt>
      <trkpt lat="43.76697" lon="7.4511">
        <ele>243.4</ele>
        <time>2026-05-14T08:29:34Z</time>
      </trkpt>
      <trkpt lat="43.76687" lon="7.45107">
        <ele>243.3</ele>
        <time>2026-05-14T08:29:35Z</time>
      </trkpt>
      <trkpt lat="43.7668" lon="7.45102">
        <ele>244</ele>
        <time>2026-05-14T08:29:36Z</time>
      </trkpt>
      <trkpt lat="43.76673" lon="7.45095">
        <ele>245.1</ele>
        <time>2026-05-14T08:29:37Z</time>
      </trkpt>
      <trkpt lat="43.76664" lon="7.45088">
        <ele>246</ele>
        <time>2026-05-14T08:29:38Z</time>
      </trkpt>
      <trkpt lat="43.76655" lon="7.45083">
        <ele>247.3</ele>
        <time>2026-05-14T08:29:39Z</time>
      </trkpt>
      <trkpt lat="43.76645" lon="7.45083">
        <ele>246.6</ele>
        <time>2026-05-14T08:29:40Z</time>
      </trkpt>
      <trkpt lat="43.76634" lon="7.45084">
        <ele>246.1</ele>
        <time>2026-05-14T08:29:41Z</time>
      </trkpt>
      <trkpt lat="43.76623" lon="7.45087">
        <ele>245.9</ele>
        <time>2026-05-14T08:29:42Z</time>
      </trkpt>
      <trkpt lat="43.76611" lon="7.4509">
        <ele>246.1</ele>
        <time>2026-05-14T08:29:43Z</time>
      </trkpt>
      <trkpt lat="43.76601" lon="7.45094">
        <ele>248.2</ele>
        <time>2026-05-14T08:29:44Z</time>
      </trkpt>
      <trkpt lat="43.7659" lon="7.45096">
        <ele>251</ele>
        <time>2026-05-14T08:29:45Z</time>
      </trkpt>
      <trkpt lat="43.7658" lon="7.451">
        <ele>251.5</ele>
        <time>2026-05-14T08:29:46Z</time>
      </trkpt>
      <trkpt lat="43.76569" lon="7.45102">
        <ele>251.6</ele>
        <time>2026-05-14T08:29:47Z</time>
      </trkpt>
      <trkpt lat="43.76558" lon="7.45104">
        <ele>251.8</ele>
        <time>2026-05-14T08:29:48Z</time>
      </trkpt>
      <trkpt lat="43.76548" lon="7.45106">
        <ele>252.1</ele>
        <time>2026-05-14T08:29:49Z</time>
      </trkpt>
      <trkpt lat="43.76538" lon="7.45108">
        <ele>252.3</ele>
        <time>2026-05-14T08:29:50Z</time>
      </trkpt>
      <trkpt lat="43.76528" lon="7.4511">
        <ele>252.5</ele>
        <time>2026-05-14T08:29:51Z</time>
      </trkpt>
      <trkpt lat="43.76518" lon="7.45109">
        <ele>253</ele>
        <time>2026-05-14T08:29:52Z</time>
      </trkpt>
      <trkpt lat="43.76508" lon="7.45104">
        <ele>255.1</ele>
        <time>2026-05-14T08:29:53Z</time>
      </trkpt>
      <trkpt lat="43.76498" lon="7.45099">
        <ele>256.7</ele>
        <time>2026-05-14T08:29:54Z</time>
      </trkpt>
      <trkpt lat="43.76489" lon="7.45093">
        <ele>256.9</ele>
        <time>2026-05-14T08:29:55Z</time>
      </trkpt>
      <trkpt lat="43.7648" lon="7.45087">
        <ele>256.8</ele>
        <time>2026-05-14T08:29:56Z</time>
      </trkpt>
      <trkpt lat="43.7647" lon="7.45082">
        <ele>256.6</ele>
        <time>2026-05-14T08:29:57Z</time>
      </trkpt>
      <trkpt lat="43.7646" lon="7.45077">
        <ele>258.6</ele>
        <time>2026-05-14T08:29:58Z</time>
      </trkpt>
      <trkpt lat="43.7645" lon="7.45073">
        <ele>259.8</ele>
        <time>2026-05-14T08:29:59Z</time>
      </trkpt>
      <trkpt lat="43.76442" lon="7.4507">
        <ele>260.3</ele>
        <time>2026-05-14T08:30:00Z</time>
      </trkpt>
      <trkpt lat="43.76433" lon="7.45066">
        <ele>260</ele>
        <time>2026-05-14T08:30:01Z</time>
      </trkpt>
      <trkpt lat="43.76423" lon="7.45058">
        <ele>260.1</ele>
        <time>2026-05-14T08:30:02Z</time>
      </trkpt>
      <trkpt lat="43.76413" lon="7.45046">
        <ele>262.5</ele>
        <time>2026-05-14T08:30:03Z</time>
      </trkpt>
      <trkpt lat="43.76399" lon="7.45033">
        <ele>263.6</ele>
        <time>2026-05-14T08:30:04Z</time>
      </trkpt>
      <trkpt lat="43.76383" lon="7.45018">
        <ele>264.9</ele>
        <time>2026-05-14T08:30:05Z</time>
      </trkpt>
      <trkpt lat="43.76366" lon="7.45004">
        <ele>264.7</ele>
        <time>2026-05-14T08:30:06Z</time>
      </trkpt>
      <trkpt lat="43.76349" lon="7.44988">
        <ele>265.8</ele>
        <time>2026-05-14T08:30:07Z</time>
      </trkpt>
      <trkpt lat="43.76334" lon="7.44973">
        <ele>266.9</ele>
        <time>2026-05-14T08:30:08Z</time>
      </trkpt>
      <trkpt lat="43.76319" lon="7.4496">
        <ele>269.9</ele>
        <time>2026-05-14T08:30:09Z</time>
      </trkpt>
      <trkpt lat="43.76303" lon="7.44945">
        <ele>270.1</ele>
        <time>2026-05-14T08:30:10Z</time>
      </trkpt>
      <trkpt lat="43.76288" lon="7.44929">
        <ele>271.2</ele>
        <time>2026-05-14T08:30:11Z</time>
      </trkpt>
      <trkpt lat="43.76274" lon="7.44913">
        <ele>271.3</ele>
        <time>2026-05-14T08:30:12Z</time>
      </trkpt>
      <trkpt lat="43.76261" lon="7.44896">
        <ele>273.3</ele>
        <time>2026-05-14T08:30:13Z</time>
      </trkpt>
      <trkpt lat="43.76249" lon="7.44881">
        <ele>273.7</ele>
        <time>2026-05-14T08:30:14Z</time>
      </trkpt>
      <trkpt lat="43.76236" lon="7.44866">
        <ele>274.6</ele>
        <time>2026-05-14T08:30:15Z</time>
      </trkpt>
      <trkpt lat="43.76221" lon="7.44853">
        <ele>276</ele>
        <time>2026-05-14T08:30:16Z</time>
      </trkpt>
      <trkpt lat="43.76205" lon="7.44842">
        <ele>277.7</ele>
        <time>2026-05-14T08:30:17Z</time>
      </trkpt>
      <trkpt lat="43.76187" lon="7.44834">
        <ele>278.8</ele>
        <time>2026-05-14T08:30:18Z</time>
      </trkpt>
      <trkpt lat="43.76171" lon="7.44825">
        <ele>281</ele>
        <time>2026-05-14T08:30:19Z</time>
      </trkpt>
      <trkpt lat="43.76157" lon="7.44814">
        <ele>281.3</ele>
        <time>2026-05-14T08:30:20Z</time>
      </trkpt>
      <trkpt lat="43.76145" lon="7.44803">
        <ele>282.3</ele>
        <time>2026-05-14T08:30:21Z</time>
      </trkpt>
      <trkpt lat="43.76134" lon="7.44794">
        <ele>283.8</ele>
        <time>2026-05-14T08:30:22Z</time>
      </trkpt>
      <trkpt lat="43.76123" lon="7.44784">
        <ele>285.6</ele>
        <time>2026-05-14T08:30:23Z</time>
      </trkpt>
      <trkpt lat="43.76111" lon="7.44778">
        <ele>284.9</ele>
        <time>2026-05-14T08:30:24Z</time>
      </trkpt>
      <trkpt lat="43.76098" lon="7.44774">
        <ele>285.6</ele>
        <time>2026-05-14T08:30:25Z</time>
      </trkpt>
      <trkpt lat="43.76086" lon="7.4477">
        <ele>286</ele>
        <time>2026-05-14T08:30:26Z</time>
      </trkpt>
      <trkpt lat="43.76074" lon="7.44763">
        <ele>286.2</ele>
        <time>2026-05-14T08:30:27Z</time>
      </trkpt>
      <trkpt lat="43.76064" lon="7.44753">
        <ele>286.8</ele>
        <time>2026-05-14T08:30:28Z</time>
      </trkpt>
      <trkpt lat="43.76052" lon="7.44743">
        <ele>287.1</ele>
        <time>2026-05-14T08:30:29Z</time>
      </trkpt>
      <trkpt lat="43.7604" lon="7.44735">
        <ele>287.8</ele>
        <time>2026-05-14T08:30:30Z</time>
      </trkpt>
      <trkpt lat="43.76029" lon="7.44726">
        <ele>288</ele>
        <time>2026-05-14T08:30:31Z</time>
      </trkpt>
      <trkpt lat="43.7602" lon="7.44714">
        <ele>287.1</ele>
        <time>2026-05-14T08:30:32Z</time>
      </trkpt>
      <trkpt lat="43.76013" lon="7.44699">
        <ele>288.2</ele>
        <time>2026-05-14T08:30:33Z</time>
      </trkpt>
      <trkpt lat="43.76009" lon="7.44681">
        <ele>289.6</ele>
        <time>2026-05-14T08:30:34Z</time>
      </trkpt>
      <trkpt lat="43.76006" lon="7.44663">
        <ele>290.4</ele>
        <time>2026-05-14T08:30:35Z</time>
      </trkpt>
      <trkpt lat="43.76002" lon="7.44647">
        <ele>289.3</ele>
        <time>2026-05-14T08:30:36Z</time>
      </trkpt>
      <trkpt lat="43.75996" lon="7.44632">
        <ele>289.4</ele>
        <time>2026-05-14T08:30:37Z</time>
      </trkpt>
      <trkpt lat="43.75988" lon="7.4462">
        <ele>290.2</ele>
        <time>2026-05-14T08:30:38Z</time>
      </trkpt>
      <trkpt lat="43.75976" lon="7.4461">
        <ele>290.2</ele>
        <time>2026-05-14T08:30:39Z</time>
      </trkpt>
      <trkpt lat="43.75963" lon="7.44601">
        <ele>290</ele>
        <time>2026-05-14T08:30:40Z</time>
      </trkpt>
      <trkpt lat="43.7595" lon="7.44589">
        <ele>290.6</ele>
        <time>2026-05-14T08:30:41Z</time>
      </trkpt>
      <trkpt lat="43.75939" lon="7.44575">
        <ele>291.6</ele>
        <time>2026-05-14T08:30:42Z</time>
      </trkpt>
      <trkpt lat="43.75928" lon="7.44561">
        <ele>291.9</ele>
        <time>2026-05-14T08:30:43Z</time>
      </trkpt>
      <trkpt lat="43.75919" lon="7.44545">
        <ele>293</ele>
        <time>2026-05-14T08:30:44Z</time>
      </trkpt>
      <trkpt lat="43.75912" lon="7.44527">
        <ele>294.9</ele>
        <time>2026-05-14T08:30:45Z</time>
      </trkpt>
      <trkpt lat="43.75906" lon="7.44507">
        <ele>294</ele>
        <time>2026-05-14T08:30:46Z</time>
      </trkpt>
      <trkpt lat="43.75901" lon="7.44487">
        <ele>294.6</ele>
        <time>2026-05-14T08:30:47Z</time>
      </trkpt>
      <trkpt lat="43.75895" lon="7.44467">
        <ele>295.2</ele>
        <time>2026-05-14T08:30:48Z</time>
      </trkpt>
      <trkpt lat="43.75889" lon="7.4445">
        <ele>295.1</ele>
        <time>2026-05-14T08:30:49Z</time>
      </trkpt>
      <trkpt lat="43.75881" lon="7.44436">
        <ele>296.9</ele>
        <time>2026-05-14T08:30:50Z</time>
      </trkpt>
      <trkpt lat="43.7587" lon="7.44424">
        <ele>297.8</ele>
        <time>2026-05-14T08:30:51Z</time>
      </trkpt>
      <trkpt lat="43.75858" lon="7.44415">
        <ele>297.5</ele>
        <time>2026-05-14T08:30:52Z</time>
      </trkpt>
      <trkpt lat="43.75844" lon="7.44408">
        <ele>299.1</ele>
        <time>2026-05-14T08:30:53Z</time>
      </trkpt>
      <trkpt lat="43.75831" lon="7.44403">
        <ele>299.7</ele>
        <time>2026-05-14T08:30:54Z</time>
      </trkpt>
      <trkpt lat="43.75817" lon="7.44402">
        <ele>298.8</ele>
        <time>2026-05-14T08:30:55Z</time>
      </trkpt>
      <trkpt lat="43.75806" lon="7.44402">
        <ele>297.8</ele>
        <time>2026-05-14T08:30:56Z</time>
      </trkpt>
      <trkpt lat="43.75796" lon="7.44402">
        <ele>298.2</ele>
        <time>2026-05-14T08:30:57Z</time>
      </trkpt>
      <trkpt lat="43.75786" lon="7.44402">
        <ele>298.7</ele>
        <time>2026-05-14T08:30:58Z</time>
      </trkpt>
      <trkpt lat="43.75778" lon="7.44403">
        <ele>299</ele>
        <time>2026-05-14T08:30:59Z</time>
      </trkpt>
      <trkpt lat="43.7577" lon="7.44406">
        <ele>300.2</ele>
        <time>2026-05-14T08:31:00Z</time>
      </trkpt>
      <trkpt lat="43.75763" lon="7.44408">
        <ele>301.2</ele>
        <time>2026-05-14T08:31:01Z</time>
      </trkpt>
      <trkpt lat="43.75756" lon="7.44412">
        <ele>301.5</ele>
        <time>2026-05-14T08:31:02Z</time>
      </trkpt>
      <trkpt lat="43.75749" lon="7.44415">
        <ele>301.6</ele>
        <time>2026-05-14T08:31:03Z</time>
      </trkpt>
      <trkpt lat="43.75741" lon="7.44417">
        <ele>301.6</ele>
        <time>2026-05-14T08:31:04Z</time>
      </trkpt>
      <trkpt lat="43.75734" lon="7.44417">
        <ele>302.1</ele>
        <time>2026-05-14T08:31:05Z</time>
      </trkpt>
      <trkpt lat="43.75727" lon="7.44416">
        <ele>302.9</ele>
        <time>2026-05-14T08:31:06Z</time>
      </trkpt>
      <trkpt lat="43.75722" lon="7.44412">
        <ele>305</ele>
        <time>2026-05-14T08:31:07Z</time>
      </trkpt>
      <trkpt lat="43.75716" lon="7.44405">
        <ele>307.3</ele>
        <time>2026-05-14T08:31:08Z</time>
      </trkpt>
      <trkpt lat="43.75711" lon="7.44396">
        <ele>309.3</ele>
        <time>2026-05-14T08:31:09Z</time>
      </trkpt>
      <trkpt lat="43.75707" lon="7.44383">
        <ele>310.7</ele>
        <time>2026-05-14T08:31:10Z</time>
      </trkpt>
      <trkpt lat="43.75704" lon="7.44368">
        <ele>310.9</ele>
        <time>2026-05-14T08:31:11Z</time>
      </trkpt>
      <trkpt lat="43.75702" lon="7.44351">
        <ele>311.2</ele>
        <time>2026-05-14T08:31:12Z</time>
      </trkpt>
      <trkpt lat="43.75698" lon="7.44334">
        <ele>309.6</ele>
        <time>2026-05-14T08:31:13Z</time>
      </trkpt>
      <trkpt lat="43.75694" lon="7.44318">
        <ele>307.9</ele>
        <time>2026-05-14T08:31:14Z</time>
      </trkpt>
      <trkpt lat="43.7569" lon="7.44301">
        <ele>306.9</ele>
        <time>2026-05-14T08:31:15Z</time>
      </trkpt>
      <trkpt lat="43.75688" lon="7.44283">
        <ele>307.1</ele>
        <time>2026-05-14T08:31:16Z</time>
      </trkpt>
      <trkpt lat="43.75687" lon="7.44264">
        <ele>309.2</ele>
        <time>2026-05-14T08:31:17Z</time>
      </trkpt>
      <trkpt lat="43.75687" lon="7.44245">
        <ele>311.4</ele>
        <time>2026-05-14T08:31:18Z</time>
      </trkpt>
      <trkpt lat="43.75688" lon="7.44226">
        <ele>312.1</ele>
        <time>2026-05-14T08:31:19Z</time>
      </trkpt>
      <trkpt lat="43.75688" lon="7.44208">
        <ele>312.4</ele>
        <time>2026-05-14T08:31:20Z</time>
      </trkpt>
      <trkpt lat="43.75688" lon="7.44191">
        <ele>313.6</ele>
        <time>2026-05-14T08:31:21Z</time>
      </trkpt>
      <trkpt lat="43.75685" lon="7.44175">
        <ele>315.1</ele>
        <time>2026-05-14T08:31:22Z</time>
      </trkpt>
      <trkpt lat="43.7568" lon="7.44158">
        <ele>315.2</ele>
        <time>2026-05-14T08:31:23Z</time>
      </trkpt>
      <trkpt lat="43.75674" lon="7.44143">
        <ele>314.4</ele>
        <time>2026-05-14T08:31:24Z</time>
      </trkpt>
      <trkpt lat="43.75668" lon="7.44127">
        <ele>313.9</ele>
        <time>2026-05-14T08:31:25Z</time>
      </trkpt>
      <trkpt lat="43.75663" lon="7.44112">
        <ele>314</ele>
        <time>2026-05-14T08:31:26Z</time>
      </trkpt>
      <trkpt lat="43.75658" lon="7.44099">
        <ele>313.1</ele>
        <time>2026-05-14T08:31:27Z</time>
      </trkpt>
      <trkpt lat="43.75655" lon="7.44085">
        <ele>313.1</ele>
        <time>2026-05-14T08:31:28Z</time>
      </trkpt>
      <trkpt lat="43.75654" lon="7.44071">
        <ele>312.5</ele>
        <time>2026-05-14T08:31:29Z</time>
      </trkpt>
      <trkpt lat="43.75655" lon="7.44056">
        <ele>312.7</ele>
        <time>2026-05-14T08:31:30Z</time>
      </trkpt>
      <trkpt lat="43.75658" lon="7.44041">
        <ele>313.4</ele>
        <time>2026-05-14T08:31:31Z</time>
      </trkpt>
      <trkpt lat="43.75662" lon="7.44026">
        <ele>314.6</ele>
        <time>2026-05-14T08:31:32Z</time>
      </trkpt>
      <trkpt lat="43.75666" lon="7.4401">
        <ele>316</ele>
        <time>2026-05-14T08:31:33Z</time>
      </trkpt>
      <trkpt lat="43.75667" lon="7.43993">
        <ele>316.9</ele>
        <time>2026-05-14T08:31:34Z</time>
      </trkpt>
      <trkpt lat="43.75666" lon="7.43976">
        <ele>318.3</ele>
        <time>2026-05-14T08:31:35Z</time>
      </trkpt>
      <trkpt lat="43.75664" lon="7.43961">
        <ele>319.3</ele>
        <time>2026-05-14T08:31:36Z</time>
      </trkpt>
      <trkpt lat="43.7566" lon="7.43947">
        <ele>319.5</ele>
        <time>2026-05-14T08:31:37Z</time>
      </trkpt>
      <trkpt lat="43.75655" lon="7.43934">
        <ele>319.3</ele>
        <time>2026-05-14T08:31:38Z</time>
      </trkpt>
      <trkpt lat="43.75652" lon="7.43922">
        <ele>320.3</ele>
        <time>2026-05-14T08:31:39Z</time>
      </trkpt>
      <trkpt lat="43.75651" lon="7.43911">
        <ele>320</ele>
        <time>2026-05-14T08:31:40Z</time>
      </trkpt>
      <trkpt lat="43.75653" lon="7.43901">
        <ele>318.7</ele>
        <time>2026-05-14T08:31:41Z</time>
      </trkpt>
      <trkpt lat="43.75655" lon="7.43891">
        <ele>317.3</ele>
        <time>2026-05-14T08:31:42Z</time>
      </trkpt>
      <trkpt lat="43.75665" lon="7.43889">
        <ele>318.7</ele>
        <time>2026-05-14T08:31:43Z</time>
      </trkpt>
      <trkpt lat="43.75676" lon="7.43887">
        <ele>319.3</ele>
        <time>2026-05-14T08:31:44Z</time>
      </trkpt>
      <trkpt lat="43.75688" lon="7.43886">
        <ele>320</ele>
        <time>2026-05-14T08:31:45Z</time>
      </trkpt>
      <trkpt lat="43.75701" lon="7.43884">
        <ele>320.8</ele>
        <time>2026-05-14T08:31:46Z</time>
      </trkpt>
      <trkpt lat="43.75714" lon="7.4388">
        <ele>321.6</ele>
        <time>2026-05-14T08:31:47Z</time>
      </trkpt>
      <trkpt lat="43.75726" lon="7.43876">
        <ele>322.8</ele>
        <time>2026-05-14T08:31:48Z</time>
      </trkpt>
      <trkpt lat="43.75739" lon="7.4387">
        <ele>323.9</ele>
        <time>2026-05-14T08:31:49Z</time>
      </trkpt>
      <trkpt lat="43.75751" lon="7.43862">
        <ele>323.8</ele>
        <time>2026-05-14T08:31:50Z</time>
      </trkpt>
      <trkpt lat="43.75761" lon="7.43852">
        <ele>324.5</ele>
        <time>2026-05-14T08:31:51Z</time>
      </trkpt>
      <trkpt lat="43.7577" lon="7.43841">
        <ele>323.6</ele>
        <time>2026-05-14T08:31:52Z</time>
      </trkpt>
      <trkpt lat="43.75779" lon="7.43832">
        <ele>323.1</ele>
        <time>2026-05-14T08:31:53Z</time>
      </trkpt>
      <trkpt lat="43.75787" lon="7.43823">
        <ele>323.6</ele>
        <time>2026-05-14T08:31:54Z</time>
      </trkpt>
      <trkpt lat="43.75795" lon="7.43815">
        <ele>324.2</ele>
        <time>2026-05-14T08:31:55Z</time>
      </trkpt>
      <trkpt lat="43.75805" lon="7.43809">
        <ele>326.5</ele>
        <time>2026-05-14T08:31:56Z</time>
      </trkpt>
      <trkpt lat="43.75815" lon="7.43808">
        <ele>326.6</ele>
        <time>2026-05-14T08:31:57Z</time>
      </trkpt>
      <trkpt lat="43.75825" lon="7.43808">
        <ele>327</ele>
        <time>2026-05-14T08:31:58Z</time>
      </trkpt>
      <trkpt lat="43.75835" lon="7.43808">
        <ele>327.5</ele>
        <time>2026-05-14T08:31:59Z</time>
      </trkpt>
      <trkpt lat="43.75845" lon="7.43807">
        <ele>327.9</ele>
        <time>2026-05-14T08:32:00Z</time>
      </trkpt>
      <trkpt lat="43.75853" lon="7.43801">
        <ele>327.4</ele>
        <time>2026-05-14T08:32:01Z</time>
      </trkpt>
      <trkpt lat="43.75861" lon="7.43795">
        <ele>328.6</ele>
        <time>2026-05-14T08:32:02Z</time>
      </trkpt>
      <trkpt lat="43.75867" lon="7.43784">
        <ele>332</ele>
        <time>2026-05-14T08:32:03Z</time>
      </trkpt>
      <trkpt lat="43.7587" lon="7.43772">
        <ele>333.8</ele>
        <time>2026-05-14T08:32:04Z</time>
      </trkpt>
      <trkpt lat="43.75871" lon="7.43757">
        <ele>334.7</ele>
        <time>2026-05-14T08:32:05Z</time>
      </trkpt>
      <trkpt lat="43.75868" lon="7.43743">
        <ele>333.8</ele>
        <time>2026-05-14T08:32:06Z</time>
      </trkpt>
      <trkpt lat="43.75861" lon="7.43728">
        <ele>331.9</ele>
        <time>2026-05-14T08:32:07Z</time>
      </trkpt>
      <trkpt lat="43.75853" lon="7.43714">
        <ele>332.7</ele>
        <time>2026-05-14T08:32:08Z</time>
      </trkpt>
      <trkpt lat="43.75844" lon="7.43701">
        <ele>333.4</ele>
        <time>2026-05-14T08:32:09Z</time>
      </trkpt>
      <trkpt lat="43.75833" lon="7.43689">
        <ele>332.6</ele>
        <time>2026-05-14T08:32:10Z</time>
      </trkpt>
      <trkpt lat="43.75824" lon="7.43678">
        <ele>332.7</ele>
        <time>2026-05-14T08:32:11Z</time>
      </trkpt>
      <trkpt lat="43.75817" lon="7.43666">
        <ele>334.3</ele>
        <time>2026-05-14T08:32:12Z</time>
      </trkpt>
      <trkpt lat="43.75812" lon="7.43652">
        <ele>336</ele>
        <time>2026-05-14T08:32:13Z</time>
      </trkpt>
      <trkpt lat="43.75808" lon="7.43636">
        <ele>336.1</ele>
        <time>2026-05-14T08:32:14Z</time>
      </trkpt>
      <trkpt lat="43.75806" lon="7.4362">
        <ele>334.4</ele>
        <time>2026-05-14T08:32:15Z</time>
      </trkpt>
      <trkpt lat="43.75806" lon="7.43604">
        <ele>334.7</ele>
        <time>2026-05-14T08:32:16Z</time>
      </trkpt>
      <trkpt lat="43.75808" lon="7.43589">
        <ele>336.8</ele>
        <time>2026-05-14T08:32:17Z</time>
      </trkpt>
      <trkpt lat="43.75811" lon="7.43575">
        <ele>338.1</ele>
        <time>2026-05-14T08:32:18Z</time>
      </trkpt>
      <trkpt lat="43.75816" lon="7.4356">
        <ele>339.7</ele>
        <time>2026-05-14T08:32:19Z</time>
      </trkpt>
      <trkpt lat="43.75821" lon="7.43547">
        <ele>339.4</ele>
        <time>2026-05-14T08:32:20Z</time>
      </trkpt>
      <trkpt lat="43.75826" lon="7.43534">
        <ele>337.1</ele>
        <time>2026-05-14T08:32:21Z</time>
      </trkpt>
      <trkpt lat="43.75829" lon="7.4352">
        <ele>336</ele>
        <time>2026-05-14T08:32:22Z</time>
      </trkpt>
      <trkpt lat="43.75829" lon="7.43506">
        <ele>336.1</ele>
        <time>2026-05-14T08:32:23Z</time>
      </trkpt>
      <trkpt lat="43.75827" lon="7.43491">
        <ele>339</ele>
        <time>2026-05-14T08:32:24Z</time>
      </trkpt>
      <trkpt lat="43.7582" lon="7.43477">
        <ele>341.5</ele>
        <time>2026-05-14T08:32:25Z</time>
      </trkpt>
      <trkpt lat="43.75813" lon="7.43462">
        <ele>342.3</ele>
        <time>2026-05-14T08:32:26Z</time>
      </trkpt>
      <trkpt lat="43.75805" lon="7.43446">
        <ele>341.4</ele>
        <time>2026-05-14T08:32:27Z</time>
      </trkpt>
      <trkpt lat="43.75798" lon="7.4343">
        <ele>341.1</ele>
        <time>2026-05-14T08:32:28Z</time>
      </trkpt>
      <trkpt lat="43.75792" lon="7.43414">
        <ele>341.4</ele>
        <time>2026-05-14T08:32:29Z</time>
      </trkpt>
      <trkpt lat="43.75789" lon="7.43396">
        <ele>341.8</ele>
        <time>2026-05-14T08:32:30Z</time>
      </trkpt>
      <trkpt lat="43.75789" lon="7.4338">
        <ele>342.8</ele>
        <time>2026-05-14T08:32:31Z</time>
      </trkpt>
      <trkpt lat="43.75786" lon="7.43366">
        <ele>341.1</ele>
        <time>2026-05-14T08:32:32Z</time>
      </trkpt>
      <trkpt lat="43.7578" lon="7.43354">
        <ele>339.4</ele>
        <time>2026-05-14T08:32:33Z</time>
      </trkpt>
      <trkpt lat="43.75771" lon="7.43343">
        <ele>342.7</ele>
        <time>2026-05-14T08:32:34Z</time>
      </trkpt>
      <trkpt lat="43.7576" lon="7.43333">
        <ele>345.3</ele>
        <time>2026-05-14T08:32:35Z</time>
      </trkpt>
      <trkpt lat="43.75749" lon="7.43323">
        <ele>345.3</ele>
        <time>2026-05-14T08:32:36Z</time>
      </trkpt>
      <trkpt lat="43.75739" lon="7.43314">
        <ele>344.9</ele>
        <time>2026-05-14T08:32:37Z</time>
      </trkpt>
      <trkpt lat="43.75729" lon="7.43306">
        <ele>345.3</ele>
        <time>2026-05-14T08:32:38Z</time>
      </trkpt>
      <trkpt lat="43.75719" lon="7.43298">
        <ele>347.6</ele>
        <time>2026-05-14T08:32:39Z</time>
      </trkpt>
      <trkpt lat="43.75708" lon="7.4329">
        <ele>347.5</ele>
        <time>2026-05-14T08:32:40Z</time>
      </trkpt>
      <trkpt lat="43.75699" lon="7.43281">
        <ele>347.9</ele>
        <time>2026-05-14T08:32:41Z</time>
      </trkpt>
      <trkpt lat="43.7569" lon="7.43271">
        <ele>348.1</ele>
        <time>2026-05-14T08:32:42Z</time>
      </trkpt>
      <trkpt lat="43.75683" lon="7.4326">
        <ele>349.4</ele>
        <time>2026-05-14T08:32:43Z</time>
      </trkpt>
      <trkpt lat="43.75678" lon="7.43248">
        <ele>351.1</ele>
        <time>2026-05-14T08:32:44Z</time>
      </trkpt>
      <trkpt lat="43.75675" lon="7.43235">
        <ele>351.3</ele>
        <time>2026-05-14T08:32:45Z</time>
      </trkpt>
      <trkpt lat="43.75675" lon="7.4322">
        <ele>353.2</ele>
        <time>2026-05-14T08:32:46Z</time>
      </trkpt>
      <trkpt lat="43.75678" lon="7.43205">
        <ele>353.3</ele>
        <time>2026-05-14T08:32:47Z</time>
      </trkpt>
      <trkpt lat="43.75682" lon="7.4319">
        <ele>353.2</ele>
        <time>2026-05-14T08:32:48Z</time>
      </trkpt>
      <trkpt lat="43.75687" lon="7.43174">
        <ele>351.9</ele>
        <time>2026-05-14T08:32:49Z</time>
      </trkpt>
      <trkpt lat="43.75693" lon="7.43159">
        <ele>352.6</ele>
        <time>2026-05-14T08:32:50Z</time>
      </trkpt>
      <trkpt lat="43.75699" lon="7.43143">
        <ele>353.9</ele>
        <time>2026-05-14T08:32:51Z</time>
      </trkpt>
      <trkpt lat="43.75706" lon="7.43126">
        <ele>354.8</ele>
        <time>2026-05-14T08:32:52Z</time>
      </trkpt>
      <trkpt lat="43.75712" lon="7.43108">
        <ele>353.9</ele>
        <time>2026-05-14T08:32:53Z</time>
      </trkpt>
      <trkpt lat="43.75718" lon="7.43089">
        <ele>353.6</ele>
        <time>2026-05-14T08:32:54Z</time>
      </trkpt>
      <trkpt lat="43.75724" lon="7.43069">
        <ele>354.8</ele>
        <time>2026-05-14T08:32:55Z</time>
      </trkpt>
      <trkpt lat="43.75729" lon="7.4305">
        <ele>356.5</ele>
        <time>2026-05-14T08:32:56Z</time>
      </trkpt>
      <trkpt lat="43.75735" lon="7.43032">
        <ele>359.2</ele>
        <time>2026-05-14T08:32:57Z</time>
      </trkpt>
      <trkpt lat="43.75741" lon="7.43014">
        <ele>359.5</ele>
        <time>2026-05-14T08:32:58Z</time>
      </trkpt>
      <trkpt lat="43.75747" lon="7.42998">
        <ele>359.2</ele>
        <time>2026-05-14T08:32:59Z</time>
      </trkpt>
      <trkpt lat="43.75751" lon="7.4298">
        <ele>359.6</ele>
        <time>2026-05-14T08:33:00Z</time>
      </trkpt>
      <trkpt lat="43.75753" lon="7.42961">
        <ele>360.4</ele>
        <time>2026-05-14T08:33:01Z</time>
      </trkpt>
      <trkpt lat="43.75754" lon="7.42942">
        <ele>361.3</ele>
        <time>2026-05-14T08:33:02Z</time>
      </trkpt>
      <trkpt lat="43.75755" lon="7.42924">
        <ele>362.3</ele>
        <time>2026-05-14T08:33:03Z</time>
      </trkpt>
      <trkpt lat="43.75755" lon="7.42907">
        <ele>362</ele>
        <time>2026-05-14T08:33:04Z</time>
      </trkpt>
      <trkpt lat="43.75755" lon="7.42892">
        <ele>361.6</ele>
        <time>2026-05-14T08:33:05Z</time>
      </trkpt>
      <trkpt lat="43.75753" lon="7.42879">
        <ele>361.4</ele>
        <time>2026-05-14T08:33:06Z</time>
      </trkpt>
      <trkpt lat="43.75749" lon="7.4287">
        <ele>360.4</ele>
        <time>2026-05-14T08:33:07Z</time>
      </trkpt>
      <trkpt lat="43.75743" lon="7.42864">
        <ele>362</ele>
        <time>2026-05-14T08:33:08Z</time>
      </trkpt>
      <trkpt lat="43.75735" lon="7.42863">
        <ele>363</ele>
        <time>2026-05-14T08:33:09Z</time>
      </trkpt>
      <trkpt lat="43.75725" lon="7.42867">
        <ele>362.1</ele>
        <time>2026-05-14T08:33:10Z</time>
      </trkpt>
      <trkpt lat="43.75714" lon="7.42873">
        <ele>361.8</ele>
        <time>2026-05-14T08:33:11Z</time>
      </trkpt>
      <trkpt lat="43.75701" lon="7.42878">
        <ele>363</ele>
        <time>2026-05-14T08:33:12Z</time>
      </trkpt>
      <trkpt lat="43.75688" lon="7.4288">
        <ele>363.9</ele>
        <time>2026-05-14T08:33:13Z</time>
      </trkpt>
      <trkpt lat="43.75675" lon="7.42882">
        <ele>362.9</ele>
        <time>2026-05-14T08:33:14Z</time>
      </trkpt>
      <trkpt lat="43.75661" lon="7.42882">
        <ele>362.6</ele>
        <time>2026-05-14T08:33:15Z</time>
      </trkpt>
      <trkpt lat="43.75647" lon="7.4288">
        <ele>362.7</ele>
        <time>2026-05-14T08:33:16Z</time>
      </trkpt>
      <trkpt lat="43.75633" lon="7.42874">
        <ele>363.6</ele>
        <time>2026-05-14T08:33:17Z</time>
      </trkpt>
      <trkpt lat="43.7562" lon="7.42867">
        <ele>363.6</ele>
        <time>2026-05-14T08:33:18Z</time>
      </trkpt>
      <trkpt lat="43.75608" lon="7.4286">
        <ele>363.9</ele>
        <time>2026-05-14T08:33:19Z</time>
      </trkpt>
      <trkpt lat="43.75597" lon="7.42852">
        <ele>364.9</ele>
        <time>2026-05-14T08:33:20Z</time>
      </trkpt>
      <trkpt lat="43.75587" lon="7.42845">
        <ele>364</ele>
        <time>2026-05-14T08:33:21Z</time>
      </trkpt>
      <trkpt lat="43.75578" lon="7.42841">
        <ele>363.7</ele>
        <time>2026-05-14T08:33:22Z</time>
      </trkpt>
      <trkpt lat="43.75568" lon="7.42839">
        <ele>364.1</ele>
        <time>2026-05-14T08:33:23Z</time>
      </trkpt>
      <trkpt lat="43.75557" lon="7.42839">
        <ele>364</ele>
        <time>2026-05-14T08:33:24Z</time>
      </trkpt>
      <trkpt lat="43.75547" lon="7.4284">
        <ele>364.3</ele>
        <time>2026-05-14T08:33:25Z</time>
      </trkpt>
      <trkpt lat="43.75538" lon="7.42839">
        <ele>365.2</ele>
        <time>2026-05-14T08:33:26Z</time>
      </trkpt>
      <trkpt lat="43.7553" lon="7.42833">
        <ele>367</ele>
        <time>2026-05-14T08:33:27Z</time>
      </trkpt>
      <trkpt lat="43.75524" lon="7.42824">
        <ele>367.7</ele>
        <time>2026-05-14T08:33:28Z</time>
      </trkpt>
      <trkpt lat="43.75519" lon="7.4281">
        <ele>368.8</ele>
        <time>2026-05-14T08:33:29Z</time>
      </trkpt>
      <trkpt lat="43.75514" lon="7.42794">
        <ele>369.6</ele>
        <time>2026-05-14T08:33:30Z</time>
      </trkpt>
      <trkpt lat="43.75509" lon="7.4278">
        <ele>369.8</ele>
        <time>2026-05-14T08:33:31Z</time>
      </trkpt>
      <trkpt lat="43.75504" lon="7.42764">
        <ele>370.4</ele>
        <time>2026-05-14T08:33:32Z</time>
      </trkpt>
      <trkpt lat="43.75499" lon="7.4275">
        <ele>370.5</ele>
        <time>2026-05-14T08:33:33Z</time>
      </trkpt>
      <trkpt lat="43.75495" lon="7.42735">
        <ele>371.8</ele>
        <time>2026-05-14T08:33:34Z</time>
      </trkpt>
      <trkpt lat="43.75491" lon="7.4272">
        <ele>372.8</ele>
        <time>2026-05-14T08:33:35Z</time>
      </trkpt>
      <trkpt lat="43.75486" lon="7.42703">
        <ele>373.8</ele>
        <time>2026-05-14T08:33:36Z</time>
      </trkpt>
      <trkpt lat="43.75481" lon="7.42687">
        <ele>374.3</ele>
        <time>2026-05-14T08:33:37Z</time>
      </trkpt>
      <trkpt lat="43.75475" lon="7.42671">
        <ele>372.9</ele>
        <time>2026-05-14T08:33:38Z</time>
      </trkpt>
      <trkpt lat="43.75468" lon="7.42654">
        <ele>372.7</ele>
        <time>2026-05-14T08:33:39Z</time>
      </trkpt>
      <trkpt lat="43.75461" lon="7.4264">
        <ele>373.3</ele>
        <time>2026-05-14T08:33:40Z</time>
      </trkpt>
      <trkpt lat="43.75453" lon="7.42626">
        <ele>373</ele>
        <time>2026-05-14T08:33:41Z</time>
      </trkpt>
      <trkpt lat="43.75446" lon="7.42612">
        <ele>374.9</ele>
        <time>2026-05-14T08:33:42Z</time>
      </trkpt>
      <trkpt lat="43.7544" lon="7.42597">
        <ele>374.4</ele>
        <time>2026-05-14T08:33:43Z</time>
      </trkpt>
      <trkpt lat="43.75438" lon="7.42581">
        <ele>374.9</ele>
        <time>2026-05-14T08:33:44Z</time>
      </trkpt>
      <trkpt lat="43.75438" lon="7.42566">
        <ele>374.1</ele>
        <time>2026-05-14T08:33:45Z</time>
      </trkpt>
      <trkpt lat="43.75441" lon="7.42552">
        <ele>375</ele>
        <time>2026-05-14T08:33:46Z</time>
      </trkpt>
      <trkpt lat="43.75448" lon="7.42537">
        <ele>376.9</ele>
        <time>2026-05-14T08:33:47Z</time>
      </trkpt>
      <trkpt lat="43.75455" lon="7.42523">
        <ele>378.3</ele>
        <time>2026-05-14T08:33:48Z</time>
      </trkpt>
      <trkpt lat="43.75462" lon="7.42509">
        <ele>378.1</ele>
        <time>2026-05-14T08:33:49Z</time>
      </trkpt>
      <trkpt lat="43.7547" lon="7.42496">
        <ele>378.6</ele>
        <time>2026-05-14T08:33:50Z</time>
      </trkpt>
      <trkpt lat="43.75479" lon="7.42485">
        <ele>379.3</ele>
        <time>2026-05-14T08:33:51Z</time>
      </trkpt>
      <trkpt lat="43.75488" lon="7.42477">
        <ele>379.9</ele>
        <time>2026-05-14T08:33:52Z</time>
      </trkpt>
      <trkpt lat="43.75496" lon="7.42467">
        <ele>379.5</ele>
        <time>2026-05-14T08:33:53Z</time>
      </trkpt>
      <trkpt lat="43.75503" lon="7.42456">
        <ele>380.5</ele>
        <time>2026-05-14T08:33:54Z</time>
      </trkpt>
      <trkpt lat="43.75511" lon="7.42446">
        <ele>381.4</ele>
        <time>2026-05-14T08:33:55Z</time>
      </trkpt>
      <trkpt lat="43.75521" lon="7.42438">
        <ele>380.8</ele>
        <time>2026-05-14T08:33:56Z</time>
      </trkpt>
      <trkpt lat="43.75531" lon="7.42433">
        <ele>381.7</ele>
        <time>2026-05-14T08:33:57Z</time>
      </trkpt>
      <trkpt lat="43.75543" lon="7.42428">
        <ele>382.5</ele>
        <time>2026-05-14T08:33:58Z</time>
      </trkpt>
      <trkpt lat="43.75554" lon="7.42424">
        <ele>383.5</ele>
        <time>2026-05-14T08:33:59Z</time>
      </trkpt>
      <trkpt lat="43.75566" lon="7.4242">
        <ele>383.4</ele>
        <time>2026-05-14T08:34:00Z</time>
      </trkpt>
      <trkpt lat="43.75577" lon="7.42416">
        <ele>382.8</ele>
        <time>2026-05-14T08:34:01Z</time>
      </trkpt>
      <trkpt lat="43.75588" lon="7.42412">
        <ele>384.1</ele>
        <time>2026-05-14T08:34:02Z</time>
      </trkpt>
      <trkpt lat="43.75599" lon="7.42408">
        <ele>387</ele>
        <time>2026-05-14T08:34:03Z</time>
      </trkpt>
      <trkpt lat="43.75609" lon="7.42404">
        <ele>389.2</ele>
        <time>2026-05-14T08:34:04Z</time>
      </trkpt>
      <trkpt lat="43.75617" lon="7.42398">
        <ele>389.2</ele>
        <time>2026-05-14T08:34:05Z</time>
      </trkpt>
      <trkpt lat="43.75624" lon="7.4239">
        <ele>386.9</ele>
        <time>2026-05-14T08:34:06Z</time>
      </trkpt>
      <trkpt lat="43.75627" lon="7.42379">
        <ele>387.3</ele>
        <time>2026-05-14T08:34:07Z</time>
      </trkpt>
      <trkpt lat="43.75628" lon="7.42367">
        <ele>388.1</ele>
        <time>2026-05-14T08:34:08Z</time>
      </trkpt>
      <trkpt lat="43.75623" lon="7.42355">
        <ele>388.5</ele>
        <time>2026-05-14T08:34:09Z</time>
      </trkpt>
      <trkpt lat="43.75616" lon="7.42344">
        <ele>389.1</ele>
        <time>2026-05-14T08:34:10Z</time>
      </trkpt>
      <trkpt lat="43.75609" lon="7.42335">
        <ele>388.6</ele>
        <time>2026-05-14T08:34:11Z</time>
      </trkpt>
      <trkpt lat="43.75602" lon="7.42326">
        <ele>389.8</ele>
        <time>2026-05-14T08:34:12Z</time>
      </trkpt>
      <trkpt lat="43.75595" lon="7.42317">
        <ele>390.4</ele>
        <time>2026-05-14T08:34:13Z</time>
      </trkpt>
      <trkpt lat="43.75587" lon="7.42306">
        <ele>390.1</ele>
        <time>2026-05-14T08:34:14Z</time>
      </trkpt>
      <trkpt lat="43.75579" lon="7.42295">
        <ele>391.8</ele>
        <time>2026-05-14T08:34:15Z</time>
      </trkpt>
      <trkpt lat="43.7557" lon="7.42282">
        <ele>393.7</ele>
        <time>2026-05-14T08:34:16Z</time>
      </trkpt>
      <trkpt lat="43.75561" lon="7.42269">
        <ele>394.4</ele>
        <time>2026-05-14T08:34:17Z</time>
      </trkpt>
      <trkpt lat="43.7555" lon="7.42259">
        <ele>393.8</ele>
        <time>2026-05-14T08:34:18Z</time>
      </trkpt>
      <trkpt lat="43.75538" lon="7.4225">
        <ele>394.3</ele>
        <time>2026-05-14T08:34:19Z</time>
      </trkpt>
      <trkpt lat="43.75525" lon="7.4224">
        <ele>395.1</ele>
        <time>2026-05-14T08:34:20Z</time>
      </trkpt>
      <trkpt lat="43.75511" lon="7.42231">
        <ele>394.5</ele>
        <time>2026-05-14T08:34:21Z</time>
      </trkpt>
      <trkpt lat="43.75497" lon="7.42221">
        <ele>394.1</ele>
        <time>2026-05-14T08:34:22Z</time>
      </trkpt>
      <trkpt lat="43.75484" lon="7.42212">
        <ele>396.4</ele>
        <time>2026-05-14T08:34:23Z</time>
      </trkpt>
      <trkpt lat="43.75472" lon="7.42204">
        <ele>398.1</ele>
        <time>2026-05-14T08:34:24Z</time>
      </trkpt>
      <trkpt lat="43.75461" lon="7.42196">
        <ele>398.5</ele>
        <time>2026-05-14T08:34:25Z</time>
      </trkpt>
      <trkpt lat="43.7545" lon="7.42188">
        <ele>398.8</ele>
        <time>2026-05-14T08:34:26Z</time>
      </trkpt>
      <trkpt lat="43.75438" lon="7.42181">
        <ele>398.3</ele>
        <time>2026-05-14T08:34:27Z</time>
      </trkpt>
      <trkpt lat="43.75427" lon="7.42174">
        <ele>397.8</ele>
        <time>2026-05-14T08:34:28Z</time>
      </trkpt>
      <trkpt lat="43.75415" lon="7.42169">
        <ele>396</ele>
        <time>2026-05-14T08:34:29Z</time>
      </trkpt>
      <trkpt lat="43.75404" lon="7.42162">
        <ele>397.4</ele>
        <time>2026-05-14T08:34:30Z</time>
      </trkpt>
      <trkpt lat="43.75394" lon="7.42155">
        <ele>398.3</ele>
        <time>2026-05-14T08:34:31Z</time>
      </trkpt>
      <trkpt lat="43.75383" lon="7.42146">
        <ele>398.5</ele>
        <time>2026-05-14T08:34:32Z</time>
      </trkpt>
      <trkpt lat="43.75373" lon="7.42135">
        <ele>399.2</ele>
        <time>2026-05-14T08:34:33Z</time>
      </trkpt>
      <trkpt lat="43.75363" lon="7.42122">
        <ele>398.8</ele>
        <time>2026-05-14T08:34:34Z</time>
      </trkpt>
      <trkpt lat="43.75354" lon="7.42108">
        <ele>399.6</ele>
        <time>2026-05-14T08:34:35Z</time>
      </trkpt>
      <trkpt lat="43.75345" lon="7.42095">
        <ele>401.2</ele>
        <time>2026-05-14T08:34:36Z</time>
      </trkpt>
      <trkpt lat="43.75336" lon="7.42082">
        <ele>401.4</ele>
        <time>2026-05-14T08:34:37Z</time>
      </trkpt>
      <trkpt lat="43.75325" lon="7.4207">
        <ele>401.7</ele>
        <time>2026-05-14T08:34:38Z</time>
      </trkpt>
      <trkpt lat="43.75314" lon="7.42058">
        <ele>402.8</ele>
        <time>2026-05-14T08:34:39Z</time>
      </trkpt>
      <trkpt lat="43.75301" lon="7.4205">
        <ele>403.7</ele>
        <time>2026-05-14T08:34:40Z</time>
      </trkpt>
      <trkpt lat="43.75289" lon="7.42043">
        <ele>404</ele>
        <time>2026-05-14T08:34:41Z</time>
      </trkpt>
      <trkpt lat="43.75278" lon="7.42036">
        <ele>403.3</ele>
        <time>2026-05-14T08:34:42Z</time>
      </trkpt>
      <trkpt lat="43.75267" lon="7.42027">
        <ele>403.7</ele>
        <time>2026-05-14T08:34:43Z</time>
      </trkpt>
      <trkpt lat="43.75257" lon="7.42017">
        <ele>404.1</ele>
        <time>2026-05-14T08:34:44Z</time>
      </trkpt>
      <trkpt lat="43.75249" lon="7.42005">
        <ele>404.2</ele>
        <time>2026-05-14T08:34:45Z</time>
      </trkpt>
      <trkpt lat="43.75243" lon="7.41991">
        <ele>405.6</ele>
        <time>2026-05-14T08:34:46Z</time>
      </trkpt>
      <trkpt lat="43.75239" lon="7.41975">
        <ele>406.4</ele>
        <time>2026-05-14T08:34:47Z</time>
      </trkpt>
      <trkpt lat="43.75237" lon="7.4196">
        <ele>406</ele>
        <time>2026-05-14T08:34:48Z</time>
      </trkpt>
      <trkpt lat="43.75237" lon="7.41945">
        <ele>405.8</ele>
        <time>2026-05-14T08:34:49Z</time>
      </trkpt>
      <trkpt lat="43.7524" lon="7.4193">
        <ele>406.2</ele>
        <time>2026-05-14T08:34:50Z</time>
      </trkpt>
      <trkpt lat="43.75244" lon="7.41918">
        <ele>407.1</ele>
        <time>2026-05-14T08:34:51Z</time>
      </trkpt>
      <trkpt lat="43.7525" lon="7.41906">
        <ele>407.8</ele>
        <time>2026-05-14T08:34:52Z</time>
      </trkpt>
      <trkpt lat="43.75257" lon="7.41895">
        <ele>411.1</ele>
        <time>2026-05-14T08:34:53Z</time>
      </trkpt>
      <trkpt lat="43.75263" lon="7.41882">
        <ele>412.6</ele>
        <time>2026-05-14T08:34:54Z</time>
      </trkpt>
      <trkpt lat="43.75269" lon="7.41869">
        <ele>412</ele>
        <time>2026-05-14T08:34:55Z</time>
      </trkpt>
      <trkpt lat="43.75273" lon="7.41855">
        <ele>410.9</ele>
        <time>2026-05-14T08:34:56Z</time>
      </trkpt>
      <trkpt lat="43.75276" lon="7.4184">
        <ele>411.5</ele>
        <time>2026-05-14T08:34:57Z</time>
      </trkpt>
      <trkpt lat="43.75277" lon="7.41826">
        <ele>411.9</ele>
        <time>2026-05-14T08:34:58Z</time>
      </trkpt>
      <trkpt lat="43.75277" lon="7.41812">
        <ele>412.4</ele>
        <time>2026-05-14T08:34:59Z</time>
      </trkpt>
      <trkpt lat="43.75276" lon="7.418">
        <ele>412.5</ele>
        <time>2026-05-14T08:35:00Z</time>
      </trkpt>
      <trkpt lat="43.75274" lon="7.41788">
        <ele>412.5</ele>
        <time>2026-05-14T08:35:01Z</time>
      </trkpt>
      <trkpt lat="43.7527" lon="7.41777">
        <ele>411.9</ele>
        <time>2026-05-14T08:35:02Z</time>
      </trkpt>
      <trkpt lat="43.75266" lon="7.41767">
        <ele>413</ele>
        <time>2026-05-14T08:35:03Z</time>
      </trkpt>
      <trkpt lat="43.75259" lon="7.41756">
        <ele>413.4</ele>
        <time>2026-05-14T08:35:04Z</time>
      </trkpt>
      <trkpt lat="43.75251" lon="7.41746">
        <ele>413.9</ele>
        <time>2026-05-14T08:35:05Z</time>
      </trkpt>
      <trkpt lat="43.75242" lon="7.41737">
        <ele>414.4</ele>
        <time>2026-05-14T08:35:06Z</time>
      </trkpt>
      <trkpt lat="43.75233" lon="7.41728">
        <ele>414.7</ele>
        <time>2026-05-14T08:35:07Z</time>
      </trkpt>
      <trkpt lat="43.75223" lon="7.41719">
        <ele>414.4</ele>
        <time>2026-05-14T08:35:08Z</time>
      </trkpt>
      <trkpt lat="43.75215" lon="7.41711">
        <ele>414.7</ele>
        <time>2026-05-14T08:35:09Z</time>
      </trkpt>
      <trkpt lat="43.75206" lon="7.41702">
        <ele>415</ele>
        <time>2026-05-14T08:35:10Z</time>
      </trkpt>
      <trkpt lat="43.75198" lon="7.41694">
        <ele>415.3</ele>
        <time>2026-05-14T08:35:11Z</time>
      </trkpt>
      <trkpt lat="43.7519" lon="7.41684">
        <ele>416</ele>
        <time>2026-05-14T08:35:12Z</time>
      </trkpt>
      <trkpt lat="43.75183" lon="7.41675">
        <ele>416.7</ele>
        <time>2026-05-14T08:35:13Z</time>
      </trkpt>
      <trkpt lat="43.75177" lon="7.41664">
        <ele>417.9</ele>
        <time>2026-05-14T08:35:14Z</time>
      </trkpt>
      <trkpt lat="43.75172" lon="7.41653">
        <ele>418.3</ele>
        <time>2026-05-14T08:35:15Z</time>
      </trkpt>
      <trkpt lat="43.75168" lon="7.41642">
        <ele>418.2</ele>
        <time>2026-05-14T08:35:16Z</time>
      </trkpt>
      <trkpt lat="43.75164" lon="7.41631">
        <ele>417.8</ele>
        <time>2026-05-14T08:35:17Z</time>
      </trkpt>
      <trkpt lat="43.75162" lon="7.41622">
        <ele>418.2</ele>
        <time>2026-05-14T08:35:18Z</time>
      </trkpt>
      <trkpt lat="43.7516" lon="7.41612">
        <ele>418.7</ele>
        <time>2026-05-14T08:35:19Z</time>
      </trkpt>
      <trkpt lat="43.75158" lon="7.41602">
        <ele>419.9</ele>
        <time>2026-05-14T08:35:20Z</time>
      </trkpt>
      <trkpt lat="43.75156" lon="7.41593">
        <ele>420.8</ele>
        <time>2026-05-14T08:35:21Z</time>
      </trkpt>
      <trkpt lat="43.75154" lon="7.41583">
        <ele>421.8</ele>
        <time>2026-05-14T08:35:22Z</time>
      </trkpt>
      <trkpt lat="43.75152" lon="7.41572">
        <ele>423.2</ele>
        <time>2026-05-14T08:35:23Z</time>
      </trkpt>
      <trkpt lat="43.75149" lon="7.4156">
        <ele>423.9</ele>
        <time>2026-05-14T08:35:24Z</time>
      </trkpt>
      <trkpt lat="43.75145" lon="7.41546">
        <ele>422.9</ele>
        <time>2026-05-14T08:35:25Z</time>
      </trkpt>
      <trkpt lat="43.75141" lon="7.41532">
        <ele>421.2</ele>
        <time>2026-05-14T08:35:26Z</time>
      </trkpt>
      <trkpt lat="43.75138" lon="7.41518">
        <ele>421.7</ele>
        <time>2026-05-14T08:35:27Z</time>
      </trkpt>
      <trkpt lat="43.75135" lon="7.41505">
        <ele>422.8</ele>
        <time>2026-05-14T08:35:28Z</time>
      </trkpt>
      <trkpt lat="43.75131" lon="7.4149">
        <ele>423.6</ele>
        <time>2026-05-14T08:35:29Z</time>
      </trkpt>
      <trkpt lat="43.75127" lon="7.41476">
        <ele>424.3</ele>
        <time>2026-05-14T08:35:30Z</time>
      </trkpt>
      <trkpt lat="43.75123" lon="7.41459">
        <ele>424.5</ele>
        <time>2026-05-14T08:35:31Z</time>
      </trkpt>
      <trkpt lat="43.75118" lon="7.41442">
        <ele>424.1</ele>
        <time>2026-05-14T08:35:32Z</time>
      </trkpt>
      <trkpt lat="43.75113" lon="7.41427">
        <ele>424.5</ele>
        <time>2026-05-14T08:35:33Z</time>
      </trkpt>
      <trkpt lat="43.75108" lon="7.41412">
        <ele>425.2</ele>
        <time>2026-05-14T08:35:34Z</time>
      </trkpt>
      <trkpt lat="43.75105" lon="7.41395">
        <ele>425.7</ele>
        <time>2026-05-14T08:35:35Z</time>
      </trkpt>
      <trkpt lat="43.75101" lon="7.4138">
        <ele>426</ele>
        <time>2026-05-14T08:35:36Z</time>
      </trkpt>
      <trkpt lat="43.75097" lon="7.41366">
        <ele>427.1</ele>
        <time>2026-05-14T08:35:37Z</time>
      </trkpt>
      <trkpt lat="43.75094" lon="7.41354">
        <ele>427.5</ele>
        <time>2026-05-14T08:35:38Z</time>
      </trkpt>
      <trkpt lat="43.75092" lon="7.41343">
        <ele>427.6</ele>
        <time>2026-05-14T08:35:39Z</time>
      </trkpt>
      <trkpt lat="43.75091" lon="7.41335">
        <ele>427.8</ele>
        <time>2026-05-14T08:35:40Z</time>
      </trkpt>
      <trkpt lat="43.75091" lon="7.41328">
        <ele>427.9</ele>
        <time>2026-05-14T08:35:41Z</time>
      </trkpt>
      <trkpt lat="43.75091" lon="7.41319">
        <ele>428.1</ele>
        <time>2026-05-14T08:35:42Z</time>
      </trkpt>
      <trkpt lat="43.75093" lon="7.4131">
        <ele>428.3</ele>
        <time>2026-05-14T08:35:43Z</time>
      </trkpt>
      <trkpt lat="43.75096" lon="7.41301">
        <ele>429.2</ele>
        <time>2026-05-14T08:35:44Z</time>
      </trkpt>
      <trkpt lat="43.75096" lon="7.41292">
        <ele>430.7</ele>
        <time>2026-05-14T08:35:45Z</time>
      </trkpt>
      <trkpt lat="43.75094" lon="7.41284">
        <ele>431.5</ele>
        <time>2026-05-14T08:35:46Z</time>
      </trkpt>
      <trkpt lat="43.75089" lon="7.41279">
        <ele>430.7</ele>
        <time>2026-05-14T08:35:47Z</time>
      </trkpt>
      <trkpt lat="43.75082" lon="7.41274">
        <ele>429.6</ele>
        <time>2026-05-14T08:35:48Z</time>
      </trkpt>
      <trkpt lat="43.75076" lon="7.41267">
        <ele>429.8</ele>
        <time>2026-05-14T08:35:49Z</time>
      </trkpt>
      <trkpt lat="43.7507" lon="7.41258">
        <ele>430.2</ele>
        <time>2026-05-14T08:35:50Z</time>
      </trkpt>
      <trkpt lat="43.75065" lon="7.41249">
        <ele>430.5</ele>
        <time>2026-05-14T08:35:51Z</time>
      </trkpt>
      <trkpt lat="43.75062" lon="7.41241">
        <ele>431</ele>
        <time>2026-05-14T08:35:52Z</time>
      </trkpt>
      <trkpt lat="43.75059" lon="7.41233">
        <ele>431.1</ele>
        <time>2026-05-14T08:35:53Z</time>
      </trkpt>
      <trkpt lat="43.75058" lon="7.41227">
        <ele>431.5</ele>
        <time>2026-05-14T08:35:54Z</time>
      </trkpt>
      <trkpt lat="43.75056" lon="7.4122">
        <ele>431.5</ele>
        <time>2026-05-14T08:35:55Z</time>
      </trkpt>
      <trkpt lat="43.75053" lon="7.41213">
        <ele>431.6</ele>
        <time>2026-05-14T08:35:56Z</time>
      </trkpt>
      <trkpt lat="43.7505" lon="7.41205">
        <ele>431.9</ele>
        <time>2026-05-14T08:35:57Z</time>
      </trkpt>
      <trkpt lat="43.75047" lon="7.41196">
        <ele>432.3</ele>
        <time>2026-05-14T08:35:58Z</time>
      </trkpt>
      <trkpt lat="43.75043" lon="7.41187">
        <ele>432.9</ele>
        <time>2026-05-14T08:35:59Z</time>
      </trkpt>
      <trkpt lat="43.7504" lon="7.41179">
        <ele>433.5</ele>
        <time>2026-05-14T08:36:00Z</time>
      </trkpt>
      <trkpt lat="43.75037" lon="7.41172">
        <ele>434</ele>
        <time>2026-05-14T08:36:01Z</time>
      </trkpt>
      <trkpt lat="43.75035" lon="7.41165">
        <ele>434.5</ele>
        <time>2026-05-14T08:36:02Z</time>
      </trkpt>
      <trkpt lat="43.75033" lon="7.41159">
        <ele>434.4</ele>
        <time>2026-05-14T08:36:03Z</time>
      </trkpt>
      <trkpt lat="43.75029" lon="7.41152">
        <ele>433.9</ele>
        <time>2026-05-14T08:36:04Z</time>
      </trkpt>
      <trkpt lat="43.75025" lon="7.41144">
        <ele>433.9</ele>
        <time>2026-05-14T08:36:05Z</time>
      </trkpt>
      <trkpt lat="43.75021" lon="7.41136">
        <ele>433.9</ele>
        <time>2026-05-14T08:36:06Z</time>
      </trkpt>
      <trkpt lat="43.75016" lon="7.41127">
        <ele>433.6</ele>
        <time>2026-05-14T08:36:07Z</time>
      </trkpt>
      <trkpt lat="43.75011" lon="7.41118">
        <ele>433.8</ele>
        <time>2026-05-14T08:36:08Z</time>
      </trkpt>
      <trkpt lat="43.75006" lon="7.4111">
        <ele>434.3</ele>
        <time>2026-05-14T08:36:09Z</time>
      </trkpt>
      <trkpt lat="43.75002" lon="7.41102">
        <ele>434.4</ele>
        <time>2026-05-14T08:36:10Z</time>
      </trkpt>
      <trkpt lat="43.74998" lon="7.41094">
        <ele>434.2</ele>
        <time>2026-05-14T08:36:11Z</time>
      </trkpt>
      <trkpt lat="43.74994" lon="7.41085">
        <ele>434</ele>
        <time>2026-05-14T08:36:12Z</time>
      </trkpt>
      <trkpt lat="43.7499" lon="7.41077">
        <ele>434.4</ele>
        <time>2026-05-14T08:36:13Z</time>
      </trkpt>
      <trkpt lat="43.74987" lon="7.41069">
        <ele>435</ele>
        <time>2026-05-14T08:36:14Z</time>
      </trkpt>
      <trkpt lat="43.74985" lon="7.41061">
        <ele>435.6</ele>
        <time>2026-05-14T08:36:15Z</time>
      </trkpt>
      <trkpt lat="43.74981" lon="7.41051">
        <ele>436.4</ele>
        <time>2026-05-14T08:36:16Z</time>
      </trkpt>
      <trkpt lat="43.74978" lon="7.41041">
        <ele>437.3</ele>
        <time>2026-05-14T08:36:17Z</time>
      </trkpt>
      <trkpt lat="43.74976" lon="7.41029">
        <ele>438.3</ele>
        <time>2026-05-14T08:36:18Z</time>
      </trkpt>
      <trkpt lat="43.74973" lon="7.41016">
        <ele>437.7</ele>
        <time>2026-05-14T08:36:19Z</time>
      </trkpt>
      <trkpt lat="43.74971" lon="7.41002">
        <ele>437.6</ele>
        <time>2026-05-14T08:36:20Z</time>
      </trkpt>
      <trkpt lat="43.74969" lon="7.40988">
        <ele>438.3</ele>
        <time>2026-05-14T08:36:21Z</time>
      </trkpt>
      <trkpt lat="43.74967" lon="7.40974">
        <ele>439.1</ele>
        <time>2026-05-14T08:36:22Z</time>
      </trkpt>
      <trkpt lat="43.74966" lon="7.4096">
        <ele>439.8</ele>
        <time>2026-05-14T08:36:23Z</time>
      </trkpt>
      <trkpt lat="43.74964" lon="7.40944">
        <ele>440.1</ele>
        <time>2026-05-14T08:36:24Z</time>
      </trkpt>
      <trkpt lat="43.74962" lon="7.40928">
        <ele>440.3</ele>
        <time>2026-05-14T08:36:25Z</time>
      </trkpt>
      <trkpt lat="43.74961" lon="7.40912">
        <ele>441</ele>
        <time>2026-05-14T08:36:26Z</time>
      </trkpt>
      <trkpt lat="43.74961" lon="7.40896">
        <ele>441.8</ele>
        <time>2026-05-14T08:36:27Z</time>
      </trkpt>
      <trkpt lat="43.74961" lon="7.4088">
        <ele>442.5</ele>
        <time>2026-05-14T08:36:28Z</time>
      </trkpt>
      <trkpt lat="43.74961" lon="7.40866">
        <ele>443</ele>
        <time>2026-05-14T08:36:29Z</time>
      </trkpt>
      <trkpt lat="43.74961" lon="7.40852">
        <ele>443</ele>
        <time>2026-05-14T08:36:30Z</time>
      </trkpt>
      <trkpt lat="43.74962" lon="7.40838">
        <ele>443.1</ele>
        <time>2026-05-14T08:36:31Z</time>
      </trkpt>
      <trkpt lat="43.74963" lon="7.40824">
        <ele>443.5</ele>
        <time>2026-05-14T08:36:32Z</time>
      </trkpt>
      <trkpt lat="43.74963" lon="7.40811">
        <ele>443.6</ele>
        <time>2026-05-14T08:36:33Z</time>
      </trkpt>
      <trkpt lat="43.74964" lon="7.40799">
        <ele>444</ele>
        <time>2026-05-14T08:36:34Z</time>
      </trkpt>
      <trkpt lat="43.74965" lon="7.40788">
        <ele>444.3</ele>
        <time>2026-05-14T08:36:35Z</time>
      </trkpt>
      <trkpt lat="43.74966" lon="7.40778">
        <ele>444.7</ele>
        <time>2026-05-14T08:36:36Z</time>
      </trkpt>
      <trkpt lat="43.74967" lon="7.40767">
        <ele>444.9</ele>
        <time>2026-05-14T08:36:37Z</time>
      </trkpt>
      <trkpt lat="43.74969" lon="7.40756">
        <ele>445.3</ele>
        <time>2026-05-14T08:36:38Z</time>
      </trkpt>
      <trkpt lat="43.74972" lon="7.40744">
        <ele>445.7</ele>
        <time>2026-05-14T08:36:39Z</time>
      </trkpt>
      <trkpt lat="43.74976" lon="7.40734">
        <ele>446.4</ele>
        <time>2026-05-14T08:36:40Z</time>
      </trkpt>
      <trkpt lat="43.74982" lon="7.40723">
        <ele>447.5</ele>
        <time>2026-05-14T08:36:41Z</time>
      </trkpt>
      <trkpt lat="43.7499" lon="7.40715">
        <ele>447.3</ele>
        <time>2026-05-14T08:36:42Z</time>
      </trkpt>
      <trkpt lat="43.74998" lon="7.40709">
        <ele>446.9</ele>
        <time>2026-05-14T08:36:43Z</time>
      </trkpt>
      <trkpt lat="43.75006" lon="7.40703">
        <ele>446.7</ele>
        <time>2026-05-14T08:36:44Z</time>
      </trkpt>
      <trkpt lat="43.75014" lon="7.40697">
        <ele>446.9</ele>
        <time>2026-05-14T08:36:45Z</time>
      </trkpt>
      <trkpt lat="43.75019" lon="7.40689">
        <ele>447</ele>
        <time>2026-05-14T08:36:46Z</time>
      </trkpt>
      <trkpt lat="43.75024" lon="7.40681">
        <ele>447.8</ele>
        <time>2026-05-14T08:36:47Z</time>
      </trkpt>
      <trkpt lat="43.75027" lon="7.40673">
        <ele>448.2</ele>
        <time>2026-05-14T08:36:48Z</time>
      </trkpt>
      <trkpt lat="43.75029" lon="7.40666">
        <ele>448.4</ele>
        <time>2026-05-14T08:36:49Z</time>
      </trkpt>
      <trkpt lat="43.75032" lon="7.40658">
        <ele>449.6</ele>
        <time>2026-05-14T08:36:50Z</time>
      </trkpt>
      <trkpt lat="43.75035" lon="7.40649">
        <ele>450.6</ele>
        <time>2026-05-14T08:36:51Z</time>
      </trkpt>
      <trkpt lat="43.75039" lon="7.4064">
        <ele>451.8</ele>
        <time>2026-05-14T08:36:52Z</time>
      </trkpt>
      <trkpt lat="43.75043" lon="7.4063">
        <ele>452.6</ele>
        <time>2026-05-14T08:36:53Z</time>
      </trkpt>
      <trkpt lat="43.75047" lon="7.40619">
        <ele>453.1</ele>
        <time>2026-05-14T08:36:54Z</time>
      </trkpt>
      <trkpt lat="43.75051" lon="7.40607">
        <ele>453.1</ele>
        <time>2026-05-14T08:36:55Z</time>
      </trkpt>
      <trkpt lat="43.75055" lon="7.40596">
        <ele>452.8</ele>
        <time>2026-05-14T08:36:56Z</time>
      </trkpt>
      <trkpt lat="43.75057" lon="7.40585">
        <ele>452.8</ele>
        <time>2026-05-14T08:36:57Z</time>
      </trkpt>
      <trkpt lat="43.75059" lon="7.40575">
        <ele>453.5</ele>
        <time>2026-05-14T08:36:58Z</time>
      </trkpt>
      <trkpt lat="43.7506" lon="7.40565">
        <ele>453.9</ele>
        <time>2026-05-14T08:36:59Z</time>
      </trkpt>
      <trkpt lat="43.7506" lon="7.40556">
        <ele>453.9</ele>
        <time>2026-05-14T08:37:00Z</time>
      </trkpt>
      <trkpt lat="43.75061" lon="7.40549">
        <ele>454.2</ele>
        <time>2026-05-14T08:37:01Z</time>
      </trkpt>
      <trkpt lat="43.75062" lon="7.40541">
        <ele>454.3</ele>
        <time>2026-05-14T08:37:02Z</time>
      </trkpt>
      <trkpt lat="43.75064" lon="7.40533">
        <ele>454.7</ele>
        <time>2026-05-14T08:37:03Z</time>
      </trkpt>
      <trkpt lat="43.75066" lon="7.40524">
        <ele>454.2</ele>
        <time>2026-05-14T08:37:04Z</time>
      </trkpt>
      <trkpt lat="43.75071" lon="7.40516">
        <ele>453.9</ele>
        <time>2026-05-14T08:37:05Z</time>
      </trkpt>
      <trkpt lat="43.75077" lon="7.40509">
        <ele>454.1</ele>
        <time>2026-05-14T08:37:06Z</time>
      </trkpt>
      <trkpt lat="43.75083" lon="7.40502">
        <ele>454.3</ele>
        <time>2026-05-14T08:37:07Z</time>
      </trkpt>
      <trkpt lat="43.7509" lon="7.40496">
        <ele>454.9</ele>
        <time>2026-05-14T08:37:08Z</time>
      </trkpt>
      <trkpt lat="43.75096" lon="7.4049">
        <ele>455.1</ele>
        <time>2026-05-14T08:37:09Z</time>
      </trkpt>
      <trkpt lat="43.75103" lon="7.40484">
        <ele>455.3</ele>
        <time>2026-05-14T08:37:10Z</time>
      </trkpt>
      <trkpt lat="43.75107" lon="7.40478">
        <ele>454.7</ele>
        <time>2026-05-14T08:37:11Z</time>
      </trkpt>
      <trkpt lat="43.7511" lon="7.4047">
        <ele>454</ele>
        <time>2026-05-14T08:37:12Z</time>
      </trkpt>
      <trkpt lat="43.75111" lon="7.40462">
        <ele>455.1</ele>
        <time>2026-05-14T08:37:13Z</time>
      </trkpt>
      <trkpt lat="43.75112" lon="7.40455">
        <ele>456.2</ele>
        <time>2026-05-14T08:37:14Z</time>
      </trkpt>
      <trkpt lat="43.75111" lon="7.40446">
        <ele>456.8</ele>
        <time>2026-05-14T08:37:15Z</time>
      </trkpt>
      <trkpt lat="43.75109" lon="7.40437">
        <ele>457.1</ele>
        <time>2026-05-14T08:37:16Z</time>
      </trkpt>
      <trkpt lat="43.75107" lon="7.40427">
        <ele>457.8</ele>
        <time>2026-05-14T08:37:17Z</time>
      </trkpt>
      <trkpt lat="43.75104" lon="7.40417">
        <ele>458.4</ele>
        <time>2026-05-14T08:37:18Z</time>
      </trkpt>
      <trkpt lat="43.75101" lon="7.40409">
        <ele>459.3</ele>
        <time>2026-05-14T08:37:19Z</time>
      </trkpt>
      <trkpt lat="43.75097" lon="7.404">
        <ele>459.9</ele>
        <time>2026-05-14T08:37:20Z</time>
      </trkpt>
      <trkpt lat="43.75092" lon="7.40392">
        <ele>459.6</ele>
        <time>2026-05-14T08:37:21Z</time>
      </trkpt>
      <trkpt lat="43.75087" lon="7.40384">
        <ele>458.9</ele>
        <time>2026-05-14T08:37:22Z</time>
      </trkpt>
      <trkpt lat="43.75083" lon="7.40375">
        <ele>458.4</ele>
        <time>2026-05-14T08:37:23Z</time>
      </trkpt>
      <trkpt lat="43.75079" lon="7.40367">
        <ele>458.5</ele>
        <time>2026-05-14T08:37:24Z</time>
      </trkpt>
      <trkpt lat="43.75076" lon="7.40357">
        <ele>459.1</ele>
        <time>2026-05-14T08:37:25Z</time>
      </trkpt>
      <trkpt lat="43.75072" lon="7.40348">
        <ele>459.7</ele>
        <time>2026-05-14T08:37:26Z</time>
      </trkpt>
      <trkpt lat="43.75067" lon="7.4034">
        <ele>459.8</ele>
        <time>2026-05-14T08:37:27Z</time>
      </trkpt>
      <trkpt lat="43.7506" lon="7.40332">
        <ele>459.4</ele>
        <time>2026-05-14T08:37:28Z</time>
      </trkpt>
      <trkpt lat="43.75055" lon="7.40325">
        <ele>459.5</ele>
        <time>2026-05-14T08:37:29Z</time>
      </trkpt>
      <trkpt lat="43.7505" lon="7.40318">
        <ele>460.6</ele>
        <time>2026-05-14T08:37:30Z</time>
      </trkpt>
      <trkpt lat="43.75044" lon="7.40313">
        <ele>461.2</ele>
        <time>2026-05-14T08:37:31Z</time>
      </trkpt>
      <trkpt lat="43.75039" lon="7.4031">
        <ele>461.6</ele>
        <time>2026-05-14T08:37:32Z</time>
      </trkpt>
      <trkpt lat="43.75034" lon="7.40306">
        <ele>462.1</ele>
        <time>2026-05-14T08:37:33Z</time>
      </trkpt>
      <trkpt lat="43.75029" lon="7.40304">
        <ele>462.4</ele>
        <time>2026-05-14T08:37:34Z</time>
      </trkpt>
      <trkpt lat="43.75025" lon="7.40303">
        <ele>462.7</ele>
        <time>2026-05-14T08:37:35Z</time>
      </trkpt>
      <trkpt lat="43.75021" lon="7.40302">
        <ele>463</ele>
        <time>2026-05-14T08:37:36Z</time>
      </trkpt>
      <trkpt lat="43.75015" lon="7.40301">
        <ele>463.5</ele>
        <time>2026-05-14T08:37:37Z</time>
      </trkpt>
      <trkpt lat="43.7501" lon="7.403">
        <ele>464</ele>
        <time>2026-05-14T08:37:38Z</time>
      </trkpt>
      <trkpt lat="43.75004" lon="7.40299">
        <ele>464.5</ele>
        <time>2026-05-14T08:37:39Z</time>
      </trkpt>
      <trkpt lat="43.74999" lon="7.40299">
        <ele>464.6</ele>
        <time>2026-05-14T08:37:40Z</time>
      </trkpt>
      <trkpt lat="43.74992" lon="7.40298">
        <ele>464.5</ele>
        <time>2026-05-14T08:37:41Z</time>
      </trkpt>
      <trkpt lat="43.74986" lon="7.40297">
        <ele>464.5</ele>
        <time>2026-05-14T08:37:42Z</time>
      </trkpt>
      <trkpt lat="43.7498" lon="7.40296">
        <ele>464.4</ele>
        <time>2026-05-14T08:37:43Z</time>
      </trkpt>
      <trkpt lat="43.74975" lon="7.40295">
        <ele>464.4</ele>
        <time>2026-05-14T08:37:44Z</time>
      </trkpt>
      <trkpt lat="43.7497" lon="7.40293">
        <ele>464.6</ele>
        <time>2026-05-14T08:37:45Z</time>
      </trkpt>
      <trkpt lat="43.74964" lon="7.40291">
        <ele>464.5</ele>
        <time>2026-05-14T08:37:46Z</time>
      </trkpt>
      <trkpt lat="43.74959" lon="7.40289">
        <ele>464.5</ele>
        <time>2026-05-14T08:37:47Z</time>
      </trkpt>
      <trkpt lat="43.74952" lon="7.40287">
        <ele>464.3</ele>
        <time>2026-05-14T08:37:48Z</time>
      </trkpt>
      <trkpt lat="43.74945" lon="7.40284">
        <ele>464.2</ele>
        <time>2026-05-14T08:37:49Z</time>
      </trkpt>
      <trkpt lat="43.74938" lon="7.40281">
        <ele>464.5</ele>
        <time>2026-05-14T08:37:50Z</time>
      </trkpt>
      <trkpt lat="43.74932" lon="7.40278">
        <ele>465</ele>
        <time>2026-05-14T08:37:51Z</time>
      </trkpt>
      <trkpt lat="43.74925" lon="7.40276">
        <ele>465.6</ele>
        <time>2026-05-14T08:37:52Z</time>
      </trkpt>
      <trkpt lat="43.74918" lon="7.40272">
        <ele>466.9</ele>
        <time>2026-05-14T08:37:53Z</time>
      </trkpt>
      <trkpt lat="43.7491" lon="7.40269">
        <ele>467.8</ele>
        <time>2026-05-14T08:37:54Z</time>
      </trkpt>
      <trkpt lat="43.74903" lon="7.40266">
        <ele>468.5</ele>
        <time>2026-05-14T08:37:55Z</time>
      </trkpt>
      <trkpt lat="43.74896" lon="7.40263">
        <ele>468.9</ele>
        <time>2026-05-14T08:37:56Z</time>
      </trkpt>
      <trkpt lat="43.74889" lon="7.40261">
        <ele>469</ele>
        <time>2026-05-14T08:37:57Z</time>
      </trkpt>
      <trkpt lat="43.74883" lon="7.40258">
        <ele>468.8</ele>
        <time>2026-05-14T08:37:58Z</time>
      </trkpt>
      <trkpt lat="43.74877" lon="7.40256">
        <ele>468.3</ele>
        <time>2026-05-14T08:37:59Z</time>
      </trkpt>
      <trkpt lat="43.74871" lon="7.40254">
        <ele>467.8</ele>
        <time>2026-05-14T08:38:00Z</time>
      </trkpt>
      <trkpt lat="43.74866" lon="7.40252">
        <ele>467.4</ele>
        <time>2026-05-14T08:38:01Z</time>
      </trkpt>
      <trkpt lat="43.74861" lon="7.4025">
        <ele>467</ele>
        <time>2026-05-14T08:38:02Z</time>
      </trkpt>
      <trkpt lat="43.74856" lon="7.40248">
        <ele>467.5</ele>
        <time>2026-05-14T08:38:03Z</time>
      </trkpt>
      <trkpt lat="43.74851" lon="7.40245">
        <ele>468.1</ele>
        <time>2026-05-14T08:38:04Z</time>
      </trkpt>
      <trkpt lat="43.74846" lon="7.40242">
        <ele>468.5</ele>
        <time>2026-05-14T08:38:05Z</time>
      </trkpt>
      <trkpt lat="43.74841" lon="7.40239">
        <ele>468.9</ele>
        <time>2026-05-14T08:38:06Z</time>
      </trkpt>
      <trkpt lat="43.74834" lon="7.40236">
        <ele>469.1</ele>
        <time>2026-05-14T08:38:07Z</time>
      </trkpt>
      <trkpt lat="43.74826" lon="7.40231">
        <ele>469.6</ele>
        <time>2026-05-14T08:38:08Z</time>
      </trkpt>
      <trkpt lat="43.74819" lon="7.40227">
        <ele>470</ele>
        <time>2026-05-14T08:38:09Z</time>
      </trkpt>
      <trkpt lat="43.74811" lon="7.40222">
        <ele>470.2</ele>
        <time>2026-05-14T08:38:10Z</time>
      </trkpt>
      <trkpt lat="43.74802" lon="7.40214">
        <ele>471.4</ele>
        <time>2026-05-14T08:38:11Z</time>
      </trkpt>
      <trkpt lat="43.74794" lon="7.40207">
        <ele>471.8</ele>
        <time>2026-05-14T08:38:12Z</time>
      </trkpt>
      <trkpt lat="43.74787" lon="7.402">
        <ele>471.9</ele>
        <time>2026-05-14T08:38:13Z</time>
      </trkpt>
      <trkpt lat="43.74779" lon="7.40193">
        <ele>471.5</ele>
        <time>2026-05-14T08:38:14Z</time>
      </trkpt>
      <trkpt lat="43.74772" lon="7.40187">
        <ele>472.4</ele>
        <time>2026-05-14T08:38:15Z</time>
      </trkpt>
      <trkpt lat="43.74766" lon="7.4018">
        <ele>473.2</ele>
        <time>2026-05-14T08:38:16Z</time>
      </trkpt>
      <trkpt lat="43.74759" lon="7.40174">
        <ele>473.4</ele>
        <time>2026-05-14T08:38:17Z</time>
      </trkpt>
      <trkpt lat="43.74753" lon="7.40168">
        <ele>473.3</ele>
        <time>2026-05-14T08:38:18Z</time>
      </trkpt>
      <trkpt lat="43.74748" lon="7.40164">
        <ele>473.5</ele>
        <time>2026-05-14T08:38:19Z</time>
      </trkpt>
      <trkpt lat="43.74743" lon="7.40161">
        <ele>474</ele>
        <time>2026-05-14T08:38:20Z</time>
      </trkpt>
      <trkpt lat="43.74738" lon="7.40158">
        <ele>474.4</ele>
        <time>2026-05-14T08:38:21Z</time>
      </trkpt>
      <trkpt lat="43.74732" lon="7.40156">
        <ele>474.7</ele>
        <time>2026-05-14T08:38:22Z</time>
      </trkpt>
      <trkpt lat="43.74726" lon="7.40154">
        <ele>474.9</ele>
        <time>2026-05-14T08:38:23Z</time>
      </trkpt>
      <trkpt lat="43.7472" lon="7.40151">
        <ele>475.2</ele>
        <time>2026-05-14T08:38:24Z</time>
      </trkpt>
      <trkpt lat="43.74714" lon="7.40149">
        <ele>475.1</ele>
        <time>2026-05-14T08:38:25Z</time>
      </trkpt>
      <trkpt lat="43.7471" lon="7.40147">
        <ele>475</ele>
        <time>2026-05-14T08:38:26Z</time>
      </trkpt>
      <trkpt lat="43.74706" lon="7.40144">
        <ele>475</ele>
        <time>2026-05-14T08:38:27Z</time>
      </trkpt>
      <trkpt lat="43.74701" lon="7.40142">
        <ele>474.6</ele>
        <time>2026-05-14T08:38:28Z</time>
      </trkpt>
      <trkpt lat="43.74695" lon="7.40138">
        <ele>474.3</ele>
        <time>2026-05-14T08:38:29Z</time>
      </trkpt>
      <trkpt lat="43.7469" lon="7.40133">
        <ele>475.4</ele>
        <time>2026-05-14T08:38:30Z</time>
      </trkpt>
      <trkpt lat="43.74685" lon="7.40127">
        <ele>476.4</ele>
        <time>2026-05-14T08:38:31Z</time>
      </trkpt>
      <trkpt lat="43.74679" lon="7.4012">
        <ele>477</ele>
        <time>2026-05-14T08:38:32Z</time>
      </trkpt>
      <trkpt lat="43.74673" lon="7.40114">
        <ele>476.9</ele>
        <time>2026-05-14T08:38:33Z</time>
      </trkpt>
      <trkpt lat="43.74668" lon="7.40108">
        <ele>477.3</ele>
        <time>2026-05-14T08:38:34Z</time>
      </trkpt>
      <trkpt lat="43.74662" lon="7.40103">
        <ele>478</ele>
        <time>2026-05-14T08:38:35Z</time>
      </trkpt>
      <trkpt lat="43.74656" lon="7.40096">
        <ele>478.9</ele>
        <time>2026-05-14T08:38:36Z</time>
      </trkpt>
      <trkpt lat="43.7465" lon="7.40091">
        <ele>478.7</ele>
        <time>2026-05-14T08:38:37Z</time>
      </trkpt>
      <trkpt lat="43.74643" lon="7.40087">
        <ele>477.7</ele>
        <time>2026-05-14T08:38:38Z</time>
      </trkpt>
      <trkpt lat="43.74637" lon="7.40083">
        <ele>477.1</ele>
        <time>2026-05-14T08:38:39Z</time>
      </trkpt>
      <trkpt lat="43.74631" lon="7.40081">
        <ele>477.4</ele>
        <time>2026-05-14T08:38:40Z</time>
      </trkpt>
      <trkpt lat="43.74627" lon="7.4008">
        <ele>477.5</ele>
        <time>2026-05-14T08:38:41Z</time>
      </trkpt>
      <trkpt lat="43.74624" lon="7.40078">
        <ele>477.9</ele>
        <time>2026-05-14T08:38:42Z</time>
      </trkpt>
      <trkpt lat="43.7462" lon="7.40077">
        <ele>478</ele>
        <time>2026-05-14T08:38:43Z</time>
      </trkpt>
      <trkpt lat="43.74616" lon="7.40076">
        <ele>478.1</ele>
        <time>2026-05-14T08:38:44Z</time>
      </trkpt>
      <trkpt lat="43.74612" lon="7.40075">
        <ele>478.2</ele>
        <time>2026-05-14T08:38:45Z</time>
      </trkpt>
      <trkpt lat="43.74608" lon="7.40074">
        <ele>478.3</ele>
        <time>2026-05-14T08:38:46Z</time>
      </trkpt>
      <trkpt lat="43.74606" lon="7.40073">
        <ele>478.5</ele>
        <time>2026-05-14T08:38:47Z</time>
      </trkpt>
      <trkpt lat="43.74603" lon="7.40072">
        <ele>478.6</ele>
        <time>2026-05-14T08:38:48Z</time>
      </trkpt>
      <trkpt lat="43.746" lon="7.40071">
        <ele>478.6</ele>
        <time>2026-05-14T08:38:49Z</time>
      </trkpt>
      <trkpt lat="43.74598" lon="7.4007">
        <ele>478.7</ele>
        <time>2026-05-14T08:38:50Z</time>
      </trkpt>
      <trkpt lat="43.74596" lon="7.40068">
        <ele>478.9</ele>
        <time>2026-05-14T08:38:51Z</time>
      </trkpt>
      <trkpt lat="43.74595" lon="7.40066">
        <ele>479</ele>
        <time>2026-05-14T08:38:52Z</time>
      </trkpt>
      <trkpt lat="43.74593" lon="7.40065">
        <ele>479</ele>
        <time>2026-05-14T08:38:53Z</time>
      </trkpt>
      <trkpt lat="43.74591" lon="7.40063">
        <ele>479.1</ele>
        <time>2026-05-14T08:38:54Z</time>
      </trkpt>
      <trkpt lat="43.7459" lon="7.40063">
        <ele>479</ele>
        <time>2026-05-14T08:38:55Z</time>
      </trkpt>
      <trkpt lat="43.74589" lon="7.40062">
        <ele>479</ele>
        <time>2026-05-14T08:38:56Z</time>
      </trkpt>
      <trkpt lat="43.7459" lon="7.40063">
        <ele>479</ele>
        <time>2026-05-14T08:38:57Z</time>
      </trkpt>
      <trkpt lat="43.7459" lon="7.40063">
        <ele>479</ele>
        <time>2026-05-14T08:38:58Z</time>
      </trkpt>
      <trkpt lat="43.7459" lon="7.40063">
        <ele>479</ele>
        <time>2026-05-14T08:38:59Z</time>
      </trkpt>
      <trkpt lat="43.7459" lon="7.40063">
        <ele>479</ele>
        <time>2026-05-14T08:39:00Z</time>
      </trkpt>
      <trkpt lat="43.74589" lon="7.40063">
        <ele>479</ele>
        <time>2026-05-14T08:39:01Z</time>
      </trkpt>
      <trkpt lat="43.74587" lon="7.40062">
        <ele>478.9</ele>
        <time>2026-05-14T08:39:02Z</time>
      </trkpt>
      <trkpt lat="43.74585" lon="7.4006">
        <ele>478.9</ele>
        <time>2026-05-14T08:39:03Z</time>
      </trkpt>
      <trkpt lat="43.74583" lon="7.40059">
        <ele>478.9</ele>
        <time>2026-05-14T08:39:04Z</time>
      </trkpt>
      <trkpt lat="43.74581" lon="7.40058">
        <ele>479</ele>
        <time>2026-05-14T08:39:05Z</time>
      </trkpt>
      <trkpt lat="43.74581" lon="7.40058">
        <ele>479</ele>
        <time>2026-05-14T08:39:06Z</time>
      </trkpt>
      <trkpt lat="43.7458" lon="7.40058">
        <ele>479</ele>
        <time>2026-05-14T08:39:07Z</time>
      </trkpt>
      <trkpt lat="43.74579" lon="7.40059">
        <ele>479.1</ele>
        <time>2026-05-14T08:39:08Z</time>
      </trkpt>
      <trkpt lat="43.74579" lon="7.40059">
        <ele>479.1</ele>
        <time>2026-05-14T08:39:09Z</time>
      </trkpt>
      <trkpt lat="43.74579" lon="7.40059">
        <ele>479.1</ele>
        <time>2026-05-14T08:39:10Z</time>
      </trkpt>
      <trkpt lat="43.74577" lon="7.40057">
        <ele>479.2</ele>
        <time>2026-05-14T08:39:11Z</time>
      </trkpt>
      <trkpt lat="43.74574" lon="7.40054">
        <ele>479.5</ele>
        <time>2026-05-14T08:39:12Z</time>
      </trkpt>
      <trkpt lat="43.7457" lon="7.40051">
        <ele>479.9</ele>
        <time>2026-05-14T08:39:13Z</time>
      </trkpt>
      <trkpt lat="43.74566" lon="7.40047">
        <ele>480.2</ele>
        <time>2026-05-14T08:39:14Z</time>
      </trkpt>
      <trkpt lat="43.74562" lon="7.4004">
        <ele>480.4</ele>
        <time>2026-05-14T08:39:15Z</time>
      </trkpt>
      <trkpt lat="43.74559" lon="7.40036">
        <ele>480.3</ele>
        <time>2026-05-14T08:39:16Z</time>
      </trkpt>
      <trkpt lat="43.74557" lon="7.40032">
        <ele>480.2</ele>
        <time>2026-05-14T08:39:17Z</time>
      </trkpt>
      <trkpt lat="43.74555" lon="7.40027">
        <ele>480</ele>
        <time>2026-05-14T08:39:18Z</time>
      </trkpt>
      <trkpt lat="43.74553" lon="7.40021">
        <ele>480.2</ele>
        <time>2026-05-14T08:39:19Z</time>
      </trkpt>
      <trkpt lat="43.74551" lon="7.40016">
        <ele>480.3</ele>
        <time>2026-05-14T08:39:20Z</time>
      </trkpt>
      <trkpt lat="43.74549" lon="7.4001">
        <ele>480.4</ele>
        <time>2026-05-14T08:39:21Z</time>
      </trkpt>
      <trkpt lat="43.74545" lon="7.40008">
        <ele>480.3</ele>
        <time>2026-05-14T08:39:22Z</time>
      </trkpt>
      <trkpt lat="43.74541" lon="7.40008">
        <ele>480.2</ele>
        <time>2026-05-14T08:39:23Z</time>
      </trkpt>
      <trkpt lat="43.74536" lon="7.4001">
        <ele>479.9</ele>
        <time>2026-05-14T08:39:24Z</time>
      </trkpt>
      <trkpt lat="43.7453" lon="7.40011">
        <ele>479.7</ele>
        <time>2026-05-14T08:39:25Z</time>
      </trkpt>
      <trkpt lat="43.74525" lon="7.40009">
        <ele>479.3</ele>
        <time>2026-05-14T08:39:26Z</time>
      </trkpt>
      <trkpt lat="43.74521" lon="7.40006">
        <ele>478.9</ele>
        <time>2026-05-14T08:39:27Z</time>
      </trkpt>
      <trkpt lat="43.74519" lon="7.40003">
        <ele>478.7</ele>
        <time>2026-05-14T08:39:28Z</time>
      </trkpt>
      <trkpt lat="43.74518" lon="7.40002">
        <ele>478.6</ele>
        <time>2026-05-14T08:39:29Z</time>
      </trkpt>
      <trkpt lat="43.74518" lon="7.40002">
        <ele>478.6</ele>
        <time>2026-05-14T08:39:30Z</time>
      </trkpt>
      <trkpt lat="43.74518" lon="7.40002">
        <ele>478.6</ele>
        <time>2026-05-14T08:39:31Z</time>
      </trkpt>
      <trkpt lat="43.74517" lon="7.4">
        <ele>478.4</ele>
        <time>2026-05-14T08:39:32Z</time>
      </trkpt>
      <trkpt lat="43.74513" lon="7.39998">
        <ele>477.8</ele>
        <time>2026-05-14T08:39:33Z</time>
      </trkpt>
      <trkpt lat="43.74509" lon="7.4">
        <ele>477.3</ele>
        <time>2026-05-14T08:39:34Z</time>
      </trkpt>
      <trkpt lat="43.74504" lon="7.40004">
        <ele>476.7</ele>
        <time>2026-05-14T08:39:35Z</time>
      </trkpt>
      <trkpt lat="43.74498" lon="7.40009">
        <ele>476.3</ele>
        <time>2026-05-14T08:39:36Z</time>
      </trkpt>
      <trkpt lat="43.74492" lon="7.40015">
        <ele>476.4</ele>
        <time>2026-05-14T08:39:37Z</time>
      </trkpt>
      <trkpt lat="43.74484" lon="7.40017">
        <ele>476.3</ele>
        <time>2026-05-14T08:39:38Z</time>
      </trkpt>
      <trkpt lat="43.74476" lon="7.40019">
        <ele>476.1</ele>
        <time>2026-05-14T08:39:39Z</time>
      </trkpt>
      <trkpt lat="43.74468" lon="7.40019">
        <ele>476.1</ele>
        <time>2026-05-14T08:39:40Z</time>
      </trkpt>
      <trkpt lat="43.74461" lon="7.40018">
        <ele>476.2</ele>
        <time>2026-05-14T08:39:41Z</time>
      </trkpt>
      <trkpt lat="43.74455" lon="7.40017">
        <ele>476.3</ele>
        <time>2026-05-14T08:39:42Z</time>
      </trkpt>
      <trkpt lat="43.74451" lon="7.40016">
        <ele>476.2</ele>
        <time>2026-05-14T08:39:43Z</time>
      </trkpt>
      <trkpt lat="43.74449" lon="7.40016">
        <ele>476.3</ele>
        <time>2026-05-14T08:39:44Z</time>
      </trkpt>
      <trkpt lat="43.74447" lon="7.40015">
        <ele>476.1</ele>
        <time>2026-05-14T08:39:45Z</time>
      </trkpt>
      <trkpt lat="43.74446" lon="7.40015">
        <ele>476.2</ele>
        <time>2026-05-14T08:39:46Z</time>
      </trkpt>
      <trkpt lat="43.74447" lon="7.40015">
        <ele>476.1</ele>
        <time>2026-05-14T08:39:47Z</time>
      </trkpt>
      <trkpt lat="43.74447" lon="7.40015">
        <ele>476.1</ele>
        <time>2026-05-14T08:39:48Z</time>
      </trkpt>
      <trkpt lat="43.74447" lon="7.40015">
        <ele>476.1</ele>
        <time>2026-05-14T08:39:49Z</time>
      </trkpt>
      <trkpt lat="43.74448" lon="7.40014">
        <ele>476</ele>
        <time>2026-05-14T08:39:50Z</time>
      </trkpt>
      <trkpt lat="43.74448" lon="7.40014">
        <ele>476</ele>
        <time>2026-05-14T08:39:51Z</time>
      </trkpt>
      <trkpt lat="43.74448" lon="7.40014">
        <ele>476</ele>
        <time>2026-05-14T08:39:52Z</time>
      </trkpt>
      <trkpt lat="43.74448" lon="7.40014">
        <ele>476</ele>
        <time>2026-05-14T08:39:53Z</time>
      </trkpt>
      <trkpt lat="43.74448" lon="7.40014">
        <ele>476</ele>
        <time>2026-05-14T08:39:54Z</time>
      </trkpt>
      <trkpt lat="43.74448" lon="7.40014">
        <ele>476</ele>
        <time>2026-05-14T08:39:55Z</time>
      </trkpt>
      <trkpt lat="43.74448" lon="7.40014">
        <ele>476</ele>
        <time>2026-05-14T08:39:56Z</time>
      </trkpt>
      <trkpt lat="43.74448" lon="7.40014">
        <ele>476</ele>
        <time>2026-05-14T08:39:57Z</time>
      </trkpt>
      <trkpt lat="43.74448" lon="7.40014">
        <ele>476</ele>
        <time>2026-05-14T08:39:58Z</time>
      </trkpt>
      <trkpt lat="43.74448" lon="7.40014">
        <ele>476</ele>
        <time>2026-05-14T08:39:59Z</time>
      </trkpt>
      <trkpt lat="43.74448" lon="7.40014">
        <ele>476</ele>
        <time>2026-05-14T08:40:00Z</time>
      </trkpt>
      <trkpt lat="43.74447" lon="7.40014">
        <ele>476</ele>
        <time>2026-05-14T08:40:01Z</time>
      </trkpt>
      <trkpt lat="43.74446" lon="7.40014">
        <ele>476</ele>
        <time>2026-05-14T08:40:02Z</time>
      </trkpt>
      <trkpt lat="43.74446" lon="7.40014">
        <ele>476</ele>
        <time>2026-05-14T08:40:03Z</time>
      </trkpt>
      <trkpt lat="43.74445" lon="7.40013">
        <ele>475.9</ele>
        <time>2026-05-14T08:40:04Z</time>
      </trkpt>
      <trkpt lat="43.74444" lon="7.40013">
        <ele>475.9</ele>
        <time>2026-05-14T08:40:05Z</time>
      </trkpt>
      <trkpt lat="43.74444" lon="7.40013">
        <ele>475.9</ele>
        <time>2026-05-14T08:40:06Z</time>
      </trkpt>
      <trkpt lat="43.74444" lon="7.40013">
        <ele>475.9</ele>
        <time>2026-05-14T08:40:07Z</time>
      </trkpt>
      <trkpt lat="43.74444" lon="7.40013">
        <ele>475.9</ele>
        <time>2026-05-14T08:40:08Z</time>
      </trkpt>
      <trkpt lat="43.74444" lon="7.40014">
        <ele>476</ele>
        <time>2026-05-14T08:40:09Z</time>
      </trkpt>
      <trkpt lat="43.74444" lon="7.40014">
        <ele>476</ele>
        <time>2026-05-14T08:40:10Z</time>
      </trkpt>
      <trkpt lat="43.74444" lon="7.40014">
        <ele>476</ele>
        <time>2026-05-14T08:40:11Z</time>
      </trkpt>
      <trkpt lat="43.74444" lon="7.40014">
        <ele>476</ele>
        <time>2026-05-14T08:40:12Z</time>
      </trkpt>
      <trkpt lat="43.74444" lon="7.40014">
        <ele>476</ele>
        <time>2026-05-14T08:40:13Z</time>
      </trkpt>
      <trkpt lat="43.74444" lon="7.40014">
        <ele>476</ele>
        <time>2026-05-14T08:40:14Z</time>
      </trkpt>
      <trkpt lat="43.74444" lon="7.40014">
        <ele>476</ele>
        <time>2026-05-14T08:40:15Z</time>
      </trkpt>
      <trkpt lat="43.74444" lon="7.40014">
        <ele>476</ele>
        <time>2026-05-14T08:40:16Z</time>
      </trkpt>
      <trkpt lat="43.74444" lon="7.40014">
        <ele>476</ele>
        <time>2026-05-14T08:40:17Z</time>
      </trkpt>
      <trkpt lat="43.74444" lon="7.40014">
        <ele>476</ele>
        <time>2026-05-14T08:40:18Z</time>
      </trkpt>
      <trkpt lat="43.74444" lon="7.40014">
        <ele>476</ele>
        <time>2026-05-14T08:40:19Z</time>
      </trkpt>
      <trkpt lat="43.74444" lon="7.40014">
        <ele>476</ele>
        <time>2026-05-14T08:40:20Z</time>
      </trkpt>
      <trkpt lat="43.74444" lon="7.40014">
        <ele>476</ele>
        <time>2026-05-14T08:40:21Z</time>
      </trkpt>
      <trkpt lat="43.74444" lon="7.40014">
        <ele>476</ele>
        <time>2026-05-14T08:40:22Z</time>
      </trkpt>
      <trkpt lat="43.74444" lon="7.40014">
        <ele>476</ele>
        <time>2026-05-14T08:40:23Z</time>
      </trkpt>
      <trkpt lat="43.74444" lon="7.40014">
        <ele>476</ele>
        <time>2026-05-14T08:40:24Z</time>
      </trkpt>
      <trkpt lat="43.74444" lon="7.40014">
        <ele>476</ele>
        <time>2026-05-14T08:40:25Z</time>
      </trkpt>
      <trkpt lat="43.74444" lon="7.40014">
        <ele>476</ele>
        <time>2026-05-14T08:40:26Z</time>
      </trkpt>
      <trkpt lat="43.74444" lon="7.40014">
        <ele>476</ele>
        <time>2026-05-14T08:40:27Z</time>
      </trkpt>
      <trkpt lat="43.74444" lon="7.40014">
        <ele>476</ele>
        <time>2026-05-14T08:40:28Z</time>
      </trkpt>
      <trkpt lat="43.74444" lon="7.40014">
        <ele>476</ele>
        <time>2026-05-14T08:40:29Z</time>
      </trkpt>
      <trkpt lat="43.74444" lon="7.40014">
        <ele>476</ele>
        <time>2026-05-14T08:40:30Z</time>
      </trkpt>
      <trkpt lat="43.74444" lon="7.40014">
        <ele>476</ele>
        <time>2026-05-14T08:40:31Z</time>
      </trkpt>
      <trkpt lat="43.74444" lon="7.40014">
        <ele>476</ele>
        <time>2026-05-14T08:40:32Z</time>
      </trkpt>
      <trkpt lat="43.74444" lon="7.40014">
        <ele>476</ele>
        <time>2026-05-14T08:40:33Z</time>
      </trkpt>
      <trkpt lat="43.74444" lon="7.40014">
        <ele>476</ele>
        <time>2026-05-14T08:40:34Z</time>
      </trkpt>
      <trkpt lat="43.74444" lon="7.40014">
        <ele>476</ele>
        <time>2026-05-14T08:40:35Z</time>
      </trkpt>
      <trkpt lat="43.74443" lon="7.40014">
        <ele>476</ele>
        <time>2026-05-14T08:40:36Z</time>
      </trkpt>
      <trkpt lat="43.74441" lon="7.40014">
        <ele>476</ele>
        <time>2026-05-14T08:40:37Z</time>
      </trkpt>
      <trkpt lat="43.74437" lon="7.40014">
        <ele>475.9</ele>
        <time>2026-05-14T08:40:38Z</time>
      </trkpt>
      <trkpt lat="43.74433" lon="7.40014">
        <ele>475.8</ele>
        <time>2026-05-14T08:40:39Z</time>
      </trkpt>
      <trkpt lat="43.7443" lon="7.40013">
        <ele>475.6</ele>
        <time>2026-05-14T08:40:40Z</time>
      </trkpt>
      <trkpt lat="43.74427" lon="7.40013">
        <ele>475.6</ele>
        <time>2026-05-14T08:40:41Z</time>
      </trkpt>
      <trkpt lat="43.74425" lon="7.40011">
        <ele>475.3</ele>
        <time>2026-05-14T08:40:42Z</time>
      </trkpt>
      <trkpt lat="43.74424" lon="7.40009">
        <ele>475.1</ele>
        <time>2026-05-14T08:40:43Z</time>
      </trkpt>
      <trkpt lat="43.74424" lon="7.40006">
        <ele>474.7</ele>
        <time>2026-05-14T08:40:44Z</time>
      </trkpt>
      <trkpt lat="43.74425" lon="7.40002">
        <ele>474.2</ele>
        <time>2026-05-14T08:40:45Z</time>
      </trkpt>
      <trkpt lat="43.74427" lon="7.4">
        <ele>474</ele>
        <time>2026-05-14T08:40:46Z</time>
      </trkpt>
      <trkpt lat="43.7443" lon="7.39999">
        <ele>473.8</ele>
        <time>2026-05-14T08:40:47Z</time>
      </trkpt>
      <trkpt lat="43.74434" lon="7.39999">
        <ele>473.8</ele>
        <time>2026-05-14T08:40:48Z</time>
      </trkpt>
      <trkpt lat="43.74442" lon="7.40004">
        <ele>474.6</ele>
        <time>2026-05-14T08:40:49Z</time>
      </trkpt>
      <trkpt lat="43.74447" lon="7.40005">
        <ele>474.8</ele>
        <time>2026-05-14T08:40:50Z</time>
      </trkpt>
      <trkpt lat="43.74452" lon="7.40006">
        <ele>475.2</ele>
        <time>2026-05-14T08:40:51Z</time>
      </trkpt>
      <trkpt lat="43.74456" lon="7.40007">
        <ele>475.4</ele>
        <time>2026-05-14T08:40:52Z</time>
      </trkpt>
      <trkpt lat="43.7446" lon="7.40008">
        <ele>475.6</ele>
        <time>2026-05-14T08:40:53Z</time>
      </trkpt>
      <trkpt lat="43.74464" lon="7.40009">
        <ele>475.8</ele>
        <time>2026-05-14T08:40:54Z</time>
      </trkpt>
      <trkpt lat="43.74467" lon="7.4001">
        <ele>475.9</ele>
        <time>2026-05-14T08:40:55Z</time>
      </trkpt>
      <trkpt lat="43.7447" lon="7.4001">
        <ele>476</ele>
        <time>2026-05-14T08:40:56Z</time>
      </trkpt>
      <trkpt lat="43.74473" lon="7.40009">
        <ele>476</ele>
        <time>2026-05-14T08:40:57Z</time>
      </trkpt>
      <trkpt lat="43.74475" lon="7.40009">
        <ele>476</ele>
        <time>2026-05-14T08:40:58Z</time>
      </trkpt>
      <trkpt lat="43.74477" lon="7.40008">
        <ele>476</ele>
        <time>2026-05-14T08:40:59Z</time>
      </trkpt>
      <trkpt lat="43.74478" lon="7.40008">
        <ele>476.1</ele>
        <time>2026-05-14T08:41:00Z</time>
      </trkpt>
      <trkpt lat="43.74478" lon="7.40007">
        <ele>476.1</ele>
        <time>2026-05-14T08:41:01Z</time>
      </trkpt>
      <trkpt lat="43.74477" lon="7.40007">
        <ele>476</ele>
        <time>2026-05-14T08:41:02Z</time>
      </trkpt>
      <trkpt lat="43.74477" lon="7.40007">
        <ele>476</ele>
        <time>2026-05-14T08:41:03Z</time>
      </trkpt>
      <trkpt lat="43.74478" lon="7.40007">
        <ele>476.1</ele>
        <time>2026-05-14T08:41:04Z</time>
      </trkpt>
      <trkpt lat="43.74479" lon="7.40007">
        <ele>476.1</ele>
        <time>2026-05-14T08:41:05Z</time>
      </trkpt>
      <trkpt lat="43.74481" lon="7.40004">
        <ele>476</ele>
        <time>2026-05-14T08:41:06Z</time>
      </trkpt>
      <trkpt lat="43.74483" lon="7.40001">
        <ele>476</ele>
        <time>2026-05-14T08:41:07Z</time>
      </trkpt>
      <trkpt lat="43.74484" lon="7.39997">
        <ele>476</ele>
        <time>2026-05-14T08:41:08Z</time>
      </trkpt>
      <trkpt lat="43.74485" lon="7.39993">
        <ele>476</ele>
        <time>2026-05-14T08:41:09Z</time>
      </trkpt>
      <trkpt lat="43.74486" lon="7.39989">
        <ele>476</ele>
        <time>2026-05-14T08:41:10Z</time>
      </trkpt>
      <trkpt lat="43.74486" lon="7.39985">
        <ele>476</ele>
        <time>2026-05-14T08:41:11Z</time>
      </trkpt>
      <trkpt lat="43.74488" lon="7.39983">
        <ele>476</ele>
        <time>2026-05-14T08:41:12Z</time>
      </trkpt>
      <trkpt lat="43.74491" lon="7.39981">
        <ele>476</ele>
        <time>2026-05-14T08:41:13Z</time>
      </trkpt>
      <trkpt lat="43.74493" lon="7.39981">
        <ele>476</ele>
        <time>2026-05-14T08:41:14Z</time>
      </trkpt>
      <trkpt lat="43.74496" lon="7.39983">
        <ele>476</ele>
        <time>2026-05-14T08:41:15Z</time>
      </trkpt>
      <trkpt lat="43.74498" lon="7.39985">
        <ele>476</ele>
        <time>2026-05-14T08:41:16Z</time>
      </trkpt>
      <trkpt lat="43.74499" lon="7.39986">
        <ele>476</ele>
        <time>2026-05-14T08:41:17Z</time>
      </trkpt>
      <trkpt lat="43.745" lon="7.39987">
        <ele>476</ele>
        <time>2026-05-14T08:41:18Z</time>
      </trkpt>
      <trkpt lat="43.745" lon="7.39988">
        <ele>476</ele>
        <time>2026-05-14T08:41:19Z</time>
      </trkpt>
      <trkpt lat="43.745" lon="7.39988">
        <ele>476</ele>
        <time>2026-05-14T08:41:20Z</time>
      </trkpt>
      <trkpt lat="43.745" lon="7.39988">
        <ele>476</ele>
        <time>2026-05-14T08:41:21Z</time>
      </trkpt>
      <trkpt lat="43.745" lon="7.39988">
        <ele>476</ele>
        <time>2026-05-14T08:41:22Z</time>
      </trkpt>
      <trkpt lat="43.745" lon="7.39987">
        <ele>476</ele>
        <time>2026-05-14T08:41:23Z</time>
      </trkpt>
      <trkpt lat="43.74501" lon="7.39987">
        <ele>476.1</ele>
        <time>2026-05-14T08:41:24Z</time>
      </trkpt>
      <trkpt lat="43.74501" lon="7.39987">
        <ele>476.1</ele>
        <time>2026-05-14T08:41:25Z</time>
      </trkpt>
      <trkpt lat="43.74501" lon="7.39987">
        <ele>476.1</ele>
        <time>2026-05-14T08:41:26Z</time>
      </trkpt>
      <trkpt lat="43.74501" lon="7.39987">
        <ele>476.1</ele>
        <time>2026-05-14T08:41:27Z</time>
      </trkpt>
      <trkpt lat="43.74501" lon="7.39986">
        <ele>476.1</ele>
        <time>2026-05-14T08:41:28Z</time>
      </trkpt>
      <trkpt lat="43.74501" lon="7.39986">
        <ele>476.1</ele>
        <time>2026-05-14T08:41:29Z</time>
      </trkpt>
      <trkpt lat="43.74501" lon="7.39986">
        <ele>476.1</ele>
        <time>2026-05-14T08:41:30Z</time>
      </trkpt>
      <trkpt lat="43.74501" lon="7.39986">
        <ele>476.1</ele>
        <time>2026-05-14T08:41:31Z</time>
      </trkpt>
      <trkpt lat="43.74501" lon="7.39986">
        <ele>476.1</ele>
        <time>2026-05-14T08:41:32Z</time>
      </trkpt>
      <trkpt lat="43.74501" lon="7.39986">
        <ele>476.1</ele>
        <time>2026-05-14T08:41:33Z</time>
      </trkpt>
      <trkpt lat="43.74501" lon="7.39986">
        <ele>476.1</ele>
        <time>2026-05-14T08:41:34Z</time>
      </trkpt>
      <trkpt lat="43.74501" lon="7.39986">
        <ele>476.1</ele>
        <time>2026-05-14T08:41:35Z</time>
      </trkpt>
      <trkpt lat="43.74501" lon="7.39986">
        <ele>476.1</ele>
        <time>2026-05-14T08:41:36Z</time>
      </trkpt>
      <trkpt lat="43.74501" lon="7.39986">
        <ele>476.1</ele>
        <time>2026-05-14T08:41:37Z</time>
      </trkpt>
      <trkpt lat="43.74501" lon="7.39986">
        <ele>476.1</ele>
        <time>2026-05-14T08:41:38Z</time>
      </trkpt>
      <trkpt lat="43.74501" lon="7.39986">
        <ele>476.1</ele>
        <time>2026-05-14T08:41:39Z</time>
      </trkpt>
      <trkpt lat="43.74501" lon="7.39986">
        <ele>476.1</ele>
        <time>2026-05-14T08:41:40Z</time>
      </trkpt>
      <trkpt lat="43.74501" lon="7.39986">
        <ele>476.1</ele>
        <time>2026-05-14T08:41:41Z</time>
      </trkpt>
      <trkpt lat="43.74501" lon="7.39986">
        <ele>476.1</ele>
        <time>2026-05-14T08:41:42Z</time>
      </trkpt>
      <trkpt lat="43.74501" lon="7.39986">
        <ele>476.1</ele>
        <time>2026-05-14T08:41:43Z</time>
      </trkpt>
      <trkpt lat="43.74502" lon="7.39987">
        <ele>476.2</ele>
        <time>2026-05-14T08:41:44Z</time>
      </trkpt>
      <trkpt lat="43.74503" lon="7.39987">
        <ele>476.3</ele>
        <time>2026-05-14T08:41:45Z</time>
      </trkpt>
      <trkpt lat="43.74503" lon="7.39988">
        <ele>476.3</ele>
        <time>2026-05-14T08:41:46Z</time>
      </trkpt>
      <trkpt lat="43.74504" lon="7.39988">
        <ele>476.4</ele>
        <time>2026-05-14T08:41:47Z</time>
      </trkpt>
      <trkpt lat="43.74504" lon="7.39988">
        <ele>476.4</ele>
        <time>2026-05-14T08:41:48Z</time>
      </trkpt>
      <trkpt lat="43.74504" lon="7.39989">
        <ele>476.4</ele>
        <time>2026-05-14T08:41:49Z</time>
      </trkpt>
      <trkpt lat="43.74504" lon="7.39989">
        <ele>476.4</ele>
        <time>2026-05-14T08:41:50Z</time>
      </trkpt>
      <trkpt lat="43.74504" lon="7.39989">
        <ele>476.4</ele>
        <time>2026-05-14T08:41:51Z</time>
      </trkpt>
      <trkpt lat="43.74504" lon="7.39989">
        <ele>476.4</ele>
        <time>2026-05-14T08:41:52Z</time>
      </trkpt>
      <trkpt lat="43.74504" lon="7.39989">
        <ele>476.4</ele>
        <time>2026-05-14T08:41:53Z</time>
      </trkpt>
      <trkpt lat="43.74504" lon="7.39989">
        <ele>476.4</ele>
        <time>2026-05-14T08:41:54Z</time>
      </trkpt>
      <trkpt lat="43.74504" lon="7.39989">
        <ele>476.4</ele>
        <time>2026-05-14T08:41:55Z</time>
      </trkpt>
      <trkpt lat="43.74504" lon="7.39989">
        <ele>476.4</ele>
        <time>2026-05-14T08:41:56Z</time>
      </trkpt>
      <trkpt lat="43.74504" lon="7.39989">
        <ele>476.4</ele>
        <time>2026-05-14T08:41:57Z</time>
      </trkpt>
      <trkpt lat="43.74504" lon="7.39989">
        <ele>476.4</ele>
        <time>2026-05-14T08:41:58Z</time>
      </trkpt>
      <trkpt lat="43.74505" lon="7.39989">
        <ele>476.5</ele>
        <time>2026-05-14T08:41:59Z</time>
      </trkpt>
      <trkpt lat="43.74505" lon="7.39989">
        <ele>476.5</ele>
        <time>2026-05-14T08:42:00Z</time>
      </trkpt>
      <trkpt lat="43.74505" lon="7.39989">
        <ele>476.5</ele>
        <time>2026-05-14T08:42:01Z</time>
      </trkpt>
      <trkpt lat="43.74505" lon="7.39989">
        <ele>476.5</ele>
        <time>2026-05-14T08:42:02Z</time>
      </trkpt>
      <trkpt lat="43.74505" lon="7.39989">
        <ele>476.5</ele>
        <time>2026-05-14T08:42:03Z</time>
      </trkpt>
      <trkpt lat="43.74505" lon="7.39989">
        <ele>476.5</ele>
        <time>2026-05-14T08:42:04Z</time>
      </trkpt>
      <trkpt lat="43.74505" lon="7.39989">
        <ele>476.5</ele>
        <time>2026-05-14T08:42:05Z</time>
      </trkpt>
      <trkpt lat="43.74505" lon="7.39989">
        <ele>476.5</ele>
        <time>2026-05-14T08:42:06Z</time>
      </trkpt>
      <trkpt lat="43.74505" lon="7.39989">
        <ele>476.5</ele>
        <time>2026-05-14T08:42:07Z</time>
      </trkpt>
      <trkpt lat="43.74505" lon="7.39989">
        <ele>476.5</ele>
        <time>2026-05-14T08:42:08Z</time>
      </trkpt>
      <trkpt lat="43.74505" lon="7.39989">
        <ele>476.5</ele>
        <time>2026-05-14T08:42:09Z</time>
      </trkpt>
      <trkpt lat="43.74505" lon="7.39989">
        <ele>476.5</ele>
        <time>2026-05-14T08:42:10Z</time>
      </trkpt>
      <trkpt lat="43.74505" lon="7.39989">
        <ele>476.5</ele>
        <time>2026-05-14T08:42:11Z</time>
      </trkpt>
      <trkpt lat="43.74505" lon="7.39989">
        <ele>476.5</ele>
        <time>2026-05-14T08:42:12Z</time>
      </trkpt>
      <trkpt lat="43.74505" lon="7.39989">
        <ele>476.5</ele>
        <time>2026-05-14T08:42:13Z</time>
      </trkpt>
      <trkpt lat="43.74505" lon="7.39989">
        <ele>476.5</ele>
        <time>2026-05-14T08:42:14Z</time>
      </trkpt>
      <trkpt lat="43.74505" lon="7.39989">
        <ele>476.5</ele>
        <time>2026-05-14T08:42:15Z</time>
      </trkpt>
      <trkpt lat="43.74505" lon="7.39989">
        <ele>476.5</ele>
        <time>2026-05-14T08:42:16Z</time>
      </trkpt>
      <trkpt lat="43.74505" lon="7.39989">
        <ele>476.5</ele>
        <time>2026-05-14T08:42:17Z</time>
      </trkpt>
      <trkpt lat="43.74505" lon="7.39989">
        <ele>476.5</ele>
        <time>2026-05-14T08:42:18Z</time>
      </trkpt>
      <trkpt lat="43.74505" lon="7.39989">
        <ele>476.5</ele>
        <time>2026-05-14T08:42:19Z</time>
      </trkpt>
      <trkpt lat="43.74505" lon="7.39989">
        <ele>476.5</ele>
        <time>2026-05-14T08:42:20Z</time>
      </trkpt>
      <trkpt lat="43.74505" lon="7.39989">
        <ele>476.5</ele>
        <time>2026-05-14T08:42:21Z</time>
      </trkpt>
      <trkpt lat="43.74505" lon="7.39989">
        <ele>476.5</ele>
        <time>2026-05-14T08:42:22Z</time>
      </trkpt>
      <trkpt lat="43.74505" lon="7.39989">
        <ele>476.5</ele>
        <time>2026-05-14T08:42:23Z</time>
      </trkpt>
      <trkpt lat="43.74505" lon="7.39989">
        <ele>476.5</ele>
        <time>2026-05-14T08:42:24Z</time>
      </trkpt>
      <trkpt lat="43.74505" lon="7.39989">
        <ele>476.5</ele>
        <time>2026-05-14T08:42:25Z</time>
      </trkpt>
      <trkpt lat="43.74505" lon="7.39989">
        <ele>476.5</ele>
        <time>2026-05-14T08:42:26Z</time>
      </trkpt>
      <trkpt lat="43.74505" lon="7.39989">
        <ele>476.5</ele>
        <time>2026-05-14T08:42:27Z</time>
      </trkpt>
      <trkpt lat="43.74505" lon="7.39989">
        <ele>476.5</ele>
        <time>2026-05-14T08:42:28Z</time>
      </trkpt>
      <trkpt lat="43.74505" lon="7.39989">
        <ele>476.5</ele>
        <time>2026-05-14T08:42:29Z</time>
      </trkpt>
      <trkpt lat="43.74505" lon="7.39989">
        <ele>476.5</ele>
        <time>2026-05-14T08:42:30Z</time>
      </trkpt>
      <trkpt lat="43.74505" lon="7.39989">
        <ele>476.5</ele>
        <time>2026-05-14T08:42:31Z</time>
      </trkpt>
      <trkpt lat="43.74505" lon="7.39989">
        <ele>476.5</ele>
        <time>2026-05-14T08:42:32Z</time>
      </trkpt>
      <trkpt lat="43.74505" lon="7.39989">
        <ele>476.5</ele>
        <time>2026-05-14T08:42:33Z</time>
      </trkpt>
      <trkpt lat="43.74505" lon="7.39989">
        <ele>476.5</ele>
        <time>2026-05-14T08:42:34Z</time>
      </trkpt>
      <trkpt lat="43.74505" lon="7.39989">
        <ele>476.5</ele>
        <time>2026-05-14T08:42:35Z</time>
      </trkpt>
      <trkpt lat="43.74505" lon="7.39989">
        <ele>476.5</ele>
        <time>2026-05-14T08:42:36Z</time>
      </trkpt>
      <trkpt lat="43.74505" lon="7.39989">
        <ele>476.5</ele>
        <time>2026-05-14T08:42:37Z</time>
      </trkpt>
      <trkpt lat="43.74505" lon="7.39989">
        <ele>476.5</ele>
        <time>2026-05-14T08:42:38Z</time>
      </trkpt>
      <trkpt lat="43.74505" lon="7.39989">
        <ele>476.5</ele>
        <time>2026-05-14T08:42:39Z</time>
      </trkpt>
      <trkpt lat="43.74505" lon="7.39989">
        <ele>476.5</ele>
        <time>2026-05-14T08:42:40Z</time>
      </trkpt>
      <trkpt lat="43.74505" lon="7.39989">
        <ele>476.5</ele>
        <time>2026-05-14T08:42:41Z</time>
      </trkpt>
      <trkpt lat="43.74505" lon="7.39989">
        <ele>476.5</ele>
        <time>2026-05-14T08:42:42Z</time>
      </trkpt>
      <trkpt lat="43.74505" lon="7.39989">
        <ele>476.5</ele>
        <time>2026-05-14T08:42:43Z</time>
      </trkpt>
      <trkpt lat="43.74505" lon="7.39989">
        <ele>476.5</ele>
        <time>2026-05-14T08:42:44Z</time>
      </trkpt>
      <trkpt lat="43.74505" lon="7.39989">
        <ele>476.5</ele>
        <time>2026-05-14T08:42:45Z</time>
      </trkpt>
      <trkpt lat="43.74505" lon="7.39989">
        <ele>476.5</ele>
        <time>2026-05-14T08:42:46Z</time>
      </trkpt>
      <trkpt lat="43.74505" lon="7.39989">
        <ele>476.5</ele>
        <time>2026-05-14T08:42:47Z</time>
      </trkpt>
      <trkpt lat="43.74505" lon="7.39989">
        <ele>476.5</ele>
        <time>2026-05-14T08:42:48Z</time>
      </trkpt>
      <trkpt lat="43.74505" lon="7.39989">
        <ele>476.5</ele>
        <time>2026-05-14T08:42:49Z</time>
      </trkpt>
      <trkpt lat="43.74505" lon="7.39989">
        <ele>476.5</ele>
        <time>2026-05-14T08:42:50Z</time>
      </trkpt>
      <trkpt lat="43.74505" lon="7.39989">
        <ele>476.5</ele>
        <time>2026-05-14T08:42:51Z</time>
      </trkpt>
      <trkpt lat="43.74505" lon="7.39989">
        <ele>476.5</ele>
        <time>2026-05-14T08:42:52Z</time>
      </trkpt>
      <trkpt lat="43.74505" lon="7.39989">
        <ele>476.5</ele>
        <time>2026-05-14T08:42:53Z</time>
      </trkpt>
      <trkpt lat="43.74505" lon="7.39989">
        <ele>476.5</ele>
        <time>2026-05-14T08:42:54Z</time>
      </trkpt>
      <trkpt lat="43.74505" lon="7.39989">
        <ele>476.5</ele>
        <time>2026-05-14T08:42:55Z</time>
      </trkpt>
      <trkpt lat="43.74505" lon="7.39989">
        <ele>476.5</ele>
        <time>2026-05-14T08:42:56Z</time>
      </trkpt>
      <trkpt lat="43.74505" lon="7.39989">
        <ele>476.5</ele>
        <time>2026-05-14T08:42:57Z</time>
      </trkpt>
      <trkpt lat="43.74505" lon="7.39989">
        <ele>476.5</ele>
        <time>2026-05-14T08:42:58Z</time>
      </trkpt>
      <trkpt lat="43.74505" lon="7.39989">
        <ele>476.5</ele>
        <time>2026-05-14T08:42:59Z</time>
      </trkpt>
      <trkpt lat="43.74505" lon="7.39989">
        <ele>476.5</ele>
        <time>2026-05-14T08:43:00Z</time>
      </trkpt>
      <trkpt lat="43.74505" lon="7.39989">
        <ele>476.5</ele>
        <time>2026-05-14T08:43:01Z</time>
      </trkpt>
      <trkpt lat="43.74505" lon="7.39989">
        <ele>476.5</ele>
        <time>2026-05-14T08:43:02Z</time>
      </trkpt>
      <trkpt lat="43.74505" lon="7.39989">
        <ele>476.5</ele>
        <time>2026-05-14T08:43:03Z</time>
      </trkpt>
      <trkpt lat="43.74505" lon="7.39989">
        <ele>476.5</ele>
        <time>2026-05-14T08:43:04Z</time>
      </trkpt>
      <trkpt lat="43.74505" lon="7.39989">
        <ele>476.5</ele>
        <time>2026-05-14T08:43:05Z</time>
      </trkpt>
      <trkpt lat="43.74505" lon="7.39989">
        <ele>476.5</ele>
        <time>2026-05-14T08:43:06Z</time>
      </trkpt>
      <trkpt lat="43.74505" lon="7.39989">
        <ele>476.5</ele>
        <time>2026-05-14T08:43:07Z</time>
      </trkpt>
      <trkpt lat="43.74505" lon="7.39989">
        <ele>476.5</ele>
        <time>2026-05-14T08:43:08Z</time>
      </trkpt>
      <trkpt lat="43.74505" lon="7.39989">
        <ele>476.5</ele>
        <time>2026-05-14T08:43:09Z</time>
      </trkpt>
      <trkpt lat="43.74505" lon="7.39989">
        <ele>476.5</ele>
        <time>2026-05-14T08:43:10Z</time>
      </trkpt>
      <trkpt lat="43.74505" lon="7.39989">
        <ele>476.5</ele>
        <time>2026-05-14T08:43:11Z</time>
      </trkpt>
      <trkpt lat="43.74505" lon="7.39989">
        <ele>476.5</ele>
        <time>2026-05-14T08:43:12Z</time>
      </trkpt>
      <trkpt lat="43.74505" lon="7.39989">
        <ele>476.5</ele>
        <time>2026-05-14T08:43:13Z</time>
      </trkpt>
      <trkpt lat="43.74505" lon="7.39989">
        <ele>476.5</ele>
        <time>2026-05-14T08:43:14Z</time>
      </trkpt>
      <trkpt lat="43.74505" lon="7.39989">
        <ele>476.5</ele>
        <time>2026-05-14T08:43:15Z</time>
      </trkpt>
      <trkpt lat="43.74505" lon="7.39989">
        <ele>476.5</ele>
        <time>2026-05-14T08:43:16Z</time>
      </trkpt>
      <trkpt lat="43.74505" lon="7.39989">
        <ele>476.5</ele>
        <time>2026-05-14T08:43:17Z</time>
      </trkpt>
      <trkpt lat="43.74505" lon="7.39989">
        <ele>476.5</ele>
        <time>2026-05-14T08:43:18Z</time>
      </trkpt>
      <trkpt lat="43.74505" lon="7.39989">
        <ele>476.5</ele>
        <time>2026-05-14T08:43:19Z</time>
      </trkpt>
      <trkpt lat="43.74505" lon="7.39989">
        <ele>476.5</ele>
        <time>2026-05-14T08:43:20Z</time>
      </trkpt>
      <trkpt lat="43.74505" lon="7.39989">
        <ele>476.5</ele>
        <time>2026-05-14T08:43:21Z</time>
      </trkpt>
      <trkpt lat="43.74505" lon="7.39989">
        <ele>476.5</ele>
        <time>2026-05-14T08:43:22Z</time>
      </trkpt>
      <trkpt lat="43.74505" lon="7.39989">
        <ele>476.5</ele>
        <time>2026-05-14T08:43:23Z</time>
      </trkpt>
      <trkpt lat="43.74505" lon="7.39989">
        <ele>476.5</ele>
        <time>2026-05-14T08:43:24Z</time>
      </trkpt>
      <trkpt lat="43.74505" lon="7.39989">
        <ele>476.5</ele>
        <time>2026-05-14T08:43:25Z</time>
      </trkpt>
      <trkpt lat="43.74505" lon="7.39989">
        <ele>476.5</ele>
        <time>2026-05-14T08:43:26Z</time>
      </trkpt>
      <trkpt lat="43.74505" lon="7.39989">
        <ele>476.5</ele>
        <time>2026-05-14T08:43:27Z</time>
      </trkpt>
      <trkpt lat="43.74505" lon="7.39989">
        <ele>476.5</ele>
        <time>2026-05-14T08:43:28Z</time>
      </trkpt>
      <trkpt lat="43.74505" lon="7.39989">
        <ele>476.5</ele>
        <time>2026-05-14T08:43:29Z</time>
      </trkpt>
      <trkpt lat="43.74505" lon="7.39989">
        <ele>476.5</ele>
        <time>2026-05-14T08:43:30Z</time>
      </trkpt>
      <trkpt lat="43.74505" lon="7.39989">
        <ele>476.5</ele>
        <time>2026-05-14T08:43:31Z</time>
      </trkpt>
      <trkpt lat="43.74505" lon="7.39989">
        <ele>476.5</ele>
        <time>2026-05-14T08:43:32Z</time>
      </trkpt>
      <trkpt lat="43.74505" lon="7.39989">
        <ele>476.5</ele>
        <time>2026-05-14T08:43:33Z</time>
      </trkpt>
      <trkpt lat="43.74505" lon="7.39989">
        <ele>476.5</ele>
        <time>2026-05-14T08:43:34Z</time>
      </trkpt>
      <trkpt lat="43.74505" lon="7.39989">
        <ele>476.5</ele>
        <time>2026-05-14T08:43:35Z</time>
      </trkpt>
      <trkpt lat="43.74505" lon="7.39989">
        <ele>476.5</ele>
        <time>2026-05-14T08:43:36Z</time>
      </trkpt>
      <trkpt lat="43.74505" lon="7.39989">
        <ele>476.5</ele>
        <time>2026-05-14T08:43:37Z</time>
      </trkpt>
      <trkpt lat="43.74505" lon="7.39989">
        <ele>476.5</ele>
        <time>2026-05-14T08:43:38Z</time>
      </trkpt>
      <trkpt lat="43.74505" lon="7.39989">
        <ele>476.5</ele>
        <time>2026-05-14T08:43:39Z</time>
      </trkpt>
      <trkpt lat="43.74505" lon="7.39989">
        <ele>476.5</ele>
        <time>2026-05-14T08:43:40Z</time>
      </trkpt>
      <trkpt lat="43.74505" lon="7.39989">
        <ele>476.5</ele>
        <time>2026-05-14T08:43:41Z</time>
      </trkpt>
      <trkpt lat="43.74505" lon="7.39989">
        <ele>476.5</ele>
        <time>2026-05-14T08:43:42Z</time>
      </trkpt>
      <trkpt lat="43.74505" lon="7.39989">
        <ele>476.5</ele>
        <time>2026-05-14T08:43:43Z</time>
      </trkpt>
      <trkpt lat="43.74505" lon="7.39989">
        <ele>476.5</ele>
        <time>2026-05-14T08:43:44Z</time>
      </trkpt>
      <trkpt lat="43.74505" lon="7.39989">
        <ele>476.5</ele>
        <time>2026-05-14T08:43:45Z</time>
      </trkpt>
      <trkpt lat="43.74505" lon="7.39989">
        <ele>476.5</ele>
        <time>2026-05-14T08:43:46Z</time>
      </trkpt>
      <trkpt lat="43.74505" lon="7.39989">
        <ele>476.5</ele>
        <time>2026-05-14T08:43:47Z</time>
      </trkpt>
      <trkpt lat="43.74505" lon="7.39989">
        <ele>476.5</ele>
        <time>2026-05-14T08:43:48Z</time>
      </trkpt>
      <trkpt lat="43.74505" lon="7.39989">
        <ele>476.5</ele>
        <time>2026-05-14T08:43:49Z</time>
      </trkpt>
      <trkpt lat="43.74505" lon="7.39989">
        <ele>476.5</ele>
        <time>2026-05-14T08:43:50Z</time>
      </trkpt>
      <trkpt lat="43.74505" lon="7.39989">
        <ele>476.5</ele>
        <time>2026-05-14T08:43:51Z</time>
      </trkpt>
      <trkpt lat="43.74505" lon="7.39989">
        <ele>476.5</ele>
        <time>2026-05-14T08:43:52Z</time>
      </trkpt>
      <trkpt lat="43.74512" lon="7.40002">
        <ele>477.7</ele>
        <time>2026-05-14T08:44:54Z</time>
      </trkpt>
      <trkpt lat="43.74513" lon="7.40001">
        <ele>477.9</ele>
        <time>2026-05-14T08:44:55Z</time>
      </trkpt>
      <trkpt lat="43.74507" lon="7.39999">
        <ele>477</ele>
        <time>2026-05-14T08:44:56Z</time>
      </trkpt>
      <trkpt lat="43.74505" lon="7.39989">
        <ele>476.5</ele>
        <time>2026-05-14T08:44:57Z</time>
      </trkpt>
      <trkpt lat="43.74505" lon="7.39989">
        <ele>476.5</ele>
        <time>2026-05-14T08:44:58Z</time>
      </trkpt>
      <trkpt lat="43.74505" lon="7.39989">
        <ele>476.5</ele>
        <time>2026-05-14T08:44:59Z</time>
      </trkpt>
      <trkpt lat="43.74505" lon="7.39989">
        <ele>476.5</ele>
        <time>2026-05-14T08:45:00Z</time>
      </trkpt>
      <trkpt lat="43.74504" lon="7.39989">
        <ele>476.4</ele>
        <time>2026-05-14T08:45:01Z</time>
      </trkpt>
      <trkpt lat="43.74504" lon="7.39989">
        <ele>476.4</ele>
        <time>2026-05-14T08:45:02Z</time>
      </trkpt>
      <trkpt lat="43.74504" lon="7.39989">
        <ele>476.4</ele>
        <time>2026-05-14T08:45:03Z</time>
      </trkpt>
      <trkpt lat="43.74504" lon="7.39989">
        <ele>476.4</ele>
        <time>2026-05-14T08:45:04Z</time>
      </trkpt>
      <trkpt lat="43.74504" lon="7.39989">
        <ele>476.4</ele>
        <time>2026-05-14T08:45:05Z</time>
      </trkpt>
      <trkpt lat="43.74505" lon="7.39989">
        <ele>476.5</ele>
        <time>2026-05-14T08:45:06Z</time>
      </trkpt>
      <trkpt lat="43.74505" lon="7.39989">
        <ele>476.5</ele>
        <time>2026-05-14T08:45:07Z</time>
      </trkpt>
      <trkpt lat="43.74505" lon="7.39989">
        <ele>476.5</ele>
        <time>2026-05-14T08:45:08Z</time>
      </trkpt>
      <trkpt lat="43.74505" lon="7.39989">
        <ele>476.5</ele>
        <time>2026-05-14T08:45:09Z</time>
      </trkpt>
      <trkpt lat="43.74505" lon="7.39989">
        <ele>476.5</ele>
        <time>2026-05-14T08:45:10Z</time>
      </trkpt>
      <trkpt lat="43.74505" lon="7.39989">
        <ele>476.5</ele>
        <time>2026-05-14T08:45:11Z</time>
      </trkpt>
      <trkpt lat="43.74505" lon="7.39989">
        <ele>476.5</ele>
        <time>2026-05-14T08:45:12Z</time>
      </trkpt>
      <trkpt lat="43.74505" lon="7.39989">
        <ele>476.5</ele>
        <time>2026-05-14T08:45:13Z</time>
      </trkpt>
      <trkpt lat="43.74505" lon="7.39989">
        <ele>476.5</ele>
        <time>2026-05-14T08:45:14Z</time>
      </trkpt>
      <trkpt lat="43.74505" lon="7.39989">
        <ele>476.5</ele>
        <time>2026-05-14T08:45:15Z</time>
      </trkpt>
      <trkpt lat="43.74505" lon="7.39989">
        <ele>476.5</ele>
        <time>2026-05-14T08:45:16Z</time>
      </trkpt>
      <trkpt lat="43.74505" lon="7.39989">
        <ele>476.5</ele>
        <time>2026-05-14T08:45:17Z</time>
      </trkpt>
      <trkpt lat="43.74505" lon="7.39989">
        <ele>476.5</ele>
        <time>2026-05-14T08:45:18Z</time>
      </trkpt>
      <trkpt lat="43.74505" lon="7.39989">
        <ele>476.5</ele>
        <time>2026-05-14T08:45:19Z</time>
      </trkpt>
      <trkpt lat="43.74505" lon="7.39989">
        <ele>476.5</ele>
        <time>2026-05-14T08:45:20Z</time>
      </trkpt>
      <trkpt lat="43.74505" lon="7.39989">
        <ele>476.5</ele>
        <time>2026-05-14T08:45:21Z</time>
      </trkpt>
      <trkpt lat="43.74505" lon="7.39989">
        <ele>476.5</ele>
        <time>2026-05-14T08:45:22Z</time>
      </trkpt>
      <trkpt lat="43.74505" lon="7.39989">
        <ele>476.5</ele>
        <time>2026-05-14T08:45:23Z</time>
      </trkpt>
      <trkpt lat="43.74505" lon="7.39989">
        <ele>476.5</ele>
        <time>2026-05-14T08:45:24Z</time>
      </trkpt>
      <trkpt lat="43.74505" lon="7.39989">
        <ele>476.5</ele>
        <time>2026-05-14T08:45:25Z</time>
      </trkpt>
      <trkpt lat="43.74505" lon="7.39989">
        <ele>476.5</ele>
        <time>2026-05-14T08:45:26Z</time>
      </trkpt>
      <trkpt lat="43.74505" lon="7.39989">
        <ele>476.5</ele>
        <time>2026-05-14T08:45:27Z</time>
      </trkpt>
      <trkpt lat="43.74505" lon="7.39989">
        <ele>476.5</ele>
        <time>2026-05-14T08:45:28Z</time>
      </trkpt>
      <trkpt lat="43.74505" lon="7.39989">
        <ele>476.5</ele>
        <time>2026-05-14T08:45:29Z</time>
      </trkpt>
      <trkpt lat="43.74505" lon="7.39989">
        <ele>476.5</ele>
        <time>2026-05-14T08:45:30Z</time>
      </trkpt>
      <trkpt lat="43.74505" lon="7.39989">
        <ele>476.5</ele>
        <time>2026-05-14T08:45:31Z</time>
      </trkpt>
      <trkpt lat="43.74505" lon="7.39989">
        <ele>476.5</ele>
        <time>2026-05-14T08:45:32Z</time>
      </trkpt>
      <trkpt lat="43.74505" lon="7.39989">
        <ele>476.5</ele>
        <time>2026-05-14T08:45:33Z</time>
      </trkpt>
      <trkpt lat="43.74505" lon="7.39989">
        <ele>476.5</ele>
        <time>2026-05-14T08:45:34Z</time>
      </trkpt>
      <trkpt lat="43.74505" lon="7.39989">
        <ele>476.5</ele>
        <time>2026-05-14T08:45:35Z</time>
      </trkpt>
      <trkpt lat="43.74505" lon="7.39989">
        <ele>476.5</ele>
        <time>2026-05-14T08:45:36Z</time>
      </trkpt>
      <trkpt lat="43.74505" lon="7.39989">
        <ele>476.5</ele>
        <time>2026-05-14T08:45:37Z</time>
      </trkpt>
      <trkpt lat="43.74505" lon="7.39989">
        <ele>476.5</ele>
        <time>2026-05-14T08:45:38Z</time>
      </trkpt>
      <trkpt lat="43.74505" lon="7.39989">
        <ele>476.5</ele>
        <time>2026-05-14T08:45:39Z</time>
      </trkpt>
      <trkpt lat="43.74505" lon="7.39989">
        <ele>476.5</ele>
        <time>2026-05-14T08:45:40Z</time>
      </trkpt>
      <trkpt lat="43.74505" lon="7.39989">
        <ele>476.5</ele>
        <time>2026-05-14T08:45:41Z</time>
      </trkpt>
      <trkpt lat="43.74505" lon="7.39989">
        <ele>476.5</ele>
        <time>2026-05-14T08:45:42Z</time>
      </trkpt>
      <trkpt lat="43.74505" lon="7.39989">
        <ele>476.5</ele>
        <time>2026-05-14T08:45:43Z</time>
      </trkpt>
      <trkpt lat="43.74505" lon="7.39989">
        <ele>476.5</ele>
        <time>2026-05-14T08:45:44Z</time>
      </trkpt>
      <trkpt lat="43.74505" lon="7.39989">
        <ele>476.5</ele>
        <time>2026-05-14T08:45:45Z</time>
      </trkpt>
      <trkpt lat="43.74505" lon="7.39989">
        <ele>476.5</ele>
        <time>2026-05-14T08:45:46Z</time>
      </trkpt>
      <trkpt lat="43.74505" lon="7.39989">
        <ele>476.5</ele>
        <time>2026-05-14T08:45:47Z</time>
      </trkpt>
      <trkpt lat="43.74505" lon="7.39989">
        <ele>476.5</ele>
        <time>2026-05-14T08:45:48Z</time>
      </trkpt>
      <trkpt lat="43.74505" lon="7.39989">
        <ele>476.5</ele>
        <time>2026-05-14T08:45:49Z</time>
      </trkpt>
      <trkpt lat="43.74505" lon="7.39989">
        <ele>476.5</ele>
        <time>2026-05-14T08:45:50Z</time>
      </trkpt>
      <trkpt lat="43.74505" lon="7.39989">
        <ele>476.5</ele>
        <time>2026-05-14T08:45:51Z</time>
      </trkpt>
      <trkpt lat="43.74505" lon="7.39989">
        <ele>476.5</ele>
        <time>2026-05-14T08:45:52Z</time>
      </trkpt>
      <trkpt lat="43.74505" lon="7.39989">
        <ele>476.5</ele>
        <time>2026-05-14T08:45:53Z</time>
      </trkpt>
      <trkpt lat="43.74505" lon="7.39989">
        <ele>476.5</ele>
        <time>2026-05-14T08:45:54Z</time>
      </trkpt>
      <trkpt lat="43.74505" lon="7.39989">
        <ele>476.5</ele>
        <time>2026-05-14T08:45:55Z</time>
      </trkpt>
      <trkpt lat="43.74505" lon="7.39989">
        <ele>476.5</ele>
        <time>2026-05-14T08:45:56Z</time>
      </trkpt>
      <trkpt lat="43.74505" lon="7.39989">
        <ele>476.5</ele>
        <time>2026-05-14T08:45:57Z</time>
      </trkpt>
      <trkpt lat="43.74505" lon="7.39989">
        <ele>476.5</ele>
        <time>2026-05-14T08:45:58Z</time>
      </trkpt>
      <trkpt lat="43.74505" lon="7.39989">
        <ele>476.5</ele>
        <time>2026-05-14T08:45:59Z</time>
      </trkpt>
      <trkpt lat="43.74505" lon="7.39989">
        <ele>476.5</ele>
        <time>2026-05-14T08:46:00Z</time>
      </trkpt>
      <trkpt lat="43.74506" lon="7.39988">
        <ele>476.6</ele>
        <time>2026-05-14T08:57:20Z</time>
      </trkpt>
      <trkpt lat="43.74507" lon="7.39988">
        <ele>476.7</ele>
        <time>2026-05-14T08:57:21Z</time>
      </trkpt>
      <trkpt lat="43.74508" lon="7.39987">
        <ele>476.7</ele>
        <time>2026-05-14T08:57:22Z</time>
      </trkpt>
      <trkpt lat="43.74507" lon="7.39987">
        <ele>476.7</ele>
        <time>2026-05-14T08:57:23Z</time>
      </trkpt>
      <trkpt lat="43.74508" lon="7.39987">
        <ele>476.7</ele>
        <time>2026-05-14T08:57:24Z</time>
      </trkpt>
      <trkpt lat="43.74509" lon="7.39986">
        <ele>476.8</ele>
        <time>2026-05-14T08:57:25Z</time>
      </trkpt>
      <trkpt lat="43.7451" lon="7.39982">
        <ele>476.7</ele>
        <time>2026-05-14T08:57:26Z</time>
      </trkpt>
      <trkpt lat="43.74509" lon="7.39983">
        <ele>476.7</ele>
        <time>2026-05-14T08:57:27Z</time>
      </trkpt>
      <trkpt lat="43.74509" lon="7.39981">
        <ele>476.6</ele>
        <time>2026-05-14T08:57:28Z</time>
      </trkpt>
      <trkpt lat="43.74509" lon="7.39983">
        <ele>476.7</ele>
        <time>2026-05-14T08:57:29Z</time>
      </trkpt>
      <trkpt lat="43.74509" lon="7.39983">
        <ele>476.7</ele>
        <time>2026-05-14T08:57:30Z</time>
      </trkpt>
      <trkpt lat="43.74508" lon="7.39985">
        <ele>476.7</ele>
        <time>2026-05-14T08:57:31Z</time>
      </trkpt>
      <trkpt lat="43.74508" lon="7.39985">
        <ele>476.7</ele>
        <time>2026-05-14T08:57:32Z</time>
      </trkpt>
      <trkpt lat="43.74508" lon="7.39986">
        <ele>476.7</ele>
        <time>2026-05-14T08:57:33Z</time>
      </trkpt>
      <trkpt lat="43.74508" lon="7.39986">
        <ele>476.7</ele>
        <time>2026-05-14T08:57:34Z</time>
      </trkpt>
      <trkpt lat="43.74508" lon="7.39986">
        <ele>476.7</ele>
        <time>2026-05-14T08:57:35Z</time>
      </trkpt>
      <trkpt lat="43.74508" lon="7.39986">
        <ele>476.7</ele>
        <time>2026-05-14T08:57:36Z</time>
      </trkpt>
      <trkpt lat="43.74508" lon="7.39986">
        <ele>476.7</ele>
        <time>2026-05-14T08:57:37Z</time>
      </trkpt>
      <trkpt lat="43.74508" lon="7.39986">
        <ele>476.7</ele>
        <time>2026-05-14T08:57:38Z</time>
      </trkpt>
      <trkpt lat="43.74508" lon="7.39987">
        <ele>476.7</ele>
        <time>2026-05-14T08:57:39Z</time>
      </trkpt>
      <trkpt lat="43.74508" lon="7.39987">
        <ele>476.7</ele>
        <time>2026-05-14T08:57:40Z</time>
      </trkpt>
      <trkpt lat="43.74508" lon="7.39987">
        <ele>476.7</ele>
        <time>2026-05-14T08:57:41Z</time>
      </trkpt>
      <trkpt lat="43.74508" lon="7.39987">
        <ele>476.7</ele>
        <time>2026-05-14T08:57:42Z</time>
      </trkpt>
      <trkpt lat="43.74508" lon="7.39987">
        <ele>476.7</ele>
        <time>2026-05-14T08:57:43Z</time>
      </trkpt>
      <trkpt lat="43.74508" lon="7.39987">
        <ele>476.7</ele>
        <time>2026-05-14T08:57:44Z</time>
      </trkpt>
      <trkpt lat="43.74508" lon="7.39987">
        <ele>476.7</ele>
        <time>2026-05-14T08:57:45Z</time>
      </trkpt>
      <trkpt lat="43.74508" lon="7.39987">
        <ele>476.7</ele>
        <time>2026-05-14T08:57:46Z</time>
      </trkpt>
      <trkpt lat="43.74508" lon="7.39987">
        <ele>476.7</ele>
        <time>2026-05-14T08:57:47Z</time>
      </trkpt>
      <trkpt lat="43.74508" lon="7.39987">
        <ele>476.7</ele>
        <time>2026-05-14T08:57:48Z</time>
      </trkpt>
      <trkpt lat="43.74508" lon="7.39987">
        <ele>476.7</ele>
        <time>2026-05-14T08:57:49Z</time>
      </trkpt>
      <trkpt lat="43.74508" lon="7.39987">
        <ele>476.7</ele>
        <time>2026-05-14T08:57:50Z</time>
      </trkpt>
      <trkpt lat="43.74508" lon="7.39987">
        <ele>476.7</ele>
        <time>2026-05-14T08:57:51Z</time>
      </trkpt>
      <trkpt lat="43.74508" lon="7.39987">
        <ele>476.7</ele>
        <time>2026-05-14T08:57:52Z</time>
      </trkpt>
      <trkpt lat="43.74508" lon="7.39987">
        <ele>476.7</ele>
        <time>2026-05-14T08:57:53Z</time>
      </trkpt>
      <trkpt lat="43.74507" lon="7.39988">
        <ele>476.7</ele>
        <time>2026-05-14T08:57:54Z</time>
      </trkpt>
      <trkpt lat="43.74508" lon="7.39989">
        <ele>476.8</ele>
        <time>2026-05-14T08:57:55Z</time>
      </trkpt>
      <trkpt lat="43.7451" lon="7.3999">
        <ele>477.1</ele>
        <time>2026-05-14T08:57:56Z</time>
      </trkpt>
      <trkpt lat="43.74511" lon="7.39992">
        <ele>477.2</ele>
        <time>2026-05-14T08:57:57Z</time>
      </trkpt>
      <trkpt lat="43.74514" lon="7.39993">
        <ele>477.6</ele>
        <time>2026-05-14T08:57:58Z</time>
      </trkpt>
      <trkpt lat="43.74517" lon="7.39992">
        <ele>477.9</ele>
        <time>2026-05-14T08:57:59Z</time>
      </trkpt>
      <trkpt lat="43.74519" lon="7.39989">
        <ele>477.9</ele>
        <time>2026-05-14T08:58:00Z</time>
      </trkpt>
      <trkpt lat="43.7452" lon="7.39984">
        <ele>477.6</ele>
        <time>2026-05-14T08:58:01Z</time>
      </trkpt>
      <trkpt lat="43.74521" lon="7.39978">
        <ele>477.2</ele>
        <time>2026-05-14T08:58:02Z</time>
      </trkpt>
      <trkpt lat="43.74521" lon="7.39972">
        <ele>476.8</ele>
        <time>2026-05-14T08:58:03Z</time>
      </trkpt>
      <trkpt lat="43.74522" lon="7.39966">
        <ele>476.7</ele>
        <time>2026-05-14T08:58:04Z</time>
      </trkpt>
      <trkpt lat="43.74523" lon="7.39961">
        <ele>476.8</ele>
        <time>2026-05-14T08:58:05Z</time>
      </trkpt>
      <trkpt lat="43.74523" lon="7.39955">
        <ele>476.7</ele>
        <time>2026-05-14T08:58:06Z</time>
      </trkpt>
      <trkpt lat="43.74524" lon="7.39949">
        <ele>476.8</ele>
        <time>2026-05-14T08:58:07Z</time>
      </trkpt>
      <trkpt lat="43.74524" lon="7.39944">
        <ele>476.7</ele>
        <time>2026-05-14T08:58:08Z</time>
      </trkpt>
      <trkpt lat="43.74524" lon="7.39939">
        <ele>476.8</ele>
        <time>2026-05-14T08:58:09Z</time>
      </trkpt>
      <trkpt lat="43.74525" lon="7.39936">
        <ele>476.9</ele>
        <time>2026-05-14T08:58:10Z</time>
      </trkpt>
      <trkpt lat="43.74525" lon="7.39934">
        <ele>477</ele>
        <time>2026-05-14T08:58:11Z</time>
      </trkpt>
      <trkpt lat="43.74526" lon="7.39932">
        <ele>477.1</ele>
        <time>2026-05-14T08:58:12Z</time>
      </trkpt>
      <trkpt lat="43.74526" lon="7.39931">
        <ele>477.2</ele>
        <time>2026-05-14T08:58:13Z</time>
      </trkpt>
      <trkpt lat="43.74526" lon="7.3993">
        <ele>477.2</ele>
        <time>2026-05-14T08:58:14Z</time>
      </trkpt>
      <trkpt lat="43.74527" lon="7.39931">
        <ele>477.3</ele>
        <time>2026-05-14T08:58:15Z</time>
      </trkpt>
      <trkpt lat="43.74527" lon="7.39931">
        <ele>477.3</ele>
        <time>2026-05-14T08:58:16Z</time>
      </trkpt>
      <trkpt lat="43.74528" lon="7.39931">
        <ele>477.5</ele>
        <time>2026-05-14T08:58:17Z</time>
      </trkpt>
      <trkpt lat="43.74528" lon="7.39931">
        <ele>477.5</ele>
        <time>2026-05-14T08:58:18Z</time>
      </trkpt>
      <trkpt lat="43.74528" lon="7.39931">
        <ele>477.5</ele>
        <time>2026-05-14T08:58:19Z</time>
      </trkpt>
      <trkpt lat="43.74528" lon="7.39931">
        <ele>477.5</ele>
        <time>2026-05-14T08:58:20Z</time>
      </trkpt>
      <trkpt lat="43.74528" lon="7.39931">
        <ele>477.5</ele>
        <time>2026-05-14T08:58:21Z</time>
      </trkpt>
      <trkpt lat="43.74528" lon="7.39931">
        <ele>477.5</ele>
        <time>2026-05-14T08:58:22Z</time>
      </trkpt>
      <trkpt lat="43.74528" lon="7.39929">
        <ele>477.6</ele>
        <time>2026-05-14T08:58:23Z</time>
      </trkpt>
      <trkpt lat="43.74529" lon="7.39926">
        <ele>477.9</ele>
        <time>2026-05-14T08:58:24Z</time>
      </trkpt>
      <trkpt lat="43.74529" lon="7.39924">
        <ele>478</ele>
        <time>2026-05-14T08:58:25Z</time>
      </trkpt>
      <trkpt lat="43.74529" lon="7.39923">
        <ele>478</ele>
        <time>2026-05-14T08:58:26Z</time>
      </trkpt>
      <trkpt lat="43.74529" lon="7.39922">
        <ele>478.1</ele>
        <time>2026-05-14T08:58:27Z</time>
      </trkpt>
      <trkpt lat="43.74529" lon="7.39922">
        <ele>478.1</ele>
        <time>2026-05-14T08:58:28Z</time>
      </trkpt>
      <trkpt lat="43.74529" lon="7.3992">
        <ele>478.1</ele>
        <time>2026-05-14T08:58:29Z</time>
      </trkpt>
      <trkpt lat="43.74529" lon="7.39917">
        <ele>478.3</ele>
        <time>2026-05-14T08:58:30Z</time>
      </trkpt>
      <trkpt lat="43.7453" lon="7.39913">
        <ele>478.1</ele>
        <time>2026-05-14T08:58:31Z</time>
      </trkpt>
      <trkpt lat="43.74531" lon="7.3991">
        <ele>478</ele>
        <time>2026-05-14T08:58:32Z</time>
      </trkpt>
      <trkpt lat="43.74531" lon="7.39908">
        <ele>477.8</ele>
        <time>2026-05-14T08:58:33Z</time>
      </trkpt>
      <trkpt lat="43.74532" lon="7.39908">
        <ele>478</ele>
        <time>2026-05-14T08:58:34Z</time>
      </trkpt>
      <trkpt lat="43.74532" lon="7.39908">
        <ele>478</ele>
        <time>2026-05-14T08:58:35Z</time>
      </trkpt>
      <trkpt lat="43.74531" lon="7.39909">
        <ele>477.9</ele>
        <time>2026-05-14T08:58:36Z</time>
      </trkpt>
      <trkpt lat="43.74531" lon="7.39909">
        <ele>477.9</ele>
        <time>2026-05-14T08:58:37Z</time>
      </trkpt>
      <trkpt lat="43.74531" lon="7.39909">
        <ele>477.9</ele>
        <time>2026-05-14T08:58:38Z</time>
      </trkpt>
      <trkpt lat="43.74531" lon="7.39908">
        <ele>477.8</ele>
        <time>2026-05-14T08:58:39Z</time>
      </trkpt>
      <trkpt lat="43.74532" lon="7.39908">
        <ele>478</ele>
        <time>2026-05-14T08:58:40Z</time>
      </trkpt>
      <trkpt lat="43.74532" lon="7.39908">
        <ele>478</ele>
        <time>2026-05-14T08:58:41Z</time>
      </trkpt>
      <trkpt lat="43.74532" lon="7.39908">
        <ele>478</ele>
        <time>2026-05-14T08:58:42Z</time>
      </trkpt>
      <trkpt lat="43.74532" lon="7.39908">
        <ele>478</ele>
        <time>2026-05-14T08:58:43Z</time>
      </trkpt>
      <trkpt lat="43.74532" lon="7.39908">
        <ele>478</ele>
        <time>2026-05-14T08:58:44Z</time>
      </trkpt>
      <trkpt lat="43.74532" lon="7.39907">
        <ele>477.9</ele>
        <time>2026-05-14T08:58:45Z</time>
      </trkpt>
      <trkpt lat="43.74532" lon="7.39907">
        <ele>477.9</ele>
        <time>2026-05-14T08:58:46Z</time>
      </trkpt>
      <trkpt lat="43.74533" lon="7.39907">
        <ele>478.1</ele>
        <time>2026-05-14T08:58:47Z</time>
      </trkpt>
      <trkpt lat="43.74533" lon="7.39906">
        <ele>478</ele>
        <time>2026-05-14T08:58:48Z</time>
      </trkpt>
      <trkpt lat="43.74533" lon="7.39906">
        <ele>478</ele>
        <time>2026-05-14T08:58:49Z</time>
      </trkpt>
      <trkpt lat="43.74533" lon="7.39906">
        <ele>478</ele>
        <time>2026-05-14T08:58:50Z</time>
      </trkpt>
      <trkpt lat="43.74533" lon="7.39906">
        <ele>478</ele>
        <time>2026-05-14T08:58:51Z</time>
      </trkpt>
      <trkpt lat="43.74533" lon="7.39906">
        <ele>478</ele>
        <time>2026-05-14T08:58:52Z</time>
      </trkpt>
      <trkpt lat="43.74533" lon="7.39906">
        <ele>478</ele>
        <time>2026-05-14T08:58:53Z</time>
      </trkpt>
      <trkpt lat="43.74533" lon="7.39906">
        <ele>478</ele>
        <time>2026-05-14T08:58:54Z</time>
      </trkpt>
      <trkpt lat="43.74533" lon="7.39906">
        <ele>478</ele>
        <time>2026-05-14T08:58:55Z</time>
      </trkpt>
      <trkpt lat="43.74533" lon="7.39906">
        <ele>478</ele>
        <time>2026-05-14T08:58:56Z</time>
      </trkpt>
      <trkpt lat="43.74534" lon="7.39905">
        <ele>478.2</ele>
        <time>2026-05-14T08:58:57Z</time>
      </trkpt>
      <trkpt lat="43.74536" lon="7.39904">
        <ele>478.5</ele>
        <time>2026-05-14T08:58:58Z</time>
      </trkpt>
      <trkpt lat="43.74537" lon="7.39903">
        <ele>478.7</ele>
        <time>2026-05-14T08:58:59Z</time>
      </trkpt>
      <trkpt lat="43.74537" lon="7.39903">
        <ele>478.7</ele>
        <time>2026-05-14T08:59:00Z</time>
      </trkpt>
      <trkpt lat="43.74537" lon="7.39902">
        <ele>478.6</ele>
        <time>2026-05-14T08:59:01Z</time>
      </trkpt>
      <trkpt lat="43.74538" lon="7.39902">
        <ele>478.8</ele>
        <time>2026-05-14T08:59:02Z</time>
      </trkpt>
      <trkpt lat="43.74539" lon="7.399">
        <ele>478.9</ele>
        <time>2026-05-14T08:59:03Z</time>
      </trkpt>
      <trkpt lat="43.7454" lon="7.39899">
        <ele>479</ele>
        <time>2026-05-14T08:59:04Z</time>
      </trkpt>
      <trkpt lat="43.74541" lon="7.39896">
        <ele>479</ele>
        <time>2026-05-14T08:59:05Z</time>
      </trkpt>
      <trkpt lat="43.74541" lon="7.39885">
        <ele>478</ele>
        <time>2026-05-14T08:59:06Z</time>
      </trkpt>
      <trkpt lat="43.74542" lon="7.39872">
        <ele>477</ele>
        <time>2026-05-14T08:59:07Z</time>
      </trkpt>
      <trkpt lat="43.74544" lon="7.39858">
        <ele>476.2</ele>
        <time>2026-05-14T08:59:08Z</time>
      </trkpt>
      <trkpt lat="43.74549" lon="7.39845">
        <ele>476</ele>
        <time>2026-05-14T08:59:09Z</time>
      </trkpt>
      <trkpt lat="43.74555" lon="7.39833">
        <ele>475.9</ele>
        <time>2026-05-14T08:59:10Z</time>
      </trkpt>
      <trkpt lat="43.7456" lon="7.3982">
        <ele>475.1</ele>
        <time>2026-05-14T08:59:11Z</time>
      </trkpt>
      <trkpt lat="43.74565" lon="7.39808">
        <ele>475</ele>
        <time>2026-05-14T08:59:12Z</time>
      </trkpt>
      <trkpt lat="43.74569" lon="7.39796">
        <ele>474</ele>
        <time>2026-05-14T08:59:13Z</time>
      </trkpt>
      <trkpt lat="43.74572" lon="7.39786">
        <ele>472.8</ele>
        <time>2026-05-14T08:59:14Z</time>
      </trkpt>
      <trkpt lat="43.74574" lon="7.39775">
        <ele>471.5</ele>
        <time>2026-05-14T08:59:15Z</time>
      </trkpt>
      <trkpt lat="43.74576" lon="7.39763">
        <ele>471.5</ele>
        <time>2026-05-14T08:59:16Z</time>
      </trkpt>
      <trkpt lat="43.74576" lon="7.39751">
        <ele>470.9</ele>
        <time>2026-05-14T08:59:17Z</time>
      </trkpt>
      <trkpt lat="43.74576" lon="7.3974">
        <ele>470.8</ele>
        <time>2026-05-14T08:59:18Z</time>
      </trkpt>
      <trkpt lat="43.74576" lon="7.39728">
        <ele>470.7</ele>
        <time>2026-05-14T08:59:19Z</time>
      </trkpt>
      <trkpt lat="43.74576" lon="7.39718">
        <ele>470.5</ele>
        <time>2026-05-14T08:59:20Z</time>
      </trkpt>
      <trkpt lat="43.74575" lon="7.39707">
        <ele>469.9</ele>
        <time>2026-05-14T08:59:21Z</time>
      </trkpt>
      <trkpt lat="43.74575" lon="7.39697">
        <ele>469.7</ele>
        <time>2026-05-14T08:59:22Z</time>
      </trkpt>
      <trkpt lat="43.74574" lon="7.39686">
        <ele>469.7</ele>
        <time>2026-05-14T08:59:23Z</time>
      </trkpt>
      <trkpt lat="43.74573" lon="7.39674">
        <ele>469.9</ele>
        <time>2026-05-14T08:59:24Z</time>
      </trkpt>
      <trkpt lat="43.74572" lon="7.39661">
        <ele>470.5</ele>
        <time>2026-05-14T08:59:25Z</time>
      </trkpt>
      <trkpt lat="43.7457" lon="7.39647">
        <ele>471</ele>
        <time>2026-05-14T08:59:26Z</time>
      </trkpt>
      <trkpt lat="43.74568" lon="7.39634">
        <ele>471.3</ele>
        <time>2026-05-14T08:59:27Z</time>
      </trkpt>
      <trkpt lat="43.74566" lon="7.39621">
        <ele>471.4</ele>
        <time>2026-05-14T08:59:28Z</time>
      </trkpt>
      <trkpt lat="43.74564" lon="7.3961">
        <ele>471.3</ele>
        <time>2026-05-14T08:59:29Z</time>
      </trkpt>
      <trkpt lat="43.74562" lon="7.39598">
        <ele>470.5</ele>
        <time>2026-05-14T08:59:30Z</time>
      </trkpt>
      <trkpt lat="43.74558" lon="7.39587">
        <ele>468.9</ele>
        <time>2026-05-14T08:59:31Z</time>
      </trkpt>
      <trkpt lat="43.74554" lon="7.39576">
        <ele>468.4</ele>
        <time>2026-05-14T08:59:32Z</time>
      </trkpt>
      <trkpt lat="43.7455" lon="7.39564">
        <ele>468.6</ele>
        <time>2026-05-14T08:59:33Z</time>
      </trkpt>
      <trkpt lat="43.74546" lon="7.39553">
        <ele>468.7</ele>
        <time>2026-05-14T08:59:34Z</time>
      </trkpt>
      <trkpt lat="43.74541" lon="7.39543">
        <ele>468.5</ele>
        <time>2026-05-14T08:59:35Z</time>
      </trkpt>
      <trkpt lat="43.74536" lon="7.39533">
        <ele>468</ele>
        <time>2026-05-14T08:59:36Z</time>
      </trkpt>
      <trkpt lat="43.74531" lon="7.39523">
        <ele>466.9</ele>
        <time>2026-05-14T08:59:37Z</time>
      </trkpt>
      <trkpt lat="43.74525" lon="7.39513">
        <ele>465.3</ele>
        <time>2026-05-14T08:59:38Z</time>
      </trkpt>
      <trkpt lat="43.74519" lon="7.39504">
        <ele>464.9</ele>
        <time>2026-05-14T08:59:39Z</time>
      </trkpt>
      <trkpt lat="43.74513" lon="7.39496">
        <ele>464.7</ele>
        <time>2026-05-14T08:59:40Z</time>
      </trkpt>
      <trkpt lat="43.74508" lon="7.39487">
        <ele>464.3</ele>
        <time>2026-05-14T08:59:41Z</time>
      </trkpt>
      <trkpt lat="43.74502" lon="7.3948">
        <ele>463.2</ele>
        <time>2026-05-14T08:59:42Z</time>
      </trkpt>
      <trkpt lat="43.74497" lon="7.39473">
        <ele>462.6</ele>
        <time>2026-05-14T08:59:43Z</time>
      </trkpt>
      <trkpt lat="43.74492" lon="7.39466">
        <ele>462.1</ele>
        <time>2026-05-14T08:59:44Z</time>
      </trkpt>
      <trkpt lat="43.74487" lon="7.39459">
        <ele>461.8</ele>
        <time>2026-05-14T08:59:45Z</time>
      </trkpt>
      <trkpt lat="43.74484" lon="7.3945">
        <ele>461.9</ele>
        <time>2026-05-14T08:59:46Z</time>
      </trkpt>
      <trkpt lat="43.74483" lon="7.3944">
        <ele>461.8</ele>
        <time>2026-05-14T08:59:47Z</time>
      </trkpt>
      <trkpt lat="43.74482" lon="7.3943">
        <ele>461.3</ele>
        <time>2026-05-14T08:59:48Z</time>
      </trkpt>
      <trkpt lat="43.7448" lon="7.3942">
        <ele>461</ele>
        <time>2026-05-14T08:59:49Z</time>
      </trkpt>
      <trkpt lat="43.74478" lon="7.39408">
        <ele>460.3</ele>
        <time>2026-05-14T08:59:50Z</time>
      </trkpt>
      <trkpt lat="43.74473" lon="7.39398">
        <ele>459.9</ele>
        <time>2026-05-14T08:59:51Z</time>
      </trkpt>
      <trkpt lat="43.74467" lon="7.39388">
        <ele>458.8</ele>
        <time>2026-05-14T08:59:52Z</time>
      </trkpt>
      <trkpt lat="43.74459" lon="7.39379">
        <ele>457</ele>
        <time>2026-05-14T08:59:53Z</time>
      </trkpt>
      <trkpt lat="43.74452" lon="7.39371">
        <ele>456.5</ele>
        <time>2026-05-14T08:59:54Z</time>
      </trkpt>
      <trkpt lat="43.74446" lon="7.3936">
        <ele>456.4</ele>
        <time>2026-05-14T08:59:55Z</time>
      </trkpt>
      <trkpt lat="43.7444" lon="7.39348">
        <ele>455.5</ele>
        <time>2026-05-14T08:59:56Z</time>
      </trkpt>
      <trkpt lat="43.74436" lon="7.39335">
        <ele>454.6</ele>
        <time>2026-05-14T08:59:57Z</time>
      </trkpt>
      <trkpt lat="43.74431" lon="7.39321">
        <ele>454.5</ele>
        <time>2026-05-14T08:59:58Z</time>
      </trkpt>
      <trkpt lat="43.74427" lon="7.39305">
        <ele>453.8</ele>
        <time>2026-05-14T08:59:59Z</time>
      </trkpt>
      <trkpt lat="43.74423" lon="7.39289">
        <ele>452.6</ele>
        <time>2026-05-14T09:00:00Z</time>
      </trkpt>
      <trkpt lat="43.74422" lon="7.39273">
        <ele>450.8</ele>
        <time>2026-05-14T09:00:01Z</time>
      </trkpt>
      <trkpt lat="43.74422" lon="7.39257">
        <ele>450.6</ele>
        <time>2026-05-14T09:00:02Z</time>
      </trkpt>
      <trkpt lat="43.74425" lon="7.39242">
        <ele>448.7</ele>
        <time>2026-05-14T09:00:03Z</time>
      </trkpt>
      <trkpt lat="43.74429" lon="7.39227">
        <ele>446.2</ele>
        <time>2026-05-14T09:00:04Z</time>
      </trkpt>
      <trkpt lat="43.74435" lon="7.39213">
        <ele>445.3</ele>
        <time>2026-05-14T09:00:05Z</time>
      </trkpt>
      <trkpt lat="43.74443" lon="7.39201">
        <ele>444.7</ele>
        <time>2026-05-14T09:00:06Z</time>
      </trkpt>
      <trkpt lat="43.74451" lon="7.3919">
        <ele>444.2</ele>
        <time>2026-05-14T09:00:07Z</time>
      </trkpt>
      <trkpt lat="43.7446" lon="7.3918">
        <ele>443.1</ele>
        <time>2026-05-14T09:00:08Z</time>
      </trkpt>
      <trkpt lat="43.74467" lon="7.39172">
        <ele>442.4</ele>
        <time>2026-05-14T09:00:09Z</time>
      </trkpt>
      <trkpt lat="43.74472" lon="7.39165">
        <ele>442.1</ele>
        <time>2026-05-14T09:00:10Z</time>
      </trkpt>
      <trkpt lat="43.74478" lon="7.39161">
        <ele>441.5</ele>
        <time>2026-05-14T09:00:11Z</time>
      </trkpt>
      <trkpt lat="43.74483" lon="7.3916">
        <ele>440.9</ele>
        <time>2026-05-14T09:00:12Z</time>
      </trkpt>
      <trkpt lat="43.74488" lon="7.39158">
        <ele>440.3</ele>
        <time>2026-05-14T09:00:13Z</time>
      </trkpt>
      <trkpt lat="43.74492" lon="7.39156">
        <ele>439.7</ele>
        <time>2026-05-14T09:00:14Z</time>
      </trkpt>
      <trkpt lat="43.74495" lon="7.39153">
        <ele>439.2</ele>
        <time>2026-05-14T09:00:15Z</time>
      </trkpt>
      <trkpt lat="43.74498" lon="7.39151">
        <ele>438.7</ele>
        <time>2026-05-14T09:00:16Z</time>
      </trkpt>
      <trkpt lat="43.745" lon="7.39148">
        <ele>438.3</ele>
        <time>2026-05-14T09:00:17Z</time>
      </trkpt>
      <trkpt lat="43.74503" lon="7.39146">
        <ele>438.2</ele>
        <time>2026-05-14T09:00:18Z</time>
      </trkpt>
      <trkpt lat="43.74506" lon="7.39145">
        <ele>438.1</ele>
        <time>2026-05-14T09:00:19Z</time>
      </trkpt>
      <trkpt lat="43.74508" lon="7.39148">
        <ele>438.1</ele>
        <time>2026-05-14T09:00:20Z</time>
      </trkpt>
      <trkpt lat="43.7451" lon="7.39151">
        <ele>438.1</ele>
        <time>2026-05-14T09:00:21Z</time>
      </trkpt>
      <trkpt lat="43.7451" lon="7.39151">
        <ele>438.1</ele>
        <time>2026-05-14T09:00:22Z</time>
      </trkpt>
      <trkpt lat="43.74511" lon="7.39153">
        <ele>438.1</ele>
        <time>2026-05-14T09:00:23Z</time>
      </trkpt>
      <trkpt lat="43.74513" lon="7.39155">
        <ele>438</ele>
        <time>2026-05-14T09:00:24Z</time>
      </trkpt>
      <trkpt lat="43.74515" lon="7.39157">
        <ele>437.9</ele>
        <time>2026-05-14T09:00:25Z</time>
      </trkpt>
      <trkpt lat="43.74515" lon="7.39157">
        <ele>437.9</ele>
        <time>2026-05-14T09:00:26Z</time>
      </trkpt>
      <trkpt lat="43.74515" lon="7.39157">
        <ele>437.9</ele>
        <time>2026-05-14T09:00:27Z</time>
      </trkpt>
      <trkpt lat="43.74515" lon="7.39157">
        <ele>437.9</ele>
        <time>2026-05-14T09:00:28Z</time>
      </trkpt>
      <trkpt lat="43.74515" lon="7.39158">
        <ele>437.9</ele>
        <time>2026-05-14T09:00:29Z</time>
      </trkpt>
      <trkpt lat="43.74515" lon="7.39158">
        <ele>437.9</ele>
        <time>2026-05-14T09:00:30Z</time>
      </trkpt>
      <trkpt lat="43.74516" lon="7.3916">
        <ele>437.9</ele>
        <time>2026-05-14T09:00:31Z</time>
      </trkpt>
      <trkpt lat="43.74516" lon="7.39159">
        <ele>437.9</ele>
        <time>2026-05-14T09:00:32Z</time>
      </trkpt>
      <trkpt lat="43.74517" lon="7.39159">
        <ele>437.8</ele>
        <time>2026-05-14T09:00:33Z</time>
      </trkpt>
      <trkpt lat="43.74517" lon="7.3916">
        <ele>437.8</ele>
        <time>2026-05-14T09:00:34Z</time>
      </trkpt>
      <trkpt lat="43.74517" lon="7.39159">
        <ele>437.8</ele>
        <time>2026-05-14T09:00:35Z</time>
      </trkpt>
      <trkpt lat="43.74517" lon="7.39158">
        <ele>437.8</ele>
        <time>2026-05-14T09:00:36Z</time>
      </trkpt>
      <trkpt lat="43.74517" lon="7.39159">
        <ele>437.8</ele>
        <time>2026-05-14T09:00:37Z</time>
      </trkpt>
      <trkpt lat="43.74517" lon="7.39159">
        <ele>437.8</ele>
        <time>2026-05-14T09:00:38Z</time>
      </trkpt>
      <trkpt lat="43.74518" lon="7.3916">
        <ele>437.8</ele>
        <time>2026-05-14T09:00:39Z</time>
      </trkpt>
      <trkpt lat="43.7452" lon="7.3916">
        <ele>437.7</ele>
        <time>2026-05-14T09:00:40Z</time>
      </trkpt>
      <trkpt lat="43.74521" lon="7.3916">
        <ele>437.6</ele>
        <time>2026-05-14T09:00:41Z</time>
      </trkpt>
      <trkpt lat="43.74522" lon="7.3916">
        <ele>437.6</ele>
        <time>2026-05-14T09:00:42Z</time>
      </trkpt>
      <trkpt lat="43.74524" lon="7.39161">
        <ele>437.4</ele>
        <time>2026-05-14T09:00:43Z</time>
      </trkpt>
      <trkpt lat="43.74526" lon="7.39161">
        <ele>437.3</ele>
        <time>2026-05-14T09:00:44Z</time>
      </trkpt>
      <trkpt lat="43.74527" lon="7.39162">
        <ele>437.2</ele>
        <time>2026-05-14T09:00:45Z</time>
      </trkpt>
      <trkpt lat="43.74528" lon="7.39162">
        <ele>437.2</ele>
        <time>2026-05-14T09:00:46Z</time>
      </trkpt>
      <trkpt lat="43.74529" lon="7.39162">
        <ele>437.2</ele>
        <time>2026-05-14T09:00:47Z</time>
      </trkpt>
      <trkpt lat="43.74529" lon="7.39161">
        <ele>437.2</ele>
        <time>2026-05-14T09:00:48Z</time>
      </trkpt>
      <trkpt lat="43.74529" lon="7.3916">
        <ele>437.2</ele>
        <time>2026-05-14T09:00:49Z</time>
      </trkpt>
      <trkpt lat="43.74529" lon="7.3916">
        <ele>437.2</ele>
        <time>2026-05-14T09:00:50Z</time>
      </trkpt>
      <trkpt lat="43.74529" lon="7.39159">
        <ele>437.2</ele>
        <time>2026-05-14T09:00:51Z</time>
      </trkpt>
      <trkpt lat="43.74529" lon="7.39158">
        <ele>437.3</ele>
        <time>2026-05-14T09:00:52Z</time>
      </trkpt>
      <trkpt lat="43.74528" lon="7.39157">
        <ele>437.3</ele>
        <time>2026-05-14T09:00:53Z</time>
      </trkpt>
      <trkpt lat="43.74528" lon="7.39156">
        <ele>437.4</ele>
        <time>2026-05-14T09:00:54Z</time>
      </trkpt>
      <trkpt lat="43.74527" lon="7.39156">
        <ele>437.4</ele>
        <time>2026-05-14T09:00:55Z</time>
      </trkpt>
      <trkpt lat="43.74526" lon="7.39156">
        <ele>437.5</ele>
        <time>2026-05-14T09:00:56Z</time>
      </trkpt>
      <trkpt lat="43.74525" lon="7.39155">
        <ele>437.5</ele>
        <time>2026-05-14T09:00:57Z</time>
      </trkpt>
      <trkpt lat="43.74525" lon="7.39156">
        <ele>437.5</ele>
        <time>2026-05-14T09:00:58Z</time>
      </trkpt>
      <trkpt lat="43.74524" lon="7.39156">
        <ele>437.6</ele>
        <time>2026-05-14T09:00:59Z</time>
      </trkpt>
      <trkpt lat="43.74523" lon="7.39157">
        <ele>437.6</ele>
        <time>2026-05-14T09:01:00Z</time>
      </trkpt>
      <trkpt lat="43.74522" lon="7.39159">
        <ele>437.6</ele>
        <time>2026-05-14T09:01:01Z</time>
      </trkpt>
      <trkpt lat="43.7452" lon="7.39161">
        <ele>437.6</ele>
        <time>2026-05-14T09:01:02Z</time>
      </trkpt>
      <trkpt lat="43.74519" lon="7.39163">
        <ele>437.7</ele>
        <time>2026-05-14T09:01:03Z</time>
      </trkpt>
      <trkpt lat="43.74518" lon="7.39165">
        <ele>437.7</ele>
        <time>2026-05-14T09:01:04Z</time>
      </trkpt>
      <trkpt lat="43.74517" lon="7.39167">
        <ele>437.8</ele>
        <time>2026-05-14T09:01:05Z</time>
      </trkpt>
      <trkpt lat="43.74517" lon="7.39167">
        <ele>437.8</ele>
        <time>2026-05-14T09:01:06Z</time>
      </trkpt>
      <trkpt lat="43.74517" lon="7.39167">
        <ele>437.8</ele>
        <time>2026-05-14T09:01:07Z</time>
      </trkpt>
      <trkpt lat="43.74517" lon="7.39167">
        <ele>437.8</ele>
        <time>2026-05-14T09:01:08Z</time>
      </trkpt>
      <trkpt lat="43.74517" lon="7.39167">
        <ele>437.8</ele>
        <time>2026-05-14T09:01:09Z</time>
      </trkpt>
      <trkpt lat="43.74517" lon="7.39167">
        <ele>437.8</ele>
        <time>2026-05-14T09:01:10Z</time>
      </trkpt>
      <trkpt lat="43.74517" lon="7.39167">
        <ele>437.8</ele>
        <time>2026-05-14T09:01:11Z</time>
      </trkpt>
      <trkpt lat="43.74517" lon="7.39167">
        <ele>437.8</ele>
        <time>2026-05-14T09:01:12Z</time>
      </trkpt>
      <trkpt lat="43.74517" lon="7.39167">
        <ele>437.8</ele>
        <time>2026-05-14T09:01:13Z</time>
      </trkpt>
      <trkpt lat="43.74517" lon="7.39167">
        <ele>437.8</ele>
        <time>2026-05-14T09:01:14Z</time>
      </trkpt>
      <trkpt lat="43.74517" lon="7.39167">
        <ele>437.8</ele>
        <time>2026-05-14T09:01:15Z</time>
      </trkpt>
      <trkpt lat="43.74517" lon="7.39167">
        <ele>437.8</ele>
        <time>2026-05-14T09:01:16Z</time>
      </trkpt>
      <trkpt lat="43.74517" lon="7.39167">
        <ele>437.8</ele>
        <time>2026-05-14T09:01:17Z</time>
      </trkpt>
      <trkpt lat="43.74517" lon="7.39166">
        <ele>437.8</ele>
        <time>2026-05-14T09:01:18Z</time>
      </trkpt>
      <trkpt lat="43.74517" lon="7.39166">
        <ele>437.8</ele>
        <time>2026-05-14T09:01:19Z</time>
      </trkpt>
      <trkpt lat="43.74517" lon="7.39166">
        <ele>437.8</ele>
        <time>2026-05-14T09:01:20Z</time>
      </trkpt>
      <trkpt lat="43.74517" lon="7.39166">
        <ele>437.8</ele>
        <time>2026-05-14T09:01:21Z</time>
      </trkpt>
      <trkpt lat="43.74517" lon="7.39166">
        <ele>437.8</ele>
        <time>2026-05-14T09:01:22Z</time>
      </trkpt>
      <trkpt lat="43.74517" lon="7.39166">
        <ele>437.8</ele>
        <time>2026-05-14T09:01:23Z</time>
      </trkpt>
      <trkpt lat="43.74517" lon="7.39166">
        <ele>437.8</ele>
        <time>2026-05-14T09:01:24Z</time>
      </trkpt>
      <trkpt lat="43.74517" lon="7.39166">
        <ele>437.8</ele>
        <time>2026-05-14T09:01:25Z</time>
      </trkpt>
      <trkpt lat="43.74517" lon="7.39166">
        <ele>437.8</ele>
        <time>2026-05-14T09:01:26Z</time>
      </trkpt>
      <trkpt lat="43.74507" lon="7.39148">
        <ele>438.2</ele>
        <time>2026-05-14T09:04:27Z</time>
      </trkpt>
      <trkpt lat="43.7451" lon="7.39166">
        <ele>438.3</ele>
        <time>2026-05-14T09:04:28Z</time>
      </trkpt>
      <trkpt lat="43.74514" lon="7.39174">
        <ele>438.3</ele>
        <time>2026-05-14T09:04:29Z</time>
      </trkpt>
      <trkpt lat="43.74515" lon="7.3917">
        <ele>438</ele>
        <time>2026-05-14T09:04:30Z</time>
      </trkpt>
      <trkpt lat="43.74516" lon="7.39165">
        <ele>437.9</ele>
        <time>2026-05-14T09:04:31Z</time>
      </trkpt>
      <trkpt lat="43.74518" lon="7.39161">
        <ele>437.8</ele>
        <time>2026-05-14T09:04:32Z</time>
      </trkpt>
      <trkpt lat="43.74517" lon="7.39166">
        <ele>437.8</ele>
        <time>2026-05-14T09:04:33Z</time>
      </trkpt>
      <trkpt lat="43.74517" lon="7.39166">
        <ele>437.8</ele>
        <time>2026-05-14T09:04:34Z</time>
      </trkpt>
      <trkpt lat="43.74515" lon="7.39168">
        <ele>438</ele>
        <time>2026-05-14T09:04:35Z</time>
      </trkpt>
      <trkpt lat="43.74512" lon="7.3917">
        <ele>438.2</ele>
        <time>2026-05-14T09:04:36Z</time>
      </trkpt>
      <trkpt lat="43.74508" lon="7.39172">
        <ele>438.5</ele>
        <time>2026-05-14T09:04:37Z</time>
      </trkpt>
      <trkpt lat="43.745" lon="7.39169">
        <ele>439</ele>
        <time>2026-05-14T09:04:38Z</time>
      </trkpt>
      <trkpt lat="43.74497" lon="7.39165">
        <ele>439.3</ele>
        <time>2026-05-14T09:04:39Z</time>
      </trkpt>
      <trkpt lat="43.74496" lon="7.39161">
        <ele>439.3</ele>
        <time>2026-05-14T09:04:40Z</time>
      </trkpt>
      <trkpt lat="43.74495" lon="7.39161">
        <ele>439.4</ele>
        <time>2026-05-14T09:04:41Z</time>
      </trkpt>
      <trkpt lat="43.74494" lon="7.3916">
        <ele>439.5</ele>
        <time>2026-05-14T09:04:42Z</time>
      </trkpt>
      <trkpt lat="43.74494" lon="7.3916">
        <ele>439.5</ele>
        <time>2026-05-14T09:04:43Z</time>
      </trkpt>
      <trkpt lat="43.74494" lon="7.39161">
        <ele>439.5</ele>
        <time>2026-05-14T09:04:44Z</time>
      </trkpt>
      <trkpt lat="43.74494" lon="7.39161">
        <ele>439.5</ele>
        <time>2026-05-14T09:04:45Z</time>
      </trkpt>
      <trkpt lat="43.74494" lon="7.39161">
        <ele>439.5</ele>
        <time>2026-05-14T09:04:46Z</time>
      </trkpt>
      <trkpt lat="43.74494" lon="7.39161">
        <ele>439.5</ele>
        <time>2026-05-14T09:04:47Z</time>
      </trkpt>
      <trkpt lat="43.74494" lon="7.39161">
        <ele>439.5</ele>
        <time>2026-05-14T09:04:48Z</time>
      </trkpt>
      <trkpt lat="43.74493" lon="7.39161">
        <ele>439.7</ele>
        <time>2026-05-14T09:04:49Z</time>
      </trkpt>
      <trkpt lat="43.74493" lon="7.39161">
        <ele>439.7</ele>
        <time>2026-05-14T09:04:50Z</time>
      </trkpt>
      <trkpt lat="43.74492" lon="7.39161">
        <ele>439.8</ele>
        <time>2026-05-14T09:04:51Z</time>
      </trkpt>
      <trkpt lat="43.74492" lon="7.39161">
        <ele>439.8</ele>
        <time>2026-05-14T09:04:52Z</time>
      </trkpt>
      <trkpt lat="43.74492" lon="7.3916">
        <ele>439.8</ele>
        <time>2026-05-14T09:04:53Z</time>
      </trkpt>
      <trkpt lat="43.74491" lon="7.3916">
        <ele>439.9</ele>
        <time>2026-05-14T09:04:54Z</time>
      </trkpt>
      <trkpt lat="43.74491" lon="7.3916">
        <ele>439.9</ele>
        <time>2026-05-14T09:04:55Z</time>
      </trkpt>
      <trkpt lat="43.74491" lon="7.3916">
        <ele>439.9</ele>
        <time>2026-05-14T09:04:56Z</time>
      </trkpt>
      <trkpt lat="43.74491" lon="7.3916">
        <ele>439.9</ele>
        <time>2026-05-14T09:04:57Z</time>
      </trkpt>
      <trkpt lat="43.7449" lon="7.3916">
        <ele>440</ele>
        <time>2026-05-14T09:04:58Z</time>
      </trkpt>
      <trkpt lat="43.74488" lon="7.39158">
        <ele>440.3</ele>
        <time>2026-05-14T09:04:59Z</time>
      </trkpt>
      <trkpt lat="43.74487" lon="7.39154">
        <ele>440.4</ele>
        <time>2026-05-14T09:05:00Z</time>
      </trkpt>
      <trkpt lat="43.74486" lon="7.3915">
        <ele>440.5</ele>
        <time>2026-05-14T09:05:01Z</time>
      </trkpt>
      <trkpt lat="43.74487" lon="7.39144">
        <ele>440.4</ele>
        <time>2026-05-14T09:05:02Z</time>
      </trkpt>
      <trkpt lat="43.74497" lon="7.39137">
        <ele>438.6</ele>
        <time>2026-05-14T09:05:03Z</time>
      </trkpt>
      <trkpt lat="43.74503" lon="7.3913">
        <ele>438.2</ele>
        <time>2026-05-14T09:05:04Z</time>
      </trkpt>
      <trkpt lat="43.74511" lon="7.39122">
        <ele>437.6</ele>
        <time>2026-05-14T09:05:05Z</time>
      </trkpt>
      <trkpt lat="43.74521" lon="7.39115">
        <ele>436.3</ele>
        <time>2026-05-14T09:05:06Z</time>
      </trkpt>
      <trkpt lat="43.7453" lon="7.39108">
        <ele>435.5</ele>
        <time>2026-05-14T09:05:07Z</time>
      </trkpt>
      <trkpt lat="43.7454" lon="7.39102">
        <ele>435.3</ele>
        <time>2026-05-14T09:05:08Z</time>
      </trkpt>
      <trkpt lat="43.74549" lon="7.391">
        <ele>434</ele>
        <time>2026-05-14T09:05:09Z</time>
      </trkpt>
      <trkpt lat="43.74557" lon="7.39101">
        <ele>432.6</ele>
        <time>2026-05-14T09:05:10Z</time>
      </trkpt>
      <trkpt lat="43.74565" lon="7.39102">
        <ele>432.1</ele>
        <time>2026-05-14T09:05:11Z</time>
      </trkpt>
      <trkpt lat="43.74571" lon="7.391">
        <ele>431.8</ele>
        <time>2026-05-14T09:05:12Z</time>
      </trkpt>
      <trkpt lat="43.74576" lon="7.39094">
        <ele>431.6</ele>
        <time>2026-05-14T09:05:13Z</time>
      </trkpt>
      <trkpt lat="43.7458" lon="7.39086">
        <ele>431.3</ele>
        <time>2026-05-14T09:05:14Z</time>
      </trkpt>
      <trkpt lat="43.74583" lon="7.39077">
        <ele>432</ele>
        <time>2026-05-14T09:05:15Z</time>
      </trkpt>
      <trkpt lat="43.74588" lon="7.39067">
        <ele>432.5</ele>
        <time>2026-05-14T09:05:16Z</time>
      </trkpt>
      <trkpt lat="43.74596" lon="7.39058">
        <ele>432</ele>
        <time>2026-05-14T09:05:17Z</time>
      </trkpt>
      <trkpt lat="43.74603" lon="7.3905">
        <ele>432.2</ele>
        <time>2026-05-14T09:05:18Z</time>
      </trkpt>
      <trkpt lat="43.7461" lon="7.3904">
        <ele>432.7</ele>
        <time>2026-05-14T09:05:19Z</time>
      </trkpt>
      <trkpt lat="43.74618" lon="7.3903">
        <ele>432.4</ele>
        <time>2026-05-14T09:05:20Z</time>
      </trkpt>
      <trkpt lat="43.74625" lon="7.39019">
        <ele>433</ele>
        <time>2026-05-14T09:05:21Z</time>
      </trkpt>
      <trkpt lat="43.74633" lon="7.39009">
        <ele>432.5</ele>
        <time>2026-05-14T09:05:22Z</time>
      </trkpt>
      <trkpt lat="43.7464" lon="7.38997">
        <ele>432.4</ele>
        <time>2026-05-14T09:05:23Z</time>
      </trkpt>
      <trkpt lat="43.74649" lon="7.38984">
        <ele>432.2</ele>
        <time>2026-05-14T09:05:24Z</time>
      </trkpt>
      <trkpt lat="43.74658" lon="7.38971">
        <ele>432</ele>
        <time>2026-05-14T09:05:25Z</time>
      </trkpt>
      <trkpt lat="43.74668" lon="7.38957">
        <ele>430.6</ele>
        <time>2026-05-14T09:05:26Z</time>
      </trkpt>
      <trkpt lat="43.74677" lon="7.38943">
        <ele>428.7</ele>
        <time>2026-05-14T09:05:27Z</time>
      </trkpt>
      <trkpt lat="43.74686" lon="7.38928">
        <ele>428.4</ele>
        <time>2026-05-14T09:05:28Z</time>
      </trkpt>
      <trkpt lat="43.74695" lon="7.38911">
        <ele>429.1</ele>
        <time>2026-05-14T09:05:29Z</time>
      </trkpt>
      <trkpt lat="43.74703" lon="7.38892">
        <ele>426.1</ele>
        <time>2026-05-14T09:05:30Z</time>
      </trkpt>
      <trkpt lat="43.7471" lon="7.38872">
        <ele>426</ele>
        <time>2026-05-14T09:05:31Z</time>
      </trkpt>
      <trkpt lat="43.74717" lon="7.38851">
        <ele>425.8</ele>
        <time>2026-05-14T09:05:32Z</time>
      </trkpt>
      <trkpt lat="43.74724" lon="7.38829">
        <ele>424.3</ele>
        <time>2026-05-14T09:05:33Z</time>
      </trkpt>
      <trkpt lat="43.74731" lon="7.38809">
        <ele>422</ele>
        <time>2026-05-14T09:05:34Z</time>
      </trkpt>
      <trkpt lat="43.74737" lon="7.38788">
        <ele>421.6</ele>
        <time>2026-05-14T09:05:35Z</time>
      </trkpt>
      <trkpt lat="43.74743" lon="7.38767">
        <ele>421.4</ele>
        <time>2026-05-14T09:05:36Z</time>
      </trkpt>
      <trkpt lat="43.74749" lon="7.38747">
        <ele>420.6</ele>
        <time>2026-05-14T09:05:37Z</time>
      </trkpt>
      <trkpt lat="43.74753" lon="7.38727">
        <ele>420</ele>
        <time>2026-05-14T09:05:38Z</time>
      </trkpt>
      <trkpt lat="43.74756" lon="7.38705">
        <ele>419</ele>
        <time>2026-05-14T09:05:39Z</time>
      </trkpt>
      <trkpt lat="43.74759" lon="7.38684">
        <ele>418.1</ele>
        <time>2026-05-14T09:05:40Z</time>
      </trkpt>
      <trkpt lat="43.74761" lon="7.38663">
        <ele>417.3</ele>
        <time>2026-05-14T09:05:41Z</time>
      </trkpt>
      <trkpt lat="43.7476" lon="7.38642">
        <ele>416.9</ele>
        <time>2026-05-14T09:05:42Z</time>
      </trkpt>
      <trkpt lat="43.74759" lon="7.38622">
        <ele>416.7</ele>
        <time>2026-05-14T09:05:43Z</time>
      </trkpt>
      <trkpt lat="43.74757" lon="7.38603">
        <ele>416.7</ele>
        <time>2026-05-14T09:05:44Z</time>
      </trkpt>
      <trkpt lat="43.74753" lon="7.38585">
        <ele>417.2</ele>
        <time>2026-05-14T09:05:45Z</time>
      </trkpt>
      <trkpt lat="43.7475" lon="7.38568">
        <ele>417.4</ele>
        <time>2026-05-14T09:05:46Z</time>
      </trkpt>
      <trkpt lat="43.74747" lon="7.38551">
        <ele>417.7</ele>
        <time>2026-05-14T09:05:47Z</time>
      </trkpt>
      <trkpt lat="43.74743" lon="7.38536">
        <ele>418.3</ele>
        <time>2026-05-14T09:05:48Z</time>
      </trkpt>
      <trkpt lat="43.7474" lon="7.38521">
        <ele>417.9</ele>
        <time>2026-05-14T09:05:49Z</time>
      </trkpt>
      <trkpt lat="43.74738" lon="7.38509">
        <ele>416.8</ele>
        <time>2026-05-14T09:05:50Z</time>
      </trkpt>
      <trkpt lat="43.74736" lon="7.38498">
        <ele>416</ele>
        <time>2026-05-14T09:05:51Z</time>
      </trkpt>
      <trkpt lat="43.74735" lon="7.38487">
        <ele>416</ele>
        <time>2026-05-14T09:05:52Z</time>
      </trkpt>
      <trkpt lat="43.74735" lon="7.38477">
        <ele>415.8</ele>
        <time>2026-05-14T09:05:53Z</time>
      </trkpt>
      <trkpt lat="43.74735" lon="7.38467">
        <ele>416.1</ele>
        <time>2026-05-14T09:05:54Z</time>
      </trkpt>
      <trkpt lat="43.74735" lon="7.38457">
        <ele>417</ele>
        <time>2026-05-14T09:05:55Z</time>
      </trkpt>
      <trkpt lat="43.74731" lon="7.38447">
        <ele>417.9</ele>
        <time>2026-05-14T09:05:56Z</time>
      </trkpt>
      <trkpt lat="43.74726" lon="7.38435">
        <ele>418</ele>
        <time>2026-05-14T09:05:57Z</time>
      </trkpt>
      <trkpt lat="43.74721" lon="7.3842">
        <ele>418.3</ele>
        <time>2026-05-14T09:05:58Z</time>
      </trkpt>
      <trkpt lat="43.74716" lon="7.38402">
        <ele>419.1</ele>
        <time>2026-05-14T09:05:59Z</time>
      </trkpt>
      <trkpt lat="43.74711" lon="7.38382">
        <ele>419.3</ele>
        <time>2026-05-14T09:06:00Z</time>
      </trkpt>
      <trkpt lat="43.74707" lon="7.38363">
        <ele>418.7</ele>
        <time>2026-05-14T09:06:01Z</time>
      </trkpt>
      <trkpt lat="43.74702" lon="7.38344">
        <ele>417.7</ele>
        <time>2026-05-14T09:06:02Z</time>
      </trkpt>
      <trkpt lat="43.74698" lon="7.38324">
        <ele>417</ele>
        <time>2026-05-14T09:06:03Z</time>
      </trkpt>
      <trkpt lat="43.74693" lon="7.38304">
        <ele>417.6</ele>
        <time>2026-05-14T09:06:04Z</time>
      </trkpt>
      <trkpt lat="43.74688" lon="7.38285">
        <ele>419.5</ele>
        <time>2026-05-14T09:06:05Z</time>
      </trkpt>
      <trkpt lat="43.74682" lon="7.38265">
        <ele>419.3</ele>
        <time>2026-05-14T09:06:06Z</time>
      </trkpt>
      <trkpt lat="43.74676" lon="7.38247">
        <ele>417.9</ele>
        <time>2026-05-14T09:06:07Z</time>
      </trkpt>
      <trkpt lat="43.74667" lon="7.38231">
        <ele>418.6</ele>
        <time>2026-05-14T09:06:08Z</time>
      </trkpt>
      <trkpt lat="43.74657" lon="7.38216">
        <ele>419.2</ele>
        <time>2026-05-14T09:06:09Z</time>
      </trkpt>
      <trkpt lat="43.74646" lon="7.38202">
        <ele>419.7</ele>
        <time>2026-05-14T09:06:10Z</time>
      </trkpt>
      <trkpt lat="43.74633" lon="7.38191">
        <ele>419.9</ele>
        <time>2026-05-14T09:06:11Z</time>
      </trkpt>
      <trkpt lat="43.74619" lon="7.38181">
        <ele>420.1</ele>
        <time>2026-05-14T09:06:12Z</time>
      </trkpt>
      <trkpt lat="43.74605" lon="7.38172">
        <ele>420.7</ele>
        <time>2026-05-14T09:06:13Z</time>
      </trkpt>
      <trkpt lat="43.74592" lon="7.38164">
        <ele>421.2</ele>
        <time>2026-05-14T09:06:14Z</time>
      </trkpt>
      <trkpt lat="43.7458" lon="7.38154">
        <ele>421.9</ele>
        <time>2026-05-14T09:06:15Z</time>
      </trkpt>
      <trkpt lat="43.74568" lon="7.38145">
        <ele>422.1</ele>
        <time>2026-05-14T09:06:16Z</time>
      </trkpt>
      <trkpt lat="43.74557" lon="7.38135">
        <ele>422.2</ele>
        <time>2026-05-14T09:06:17Z</time>
      </trkpt>
      <trkpt lat="43.74547" lon="7.38124">
        <ele>422.5</ele>
        <time>2026-05-14T09:06:18Z</time>
      </trkpt>
      <trkpt lat="43.74537" lon="7.38112">
        <ele>422.3</ele>
        <time>2026-05-14T09:06:19Z</time>
      </trkpt>
      <trkpt lat="43.74528" lon="7.38097">
        <ele>421.5</ele>
        <time>2026-05-14T09:06:20Z</time>
      </trkpt>
      <trkpt lat="43.7452" lon="7.38082">
        <ele>420.8</ele>
        <time>2026-05-14T09:06:21Z</time>
      </trkpt>
      <trkpt lat="43.74512" lon="7.38066">
        <ele>419.6</ele>
        <time>2026-05-14T09:06:22Z</time>
      </trkpt>
      <trkpt lat="43.74505" lon="7.38051">
        <ele>418.9</ele>
        <time>2026-05-14T09:06:23Z</time>
      </trkpt>
      <trkpt lat="43.74497" lon="7.38036">
        <ele>418.7</ele>
        <time>2026-05-14T09:06:24Z</time>
      </trkpt>
      <trkpt lat="43.7449" lon="7.38021">
        <ele>417.8</ele>
        <time>2026-05-14T09:06:25Z</time>
      </trkpt>
      <trkpt lat="43.74483" lon="7.38006">
        <ele>417.2</ele>
        <time>2026-05-14T09:06:26Z</time>
      </trkpt>
      <trkpt lat="43.74477" lon="7.37991">
        <ele>417.1</ele>
        <time>2026-05-14T09:06:27Z</time>
      </trkpt>
      <trkpt lat="43.7447" lon="7.37976">
        <ele>418</ele>
        <time>2026-05-14T09:06:28Z</time>
      </trkpt>
      <trkpt lat="43.74464" lon="7.3796">
        <ele>417.6</ele>
        <time>2026-05-14T09:06:29Z</time>
      </trkpt>
      <trkpt lat="43.74459" lon="7.37945">
        <ele>417</ele>
        <time>2026-05-14T09:06:30Z</time>
      </trkpt>
      <trkpt lat="43.74454" lon="7.3793">
        <ele>416.5</ele>
        <time>2026-05-14T09:06:31Z</time>
      </trkpt>
      <trkpt lat="43.74449" lon="7.37916">
        <ele>416.5</ele>
        <time>2026-05-14T09:06:32Z</time>
      </trkpt>
      <trkpt lat="43.74445" lon="7.37903">
        <ele>416.4</ele>
        <time>2026-05-14T09:06:33Z</time>
      </trkpt>
      <trkpt lat="43.74442" lon="7.3789">
        <ele>416.1</ele>
        <time>2026-05-14T09:06:34Z</time>
      </trkpt>
      <trkpt lat="43.74439" lon="7.37879">
        <ele>416.1</ele>
        <time>2026-05-14T09:06:35Z</time>
      </trkpt>
      <trkpt lat="43.74436" lon="7.37869">
        <ele>416.1</ele>
        <time>2026-05-14T09:06:36Z</time>
      </trkpt>
      <trkpt lat="43.74434" lon="7.37859">
        <ele>416</ele>
        <time>2026-05-14T09:06:37Z</time>
      </trkpt>
      <trkpt lat="43.74431" lon="7.37851">
        <ele>415.8</ele>
        <time>2026-05-14T09:06:38Z</time>
      </trkpt>
      <trkpt lat="43.74429" lon="7.37844">
        <ele>415.7</ele>
        <time>2026-05-14T09:06:39Z</time>
      </trkpt>
      <trkpt lat="43.74427" lon="7.37838">
        <ele>415.7</ele>
        <time>2026-05-14T09:06:40Z</time>
      </trkpt>
      <trkpt lat="43.74425" lon="7.37832">
        <ele>415.7</ele>
        <time>2026-05-14T09:06:41Z</time>
      </trkpt>
      <trkpt lat="43.74423" lon="7.37826">
        <ele>415.7</ele>
        <time>2026-05-14T09:06:42Z</time>
      </trkpt>
      <trkpt lat="43.74422" lon="7.37821">
        <ele>415.6</ele>
        <time>2026-05-14T09:06:43Z</time>
      </trkpt>
      <trkpt lat="43.74421" lon="7.37817">
        <ele>415.7</ele>
        <time>2026-05-14T09:06:44Z</time>
      </trkpt>
      <trkpt lat="43.7442" lon="7.37813">
        <ele>415.7</ele>
        <time>2026-05-14T09:06:45Z</time>
      </trkpt>
      <trkpt lat="43.74419" lon="7.3781">
        <ele>415.8</ele>
        <time>2026-05-14T09:06:46Z</time>
      </trkpt>
      <trkpt lat="43.74418" lon="7.37808">
        <ele>415.9</ele>
        <time>2026-05-14T09:06:47Z</time>
      </trkpt>
      <trkpt lat="43.74418" lon="7.37806">
        <ele>415.9</ele>
        <time>2026-05-14T09:06:48Z</time>
      </trkpt>
      <trkpt lat="43.74419" lon="7.37805">
        <ele>415.7</ele>
        <time>2026-05-14T09:06:49Z</time>
      </trkpt>
      <trkpt lat="43.74418" lon="7.37804">
        <ele>415.8</ele>
        <time>2026-05-14T09:06:50Z</time>
      </trkpt>
      <trkpt lat="43.74418" lon="7.37804">
        <ele>415.8</ele>
        <time>2026-05-14T09:06:51Z</time>
      </trkpt>
      <trkpt lat="43.74418" lon="7.37803">
        <ele>415.8</ele>
        <time>2026-05-14T09:06:52Z</time>
      </trkpt>
      <trkpt lat="43.74418" lon="7.37803">
        <ele>415.8</ele>
        <time>2026-05-14T09:06:53Z</time>
      </trkpt>
      <trkpt lat="43.74418" lon="7.37803">
        <ele>415.8</ele>
        <time>2026-05-14T09:06:54Z</time>
      </trkpt>
      <trkpt lat="43.74418" lon="7.37803">
        <ele>415.8</ele>
        <time>2026-05-14T09:06:55Z</time>
      </trkpt>
      <trkpt lat="43.74418" lon="7.37802">
        <ele>415.8</ele>
        <time>2026-05-14T09:06:56Z</time>
      </trkpt>
      <trkpt lat="43.74418" lon="7.37802">
        <ele>415.8</ele>
        <time>2026-05-14T09:06:57Z</time>
      </trkpt>
      <trkpt lat="43.74418" lon="7.37802">
        <ele>415.8</ele>
        <time>2026-05-14T09:06:58Z</time>
      </trkpt>
      <trkpt lat="43.74419" lon="7.37802">
        <ele>415.7</ele>
        <time>2026-05-14T09:06:59Z</time>
      </trkpt>
      <trkpt lat="43.74419" lon="7.37802">
        <ele>415.7</ele>
        <time>2026-05-14T09:07:00Z</time>
      </trkpt>
      <trkpt lat="43.74419" lon="7.37802">
        <ele>415.7</ele>
        <time>2026-05-14T09:07:01Z</time>
      </trkpt>
      <trkpt lat="43.74419" lon="7.37802">
        <ele>415.7</ele>
        <time>2026-05-14T09:07:02Z</time>
      </trkpt>
      <trkpt lat="43.74419" lon="7.37802">
        <ele>415.7</ele>
        <time>2026-05-14T09:07:03Z</time>
      </trkpt>
      <trkpt lat="43.74419" lon="7.37802">
        <ele>415.7</ele>
        <time>2026-05-14T09:07:04Z</time>
      </trkpt>
      <trkpt lat="43.74419" lon="7.37802">
        <ele>415.7</ele>
        <time>2026-05-14T09:07:05Z</time>
      </trkpt>
      <trkpt lat="43.74419" lon="7.37802">
        <ele>415.7</ele>
        <time>2026-05-14T09:07:06Z</time>
      </trkpt>
      <trkpt lat="43.74419" lon="7.37802">
        <ele>415.7</ele>
        <time>2026-05-14T09:07:07Z</time>
      </trkpt>
      <trkpt lat="43.74419" lon="7.37802">
        <ele>415.7</ele>
        <time>2026-05-14T09:07:08Z</time>
      </trkpt>
      <trkpt lat="43.74419" lon="7.37802">
        <ele>415.7</ele>
        <time>2026-05-14T09:07:09Z</time>
      </trkpt>
      <trkpt lat="43.74419" lon="7.37802">
        <ele>415.7</ele>
        <time>2026-05-14T09:07:10Z</time>
      </trkpt>
      <trkpt lat="43.74419" lon="7.37802">
        <ele>415.7</ele>
        <time>2026-05-14T09:07:11Z</time>
      </trkpt>
      <trkpt lat="43.74419" lon="7.37802">
        <ele>415.7</ele>
        <time>2026-05-14T09:07:12Z</time>
      </trkpt>
      <trkpt lat="43.74419" lon="7.37802">
        <ele>415.7</ele>
        <time>2026-05-14T09:07:13Z</time>
      </trkpt>
      <trkpt lat="43.74419" lon="7.37802">
        <ele>415.7</ele>
        <time>2026-05-14T09:07:14Z</time>
      </trkpt>
      <trkpt lat="43.74419" lon="7.37802">
        <ele>415.7</ele>
        <time>2026-05-14T09:07:15Z</time>
      </trkpt>
      <trkpt lat="43.74419" lon="7.37802">
        <ele>415.7</ele>
        <time>2026-05-14T09:07:16Z</time>
      </trkpt>
      <trkpt lat="43.74419" lon="7.37802">
        <ele>415.7</ele>
        <time>2026-05-14T09:07:17Z</time>
      </trkpt>
      <trkpt lat="43.74419" lon="7.37802">
        <ele>415.7</ele>
        <time>2026-05-14T09:07:18Z</time>
      </trkpt>
      <trkpt lat="43.74419" lon="7.37802">
        <ele>415.7</ele>
        <time>2026-05-14T09:07:19Z</time>
      </trkpt>
      <trkpt lat="43.74419" lon="7.37802">
        <ele>415.7</ele>
        <time>2026-05-14T09:07:20Z</time>
      </trkpt>
      <trkpt lat="43.74419" lon="7.37802">
        <ele>415.7</ele>
        <time>2026-05-14T09:07:21Z</time>
      </trkpt>
      <trkpt lat="43.74419" lon="7.37802">
        <ele>415.7</ele>
        <time>2026-05-14T09:07:22Z</time>
      </trkpt>
      <trkpt lat="43.74419" lon="7.37802">
        <ele>415.7</ele>
        <time>2026-05-14T09:07:23Z</time>
      </trkpt>
      <trkpt lat="43.74419" lon="7.37802">
        <ele>415.7</ele>
        <time>2026-05-14T09:07:24Z</time>
      </trkpt>
      <trkpt lat="43.74419" lon="7.37802">
        <ele>415.7</ele>
        <time>2026-05-14T09:07:25Z</time>
      </trkpt>
      <trkpt lat="43.74419" lon="7.37802">
        <ele>415.7</ele>
        <time>2026-05-14T09:07:26Z</time>
      </trkpt>
      <trkpt lat="43.74419" lon="7.37802">
        <ele>415.7</ele>
        <time>2026-05-14T09:07:27Z</time>
      </trkpt>
      <trkpt lat="43.74419" lon="7.37802">
        <ele>415.7</ele>
        <time>2026-05-14T09:07:28Z</time>
      </trkpt>
      <trkpt lat="43.74419" lon="7.37802">
        <ele>415.7</ele>
        <time>2026-05-14T09:07:29Z</time>
      </trkpt>
      <trkpt lat="43.74419" lon="7.37802">
        <ele>415.7</ele>
        <time>2026-05-14T09:07:30Z</time>
      </trkpt>
      <trkpt lat="43.74419" lon="7.37802">
        <ele>415.7</ele>
        <time>2026-05-14T09:07:31Z</time>
      </trkpt>
      <trkpt lat="43.74419" lon="7.37802">
        <ele>415.7</ele>
        <time>2026-05-14T09:07:32Z</time>
      </trkpt>
      <trkpt lat="43.7442" lon="7.378">
        <ele>415.5</ele>
        <time>2026-05-14T09:07:33Z</time>
      </trkpt>
      <trkpt lat="43.7442" lon="7.37797">
        <ele>415.5</ele>
        <time>2026-05-14T09:07:34Z</time>
      </trkpt>
      <trkpt lat="43.74418" lon="7.37792">
        <ele>415.8</ele>
        <time>2026-05-14T09:07:35Z</time>
      </trkpt>
      <trkpt lat="43.74417" lon="7.37788">
        <ele>415.9</ele>
        <time>2026-05-14T09:07:36Z</time>
      </trkpt>
      <trkpt lat="43.74417" lon="7.37785">
        <ele>415.9</ele>
        <time>2026-05-14T09:07:37Z</time>
      </trkpt>
      <trkpt lat="43.74416" lon="7.37783">
        <ele>416</ele>
        <time>2026-05-14T09:07:38Z</time>
      </trkpt>
      <trkpt lat="43.74417" lon="7.37782">
        <ele>415.9</ele>
        <time>2026-05-14T09:07:39Z</time>
      </trkpt>
      <trkpt lat="43.74417" lon="7.37781">
        <ele>415.9</ele>
        <time>2026-05-14T09:07:40Z</time>
      </trkpt>
      <trkpt lat="43.74417" lon="7.37777">
        <ele>415.9</ele>
        <time>2026-05-14T09:07:41Z</time>
      </trkpt>
      <trkpt lat="43.74418" lon="7.37773">
        <ele>415.5</ele>
        <time>2026-05-14T09:07:42Z</time>
      </trkpt>
      <trkpt lat="43.74418" lon="7.3777">
        <ele>415.3</ele>
        <time>2026-05-14T09:07:43Z</time>
      </trkpt>
      <trkpt lat="43.74418" lon="7.37768">
        <ele>415.2</ele>
        <time>2026-05-14T09:07:44Z</time>
      </trkpt>
      <trkpt lat="43.74417" lon="7.37768">
        <ele>415.5</ele>
        <time>2026-05-14T09:07:45Z</time>
      </trkpt>
      <trkpt lat="43.74417" lon="7.3777">
        <ele>415.6</ele>
        <time>2026-05-14T09:07:46Z</time>
      </trkpt>
      <trkpt lat="43.74417" lon="7.3777">
        <ele>415.6</ele>
        <time>2026-05-14T09:07:47Z</time>
      </trkpt>
      <trkpt lat="43.74417" lon="7.3777">
        <ele>415.6</ele>
        <time>2026-05-14T09:07:48Z</time>
      </trkpt>
      <trkpt lat="43.74417" lon="7.3777">
        <ele>415.6</ele>
        <time>2026-05-14T09:07:49Z</time>
      </trkpt>
      <trkpt lat="43.74417" lon="7.3777">
        <ele>415.6</ele>
        <time>2026-05-14T09:07:50Z</time>
      </trkpt>
      <trkpt lat="43.74417" lon="7.3777">
        <ele>415.6</ele>
        <time>2026-05-14T09:07:51Z</time>
      </trkpt>
      <trkpt lat="43.74417" lon="7.3777">
        <ele>415.6</ele>
        <time>2026-05-14T09:07:52Z</time>
      </trkpt>
      <trkpt lat="43.74417" lon="7.3777">
        <ele>415.6</ele>
        <time>2026-05-14T09:07:53Z</time>
      </trkpt>
      <trkpt lat="43.74417" lon="7.3777">
        <ele>415.6</ele>
        <time>2026-05-14T09:07:54Z</time>
      </trkpt>
      <trkpt lat="43.74417" lon="7.3777">
        <ele>415.6</ele>
        <time>2026-05-14T09:07:55Z</time>
      </trkpt>
      <trkpt lat="43.74417" lon="7.3777">
        <ele>415.6</ele>
        <time>2026-05-14T09:07:56Z</time>
      </trkpt>
      <trkpt lat="43.74417" lon="7.3777">
        <ele>415.6</ele>
        <time>2026-05-14T09:07:57Z</time>
      </trkpt>
      <trkpt lat="43.74417" lon="7.3777">
        <ele>415.6</ele>
        <time>2026-05-14T09:07:58Z</time>
      </trkpt>
      <trkpt lat="43.74416" lon="7.3777">
        <ele>415.7</ele>
        <time>2026-05-14T09:07:59Z</time>
      </trkpt>
      <trkpt lat="43.74416" lon="7.37769">
        <ele>415.7</ele>
        <time>2026-05-14T09:08:00Z</time>
      </trkpt>
      <trkpt lat="43.74414" lon="7.37768">
        <ele>415.6</ele>
        <time>2026-05-14T09:08:01Z</time>
      </trkpt>
      <trkpt lat="43.74412" lon="7.37767">
        <ele>415.6</ele>
        <time>2026-05-14T09:08:02Z</time>
      </trkpt>
      <trkpt lat="43.7441" lon="7.37765">
        <ele>415.5</ele>
        <time>2026-05-14T09:08:03Z</time>
      </trkpt>
      <trkpt lat="43.74408" lon="7.37764">
        <ele>415.5</ele>
        <time>2026-05-14T09:08:04Z</time>
      </trkpt>
      <trkpt lat="43.74406" lon="7.37763">
        <ele>415.5</ele>
        <time>2026-05-14T09:08:05Z</time>
      </trkpt>
      <trkpt lat="43.74405" lon="7.3776">
        <ele>415.4</ele>
        <time>2026-05-14T09:08:06Z</time>
      </trkpt>
      <trkpt lat="43.74404" lon="7.37757">
        <ele>415.3</ele>
        <time>2026-05-14T09:08:07Z</time>
      </trkpt>
      <trkpt lat="43.74404" lon="7.37753">
        <ele>415.1</ele>
        <time>2026-05-14T09:08:08Z</time>
      </trkpt>
      <trkpt lat="43.74405" lon="7.3775">
        <ele>415</ele>
        <time>2026-05-14T09:08:09Z</time>
      </trkpt>
      <trkpt lat="43.74406" lon="7.37746">
        <ele>415</ele>
        <time>2026-05-14T09:08:10Z</time>
      </trkpt>
      <trkpt lat="43.74408" lon="7.37742">
        <ele>415</ele>
        <time>2026-05-14T09:08:11Z</time>
      </trkpt>
      <trkpt lat="43.74409" lon="7.37738">
        <ele>415</ele>
        <time>2026-05-14T09:08:12Z</time>
      </trkpt>
      <trkpt lat="43.74411" lon="7.37734">
        <ele>415</ele>
        <time>2026-05-14T09:08:13Z</time>
      </trkpt>
      <trkpt lat="43.74411" lon="7.3773">
        <ele>415</ele>
        <time>2026-05-14T09:08:14Z</time>
      </trkpt>
      <trkpt lat="43.74412" lon="7.37727">
        <ele>415</ele>
        <time>2026-05-14T09:08:15Z</time>
      </trkpt>
      <trkpt lat="43.74412" lon="7.37723">
        <ele>415</ele>
        <time>2026-05-14T09:08:16Z</time>
      </trkpt>
      <trkpt lat="43.74413" lon="7.37719">
        <ele>414.9</ele>
        <time>2026-05-14T09:08:17Z</time>
      </trkpt>
      <trkpt lat="43.74413" lon="7.37714">
        <ele>414.7</ele>
        <time>2026-05-14T09:08:18Z</time>
      </trkpt>
      <trkpt lat="43.74413" lon="7.37708">
        <ele>414.6</ele>
        <time>2026-05-14T09:08:19Z</time>
      </trkpt>
      <trkpt lat="43.74411" lon="7.37698">
        <ele>414.3</ele>
        <time>2026-05-14T09:08:20Z</time>
      </trkpt>
      <trkpt lat="43.7441" lon="7.37689">
        <ele>413.9</ele>
        <time>2026-05-14T09:08:21Z</time>
      </trkpt>
      <trkpt lat="43.74409" lon="7.37681">
        <ele>413.6</ele>
        <time>2026-05-14T09:08:22Z</time>
      </trkpt>
      <trkpt lat="43.74408" lon="7.37671">
        <ele>413.2</ele>
        <time>2026-05-14T09:08:23Z</time>
      </trkpt>
      <trkpt lat="43.74407" lon="7.37662">
        <ele>412.8</ele>
        <time>2026-05-14T09:08:24Z</time>
      </trkpt>
      <trkpt lat="43.74406" lon="7.37654">
        <ele>412.6</ele>
        <time>2026-05-14T09:08:25Z</time>
      </trkpt>
      <trkpt lat="43.74405" lon="7.37649">
        <ele>412.5</ele>
        <time>2026-05-14T09:08:26Z</time>
      </trkpt>
      <trkpt lat="43.74405" lon="7.37645">
        <ele>412.4</ele>
        <time>2026-05-14T09:08:27Z</time>
      </trkpt>
      <trkpt lat="43.74404" lon="7.37644">
        <ele>412.5</ele>
        <time>2026-05-14T09:08:28Z</time>
      </trkpt>
      <trkpt lat="43.74404" lon="7.37644">
        <ele>412.5</ele>
        <time>2026-05-14T09:08:29Z</time>
      </trkpt>
      <trkpt lat="43.74404" lon="7.37644">
        <ele>412.5</ele>
        <time>2026-05-14T09:08:30Z</time>
      </trkpt>
      <trkpt lat="43.74404" lon="7.37644">
        <ele>412.5</ele>
        <time>2026-05-14T09:08:31Z</time>
      </trkpt>
      <trkpt lat="43.74404" lon="7.37643">
        <ele>412.4</ele>
        <time>2026-05-14T09:08:32Z</time>
      </trkpt>
      <trkpt lat="43.74404" lon="7.37643">
        <ele>412.4</ele>
        <time>2026-05-14T09:08:33Z</time>
      </trkpt>
      <trkpt lat="43.74403" lon="7.37644">
        <ele>412.6</ele>
        <time>2026-05-14T09:08:34Z</time>
      </trkpt>
      <trkpt lat="43.74403" lon="7.37644">
        <ele>412.6</ele>
        <time>2026-05-14T09:08:35Z</time>
      </trkpt>
      <trkpt lat="43.74403" lon="7.37644">
        <ele>412.6</ele>
        <time>2026-05-14T09:08:36Z</time>
      </trkpt>
      <trkpt lat="43.74403" lon="7.37645">
        <ele>412.7</ele>
        <time>2026-05-14T09:08:37Z</time>
      </trkpt>
      <trkpt lat="43.74403" lon="7.37645">
        <ele>412.7</ele>
        <time>2026-05-14T09:08:38Z</time>
      </trkpt>
      <trkpt lat="43.74403" lon="7.37644">
        <ele>412.6</ele>
        <time>2026-05-14T09:08:39Z</time>
      </trkpt>
      <trkpt lat="43.74401" lon="7.37641">
        <ele>412.9</ele>
        <time>2026-05-14T09:08:40Z</time>
      </trkpt>
      <trkpt lat="43.74399" lon="7.37635">
        <ele>413</ele>
        <time>2026-05-14T09:08:41Z</time>
      </trkpt>
      <trkpt lat="43.74396" lon="7.37625">
        <ele>413.3</ele>
        <time>2026-05-14T09:08:42Z</time>
      </trkpt>
      <trkpt lat="43.74393" lon="7.37614">
        <ele>413.9</ele>
        <time>2026-05-14T09:08:43Z</time>
      </trkpt>
      <trkpt lat="43.74392" lon="7.37599">
        <ele>413.8</ele>
        <time>2026-05-14T09:08:44Z</time>
      </trkpt>
      <trkpt lat="43.74391" lon="7.37582">
        <ele>413.9</ele>
        <time>2026-05-14T09:08:45Z</time>
      </trkpt>
      <trkpt lat="43.74391" lon="7.37562">
        <ele>413.1</ele>
        <time>2026-05-14T09:08:46Z</time>
      </trkpt>
      <trkpt lat="43.74391" lon="7.37543">
        <ele>412.9</ele>
        <time>2026-05-14T09:08:47Z</time>
      </trkpt>
      <trkpt lat="43.74392" lon="7.37524">
        <ele>412.6</ele>
        <time>2026-05-14T09:08:48Z</time>
      </trkpt>
      <trkpt lat="43.74392" lon="7.37503">
        <ele>412.9</ele>
        <time>2026-05-14T09:08:49Z</time>
      </trkpt>
      <trkpt lat="43.74393" lon="7.37482">
        <ele>412.9</ele>
        <time>2026-05-14T09:08:50Z</time>
      </trkpt>
      <trkpt lat="43.74395" lon="7.37459">
        <ele>412.6</ele>
        <time>2026-05-14T09:08:51Z</time>
      </trkpt>
      <trkpt lat="43.74396" lon="7.37434">
        <ele>412.5</ele>
        <time>2026-05-14T09:08:52Z</time>
      </trkpt>
      <trkpt lat="43.74398" lon="7.37408">
        <ele>412.2</ele>
        <time>2026-05-14T09:08:53Z</time>
      </trkpt>
      <trkpt lat="43.744" lon="7.3738">
        <ele>412.8</ele>
        <time>2026-05-14T09:08:54Z</time>
      </trkpt>
      <trkpt lat="43.74402" lon="7.37351">
        <ele>413.7</ele>
        <time>2026-05-14T09:08:55Z</time>
      </trkpt>
      <trkpt lat="43.74404" lon="7.37323">
        <ele>414</ele>
        <time>2026-05-14T09:08:56Z</time>
      </trkpt>
      <trkpt lat="43.74407" lon="7.37293">
        <ele>413.7</ele>
        <time>2026-05-14T09:08:57Z</time>
      </trkpt>
      <trkpt lat="43.7441" lon="7.37264">
        <ele>413.2</ele>
        <time>2026-05-14T09:08:58Z</time>
      </trkpt>
      <trkpt lat="43.74413" lon="7.37236">
        <ele>413.1</ele>
        <time>2026-05-14T09:08:59Z</time>
      </trkpt>
      <trkpt lat="43.74415" lon="7.37208">
        <ele>413.1</ele>
        <time>2026-05-14T09:09:00Z</time>
      </trkpt>
      <trkpt lat="43.74418" lon="7.37179">
        <ele>413.2</ele>
        <time>2026-05-14T09:09:01Z</time>
      </trkpt>
      <trkpt lat="43.74421" lon="7.37151">
        <ele>413.4</ele>
        <time>2026-05-14T09:09:02Z</time>
      </trkpt>
      <trkpt lat="43.74424" lon="7.37122">
        <ele>413.1</ele>
        <time>2026-05-14T09:09:03Z</time>
      </trkpt>
      <trkpt lat="43.74427" lon="7.37092">
        <ele>411.8</ele>
        <time>2026-05-14T09:09:04Z</time>
      </trkpt>
      <trkpt lat="43.74431" lon="7.37063">
        <ele>408.7</ele>
        <time>2026-05-14T09:09:05Z</time>
      </trkpt>
      <trkpt lat="43.74435" lon="7.37034">
        <ele>410.3</ele>
        <time>2026-05-14T09:09:06Z</time>
      </trkpt>
      <trkpt lat="43.7444" lon="7.37006">
        <ele>410.5</ele>
        <time>2026-05-14T09:09:07Z</time>
      </trkpt>
      <trkpt lat="43.74445" lon="7.36978">
        <ele>409.7</ele>
        <time>2026-05-14T09:09:08Z</time>
      </trkpt>
      <trkpt lat="43.74452" lon="7.36949">
        <ele>407</ele>
        <time>2026-05-14T09:09:09Z</time>
      </trkpt>
      <trkpt lat="43.74458" lon="7.36921">
        <ele>408</ele>
        <time>2026-05-14T09:09:10Z</time>
      </trkpt>
      <trkpt lat="43.74465" lon="7.36893">
        <ele>408.2</ele>
        <time>2026-05-14T09:09:11Z</time>
      </trkpt>
      <trkpt lat="43.74472" lon="7.36867">
        <ele>408</ele>
        <time>2026-05-14T09:09:12Z</time>
      </trkpt>
      <trkpt lat="43.7448" lon="7.36839">
        <ele>404.8</ele>
        <time>2026-05-14T09:09:13Z</time>
      </trkpt>
      <trkpt lat="43.74488" lon="7.36812">
        <ele>405.1</ele>
        <time>2026-05-14T09:09:14Z</time>
      </trkpt>
      <trkpt lat="43.74497" lon="7.36785">
        <ele>405.3</ele>
        <time>2026-05-14T09:09:15Z</time>
      </trkpt>
      <trkpt lat="43.74506" lon="7.36758">
        <ele>402.7</ele>
        <time>2026-05-14T09:09:16Z</time>
      </trkpt>
      <trkpt lat="43.74513" lon="7.36732">
        <ele>402</ele>
        <time>2026-05-14T09:09:17Z</time>
      </trkpt>
      <trkpt lat="43.74521" lon="7.36706">
        <ele>402.3</ele>
        <time>2026-05-14T09:09:18Z</time>
      </trkpt>
      <trkpt lat="43.74529" lon="7.3668">
        <ele>401.6</ele>
        <time>2026-05-14T09:09:19Z</time>
      </trkpt>
      <trkpt lat="43.74536" lon="7.36653">
        <ele>400.1</ele>
        <time>2026-05-14T09:09:20Z</time>
      </trkpt>
      <trkpt lat="43.74542" lon="7.36626">
        <ele>399.7</ele>
        <time>2026-05-14T09:09:21Z</time>
      </trkpt>
      <trkpt lat="43.74547" lon="7.36599">
        <ele>399.8</ele>
        <time>2026-05-14T09:09:22Z</time>
      </trkpt>
      <trkpt lat="43.74551" lon="7.3657">
        <ele>398.6</ele>
        <time>2026-05-14T09:09:23Z</time>
      </trkpt>
      <trkpt lat="43.74553" lon="7.36541">
        <ele>397.1</ele>
        <time>2026-05-14T09:09:24Z</time>
      </trkpt>
      <trkpt lat="43.74554" lon="7.36511">
        <ele>395.6</ele>
        <time>2026-05-14T09:09:25Z</time>
      </trkpt>
      <trkpt lat="43.74554" lon="7.3648">
        <ele>394.6</ele>
        <time>2026-05-14T09:09:26Z</time>
      </trkpt>
      <trkpt lat="43.74552" lon="7.36449">
        <ele>393.6</ele>
        <time>2026-05-14T09:09:27Z</time>
      </trkpt>
      <trkpt lat="43.74548" lon="7.36418">
        <ele>391.7</ele>
        <time>2026-05-14T09:09:28Z</time>
      </trkpt>
      <trkpt lat="43.74545" lon="7.36387">
        <ele>388.1</ele>
        <time>2026-05-14T09:09:29Z</time>
      </trkpt>
      <trkpt lat="43.7454" lon="7.36357">
        <ele>384.6</ele>
        <time>2026-05-14T09:09:30Z</time>
      </trkpt>
      <trkpt lat="43.74535" lon="7.36326">
        <ele>384.3</ele>
        <time>2026-05-14T09:09:31Z</time>
      </trkpt>
      <trkpt lat="43.74528" lon="7.36296">
        <ele>384.6</ele>
        <time>2026-05-14T09:09:32Z</time>
      </trkpt>
      <trkpt lat="43.74521" lon="7.36267">
        <ele>383.7</ele>
        <time>2026-05-14T09:09:33Z</time>
      </trkpt>
      <trkpt lat="43.74514" lon="7.36238">
        <ele>380.9</ele>
        <time>2026-05-14T09:09:34Z</time>
      </trkpt>
      <trkpt lat="43.74507" lon="7.3621">
        <ele>379.4</ele>
        <time>2026-05-14T09:09:35Z</time>
      </trkpt>
      <trkpt lat="43.74501" lon="7.36182">
        <ele>378.8</ele>
        <time>2026-05-14T09:09:36Z</time>
      </trkpt>
      <trkpt lat="43.74494" lon="7.36153">
        <ele>377.5</ele>
        <time>2026-05-14T09:09:37Z</time>
      </trkpt>
      <trkpt lat="43.74487" lon="7.36124">
        <ele>376.2</ele>
        <time>2026-05-14T09:09:38Z</time>
      </trkpt>
      <trkpt lat="43.74481" lon="7.36094">
        <ele>374.3</ele>
        <time>2026-05-14T09:09:39Z</time>
      </trkpt>
      <trkpt lat="43.74475" lon="7.36063">
        <ele>372.9</ele>
        <time>2026-05-14T09:09:40Z</time>
      </trkpt>
      <trkpt lat="43.7447" lon="7.36033">
        <ele>372.5</ele>
        <time>2026-05-14T09:09:41Z</time>
      </trkpt>
      <trkpt lat="43.74465" lon="7.36002">
        <ele>372.7</ele>
        <time>2026-05-14T09:09:42Z</time>
      </trkpt>
      <trkpt lat="43.7446" lon="7.35971">
        <ele>371.4</ele>
        <time>2026-05-14T09:09:43Z</time>
      </trkpt>
      <trkpt lat="43.74456" lon="7.3594">
        <ele>368.5</ele>
        <time>2026-05-14T09:09:44Z</time>
      </trkpt>
      <trkpt lat="43.74452" lon="7.3591">
        <ele>366.8</ele>
        <time>2026-05-14T09:09:45Z</time>
      </trkpt>
      <trkpt lat="43.74448" lon="7.35881">
        <ele>364.3</ele>
        <time>2026-05-14T09:09:46Z</time>
      </trkpt>
      <trkpt lat="43.74445" lon="7.35851">
        <ele>362.6</ele>
        <time>2026-05-14T09:09:47Z</time>
      </trkpt>
      <trkpt lat="43.74442" lon="7.35822">
        <ele>363.5</ele>
        <time>2026-05-14T09:09:48Z</time>
      </trkpt>
      <trkpt lat="43.74439" lon="7.35792">
        <ele>364.4</ele>
        <time>2026-05-14T09:09:49Z</time>
      </trkpt>
      <trkpt lat="43.74436" lon="7.35763">
        <ele>364.8</ele>
        <time>2026-05-14T09:09:50Z</time>
      </trkpt>
      <trkpt lat="43.74434" lon="7.35733">
        <ele>362.5</ele>
        <time>2026-05-14T09:09:51Z</time>
      </trkpt>
      <trkpt lat="43.74431" lon="7.35703">
        <ele>359.3</ele>
        <time>2026-05-14T09:09:52Z</time>
      </trkpt>
      <trkpt lat="43.74428" lon="7.35673">
        <ele>356.6</ele>
        <time>2026-05-14T09:09:53Z</time>
      </trkpt>
      <trkpt lat="43.74425" lon="7.35643">
        <ele>354.2</ele>
        <time>2026-05-14T09:09:54Z</time>
      </trkpt>
      <trkpt lat="43.74422" lon="7.35612">
        <ele>350.9</ele>
        <time>2026-05-14T09:09:55Z</time>
      </trkpt>
      <trkpt lat="43.74419" lon="7.35583">
        <ele>349.8</ele>
        <time>2026-05-14T09:09:56Z</time>
      </trkpt>
      <trkpt lat="43.74415" lon="7.35553">
        <ele>350.8</ele>
        <time>2026-05-14T09:09:57Z</time>
      </trkpt>
      <trkpt lat="43.74411" lon="7.35524">
        <ele>353.2</ele>
        <time>2026-05-14T09:09:58Z</time>
      </trkpt>
      <trkpt lat="43.74407" lon="7.35495">
        <ele>354.1</ele>
        <time>2026-05-14T09:09:59Z</time>
      </trkpt>
      <trkpt lat="43.74403" lon="7.35467">
        <ele>353</ele>
        <time>2026-05-14T09:10:00Z</time>
      </trkpt>
      <trkpt lat="43.74399" lon="7.35437">
        <ele>349.8</ele>
        <time>2026-05-14T09:10:01Z</time>
      </trkpt>
      <trkpt lat="43.74396" lon="7.35408">
        <ele>345.2</ele>
        <time>2026-05-14T09:10:02Z</time>
      </trkpt>
      <trkpt lat="43.74392" lon="7.35379">
        <ele>340.5</ele>
        <time>2026-05-14T09:10:03Z</time>
      </trkpt>
      <trkpt lat="43.74388" lon="7.35349">
        <ele>340.7</ele>
        <time>2026-05-14T09:10:04Z</time>
      </trkpt>
      <trkpt lat="43.74384" lon="7.35321">
        <ele>344.1</ele>
        <time>2026-05-14T09:10:05Z</time>
      </trkpt>
      <trkpt lat="43.74381" lon="7.35293">
        <ele>344.9</ele>
        <time>2026-05-14T09:10:06Z</time>
      </trkpt>
      <trkpt lat="43.74379" lon="7.35265">
        <ele>344.3</ele>
        <time>2026-05-14T09:10:07Z</time>
      </trkpt>
      <trkpt lat="43.74379" lon="7.35238">
        <ele>342.7</ele>
        <time>2026-05-14T09:10:08Z</time>
      </trkpt>
      <trkpt lat="43.74379" lon="7.3521">
        <ele>338.7</ele>
        <time>2026-05-14T09:10:09Z</time>
      </trkpt>
      <trkpt lat="43.7438" lon="7.35183">
        <ele>334.9</ele>
        <time>2026-05-14T09:10:10Z</time>
      </trkpt>
      <trkpt lat="43.74382" lon="7.35155">
        <ele>333.8</ele>
        <time>2026-05-14T09:10:11Z</time>
      </trkpt>
      <trkpt lat="43.74385" lon="7.35129">
        <ele>332.9</ele>
        <time>2026-05-14T09:10:12Z</time>
      </trkpt>
      <trkpt lat="43.74389" lon="7.35102">
        <ele>331.7</ele>
        <time>2026-05-14T09:10:13Z</time>
      </trkpt>
      <trkpt lat="43.74394" lon="7.35077">
        <ele>330.6</ele>
        <time>2026-05-14T09:10:14Z</time>
      </trkpt>
      <trkpt lat="43.74399" lon="7.35052">
        <ele>329.4</ele>
        <time>2026-05-14T09:10:15Z</time>
      </trkpt>
      <trkpt lat="43.74404" lon="7.35027">
        <ele>328.1</ele>
        <time>2026-05-14T09:10:16Z</time>
      </trkpt>
      <trkpt lat="43.74409" lon="7.35003">
        <ele>328</ele>
        <time>2026-05-14T09:10:17Z</time>
      </trkpt>
      <trkpt lat="43.74414" lon="7.34978">
        <ele>327.4</ele>
        <time>2026-05-14T09:10:18Z</time>
      </trkpt>
      <trkpt lat="43.74419" lon="7.34952">
        <ele>326.4</ele>
        <time>2026-05-14T09:10:19Z</time>
      </trkpt>
      <trkpt lat="43.74422" lon="7.34925">
        <ele>324.8</ele>
        <time>2026-05-14T09:10:20Z</time>
      </trkpt>
      <trkpt lat="43.74424" lon="7.34899">
        <ele>323.3</ele>
        <time>2026-05-14T09:10:21Z</time>
      </trkpt>
      <trkpt lat="43.74425" lon="7.34872">
        <ele>322</ele>
        <time>2026-05-14T09:10:22Z</time>
      </trkpt>
      <trkpt lat="43.74425" lon="7.34845">
        <ele>321.2</ele>
        <time>2026-05-14T09:10:23Z</time>
      </trkpt>
      <trkpt lat="43.74424" lon="7.34815">
        <ele>321.5</ele>
        <time>2026-05-14T09:10:24Z</time>
      </trkpt>
      <trkpt lat="43.74421" lon="7.34785">
        <ele>321.7</ele>
        <time>2026-05-14T09:10:25Z</time>
      </trkpt>
      <trkpt lat="43.74416" lon="7.34755">
        <ele>321.4</ele>
        <time>2026-05-14T09:10:26Z</time>
      </trkpt>
      <trkpt lat="43.74411" lon="7.34725">
        <ele>321.9</ele>
        <time>2026-05-14T09:10:27Z</time>
      </trkpt>
      <trkpt lat="43.74405" lon="7.34694">
        <ele>319.4</ele>
        <time>2026-05-14T09:10:28Z</time>
      </trkpt>
      <trkpt lat="43.74397" lon="7.34663">
        <ele>316.6</ele>
        <time>2026-05-14T09:10:29Z</time>
      </trkpt>
      <trkpt lat="43.74389" lon="7.34633">
        <ele>318</ele>
        <time>2026-05-14T09:10:30Z</time>
      </trkpt>
      <trkpt lat="43.7438" lon="7.34605">
        <ele>317.1</ele>
        <time>2026-05-14T09:10:31Z</time>
      </trkpt>
      <trkpt lat="43.7437" lon="7.34577">
        <ele>314.5</ele>
        <time>2026-05-14T09:10:32Z</time>
      </trkpt>
      <trkpt lat="43.74361" lon="7.34548">
        <ele>315.8</ele>
        <time>2026-05-14T09:10:33Z</time>
      </trkpt>
      <trkpt lat="43.7435" lon="7.3452">
        <ele>315.3</ele>
        <time>2026-05-14T09:10:34Z</time>
      </trkpt>
      <trkpt lat="43.7434" lon="7.34491">
        <ele>314.5</ele>
        <time>2026-05-14T09:10:35Z</time>
      </trkpt>
      <trkpt lat="43.74329" lon="7.34462">
        <ele>312.9</ele>
        <time>2026-05-14T09:10:36Z</time>
      </trkpt>
      <trkpt lat="43.7432" lon="7.34432">
        <ele>312</ele>
        <time>2026-05-14T09:10:37Z</time>
      </trkpt>
      <trkpt lat="43.74313" lon="7.34401">
        <ele>311.5</ele>
        <time>2026-05-14T09:10:38Z</time>
      </trkpt>
      <trkpt lat="43.74307" lon="7.34369">
        <ele>310.3</ele>
        <time>2026-05-14T09:10:39Z</time>
      </trkpt>
      <trkpt lat="43.74304" lon="7.34337">
        <ele>309.1</ele>
        <time>2026-05-14T09:10:40Z</time>
      </trkpt>
      <trkpt lat="43.74303" lon="7.34305">
        <ele>307.9</ele>
        <time>2026-05-14T09:10:41Z</time>
      </trkpt>
      <trkpt lat="43.74304" lon="7.34272">
        <ele>307.7</ele>
        <time>2026-05-14T09:10:42Z</time>
      </trkpt>
      <trkpt lat="43.74306" lon="7.34239">
        <ele>306.4</ele>
        <time>2026-05-14T09:10:43Z</time>
      </trkpt>
      <trkpt lat="43.74311" lon="7.34206">
        <ele>304.3</ele>
        <time>2026-05-14T09:10:44Z</time>
      </trkpt>
      <trkpt lat="43.74316" lon="7.34174">
        <ele>303.1</ele>
        <time>2026-05-14T09:10:45Z</time>
      </trkpt>
      <trkpt lat="43.74323" lon="7.34143">
        <ele>302.3</ele>
        <time>2026-05-14T09:10:46Z</time>
      </trkpt>
      <trkpt lat="43.7433" lon="7.34113">
        <ele>302.9</ele>
        <time>2026-05-14T09:10:47Z</time>
      </trkpt>
      <trkpt lat="43.74337" lon="7.34084">
        <ele>301.9</ele>
        <time>2026-05-14T09:10:48Z</time>
      </trkpt>
      <trkpt lat="43.74345" lon="7.34056">
        <ele>299.9</ele>
        <time>2026-05-14T09:10:49Z</time>
      </trkpt>
      <trkpt lat="43.74352" lon="7.34028">
        <ele>300.3</ele>
        <time>2026-05-14T09:10:50Z</time>
      </trkpt>
      <trkpt lat="43.74358" lon="7.33999">
        <ele>300.5</ele>
        <time>2026-05-14T09:10:51Z</time>
      </trkpt>
      <trkpt lat="43.74364" lon="7.3397">
        <ele>299</ele>
        <time>2026-05-14T09:10:52Z</time>
      </trkpt>
      <trkpt lat="43.74368" lon="7.3394">
        <ele>297.5</ele>
        <time>2026-05-14T09:10:53Z</time>
      </trkpt>
      <trkpt lat="43.74371" lon="7.3391">
        <ele>297.2</ele>
        <time>2026-05-14T09:10:54Z</time>
      </trkpt>
      <trkpt lat="43.74371" lon="7.3388">
        <ele>297.4</ele>
        <time>2026-05-14T09:10:55Z</time>
      </trkpt>
      <trkpt lat="43.74371" lon="7.33849">
        <ele>298.2</ele>
        <time>2026-05-14T09:10:56Z</time>
      </trkpt>
      <trkpt lat="43.74369" lon="7.33819">
        <ele>297.5</ele>
        <time>2026-05-14T09:10:57Z</time>
      </trkpt>
      <trkpt lat="43.74365" lon="7.33788">
        <ele>295.3</ele>
        <time>2026-05-14T09:10:58Z</time>
      </trkpt>
      <trkpt lat="43.7436" lon="7.33758">
        <ele>293.2</ele>
        <time>2026-05-14T09:10:59Z</time>
      </trkpt>
      <trkpt lat="43.74352" lon="7.33728">
        <ele>294.3</ele>
        <time>2026-05-14T09:11:00Z</time>
      </trkpt>
      <trkpt lat="43.74343" lon="7.33699">
        <ele>293.1</ele>
        <time>2026-05-14T09:11:01Z</time>
      </trkpt>
      <trkpt lat="43.74332" lon="7.3367">
        <ele>289.1</ele>
        <time>2026-05-14T09:11:02Z</time>
      </trkpt>
      <trkpt lat="43.74321" lon="7.33642">
        <ele>289.8</ele>
        <time>2026-05-14T09:11:03Z</time>
      </trkpt>
      <trkpt lat="43.74308" lon="7.33614">
        <ele>286.4</ele>
        <time>2026-05-14T09:11:04Z</time>
      </trkpt>
      <trkpt lat="43.74295" lon="7.33587">
        <ele>282.9</ele>
        <time>2026-05-14T09:11:05Z</time>
      </trkpt>
      <trkpt lat="43.74282" lon="7.33559">
        <ele>281</ele>
        <time>2026-05-14T09:11:06Z</time>
      </trkpt>
      <trkpt lat="43.74268" lon="7.33531">
        <ele>277.5</ele>
        <time>2026-05-14T09:11:07Z</time>
      </trkpt>
      <trkpt lat="43.74255" lon="7.33505">
        <ele>276.4</ele>
        <time>2026-05-14T09:11:08Z</time>
      </trkpt>
      <trkpt lat="43.74243" lon="7.33478">
        <ele>273.1</ele>
        <time>2026-05-14T09:11:09Z</time>
      </trkpt>
      <trkpt lat="43.7423" lon="7.3345">
        <ele>271.1</ele>
        <time>2026-05-14T09:11:10Z</time>
      </trkpt>
      <trkpt lat="43.74219" lon="7.33423">
        <ele>272.7</ele>
        <time>2026-05-14T09:11:11Z</time>
      </trkpt>
      <trkpt lat="43.74209" lon="7.33395">
        <ele>268.8</ele>
        <time>2026-05-14T09:11:12Z</time>
      </trkpt>
      <trkpt lat="43.74199" lon="7.33367">
        <ele>267.7</ele>
        <time>2026-05-14T09:11:13Z</time>
      </trkpt>
      <trkpt lat="43.7419" lon="7.33338">
        <ele>270.2</ele>
        <time>2026-05-14T09:11:14Z</time>
      </trkpt>
      <trkpt lat="43.74182" lon="7.33309">
        <ele>267</ele>
        <time>2026-05-14T09:11:15Z</time>
      </trkpt>
      <trkpt lat="43.74175" lon="7.33279">
        <ele>262.6</ele>
        <time>2026-05-14T09:11:16Z</time>
      </trkpt>
      <trkpt lat="43.74168" lon="7.33248">
        <ele>263.7</ele>
        <time>2026-05-14T09:11:17Z</time>
      </trkpt>
      <trkpt lat="43.74162" lon="7.33217">
        <ele>263.9</ele>
        <time>2026-05-14T09:11:18Z</time>
      </trkpt>
      <trkpt lat="43.74157" lon="7.33186">
        <ele>260.3</ele>
        <time>2026-05-14T09:11:19Z</time>
      </trkpt>
      <trkpt lat="43.74152" lon="7.33156">
        <ele>257.5</ele>
        <time>2026-05-14T09:11:20Z</time>
      </trkpt>
      <trkpt lat="43.74148" lon="7.33125">
        <ele>254.7</ele>
        <time>2026-05-14T09:11:21Z</time>
      </trkpt>
      <trkpt lat="43.74144" lon="7.33093">
        <ele>253.8</ele>
        <time>2026-05-14T09:11:22Z</time>
      </trkpt>
      <trkpt lat="43.74141" lon="7.33062">
        <ele>253.8</ele>
        <time>2026-05-14T09:11:23Z</time>
      </trkpt>
      <trkpt lat="43.74137" lon="7.33031">
        <ele>254.8</ele>
        <time>2026-05-14T09:11:24Z</time>
      </trkpt>
      <trkpt lat="43.74133" lon="7.33001">
        <ele>252.1</ele>
        <time>2026-05-14T09:11:25Z</time>
      </trkpt>
      <trkpt lat="43.74129" lon="7.32971">
        <ele>249.4</ele>
        <time>2026-05-14T09:11:26Z</time>
      </trkpt>
      <trkpt lat="43.74125" lon="7.32941">
        <ele>247.7</ele>
        <time>2026-05-14T09:11:27Z</time>
      </trkpt>
      <trkpt lat="43.74121" lon="7.32911">
        <ele>245.8</ele>
        <time>2026-05-14T09:11:28Z</time>
      </trkpt>
      <trkpt lat="43.74115" lon="7.32881">
        <ele>245.3</ele>
        <time>2026-05-14T09:11:29Z</time>
      </trkpt>
      <trkpt lat="43.74109" lon="7.32851">
        <ele>246.3</ele>
        <time>2026-05-14T09:11:30Z</time>
      </trkpt>
      <trkpt lat="43.74101" lon="7.32821">
        <ele>244.5</ele>
        <time>2026-05-14T09:11:31Z</time>
      </trkpt>
      <trkpt lat="43.74093" lon="7.32792">
        <ele>242</ele>
        <time>2026-05-14T09:11:32Z</time>
      </trkpt>
      <trkpt lat="43.74083" lon="7.32764">
        <ele>241.1</ele>
        <time>2026-05-14T09:11:33Z</time>
      </trkpt>
      <trkpt lat="43.74072" lon="7.32736">
        <ele>241.1</ele>
        <time>2026-05-14T09:11:34Z</time>
      </trkpt>
      <trkpt lat="43.7406" lon="7.3271">
        <ele>238</ele>
        <time>2026-05-14T09:11:35Z</time>
      </trkpt>
      <trkpt lat="43.74047" lon="7.32685">
        <ele>237</ele>
        <time>2026-05-14T09:11:36Z</time>
      </trkpt>
      <trkpt lat="43.74033" lon="7.32661">
        <ele>234.7</ele>
        <time>2026-05-14T09:11:37Z</time>
      </trkpt>
      <trkpt lat="43.7402" lon="7.32637">
        <ele>233.3</ele>
        <time>2026-05-14T09:11:38Z</time>
      </trkpt>
      <trkpt lat="43.74006" lon="7.32613">
        <ele>230.9</ele>
        <time>2026-05-14T09:11:39Z</time>
      </trkpt>
      <trkpt lat="43.73992" lon="7.3259">
        <ele>222.8</ele>
        <time>2026-05-14T09:11:40Z</time>
      </trkpt>
      <trkpt lat="43.73978" lon="7.32567">
        <ele>210.1</ele>
        <time>2026-05-14T09:11:41Z</time>
      </trkpt>
      <trkpt lat="43.73964" lon="7.32544">
        <ele>194.1</ele>
        <time>2026-05-14T09:11:42Z</time>
      </trkpt>
      <trkpt lat="43.73949" lon="7.32521">
        <ele>168.6</ele>
        <time>2026-05-14T09:11:43Z</time>
      </trkpt>
      <trkpt lat="43.73935" lon="7.32497">
        <ele>151.7</ele>
        <time>2026-05-14T09:11:44Z</time>
      </trkpt>
      <trkpt lat="43.73919" lon="7.32472">
        <ele>144.2</ele>
        <time>2026-05-14T09:11:45Z</time>
      </trkpt>
      <trkpt lat="43.73904" lon="7.32448">
        <ele>141.6</ele>
        <time>2026-05-14T09:11:46Z</time>
      </trkpt>
      <trkpt lat="43.73889" lon="7.32423">
        <ele>146.1</ele>
        <time>2026-05-14T09:11:47Z</time>
      </trkpt>
      <trkpt lat="43.73874" lon="7.32399">
        <ele>159.6</ele>
        <time>2026-05-14T09:11:48Z</time>
      </trkpt>
      <trkpt lat="43.7386" lon="7.32374">
        <ele>175.8</ele>
        <time>2026-05-14T09:11:49Z</time>
      </trkpt>
      <trkpt lat="43.73845" lon="7.3235">
        <ele>196.7</ele>
        <time>2026-05-14T09:11:50Z</time>
      </trkpt>
      <trkpt lat="43.73831" lon="7.32327">
        <ele>213.6</ele>
        <time>2026-05-14T09:11:51Z</time>
      </trkpt>
      <trkpt lat="43.73816" lon="7.32303">
        <ele>233.5</ele>
        <time>2026-05-14T09:11:52Z</time>
      </trkpt>
      <trkpt lat="43.73801" lon="7.32279">
        <ele>251.1</ele>
        <time>2026-05-14T09:11:53Z</time>
      </trkpt>
      <trkpt lat="43.73787" lon="7.32255">
        <ele>255.2</ele>
        <time>2026-05-14T09:11:54Z</time>
      </trkpt>
      <trkpt lat="43.73656" lon="7.3207">
        <ele>194</ele>
        <time>2026-05-14T09:12:02Z</time>
      </trkpt>
      <trkpt lat="43.73637" lon="7.32048">
        <ele>193.4</ele>
        <time>2026-05-14T09:12:03Z</time>
      </trkpt>
      <trkpt lat="43.73619" lon="7.32027">
        <ele>191.8</ele>
        <time>2026-05-14T09:12:04Z</time>
      </trkpt>
      <trkpt lat="43.73602" lon="7.32005">
        <ele>191.9</ele>
        <time>2026-05-14T09:12:05Z</time>
      </trkpt>
      <trkpt lat="43.73585" lon="7.31982">
        <ele>190.2</ele>
        <time>2026-05-14T09:12:06Z</time>
      </trkpt>
      <trkpt lat="43.73569" lon="7.3196">
        <ele>188.4</ele>
        <time>2026-05-14T09:12:07Z</time>
      </trkpt>
      <trkpt lat="43.73553" lon="7.31936">
        <ele>186.5</ele>
        <time>2026-05-14T09:12:08Z</time>
      </trkpt>
      <trkpt lat="43.73537" lon="7.31913">
        <ele>183.8</ele>
        <time>2026-05-14T09:12:09Z</time>
      </trkpt>
      <trkpt lat="43.73522" lon="7.31888">
        <ele>181.9</ele>
        <time>2026-05-14T09:12:10Z</time>
      </trkpt>
      <trkpt lat="43.73507" lon="7.31863">
        <ele>174.6</ele>
        <time>2026-05-14T09:12:11Z</time>
      </trkpt>
      <trkpt lat="43.73493" lon="7.31837">
        <ele>171.8</ele>
        <time>2026-05-14T09:12:12Z</time>
      </trkpt>
      <trkpt lat="43.73479" lon="7.31811">
        <ele>164.1</ele>
        <time>2026-05-14T09:12:13Z</time>
      </trkpt>
      <trkpt lat="43.73466" lon="7.31785">
        <ele>154.7</ele>
        <time>2026-05-14T09:12:14Z</time>
      </trkpt>
      <trkpt lat="43.73454" lon="7.31758">
        <ele>141.1</ele>
        <time>2026-05-14T09:12:15Z</time>
      </trkpt>
      <trkpt lat="43.73442" lon="7.31731">
        <ele>130.4</ele>
        <time>2026-05-14T09:12:16Z</time>
      </trkpt>
      <trkpt lat="43.7343" lon="7.31704">
        <ele>121.6</ele>
        <time>2026-05-14T09:12:17Z</time>
      </trkpt>
      <trkpt lat="43.73419" lon="7.31677">
        <ele>119.3</ele>
        <time>2026-05-14T09:12:18Z</time>
      </trkpt>
      <trkpt lat="43.73408" lon="7.31648">
        <ele>131.5</ele>
        <time>2026-05-14T09:12:19Z</time>
      </trkpt>
      <trkpt lat="43.73398" lon="7.31619">
        <ele>142.2</ele>
        <time>2026-05-14T09:12:20Z</time>
      </trkpt>
      <trkpt lat="43.73389" lon="7.3159">
        <ele>151.2</ele>
        <time>2026-05-14T09:12:21Z</time>
      </trkpt>
      <trkpt lat="43.7338" lon="7.3156">
        <ele>156.7</ele>
        <time>2026-05-14T09:12:22Z</time>
      </trkpt>
      <trkpt lat="43.73371" lon="7.31529">
        <ele>159.4</ele>
        <time>2026-05-14T09:12:23Z</time>
      </trkpt>
      <trkpt lat="43.73363" lon="7.31499">
        <ele>161.2</ele>
        <time>2026-05-14T09:12:24Z</time>
      </trkpt>
      <trkpt lat="43.73355" lon="7.31468">
        <ele>161.7</ele>
        <time>2026-05-14T09:12:25Z</time>
      </trkpt>
      <trkpt lat="43.73348" lon="7.31436">
        <ele>158.8</ele>
        <time>2026-05-14T09:12:26Z</time>
      </trkpt>
      <trkpt lat="43.7334" lon="7.31405">
        <ele>156.5</ele>
        <time>2026-05-14T09:12:27Z</time>
      </trkpt>
      <trkpt lat="43.73333" lon="7.31374">
        <ele>155.6</ele>
        <time>2026-05-14T09:12:28Z</time>
      </trkpt>
      <trkpt lat="43.73327" lon="7.31343">
        <ele>154.4</ele>
        <time>2026-05-14T09:12:29Z</time>
      </trkpt>
      <trkpt lat="43.73319" lon="7.31312">
        <ele>152.3</ele>
        <time>2026-05-14T09:12:30Z</time>
      </trkpt>
      <trkpt lat="43.73312" lon="7.3128">
        <ele>150.2</ele>
        <time>2026-05-14T09:12:31Z</time>
      </trkpt>
      <trkpt lat="43.73304" lon="7.31249">
        <ele>144.4</ele>
        <time>2026-05-14T09:12:32Z</time>
      </trkpt>
      <trkpt lat="43.73297" lon="7.31217">
        <ele>135.5</ele>
        <time>2026-05-14T09:12:33Z</time>
      </trkpt>
      <trkpt lat="43.7329" lon="7.31186">
        <ele>131.4</ele>
        <time>2026-05-14T09:12:34Z</time>
      </trkpt>
      <trkpt lat="43.73283" lon="7.31154">
        <ele>126.9</ele>
        <time>2026-05-14T09:12:35Z</time>
      </trkpt>
      <trkpt lat="43.73276" lon="7.31122">
        <ele>120.7</ele>
        <time>2026-05-14T09:12:36Z</time>
      </trkpt>
      <trkpt lat="43.7327" lon="7.31091">
        <ele>114.4</ele>
        <time>2026-05-14T09:12:37Z</time>
      </trkpt>
      <trkpt lat="43.73264" lon="7.31059">
        <ele>108.9</ele>
        <time>2026-05-14T09:12:38Z</time>
      </trkpt>
      <trkpt lat="43.73259" lon="7.31028">
        <ele>102.3</ele>
        <time>2026-05-14T09:12:39Z</time>
      </trkpt>
      <trkpt lat="43.73254" lon="7.30997">
        <ele>98.3</ele>
        <time>2026-05-14T09:12:40Z</time>
      </trkpt>
      <trkpt lat="43.73249" lon="7.30966">
        <ele>94.7</ele>
        <time>2026-05-14T09:12:41Z</time>
      </trkpt>
      <trkpt lat="43.73244" lon="7.30935">
        <ele>88.8</ele>
        <time>2026-05-14T09:12:42Z</time>
      </trkpt>
      <trkpt lat="43.7324" lon="7.30903">
        <ele>84.2</ele>
        <time>2026-05-14T09:12:43Z</time>
      </trkpt>
      <trkpt lat="43.73236" lon="7.30872">
        <ele>81.6</ele>
        <time>2026-05-14T09:12:44Z</time>
      </trkpt>
      <trkpt lat="43.73232" lon="7.3084">
        <ele>77.3</ele>
        <time>2026-05-14T09:12:45Z</time>
      </trkpt>
      <trkpt lat="43.73229" lon="7.30808">
        <ele>73.8</ele>
        <time>2026-05-14T09:12:46Z</time>
      </trkpt>
      <trkpt lat="43.73226" lon="7.30777">
        <ele>72.6</ele>
        <time>2026-05-14T09:12:47Z</time>
      </trkpt>
      <trkpt lat="43.73223" lon="7.30745">
        <ele>71.8</ele>
        <time>2026-05-14T09:12:48Z</time>
      </trkpt>
      <trkpt lat="43.7322" lon="7.30714">
        <ele>70.8</ele>
        <time>2026-05-14T09:12:49Z</time>
      </trkpt>
      <trkpt lat="43.73218" lon="7.30683">
        <ele>71.3</ele>
        <time>2026-05-14T09:12:50Z</time>
      </trkpt>
      <trkpt lat="43.73216" lon="7.30652">
        <ele>74.5</ele>
        <time>2026-05-14T09:12:51Z</time>
      </trkpt>
      <trkpt lat="43.73214" lon="7.30621">
        <ele>78.1</ele>
        <time>2026-05-14T09:12:52Z</time>
      </trkpt>
      <trkpt lat="43.73212" lon="7.30589">
        <ele>81.6</ele>
        <time>2026-05-14T09:12:53Z</time>
      </trkpt>
      <trkpt lat="43.73211" lon="7.30558">
        <ele>89</ele>
        <time>2026-05-14T09:12:54Z</time>
      </trkpt>
      <trkpt lat="43.7321" lon="7.30527">
        <ele>98.5</ele>
        <time>2026-05-14T09:12:55Z</time>
      </trkpt>
      <trkpt lat="43.7321" lon="7.30495">
        <ele>106.1</ele>
        <time>2026-05-14T09:12:56Z</time>
      </trkpt>
      <trkpt lat="43.7321" lon="7.30464">
        <ele>110.9</ele>
        <time>2026-05-14T09:12:57Z</time>
      </trkpt>
      <trkpt lat="43.73209" lon="7.30434">
        <ele>111.7</ele>
        <time>2026-05-14T09:12:58Z</time>
      </trkpt>
      <trkpt lat="43.7321" lon="7.30404">
        <ele>111.1</ele>
        <time>2026-05-14T09:12:59Z</time>
      </trkpt>
      <trkpt lat="43.7321" lon="7.30374">
        <ele>110.6</ele>
        <time>2026-05-14T09:13:00Z</time>
      </trkpt>
      <trkpt lat="43.73211" lon="7.30345">
        <ele>109.8</ele>
        <time>2026-05-14T09:13:01Z</time>
      </trkpt>
      <trkpt lat="43.73211" lon="7.30315">
        <ele>108.4</ele>
        <time>2026-05-14T09:13:02Z</time>
      </trkpt>
      <trkpt lat="43.73211" lon="7.30285">
        <ele>107.1</ele>
        <time>2026-05-14T09:13:03Z</time>
      </trkpt>
      <trkpt lat="43.73212" lon="7.30253">
        <ele>105.8</ele>
        <time>2026-05-14T09:13:04Z</time>
      </trkpt>
      <trkpt lat="43.73213" lon="7.30222">
        <ele>105</ele>
        <time>2026-05-14T09:13:05Z</time>
      </trkpt>
      <trkpt lat="43.73214" lon="7.30191">
        <ele>103.2</ele>
        <time>2026-05-14T09:13:06Z</time>
      </trkpt>
      <trkpt lat="43.73216" lon="7.30159">
        <ele>100.6</ele>
        <time>2026-05-14T09:13:07Z</time>
      </trkpt>
      <trkpt lat="43.73218" lon="7.30128">
        <ele>100.6</ele>
        <time>2026-05-14T09:13:08Z</time>
      </trkpt>
      <trkpt lat="43.7322" lon="7.30097">
        <ele>100</ele>
        <time>2026-05-14T09:13:09Z</time>
      </trkpt>
      <trkpt lat="43.73223" lon="7.30067">
        <ele>97.9</ele>
        <time>2026-05-14T09:13:10Z</time>
      </trkpt>
      <trkpt lat="43.73227" lon="7.30036">
        <ele>94.5</ele>
        <time>2026-05-14T09:13:11Z</time>
      </trkpt>
      <trkpt lat="43.73231" lon="7.30005">
        <ele>93.3</ele>
        <time>2026-05-14T09:13:12Z</time>
      </trkpt>
      <trkpt lat="43.73235" lon="7.29975">
        <ele>92.7</ele>
        <time>2026-05-14T09:13:13Z</time>
      </trkpt>
      <trkpt lat="43.7324" lon="7.29944">
        <ele>94.2</ele>
        <time>2026-05-14T09:13:14Z</time>
      </trkpt>
      <trkpt lat="43.73246" lon="7.29914">
        <ele>93.5</ele>
        <time>2026-05-14T09:13:15Z</time>
      </trkpt>
      <trkpt lat="43.73251" lon="7.29884">
        <ele>90.3</ele>
        <time>2026-05-14T09:13:16Z</time>
      </trkpt>
      <trkpt lat="43.73256" lon="7.29854">
        <ele>87.4</ele>
        <time>2026-05-14T09:13:17Z</time>
      </trkpt>
      <trkpt lat="43.73261" lon="7.29825">
        <ele>85.5</ele>
        <time>2026-05-14T09:13:18Z</time>
      </trkpt>
      <trkpt lat="43.73266" lon="7.29796">
        <ele>87.6</ele>
        <time>2026-05-14T09:13:19Z</time>
      </trkpt>
      <trkpt lat="43.73269" lon="7.29767">
        <ele>90</ele>
        <time>2026-05-14T09:13:20Z</time>
      </trkpt>
      <trkpt lat="43.73273" lon="7.29738">
        <ele>88.3</ele>
        <time>2026-05-14T09:13:21Z</time>
      </trkpt>
      <trkpt lat="43.73274" lon="7.29709">
        <ele>86.8</ele>
        <time>2026-05-14T09:13:22Z</time>
      </trkpt>
      <trkpt lat="43.73276" lon="7.29681">
        <ele>83.8</ele>
        <time>2026-05-14T09:13:23Z</time>
      </trkpt>
      <trkpt lat="43.73276" lon="7.29654">
        <ele>83</ele>
        <time>2026-05-14T09:13:24Z</time>
      </trkpt>
      <trkpt lat="43.73276" lon="7.29628">
        <ele>82.5</ele>
        <time>2026-05-14T09:13:25Z</time>
      </trkpt>
      <trkpt lat="43.73276" lon="7.29602">
        <ele>81.4</ele>
        <time>2026-05-14T09:13:26Z</time>
      </trkpt>
      <trkpt lat="43.73276" lon="7.29576">
        <ele>80.2</ele>
        <time>2026-05-14T09:13:27Z</time>
      </trkpt>
      <trkpt lat="43.73275" lon="7.29549">
        <ele>79.5</ele>
        <time>2026-05-14T09:13:28Z</time>
      </trkpt>
      <trkpt lat="43.73274" lon="7.29522">
        <ele>77.7</ele>
        <time>2026-05-14T09:13:29Z</time>
      </trkpt>
      <trkpt lat="43.73272" lon="7.29496">
        <ele>76.2</ele>
        <time>2026-05-14T09:13:30Z</time>
      </trkpt>
      <trkpt lat="43.73272" lon="7.2947">
        <ele>74.3</ele>
        <time>2026-05-14T09:13:31Z</time>
      </trkpt>
      <trkpt lat="43.73271" lon="7.29444">
        <ele>72.4</ele>
        <time>2026-05-14T09:13:32Z</time>
      </trkpt>
      <trkpt lat="43.7327" lon="7.29418">
        <ele>70.2</ele>
        <time>2026-05-14T09:13:33Z</time>
      </trkpt>
      <trkpt lat="43.7327" lon="7.29392">
        <ele>69.9</ele>
        <time>2026-05-14T09:13:34Z</time>
      </trkpt>
      <trkpt lat="43.73271" lon="7.29366">
        <ele>68.9</ele>
        <time>2026-05-14T09:13:35Z</time>
      </trkpt>
      <trkpt lat="43.73272" lon="7.29339">
        <ele>68.5</ele>
        <time>2026-05-14T09:13:36Z</time>
      </trkpt>
      <trkpt lat="43.73273" lon="7.29313">
        <ele>68.3</ele>
        <time>2026-05-14T09:13:37Z</time>
      </trkpt>
      <trkpt lat="43.73275" lon="7.29287">
        <ele>64.6</ele>
        <time>2026-05-14T09:13:38Z</time>
      </trkpt>
      <trkpt lat="43.73278" lon="7.29262">
        <ele>59.1</ele>
        <time>2026-05-14T09:13:39Z</time>
      </trkpt>
      <trkpt lat="43.73281" lon="7.29237">
        <ele>52.5</ele>
        <time>2026-05-14T09:13:40Z</time>
      </trkpt>
      <trkpt lat="43.73285" lon="7.29211">
        <ele>48.4</ele>
        <time>2026-05-14T09:13:41Z</time>
      </trkpt>
      <trkpt lat="43.73289" lon="7.29184">
        <ele>48.3</ele>
        <time>2026-05-14T09:13:42Z</time>
      </trkpt>
      <trkpt lat="43.73293" lon="7.29157">
        <ele>47.8</ele>
        <time>2026-05-14T09:13:43Z</time>
      </trkpt>
      <trkpt lat="43.73298" lon="7.29129">
        <ele>47.1</ele>
        <time>2026-05-14T09:13:44Z</time>
      </trkpt>
      <trkpt lat="43.73303" lon="7.291">
        <ele>45.5</ele>
        <time>2026-05-14T09:13:45Z</time>
      </trkpt>
      <trkpt lat="43.73309" lon="7.29071">
        <ele>44</ele>
        <time>2026-05-14T09:13:46Z</time>
      </trkpt>
      <trkpt lat="43.73315" lon="7.29042">
        <ele>44</ele>
        <time>2026-05-14T09:13:47Z</time>
      </trkpt>
      <trkpt lat="43.7332" lon="7.29013">
        <ele>44.6</ele>
        <time>2026-05-14T09:13:48Z</time>
      </trkpt>
      <trkpt lat="43.73326" lon="7.28986">
        <ele>45.8</ele>
        <time>2026-05-14T09:13:49Z</time>
      </trkpt>
      <trkpt lat="43.73331" lon="7.28958">
        <ele>46.7</ele>
        <time>2026-05-14T09:13:50Z</time>
      </trkpt>
      <trkpt lat="43.73337" lon="7.2893">
        <ele>47.1</ele>
        <time>2026-05-14T09:13:51Z</time>
      </trkpt>
      <trkpt lat="43.73342" lon="7.28902">
        <ele>48.6</ele>
        <time>2026-05-14T09:13:52Z</time>
      </trkpt>
      <trkpt lat="43.73348" lon="7.28875">
        <ele>53.5</ele>
        <time>2026-05-14T09:13:53Z</time>
      </trkpt>
      <trkpt lat="43.73353" lon="7.28847">
        <ele>59.9</ele>
        <time>2026-05-14T09:13:54Z</time>
      </trkpt>
      <trkpt lat="43.73359" lon="7.2882">
        <ele>63.6</ele>
        <time>2026-05-14T09:13:55Z</time>
      </trkpt>
      <trkpt lat="43.73364" lon="7.28793">
        <ele>64.4</ele>
        <time>2026-05-14T09:13:56Z</time>
      </trkpt>
      <trkpt lat="43.73369" lon="7.28766">
        <ele>64.6</ele>
        <time>2026-05-14T09:13:57Z</time>
      </trkpt>
      <trkpt lat="43.73373" lon="7.28739">
        <ele>64.3</ele>
        <time>2026-05-14T09:13:58Z</time>
      </trkpt>
      <trkpt lat="43.73377" lon="7.28712">
        <ele>63.4</ele>
        <time>2026-05-14T09:13:59Z</time>
      </trkpt>
      <trkpt lat="43.7338" lon="7.28684">
        <ele>59.3</ele>
        <time>2026-05-14T09:14:00Z</time>
      </trkpt>
      <trkpt lat="43.73383" lon="7.28656">
        <ele>52.8</ele>
        <time>2026-05-14T09:14:01Z</time>
      </trkpt>
      <trkpt lat="43.73384" lon="7.28628">
        <ele>49.8</ele>
        <time>2026-05-14T09:14:02Z</time>
      </trkpt>
      <trkpt lat="43.73386" lon="7.286">
        <ele>47.2</ele>
        <time>2026-05-14T09:14:03Z</time>
      </trkpt>
      <trkpt lat="43.73386" lon="7.28571">
        <ele>46.5</ele>
        <time>2026-05-14T09:14:04Z</time>
      </trkpt>
      <trkpt lat="43.73386" lon="7.28543">
        <ele>46.8</ele>
        <time>2026-05-14T09:14:05Z</time>
      </trkpt>
      <trkpt lat="43.73384" lon="7.28515">
        <ele>47.9</ele>
        <time>2026-05-14T09:14:06Z</time>
      </trkpt>
      <trkpt lat="43.73381" lon="7.28487">
        <ele>49.9</ele>
        <time>2026-05-14T09:14:07Z</time>
      </trkpt>
      <trkpt lat="43.73378" lon="7.28459">
        <ele>52.9</ele>
        <time>2026-05-14T09:14:08Z</time>
      </trkpt>
      <trkpt lat="43.73375" lon="7.28432">
        <ele>58.6</ele>
        <time>2026-05-14T09:14:09Z</time>
      </trkpt>
      <trkpt lat="43.73371" lon="7.28405">
        <ele>68.4</ele>
        <time>2026-05-14T09:14:10Z</time>
      </trkpt>
      <trkpt lat="43.73366" lon="7.28378">
        <ele>84.6</ele>
        <time>2026-05-14T09:14:11Z</time>
      </trkpt>
      <trkpt lat="43.73361" lon="7.28351">
        <ele>101.9</ele>
        <time>2026-05-14T09:14:12Z</time>
      </trkpt>
      <trkpt lat="43.73356" lon="7.28324">
        <ele>108.1</ele>
        <time>2026-05-14T09:14:13Z</time>
      </trkpt>
      <trkpt lat="43.7335" lon="7.28298">
        <ele>113.6</ele>
        <time>2026-05-14T09:14:14Z</time>
      </trkpt>
      <trkpt lat="43.73239" lon="7.27933">
        <ele>96.9</ele>
        <time>2026-05-14T09:14:27Z</time>
      </trkpt>
      <trkpt lat="43.7323" lon="7.27909">
        <ele>98.8</ele>
        <time>2026-05-14T09:14:28Z</time>
      </trkpt>
      <trkpt lat="43.73221" lon="7.27885">
        <ele>96</ele>
        <time>2026-05-14T09:14:29Z</time>
      </trkpt>
      <trkpt lat="43.73213" lon="7.27861">
        <ele>100</ele>
        <time>2026-05-14T09:14:30Z</time>
      </trkpt>
      <trkpt lat="43.73205" lon="7.27836">
        <ele>102.3</ele>
        <time>2026-05-14T09:14:31Z</time>
      </trkpt>
      <trkpt lat="43.73199" lon="7.2781">
        <ele>100.6</ele>
        <time>2026-05-14T09:14:32Z</time>
      </trkpt>
      <trkpt lat="43.73195" lon="7.27783">
        <ele>99.2</ele>
        <time>2026-05-14T09:14:33Z</time>
      </trkpt>
      <trkpt lat="43.73191" lon="7.27756">
        <ele>108.6</ele>
        <time>2026-05-14T09:14:34Z</time>
      </trkpt>
      <trkpt lat="43.73188" lon="7.27729">
        <ele>120.1</ele>
        <time>2026-05-14T09:14:35Z</time>
      </trkpt>
      <trkpt lat="43.73185" lon="7.27704">
        <ele>131.7</ele>
        <time>2026-05-14T09:14:36Z</time>
      </trkpt>
      <trkpt lat="43.73182" lon="7.27677">
        <ele>142.8</ele>
        <time>2026-05-14T09:14:37Z</time>
      </trkpt>
      <trkpt lat="43.73179" lon="7.27651">
        <ele>150.9</ele>
        <time>2026-05-14T09:14:38Z</time>
      </trkpt>
      <trkpt lat="43.73176" lon="7.27625">
        <ele>155</ele>
        <time>2026-05-14T09:14:39Z</time>
      </trkpt>
      <trkpt lat="43.73212" lon="7.27226">
        <ele>113.8</ele>
        <time>2026-05-14T09:14:53Z</time>
      </trkpt>
      <trkpt lat="43.7321" lon="7.27196">
        <ele>104.1</ele>
        <time>2026-05-14T09:14:54Z</time>
      </trkpt>
      <trkpt lat="43.7321" lon="7.27167">
        <ele>100.6</ele>
        <time>2026-05-14T09:14:55Z</time>
      </trkpt>
      <trkpt lat="43.73209" lon="7.27137">
        <ele>100.8</ele>
        <time>2026-05-14T09:14:56Z</time>
      </trkpt>
      <trkpt lat="43.73209" lon="7.27109">
        <ele>106.3</ele>
        <time>2026-05-14T09:14:57Z</time>
      </trkpt>
      <trkpt lat="43.73208" lon="7.2708">
        <ele>122.5</ele>
        <time>2026-05-14T09:14:58Z</time>
      </trkpt>
      <trkpt lat="43.73207" lon="7.27051">
        <ele>127.1</ele>
        <time>2026-05-14T09:14:59Z</time>
      </trkpt>
      <trkpt lat="43.73206" lon="7.27021">
        <ele>129.1</ele>
        <time>2026-05-14T09:15:00Z</time>
      </trkpt>
      <trkpt lat="43.73204" lon="7.26992">
        <ele>129.2</ele>
        <time>2026-05-14T09:15:01Z</time>
      </trkpt>
      <trkpt lat="43.73201" lon="7.26963">
        <ele>127.8</ele>
        <time>2026-05-14T09:15:02Z</time>
      </trkpt>
      <trkpt lat="43.73197" lon="7.26934">
        <ele>125.8</ele>
        <time>2026-05-14T09:15:03Z</time>
      </trkpt>
      <trkpt lat="43.73191" lon="7.26906">
        <ele>125.1</ele>
        <time>2026-05-14T09:15:04Z</time>
      </trkpt>
      <trkpt lat="43.73184" lon="7.26879">
        <ele>126.7</ele>
        <time>2026-05-14T09:15:05Z</time>
      </trkpt>
      <trkpt lat="43.73175" lon="7.26852">
        <ele>128.4</ele>
        <time>2026-05-14T09:15:06Z</time>
      </trkpt>
      <trkpt lat="43.73165" lon="7.26826">
        <ele>131.1</ele>
        <time>2026-05-14T09:15:07Z</time>
      </trkpt>
      <trkpt lat="43.73154" lon="7.26801">
        <ele>133.5</ele>
        <time>2026-05-14T09:15:08Z</time>
      </trkpt>
      <trkpt lat="43.73141" lon="7.26778">
        <ele>132.8</ele>
        <time>2026-05-14T09:15:09Z</time>
      </trkpt>
      <trkpt lat="43.73126" lon="7.26755">
        <ele>132.2</ele>
        <time>2026-05-14T09:15:10Z</time>
      </trkpt>
      <trkpt lat="43.7311" lon="7.26734">
        <ele>132.4</ele>
        <time>2026-05-14T09:15:11Z</time>
      </trkpt>
      <trkpt lat="43.73094" lon="7.26715">
        <ele>133.3</ele>
        <time>2026-05-14T09:15:12Z</time>
      </trkpt>
      <trkpt lat="43.73076" lon="7.26696">
        <ele>134.9</ele>
        <time>2026-05-14T09:15:13Z</time>
      </trkpt>
      <trkpt lat="43.73058" lon="7.26678">
        <ele>136.2</ele>
        <time>2026-05-14T09:15:14Z</time>
      </trkpt>
      <trkpt lat="43.73041" lon="7.2666">
        <ele>137.6</ele>
        <time>2026-05-14T09:15:15Z</time>
      </trkpt>
      <trkpt lat="43.73024" lon="7.26641">
        <ele>136</ele>
        <time>2026-05-14T09:15:16Z</time>
      </trkpt>
      <trkpt lat="43.73006" lon="7.26622">
        <ele>138</ele>
        <time>2026-05-14T09:15:17Z</time>
      </trkpt>
      <trkpt lat="43.7299" lon="7.26602">
        <ele>139</ele>
        <time>2026-05-14T09:15:18Z</time>
      </trkpt>
      <trkpt lat="43.72974" lon="7.2658">
        <ele>137.3</ele>
        <time>2026-05-14T09:15:19Z</time>
      </trkpt>
      <trkpt lat="43.72959" lon="7.26556">
        <ele>138.5</ele>
        <time>2026-05-14T09:15:20Z</time>
      </trkpt>
      <trkpt lat="43.72946" lon="7.2653">
        <ele>137</ele>
        <time>2026-05-14T09:15:21Z</time>
      </trkpt>
      <trkpt lat="43.72934" lon="7.265">
        <ele>137.9</ele>
        <time>2026-05-14T09:15:22Z</time>
      </trkpt>
      <trkpt lat="43.72924" lon="7.26469">
        <ele>139.3</ele>
        <time>2026-05-14T09:15:23Z</time>
      </trkpt>
      <trkpt lat="43.72915" lon="7.26437">
        <ele>136</ele>
        <time>2026-05-14T09:15:24Z</time>
      </trkpt>
      <trkpt lat="43.72908" lon="7.26404">
        <ele>137.3</ele>
        <time>2026-05-14T09:15:25Z</time>
      </trkpt>
      <trkpt lat="43.72902" lon="7.2637">
        <ele>138.2</ele>
        <time>2026-05-14T09:15:26Z</time>
      </trkpt>
      <trkpt lat="43.72896" lon="7.26336">
        <ele>137.1</ele>
        <time>2026-05-14T09:15:27Z</time>
      </trkpt>
      <trkpt lat="43.72891" lon="7.26302">
        <ele>134.8</ele>
        <time>2026-05-14T09:15:28Z</time>
      </trkpt>
      <trkpt lat="43.72886" lon="7.26269">
        <ele>134</ele>
        <time>2026-05-14T09:15:29Z</time>
      </trkpt>
      <trkpt lat="43.72881" lon="7.26236">
        <ele>133.3</ele>
        <time>2026-05-14T09:15:30Z</time>
      </trkpt>
      <trkpt lat="43.72877" lon="7.26205">
        <ele>133</ele>
        <time>2026-05-14T09:15:31Z</time>
      </trkpt>
      <trkpt lat="43.72873" lon="7.26174">
        <ele>132.6</ele>
        <time>2026-05-14T09:15:32Z</time>
      </trkpt>
      <trkpt lat="43.72869" lon="7.26143">
        <ele>131.3</ele>
        <time>2026-05-14T09:15:33Z</time>
      </trkpt>
      <trkpt lat="43.72866" lon="7.26112">
        <ele>130</ele>
        <time>2026-05-14T09:15:34Z</time>
      </trkpt>
      <trkpt lat="43.72865" lon="7.2608">
        <ele>128.2</ele>
        <time>2026-05-14T09:15:35Z</time>
      </trkpt>
      <trkpt lat="43.72864" lon="7.26047">
        <ele>126.2</ele>
        <time>2026-05-14T09:15:36Z</time>
      </trkpt>
      <trkpt lat="43.72866" lon="7.26015">
        <ele>124.5</ele>
        <time>2026-05-14T09:15:37Z</time>
      </trkpt>
      <trkpt lat="43.72869" lon="7.25982">
        <ele>122.6</ele>
        <time>2026-05-14T09:15:38Z</time>
      </trkpt>
      <trkpt lat="43.72874" lon="7.25949">
        <ele>119.9</ele>
        <time>2026-05-14T09:15:39Z</time>
      </trkpt>
      <trkpt lat="43.7288" lon="7.25917">
        <ele>118.6</ele>
        <time>2026-05-14T09:15:40Z</time>
      </trkpt>
      <trkpt lat="43.72888" lon="7.25885">
        <ele>116.9</ele>
        <time>2026-05-14T09:15:41Z</time>
      </trkpt>
      <trkpt lat="43.72898" lon="7.25855">
        <ele>116.1</ele>
        <time>2026-05-14T09:15:42Z</time>
      </trkpt>
      <trkpt lat="43.72908" lon="7.25825">
        <ele>113.6</ele>
        <time>2026-05-14T09:15:43Z</time>
      </trkpt>
      <trkpt lat="43.72921" lon="7.25797">
        <ele>113.1</ele>
        <time>2026-05-14T09:15:44Z</time>
      </trkpt>
      <trkpt lat="43.72934" lon="7.25769">
        <ele>110.9</ele>
        <time>2026-05-14T09:15:45Z</time>
      </trkpt>
      <trkpt lat="43.72949" lon="7.25743">
        <ele>112.8</ele>
        <time>2026-05-14T09:15:46Z</time>
      </trkpt>
      <trkpt lat="43.72966" lon="7.25718">
        <ele>111.4</ele>
        <time>2026-05-14T09:15:47Z</time>
      </trkpt>
      <trkpt lat="43.72984" lon="7.25696">
        <ele>110.3</ele>
        <time>2026-05-14T09:15:48Z</time>
      </trkpt>
      <trkpt lat="43.73002" lon="7.25677">
        <ele>107.7</ele>
        <time>2026-05-14T09:15:49Z</time>
      </trkpt>
      <trkpt lat="43.73021" lon="7.25659">
        <ele>109.4</ele>
        <time>2026-05-14T09:15:50Z</time>
      </trkpt>
      <trkpt lat="43.73042" lon="7.25644">
        <ele>110.8</ele>
        <time>2026-05-14T09:15:51Z</time>
      </trkpt>
      <trkpt lat="43.73064" lon="7.25632">
        <ele>110.6</ele>
        <time>2026-05-14T09:15:52Z</time>
      </trkpt>
      <trkpt lat="43.73087" lon="7.25621">
        <ele>111</ele>
        <time>2026-05-14T09:15:53Z</time>
      </trkpt>
      <trkpt lat="43.7311" lon="7.25611">
        <ele>110</ele>
        <time>2026-05-14T09:15:54Z</time>
      </trkpt>
      <trkpt lat="43.73133" lon="7.25603">
        <ele>110.6</ele>
        <time>2026-05-14T09:15:55Z</time>
      </trkpt>
      <trkpt lat="43.73155" lon="7.25594">
        <ele>115.7</ele>
        <time>2026-05-14T09:15:56Z</time>
      </trkpt>
      <trkpt lat="43.73178" lon="7.25586">
        <ele>121.9</ele>
        <time>2026-05-14T09:15:57Z</time>
      </trkpt>
      <trkpt lat="43.732" lon="7.25577">
        <ele>128</ele>
        <time>2026-05-14T09:15:58Z</time>
      </trkpt>
      <trkpt lat="43.73223" lon="7.25568">
        <ele>134.1</ele>
        <time>2026-05-14T09:15:59Z</time>
      </trkpt>
      <trkpt lat="43.73487" lon="7.24372">
        <ele>154.5</ele>
        <time>2026-05-14T09:16:44Z</time>
      </trkpt>
      <trkpt lat="43.7348" lon="7.24339">
        <ele>157.9</ele>
        <time>2026-05-14T09:16:45Z</time>
      </trkpt>
      <trkpt lat="43.73471" lon="7.24308">
        <ele>158</ele>
        <time>2026-05-14T09:16:46Z</time>
      </trkpt>
      <trkpt lat="43.73462" lon="7.2428">
        <ele>160.5</ele>
        <time>2026-05-14T09:16:47Z</time>
      </trkpt>
      <trkpt lat="43.73453" lon="7.24252">
        <ele>163</ele>
        <time>2026-05-14T09:16:48Z</time>
      </trkpt>
      <trkpt lat="43.73444" lon="7.24224">
        <ele>161.9</ele>
        <time>2026-05-14T09:16:49Z</time>
      </trkpt>
      <trkpt lat="43.73435" lon="7.24198">
        <ele>163.4</ele>
        <time>2026-05-14T09:16:50Z</time>
      </trkpt>
      <trkpt lat="43.73425" lon="7.24172">
        <ele>163.4</ele>
        <time>2026-05-14T09:16:51Z</time>
      </trkpt>
      <trkpt lat="43.73415" lon="7.24147">
        <ele>159.9</ele>
        <time>2026-05-14T09:16:52Z</time>
      </trkpt>
      <trkpt lat="43.73405" lon="7.24122">
        <ele>163.3</ele>
        <time>2026-05-14T09:16:53Z</time>
      </trkpt>
      <trkpt lat="43.73394" lon="7.24097">
        <ele>167.7</ele>
        <time>2026-05-14T09:16:54Z</time>
      </trkpt>
      <trkpt lat="43.73383" lon="7.24072">
        <ele>170.7</ele>
        <time>2026-05-14T09:16:55Z</time>
      </trkpt>
      <trkpt lat="43.73372" lon="7.24047">
        <ele>179</ele>
        <time>2026-05-14T09:16:56Z</time>
      </trkpt>
      <trkpt lat="43.73361" lon="7.24024">
        <ele>188.8</ele>
        <time>2026-05-14T09:16:57Z</time>
      </trkpt>
      <trkpt lat="43.73351" lon="7.23999">
        <ele>195</ele>
        <time>2026-05-14T09:16:58Z</time>
      </trkpt>
      <trkpt lat="43.72951" lon="7.23499">
        <ele>201</ele>
        <time>2026-05-14T09:17:22Z</time>
      </trkpt>
      <trkpt lat="43.72932" lon="7.23482">
        <ele>203.2</ele>
        <time>2026-05-14T09:17:23Z</time>
      </trkpt>
      <trkpt lat="43.72912" lon="7.23466">
        <ele>204.4</ele>
        <time>2026-05-14T09:17:24Z</time>
      </trkpt>
      <trkpt lat="43.72893" lon="7.23449">
        <ele>204.3</ele>
        <time>2026-05-14T09:17:25Z</time>
      </trkpt>
      <trkpt lat="43.72875" lon="7.23432">
        <ele>206.6</ele>
        <time>2026-05-14T09:17:26Z</time>
      </trkpt>
      <trkpt lat="43.72856" lon="7.23414">
        <ele>205.6</ele>
        <time>2026-05-14T09:17:27Z</time>
      </trkpt>
      <trkpt lat="43.72837" lon="7.23396">
        <ele>207.3</ele>
        <time>2026-05-14T09:17:28Z</time>
      </trkpt>
      <trkpt lat="43.72818" lon="7.23378">
        <ele>207.6</ele>
        <time>2026-05-14T09:17:29Z</time>
      </trkpt>
      <trkpt lat="43.72799" lon="7.23361">
        <ele>206</ele>
        <time>2026-05-14T09:17:30Z</time>
      </trkpt>
      <trkpt lat="43.7278" lon="7.23342">
        <ele>206.1</ele>
        <time>2026-05-14T09:17:31Z</time>
      </trkpt>
      <trkpt lat="43.72762" lon="7.23321">
        <ele>205.6</ele>
        <time>2026-05-14T09:17:32Z</time>
      </trkpt>
      <trkpt lat="43.72745" lon="7.233">
        <ele>208</ele>
        <time>2026-05-14T09:17:33Z</time>
      </trkpt>
      <trkpt lat="43.72729" lon="7.23278">
        <ele>212.7</ele>
        <time>2026-05-14T09:17:34Z</time>
      </trkpt>
      <trkpt lat="43.72713" lon="7.23255">
        <ele>228.5</ele>
        <time>2026-05-14T09:17:35Z</time>
      </trkpt>
      <trkpt lat="43.72697" lon="7.23232">
        <ele>239.6</ele>
        <time>2026-05-14T09:17:36Z</time>
      </trkpt>
      <trkpt lat="43.7268" lon="7.2321">
        <ele>244</ele>
        <time>2026-05-14T09:17:37Z</time>
      </trkpt>
      <trkpt lat="43.7257" lon="7.23055">
        <ele>211.9</ele>
        <time>2026-05-14T09:17:44Z</time>
      </trkpt>
      <trkpt lat="43.72551" lon="7.23031">
        <ele>206.8</ele>
        <time>2026-05-14T09:17:45Z</time>
      </trkpt>
      <trkpt lat="43.72533" lon="7.23011">
        <ele>210.3</ele>
        <time>2026-05-14T09:17:46Z</time>
      </trkpt>
      <trkpt lat="43.72515" lon="7.22993">
        <ele>213.9</ele>
        <time>2026-05-14T09:17:47Z</time>
      </trkpt>
      <trkpt lat="43.72497" lon="7.22975">
        <ele>213.8</ele>
        <time>2026-05-14T09:17:48Z</time>
      </trkpt>
      <trkpt lat="43.72479" lon="7.22958">
        <ele>215.5</ele>
        <time>2026-05-14T09:17:49Z</time>
      </trkpt>
      <trkpt lat="43.72461" lon="7.2294">
        <ele>215.2</ele>
        <time>2026-05-14T09:17:50Z</time>
      </trkpt>
      <trkpt lat="43.72443" lon="7.22924">
        <ele>213.9</ele>
        <time>2026-05-14T09:17:51Z</time>
      </trkpt>
      <trkpt lat="43.72425" lon="7.22907">
        <ele>214.2</ele>
        <time>2026-05-14T09:17:52Z</time>
      </trkpt>
      <trkpt lat="43.72407" lon="7.22889">
        <ele>214</ele>
        <time>2026-05-14T09:17:53Z</time>
      </trkpt>
      <trkpt lat="43.7239" lon="7.22869">
        <ele>214.1</ele>
        <time>2026-05-14T09:17:54Z</time>
      </trkpt>
      <trkpt lat="43.72373" lon="7.22848">
        <ele>216.3</ele>
        <time>2026-05-14T09:17:55Z</time>
      </trkpt>
      <trkpt lat="43.72357" lon="7.22825">
        <ele>214.7</ele>
        <time>2026-05-14T09:17:56Z</time>
      </trkpt>
      <trkpt lat="43.72342" lon="7.228">
        <ele>214.9</ele>
        <time>2026-05-14T09:17:57Z</time>
      </trkpt>
      <trkpt lat="43.72329" lon="7.22773">
        <ele>212.9</ele>
        <time>2026-05-14T09:17:58Z</time>
      </trkpt>
      <trkpt lat="43.72316" lon="7.22744">
        <ele>214.1</ele>
        <time>2026-05-14T09:17:59Z</time>
      </trkpt>
      <trkpt lat="43.72306" lon="7.22714">
        <ele>210.8</ele>
        <time>2026-05-14T09:18:00Z</time>
      </trkpt>
      <trkpt lat="43.72297" lon="7.22683">
        <ele>209</ele>
        <time>2026-05-14T09:18:01Z</time>
      </trkpt>
      <trkpt lat="43.7229" lon="7.2265">
        <ele>205</ele>
        <time>2026-05-14T09:18:02Z</time>
      </trkpt>
      <trkpt lat="43.72284" lon="7.22616">
        <ele>204.3</ele>
        <time>2026-05-14T09:18:03Z</time>
      </trkpt>
      <trkpt lat="43.7228" lon="7.22581">
        <ele>205.6</ele>
        <time>2026-05-14T09:18:04Z</time>
      </trkpt>
      <trkpt lat="43.72276" lon="7.22546">
        <ele>197.9</ele>
        <time>2026-05-14T09:18:05Z</time>
      </trkpt>
      <trkpt lat="43.72272" lon="7.2251">
        <ele>186.4</ele>
        <time>2026-05-14T09:18:06Z</time>
      </trkpt>
      <trkpt lat="43.72269" lon="7.22474">
        <ele>171.2</ele>
        <time>2026-05-14T09:18:07Z</time>
      </trkpt>
      <trkpt lat="43.72265" lon="7.22438">
        <ele>156.4</ele>
        <time>2026-05-14T09:18:08Z</time>
      </trkpt>
      <trkpt lat="43.72261" lon="7.22402">
        <ele>139.2</ele>
        <time>2026-05-14T09:18:09Z</time>
      </trkpt>
      <trkpt lat="43.72257" lon="7.22366">
        <ele>121.6</ele>
        <time>2026-05-14T09:18:10Z</time>
      </trkpt>
      <trkpt lat="43.72253" lon="7.22329">
        <ele>106.2</ele>
        <time>2026-05-14T09:18:11Z</time>
      </trkpt>
      <trkpt lat="43.72249" lon="7.22293">
        <ele>95.2</ele>
        <time>2026-05-14T09:18:12Z</time>
      </trkpt>
      <trkpt lat="43.72245" lon="7.22256">
        <ele>83.3</ele>
        <time>2026-05-14T09:18:13Z</time>
      </trkpt>
      <trkpt lat="43.72241" lon="7.2222">
        <ele>80.3</ele>
        <time>2026-05-14T09:18:14Z</time>
      </trkpt>
      <trkpt lat="43.72237" lon="7.22183">
        <ele>96.6</ele>
        <time>2026-05-14T09:18:15Z</time>
      </trkpt>
      <trkpt lat="43.72233" lon="7.22147">
        <ele>115</ele>
        <time>2026-05-14T09:18:16Z</time>
      </trkpt>
      <trkpt lat="43.72229" lon="7.22111">
        <ele>131.1</ele>
        <time>2026-05-14T09:18:17Z</time>
      </trkpt>
      <trkpt lat="43.72225" lon="7.22077">
        <ele>147.3</ele>
        <time>2026-05-14T09:18:18Z</time>
      </trkpt>
      <trkpt lat="43.72222" lon="7.22042">
        <ele>165.3</ele>
        <time>2026-05-14T09:18:19Z</time>
      </trkpt>
      <trkpt lat="43.72218" lon="7.22008">
        <ele>179.5</ele>
        <time>2026-05-14T09:18:20Z</time>
      </trkpt>
      <trkpt lat="43.72215" lon="7.21973">
        <ele>188.1</ele>
        <time>2026-05-14T09:18:21Z</time>
      </trkpt>
      <trkpt lat="43.72211" lon="7.21939">
        <ele>193.3</ele>
        <time>2026-05-14T09:18:22Z</time>
      </trkpt>
      <trkpt lat="43.72206" lon="7.21907">
        <ele>194.7</ele>
        <time>2026-05-14T09:18:23Z</time>
      </trkpt>
      <trkpt lat="43.72199" lon="7.21874">
        <ele>191.7</ele>
        <time>2026-05-14T09:18:24Z</time>
      </trkpt>
      <trkpt lat="43.72191" lon="7.21843">
        <ele>190.3</ele>
        <time>2026-05-14T09:18:25Z</time>
      </trkpt>
      <trkpt lat="43.72181" lon="7.21813">
        <ele>197</ele>
        <time>2026-05-14T09:18:26Z</time>
      </trkpt>
      <trkpt lat="43.72171" lon="7.21782">
        <ele>210.2</ele>
        <time>2026-05-14T09:18:27Z</time>
      </trkpt>
      <trkpt lat="43.72161" lon="7.21751">
        <ele>213.4</ele>
        <time>2026-05-14T09:18:28Z</time>
      </trkpt>
      <trkpt lat="43.71721" lon="7.21325">
        <ele>166.2</ele>
        <time>2026-05-14T09:18:50Z</time>
      </trkpt>
      <trkpt lat="43.71698" lon="7.21331">
        <ele>169</ele>
        <time>2026-05-14T09:18:51Z</time>
      </trkpt>
      <trkpt lat="43.71675" lon="7.21334">
        <ele>167.7</ele>
        <time>2026-05-14T09:18:52Z</time>
      </trkpt>
      <trkpt lat="43.71652" lon="7.21335">
        <ele>166.8</ele>
        <time>2026-05-14T09:18:53Z</time>
      </trkpt>
      <trkpt lat="43.7163" lon="7.21338">
        <ele>165.4</ele>
        <time>2026-05-14T09:18:54Z</time>
      </trkpt>
      <trkpt lat="43.71608" lon="7.21339">
        <ele>162.5</ele>
        <time>2026-05-14T09:18:55Z</time>
      </trkpt>
      <trkpt lat="43.71586" lon="7.21341">
        <ele>163.2</ele>
        <time>2026-05-14T09:18:56Z</time>
      </trkpt>
      <trkpt lat="43.71564" lon="7.21344">
        <ele>162.3</ele>
        <time>2026-05-14T09:18:57Z</time>
      </trkpt>
      <trkpt lat="43.71542" lon="7.21346">
        <ele>160.4</ele>
        <time>2026-05-14T09:18:58Z</time>
      </trkpt>
      <trkpt lat="43.71519" lon="7.21347">
        <ele>158.2</ele>
        <time>2026-05-14T09:18:59Z</time>
      </trkpt>
      <trkpt lat="43.71496" lon="7.2135">
        <ele>156.6</ele>
        <time>2026-05-14T09:19:00Z</time>
      </trkpt>
      <trkpt lat="43.71473" lon="7.21352">
        <ele>155.4</ele>
        <time>2026-05-14T09:19:01Z</time>
      </trkpt>
      <trkpt lat="43.71449" lon="7.21354">
        <ele>152.7</ele>
        <time>2026-05-14T09:19:02Z</time>
      </trkpt>
      <trkpt lat="43.71424" lon="7.21355">
        <ele>150.3</ele>
        <time>2026-05-14T09:19:03Z</time>
      </trkpt>
      <trkpt lat="43.714" lon="7.21354">
        <ele>149.7</ele>
        <time>2026-05-14T09:19:04Z</time>
      </trkpt>
      <trkpt lat="43.71376" lon="7.21353">
        <ele>150</ele>
        <time>2026-05-14T09:19:05Z</time>
      </trkpt>
      <trkpt lat="43.71353" lon="7.2135">
        <ele>149.8</ele>
        <time>2026-05-14T09:19:06Z</time>
      </trkpt>
      <trkpt lat="43.71331" lon="7.21346">
        <ele>148.9</ele>
        <time>2026-05-14T09:19:07Z</time>
      </trkpt>
      <trkpt lat="43.71309" lon="7.21341">
        <ele>147.1</ele>
        <time>2026-05-14T09:19:08Z</time>
      </trkpt>
      <trkpt lat="43.71288" lon="7.21335">
        <ele>144.8</ele>
        <time>2026-05-14T09:19:09Z</time>
      </trkpt>
      <trkpt lat="43.71267" lon="7.21326">
        <ele>142.2</ele>
        <time>2026-05-14T09:19:10Z</time>
      </trkpt>
      <trkpt lat="43.71246" lon="7.21316">
        <ele>138</ele>
        <time>2026-05-14T09:19:11Z</time>
      </trkpt>
      <trkpt lat="43.71226" lon="7.21305">
        <ele>138.3</ele>
        <time>2026-05-14T09:19:12Z</time>
      </trkpt>
      <trkpt lat="43.71207" lon="7.21292">
        <ele>136.4</ele>
        <time>2026-05-14T09:19:13Z</time>
      </trkpt>
      <trkpt lat="43.71187" lon="7.21278">
        <ele>136.8</ele>
        <time>2026-05-14T09:19:14Z</time>
      </trkpt>
      <trkpt lat="43.71168" lon="7.21262">
        <ele>135.2</ele>
        <time>2026-05-14T09:19:15Z</time>
      </trkpt>
      <trkpt lat="43.7115" lon="7.21245">
        <ele>133.3</ele>
        <time>2026-05-14T09:19:16Z</time>
      </trkpt>
      <trkpt lat="43.71132" lon="7.21227">
        <ele>133.5</ele>
        <time>2026-05-14T09:19:17Z</time>
      </trkpt>
      <trkpt lat="43.71114" lon="7.21207">
        <ele>131.3</ele>
        <time>2026-05-14T09:19:18Z</time>
      </trkpt>
      <trkpt lat="43.71097" lon="7.21188">
        <ele>128.8</ele>
        <time>2026-05-14T09:19:19Z</time>
      </trkpt>
      <trkpt lat="43.7108" lon="7.21167">
        <ele>128.2</ele>
        <time>2026-05-14T09:19:20Z</time>
      </trkpt>
      <trkpt lat="43.71063" lon="7.21146">
        <ele>124.5</ele>
        <time>2026-05-14T09:19:21Z</time>
      </trkpt>
      <trkpt lat="43.71048" lon="7.21125">
        <ele>119.5</ele>
        <time>2026-05-14T09:19:22Z</time>
      </trkpt>
      <trkpt lat="43.71033" lon="7.21103">
        <ele>120.9</ele>
        <time>2026-05-14T09:19:23Z</time>
      </trkpt>
      <trkpt lat="43.71018" lon="7.2108">
        <ele>123.3</ele>
        <time>2026-05-14T09:19:24Z</time>
      </trkpt>
      <trkpt lat="43.71005" lon="7.21056">
        <ele>120.9</ele>
        <time>2026-05-14T09:19:25Z</time>
      </trkpt>
      <trkpt lat="43.70993" lon="7.21032">
        <ele>121.2</ele>
        <time>2026-05-14T09:19:26Z</time>
      </trkpt>
      <trkpt lat="43.70982" lon="7.21007">
        <ele>119.1</ele>
        <time>2026-05-14T09:19:27Z</time>
      </trkpt>
      <trkpt lat="43.70972" lon="7.20981">
        <ele>116.7</ele>
        <time>2026-05-14T09:19:28Z</time>
      </trkpt>
      <trkpt lat="43.70963" lon="7.20955">
        <ele>115.8</ele>
        <time>2026-05-14T09:19:29Z</time>
      </trkpt>
      <trkpt lat="43.70955" lon="7.20928">
        <ele>112.8</ele>
        <time>2026-05-14T09:19:30Z</time>
      </trkpt>
      <trkpt lat="43.70948" lon="7.20901">
        <ele>111.7</ele>
        <time>2026-05-14T09:19:31Z</time>
      </trkpt>
      <trkpt lat="43.70943" lon="7.20874">
        <ele>112.1</ele>
        <time>2026-05-14T09:19:32Z</time>
      </trkpt>
      <trkpt lat="43.70938" lon="7.20847">
        <ele>111.8</ele>
        <time>2026-05-14T09:19:33Z</time>
      </trkpt>
      <trkpt lat="43.70934" lon="7.20819">
        <ele>109.3</ele>
        <time>2026-05-14T09:19:34Z</time>
      </trkpt>
      <trkpt lat="43.70931" lon="7.20791">
        <ele>104</ele>
        <time>2026-05-14T09:19:35Z</time>
      </trkpt>
      <trkpt lat="43.7093" lon="7.20763">
        <ele>104</ele>
        <time>2026-05-14T09:19:36Z</time>
      </trkpt>
      <trkpt lat="43.7093" lon="7.20734">
        <ele>107</ele>
        <time>2026-05-14T09:19:37Z</time>
      </trkpt>
      <trkpt lat="43.70932" lon="7.20706">
        <ele>105.7</ele>
        <time>2026-05-14T09:19:38Z</time>
      </trkpt>
      <trkpt lat="43.70935" lon="7.20679">
        <ele>98.3</ele>
        <time>2026-05-14T09:19:39Z</time>
      </trkpt>
      <trkpt lat="43.7094" lon="7.20652">
        <ele>97.5</ele>
        <time>2026-05-14T09:19:40Z</time>
      </trkpt>
      <trkpt lat="43.70946" lon="7.20625">
        <ele>98.9</ele>
        <time>2026-05-14T09:19:41Z</time>
      </trkpt>
      <trkpt lat="43.70953" lon="7.206">
        <ele>96.2</ele>
        <time>2026-05-14T09:19:42Z</time>
      </trkpt>
      <trkpt lat="43.70961" lon="7.20574">
        <ele>96</ele>
        <time>2026-05-14T09:19:43Z</time>
      </trkpt>
      <trkpt lat="43.70968" lon="7.2055">
        <ele>97.4</ele>
        <time>2026-05-14T09:19:44Z</time>
      </trkpt>
      <trkpt lat="43.70976" lon="7.20527">
        <ele>92.9</ele>
        <time>2026-05-14T09:19:45Z</time>
      </trkpt>
      <trkpt lat="43.70983" lon="7.20504">
        <ele>92.9</ele>
        <time>2026-05-14T09:19:46Z</time>
      </trkpt>
      <trkpt lat="43.70991" lon="7.20481">
        <ele>94.2</ele>
        <time>2026-05-14T09:19:47Z</time>
      </trkpt>
      <trkpt lat="43.70998" lon="7.20459">
        <ele>92.8</ele>
        <time>2026-05-14T09:19:48Z</time>
      </trkpt>
      <trkpt lat="43.71005" lon="7.20436">
        <ele>90.6</ele>
        <time>2026-05-14T09:19:49Z</time>
      </trkpt>
      <trkpt lat="43.71012" lon="7.20413">
        <ele>92.4</ele>
        <time>2026-05-14T09:19:50Z</time>
      </trkpt>
      <trkpt lat="43.71018" lon="7.2039">
        <ele>91.1</ele>
        <time>2026-05-14T09:19:51Z</time>
      </trkpt>
      <trkpt lat="43.71024" lon="7.20367">
        <ele>89.8</ele>
        <time>2026-05-14T09:19:52Z</time>
      </trkpt>
      <trkpt lat="43.71028" lon="7.20344">
        <ele>86.7</ele>
        <time>2026-05-14T09:19:53Z</time>
      </trkpt>
      <trkpt lat="43.71032" lon="7.2032">
        <ele>85</ele>
        <time>2026-05-14T09:19:54Z</time>
      </trkpt>
      <trkpt lat="43.71036" lon="7.20296">
        <ele>83.7</ele>
        <time>2026-05-14T09:19:55Z</time>
      </trkpt>
      <trkpt lat="43.71039" lon="7.20272">
        <ele>82.8</ele>
        <time>2026-05-14T09:19:56Z</time>
      </trkpt>
      <trkpt lat="43.71042" lon="7.20249">
        <ele>81.9</ele>
        <time>2026-05-14T09:19:57Z</time>
      </trkpt>
      <trkpt lat="43.71045" lon="7.20224">
        <ele>80.5</ele>
        <time>2026-05-14T09:19:58Z</time>
      </trkpt>
      <trkpt lat="43.71047" lon="7.20199">
        <ele>79</ele>
        <time>2026-05-14T09:19:59Z</time>
      </trkpt>
      <trkpt lat="43.7105" lon="7.20173">
        <ele>78.6</ele>
        <time>2026-05-14T09:20:00Z</time>
      </trkpt>
      <trkpt lat="43.71053" lon="7.20147">
        <ele>78</ele>
        <time>2026-05-14T09:20:01Z</time>
      </trkpt>
      <trkpt lat="43.71055" lon="7.2012">
        <ele>76.5</ele>
        <time>2026-05-14T09:20:02Z</time>
      </trkpt>
      <trkpt lat="43.71057" lon="7.20094">
        <ele>73.9</ele>
        <time>2026-05-14T09:20:03Z</time>
      </trkpt>
      <trkpt lat="43.71058" lon="7.20068">
        <ele>72.1</ele>
        <time>2026-05-14T09:20:04Z</time>
      </trkpt>
      <trkpt lat="43.71058" lon="7.20041">
        <ele>71.2</ele>
        <time>2026-05-14T09:20:05Z</time>
      </trkpt>
      <trkpt lat="43.71056" lon="7.20012">
        <ele>71.2</ele>
        <time>2026-05-14T09:20:06Z</time>
      </trkpt>
      <trkpt lat="43.71054" lon="7.19982">
        <ele>70.3</ele>
        <time>2026-05-14T09:20:07Z</time>
      </trkpt>
      <trkpt lat="43.71049" lon="7.19952">
        <ele>69.1</ele>
        <time>2026-05-14T09:20:08Z</time>
      </trkpt>
      <trkpt lat="43.71043" lon="7.19921">
        <ele>65</ele>
        <time>2026-05-14T09:20:09Z</time>
      </trkpt>
      <trkpt lat="43.71036" lon="7.19891">
        <ele>62.5</ele>
        <time>2026-05-14T09:20:10Z</time>
      </trkpt>
      <trkpt lat="43.71028" lon="7.19862">
        <ele>63.9</ele>
        <time>2026-05-14T09:20:11Z</time>
      </trkpt>
      <trkpt lat="43.71019" lon="7.19833">
        <ele>61.2</ele>
        <time>2026-05-14T09:20:12Z</time>
      </trkpt>
      <trkpt lat="43.7101" lon="7.19804">
        <ele>57.3</ele>
        <time>2026-05-14T09:20:13Z</time>
      </trkpt>
      <trkpt lat="43.71001" lon="7.19776">
        <ele>58.4</ele>
        <time>2026-05-14T09:20:14Z</time>
      </trkpt>
      <trkpt lat="43.70991" lon="7.19748">
        <ele>57.3</ele>
        <time>2026-05-14T09:20:15Z</time>
      </trkpt>
      <trkpt lat="43.70982" lon="7.1972">
        <ele>48.9</ele>
        <time>2026-05-14T09:20:16Z</time>
      </trkpt>
      <trkpt lat="43.70973" lon="7.19692">
        <ele>35.5</ele>
        <time>2026-05-14T09:20:17Z</time>
      </trkpt>
      <trkpt lat="43.70964" lon="7.19664">
        <ele>29.2</ele>
        <time>2026-05-14T09:20:18Z</time>
      </trkpt>
      <trkpt lat="43.70955" lon="7.19636">
        <ele>27.4</ele>
        <time>2026-05-14T09:20:19Z</time>
      </trkpt>
      <trkpt lat="43.70946" lon="7.19609">
        <ele>27.1</ele>
        <time>2026-05-14T09:20:20Z</time>
      </trkpt>
      <trkpt lat="43.70937" lon="7.19582">
        <ele>27</ele>
        <time>2026-05-14T09:20:21Z</time>
      </trkpt>
      <trkpt lat="43.70929" lon="7.19556">
        <ele>27</ele>
        <time>2026-05-14T09:20:22Z</time>
      </trkpt>
      <trkpt lat="43.7092" lon="7.19529">
        <ele>27.1</ele>
        <time>2026-05-14T09:20:23Z</time>
      </trkpt>
      <trkpt lat="43.70911" lon="7.19502">
        <ele>28.1</ele>
        <time>2026-05-14T09:20:24Z</time>
      </trkpt>
      <trkpt lat="43.70902" lon="7.19474">
        <ele>36.2</ele>
        <time>2026-05-14T09:20:25Z</time>
      </trkpt>
      <trkpt lat="43.70893" lon="7.19447">
        <ele>39.7</ele>
        <time>2026-05-14T09:20:26Z</time>
      </trkpt>
      <trkpt lat="43.70884" lon="7.19418">
        <ele>39.6</ele>
        <time>2026-05-14T09:20:27Z</time>
      </trkpt>
      <trkpt lat="43.70875" lon="7.1939">
        <ele>36.6</ele>
        <time>2026-05-14T09:20:28Z</time>
      </trkpt>
      <trkpt lat="43.70865" lon="7.19361">
        <ele>35.9</ele>
        <time>2026-05-14T09:20:29Z</time>
      </trkpt>
      <trkpt lat="43.70856" lon="7.19333">
        <ele>36.6</ele>
        <time>2026-05-14T09:20:30Z</time>
      </trkpt>
      <trkpt lat="43.70846" lon="7.19304">
        <ele>34</ele>
        <time>2026-05-14T09:20:31Z</time>
      </trkpt>
      <trkpt lat="43.70836" lon="7.19274">
        <ele>33</ele>
        <time>2026-05-14T09:20:32Z</time>
      </trkpt>
      <trkpt lat="43.70827" lon="7.19246">
        <ele>30.5</ele>
        <time>2026-05-14T09:20:33Z</time>
      </trkpt>
      <trkpt lat="43.70818" lon="7.19218">
        <ele>32.3</ele>
        <time>2026-05-14T09:20:34Z</time>
      </trkpt>
      <trkpt lat="43.70808" lon="7.19191">
        <ele>32.4</ele>
        <time>2026-05-14T09:20:35Z</time>
      </trkpt>
      <trkpt lat="43.70797" lon="7.19166">
        <ele>32</ele>
        <time>2026-05-14T09:20:36Z</time>
      </trkpt>
      <trkpt lat="43.70785" lon="7.19142">
        <ele>32</ele>
        <time>2026-05-14T09:20:37Z</time>
      </trkpt>
      <trkpt lat="43.70773" lon="7.1912">
        <ele>31.8</ele>
        <time>2026-05-14T09:20:38Z</time>
      </trkpt>
      <trkpt lat="43.7076" lon="7.19099">
        <ele>31.2</ele>
        <time>2026-05-14T09:20:39Z</time>
      </trkpt>
      <trkpt lat="43.70747" lon="7.1908">
        <ele>31</ele>
        <time>2026-05-14T09:20:40Z</time>
      </trkpt>
      <trkpt lat="43.70733" lon="7.19062">
        <ele>31</ele>
        <time>2026-05-14T09:20:41Z</time>
      </trkpt>
      <trkpt lat="43.70719" lon="7.19044">
        <ele>31</ele>
        <time>2026-05-14T09:20:42Z</time>
      </trkpt>
      <trkpt lat="43.70704" lon="7.19027">
        <ele>31</ele>
        <time>2026-05-14T09:20:43Z</time>
      </trkpt>
      <trkpt lat="43.70688" lon="7.19009">
        <ele>31.5</ele>
        <time>2026-05-14T09:20:44Z</time>
      </trkpt>
      <trkpt lat="43.70672" lon="7.18992">
        <ele>31.2</ele>
        <time>2026-05-14T09:20:45Z</time>
      </trkpt>
      <trkpt lat="43.70657" lon="7.18976">
        <ele>31.3</ele>
        <time>2026-05-14T09:20:46Z</time>
      </trkpt>
      <trkpt lat="43.70642" lon="7.18959">
        <ele>29.1</ele>
        <time>2026-05-14T09:20:47Z</time>
      </trkpt>
      <trkpt lat="43.70627" lon="7.18943">
        <ele>28.2</ele>
        <time>2026-05-14T09:20:48Z</time>
      </trkpt>
      <trkpt lat="43.70611" lon="7.18926">
        <ele>31.7</ele>
        <time>2026-05-14T09:20:49Z</time>
      </trkpt>
      <trkpt lat="43.70596" lon="7.1891">
        <ele>31.3</ele>
        <time>2026-05-14T09:20:50Z</time>
      </trkpt>
      <trkpt lat="43.7058" lon="7.18896">
        <ele>31.5</ele>
        <time>2026-05-14T09:20:51Z</time>
      </trkpt>
      <trkpt lat="43.70564" lon="7.18882">
        <ele>27.6</ele>
        <time>2026-05-14T09:20:52Z</time>
      </trkpt>
      <trkpt lat="43.70547" lon="7.1887">
        <ele>25.7</ele>
        <time>2026-05-14T09:20:53Z</time>
      </trkpt>
      <trkpt lat="43.7053" lon="7.18858">
        <ele>26</ele>
        <time>2026-05-14T09:20:54Z</time>
      </trkpt>
      <trkpt lat="43.70512" lon="7.18848">
        <ele>28.7</ele>
        <time>2026-05-14T09:20:55Z</time>
      </trkpt>
      <trkpt lat="43.70495" lon="7.18838">
        <ele>30.8</ele>
        <time>2026-05-14T09:20:56Z</time>
      </trkpt>
      <trkpt lat="43.70476" lon="7.18831">
        <ele>30.6</ele>
        <time>2026-05-14T09:20:57Z</time>
      </trkpt>
      <trkpt lat="43.70457" lon="7.18824">
        <ele>29.3</ele>
        <time>2026-05-14T09:20:58Z</time>
      </trkpt>
      <trkpt lat="43.70438" lon="7.18819">
        <ele>29</ele>
        <time>2026-05-14T09:20:59Z</time>
      </trkpt>
      <trkpt lat="43.70419" lon="7.18814">
        <ele>28.6</ele>
        <time>2026-05-14T09:21:00Z</time>
      </trkpt>
      <trkpt lat="43.704" lon="7.18812">
        <ele>28.8</ele>
        <time>2026-05-14T09:21:01Z</time>
      </trkpt>
      <trkpt lat="43.70381" lon="7.18811">
        <ele>28.8</ele>
        <time>2026-05-14T09:21:02Z</time>
      </trkpt>
      <trkpt lat="43.70362" lon="7.1881">
        <ele>28.2</ele>
        <time>2026-05-14T09:21:03Z</time>
      </trkpt>
      <trkpt lat="43.70344" lon="7.18809">
        <ele>28.1</ele>
        <time>2026-05-14T09:21:04Z</time>
      </trkpt>
      <trkpt lat="43.70326" lon="7.18809">
        <ele>28.1</ele>
        <time>2026-05-14T09:21:05Z</time>
      </trkpt>
      <trkpt lat="43.70308" lon="7.1881">
        <ele>28</ele>
        <time>2026-05-14T09:21:06Z</time>
      </trkpt>
      <trkpt lat="43.7029" lon="7.1881">
        <ele>27.1</ele>
        <time>2026-05-14T09:21:07Z</time>
      </trkpt>
      <trkpt lat="43.70273" lon="7.18811">
        <ele>26.2</ele>
        <time>2026-05-14T09:21:08Z</time>
      </trkpt>
      <trkpt lat="43.70255" lon="7.18812">
        <ele>25.6</ele>
        <time>2026-05-14T09:21:09Z</time>
      </trkpt>
      <trkpt lat="43.70238" lon="7.18813">
        <ele>25.9</ele>
        <time>2026-05-14T09:21:10Z</time>
      </trkpt>
      <trkpt lat="43.70221" lon="7.18813">
        <ele>26.3</ele>
        <time>2026-05-14T09:21:11Z</time>
      </trkpt>
      <trkpt lat="43.70203" lon="7.18813">
        <ele>26.3</ele>
        <time>2026-05-14T09:21:12Z</time>
      </trkpt>
      <trkpt lat="43.70186" lon="7.18813">
        <ele>26.2</ele>
        <time>2026-05-14T09:21:13Z</time>
      </trkpt>
      <trkpt lat="43.7017" lon="7.18813">
        <ele>26</ele>
        <time>2026-05-14T09:21:14Z</time>
      </trkpt>
      <trkpt lat="43.70153" lon="7.18813">
        <ele>26</ele>
        <time>2026-05-14T09:21:15Z</time>
      </trkpt>
      <trkpt lat="43.70138" lon="7.18814">
        <ele>26</ele>
        <time>2026-05-14T09:21:16Z</time>
      </trkpt>
      <trkpt lat="43.70123" lon="7.18814">
        <ele>25.6</ele>
        <time>2026-05-14T09:21:17Z</time>
      </trkpt>
      <trkpt lat="43.70109" lon="7.18815">
        <ele>25.3</ele>
        <time>2026-05-14T09:21:18Z</time>
      </trkpt>
      <trkpt lat="43.70096" lon="7.18815">
        <ele>25.2</ele>
        <time>2026-05-14T09:21:19Z</time>
      </trkpt>
      <trkpt lat="43.70083" lon="7.18816">
        <ele>25</ele>
        <time>2026-05-14T09:21:20Z</time>
      </trkpt>
      <trkpt lat="43.70071" lon="7.18816">
        <ele>25</ele>
        <time>2026-05-14T09:21:21Z</time>
      </trkpt>
      <trkpt lat="43.7006" lon="7.18816">
        <ele>25</ele>
        <time>2026-05-14T09:21:22Z</time>
      </trkpt>
      <trkpt lat="43.7005" lon="7.18816">
        <ele>25</ele>
        <time>2026-05-14T09:21:23Z</time>
      </trkpt>
      <trkpt lat="43.7004" lon="7.18817">
        <ele>25</ele>
        <time>2026-05-14T09:21:24Z</time>
      </trkpt>
      <trkpt lat="43.70033" lon="7.18818">
        <ele>25</ele>
        <time>2026-05-14T09:21:25Z</time>
      </trkpt>
      <trkpt lat="43.70028" lon="7.18818">
        <ele>25</ele>
        <time>2026-05-14T09:21:26Z</time>
      </trkpt>
      <trkpt lat="43.70024" lon="7.18818">
        <ele>25</ele>
        <time>2026-05-14T09:21:27Z</time>
      </trkpt>
      <trkpt lat="43.70021" lon="7.18819">
        <ele>25</ele>
        <time>2026-05-14T09:21:28Z</time>
      </trkpt>
      <trkpt lat="43.70019" lon="7.18819">
        <ele>25</ele>
        <time>2026-05-14T09:21:29Z</time>
      </trkpt>
      <trkpt lat="43.70017" lon="7.18819">
        <ele>25</ele>
        <time>2026-05-14T09:21:30Z</time>
      </trkpt>
      <trkpt lat="43.70015" lon="7.18819">
        <ele>25</ele>
        <time>2026-05-14T09:21:31Z</time>
      </trkpt>
      <trkpt lat="43.70013" lon="7.1882">
        <ele>25</ele>
        <time>2026-05-14T09:21:32Z</time>
      </trkpt>
      <trkpt lat="43.7001" lon="7.1882">
        <ele>25</ele>
        <time>2026-05-14T09:21:33Z</time>
      </trkpt>
      <trkpt lat="43.70009" lon="7.1882">
        <ele>25</ele>
        <time>2026-05-14T09:21:34Z</time>
      </trkpt>
      <trkpt lat="43.70009" lon="7.1882">
        <ele>25</ele>
        <time>2026-05-14T09:21:35Z</time>
      </trkpt>
      <trkpt lat="43.70008" lon="7.1882">
        <ele>25</ele>
        <time>2026-05-14T09:21:36Z</time>
      </trkpt>
      <trkpt lat="43.70008" lon="7.1882">
        <ele>25</ele>
        <time>2026-05-14T09:21:37Z</time>
      </trkpt>
      <trkpt lat="43.70008" lon="7.1882">
        <ele>25</ele>
        <time>2026-05-14T09:21:38Z</time>
      </trkpt>
      <trkpt lat="43.70008" lon="7.1882">
        <ele>25</ele>
        <time>2026-05-14T09:21:39Z</time>
      </trkpt>
      <trkpt lat="43.70008" lon="7.1882">
        <ele>25</ele>
        <time>2026-05-14T09:21:40Z</time>
      </trkpt>
      <trkpt lat="43.70008" lon="7.18819">
        <ele>25</ele>
        <time>2026-05-14T09:21:41Z</time>
      </trkpt>
      <trkpt lat="43.70008" lon="7.18819">
        <ele>25</ele>
        <time>2026-05-14T09:21:42Z</time>
      </trkpt>
      <trkpt lat="43.70008" lon="7.18819">
        <ele>25</ele>
        <time>2026-05-14T09:21:43Z</time>
      </trkpt>
      <trkpt lat="43.70008" lon="7.18819">
        <ele>25</ele>
        <time>2026-05-14T09:21:44Z</time>
      </trkpt>
      <trkpt lat="43.70008" lon="7.18819">
        <ele>25</ele>
        <time>2026-05-14T09:21:45Z</time>
      </trkpt>
      <trkpt lat="43.70008" lon="7.18819">
        <ele>25</ele>
        <time>2026-05-14T09:21:46Z</time>
      </trkpt>
      <trkpt lat="43.70008" lon="7.18819">
        <ele>25</ele>
        <time>2026-05-14T09:21:47Z</time>
      </trkpt>
      <trkpt lat="43.70008" lon="7.18819">
        <ele>25</ele>
        <time>2026-05-14T09:21:48Z</time>
      </trkpt>
      <trkpt lat="43.70008" lon="7.18819">
        <ele>25</ele>
        <time>2026-05-14T09:21:49Z</time>
      </trkpt>
      <trkpt lat="43.70007" lon="7.1882">
        <ele>25</ele>
        <time>2026-05-14T09:21:50Z</time>
      </trkpt>
      <trkpt lat="43.70006" lon="7.1882">
        <ele>25</ele>
        <time>2026-05-14T09:21:51Z</time>
      </trkpt>
      <trkpt lat="43.70005" lon="7.18819">
        <ele>25</ele>
        <time>2026-05-14T09:21:52Z</time>
      </trkpt>
      <trkpt lat="43.70004" lon="7.18817">
        <ele>25</ele>
        <time>2026-05-14T09:21:53Z</time>
      </trkpt>
      <trkpt lat="43.70004" lon="7.18817">
        <ele>25</ele>
        <time>2026-05-14T09:21:54Z</time>
      </trkpt>
      <trkpt lat="43.70004" lon="7.18816">
        <ele>25</ele>
        <time>2026-05-14T09:21:55Z</time>
      </trkpt>
      <trkpt lat="43.70005" lon="7.18816">
        <ele>25</ele>
        <time>2026-05-14T09:21:56Z</time>
      </trkpt>
      <trkpt lat="43.70005" lon="7.18817">
        <ele>25</ele>
        <time>2026-05-14T09:21:57Z</time>
      </trkpt>
      <trkpt lat="43.70006" lon="7.18817">
        <ele>25</ele>
        <time>2026-05-14T09:21:58Z</time>
      </trkpt>
      <trkpt lat="43.70007" lon="7.18818">
        <ele>25</ele>
        <time>2026-05-14T09:21:59Z</time>
      </trkpt>
      <trkpt lat="43.70007" lon="7.18818">
        <ele>25</ele>
        <time>2026-05-14T09:22:00Z</time>
      </trkpt>
      <trkpt lat="43.70007" lon="7.18818">
        <ele>25</ele>
        <time>2026-05-14T09:22:01Z</time>
      </trkpt>
      <trkpt lat="43.70007" lon="7.18819">
        <ele>25</ele>
        <time>2026-05-14T09:22:02Z</time>
      </trkpt>
      <trkpt lat="43.70008" lon="7.18819">
        <ele>25</ele>
        <time>2026-05-14T09:22:03Z</time>
      </trkpt>
      <trkpt lat="43.70008" lon="7.1882">
        <ele>25</ele>
        <time>2026-05-14T09:22:04Z</time>
      </trkpt>
      <trkpt lat="43.70008" lon="7.1882">
        <ele>25</ele>
        <time>2026-05-14T09:22:05Z</time>
      </trkpt>
      <trkpt lat="43.70008" lon="7.1882">
        <ele>25</ele>
        <time>2026-05-14T09:22:06Z</time>
      </trkpt>
      <trkpt lat="43.70008" lon="7.1882">
        <ele>25</ele>
        <time>2026-05-14T09:22:07Z</time>
      </trkpt>
      <trkpt lat="43.70008" lon="7.1882">
        <ele>25</ele>
        <time>2026-05-14T09:22:08Z</time>
      </trkpt>
      <trkpt lat="43.70008" lon="7.1882">
        <ele>25</ele>
        <time>2026-05-14T09:22:09Z</time>
      </trkpt>
      <trkpt lat="43.70008" lon="7.1882">
        <ele>25</ele>
        <time>2026-05-14T09:22:10Z</time>
      </trkpt>
      <trkpt lat="43.70008" lon="7.1882">
        <ele>25</ele>
        <time>2026-05-14T09:22:11Z</time>
      </trkpt>
      <trkpt lat="43.70008" lon="7.1882">
        <ele>25</ele>
        <time>2026-05-14T09:22:12Z</time>
      </trkpt>
      <trkpt lat="43.70008" lon="7.1882">
        <ele>25</ele>
        <time>2026-05-14T09:22:13Z</time>
      </trkpt>
      <trkpt lat="43.70008" lon="7.1882">
        <ele>25</ele>
        <time>2026-05-14T09:22:14Z</time>
      </trkpt>
      <trkpt lat="43.70008" lon="7.1882">
        <ele>25</ele>
        <time>2026-05-14T09:22:15Z</time>
      </trkpt>
      <trkpt lat="43.70008" lon="7.1882">
        <ele>25</ele>
        <time>2026-05-14T09:22:16Z</time>
      </trkpt>
      <trkpt lat="43.70008" lon="7.1882">
        <ele>25</ele>
        <time>2026-05-14T09:22:17Z</time>
      </trkpt>
      <trkpt lat="43.70008" lon="7.1882">
        <ele>25</ele>
        <time>2026-05-14T09:22:18Z</time>
      </trkpt>
      <trkpt lat="43.70008" lon="7.1882">
        <ele>25</ele>
        <time>2026-05-14T09:22:19Z</time>
      </trkpt>
      <trkpt lat="43.70008" lon="7.1882">
        <ele>25</ele>
        <time>2026-05-14T09:22:20Z</time>
      </trkpt>
      <trkpt lat="43.70008" lon="7.1882">
        <ele>25</ele>
        <time>2026-05-14T09:22:21Z</time>
      </trkpt>
      <trkpt lat="43.70008" lon="7.1882">
        <ele>25</ele>
        <time>2026-05-14T09:22:22Z</time>
      </trkpt>
      <trkpt lat="43.70008" lon="7.1882">
        <ele>25</ele>
        <time>2026-05-14T09:22:23Z</time>
      </trkpt>
      <trkpt lat="43.70008" lon="7.1882">
        <ele>25</ele>
        <time>2026-05-14T09:22:24Z</time>
      </trkpt>
      <trkpt lat="43.70008" lon="7.1882">
        <ele>25</ele>
        <time>2026-05-14T09:22:25Z</time>
      </trkpt>
      <trkpt lat="43.70007" lon="7.1882">
        <ele>25</ele>
        <time>2026-05-14T09:22:26Z</time>
      </trkpt>
      <trkpt lat="43.70005" lon="7.18819">
        <ele>25</ele>
        <time>2026-05-14T09:22:27Z</time>
      </trkpt>
      <trkpt lat="43.69996" lon="7.18819">
        <ele>25</ele>
        <time>2026-05-14T09:22:28Z</time>
      </trkpt>
      <trkpt lat="43.6999" lon="7.1882">
        <ele>25</ele>
        <time>2026-05-14T09:22:29Z</time>
      </trkpt>
      <trkpt lat="43.69984" lon="7.1882">
        <ele>25</ele>
        <time>2026-05-14T09:22:30Z</time>
      </trkpt>
      <trkpt lat="43.69978" lon="7.1882">
        <ele>25</ele>
        <time>2026-05-14T09:22:31Z</time>
      </trkpt>
      <trkpt lat="43.69971" lon="7.1882">
        <ele>25</ele>
        <time>2026-05-14T09:22:32Z</time>
      </trkpt>
      <trkpt lat="43.69964" lon="7.18818">
        <ele>24.7</ele>
        <time>2026-05-14T09:22:33Z</time>
      </trkpt>
      <trkpt lat="43.69956" lon="7.18815">
        <ele>24.4</ele>
        <time>2026-05-14T09:22:34Z</time>
      </trkpt>
      <trkpt lat="43.69949" lon="7.18814">
        <ele>24.2</ele>
        <time>2026-05-14T09:22:35Z</time>
      </trkpt>
      <trkpt lat="43.69941" lon="7.18813">
        <ele>24</ele>
        <time>2026-05-14T09:22:36Z</time>
      </trkpt>
      <trkpt lat="43.69933" lon="7.18813">
        <ele>24</ele>
        <time>2026-05-14T09:22:37Z</time>
      </trkpt>
      <trkpt lat="43.69926" lon="7.18813">
        <ele>24</ele>
        <time>2026-05-14T09:22:38Z</time>
      </trkpt>
      <trkpt lat="43.69919" lon="7.18814">
        <ele>24</ele>
        <time>2026-05-14T09:22:39Z</time>
      </trkpt>
      <trkpt lat="43.69913" lon="7.18815">
        <ele>24</ele>
        <time>2026-05-14T09:22:40Z</time>
      </trkpt>
      <trkpt lat="43.69908" lon="7.18816">
        <ele>24</ele>
        <time>2026-05-14T09:22:41Z</time>
      </trkpt>
      <trkpt lat="43.69904" lon="7.18817">
        <ele>24</ele>
        <time>2026-05-14T09:22:42Z</time>
      </trkpt>
      <trkpt lat="43.69901" lon="7.18818">
        <ele>24</ele>
        <time>2026-05-14T09:22:43Z</time>
      </trkpt>
      <trkpt lat="43.69899" lon="7.18819">
        <ele>24</ele>
        <time>2026-05-14T09:22:44Z</time>
      </trkpt>
      <trkpt lat="43.69897" lon="7.18819">
        <ele>24</ele>
        <time>2026-05-14T09:22:45Z</time>
      </trkpt>
      <trkpt lat="43.69895" lon="7.18818">
        <ele>24</ele>
        <time>2026-05-14T09:22:46Z</time>
      </trkpt>
      <trkpt lat="43.69895" lon="7.18818">
        <ele>24</ele>
        <time>2026-05-14T09:22:47Z</time>
      </trkpt>
      <trkpt lat="43.69895" lon="7.18817">
        <ele>24</ele>
        <time>2026-05-14T09:22:48Z</time>
      </trkpt>
      <trkpt lat="43.69894" lon="7.18815">
        <ele>24</ele>
        <time>2026-05-14T09:22:49Z</time>
      </trkpt>
      <trkpt lat="43.69894" lon="7.18815">
        <ele>24</ele>
        <time>2026-05-14T09:22:50Z</time>
      </trkpt>
      <trkpt lat="43.69894" lon="7.18815">
        <ele>24</ele>
        <time>2026-05-14T09:22:51Z</time>
      </trkpt>
      <trkpt lat="43.69895" lon="7.18815">
        <ele>24</ele>
        <time>2026-05-14T09:22:52Z</time>
      </trkpt>
      <trkpt lat="43.69895" lon="7.18815">
        <ele>24</ele>
        <time>2026-05-14T09:22:53Z</time>
      </trkpt>
      <trkpt lat="43.69895" lon="7.18815">
        <ele>24</ele>
        <time>2026-05-14T09:22:54Z</time>
      </trkpt>
      <trkpt lat="43.69895" lon="7.18815">
        <ele>24</ele>
        <time>2026-05-14T09:22:55Z</time>
      </trkpt>
      <trkpt lat="43.69895" lon="7.18815">
        <ele>24</ele>
        <time>2026-05-14T09:22:56Z</time>
      </trkpt>
      <trkpt lat="43.69895" lon="7.18815">
        <ele>24</ele>
        <time>2026-05-14T09:22:57Z</time>
      </trkpt>
      <trkpt lat="43.69895" lon="7.18815">
        <ele>24</ele>
        <time>2026-05-14T09:22:58Z</time>
      </trkpt>
      <trkpt lat="43.69895" lon="7.18815">
        <ele>24</ele>
        <time>2026-05-14T09:22:59Z</time>
      </trkpt>
      <trkpt lat="43.69895" lon="7.18815">
        <ele>24</ele>
        <time>2026-05-14T09:23:00Z</time>
      </trkpt>
      <trkpt lat="43.69895" lon="7.18815">
        <ele>24</ele>
        <time>2026-05-14T09:23:01Z</time>
      </trkpt>
      <trkpt lat="43.69895" lon="7.18815">
        <ele>24</ele>
        <time>2026-05-14T09:23:02Z</time>
      </trkpt>
      <trkpt lat="43.69895" lon="7.18815">
        <ele>24</ele>
        <time>2026-05-14T09:23:03Z</time>
      </trkpt>
      <trkpt lat="43.69895" lon="7.18815">
        <ele>24</ele>
        <time>2026-05-14T09:23:04Z</time>
      </trkpt>
      <trkpt lat="43.69895" lon="7.18815">
        <ele>24</ele>
        <time>2026-05-14T09:23:05Z</time>
      </trkpt>
      <trkpt lat="43.69895" lon="7.18815">
        <ele>24</ele>
        <time>2026-05-14T09:23:06Z</time>
      </trkpt>
      <trkpt lat="43.69895" lon="7.18815">
        <ele>24</ele>
        <time>2026-05-14T09:23:07Z</time>
      </trkpt>
      <trkpt lat="43.69895" lon="7.18815">
        <ele>24</ele>
        <time>2026-05-14T09:23:08Z</time>
      </trkpt>
      <trkpt lat="43.69895" lon="7.18815">
        <ele>24</ele>
        <time>2026-05-14T09:23:09Z</time>
      </trkpt>
      <trkpt lat="43.69895" lon="7.18815">
        <ele>24</ele>
        <time>2026-05-14T09:23:10Z</time>
      </trkpt>
      <trkpt lat="43.69895" lon="7.18815">
        <ele>24</ele>
        <time>2026-05-14T09:23:11Z</time>
      </trkpt>
      <trkpt lat="43.69895" lon="7.18815">
        <ele>24</ele>
        <time>2026-05-14T09:23:12Z</time>
      </trkpt>
      <trkpt lat="43.69894" lon="7.18817">
        <ele>24</ele>
        <time>2026-05-14T09:23:24Z</time>
      </trkpt>
      <trkpt lat="43.69894" lon="7.18817">
        <ele>24</ele>
        <time>2026-05-14T09:23:25Z</time>
      </trkpt>
      <trkpt lat="43.69893" lon="7.18822">
        <ele>24</ele>
        <time>2026-05-14T09:23:26Z</time>
      </trkpt>
      <trkpt lat="43.69895" lon="7.18815">
        <ele>24</ele>
        <time>2026-05-14T09:23:27Z</time>
      </trkpt>
      <trkpt lat="43.69895" lon="7.18815">
        <ele>24</ele>
        <time>2026-05-14T09:23:28Z</time>
      </trkpt>
      <trkpt lat="43.69894" lon="7.18817">
        <ele>24</ele>
        <time>2026-05-14T09:23:29Z</time>
      </trkpt>
      <trkpt lat="43.69892" lon="7.18819">
        <ele>24</ele>
        <time>2026-05-14T09:23:30Z</time>
      </trkpt>
      <trkpt lat="43.69887" lon="7.18822">
        <ele>23.9</ele>
        <time>2026-05-14T09:23:31Z</time>
      </trkpt>
      <trkpt lat="43.6988" lon="7.18826">
        <ele>23.8</ele>
        <time>2026-05-14T09:23:32Z</time>
      </trkpt>
      <trkpt lat="43.69871" lon="7.18829">
        <ele>23.8</ele>
        <time>2026-05-14T09:23:33Z</time>
      </trkpt>
      <trkpt lat="43.69862" lon="7.18832">
        <ele>23.9</ele>
        <time>2026-05-14T09:23:34Z</time>
      </trkpt>
      <trkpt lat="43.6985" lon="7.18834">
        <ele>24</ele>
        <time>2026-05-14T09:23:35Z</time>
      </trkpt>
      <trkpt lat="43.69837" lon="7.18837">
        <ele>24</ele>
        <time>2026-05-14T09:23:36Z</time>
      </trkpt>
      <trkpt lat="43.69824" lon="7.18839">
        <ele>23.7</ele>
        <time>2026-05-14T09:23:37Z</time>
      </trkpt>
      <trkpt lat="43.69812" lon="7.18842">
        <ele>23.5</ele>
        <time>2026-05-14T09:23:38Z</time>
      </trkpt>
      <trkpt lat="43.69799" lon="7.18844">
        <ele>23.4</ele>
        <time>2026-05-14T09:23:39Z</time>
      </trkpt>
      <trkpt lat="43.69785" lon="7.18846">
        <ele>23.5</ele>
        <time>2026-05-14T09:23:40Z</time>
      </trkpt>
      <trkpt lat="43.6977" lon="7.18848">
        <ele>23.3</ele>
        <time>2026-05-14T09:23:41Z</time>
      </trkpt>
      <trkpt lat="43.69754" lon="7.18851">
        <ele>23</ele>
        <time>2026-05-14T09:23:42Z</time>
      </trkpt>
      <trkpt lat="43.69738" lon="7.18853">
        <ele>22.8</ele>
        <time>2026-05-14T09:23:43Z</time>
      </trkpt>
      <trkpt lat="43.69723" lon="7.18855">
        <ele>22.6</ele>
        <time>2026-05-14T09:23:44Z</time>
      </trkpt>
      <trkpt lat="43.69706" lon="7.18857">
        <ele>22.6</ele>
        <time>2026-05-14T09:23:45Z</time>
      </trkpt>
      <trkpt lat="43.69687" lon="7.18859">
        <ele>22.8</ele>
        <time>2026-05-14T09:23:46Z</time>
      </trkpt>
      <trkpt lat="43.69668" lon="7.18862">
        <ele>23</ele>
        <time>2026-05-14T09:23:47Z</time>
      </trkpt>
      <trkpt lat="43.69649" lon="7.18865">
        <ele>23</ele>
        <time>2026-05-14T09:23:48Z</time>
      </trkpt>
      <trkpt lat="43.6963" lon="7.18868">
        <ele>22.8</ele>
        <time>2026-05-14T09:23:49Z</time>
      </trkpt>
      <trkpt lat="43.69611" lon="7.18872">
        <ele>22.4</ele>
        <time>2026-05-14T09:23:50Z</time>
      </trkpt>
      <trkpt lat="43.69591" lon="7.18875">
        <ele>22.5</ele>
        <time>2026-05-14T09:23:51Z</time>
      </trkpt>
      <trkpt lat="43.69571" lon="7.1888">
        <ele>21.8</ele>
        <time>2026-05-14T09:23:52Z</time>
      </trkpt>
      <trkpt lat="43.6955" lon="7.18884">
        <ele>20.6</ele>
        <time>2026-05-14T09:23:53Z</time>
      </trkpt>
      <trkpt lat="43.6953" lon="7.18888">
        <ele>21.8</ele>
        <time>2026-05-14T09:23:54Z</time>
      </trkpt>
      <trkpt lat="43.6951" lon="7.18892">
        <ele>22</ele>
        <time>2026-05-14T09:23:55Z</time>
      </trkpt>
      <trkpt lat="43.6949" lon="7.18895">
        <ele>22</ele>
        <time>2026-05-14T09:23:56Z</time>
      </trkpt>
      <trkpt lat="43.69469" lon="7.189">
        <ele>21.9</ele>
        <time>2026-05-14T09:23:57Z</time>
      </trkpt>
      <trkpt lat="43.69447" lon="7.18904">
        <ele>21.6</ele>
        <time>2026-05-14T09:23:58Z</time>
      </trkpt>
      <trkpt lat="43.69424" lon="7.18909">
        <ele>21.5</ele>
        <time>2026-05-14T09:23:59Z</time>
      </trkpt>
      <trkpt lat="43.69401" lon="7.18912">
        <ele>21.6</ele>
        <time>2026-05-14T09:24:00Z</time>
      </trkpt>
      <trkpt lat="43.69378" lon="7.18916">
        <ele>21.5</ele>
        <time>2026-05-14T09:24:01Z</time>
      </trkpt>
      <trkpt lat="43.69354" lon="7.1892">
        <ele>21</ele>
        <time>2026-05-14T09:24:02Z</time>
      </trkpt>
      <trkpt lat="43.6933" lon="7.18925">
        <ele>21</ele>
        <time>2026-05-14T09:24:03Z</time>
      </trkpt>
      <trkpt lat="43.69306" lon="7.18929">
        <ele>21</ele>
        <time>2026-05-14T09:24:04Z</time>
      </trkpt>
      <trkpt lat="43.69282" lon="7.18933">
        <ele>20.7</ele>
        <time>2026-05-14T09:24:05Z</time>
      </trkpt>
      <trkpt lat="43.69257" lon="7.18937">
        <ele>20.5</ele>
        <time>2026-05-14T09:24:06Z</time>
      </trkpt>
      <trkpt lat="43.69232" lon="7.18942">
        <ele>20.7</ele>
        <time>2026-05-14T09:24:07Z</time>
      </trkpt>
      <trkpt lat="43.69208" lon="7.18946">
        <ele>20.5</ele>
        <time>2026-05-14T09:24:08Z</time>
      </trkpt>
      <trkpt lat="43.69183" lon="7.1895">
        <ele>20</ele>
        <time>2026-05-14T09:24:09Z</time>
      </trkpt>
      <trkpt lat="43.69158" lon="7.18955">
        <ele>20</ele>
        <time>2026-05-14T09:24:10Z</time>
      </trkpt>
      <trkpt lat="43.69134" lon="7.1896">
        <ele>19.9</ele>
        <time>2026-05-14T09:24:11Z</time>
      </trkpt>
      <trkpt lat="43.6911" lon="7.18964">
        <ele>19.7</ele>
        <time>2026-05-14T09:24:12Z</time>
      </trkpt>
      <trkpt lat="43.69085" lon="7.18968">
        <ele>19.6</ele>
        <time>2026-05-14T09:24:13Z</time>
      </trkpt>
      <trkpt lat="43.69061" lon="7.18972">
        <ele>20</ele>
        <time>2026-05-14T09:24:14Z</time>
      </trkpt>
      <trkpt lat="43.69037" lon="7.18977">
        <ele>19.3</ele>
        <time>2026-05-14T09:24:15Z</time>
      </trkpt>
      <trkpt lat="43.69013" lon="7.18981">
        <ele>19</ele>
        <time>2026-05-14T09:24:16Z</time>
      </trkpt>
      <trkpt lat="43.68988" lon="7.18987">
        <ele>18.8</ele>
        <time>2026-05-14T09:24:17Z</time>
      </trkpt>
      <trkpt lat="43.68963" lon="7.18992">
        <ele>18.5</ele>
        <time>2026-05-14T09:24:18Z</time>
      </trkpt>
      <trkpt lat="43.68937" lon="7.18998">
        <ele>18.7</ele>
        <time>2026-05-14T09:24:19Z</time>
      </trkpt>
      <trkpt lat="43.68911" lon="7.19004">
        <ele>18.8</ele>
        <time>2026-05-14T09:24:20Z</time>
      </trkpt>
      <trkpt lat="43.68885" lon="7.1901">
        <ele>18.2</ele>
        <time>2026-05-14T09:24:21Z</time>
      </trkpt>
      <trkpt lat="43.68859" lon="7.19017">
        <ele>17.6</ele>
        <time>2026-05-14T09:24:22Z</time>
      </trkpt>
      <trkpt lat="43.68833" lon="7.19024">
        <ele>17.6</ele>
        <time>2026-05-14T09:24:23Z</time>
      </trkpt>
      <trkpt lat="43.68807" lon="7.19031">
        <ele>18</ele>
        <time>2026-05-14T09:24:24Z</time>
      </trkpt>
      <trkpt lat="43.68781" lon="7.19039">
        <ele>17.5</ele>
        <time>2026-05-14T09:24:25Z</time>
      </trkpt>
      <trkpt lat="43.68755" lon="7.19046">
        <ele>17.1</ele>
        <time>2026-05-14T09:24:26Z</time>
      </trkpt>
      <trkpt lat="43.68729" lon="7.19054">
        <ele>17.1</ele>
        <time>2026-05-14T09:24:27Z</time>
      </trkpt>
      <trkpt lat="43.68703" lon="7.19062">
        <ele>16.9</ele>
        <time>2026-05-14T09:24:28Z</time>
      </trkpt>
      <trkpt lat="43.68677" lon="7.1907">
        <ele>16.7</ele>
        <time>2026-05-14T09:24:29Z</time>
      </trkpt>
      <trkpt lat="43.68651" lon="7.19079">
        <ele>16.6</ele>
        <time>2026-05-14T09:24:30Z</time>
      </trkpt>
      <trkpt lat="43.68625" lon="7.19087">
        <ele>17</ele>
        <time>2026-05-14T09:24:31Z</time>
      </trkpt>
      <trkpt lat="43.686" lon="7.19096">
        <ele>16.6</ele>
        <time>2026-05-14T09:24:32Z</time>
      </trkpt>
      <trkpt lat="43.68574" lon="7.19105">
        <ele>16.4</ele>
        <time>2026-05-14T09:24:33Z</time>
      </trkpt>
      <trkpt lat="43.68548" lon="7.19114">
        <ele>16.7</ele>
        <time>2026-05-14T09:24:34Z</time>
      </trkpt>
      <trkpt lat="43.68523" lon="7.19124">
        <ele>16.1</ele>
        <time>2026-05-14T09:24:35Z</time>
      </trkpt>
      <trkpt lat="43.68497" lon="7.19134">
        <ele>15.5</ele>
        <time>2026-05-14T09:24:36Z</time>
      </trkpt>
      <trkpt lat="43.68471" lon="7.19144">
        <ele>16</ele>
        <time>2026-05-14T09:24:37Z</time>
      </trkpt>
      <trkpt lat="43.68445" lon="7.19154">
        <ele>15.6</ele>
        <time>2026-05-14T09:24:38Z</time>
      </trkpt>
      <trkpt lat="43.68419" lon="7.19164">
        <ele>15.6</ele>
        <time>2026-05-14T09:24:39Z</time>
      </trkpt>
      <trkpt lat="43.68393" lon="7.19175">
        <ele>16</ele>
        <time>2026-05-14T09:24:40Z</time>
      </trkpt>
      <trkpt lat="43.68367" lon="7.19186">
        <ele>15.5</ele>
        <time>2026-05-14T09:24:41Z</time>
      </trkpt>
      <trkpt lat="43.68341" lon="7.19197">
        <ele>15.3</ele>
        <time>2026-05-14T09:24:42Z</time>
      </trkpt>
      <trkpt lat="43.68315" lon="7.19209">
        <ele>14.7</ele>
        <time>2026-05-14T09:24:43Z</time>
      </trkpt>
      <trkpt lat="43.68288" lon="7.1922">
        <ele>14.8</ele>
        <time>2026-05-14T09:24:44Z</time>
      </trkpt>
      <trkpt lat="43.68263" lon="7.19231">
        <ele>14.6</ele>
        <time>2026-05-14T09:24:45Z</time>
      </trkpt>
      <trkpt lat="43.68236" lon="7.19242">
        <ele>14.4</ele>
        <time>2026-05-14T09:24:46Z</time>
      </trkpt>
      <trkpt lat="43.6821" lon="7.19252">
        <ele>15</ele>
        <time>2026-05-14T09:24:47Z</time>
      </trkpt>
      <trkpt lat="43.68184" lon="7.19263">
        <ele>14.4</ele>
        <time>2026-05-14T09:24:48Z</time>
      </trkpt>
      <trkpt lat="43.68158" lon="7.19275">
        <ele>13.8</ele>
        <time>2026-05-14T09:24:49Z</time>
      </trkpt>
      <trkpt lat="43.68133" lon="7.19287">
        <ele>14</ele>
        <time>2026-05-14T09:24:50Z</time>
      </trkpt>
      <trkpt lat="43.68108" lon="7.19299">
        <ele>13.9</ele>
        <time>2026-05-14T09:24:51Z</time>
      </trkpt>
      <trkpt lat="43.68083" lon="7.1931">
        <ele>14</ele>
        <time>2026-05-14T09:24:52Z</time>
      </trkpt>
      <trkpt lat="43.68058" lon="7.1932">
        <ele>14</ele>
        <time>2026-05-14T09:24:53Z</time>
      </trkpt>
      <trkpt lat="43.68033" lon="7.1933">
        <ele>13.8</ele>
        <time>2026-05-14T09:24:54Z</time>
      </trkpt>
      <trkpt lat="43.68007" lon="7.19341">
        <ele>13.3</ele>
        <time>2026-05-14T09:24:55Z</time>
      </trkpt>
      <trkpt lat="43.67981" lon="7.19353">
        <ele>12.8</ele>
        <time>2026-05-14T09:24:56Z</time>
      </trkpt>
      <trkpt lat="43.67955" lon="7.19364">
        <ele>13</ele>
        <time>2026-05-14T09:24:57Z</time>
      </trkpt>
      <trkpt lat="43.6793" lon="7.19375">
        <ele>13</ele>
        <time>2026-05-14T09:24:58Z</time>
      </trkpt>
      <trkpt lat="43.67906" lon="7.19386">
        <ele>12.9</ele>
        <time>2026-05-14T09:24:59Z</time>
      </trkpt>
      <trkpt lat="43.67882" lon="7.19398">
        <ele>13</ele>
        <time>2026-05-14T09:25:00Z</time>
      </trkpt>
      <trkpt lat="43.67858" lon="7.1941">
        <ele>12.9</ele>
        <time>2026-05-14T09:25:01Z</time>
      </trkpt>
      <trkpt lat="43.67834" lon="7.19422">
        <ele>12.8</ele>
        <time>2026-05-14T09:25:02Z</time>
      </trkpt>
      <trkpt lat="43.6781" lon="7.19435">
        <ele>12.3</ele>
        <time>2026-05-14T09:25:03Z</time>
      </trkpt>
      <trkpt lat="43.67786" lon="7.19449">
        <ele>12.6</ele>
        <time>2026-05-14T09:25:04Z</time>
      </trkpt>
      <trkpt lat="43.67763" lon="7.19463">
        <ele>12.3</ele>
        <time>2026-05-14T09:25:05Z</time>
      </trkpt>
      <trkpt lat="43.6774" lon="7.19479">
        <ele>12</ele>
        <time>2026-05-14T09:25:06Z</time>
      </trkpt>
      <trkpt lat="43.67717" lon="7.19494">
        <ele>12</ele>
        <time>2026-05-14T09:25:07Z</time>
      </trkpt>
      <trkpt lat="43.67695" lon="7.19512">
        <ele>12</ele>
        <time>2026-05-14T09:25:08Z</time>
      </trkpt>
      <trkpt lat="43.67673" lon="7.19529">
        <ele>12</ele>
        <time>2026-05-14T09:25:09Z</time>
      </trkpt>
      <trkpt lat="43.67652" lon="7.19546">
        <ele>11.2</ele>
        <time>2026-05-14T09:25:10Z</time>
      </trkpt>
      <trkpt lat="43.67632" lon="7.19564">
        <ele>11</ele>
        <time>2026-05-14T09:25:11Z</time>
      </trkpt>
      <trkpt lat="43.67612" lon="7.19581">
        <ele>11</ele>
        <time>2026-05-14T09:25:12Z</time>
      </trkpt>
      <trkpt lat="43.67593" lon="7.19599">
        <ele>11</ele>
        <time>2026-05-14T09:25:13Z</time>
      </trkpt>
      <trkpt lat="43.67574" lon="7.19618">
        <ele>11</ele>
        <time>2026-05-14T09:25:14Z</time>
      </trkpt>
      <trkpt lat="43.67556" lon="7.19637">
        <ele>11</ele>
        <time>2026-05-14T09:25:15Z</time>
      </trkpt>
      <trkpt lat="43.67538" lon="7.19658">
        <ele>10.7</ele>
        <time>2026-05-14T09:25:16Z</time>
      </trkpt>
      <trkpt lat="43.6752" lon="7.19679">
        <ele>10.6</ele>
        <time>2026-05-14T09:25:17Z</time>
      </trkpt>
      <trkpt lat="43.67502" lon="7.19701">
        <ele>10</ele>
        <time>2026-05-14T09:25:18Z</time>
      </trkpt>
      <trkpt lat="43.67485" lon="7.19723">
        <ele>10</ele>
        <time>2026-05-14T09:25:19Z</time>
      </trkpt>
      <trkpt lat="43.67468" lon="7.19745">
        <ele>10.3</ele>
        <time>2026-05-14T09:25:20Z</time>
      </trkpt>
      <trkpt lat="43.67452" lon="7.19769">
        <ele>10.2</ele>
        <time>2026-05-14T09:25:21Z</time>
      </trkpt>
      <trkpt lat="43.67435" lon="7.19793">
        <ele>10.3</ele>
        <time>2026-05-14T09:25:22Z</time>
      </trkpt>
      <trkpt lat="43.67418" lon="7.19817">
        <ele>9.4</ele>
        <time>2026-05-14T09:25:23Z</time>
      </trkpt>
      <trkpt lat="43.67401" lon="7.1984">
        <ele>9.5</ele>
        <time>2026-05-14T09:25:24Z</time>
      </trkpt>
      <trkpt lat="43.67384" lon="7.19864">
        <ele>9.9</ele>
        <time>2026-05-14T09:25:25Z</time>
      </trkpt>
      <trkpt lat="43.67368" lon="7.19887">
        <ele>9.8</ele>
        <time>2026-05-14T09:25:26Z</time>
      </trkpt>
      <trkpt lat="43.67351" lon="7.19911">
        <ele>10.1</ele>
        <time>2026-05-14T09:25:27Z</time>
      </trkpt>
      <trkpt lat="43.67334" lon="7.19934">
        <ele>7.5</ele>
        <time>2026-05-14T09:25:28Z</time>
      </trkpt>
      <trkpt lat="43.67317" lon="7.19957">
        <ele>9.1</ele>
        <time>2026-05-14T09:25:29Z</time>
      </trkpt>
      <trkpt lat="43.67301" lon="7.19981">
        <ele>10.4</ele>
        <time>2026-05-14T09:25:30Z</time>
      </trkpt>
      <trkpt lat="43.67286" lon="7.20005">
        <ele>10.7</ele>
        <time>2026-05-14T09:25:31Z</time>
      </trkpt>
      <trkpt lat="43.67271" lon="7.20029">
        <ele>11.2</ele>
        <time>2026-05-14T09:25:32Z</time>
      </trkpt>
      <trkpt lat="43.67256" lon="7.20052">
        <ele>11.1</ele>
        <time>2026-05-14T09:25:33Z</time>
      </trkpt>
      <trkpt lat="43.6724" lon="7.20074">
        <ele>12.3</ele>
        <time>2026-05-14T09:25:34Z</time>
      </trkpt>
      <trkpt lat="43.67223" lon="7.20095">
        <ele>12.5</ele>
        <time>2026-05-14T09:25:35Z</time>
      </trkpt>
      <trkpt lat="43.67204" lon="7.20114">
        <ele>12</ele>
        <time>2026-05-14T09:25:36Z</time>
      </trkpt>
      <trkpt lat="43.67184" lon="7.20129">
        <ele>11.1</ele>
        <time>2026-05-14T09:25:37Z</time>
      </trkpt>
      <trkpt lat="43.67163" lon="7.2014">
        <ele>9</ele>
        <time>2026-05-14T09:25:38Z</time>
      </trkpt>
      <trkpt lat="43.67143" lon="7.20148">
        <ele>8.3</ele>
        <time>2026-05-14T09:25:39Z</time>
      </trkpt>
      <trkpt lat="43.67122" lon="7.20153">
        <ele>8</ele>
        <time>2026-05-14T09:25:40Z</time>
      </trkpt>
      <trkpt lat="43.67101" lon="7.20156">
        <ele>8</ele>
        <time>2026-05-14T09:25:41Z</time>
      </trkpt>
      <trkpt lat="43.67079" lon="7.20156">
        <ele>8.3</ele>
        <time>2026-05-14T09:25:42Z</time>
      </trkpt>
      <trkpt lat="43.67058" lon="7.20152">
        <ele>9.8</ele>
        <time>2026-05-14T09:25:43Z</time>
      </trkpt>
      <trkpt lat="43.67037" lon="7.20146">
        <ele>10</ele>
        <time>2026-05-14T09:25:44Z</time>
      </trkpt>
      <trkpt lat="43.67018" lon="7.20137">
        <ele>9.9</ele>
        <time>2026-05-14T09:25:45Z</time>
      </trkpt>
      <trkpt lat="43.67" lon="7.20126">
        <ele>10</ele>
        <time>2026-05-14T09:25:46Z</time>
      </trkpt>
      <trkpt lat="43.66983" lon="7.20113">
        <ele>10.6</ele>
        <time>2026-05-14T09:25:47Z</time>
      </trkpt>
      <trkpt lat="43.66967" lon="7.20098">
        <ele>10.9</ele>
        <time>2026-05-14T09:25:48Z</time>
      </trkpt>
      <trkpt lat="43.66953" lon="7.20081">
        <ele>11.2</ele>
        <time>2026-05-14T09:25:49Z</time>
      </trkpt>
      <trkpt lat="43.66939" lon="7.20062">
        <ele>11</ele>
        <time>2026-05-14T09:25:50Z</time>
      </trkpt>
      <trkpt lat="43.66925" lon="7.20041">
        <ele>11.8</ele>
        <time>2026-05-14T09:25:51Z</time>
      </trkpt>
      <trkpt lat="43.66913" lon="7.20018">
        <ele>12.4</ele>
        <time>2026-05-14T09:25:52Z</time>
      </trkpt>
      <trkpt lat="43.66902" lon="7.19993">
        <ele>12.2</ele>
        <time>2026-05-14T09:25:53Z</time>
      </trkpt>
      <trkpt lat="43.66893" lon="7.19967">
        <ele>13.1</ele>
        <time>2026-05-14T09:25:54Z</time>
      </trkpt>
      <trkpt lat="43.66884" lon="7.1994">
        <ele>12.7</ele>
        <time>2026-05-14T09:25:55Z</time>
      </trkpt>
      <trkpt lat="43.66876" lon="7.19915">
        <ele>8.6</ele>
        <time>2026-05-14T09:25:56Z</time>
      </trkpt>
      <trkpt lat="43.66869" lon="7.1989">
        <ele>9</ele>
        <time>2026-05-14T09:25:57Z</time>
      </trkpt>
      <trkpt lat="43.66862" lon="7.19865">
        <ele>7.3</ele>
        <time>2026-05-14T09:25:58Z</time>
      </trkpt>
      <trkpt lat="43.66854" lon="7.19841">
        <ele>7.5</ele>
        <time>2026-05-14T09:25:59Z</time>
      </trkpt>
      <trkpt lat="43.66847" lon="7.19817">
        <ele>5.7</ele>
        <time>2026-05-14T09:26:00Z</time>
      </trkpt>
      <trkpt lat="43.6684" lon="7.19792">
        <ele>4.6</ele>
        <time>2026-05-14T09:26:01Z</time>
      </trkpt>
      <trkpt lat="43.66833" lon="7.19768">
        <ele>5</ele>
        <time>2026-05-14T09:26:02Z</time>
      </trkpt>
      <trkpt lat="43.66825" lon="7.19743">
        <ele>5</ele>
        <time>2026-05-14T09:26:03Z</time>
      </trkpt>
      <trkpt lat="43.66817" lon="7.19719">
        <ele>5.1</ele>
        <time>2026-05-14T09:26:04Z</time>
      </trkpt>
      <trkpt lat="43.6681" lon="7.19695">
        <ele>5.8</ele>
        <time>2026-05-14T09:26:05Z</time>
      </trkpt>
      <trkpt lat="43.66802" lon="7.1967">
        <ele>5.9</ele>
        <time>2026-05-14T09:26:06Z</time>
      </trkpt>
      <trkpt lat="43.66795" lon="7.19645">
        <ele>5.1</ele>
        <time>2026-05-14T09:26:07Z</time>
      </trkpt>
      <trkpt lat="43.66787" lon="7.1962">
        <ele>8.9</ele>
        <time>2026-05-14T09:26:08Z</time>
      </trkpt>
      <trkpt lat="43.66779" lon="7.19593">
        <ele>11</ele>
        <time>2026-05-14T09:26:09Z</time>
      </trkpt>
      <trkpt lat="43.66771" lon="7.19567">
        <ele>15.6</ele>
        <time>2026-05-14T09:26:10Z</time>
      </trkpt>
      <trkpt lat="43.66763" lon="7.1954">
        <ele>18.8</ele>
        <time>2026-05-14T09:26:11Z</time>
      </trkpt>
      <trkpt lat="43.66754" lon="7.19512">
        <ele>19.7</ele>
        <time>2026-05-14T09:26:12Z</time>
      </trkpt>
      <trkpt lat="43.66746" lon="7.19486">
        <ele>20</ele>
        <time>2026-05-14T09:26:13Z</time>
      </trkpt>
      <trkpt lat="43.66738" lon="7.19459">
        <ele>20.4</ele>
        <time>2026-05-14T09:26:14Z</time>
      </trkpt>
      <trkpt lat="43.6673" lon="7.19432">
        <ele>21</ele>
        <time>2026-05-14T09:26:15Z</time>
      </trkpt>
      <trkpt lat="43.66723" lon="7.19405">
        <ele>21.9</ele>
        <time>2026-05-14T09:26:16Z</time>
      </trkpt>
      <trkpt lat="43.66715" lon="7.19379">
        <ele>21.7</ele>
        <time>2026-05-14T09:26:17Z</time>
      </trkpt>
      <trkpt lat="43.66708" lon="7.19351">
        <ele>21.7</ele>
        <time>2026-05-14T09:26:18Z</time>
      </trkpt>
      <trkpt lat="43.66701" lon="7.19324">
        <ele>22.1</ele>
        <time>2026-05-14T09:26:19Z</time>
      </trkpt>
      <trkpt lat="43.66695" lon="7.19297">
        <ele>21.4</ele>
        <time>2026-05-14T09:26:20Z</time>
      </trkpt>
      <trkpt lat="43.6669" lon="7.1927">
        <ele>18</ele>
        <time>2026-05-14T09:26:21Z</time>
      </trkpt>
      <trkpt lat="43.66685" lon="7.19243">
        <ele>18.3</ele>
        <time>2026-05-14T09:26:22Z</time>
      </trkpt>
      <trkpt lat="43.6668" lon="7.19215">
        <ele>18</ele>
        <time>2026-05-14T09:26:23Z</time>
      </trkpt>
      <trkpt lat="43.66676" lon="7.19188">
        <ele>18.3</ele>
        <time>2026-05-14T09:26:24Z</time>
      </trkpt>
      <trkpt lat="43.66671" lon="7.1916">
        <ele>20.5</ele>
        <time>2026-05-14T09:26:25Z</time>
      </trkpt>
      <trkpt lat="43.66668" lon="7.19132">
        <ele>23.8</ele>
        <time>2026-05-14T09:26:26Z</time>
      </trkpt>
      <trkpt lat="43.66664" lon="7.19104">
        <ele>23.7</ele>
        <time>2026-05-14T09:26:27Z</time>
      </trkpt>
      <trkpt lat="43.66661" lon="7.19076">
        <ele>23.9</ele>
        <time>2026-05-14T09:26:28Z</time>
      </trkpt>
      <trkpt lat="43.66657" lon="7.19049">
        <ele>24.8</ele>
        <time>2026-05-14T09:26:29Z</time>
      </trkpt>
      <trkpt lat="43.66653" lon="7.1902">
        <ele>26.4</ele>
        <time>2026-05-14T09:26:30Z</time>
      </trkpt>
      <trkpt lat="43.6665" lon="7.18991">
        <ele>27.3</ele>
        <time>2026-05-14T09:26:31Z</time>
      </trkpt>
      <trkpt lat="43.66646" lon="7.18963">
        <ele>26.9</ele>
        <time>2026-05-14T09:26:32Z</time>
      </trkpt>
      <trkpt lat="43.66642" lon="7.18934">
        <ele>26.2</ele>
        <time>2026-05-14T09:26:33Z</time>
      </trkpt>
      <trkpt lat="43.66637" lon="7.18906">
        <ele>26.7</ele>
        <time>2026-05-14T09:26:34Z</time>
      </trkpt>
      <trkpt lat="43.66633" lon="7.18877">
        <ele>27.5</ele>
        <time>2026-05-14T09:26:35Z</time>
      </trkpt>
      <trkpt lat="43.66628" lon="7.18849">
        <ele>28.4</ele>
        <time>2026-05-14T09:26:36Z</time>
      </trkpt>
      <trkpt lat="43.66622" lon="7.1882">
        <ele>28.7</ele>
        <time>2026-05-14T09:26:37Z</time>
      </trkpt>
      <trkpt lat="43.66616" lon="7.18791">
        <ele>27.8</ele>
        <time>2026-05-14T09:26:38Z</time>
      </trkpt>
      <trkpt lat="43.66609" lon="7.18762">
        <ele>27.3</ele>
        <time>2026-05-14T09:26:39Z</time>
      </trkpt>
      <trkpt lat="43.66602" lon="7.18733">
        <ele>28.6</ele>
        <time>2026-05-14T09:26:40Z</time>
      </trkpt>
      <trkpt lat="43.66594" lon="7.18703">
        <ele>28.9</ele>
        <time>2026-05-14T09:26:41Z</time>
      </trkpt>
      <trkpt lat="43.66586" lon="7.18674">
        <ele>27.6</ele>
        <time>2026-05-14T09:26:42Z</time>
      </trkpt>
      <trkpt lat="43.66578" lon="7.18644">
        <ele>27.3</ele>
        <time>2026-05-14T09:26:43Z</time>
      </trkpt>
      <trkpt lat="43.66569" lon="7.18615">
        <ele>29.6</ele>
        <time>2026-05-14T09:26:44Z</time>
      </trkpt>
      <trkpt lat="43.6656" lon="7.18586">
        <ele>28</ele>
        <time>2026-05-14T09:26:45Z</time>
      </trkpt>
      <trkpt lat="43.66551" lon="7.18557">
        <ele>26.4</ele>
        <time>2026-05-14T09:26:46Z</time>
      </trkpt>
      <trkpt lat="43.66542" lon="7.18527">
        <ele>27.6</ele>
        <time>2026-05-14T09:26:47Z</time>
      </trkpt>
      <trkpt lat="43.66534" lon="7.18498">
        <ele>27.3</ele>
        <time>2026-05-14T09:26:48Z</time>
      </trkpt>
      <trkpt lat="43.66526" lon="7.18469">
        <ele>26.1</ele>
        <time>2026-05-14T09:26:49Z</time>
      </trkpt>
      <trkpt lat="43.66517" lon="7.1844">
        <ele>26.3</ele>
        <time>2026-05-14T09:26:50Z</time>
      </trkpt>
      <trkpt lat="43.66509" lon="7.18411">
        <ele>26.6</ele>
        <time>2026-05-14T09:26:51Z</time>
      </trkpt>
      <trkpt lat="43.66502" lon="7.18383">
        <ele>25.3</ele>
        <time>2026-05-14T09:26:52Z</time>
      </trkpt>
      <trkpt lat="43.66495" lon="7.18355">
        <ele>25.1</ele>
        <time>2026-05-14T09:26:53Z</time>
      </trkpt>
      <trkpt lat="43.66488" lon="7.18328">
        <ele>25</ele>
        <time>2026-05-14T09:26:54Z</time>
      </trkpt>
      <trkpt lat="43.66482" lon="7.183">
        <ele>24.7</ele>
        <time>2026-05-14T09:26:55Z</time>
      </trkpt>
      <trkpt lat="43.66476" lon="7.18272">
        <ele>24.3</ele>
        <time>2026-05-14T09:26:56Z</time>
      </trkpt>
      <trkpt lat="43.6647" lon="7.18244">
        <ele>24</ele>
        <time>2026-05-14T09:26:57Z</time>
      </trkpt>
      <trkpt lat="43.66465" lon="7.18216">
        <ele>23.4</ele>
        <time>2026-05-14T09:26:58Z</time>
      </trkpt>
      <trkpt lat="43.66459" lon="7.18188">
        <ele>23.9</ele>
        <time>2026-05-14T09:26:59Z</time>
      </trkpt>
      <trkpt lat="43.66454" lon="7.1816">
        <ele>23.4</ele>
        <time>2026-05-14T09:27:00Z</time>
      </trkpt>
      <trkpt lat="43.66449" lon="7.18134">
        <ele>23.4</ele>
        <time>2026-05-14T09:27:01Z</time>
      </trkpt>
      <trkpt lat="43.66444" lon="7.18108">
        <ele>23</ele>
        <time>2026-05-14T09:27:02Z</time>
      </trkpt>
      <trkpt lat="43.66439" lon="7.18082">
        <ele>22.8</ele>
        <time>2026-05-14T09:27:03Z</time>
      </trkpt>
      <trkpt lat="43.66433" lon="7.18055">
        <ele>22.6</ele>
        <time>2026-05-14T09:27:04Z</time>
      </trkpt>
      <trkpt lat="43.66428" lon="7.18029">
        <ele>22.4</ele>
        <time>2026-05-14T09:27:05Z</time>
      </trkpt>
      <trkpt lat="43.66424" lon="7.18003">
        <ele>22</ele>
        <time>2026-05-14T09:27:06Z</time>
      </trkpt>
      <trkpt lat="43.66419" lon="7.17976">
        <ele>21.9</ele>
        <time>2026-05-14T09:27:07Z</time>
      </trkpt>
      <trkpt lat="43.66414" lon="7.1795">
        <ele>21.7</ele>
        <time>2026-05-14T09:27:08Z</time>
      </trkpt>
      <trkpt lat="43.66408" lon="7.17923">
        <ele>21</ele>
        <time>2026-05-14T09:27:09Z</time>
      </trkpt>
      <trkpt lat="43.66404" lon="7.17896">
        <ele>21</ele>
        <time>2026-05-14T09:27:10Z</time>
      </trkpt>
      <trkpt lat="43.66398" lon="7.17869">
        <ele>21.5</ele>
        <time>2026-05-14T09:27:11Z</time>
      </trkpt>
      <trkpt lat="43.66394" lon="7.17842">
        <ele>21.7</ele>
        <time>2026-05-14T09:27:12Z</time>
      </trkpt>
      <trkpt lat="43.66389" lon="7.17815">
        <ele>21</ele>
        <time>2026-05-14T09:27:13Z</time>
      </trkpt>
      <trkpt lat="43.66384" lon="7.17788">
        <ele>20.3</ele>
        <time>2026-05-14T09:27:14Z</time>
      </trkpt>
      <trkpt lat="43.66379" lon="7.1776">
        <ele>21.2</ele>
        <time>2026-05-14T09:27:15Z</time>
      </trkpt>
      <trkpt lat="43.66374" lon="7.17733">
        <ele>21.4</ele>
        <time>2026-05-14T09:27:16Z</time>
      </trkpt>
      <trkpt lat="43.66369" lon="7.17705">
        <ele>21</ele>
        <time>2026-05-14T09:27:17Z</time>
      </trkpt>
      <trkpt lat="43.66365" lon="7.17677">
        <ele>20.6</ele>
        <time>2026-05-14T09:27:18Z</time>
      </trkpt>
      <trkpt lat="43.6636" lon="7.17649">
        <ele>19.9</ele>
        <time>2026-05-14T09:27:19Z</time>
      </trkpt>
      <trkpt lat="43.66355" lon="7.17621">
        <ele>19.2</ele>
        <time>2026-05-14T09:27:20Z</time>
      </trkpt>
      <trkpt lat="43.66351" lon="7.17594">
        <ele>19</ele>
        <time>2026-05-14T09:27:21Z</time>
      </trkpt>
      <trkpt lat="43.66346" lon="7.17567">
        <ele>18.1</ele>
        <time>2026-05-14T09:27:22Z</time>
      </trkpt>
      <trkpt lat="43.66342" lon="7.17539">
        <ele>17.7</ele>
        <time>2026-05-14T09:27:23Z</time>
      </trkpt>
      <trkpt lat="43.66338" lon="7.17512">
        <ele>18.4</ele>
        <time>2026-05-14T09:27:24Z</time>
      </trkpt>
      <trkpt lat="43.66334" lon="7.17484">
        <ele>18.4</ele>
        <time>2026-05-14T09:27:25Z</time>
      </trkpt>
      <trkpt lat="43.6633" lon="7.17456">
        <ele>18</ele>
        <time>2026-05-14T09:27:26Z</time>
      </trkpt>
      <trkpt lat="43.66326" lon="7.17429">
        <ele>18</ele>
        <time>2026-05-14T09:27:27Z</time>
      </trkpt>
      <trkpt lat="43.66322" lon="7.17401">
        <ele>18</ele>
        <time>2026-05-14T09:27:28Z</time>
      </trkpt>
      <trkpt lat="43.66318" lon="7.17373">
        <ele>18</ele>
        <time>2026-05-14T09:27:29Z</time>
      </trkpt>
      <trkpt lat="43.66313" lon="7.17345">
        <ele>17.3</ele>
        <time>2026-05-14T09:27:30Z</time>
      </trkpt>
      <trkpt lat="43.66309" lon="7.17317">
        <ele>16.7</ele>
        <time>2026-05-14T09:27:31Z</time>
      </trkpt>
      <trkpt lat="43.66304" lon="7.17289">
        <ele>16.9</ele>
        <time>2026-05-14T09:27:32Z</time>
      </trkpt>
      <trkpt lat="43.66299" lon="7.17262">
        <ele>15.8</ele>
        <time>2026-05-14T09:27:33Z</time>
      </trkpt>
      <trkpt lat="43.66293" lon="7.17234">
        <ele>14.2</ele>
        <time>2026-05-14T09:27:34Z</time>
      </trkpt>
      <trkpt lat="43.66287" lon="7.17206">
        <ele>14.3</ele>
        <time>2026-05-14T09:27:35Z</time>
      </trkpt>
      <trkpt lat="43.6628" lon="7.17179">
        <ele>16</ele>
        <time>2026-05-14T09:27:36Z</time>
      </trkpt>
      <trkpt lat="43.66272" lon="7.17152">
        <ele>15.9</ele>
        <time>2026-05-14T09:27:37Z</time>
      </trkpt>
      <trkpt lat="43.66263" lon="7.17126">
        <ele>14.7</ele>
        <time>2026-05-14T09:27:38Z</time>
      </trkpt>
      <trkpt lat="43.66254" lon="7.171">
        <ele>15.4</ele>
        <time>2026-05-14T09:27:39Z</time>
      </trkpt>
      <trkpt lat="43.66244" lon="7.17075">
        <ele>15.8</ele>
        <time>2026-05-14T09:27:40Z</time>
      </trkpt>
      <trkpt lat="43.66234" lon="7.1705">
        <ele>16.4</ele>
        <time>2026-05-14T09:27:41Z</time>
      </trkpt>
      <trkpt lat="43.66224" lon="7.17025">
        <ele>16.3</ele>
        <time>2026-05-14T09:27:42Z</time>
      </trkpt>
      <trkpt lat="43.66213" lon="7.17">
        <ele>15.7</ele>
        <time>2026-05-14T09:27:43Z</time>
      </trkpt>
      <trkpt lat="43.66202" lon="7.16976">
        <ele>16.4</ele>
        <time>2026-05-14T09:27:44Z</time>
      </trkpt>
      <trkpt lat="43.66191" lon="7.16952">
        <ele>15.9</ele>
        <time>2026-05-14T09:27:45Z</time>
      </trkpt>
      <trkpt lat="43.66181" lon="7.16927">
        <ele>18.4</ele>
        <time>2026-05-14T09:27:46Z</time>
      </trkpt>
      <trkpt lat="43.6617" lon="7.16903">
        <ele>17</ele>
        <time>2026-05-14T09:27:47Z</time>
      </trkpt>
      <trkpt lat="43.66159" lon="7.16878">
        <ele>17</ele>
        <time>2026-05-14T09:27:48Z</time>
      </trkpt>
      <trkpt lat="43.66148" lon="7.16853">
        <ele>17.2</ele>
        <time>2026-05-14T09:27:49Z</time>
      </trkpt>
      <trkpt lat="43.66137" lon="7.16828">
        <ele>15.9</ele>
        <time>2026-05-14T09:27:50Z</time>
      </trkpt>
      <trkpt lat="43.66126" lon="7.16804">
        <ele>15.9</ele>
        <time>2026-05-14T09:27:51Z</time>
      </trkpt>
      <trkpt lat="43.66115" lon="7.16779">
        <ele>15.7</ele>
        <time>2026-05-14T09:27:52Z</time>
      </trkpt>
      <trkpt lat="43.66105" lon="7.16755">
        <ele>16</ele>
        <time>2026-05-14T09:27:53Z</time>
      </trkpt>
      <trkpt lat="43.66095" lon="7.16731">
        <ele>17.7</ele>
        <time>2026-05-14T09:27:54Z</time>
      </trkpt>
      <trkpt lat="43.66086" lon="7.16707">
        <ele>16.6</ele>
        <time>2026-05-14T09:27:55Z</time>
      </trkpt>
      <trkpt lat="43.66077" lon="7.16683">
        <ele>16.2</ele>
        <time>2026-05-14T09:27:56Z</time>
      </trkpt>
      <trkpt lat="43.66069" lon="7.16659">
        <ele>16.9</ele>
        <time>2026-05-14T09:27:57Z</time>
      </trkpt>
      <trkpt lat="43.66062" lon="7.16633">
        <ele>16.6</ele>
        <time>2026-05-14T09:27:58Z</time>
      </trkpt>
      <trkpt lat="43.66055" lon="7.16608">
        <ele>13.6</ele>
        <time>2026-05-14T09:27:59Z</time>
      </trkpt>
      <trkpt lat="43.66049" lon="7.16581">
        <ele>11.7</ele>
        <time>2026-05-14T09:28:00Z</time>
      </trkpt>
      <trkpt lat="43.66043" lon="7.16553">
        <ele>16.6</ele>
        <time>2026-05-14T09:28:01Z</time>
      </trkpt>
      <trkpt lat="43.66038" lon="7.16524">
        <ele>17.1</ele>
        <time>2026-05-14T09:28:02Z</time>
      </trkpt>
      <trkpt lat="43.66033" lon="7.16495">
        <ele>16</ele>
        <time>2026-05-14T09:28:03Z</time>
      </trkpt>
      <trkpt lat="43.66029" lon="7.16466">
        <ele>15</ele>
        <time>2026-05-14T09:28:04Z</time>
      </trkpt>
      <trkpt lat="43.66026" lon="7.16436">
        <ele>14</ele>
        <time>2026-05-14T09:28:05Z</time>
      </trkpt>
      <trkpt lat="43.66024" lon="7.16406">
        <ele>13.9</ele>
        <time>2026-05-14T09:28:06Z</time>
      </trkpt>
      <trkpt lat="43.66022" lon="7.16377">
        <ele>14</ele>
        <time>2026-05-14T09:28:07Z</time>
      </trkpt>
      <trkpt lat="43.66022" lon="7.16348">
        <ele>14</ele>
        <time>2026-05-14T09:28:08Z</time>
      </trkpt>
      <trkpt lat="43.66022" lon="7.16319">
        <ele>14</ele>
        <time>2026-05-14T09:28:09Z</time>
      </trkpt>
      <trkpt lat="43.66023" lon="7.16289">
        <ele>14</ele>
        <time>2026-05-14T09:28:10Z</time>
      </trkpt>
      <trkpt lat="43.66025" lon="7.16259">
        <ele>13.9</ele>
        <time>2026-05-14T09:28:11Z</time>
      </trkpt>
      <trkpt lat="43.66027" lon="7.16228">
        <ele>14</ele>
        <time>2026-05-14T09:28:12Z</time>
      </trkpt>
      <trkpt lat="43.66029" lon="7.16198">
        <ele>14</ele>
        <time>2026-05-14T09:28:13Z</time>
      </trkpt>
      <trkpt lat="43.66032" lon="7.16167">
        <ele>13.8</ele>
        <time>2026-05-14T09:28:14Z</time>
      </trkpt>
      <trkpt lat="43.66035" lon="7.16137">
        <ele>14</ele>
        <time>2026-05-14T09:28:15Z</time>
      </trkpt>
      <trkpt lat="43.66037" lon="7.16107">
        <ele>14</ele>
        <time>2026-05-14T09:28:16Z</time>
      </trkpt>
      <trkpt lat="43.6604" lon="7.16077">
        <ele>14.2</ele>
        <time>2026-05-14T09:28:17Z</time>
      </trkpt>
      <trkpt lat="43.66043" lon="7.16049">
        <ele>14</ele>
        <time>2026-05-14T09:28:18Z</time>
      </trkpt>
      <trkpt lat="43.66045" lon="7.1602">
        <ele>13.4</ele>
        <time>2026-05-14T09:28:19Z</time>
      </trkpt>
      <trkpt lat="43.66048" lon="7.15993">
        <ele>12.9</ele>
        <time>2026-05-14T09:28:20Z</time>
      </trkpt>
      <trkpt lat="43.66051" lon="7.15965">
        <ele>12.7</ele>
        <time>2026-05-14T09:28:21Z</time>
      </trkpt>
      <trkpt lat="43.66053" lon="7.15939">
        <ele>12.7</ele>
        <time>2026-05-14T09:28:22Z</time>
      </trkpt>
      <trkpt lat="43.66055" lon="7.15912">
        <ele>12</ele>
        <time>2026-05-14T09:28:23Z</time>
      </trkpt>
      <trkpt lat="43.66058" lon="7.15885">
        <ele>12.1</ele>
        <time>2026-05-14T09:28:24Z</time>
      </trkpt>
      <trkpt lat="43.6606" lon="7.15858">
        <ele>12.6</ele>
        <time>2026-05-14T09:28:25Z</time>
      </trkpt>
      <trkpt lat="43.66063" lon="7.15831">
        <ele>13.1</ele>
        <time>2026-05-14T09:28:26Z</time>
      </trkpt>
      <trkpt lat="43.66065" lon="7.15803">
        <ele>13.6</ele>
        <time>2026-05-14T09:28:27Z</time>
      </trkpt>
      <trkpt lat="43.66067" lon="7.15775">
        <ele>13.2</ele>
        <time>2026-05-14T09:28:28Z</time>
      </trkpt>
      <trkpt lat="43.6607" lon="7.15747">
        <ele>13</ele>
        <time>2026-05-14T09:28:29Z</time>
      </trkpt>
      <trkpt lat="43.66073" lon="7.15718">
        <ele>12.4</ele>
        <time>2026-05-14T09:28:30Z</time>
      </trkpt>
      <trkpt lat="43.66075" lon="7.1569">
        <ele>11</ele>
        <time>2026-05-14T09:28:31Z</time>
      </trkpt>
      <trkpt lat="43.66078" lon="7.15661">
        <ele>11</ele>
        <time>2026-05-14T09:28:32Z</time>
      </trkpt>
      <trkpt lat="43.6608" lon="7.15632">
        <ele>11</ele>
        <time>2026-05-14T09:28:33Z</time>
      </trkpt>
      <trkpt lat="43.66082" lon="7.15603">
        <ele>11</ele>
        <time>2026-05-14T09:28:34Z</time>
      </trkpt>
      <trkpt lat="43.66084" lon="7.15573">
        <ele>10.9</ele>
        <time>2026-05-14T09:28:35Z</time>
      </trkpt>
      <trkpt lat="43.66084" lon="7.15544">
        <ele>10.2</ele>
        <time>2026-05-14T09:28:36Z</time>
      </trkpt>
      <trkpt lat="43.66084" lon="7.15515">
        <ele>10.6</ele>
        <time>2026-05-14T09:28:37Z</time>
      </trkpt>
      <trkpt lat="43.66083" lon="7.15486">
        <ele>11</ele>
        <time>2026-05-14T09:28:38Z</time>
      </trkpt>
      <trkpt lat="43.66081" lon="7.15456">
        <ele>11</ele>
        <time>2026-05-14T09:28:39Z</time>
      </trkpt>
      <trkpt lat="43.66079" lon="7.15427">
        <ele>10.8</ele>
        <time>2026-05-14T09:28:40Z</time>
      </trkpt>
      <trkpt lat="43.66077" lon="7.15397">
        <ele>10.2</ele>
        <time>2026-05-14T09:28:41Z</time>
      </trkpt>
      <trkpt lat="43.66073" lon="7.15368">
        <ele>7.2</ele>
        <time>2026-05-14T09:28:42Z</time>
      </trkpt>
      <trkpt lat="43.66068" lon="7.15338">
        <ele>8.6</ele>
        <time>2026-05-14T09:28:43Z</time>
      </trkpt>
      <trkpt lat="43.66063" lon="7.1531">
        <ele>9</ele>
        <time>2026-05-14T09:28:44Z</time>
      </trkpt>
      <trkpt lat="43.66058" lon="7.15282">
        <ele>9.6</ele>
        <time>2026-05-14T09:28:45Z</time>
      </trkpt>
      <trkpt lat="43.66051" lon="7.15254">
        <ele>10.6</ele>
        <time>2026-05-14T09:28:46Z</time>
      </trkpt>
      <trkpt lat="43.66044" lon="7.15227">
        <ele>9.6</ele>
        <time>2026-05-14T09:28:47Z</time>
      </trkpt>
      <trkpt lat="43.66037" lon="7.152">
        <ele>9.4</ele>
        <time>2026-05-14T09:28:48Z</time>
      </trkpt>
      <trkpt lat="43.66029" lon="7.15173">
        <ele>10.8</ele>
        <time>2026-05-14T09:28:49Z</time>
      </trkpt>
      <trkpt lat="43.6602" lon="7.15147">
        <ele>10.9</ele>
        <time>2026-05-14T09:28:50Z</time>
      </trkpt>
      <trkpt lat="43.66012" lon="7.15121">
        <ele>10.2</ele>
        <time>2026-05-14T09:28:51Z</time>
      </trkpt>
      <trkpt lat="43.66002" lon="7.15094">
        <ele>10.7</ele>
        <time>2026-05-14T09:28:52Z</time>
      </trkpt>
      <trkpt lat="43.65993" lon="7.15068">
        <ele>9.9</ele>
        <time>2026-05-14T09:28:53Z</time>
      </trkpt>
      <trkpt lat="43.65982" lon="7.15041">
        <ele>9.6</ele>
        <time>2026-05-14T09:28:54Z</time>
      </trkpt>
      <trkpt lat="43.65972" lon="7.15014">
        <ele>10.5</ele>
        <time>2026-05-14T09:28:55Z</time>
      </trkpt>
      <trkpt lat="43.6596" lon="7.14988">
        <ele>9.6</ele>
        <time>2026-05-14T09:28:56Z</time>
      </trkpt>
      <trkpt lat="43.65947" lon="7.14963">
        <ele>7.9</ele>
        <time>2026-05-14T09:28:57Z</time>
      </trkpt>
      <trkpt lat="43.65933" lon="7.1494">
        <ele>6.8</ele>
        <time>2026-05-14T09:28:58Z</time>
      </trkpt>
      <trkpt lat="43.65918" lon="7.14918">
        <ele>6</ele>
        <time>2026-05-14T09:28:59Z</time>
      </trkpt>
      <trkpt lat="43.65902" lon="7.14898">
        <ele>8.1</ele>
        <time>2026-05-14T09:29:00Z</time>
      </trkpt>
      <trkpt lat="43.65886" lon="7.14878">
        <ele>10.5</ele>
        <time>2026-05-14T09:29:01Z</time>
      </trkpt>
      <trkpt lat="43.65869" lon="7.1486">
        <ele>10</ele>
        <time>2026-05-14T09:29:02Z</time>
      </trkpt>
      <trkpt lat="43.65852" lon="7.14843">
        <ele>9</ele>
        <time>2026-05-14T09:29:03Z</time>
      </trkpt>
      <trkpt lat="43.65835" lon="7.14826">
        <ele>9</ele>
        <time>2026-05-14T09:29:04Z</time>
      </trkpt>
      <trkpt lat="43.65816" lon="7.1481">
        <ele>9.1</ele>
        <time>2026-05-14T09:29:05Z</time>
      </trkpt>
      <trkpt lat="43.65798" lon="7.14794">
        <ele>9.2</ele>
        <time>2026-05-14T09:29:06Z</time>
      </trkpt>
      <trkpt lat="43.65779" lon="7.14779">
        <ele>9</ele>
        <time>2026-05-14T09:29:07Z</time>
      </trkpt>
      <trkpt lat="43.6576" lon="7.14765">
        <ele>9</ele>
        <time>2026-05-14T09:29:08Z</time>
      </trkpt>
      <trkpt lat="43.65741" lon="7.14752">
        <ele>9</ele>
        <time>2026-05-14T09:29:09Z</time>
      </trkpt>
      <trkpt lat="43.65721" lon="7.14739">
        <ele>8.6</ele>
        <time>2026-05-14T09:29:10Z</time>
      </trkpt>
      <trkpt lat="43.65701" lon="7.14726">
        <ele>8.1</ele>
        <time>2026-05-14T09:29:11Z</time>
      </trkpt>
      <trkpt lat="43.65681" lon="7.14714">
        <ele>8.3</ele>
        <time>2026-05-14T09:29:12Z</time>
      </trkpt>
      <trkpt lat="43.6566" lon="7.14703">
        <ele>8.5</ele>
        <time>2026-05-14T09:29:13Z</time>
      </trkpt>
      <trkpt lat="43.65639" lon="7.14692">
        <ele>9</ele>
        <time>2026-05-14T09:29:14Z</time>
      </trkpt>
      <trkpt lat="43.65618" lon="7.14681">
        <ele>9</ele>
        <time>2026-05-14T09:29:15Z</time>
      </trkpt>
      <trkpt lat="43.65597" lon="7.1467">
        <ele>9.5</ele>
        <time>2026-05-14T09:29:16Z</time>
      </trkpt>
      <trkpt lat="43.65575" lon="7.1466">
        <ele>10.3</ele>
        <time>2026-05-14T09:29:17Z</time>
      </trkpt>
      <trkpt lat="43.65554" lon="7.14649">
        <ele>10.1</ele>
        <time>2026-05-14T09:29:18Z</time>
      </trkpt>
      <trkpt lat="43.65532" lon="7.14638">
        <ele>11.7</ele>
        <time>2026-05-14T09:29:19Z</time>
      </trkpt>
      <trkpt lat="43.65511" lon="7.14627">
        <ele>12.2</ele>
        <time>2026-05-14T09:29:20Z</time>
      </trkpt>
      <trkpt lat="43.65491" lon="7.14615">
        <ele>11.7</ele>
        <time>2026-05-14T09:29:21Z</time>
      </trkpt>
      <trkpt lat="43.65471" lon="7.14602">
        <ele>11.9</ele>
        <time>2026-05-14T09:29:22Z</time>
      </trkpt>
      <trkpt lat="43.65451" lon="7.14587">
        <ele>11.6</ele>
        <time>2026-05-14T09:29:23Z</time>
      </trkpt>
      <trkpt lat="43.65431" lon="7.14572">
        <ele>12.7</ele>
        <time>2026-05-14T09:29:24Z</time>
      </trkpt>
      <trkpt lat="43.65413" lon="7.14555">
        <ele>11.1</ele>
        <time>2026-05-14T09:29:25Z</time>
      </trkpt>
      <trkpt lat="43.65394" lon="7.14536">
        <ele>11.5</ele>
        <time>2026-05-14T09:29:26Z</time>
      </trkpt>
      <trkpt lat="43.65376" lon="7.14516">
        <ele>11.9</ele>
        <time>2026-05-14T09:29:27Z</time>
      </trkpt>
      <trkpt lat="43.65358" lon="7.14496">
        <ele>10.8</ele>
        <time>2026-05-14T09:29:28Z</time>
      </trkpt>
      <trkpt lat="43.65339" lon="7.14477">
        <ele>11</ele>
        <time>2026-05-14T09:29:29Z</time>
      </trkpt>
      <trkpt lat="43.65321" lon="7.14457">
        <ele>10.6</ele>
        <time>2026-05-14T09:29:30Z</time>
      </trkpt>
      <trkpt lat="43.65303" lon="7.14437">
        <ele>10.5</ele>
        <time>2026-05-14T09:29:31Z</time>
      </trkpt>
      <trkpt lat="43.65286" lon="7.14418">
        <ele>10.6</ele>
        <time>2026-05-14T09:29:32Z</time>
      </trkpt>
      <trkpt lat="43.65269" lon="7.14399">
        <ele>11.7</ele>
        <time>2026-05-14T09:29:33Z</time>
      </trkpt>
      <trkpt lat="43.65251" lon="7.14381">
        <ele>10.4</ele>
        <time>2026-05-14T09:29:34Z</time>
      </trkpt>
      <trkpt lat="43.65234" lon="7.14363">
        <ele>10.4</ele>
        <time>2026-05-14T09:29:35Z</time>
      </trkpt>
      <trkpt lat="43.65218" lon="7.14346">
        <ele>10</ele>
        <time>2026-05-14T09:29:36Z</time>
      </trkpt>
      <trkpt lat="43.65201" lon="7.14329">
        <ele>10.2</ele>
        <time>2026-05-14T09:29:37Z</time>
      </trkpt>
      <trkpt lat="43.65184" lon="7.14313">
        <ele>9.9</ele>
        <time>2026-05-14T09:29:38Z</time>
      </trkpt>
      <trkpt lat="43.65167" lon="7.14296">
        <ele>10</ele>
        <time>2026-05-14T09:29:39Z</time>
      </trkpt>
      <trkpt lat="43.6515" lon="7.1428">
        <ele>10</ele>
        <time>2026-05-14T09:29:40Z</time>
      </trkpt>
      <trkpt lat="43.65133" lon="7.14264">
        <ele>9.8</ele>
        <time>2026-05-14T09:29:41Z</time>
      </trkpt>
      <trkpt lat="43.65116" lon="7.14249">
        <ele>9.2</ele>
        <time>2026-05-14T09:29:42Z</time>
      </trkpt>
      <trkpt lat="43.65099" lon="7.14233">
        <ele>9.3</ele>
        <time>2026-05-14T09:29:43Z</time>
      </trkpt>
      <trkpt lat="43.65082" lon="7.14218">
        <ele>9.7</ele>
        <time>2026-05-14T09:29:44Z</time>
      </trkpt>
      <trkpt lat="43.65065" lon="7.14204">
        <ele>10.1</ele>
        <time>2026-05-14T09:29:45Z</time>
      </trkpt>
      <trkpt lat="43.65049" lon="7.14189">
        <ele>9.4</ele>
        <time>2026-05-14T09:29:46Z</time>
      </trkpt>
      <trkpt lat="43.65034" lon="7.14175">
        <ele>9.5</ele>
        <time>2026-05-14T09:29:47Z</time>
      </trkpt>
      <trkpt lat="43.65019" lon="7.14161">
        <ele>9.1</ele>
        <time>2026-05-14T09:29:48Z</time>
      </trkpt>
      <trkpt lat="43.65005" lon="7.14148">
        <ele>9.1</ele>
        <time>2026-05-14T09:29:49Z</time>
      </trkpt>
      <trkpt lat="43.64991" lon="7.14134">
        <ele>9</ele>
        <time>2026-05-14T09:29:50Z</time>
      </trkpt>
      <trkpt lat="43.64978" lon="7.1412">
        <ele>9</ele>
        <time>2026-05-14T09:29:51Z</time>
      </trkpt>
      <trkpt lat="43.64966" lon="7.14108">
        <ele>8.9</ele>
        <time>2026-05-14T09:29:52Z</time>
      </trkpt>
      <trkpt lat="43.64955" lon="7.14095">
        <ele>8.8</ele>
        <time>2026-05-14T09:29:53Z</time>
      </trkpt>
      <trkpt lat="43.64944" lon="7.14082">
        <ele>8.9</ele>
        <time>2026-05-14T09:29:54Z</time>
      </trkpt>
      <trkpt lat="43.64933" lon="7.14068">
        <ele>8.4</ele>
        <time>2026-05-14T09:29:55Z</time>
      </trkpt>
      <trkpt lat="43.64923" lon="7.14055">
        <ele>8.5</ele>
        <time>2026-05-14T09:29:56Z</time>
      </trkpt>
      <trkpt lat="43.64914" lon="7.14043">
        <ele>8.2</ele>
        <time>2026-05-14T09:29:57Z</time>
      </trkpt>
      <trkpt lat="43.64905" lon="7.14031">
        <ele>8</ele>
        <time>2026-05-14T09:29:58Z</time>
      </trkpt>
      <trkpt lat="43.64896" lon="7.14019">
        <ele>8.2</ele>
        <time>2026-05-14T09:29:59Z</time>
      </trkpt>
      <trkpt lat="43.64887" lon="7.14008">
        <ele>8.3</ele>
        <time>2026-05-14T09:30:00Z</time>
      </trkpt>
      <trkpt lat="43.64879" lon="7.13997">
        <ele>8.1</ele>
        <time>2026-05-14T09:30:01Z</time>
      </trkpt>
      <trkpt lat="43.64871" lon="7.13987">
        <ele>7.7</ele>
        <time>2026-05-14T09:30:02Z</time>
      </trkpt>
      <trkpt lat="43.64863" lon="7.13977">
        <ele>7.3</ele>
        <time>2026-05-14T09:30:03Z</time>
      </trkpt>
      <trkpt lat="43.64856" lon="7.13967">
        <ele>7</ele>
        <time>2026-05-14T09:30:04Z</time>
      </trkpt>
      <trkpt lat="43.64849" lon="7.13958">
        <ele>6.8</ele>
        <time>2026-05-14T09:30:05Z</time>
      </trkpt>
      <trkpt lat="43.64843" lon="7.1395">
        <ele>6.7</ele>
        <time>2026-05-14T09:30:06Z</time>
      </trkpt>
      <trkpt lat="43.64838" lon="7.13942">
        <ele>6.5</ele>
        <time>2026-05-14T09:30:07Z</time>
      </trkpt>
      <trkpt lat="43.64833" lon="7.13936">
        <ele>6.4</ele>
        <time>2026-05-14T09:30:08Z</time>
      </trkpt>
      <trkpt lat="43.64829" lon="7.13929">
        <ele>6.3</ele>
        <time>2026-05-14T09:30:09Z</time>
      </trkpt>
      <trkpt lat="43.64825" lon="7.13924">
        <ele>6.3</ele>
        <time>2026-05-14T09:30:10Z</time>
      </trkpt>
      <trkpt lat="43.64822" lon="7.13918">
        <ele>6.3</ele>
        <time>2026-05-14T09:30:11Z</time>
      </trkpt>
      <trkpt lat="43.64819" lon="7.13914">
        <ele>6.4</ele>
        <time>2026-05-14T09:30:12Z</time>
      </trkpt>
      <trkpt lat="43.64818" lon="7.1391">
        <ele>6.2</ele>
        <time>2026-05-14T09:30:13Z</time>
      </trkpt>
      <trkpt lat="43.64816" lon="7.13908">
        <ele>6.2</ele>
        <time>2026-05-14T09:30:14Z</time>
      </trkpt>
      <trkpt lat="43.64814" lon="7.13906">
        <ele>6.2</ele>
        <time>2026-05-14T09:30:15Z</time>
      </trkpt>
      <trkpt lat="43.64812" lon="7.13904">
        <ele>6.1</ele>
        <time>2026-05-14T09:30:16Z</time>
      </trkpt>
      <trkpt lat="43.64811" lon="7.13903">
        <ele>6.1</ele>
        <time>2026-05-14T09:30:17Z</time>
      </trkpt>
      <trkpt lat="43.6481" lon="7.13903">
        <ele>6.2</ele>
        <time>2026-05-14T09:30:18Z</time>
      </trkpt>
      <trkpt lat="43.64811" lon="7.13903">
        <ele>6.1</ele>
        <time>2026-05-14T09:30:19Z</time>
      </trkpt>
      <trkpt lat="43.64811" lon="7.13903">
        <ele>6.1</ele>
        <time>2026-05-14T09:30:20Z</time>
      </trkpt>
      <trkpt lat="43.64811" lon="7.13902">
        <ele>6</ele>
        <time>2026-05-14T09:30:21Z</time>
      </trkpt>
      <trkpt lat="43.64811" lon="7.13902">
        <ele>6</ele>
        <time>2026-05-14T09:30:22Z</time>
      </trkpt>
      <trkpt lat="43.64812" lon="7.13902">
        <ele>6</ele>
        <time>2026-05-14T09:30:23Z</time>
      </trkpt>
      <trkpt lat="43.64811" lon="7.13902">
        <ele>6</ele>
        <time>2026-05-14T09:30:24Z</time>
      </trkpt>
      <trkpt lat="43.64811" lon="7.13902">
        <ele>6</ele>
        <time>2026-05-14T09:30:25Z</time>
      </trkpt>
      <trkpt lat="43.64811" lon="7.13901">
        <ele>5.9</ele>
        <time>2026-05-14T09:30:26Z</time>
      </trkpt>
      <trkpt lat="43.6481" lon="7.13901">
        <ele>6</ele>
        <time>2026-05-14T09:30:27Z</time>
      </trkpt>
      <trkpt lat="43.6481" lon="7.13901">
        <ele>6</ele>
        <time>2026-05-14T09:30:28Z</time>
      </trkpt>
      <trkpt lat="43.6481" lon="7.139">
        <ele>5.9</ele>
        <time>2026-05-14T09:30:29Z</time>
      </trkpt>
      <trkpt lat="43.6481" lon="7.139">
        <ele>5.9</ele>
        <time>2026-05-14T09:30:30Z</time>
      </trkpt>
      <trkpt lat="43.6481" lon="7.139">
        <ele>5.9</ele>
        <time>2026-05-14T09:30:31Z</time>
      </trkpt>
      <trkpt lat="43.6481" lon="7.139">
        <ele>5.9</ele>
        <time>2026-05-14T09:30:32Z</time>
      </trkpt>
      <trkpt lat="43.6481" lon="7.13899">
        <ele>5.8</ele>
        <time>2026-05-14T09:30:33Z</time>
      </trkpt>
      <trkpt lat="43.6481" lon="7.13899">
        <ele>5.8</ele>
        <time>2026-05-14T09:30:34Z</time>
      </trkpt>
      <trkpt lat="43.6481" lon="7.13899">
        <ele>5.8</ele>
        <time>2026-05-14T09:30:35Z</time>
      </trkpt>
      <trkpt lat="43.6481" lon="7.13899">
        <ele>5.8</ele>
        <time>2026-05-14T09:30:36Z</time>
      </trkpt>
      <trkpt lat="43.6481" lon="7.13899">
        <ele>5.8</ele>
        <time>2026-05-14T09:30:37Z</time>
      </trkpt>
      <trkpt lat="43.6481" lon="7.13898">
        <ele>5.7</ele>
        <time>2026-05-14T09:30:38Z</time>
      </trkpt>
      <trkpt lat="43.6481" lon="7.13898">
        <ele>5.7</ele>
        <time>2026-05-14T09:30:39Z</time>
      </trkpt>
      <trkpt lat="43.6481" lon="7.13898">
        <ele>5.7</ele>
        <time>2026-05-14T09:30:40Z</time>
      </trkpt>
      <trkpt lat="43.6481" lon="7.13898">
        <ele>5.7</ele>
        <time>2026-05-14T09:30:41Z</time>
      </trkpt>
      <trkpt lat="43.6481" lon="7.13898">
        <ele>5.7</ele>
        <time>2026-05-14T09:30:42Z</time>
      </trkpt>
      <trkpt lat="43.6481" lon="7.13898">
        <ele>5.7</ele>
        <time>2026-05-14T09:30:43Z</time>
      </trkpt>
      <trkpt lat="43.6481" lon="7.13898">
        <ele>5.7</ele>
        <time>2026-05-14T09:30:44Z</time>
      </trkpt>
      <trkpt lat="43.6481" lon="7.13898">
        <ele>5.7</ele>
        <time>2026-05-14T09:30:45Z</time>
      </trkpt>
      <trkpt lat="43.6481" lon="7.13898">
        <ele>5.7</ele>
        <time>2026-05-14T09:30:46Z</time>
      </trkpt>
      <trkpt lat="43.6481" lon="7.13898">
        <ele>5.7</ele>
        <time>2026-05-14T09:30:47Z</time>
      </trkpt>
      <trkpt lat="43.6481" lon="7.13898">
        <ele>5.7</ele>
        <time>2026-05-14T09:30:48Z</time>
      </trkpt>
      <trkpt lat="43.6481" lon="7.13898">
        <ele>5.7</ele>
        <time>2026-05-14T09:30:49Z</time>
      </trkpt>
      <trkpt lat="43.6481" lon="7.13898">
        <ele>5.7</ele>
        <time>2026-05-14T09:30:50Z</time>
      </trkpt>
      <trkpt lat="43.6481" lon="7.13898">
        <ele>5.7</ele>
        <time>2026-05-14T09:30:51Z</time>
      </trkpt>
      <trkpt lat="43.6481" lon="7.13898">
        <ele>5.7</ele>
        <time>2026-05-14T09:30:52Z</time>
      </trkpt>
      <trkpt lat="43.6481" lon="7.13898">
        <ele>5.7</ele>
        <time>2026-05-14T09:30:53Z</time>
      </trkpt>
      <trkpt lat="43.6481" lon="7.13898">
        <ele>5.7</ele>
        <time>2026-05-14T09:30:54Z</time>
      </trkpt>
      <trkpt lat="43.6481" lon="7.13898">
        <ele>5.7</ele>
        <time>2026-05-14T09:30:55Z</time>
      </trkpt>
      <trkpt lat="43.6481" lon="7.13898">
        <ele>5.7</ele>
        <time>2026-05-14T09:30:56Z</time>
      </trkpt>
      <trkpt lat="43.6481" lon="7.13898">
        <ele>5.7</ele>
        <time>2026-05-14T09:30:57Z</time>
      </trkpt>
      <trkpt lat="43.6481" lon="7.13898">
        <ele>5.7</ele>
        <time>2026-05-14T09:30:58Z</time>
      </trkpt>
      <trkpt lat="43.6481" lon="7.13898">
        <ele>5.7</ele>
        <time>2026-05-14T09:30:59Z</time>
      </trkpt>
      <trkpt lat="43.6481" lon="7.13898">
        <ele>5.7</ele>
        <time>2026-05-14T09:31:00Z</time>
      </trkpt>
      <trkpt lat="43.6481" lon="7.13898">
        <ele>5.7</ele>
        <time>2026-05-14T09:31:01Z</time>
      </trkpt>
      <trkpt lat="43.6481" lon="7.13898">
        <ele>5.7</ele>
        <time>2026-05-14T09:31:02Z</time>
      </trkpt>
      <trkpt lat="43.6481" lon="7.13898">
        <ele>5.7</ele>
        <time>2026-05-14T09:31:03Z</time>
      </trkpt>
      <trkpt lat="43.6481" lon="7.13898">
        <ele>5.7</ele>
        <time>2026-05-14T09:31:04Z</time>
      </trkpt>
      <trkpt lat="43.6481" lon="7.13898">
        <ele>5.7</ele>
        <time>2026-05-14T09:31:05Z</time>
      </trkpt>
      <trkpt lat="43.6481" lon="7.13898">
        <ele>5.7</ele>
        <time>2026-05-14T09:31:06Z</time>
      </trkpt>
      <trkpt lat="43.6481" lon="7.13898">
        <ele>5.7</ele>
        <time>2026-05-14T09:31:07Z</time>
      </trkpt>
      <trkpt lat="43.6481" lon="7.13898">
        <ele>5.7</ele>
        <time>2026-05-14T09:31:08Z</time>
      </trkpt>
      <trkpt lat="43.6481" lon="7.13898">
        <ele>5.7</ele>
        <time>2026-05-14T09:31:09Z</time>
      </trkpt>
      <trkpt lat="43.6481" lon="7.13898">
        <ele>5.7</ele>
        <time>2026-05-14T09:31:10Z</time>
      </trkpt>
      <trkpt lat="43.6481" lon="7.13898">
        <ele>5.7</ele>
        <time>2026-05-14T09:31:11Z</time>
      </trkpt>
      <trkpt lat="43.6481" lon="7.13898">
        <ele>5.7</ele>
        <time>2026-05-14T09:31:12Z</time>
      </trkpt>
      <trkpt lat="43.6481" lon="7.13898">
        <ele>5.7</ele>
        <time>2026-05-14T09:31:13Z</time>
      </trkpt>
      <trkpt lat="43.6481" lon="7.13898">
        <ele>5.7</ele>
        <time>2026-05-14T09:31:14Z</time>
      </trkpt>
      <trkpt lat="43.6481" lon="7.13898">
        <ele>5.7</ele>
        <time>2026-05-14T09:31:15Z</time>
      </trkpt>
      <trkpt lat="43.6481" lon="7.13898">
        <ele>5.7</ele>
        <time>2026-05-14T09:31:16Z</time>
      </trkpt>
      <trkpt lat="43.6481" lon="7.13898">
        <ele>5.7</ele>
        <time>2026-05-14T09:31:17Z</time>
      </trkpt>
      <trkpt lat="43.6481" lon="7.13898">
        <ele>5.7</ele>
        <time>2026-05-14T09:31:18Z</time>
      </trkpt>
      <trkpt lat="43.6481" lon="7.13898">
        <ele>5.7</ele>
        <time>2026-05-14T09:31:19Z</time>
      </trkpt>
      <trkpt lat="43.6481" lon="7.13898">
        <ele>5.7</ele>
        <time>2026-05-14T09:31:20Z</time>
      </trkpt>
      <trkpt lat="43.6481" lon="7.13898">
        <ele>5.7</ele>
        <time>2026-05-14T09:31:21Z</time>
      </trkpt>
      <trkpt lat="43.6481" lon="7.13898">
        <ele>5.7</ele>
        <time>2026-05-14T09:31:22Z</time>
      </trkpt>
      <trkpt lat="43.6481" lon="7.13898">
        <ele>5.7</ele>
        <time>2026-05-14T09:31:23Z</time>
      </trkpt>
      <trkpt lat="43.6481" lon="7.13898">
        <ele>5.7</ele>
        <time>2026-05-14T09:31:24Z</time>
      </trkpt>
      <trkpt lat="43.6481" lon="7.13898">
        <ele>5.7</ele>
        <time>2026-05-14T09:31:25Z</time>
      </trkpt>
      <trkpt lat="43.6481" lon="7.13898">
        <ele>5.7</ele>
        <time>2026-05-14T09:31:26Z</time>
      </trkpt>
      <trkpt lat="43.6481" lon="7.13898">
        <ele>5.7</ele>
        <time>2026-05-14T09:31:27Z</time>
      </trkpt>
      <trkpt lat="43.6481" lon="7.13898">
        <ele>5.7</ele>
        <time>2026-05-14T09:31:28Z</time>
      </trkpt>
      <trkpt lat="43.6481" lon="7.13898">
        <ele>5.7</ele>
        <time>2026-05-14T09:31:29Z</time>
      </trkpt>
      <trkpt lat="43.6481" lon="7.13898">
        <ele>5.7</ele>
        <time>2026-05-14T09:31:30Z</time>
      </trkpt>
      <trkpt lat="43.6481" lon="7.13898">
        <ele>5.7</ele>
        <time>2026-05-14T09:31:31Z</time>
      </trkpt>
      <trkpt lat="43.6481" lon="7.13898">
        <ele>5.7</ele>
        <time>2026-05-14T09:31:32Z</time>
      </trkpt>
      <trkpt lat="43.6481" lon="7.13898">
        <ele>5.7</ele>
        <time>2026-05-14T09:31:33Z</time>
      </trkpt>
      <trkpt lat="43.6481" lon="7.13898">
        <ele>5.7</ele>
        <time>2026-05-14T09:31:34Z</time>
      </trkpt>
      <trkpt lat="43.6481" lon="7.13898">
        <ele>5.7</ele>
        <time>2026-05-14T09:31:35Z</time>
      </trkpt>
      <trkpt lat="43.6481" lon="7.13898">
        <ele>5.7</ele>
        <time>2026-05-14T09:31:36Z</time>
      </trkpt>
      <trkpt lat="43.6481" lon="7.13898">
        <ele>5.7</ele>
        <time>2026-05-14T09:31:37Z</time>
      </trkpt>
      <trkpt lat="43.6481" lon="7.13898">
        <ele>5.7</ele>
        <time>2026-05-14T09:31:38Z</time>
      </trkpt>
      <trkpt lat="43.6481" lon="7.13898">
        <ele>5.7</ele>
        <time>2026-05-14T09:31:39Z</time>
      </trkpt>
      <trkpt lat="43.6481" lon="7.13898">
        <ele>5.7</ele>
        <time>2026-05-14T09:31:40Z</time>
      </trkpt>
      <trkpt lat="43.6481" lon="7.13898">
        <ele>5.7</ele>
        <time>2026-05-14T09:31:41Z</time>
      </trkpt>
      <trkpt lat="43.6481" lon="7.13898">
        <ele>5.7</ele>
        <time>2026-05-14T09:31:42Z</time>
      </trkpt>
      <trkpt lat="43.6481" lon="7.13898">
        <ele>5.7</ele>
        <time>2026-05-14T09:31:43Z</time>
      </trkpt>
      <trkpt lat="43.6481" lon="7.13898">
        <ele>5.7</ele>
        <time>2026-05-14T09:31:44Z</time>
      </trkpt>
      <trkpt lat="43.6481" lon="7.13898">
        <ele>5.7</ele>
        <time>2026-05-14T09:31:45Z</time>
      </trkpt>
      <trkpt lat="43.6481" lon="7.13898">
        <ele>5.7</ele>
        <time>2026-05-14T09:31:46Z</time>
      </trkpt>
      <trkpt lat="43.6481" lon="7.13898">
        <ele>5.7</ele>
        <time>2026-05-14T09:31:47Z</time>
      </trkpt>
      <trkpt lat="43.6481" lon="7.13898">
        <ele>5.7</ele>
        <time>2026-05-14T09:31:48Z</time>
      </trkpt>
      <trkpt lat="43.6481" lon="7.13898">
        <ele>5.7</ele>
        <time>2026-05-14T09:31:49Z</time>
      </trkpt>
      <trkpt lat="43.6481" lon="7.13898">
        <ele>5.7</ele>
        <time>2026-05-14T09:31:50Z</time>
      </trkpt>
      <trkpt lat="43.6481" lon="7.13898">
        <ele>5.7</ele>
        <time>2026-05-14T09:31:51Z</time>
      </trkpt>
      <trkpt lat="43.6481" lon="7.13898">
        <ele>5.7</ele>
        <time>2026-05-14T09:31:52Z</time>
      </trkpt>
      <trkpt lat="43.6481" lon="7.13898">
        <ele>5.7</ele>
        <time>2026-05-14T09:31:53Z</time>
      </trkpt>
      <trkpt lat="43.6481" lon="7.13898">
        <ele>5.7</ele>
        <time>2026-05-14T09:31:54Z</time>
      </trkpt>
      <trkpt lat="43.6481" lon="7.13898">
        <ele>5.7</ele>
        <time>2026-05-14T09:31:55Z</time>
      </trkpt>
      <trkpt lat="43.6481" lon="7.13898">
        <ele>5.7</ele>
        <time>2026-05-14T09:31:56Z</time>
      </trkpt>
      <trkpt lat="43.6481" lon="7.13898">
        <ele>5.7</ele>
        <time>2026-05-14T09:31:57Z</time>
      </trkpt>
      <trkpt lat="43.6481" lon="7.13898">
        <ele>5.7</ele>
        <time>2026-05-14T09:31:58Z</time>
      </trkpt>
      <trkpt lat="43.6481" lon="7.13898">
        <ele>5.7</ele>
        <time>2026-05-14T09:31:59Z</time>
      </trkpt>
      <trkpt lat="43.6481" lon="7.13898">
        <ele>5.7</ele>
        <time>2026-05-14T09:32:00Z</time>
      </trkpt>
      <trkpt lat="43.6481" lon="7.13898">
        <ele>5.7</ele>
        <time>2026-05-14T09:32:01Z</time>
      </trkpt>
      <trkpt lat="43.6481" lon="7.13898">
        <ele>5.7</ele>
        <time>2026-05-14T09:32:02Z</time>
      </trkpt>
      <trkpt lat="43.6481" lon="7.13898">
        <ele>5.7</ele>
        <time>2026-05-14T09:32:03Z</time>
      </trkpt>
      <trkpt lat="43.6481" lon="7.13898">
        <ele>5.7</ele>
        <time>2026-05-14T09:32:04Z</time>
      </trkpt>
      <trkpt lat="43.6481" lon="7.13898">
        <ele>5.7</ele>
        <time>2026-05-14T09:32:05Z</time>
      </trkpt>
      <trkpt lat="43.6481" lon="7.13898">
        <ele>5.7</ele>
        <time>2026-05-14T09:32:06Z</time>
      </trkpt>
      <trkpt lat="43.6481" lon="7.13898">
        <ele>5.7</ele>
        <time>2026-05-14T09:32:07Z</time>
      </trkpt>
      <trkpt lat="43.6481" lon="7.13898">
        <ele>5.7</ele>
        <time>2026-05-14T09:32:08Z</time>
      </trkpt>
      <trkpt lat="43.6481" lon="7.13898">
        <ele>5.7</ele>
        <time>2026-05-14T09:32:09Z</time>
      </trkpt>
      <trkpt lat="43.6481" lon="7.13898">
        <ele>5.7</ele>
        <time>2026-05-14T09:32:10Z</time>
      </trkpt>
      <trkpt lat="43.6481" lon="7.13898">
        <ele>5.7</ele>
        <time>2026-05-14T09:32:11Z</time>
      </trkpt>
      <trkpt lat="43.6481" lon="7.13898">
        <ele>5.7</ele>
        <time>2026-05-14T09:32:12Z</time>
      </trkpt>
      <trkpt lat="43.6481" lon="7.13898">
        <ele>5.7</ele>
        <time>2026-05-14T09:32:13Z</time>
      </trkpt>
      <trkpt lat="43.6481" lon="7.13898">
        <ele>5.7</ele>
        <time>2026-05-14T09:32:14Z</time>
      </trkpt>
      <trkpt lat="43.6481" lon="7.13898">
        <ele>5.7</ele>
        <time>2026-05-14T09:32:15Z</time>
      </trkpt>
      <trkpt lat="43.6481" lon="7.13898">
        <ele>5.7</ele>
        <time>2026-05-14T09:32:16Z</time>
      </trkpt>
      <trkpt lat="43.6481" lon="7.13898">
        <ele>5.7</ele>
        <time>2026-05-14T09:32:17Z</time>
      </trkpt>
      <trkpt lat="43.6481" lon="7.13898">
        <ele>5.7</ele>
        <time>2026-05-14T09:32:18Z</time>
      </trkpt>
      <trkpt lat="43.6481" lon="7.13898">
        <ele>5.7</ele>
        <time>2026-05-14T09:32:19Z</time>
      </trkpt>
      <trkpt lat="43.6481" lon="7.13898">
        <ele>5.7</ele>
        <time>2026-05-14T09:32:20Z</time>
      </trkpt>
      <trkpt lat="43.6481" lon="7.13898">
        <ele>5.7</ele>
        <time>2026-05-14T09:32:21Z</time>
      </trkpt>
      <trkpt lat="43.6481" lon="7.13898">
        <ele>5.7</ele>
        <time>2026-05-14T09:32:22Z</time>
      </trkpt>
      <trkpt lat="43.6481" lon="7.13898">
        <ele>5.7</ele>
        <time>2026-05-14T09:32:23Z</time>
      </trkpt>
      <trkpt lat="43.6481" lon="7.13898">
        <ele>5.7</ele>
        <time>2026-05-14T09:32:24Z</time>
      </trkpt>
      <trkpt lat="43.6481" lon="7.13898">
        <ele>5.7</ele>
        <time>2026-05-14T09:32:25Z</time>
      </trkpt>
      <trkpt lat="43.6481" lon="7.13898">
        <ele>5.7</ele>
        <time>2026-05-14T09:32:26Z</time>
      </trkpt>
      <trkpt lat="43.6481" lon="7.13898">
        <ele>5.7</ele>
        <time>2026-05-14T09:32:27Z</time>
      </trkpt>
      <trkpt lat="43.6481" lon="7.13898">
        <ele>5.7</ele>
        <time>2026-05-14T09:32:28Z</time>
      </trkpt>
      <trkpt lat="43.6481" lon="7.13898">
        <ele>5.7</ele>
        <time>2026-05-14T09:32:29Z</time>
      </trkpt>
      <trkpt lat="43.6481" lon="7.13898">
        <ele>5.7</ele>
        <time>2026-05-14T09:32:30Z</time>
      </trkpt>
      <trkpt lat="43.6481" lon="7.13898">
        <ele>5.7</ele>
        <time>2026-05-14T09:32:31Z</time>
      </trkpt>
      <trkpt lat="43.6481" lon="7.13898">
        <ele>5.7</ele>
        <time>2026-05-14T09:32:32Z</time>
      </trkpt>
      <trkpt lat="43.6481" lon="7.13898">
        <ele>5.7</ele>
        <time>2026-05-14T09:32:33Z</time>
      </trkpt>
      <trkpt lat="43.6481" lon="7.13898">
        <ele>5.7</ele>
        <time>2026-05-14T09:32:34Z</time>
      </trkpt>
      <trkpt lat="43.6481" lon="7.13898">
        <ele>5.7</ele>
        <time>2026-05-14T09:32:35Z</time>
      </trkpt>
      <trkpt lat="43.6481" lon="7.13898">
        <ele>5.7</ele>
        <time>2026-05-14T09:32:36Z</time>
      </trkpt>
      <trkpt lat="43.6481" lon="7.13898">
        <ele>5.7</ele>
        <time>2026-05-14T09:32:37Z</time>
      </trkpt>
      <trkpt lat="43.6481" lon="7.13898">
        <ele>5.7</ele>
        <time>2026-05-14T09:32:38Z</time>
      </trkpt>
      <trkpt lat="43.6481" lon="7.13898">
        <ele>5.7</ele>
        <time>2026-05-14T09:32:39Z</time>
      </trkpt>
      <trkpt lat="43.6481" lon="7.13898">
        <ele>5.7</ele>
        <time>2026-05-14T09:32:40Z</time>
      </trkpt>
      <trkpt lat="43.6481" lon="7.13898">
        <ele>5.7</ele>
        <time>2026-05-14T09:32:41Z</time>
      </trkpt>
      <trkpt lat="43.6481" lon="7.13898">
        <ele>5.7</ele>
        <time>2026-05-14T09:32:42Z</time>
      </trkpt>
      <trkpt lat="43.6481" lon="7.13898">
        <ele>5.7</ele>
        <time>2026-05-14T09:32:43Z</time>
      </trkpt>
      <trkpt lat="43.6481" lon="7.13898">
        <ele>5.7</ele>
        <time>2026-05-14T09:32:44Z</time>
      </trkpt>
      <trkpt lat="43.6481" lon="7.13898">
        <ele>5.7</ele>
        <time>2026-05-14T09:32:45Z</time>
      </trkpt>
      <trkpt lat="43.6481" lon="7.13898">
        <ele>5.7</ele>
        <time>2026-05-14T09:32:46Z</time>
      </trkpt>
      <trkpt lat="43.6481" lon="7.13898">
        <ele>5.7</ele>
        <time>2026-05-14T09:32:47Z</time>
      </trkpt>
      <trkpt lat="43.6481" lon="7.13898">
        <ele>5.7</ele>
        <time>2026-05-14T09:32:48Z</time>
      </trkpt>
      <trkpt lat="43.64809" lon="7.13898">
        <ele>5.8</ele>
        <time>2026-05-14T09:32:49Z</time>
      </trkpt>
      <trkpt lat="43.64809" lon="7.13897">
        <ele>5.7</ele>
        <time>2026-05-14T09:32:50Z</time>
      </trkpt>
      <trkpt lat="43.64808" lon="7.13896">
        <ele>5.6</ele>
        <time>2026-05-14T09:32:51Z</time>
      </trkpt>
      <trkpt lat="43.64806" lon="7.13895">
        <ele>5.6</ele>
        <time>2026-05-14T09:32:52Z</time>
      </trkpt>
      <trkpt lat="43.64803" lon="7.13893">
        <ele>5.2</ele>
        <time>2026-05-14T09:32:53Z</time>
      </trkpt>
      <trkpt lat="43.64801" lon="7.13891">
        <ele>4.7</ele>
        <time>2026-05-14T09:32:54Z</time>
      </trkpt>
      <trkpt lat="43.64798" lon="7.13889">
        <ele>4.2</ele>
        <time>2026-05-14T09:32:55Z</time>
      </trkpt>
      <trkpt lat="43.64795" lon="7.13888">
        <ele>3.8</ele>
        <time>2026-05-14T09:32:56Z</time>
      </trkpt>
      <trkpt lat="43.64793" lon="7.13886">
        <ele>3.6</ele>
        <time>2026-05-14T09:32:57Z</time>
      </trkpt>
      <trkpt lat="43.64792" lon="7.13885">
        <ele>3.5</ele>
        <time>2026-05-14T09:32:58Z</time>
      </trkpt>
      <trkpt lat="43.6479" lon="7.13883">
        <ele>3.2</ele>
        <time>2026-05-14T09:32:59Z</time>
      </trkpt>
      <trkpt lat="43.64788" lon="7.13881">
        <ele>3</ele>
        <time>2026-05-14T09:33:00Z</time>
      </trkpt>
      <trkpt lat="43.64787" lon="7.13879">
        <ele>2.9</ele>
        <time>2026-05-14T09:33:01Z</time>
      </trkpt>
      <trkpt lat="43.64785" lon="7.13877">
        <ele>2.7</ele>
        <time>2026-05-14T09:33:02Z</time>
      </trkpt>
      <trkpt lat="43.64783" lon="7.13875">
        <ele>2.5</ele>
        <time>2026-05-14T09:33:03Z</time>
      </trkpt>
      <trkpt lat="43.64781" lon="7.13873">
        <ele>2.3</ele>
        <time>2026-05-14T09:33:04Z</time>
      </trkpt>
      <trkpt lat="43.6478" lon="7.13871">
        <ele>2.2</ele>
        <time>2026-05-14T09:33:05Z</time>
      </trkpt>
      <trkpt lat="43.64778" lon="7.13869">
        <ele>2</ele>
        <time>2026-05-14T09:33:06Z</time>
      </trkpt>
      <trkpt lat="43.64777" lon="7.13867">
        <ele>2</ele>
        <time>2026-05-14T09:33:07Z</time>
      </trkpt>
      <trkpt lat="43.64777" lon="7.13866">
        <ele>2</ele>
        <time>2026-05-14T09:33:08Z</time>
      </trkpt>
      <trkpt lat="43.64778" lon="7.13866">
        <ele>2</ele>
        <time>2026-05-14T09:33:09Z</time>
      </trkpt>
      <trkpt lat="43.64778" lon="7.13866">
        <ele>2</ele>
        <time>2026-05-14T09:33:10Z</time>
      </trkpt>
      <trkpt lat="43.64778" lon="7.13866">
        <ele>2</ele>
        <time>2026-05-14T09:33:11Z</time>
      </trkpt>
      <trkpt lat="43.64778" lon="7.13866">
        <ele>2</ele>
        <time>2026-05-14T09:33:12Z</time>
      </trkpt>
      <trkpt lat="43.64778" lon="7.13866">
        <ele>2</ele>
        <time>2026-05-14T09:33:13Z</time>
      </trkpt>
      <trkpt lat="43.64778" lon="7.13866">
        <ele>2</ele>
        <time>2026-05-14T09:33:14Z</time>
      </trkpt>
      <trkpt lat="43.64777" lon="7.13865">
        <ele>2</ele>
        <time>2026-05-14T09:33:15Z</time>
      </trkpt>
      <trkpt lat="43.64777" lon="7.13865">
        <ele>2</ele>
        <time>2026-05-14T09:33:16Z</time>
      </trkpt>
      <trkpt lat="43.64777" lon="7.13864">
        <ele>2</ele>
        <time>2026-05-14T09:33:17Z</time>
      </trkpt>
      <trkpt lat="43.64777" lon="7.13864">
        <ele>2</ele>
        <time>2026-05-14T09:33:18Z</time>
      </trkpt>
      <trkpt lat="43.64777" lon="7.13864">
        <ele>2</ele>
        <time>2026-05-14T09:33:19Z</time>
      </trkpt>
      <trkpt lat="43.64776" lon="7.13863">
        <ele>2.1</ele>
        <time>2026-05-14T09:33:20Z</time>
      </trkpt>
      <trkpt lat="43.64774" lon="7.13861">
        <ele>2.3</ele>
        <time>2026-05-14T09:33:21Z</time>
      </trkpt>
      <trkpt lat="43.6477" lon="7.13856">
        <ele>2.4</ele>
        <time>2026-05-14T09:33:22Z</time>
      </trkpt>
      <trkpt lat="43.64766" lon="7.13852">
        <ele>2.7</ele>
        <time>2026-05-14T09:33:23Z</time>
      </trkpt>
      <trkpt lat="43.64763" lon="7.13848">
        <ele>2.8</ele>
        <time>2026-05-14T09:33:24Z</time>
      </trkpt>
      <trkpt lat="43.6476" lon="7.13844">
        <ele>3.1</ele>
        <time>2026-05-14T09:33:25Z</time>
      </trkpt>
      <trkpt lat="43.64758" lon="7.13839">
        <ele>3.2</ele>
        <time>2026-05-14T09:33:26Z</time>
      </trkpt>
      <trkpt lat="43.64757" lon="7.13834">
        <ele>3.3</ele>
        <time>2026-05-14T09:33:27Z</time>
      </trkpt>
      <trkpt lat="43.64757" lon="7.13828">
        <ele>3.4</ele>
        <time>2026-05-14T09:33:28Z</time>
      </trkpt>
      <trkpt lat="43.64759" lon="7.13819">
        <ele>3.5</ele>
        <time>2026-05-14T09:33:29Z</time>
      </trkpt>
      <trkpt lat="43.64762" lon="7.1381">
        <ele>3.8</ele>
        <time>2026-05-14T09:33:30Z</time>
      </trkpt>
      <trkpt lat="43.64769" lon="7.13801">
        <ele>4</ele>
        <time>2026-05-14T09:33:31Z</time>
      </trkpt>
      <trkpt lat="43.64776" lon="7.13792">
        <ele>4</ele>
        <time>2026-05-14T09:33:32Z</time>
      </trkpt>
      <trkpt lat="43.64782" lon="7.13783">
        <ele>3.6</ele>
        <time>2026-05-14T09:33:33Z</time>
      </trkpt>
      <trkpt lat="43.64788" lon="7.13774">
        <ele>3.1</ele>
        <time>2026-05-14T09:33:34Z</time>
      </trkpt>
      <trkpt lat="43.64793" lon="7.13761">
        <ele>3.6</ele>
        <time>2026-05-14T09:33:35Z</time>
      </trkpt>
      <trkpt lat="43.64798" lon="7.1375">
        <ele>4.3</ele>
        <time>2026-05-14T09:33:36Z</time>
      </trkpt>
      <trkpt lat="43.64803" lon="7.13741">
        <ele>4.1</ele>
        <time>2026-05-14T09:33:37Z</time>
      </trkpt>
      <trkpt lat="43.64805" lon="7.13734">
        <ele>4</ele>
        <time>2026-05-14T09:33:38Z</time>
      </trkpt>
      <trkpt lat="43.64807" lon="7.13728">
        <ele>3.9</ele>
        <time>2026-05-14T09:33:39Z</time>
      </trkpt>
      <trkpt lat="43.64808" lon="7.13724">
        <ele>3.8</ele>
        <time>2026-05-14T09:33:40Z</time>
      </trkpt>
      <trkpt lat="43.64808" lon="7.13721">
        <ele>3.9</ele>
        <time>2026-05-14T09:33:41Z</time>
      </trkpt>
      <trkpt lat="43.64809" lon="7.13719">
        <ele>3.9</ele>
        <time>2026-05-14T09:33:42Z</time>
      </trkpt>
      <trkpt lat="43.64809" lon="7.13716">
        <ele>4</ele>
        <time>2026-05-14T09:33:43Z</time>
      </trkpt>
      <trkpt lat="43.64809" lon="7.13714">
        <ele>4.1</ele>
        <time>2026-05-14T09:33:44Z</time>
      </trkpt>
      <trkpt lat="43.6481" lon="7.13711">
        <ele>4.2</ele>
        <time>2026-05-14T09:33:45Z</time>
      </trkpt>
      <trkpt lat="43.64813" lon="7.13705">
        <ele>4.4</ele>
        <time>2026-05-14T09:33:46Z</time>
      </trkpt>
      <trkpt lat="43.64818" lon="7.137">
        <ele>4.6</ele>
        <time>2026-05-14T09:33:47Z</time>
      </trkpt>
      <trkpt lat="43.64822" lon="7.13696">
        <ele>4.9</ele>
        <time>2026-05-14T09:33:48Z</time>
      </trkpt>
      <trkpt lat="43.64827" lon="7.1369">
        <ele>5</ele>
        <time>2026-05-14T09:33:49Z</time>
      </trkpt>
      <trkpt lat="43.6483" lon="7.13682">
        <ele>5.1</ele>
        <time>2026-05-14T09:33:50Z</time>
      </trkpt>
      <trkpt lat="43.6483" lon="7.13673">
        <ele>5.1</ele>
        <time>2026-05-14T09:33:51Z</time>
      </trkpt>
      <trkpt lat="43.64827" lon="7.13663">
        <ele>5.2</ele>
        <time>2026-05-14T09:33:52Z</time>
      </trkpt>
      <trkpt lat="43.64821" lon="7.13656">
        <ele>5.3</ele>
        <time>2026-05-14T09:33:53Z</time>
      </trkpt>
      <trkpt lat="43.64814" lon="7.13653">
        <ele>5.4</ele>
        <time>2026-05-14T09:33:54Z</time>
      </trkpt>
      <trkpt lat="43.64806" lon="7.13653">
        <ele>5.5</ele>
        <time>2026-05-14T09:33:55Z</time>
      </trkpt>
      <trkpt lat="43.64797" lon="7.13653">
        <ele>5.8</ele>
        <time>2026-05-14T09:33:56Z</time>
      </trkpt>
      <trkpt lat="43.64789" lon="7.13652">
        <ele>6.1</ele>
        <time>2026-05-14T09:33:57Z</time>
      </trkpt>
      <trkpt lat="43.64781" lon="7.13652">
        <ele>6.4</ele>
        <time>2026-05-14T09:33:58Z</time>
      </trkpt>
      <trkpt lat="43.64773" lon="7.13651">
        <ele>6.8</ele>
        <time>2026-05-14T09:33:59Z</time>
      </trkpt>
      <trkpt lat="43.64766" lon="7.13651">
        <ele>7.3</ele>
        <time>2026-05-14T09:34:00Z</time>
      </trkpt>
      <trkpt lat="43.64759" lon="7.1365">
        <ele>7.8</ele>
        <time>2026-05-14T09:34:01Z</time>
      </trkpt>
      <trkpt lat="43.64754" lon="7.13649">
        <ele>8.1</ele>
        <time>2026-05-14T09:34:02Z</time>
      </trkpt>
      <trkpt lat="43.64749" lon="7.13649">
        <ele>8.4</ele>
        <time>2026-05-14T09:34:03Z</time>
      </trkpt>
      <trkpt lat="43.64747" lon="7.13649">
        <ele>8.6</ele>
        <time>2026-05-14T09:34:04Z</time>
      </trkpt>
      <trkpt lat="43.64744" lon="7.13648">
        <ele>8.8</ele>
        <time>2026-05-14T09:34:05Z</time>
      </trkpt>
      <trkpt lat="43.64741" lon="7.13648">
        <ele>9.1</ele>
        <time>2026-05-14T09:34:06Z</time>
      </trkpt>
      <trkpt lat="43.64738" lon="7.13647">
        <ele>9.3</ele>
        <time>2026-05-14T09:34:07Z</time>
      </trkpt>
      <trkpt lat="43.64733" lon="7.13646">
        <ele>9.8</ele>
        <time>2026-05-14T09:34:08Z</time>
      </trkpt>
      <trkpt lat="43.64728" lon="7.13646">
        <ele>10.2</ele>
        <time>2026-05-14T09:34:09Z</time>
      </trkpt>
      <trkpt lat="43.64724" lon="7.13646">
        <ele>10.6</ele>
        <time>2026-05-14T09:34:10Z</time>
      </trkpt>
      <trkpt lat="43.6472" lon="7.13648">
        <ele>10.7</ele>
        <time>2026-05-14T09:34:11Z</time>
      </trkpt>
      <trkpt lat="43.64715" lon="7.13652">
        <ele>10.5</ele>
        <time>2026-05-14T09:34:12Z</time>
      </trkpt>
      <trkpt lat="43.64711" lon="7.13657">
        <ele>10.3</ele>
        <time>2026-05-14T09:34:13Z</time>
      </trkpt>
      <trkpt lat="43.64706" lon="7.13662">
        <ele>10.2</ele>
        <time>2026-05-14T09:34:14Z</time>
      </trkpt>
      <trkpt lat="43.64701" lon="7.13668">
        <ele>10</ele>
        <time>2026-05-14T09:34:15Z</time>
      </trkpt>
      <trkpt lat="43.64695" lon="7.13673">
        <ele>10</ele>
        <time>2026-05-14T09:34:16Z</time>
      </trkpt>
      <trkpt lat="43.64688" lon="7.13675">
        <ele>10.2</ele>
        <time>2026-05-14T09:34:17Z</time>
      </trkpt>
      <trkpt lat="43.64681" lon="7.13675">
        <ele>10.5</ele>
        <time>2026-05-14T09:34:18Z</time>
      </trkpt>
      <trkpt lat="43.64674" lon="7.13673">
        <ele>10.7</ele>
        <time>2026-05-14T09:34:19Z</time>
      </trkpt>
      <trkpt lat="43.64666" lon="7.13669">
        <ele>11</ele>
        <time>2026-05-14T09:34:20Z</time>
      </trkpt>
      <trkpt lat="43.64657" lon="7.13663">
        <ele>11.5</ele>
        <time>2026-05-14T09:34:21Z</time>
      </trkpt>
      <trkpt lat="43.64646" lon="7.13656">
        <ele>12.1</ele>
        <time>2026-05-14T09:34:22Z</time>
      </trkpt>
      <trkpt lat="43.64635" lon="7.13648">
        <ele>12.7</ele>
        <time>2026-05-14T09:34:23Z</time>
      </trkpt>
      <trkpt lat="43.64625" lon="7.13641">
        <ele>12.9</ele>
        <time>2026-05-14T09:34:24Z</time>
      </trkpt>
      <trkpt lat="43.64614" lon="7.13634">
        <ele>13.7</ele>
        <time>2026-05-14T09:34:25Z</time>
      </trkpt>
      <trkpt lat="43.64604" lon="7.13627">
        <ele>14.4</ele>
        <time>2026-05-14T09:34:26Z</time>
      </trkpt>
      <trkpt lat="43.64594" lon="7.13619">
        <ele>14.5</ele>
        <time>2026-05-14T09:34:27Z</time>
      </trkpt>
      <trkpt lat="43.64584" lon="7.13611">
        <ele>14.1</ele>
        <time>2026-05-14T09:34:28Z</time>
      </trkpt>
      <trkpt lat="43.64575" lon="7.13602">
        <ele>15.3</ele>
        <time>2026-05-14T09:34:29Z</time>
      </trkpt>
      <trkpt lat="43.64566" lon="7.13592">
        <ele>15.8</ele>
        <time>2026-05-14T09:34:30Z</time>
      </trkpt>
      <trkpt lat="43.64556" lon="7.13582">
        <ele>15.4</ele>
        <time>2026-05-14T09:34:31Z</time>
      </trkpt>
      <trkpt lat="43.64546" lon="7.1357">
        <ele>16.7</ele>
        <time>2026-05-14T09:34:32Z</time>
      </trkpt>
      <trkpt lat="43.64537" lon="7.13559">
        <ele>17.2</ele>
        <time>2026-05-14T09:34:33Z</time>
      </trkpt>
      <trkpt lat="43.64528" lon="7.13547">
        <ele>17.6</ele>
        <time>2026-05-14T09:34:34Z</time>
      </trkpt>
      <trkpt lat="43.64518" lon="7.13534">
        <ele>18.1</ele>
        <time>2026-05-14T09:34:35Z</time>
      </trkpt>
      <trkpt lat="43.64508" lon="7.13521">
        <ele>17.5</ele>
        <time>2026-05-14T09:34:36Z</time>
      </trkpt>
      <trkpt lat="43.64499" lon="7.13508">
        <ele>17.7</ele>
        <time>2026-05-14T09:34:37Z</time>
      </trkpt>
      <trkpt lat="43.64489" lon="7.13493">
        <ele>18.2</ele>
        <time>2026-05-14T09:34:38Z</time>
      </trkpt>
      <trkpt lat="43.6448" lon="7.13477">
        <ele>19.6</ele>
        <time>2026-05-14T09:34:39Z</time>
      </trkpt>
      <trkpt lat="43.64471" lon="7.1346">
        <ele>20.3</ele>
        <time>2026-05-14T09:34:40Z</time>
      </trkpt>
      <trkpt lat="43.64463" lon="7.13444">
        <ele>20.4</ele>
        <time>2026-05-14T09:34:41Z</time>
      </trkpt>
      <trkpt lat="43.64456" lon="7.13427">
        <ele>20.9</ele>
        <time>2026-05-14T09:34:42Z</time>
      </trkpt>
      <trkpt lat="43.64448" lon="7.13411">
        <ele>22.3</ele>
        <time>2026-05-14T09:34:43Z</time>
      </trkpt>
      <trkpt lat="43.64441" lon="7.13396">
        <ele>23.3</ele>
        <time>2026-05-14T09:34:44Z</time>
      </trkpt>
      <trkpt lat="43.64434" lon="7.13381">
        <ele>24.4</ele>
        <time>2026-05-14T09:34:45Z</time>
      </trkpt>
      <trkpt lat="43.64427" lon="7.13367">
        <ele>25</ele>
        <time>2026-05-14T09:34:46Z</time>
      </trkpt>
      <trkpt lat="43.64419" lon="7.13354">
        <ele>25.6</ele>
        <time>2026-05-14T09:34:47Z</time>
      </trkpt>
      <trkpt lat="43.6441" lon="7.13342">
        <ele>26.8</ele>
        <time>2026-05-14T09:34:48Z</time>
      </trkpt>
      <trkpt lat="43.644" lon="7.13331">
        <ele>26.7</ele>
        <time>2026-05-14T09:34:49Z</time>
      </trkpt>
      <trkpt lat="43.64389" lon="7.13322">
        <ele>25.4</ele>
        <time>2026-05-14T09:34:50Z</time>
      </trkpt>
      <trkpt lat="43.64377" lon="7.13313">
        <ele>24.8</ele>
        <time>2026-05-14T09:34:51Z</time>
      </trkpt>
      <trkpt lat="43.64364" lon="7.13306">
        <ele>25</ele>
        <time>2026-05-14T09:34:52Z</time>
      </trkpt>
      <trkpt lat="43.64348" lon="7.133">
        <ele>24.5</ele>
        <time>2026-05-14T09:34:53Z</time>
      </trkpt>
      <trkpt lat="43.64331" lon="7.13296">
        <ele>23.6</ele>
        <time>2026-05-14T09:34:54Z</time>
      </trkpt>
      <trkpt lat="43.64315" lon="7.13296">
        <ele>20.5</ele>
        <time>2026-05-14T09:34:55Z</time>
      </trkpt>
      <trkpt lat="43.64299" lon="7.13298">
        <ele>18.3</ele>
        <time>2026-05-14T09:34:56Z</time>
      </trkpt>
      <trkpt lat="43.64285" lon="7.133">
        <ele>18</ele>
        <time>2026-05-14T09:34:57Z</time>
      </trkpt>
      <trkpt lat="43.64273" lon="7.13302">
        <ele>18.6</ele>
        <time>2026-05-14T09:34:58Z</time>
      </trkpt>
      <trkpt lat="43.64263" lon="7.13305">
        <ele>20.1</ele>
        <time>2026-05-14T09:34:59Z</time>
      </trkpt>
      <trkpt lat="43.64253" lon="7.13307">
        <ele>21.5</ele>
        <time>2026-05-14T09:35:00Z</time>
      </trkpt>
      <trkpt lat="43.64244" lon="7.13309">
        <ele>21.7</ele>
        <time>2026-05-14T09:35:01Z</time>
      </trkpt>
      <trkpt lat="43.64237" lon="7.13311">
        <ele>21.3</ele>
        <time>2026-05-14T09:35:02Z</time>
      </trkpt>
      <trkpt lat="43.64231" lon="7.13313">
        <ele>21</ele>
        <time>2026-05-14T09:35:03Z</time>
      </trkpt>
      <trkpt lat="43.64225" lon="7.13314">
        <ele>20.8</ele>
        <time>2026-05-14T09:35:04Z</time>
      </trkpt>
      <trkpt lat="43.6422" lon="7.13315">
        <ele>20.6</ele>
        <time>2026-05-14T09:35:05Z</time>
      </trkpt>
      <trkpt lat="43.64214" lon="7.13313">
        <ele>20.5</ele>
        <time>2026-05-14T09:35:06Z</time>
      </trkpt>
      <trkpt lat="43.64208" lon="7.13312">
        <ele>20.4</ele>
        <time>2026-05-14T09:35:07Z</time>
      </trkpt>
      <trkpt lat="43.64203" lon="7.13315">
        <ele>20.2</ele>
        <time>2026-05-14T09:35:08Z</time>
      </trkpt>
      <trkpt lat="43.642" lon="7.13322">
        <ele>20.1</ele>
        <time>2026-05-14T09:35:09Z</time>
      </trkpt>
      <trkpt lat="43.642" lon="7.1333">
        <ele>20</ele>
        <time>2026-05-14T09:35:10Z</time>
      </trkpt>
      <trkpt lat="43.64203" lon="7.13338">
        <ele>19.9</ele>
        <time>2026-05-14T09:35:11Z</time>
      </trkpt>
      <trkpt lat="43.64208" lon="7.13348">
        <ele>19.7</ele>
        <time>2026-05-14T09:35:12Z</time>
      </trkpt>
      <trkpt lat="43.64214" lon="7.13356">
        <ele>19.4</ele>
        <time>2026-05-14T09:35:13Z</time>
      </trkpt>
      <trkpt lat="43.64218" lon="7.13365">
        <ele>19.2</ele>
        <time>2026-05-14T09:35:14Z</time>
      </trkpt>
      <trkpt lat="43.64222" lon="7.13372">
        <ele>19</ele>
        <time>2026-05-14T09:35:15Z</time>
      </trkpt>
      <trkpt lat="43.64227" lon="7.13379">
        <ele>18.9</ele>
        <time>2026-05-14T09:35:16Z</time>
      </trkpt>
      <trkpt lat="43.6423" lon="7.13386">
        <ele>18.7</ele>
        <time>2026-05-14T09:35:17Z</time>
      </trkpt>
      <trkpt lat="43.64233" lon="7.13394">
        <ele>18.5</ele>
        <time>2026-05-14T09:35:18Z</time>
      </trkpt>
      <trkpt lat="43.64235" lon="7.13403">
        <ele>18.3</ele>
        <time>2026-05-14T09:35:19Z</time>
      </trkpt>
      <trkpt lat="43.64236" lon="7.1341">
        <ele>18.1</ele>
        <time>2026-05-14T09:35:20Z</time>
      </trkpt>
      <trkpt lat="43.64236" lon="7.13417">
        <ele>18</ele>
        <time>2026-05-14T09:35:21Z</time>
      </trkpt>
      <trkpt lat="43.64235" lon="7.13425">
        <ele>17.8</ele>
        <time>2026-05-14T09:35:22Z</time>
      </trkpt>
      <trkpt lat="43.64234" lon="7.13433">
        <ele>17.6</ele>
        <time>2026-05-14T09:35:23Z</time>
      </trkpt>
      <trkpt lat="43.64233" lon="7.1344">
        <ele>17.4</ele>
        <time>2026-05-14T09:35:24Z</time>
      </trkpt>
      <trkpt lat="43.64231" lon="7.13447">
        <ele>16.9</ele>
        <time>2026-05-14T09:35:25Z</time>
      </trkpt>
      <trkpt lat="43.64231" lon="7.13454">
        <ele>15.5</ele>
        <time>2026-05-14T09:35:26Z</time>
      </trkpt>
      <trkpt lat="43.6423" lon="7.1346">
        <ele>14.3</ele>
        <time>2026-05-14T09:35:27Z</time>
      </trkpt>
      <trkpt lat="43.64229" lon="7.13467">
        <ele>12.8</ele>
        <time>2026-05-14T09:35:28Z</time>
      </trkpt>
      <trkpt lat="43.64228" lon="7.13476">
        <ele>12</ele>
        <time>2026-05-14T09:35:29Z</time>
      </trkpt>
      <trkpt lat="43.64226" lon="7.13485">
        <ele>12.9</ele>
        <time>2026-05-14T09:35:30Z</time>
      </trkpt>
      <trkpt lat="43.64225" lon="7.13496">
        <ele>14.3</ele>
        <time>2026-05-14T09:35:31Z</time>
      </trkpt>
      <trkpt lat="43.64223" lon="7.13508">
        <ele>14.9</ele>
        <time>2026-05-14T09:35:32Z</time>
      </trkpt>
      <trkpt lat="43.64222" lon="7.13521">
        <ele>15</ele>
        <time>2026-05-14T09:35:33Z</time>
      </trkpt>
      <trkpt lat="43.64221" lon="7.13534">
        <ele>14.4</ele>
        <time>2026-05-14T09:35:34Z</time>
      </trkpt>
      <trkpt lat="43.64222" lon="7.13548">
        <ele>13.5</ele>
        <time>2026-05-14T09:35:35Z</time>
      </trkpt>
      <trkpt lat="43.64222" lon="7.13561">
        <ele>12.6</ele>
        <time>2026-05-14T09:35:36Z</time>
      </trkpt>
      <trkpt lat="43.64222" lon="7.1357">
        <ele>11.9</ele>
        <time>2026-05-14T09:35:37Z</time>
      </trkpt>
      <trkpt lat="43.64222" lon="7.13577">
        <ele>11.4</ele>
        <time>2026-05-14T09:35:38Z</time>
      </trkpt>
      <trkpt lat="43.64222" lon="7.13585">
        <ele>10.9</ele>
        <time>2026-05-14T09:35:39Z</time>
      </trkpt>
      <trkpt lat="43.64222" lon="7.13594">
        <ele>10.2</ele>
        <time>2026-05-14T09:35:40Z</time>
      </trkpt>
      <trkpt lat="43.64221" lon="7.13605">
        <ele>9.3</ele>
        <time>2026-05-14T09:35:41Z</time>
      </trkpt>
      <trkpt lat="43.64221" lon="7.13617">
        <ele>8.5</ele>
        <time>2026-05-14T09:35:42Z</time>
      </trkpt>
      <trkpt lat="43.64221" lon="7.1363">
        <ele>7.6</ele>
        <time>2026-05-14T09:35:43Z</time>
      </trkpt>
      <trkpt lat="43.64221" lon="7.13644">
        <ele>6.8</ele>
        <time>2026-05-14T09:35:44Z</time>
      </trkpt>
      <trkpt lat="43.64219" lon="7.13659">
        <ele>6.2</ele>
        <time>2026-05-14T09:35:45Z</time>
      </trkpt>
      <trkpt lat="43.64218" lon="7.13675">
        <ele>5.6</ele>
        <time>2026-05-14T09:35:46Z</time>
      </trkpt>
      <trkpt lat="43.64216" lon="7.13691">
        <ele>5.1</ele>
        <time>2026-05-14T09:35:47Z</time>
      </trkpt>
      <trkpt lat="43.64213" lon="7.13708">
        <ele>5</ele>
        <time>2026-05-14T09:35:48Z</time>
      </trkpt>
      <trkpt lat="43.6421" lon="7.13723">
        <ele>5</ele>
        <time>2026-05-14T09:35:49Z</time>
      </trkpt>
      <trkpt lat="43.64206" lon="7.13738">
        <ele>5</ele>
        <time>2026-05-14T09:35:50Z</time>
      </trkpt>
      <trkpt lat="43.64202" lon="7.13753">
        <ele>4.9</ele>
        <time>2026-05-14T09:35:51Z</time>
      </trkpt>
      <trkpt lat="43.64196" lon="7.13766">
        <ele>4.5</ele>
        <time>2026-05-14T09:35:52Z</time>
      </trkpt>
      <trkpt lat="43.64192" lon="7.13776">
        <ele>4.1</ele>
        <time>2026-05-14T09:35:53Z</time>
      </trkpt>
      <trkpt lat="43.64189" lon="7.13785">
        <ele>4</ele>
        <time>2026-05-14T09:35:54Z</time>
      </trkpt>
      <trkpt lat="43.64185" lon="7.13794">
        <ele>4</ele>
        <time>2026-05-14T09:35:55Z</time>
      </trkpt>
      <trkpt lat="43.64182" lon="7.13802">
        <ele>4</ele>
        <time>2026-05-14T09:35:56Z</time>
      </trkpt>
      <trkpt lat="43.64179" lon="7.1381">
        <ele>4</ele>
        <time>2026-05-14T09:35:57Z</time>
      </trkpt>
      <trkpt lat="43.64178" lon="7.13815">
        <ele>4</ele>
        <time>2026-05-14T09:35:58Z</time>
      </trkpt>
      <trkpt lat="43.64177" lon="7.13818">
        <ele>4</ele>
        <time>2026-05-14T09:35:59Z</time>
      </trkpt>
      <trkpt lat="43.64176" lon="7.1382">
        <ele>4</ele>
        <time>2026-05-14T09:36:00Z</time>
      </trkpt>
      <trkpt lat="43.64176" lon="7.13822">
        <ele>4</ele>
        <time>2026-05-14T09:36:01Z</time>
      </trkpt>
      <trkpt lat="43.64176" lon="7.13824">
        <ele>4</ele>
        <time>2026-05-14T09:36:02Z</time>
      </trkpt>
      <trkpt lat="43.64175" lon="7.13827">
        <ele>4</ele>
        <time>2026-05-14T09:36:03Z</time>
      </trkpt>
      <trkpt lat="43.64173" lon="7.13831">
        <ele>4</ele>
        <time>2026-05-14T09:36:04Z</time>
      </trkpt>
      <trkpt lat="43.64169" lon="7.13836">
        <ele>4</ele>
        <time>2026-05-14T09:36:05Z</time>
      </trkpt>
      <trkpt lat="43.64166" lon="7.13843">
        <ele>4</ele>
        <time>2026-05-14T09:36:06Z</time>
      </trkpt>
      <trkpt lat="43.64164" lon="7.13851">
        <ele>3.9</ele>
        <time>2026-05-14T09:36:07Z</time>
      </trkpt>
      <trkpt lat="43.64163" lon="7.13859">
        <ele>3.9</ele>
        <time>2026-05-14T09:36:08Z</time>
      </trkpt>
      <trkpt lat="43.64161" lon="7.13865">
        <ele>3.8</ele>
        <time>2026-05-14T09:36:09Z</time>
      </trkpt>
      <trkpt lat="43.64159" lon="7.13869">
        <ele>3.7</ele>
        <time>2026-05-14T09:36:10Z</time>
      </trkpt>
      <trkpt lat="43.64156" lon="7.13871">
        <ele>3.6</ele>
        <time>2026-05-14T09:36:11Z</time>
      </trkpt>
      <trkpt lat="43.64153" lon="7.13872">
        <ele>3.5</ele>
        <time>2026-05-14T09:36:12Z</time>
      </trkpt>
      <trkpt lat="43.64149" lon="7.13872">
        <ele>3.4</ele>
        <time>2026-05-14T09:36:13Z</time>
      </trkpt>
      <trkpt lat="43.64144" lon="7.1387">
        <ele>3.2</ele>
        <time>2026-05-14T09:36:14Z</time>
      </trkpt>
      <trkpt lat="43.64137" lon="7.13867">
        <ele>3.1</ele>
        <time>2026-05-14T09:36:15Z</time>
      </trkpt>
      <trkpt lat="43.64131" lon="7.13864">
        <ele>3.3</ele>
        <time>2026-05-14T09:36:16Z</time>
      </trkpt>
      <trkpt lat="43.64125" lon="7.13861">
        <ele>3.5</ele>
        <time>2026-05-14T09:36:17Z</time>
      </trkpt>
      <trkpt lat="43.64118" lon="7.13857">
        <ele>3.8</ele>
        <time>2026-05-14T09:36:18Z</time>
      </trkpt>
      <trkpt lat="43.64112" lon="7.13853">
        <ele>4</ele>
        <time>2026-05-14T09:36:19Z</time>
      </trkpt>
      <trkpt lat="43.64106" lon="7.1385">
        <ele>4.1</ele>
        <time>2026-05-14T09:36:20Z</time>
      </trkpt>
      <trkpt lat="43.64099" lon="7.13846">
        <ele>4.2</ele>
        <time>2026-05-14T09:36:21Z</time>
      </trkpt>
      <trkpt lat="43.64092" lon="7.13842">
        <ele>4.2</ele>
        <time>2026-05-14T09:36:22Z</time>
      </trkpt>
      <trkpt lat="43.64085" lon="7.13838">
        <ele>4.2</ele>
        <time>2026-05-14T09:36:23Z</time>
      </trkpt>
      <trkpt lat="43.64079" lon="7.13834">
        <ele>4</ele>
        <time>2026-05-14T09:36:24Z</time>
      </trkpt>
      <trkpt lat="43.64072" lon="7.13831">
        <ele>4</ele>
        <time>2026-05-14T09:36:25Z</time>
      </trkpt>
      <trkpt lat="43.64066" lon="7.13827">
        <ele>4</ele>
        <time>2026-05-14T09:36:26Z</time>
      </trkpt>
      <trkpt lat="43.6406" lon="7.13825">
        <ele>4</ele>
        <time>2026-05-14T09:36:27Z</time>
      </trkpt>
      <trkpt lat="43.64055" lon="7.13822">
        <ele>4</ele>
        <time>2026-05-14T09:36:28Z</time>
      </trkpt>
      <trkpt lat="43.6405" lon="7.13819">
        <ele>4</ele>
        <time>2026-05-14T09:36:29Z</time>
      </trkpt>
      <trkpt lat="43.64045" lon="7.13816">
        <ele>4</ele>
        <time>2026-05-14T09:36:30Z</time>
      </trkpt>
      <trkpt lat="43.6404" lon="7.13814">
        <ele>4</ele>
        <time>2026-05-14T09:36:31Z</time>
      </trkpt>
      <trkpt lat="43.64036" lon="7.13812">
        <ele>4</ele>
        <time>2026-05-14T09:36:32Z</time>
      </trkpt>
      <trkpt lat="43.64031" lon="7.1381">
        <ele>4</ele>
        <time>2026-05-14T09:36:33Z</time>
      </trkpt>
      <trkpt lat="43.64026" lon="7.13806">
        <ele>4</ele>
        <time>2026-05-14T09:36:34Z</time>
      </trkpt>
      <trkpt lat="43.6402" lon="7.13802">
        <ele>4</ele>
        <time>2026-05-14T09:36:35Z</time>
      </trkpt>
      <trkpt lat="43.64014" lon="7.13797">
        <ele>4</ele>
        <time>2026-05-14T09:36:36Z</time>
      </trkpt>
      <trkpt lat="43.64008" lon="7.13792">
        <ele>4</ele>
        <time>2026-05-14T09:36:37Z</time>
      </trkpt>
      <trkpt lat="43.64001" lon="7.13788">
        <ele>4</ele>
        <time>2026-05-14T09:36:38Z</time>
      </trkpt>
      <trkpt lat="43.63993" lon="7.13785">
        <ele>4</ele>
        <time>2026-05-14T09:36:39Z</time>
      </trkpt>
      <trkpt lat="43.63986" lon="7.13783">
        <ele>4</ele>
        <time>2026-05-14T09:36:40Z</time>
      </trkpt>
      <trkpt lat="43.63981" lon="7.13784">
        <ele>4</ele>
        <time>2026-05-14T09:36:41Z</time>
      </trkpt>
      <trkpt lat="43.63977" lon="7.13784">
        <ele>4</ele>
        <time>2026-05-14T09:36:42Z</time>
      </trkpt>
      <trkpt lat="43.63974" lon="7.13785">
        <ele>4</ele>
        <time>2026-05-14T09:36:43Z</time>
      </trkpt>
      <trkpt lat="43.63973" lon="7.13785">
        <ele>4</ele>
        <time>2026-05-14T09:36:44Z</time>
      </trkpt>
      <trkpt lat="43.63971" lon="7.13786">
        <ele>4</ele>
        <time>2026-05-14T09:36:45Z</time>
      </trkpt>
      <trkpt lat="43.63969" lon="7.13786">
        <ele>4.1</ele>
        <time>2026-05-14T09:36:46Z</time>
      </trkpt>
      <trkpt lat="43.63969" lon="7.13786">
        <ele>4.1</ele>
        <time>2026-05-14T09:36:47Z</time>
      </trkpt>
      <trkpt lat="43.63969" lon="7.13787">
        <ele>4.1</ele>
        <time>2026-05-14T09:36:48Z</time>
      </trkpt>
      <trkpt lat="43.63968" lon="7.13788">
        <ele>4.1</ele>
        <time>2026-05-14T09:36:49Z</time>
      </trkpt>
      <trkpt lat="43.63966" lon="7.13792">
        <ele>4.1</ele>
        <time>2026-05-14T09:36:50Z</time>
      </trkpt>
      <trkpt lat="43.63964" lon="7.13796">
        <ele>4.1</ele>
        <time>2026-05-14T09:36:51Z</time>
      </trkpt>
      <trkpt lat="43.63962" lon="7.138">
        <ele>4.1</ele>
        <time>2026-05-14T09:36:52Z</time>
      </trkpt>
      <trkpt lat="43.6396" lon="7.13804">
        <ele>4</ele>
        <time>2026-05-14T09:36:53Z</time>
      </trkpt>
      <trkpt lat="43.63959" lon="7.13807">
        <ele>4</ele>
        <time>2026-05-14T09:36:54Z</time>
      </trkpt>
      <trkpt lat="43.63957" lon="7.1381">
        <ele>3.9</ele>
        <time>2026-05-14T09:36:55Z</time>
      </trkpt>
      <trkpt lat="43.63957" lon="7.13812">
        <ele>3.9</ele>
        <time>2026-05-14T09:36:56Z</time>
      </trkpt>
      <trkpt lat="43.63956" lon="7.13814">
        <ele>3.8</ele>
        <time>2026-05-14T09:36:57Z</time>
      </trkpt>
      <trkpt lat="43.63956" lon="7.13814">
        <ele>3.8</ele>
        <time>2026-05-14T09:36:58Z</time>
      </trkpt>
      <trkpt lat="43.63956" lon="7.13812">
        <ele>3.9</ele>
        <time>2026-05-14T09:36:59Z</time>
      </trkpt>
      <trkpt lat="43.63956" lon="7.13812">
        <ele>3.9</ele>
        <time>2026-05-14T09:37:00Z</time>
      </trkpt>
      <trkpt lat="43.63956" lon="7.13811">
        <ele>3.9</ele>
        <time>2026-05-14T09:37:01Z</time>
      </trkpt>
      <trkpt lat="43.63956" lon="7.13811">
        <ele>3.9</ele>
        <time>2026-05-14T09:37:02Z</time>
      </trkpt>
      <trkpt lat="43.63956" lon="7.13811">
        <ele>3.9</ele>
        <time>2026-05-14T09:37:03Z</time>
      </trkpt>
      <trkpt lat="43.63956" lon="7.13811">
        <ele>3.9</ele>
        <time>2026-05-14T09:37:04Z</time>
      </trkpt>
      <trkpt lat="43.63956" lon="7.13811">
        <ele>3.9</ele>
        <time>2026-05-14T09:37:05Z</time>
      </trkpt>
      <trkpt lat="43.63956" lon="7.13811">
        <ele>3.9</ele>
        <time>2026-05-14T09:37:06Z</time>
      </trkpt>
      <trkpt lat="43.63957" lon="7.13811">
        <ele>3.9</ele>
        <time>2026-05-14T09:37:07Z</time>
      </trkpt>
      <trkpt lat="43.63957" lon="7.13811">
        <ele>3.9</ele>
        <time>2026-05-14T09:37:08Z</time>
      </trkpt>
      <trkpt lat="43.63957" lon="7.13811">
        <ele>3.9</ele>
        <time>2026-05-14T09:37:09Z</time>
      </trkpt>
      <trkpt lat="43.63957" lon="7.13811">
        <ele>3.9</ele>
        <time>2026-05-14T09:37:10Z</time>
      </trkpt>
      <trkpt lat="43.63957" lon="7.13811">
        <ele>3.9</ele>
        <time>2026-05-14T09:37:11Z</time>
      </trkpt>
      <trkpt lat="43.63957" lon="7.13811">
        <ele>3.9</ele>
        <time>2026-05-14T09:37:12Z</time>
      </trkpt>
      <trkpt lat="43.63957" lon="7.13811">
        <ele>3.9</ele>
        <time>2026-05-14T09:37:13Z</time>
      </trkpt>
      <trkpt lat="43.63957" lon="7.13811">
        <ele>3.9</ele>
        <time>2026-05-14T09:37:14Z</time>
      </trkpt>
      <trkpt lat="43.63957" lon="7.13811">
        <ele>3.9</ele>
        <time>2026-05-14T09:37:15Z</time>
      </trkpt>
      <trkpt lat="43.63957" lon="7.13811">
        <ele>3.9</ele>
        <time>2026-05-14T09:37:16Z</time>
      </trkpt>
      <trkpt lat="43.63957" lon="7.13811">
        <ele>3.9</ele>
        <time>2026-05-14T09:37:17Z</time>
      </trkpt>
      <trkpt lat="43.63957" lon="7.13811">
        <ele>3.9</ele>
        <time>2026-05-14T09:37:18Z</time>
      </trkpt>
      <trkpt lat="43.63957" lon="7.13811">
        <ele>3.9</ele>
        <time>2026-05-14T09:37:19Z</time>
      </trkpt>
      <trkpt lat="43.63957" lon="7.13811">
        <ele>3.9</ele>
        <time>2026-05-14T09:37:20Z</time>
      </trkpt>
      <trkpt lat="43.63957" lon="7.13811">
        <ele>3.9</ele>
        <time>2026-05-14T09:37:21Z</time>
      </trkpt>
      <trkpt lat="43.63956" lon="7.13812">
        <ele>3.9</ele>
        <time>2026-05-14T09:37:22Z</time>
      </trkpt>
      <trkpt lat="43.63955" lon="7.13815">
        <ele>3.8</ele>
        <time>2026-05-14T09:37:23Z</time>
      </trkpt>
      <trkpt lat="43.63952" lon="7.13824">
        <ele>3.5</ele>
        <time>2026-05-14T09:37:24Z</time>
      </trkpt>
      <trkpt lat="43.63949" lon="7.13833">
        <ele>3.2</ele>
        <time>2026-05-14T09:37:25Z</time>
      </trkpt>
      <trkpt lat="43.63946" lon="7.13842">
        <ele>3</ele>
        <time>2026-05-14T09:37:26Z</time>
      </trkpt>
      <trkpt lat="43.63943" lon="7.13851">
        <ele>3</ele>
        <time>2026-05-14T09:37:27Z</time>
      </trkpt>
      <trkpt lat="43.6394" lon="7.1386">
        <ele>2.8</ele>
        <time>2026-05-14T09:37:28Z</time>
      </trkpt>
      <trkpt lat="43.63937" lon="7.13867">
        <ele>2.8</ele>
        <time>2026-05-14T09:37:29Z</time>
      </trkpt>
      <trkpt lat="43.63934" lon="7.13875">
        <ele>2.8</ele>
        <time>2026-05-14T09:37:30Z</time>
      </trkpt>
      <trkpt lat="43.63931" lon="7.13882">
        <ele>2.9</ele>
        <time>2026-05-14T09:37:31Z</time>
      </trkpt>
      <trkpt lat="43.63928" lon="7.1389">
        <ele>3</ele>
        <time>2026-05-14T09:37:32Z</time>
      </trkpt>
      <trkpt lat="43.63924" lon="7.13897">
        <ele>2.8</ele>
        <time>2026-05-14T09:37:33Z</time>
      </trkpt>
      <trkpt lat="43.63922" lon="7.13905">
        <ele>2.5</ele>
        <time>2026-05-14T09:37:34Z</time>
      </trkpt>
      <trkpt lat="43.63919" lon="7.13913">
        <ele>2.2</ele>
        <time>2026-05-14T09:37:35Z</time>
      </trkpt>
      <trkpt lat="43.63916" lon="7.13923">
        <ele>2</ele>
        <time>2026-05-14T09:37:36Z</time>
      </trkpt>
      <trkpt lat="43.63913" lon="7.13934">
        <ele>2.1</ele>
        <time>2026-05-14T09:37:37Z</time>
      </trkpt>
      <trkpt lat="43.6391" lon="7.13946">
        <ele>2.2</ele>
        <time>2026-05-14T09:37:38Z</time>
      </trkpt>
      <trkpt lat="43.63906" lon="7.13959">
        <ele>2.4</ele>
        <time>2026-05-14T09:37:39Z</time>
      </trkpt>
      <trkpt lat="43.63903" lon="7.13971">
        <ele>2.5</ele>
        <time>2026-05-14T09:37:40Z</time>
      </trkpt>
      <trkpt lat="43.639" lon="7.13982">
        <ele>2.4</ele>
        <time>2026-05-14T09:37:41Z</time>
      </trkpt>
      <trkpt lat="43.63898" lon="7.13993">
        <ele>2.2</ele>
        <time>2026-05-14T09:37:42Z</time>
      </trkpt>
      <trkpt lat="43.63895" lon="7.14002">
        <ele>2</ele>
        <time>2026-05-14T09:37:43Z</time>
      </trkpt>
      <trkpt lat="43.63893" lon="7.14008">
        <ele>2</ele>
        <time>2026-05-14T09:37:44Z</time>
      </trkpt>
      <trkpt lat="43.63892" lon="7.14014">
        <ele>2</ele>
        <time>2026-05-14T09:37:45Z</time>
      </trkpt>
      <trkpt lat="43.63888" lon="7.14017">
        <ele>2</ele>
        <time>2026-05-14T09:37:46Z</time>
      </trkpt>
      <trkpt lat="43.63884" lon="7.14019">
        <ele>2</ele>
        <time>2026-05-14T09:37:47Z</time>
      </trkpt>
      <trkpt lat="43.6388" lon="7.14019">
        <ele>2</ele>
        <time>2026-05-14T09:37:48Z</time>
      </trkpt>
      <trkpt lat="43.63873" lon="7.14016">
        <ele>2</ele>
        <time>2026-05-14T09:37:49Z</time>
      </trkpt>
      <trkpt lat="43.63865" lon="7.14012">
        <ele>2</ele>
        <time>2026-05-14T09:37:50Z</time>
      </trkpt>
      <trkpt lat="43.63857" lon="7.14007">
        <ele>2</ele>
        <time>2026-05-14T09:37:51Z</time>
      </trkpt>
      <trkpt lat="43.63849" lon="7.14004">
        <ele>2</ele>
        <time>2026-05-14T09:37:52Z</time>
      </trkpt>
      <trkpt lat="43.63841" lon="7.14">
        <ele>2</ele>
        <time>2026-05-14T09:37:53Z</time>
      </trkpt>
      <trkpt lat="43.63834" lon="7.13996">
        <ele>2</ele>
        <time>2026-05-14T09:37:54Z</time>
      </trkpt>
      <trkpt lat="43.63827" lon="7.13993">
        <ele>2.2</ele>
        <time>2026-05-14T09:37:55Z</time>
      </trkpt>
      <trkpt lat="43.6382" lon="7.13989">
        <ele>2.3</ele>
        <time>2026-05-14T09:37:56Z</time>
      </trkpt>
      <trkpt lat="43.63815" lon="7.13986">
        <ele>2.3</ele>
        <time>2026-05-14T09:37:57Z</time>
      </trkpt>
      <trkpt lat="43.6381" lon="7.13983">
        <ele>2.3</ele>
        <time>2026-05-14T09:37:58Z</time>
      </trkpt>
      <trkpt lat="43.63805" lon="7.13981">
        <ele>2.3</ele>
        <time>2026-05-14T09:37:59Z</time>
      </trkpt>
      <trkpt lat="43.63801" lon="7.13979">
        <ele>2.2</ele>
        <time>2026-05-14T09:38:00Z</time>
      </trkpt>
      <trkpt lat="43.63798" lon="7.13977">
        <ele>2.2</ele>
        <time>2026-05-14T09:38:01Z</time>
      </trkpt>
      <trkpt lat="43.63794" lon="7.13975">
        <ele>2.1</ele>
        <time>2026-05-14T09:38:02Z</time>
      </trkpt>
      <trkpt lat="43.6379" lon="7.13972">
        <ele>2</ele>
        <time>2026-05-14T09:38:03Z</time>
      </trkpt>
      <trkpt lat="43.63786" lon="7.1397">
        <ele>2</ele>
        <time>2026-05-14T09:38:04Z</time>
      </trkpt>
      <trkpt lat="43.63782" lon="7.13968">
        <ele>2</ele>
        <time>2026-05-14T09:38:05Z</time>
      </trkpt>
      <trkpt lat="43.63778" lon="7.13965">
        <ele>2</ele>
        <time>2026-05-14T09:38:06Z</time>
      </trkpt>
      <trkpt lat="43.63774" lon="7.13963">
        <ele>2.1</ele>
        <time>2026-05-14T09:38:07Z</time>
      </trkpt>
      <trkpt lat="43.63769" lon="7.13961">
        <ele>2.2</ele>
        <time>2026-05-14T09:38:08Z</time>
      </trkpt>
      <trkpt lat="43.63765" lon="7.13959">
        <ele>2.2</ele>
        <time>2026-05-14T09:38:09Z</time>
      </trkpt>
      <trkpt lat="43.63761" lon="7.13957">
        <ele>2.3</ele>
        <time>2026-05-14T09:38:10Z</time>
      </trkpt>
      <trkpt lat="43.63757" lon="7.13955">
        <ele>2.3</ele>
        <time>2026-05-14T09:38:11Z</time>
      </trkpt>
      <trkpt lat="43.63753" lon="7.13953">
        <ele>2.3</ele>
        <time>2026-05-14T09:38:12Z</time>
      </trkpt>
      <trkpt lat="43.6375" lon="7.13952">
        <ele>2.3</ele>
        <time>2026-05-14T09:38:13Z</time>
      </trkpt>
      <trkpt lat="43.63747" lon="7.1395">
        <ele>2.3</ele>
        <time>2026-05-14T09:38:14Z</time>
      </trkpt>
      <trkpt lat="43.63745" lon="7.13949">
        <ele>2.3</ele>
        <time>2026-05-14T09:38:15Z</time>
      </trkpt>
      <trkpt lat="43.63744" lon="7.13948">
        <ele>2.3</ele>
        <time>2026-05-14T09:38:16Z</time>
      </trkpt>
      <trkpt lat="43.63743" lon="7.13947">
        <ele>2.3</ele>
        <time>2026-05-14T09:38:17Z</time>
      </trkpt>
      <trkpt lat="43.63741" lon="7.13947">
        <ele>2.4</ele>
        <time>2026-05-14T09:38:18Z</time>
      </trkpt>
      <trkpt lat="43.6374" lon="7.13947">
        <ele>2.4</ele>
        <time>2026-05-14T09:38:19Z</time>
      </trkpt>
      <trkpt lat="43.63739" lon="7.13948">
        <ele>2.4</ele>
        <time>2026-05-14T09:38:20Z</time>
      </trkpt>
      <trkpt lat="43.63738" lon="7.13948">
        <ele>2.4</ele>
        <time>2026-05-14T09:38:21Z</time>
      </trkpt>
      <trkpt lat="43.63737" lon="7.13949">
        <ele>2.5</ele>
        <time>2026-05-14T09:38:22Z</time>
      </trkpt>
      <trkpt lat="43.63736" lon="7.13951">
        <ele>2.5</ele>
        <time>2026-05-14T09:38:23Z</time>
      </trkpt>
      <trkpt lat="43.63735" lon="7.13952">
        <ele>2.5</ele>
        <time>2026-05-14T09:38:24Z</time>
      </trkpt>
      <trkpt lat="43.63733" lon="7.13955">
        <ele>2.5</ele>
        <time>2026-05-14T09:38:25Z</time>
      </trkpt>
      <trkpt lat="43.63732" lon="7.13959">
        <ele>2.5</ele>
        <time>2026-05-14T09:38:26Z</time>
      </trkpt>
      <trkpt lat="43.63729" lon="7.13962">
        <ele>2.4</ele>
        <time>2026-05-14T09:38:27Z</time>
      </trkpt>
      <trkpt lat="43.63726" lon="7.13965">
        <ele>2.3</ele>
        <time>2026-05-14T09:38:28Z</time>
      </trkpt>
      <trkpt lat="43.63723" lon="7.13965">
        <ele>2.3</ele>
        <time>2026-05-14T09:38:29Z</time>
      </trkpt>
      <trkpt lat="43.6372" lon="7.13964">
        <ele>2.4</ele>
        <time>2026-05-14T09:38:30Z</time>
      </trkpt>
      <trkpt lat="43.63718" lon="7.13962">
        <ele>2.5</ele>
        <time>2026-05-14T09:38:31Z</time>
      </trkpt>
      <trkpt lat="43.63715" lon="7.1396">
        <ele>2.6</ele>
        <time>2026-05-14T09:38:32Z</time>
      </trkpt>
      <trkpt lat="43.63713" lon="7.13958">
        <ele>2.7</ele>
        <time>2026-05-14T09:38:33Z</time>
      </trkpt>
      <trkpt lat="43.63711" lon="7.13955">
        <ele>2.8</ele>
        <time>2026-05-14T09:38:34Z</time>
      </trkpt>
      <trkpt lat="43.63709" lon="7.13953">
        <ele>2.8</ele>
        <time>2026-05-14T09:38:35Z</time>
      </trkpt>
      <trkpt lat="43.63707" lon="7.13952">
        <ele>2.9</ele>
        <time>2026-05-14T09:38:36Z</time>
      </trkpt>
      <trkpt lat="43.63705" lon="7.1395">
        <ele>2.9</ele>
        <time>2026-05-14T09:38:37Z</time>
      </trkpt>
      <trkpt lat="43.63705" lon="7.1395">
        <ele>2.9</ele>
        <time>2026-05-14T09:38:38Z</time>
      </trkpt>
      <trkpt lat="43.63705" lon="7.13949">
        <ele>2.9</ele>
        <time>2026-05-14T09:38:39Z</time>
      </trkpt>
      <trkpt lat="43.63705" lon="7.1395">
        <ele>2.9</ele>
        <time>2026-05-14T09:38:40Z</time>
      </trkpt>
      <trkpt lat="43.63705" lon="7.13949">
        <ele>2.9</ele>
        <time>2026-05-14T09:38:41Z</time>
      </trkpt>
      <trkpt lat="43.63705" lon="7.13949">
        <ele>2.9</ele>
        <time>2026-05-14T09:38:42Z</time>
      </trkpt>
      <trkpt lat="43.63705" lon="7.13949">
        <ele>2.9</ele>
        <time>2026-05-14T09:38:43Z</time>
      </trkpt>
      <trkpt lat="43.63705" lon="7.1395">
        <ele>2.9</ele>
        <time>2026-05-14T09:38:44Z</time>
      </trkpt>
      <trkpt lat="43.63706" lon="7.1395">
        <ele>2.9</ele>
        <time>2026-05-14T09:38:45Z</time>
      </trkpt>
      <trkpt lat="43.63706" lon="7.1395">
        <ele>2.9</ele>
        <time>2026-05-14T09:38:46Z</time>
      </trkpt>
      <trkpt lat="43.63706" lon="7.1395">
        <ele>2.9</ele>
        <time>2026-05-14T09:38:47Z</time>
      </trkpt>
      <trkpt lat="43.63705" lon="7.1395">
        <ele>2.9</ele>
        <time>2026-05-14T09:38:48Z</time>
      </trkpt>
      <trkpt lat="43.63704" lon="7.13949">
        <ele>2.9</ele>
        <time>2026-05-14T09:38:49Z</time>
      </trkpt>
      <trkpt lat="43.63703" lon="7.13949">
        <ele>2.9</ele>
        <time>2026-05-14T09:38:50Z</time>
      </trkpt>
      <trkpt lat="43.63702" lon="7.13949">
        <ele>3</ele>
        <time>2026-05-14T09:38:51Z</time>
      </trkpt>
      <trkpt lat="43.63702" lon="7.13949">
        <ele>3</ele>
        <time>2026-05-14T09:38:52Z</time>
      </trkpt>
      <trkpt lat="43.63702" lon="7.13949">
        <ele>3</ele>
        <time>2026-05-14T09:38:53Z</time>
      </trkpt>
      <trkpt lat="43.63702" lon="7.13949">
        <ele>3</ele>
        <time>2026-05-14T09:38:54Z</time>
      </trkpt>
      <trkpt lat="43.63702" lon="7.13949">
        <ele>3</ele>
        <time>2026-05-14T09:38:55Z</time>
      </trkpt>
      <trkpt lat="43.63702" lon="7.13949">
        <ele>3</ele>
        <time>2026-05-14T09:38:56Z</time>
      </trkpt>
      <trkpt lat="43.63702" lon="7.13949">
        <ele>3</ele>
        <time>2026-05-14T09:38:57Z</time>
      </trkpt>
      <trkpt lat="43.63702" lon="7.13949">
        <ele>3</ele>
        <time>2026-05-14T09:38:58Z</time>
      </trkpt>
      <trkpt lat="43.63702" lon="7.13949">
        <ele>3</ele>
        <time>2026-05-14T09:38:59Z</time>
      </trkpt>
      <trkpt lat="43.63701" lon="7.13949">
        <ele>3</ele>
        <time>2026-05-14T09:39:00Z</time>
      </trkpt>
      <trkpt lat="43.637" lon="7.13949">
        <ele>3</ele>
        <time>2026-05-14T09:39:01Z</time>
      </trkpt>
      <trkpt lat="43.63699" lon="7.13949">
        <ele>3</ele>
        <time>2026-05-14T09:39:02Z</time>
      </trkpt>
      <trkpt lat="43.63698" lon="7.13949">
        <ele>3</ele>
        <time>2026-05-14T09:39:03Z</time>
      </trkpt>
      <trkpt lat="43.63697" lon="7.1395">
        <ele>3</ele>
        <time>2026-05-14T09:39:04Z</time>
      </trkpt>
      <trkpt lat="43.63697" lon="7.13951">
        <ele>3</ele>
        <time>2026-05-14T09:39:05Z</time>
      </trkpt>
      <trkpt lat="43.63697" lon="7.13952">
        <ele>3</ele>
        <time>2026-05-14T09:39:06Z</time>
      </trkpt>
      <trkpt lat="43.63697" lon="7.13951">
        <ele>3</ele>
        <time>2026-05-14T09:39:07Z</time>
      </trkpt>
      <trkpt lat="43.63698" lon="7.13951">
        <ele>3</ele>
        <time>2026-05-14T09:39:08Z</time>
      </trkpt>
      <trkpt lat="43.63698" lon="7.1395">
        <ele>3</ele>
        <time>2026-05-14T09:39:09Z</time>
      </trkpt>
      <trkpt lat="43.63698" lon="7.1395">
        <ele>3</ele>
        <time>2026-05-14T09:39:10Z</time>
      </trkpt>
      <trkpt lat="43.63698" lon="7.13949">
        <ele>3</ele>
        <time>2026-05-14T09:39:11Z</time>
      </trkpt>
      <trkpt lat="43.63698" lon="7.13948">
        <ele>3</ele>
        <time>2026-05-14T09:39:12Z</time>
      </trkpt>
      <trkpt lat="43.63699" lon="7.13947">
        <ele>3</ele>
        <time>2026-05-14T09:39:13Z</time>
      </trkpt>
      <trkpt lat="43.63699" lon="7.13947">
        <ele>3</ele>
        <time>2026-05-14T09:39:14Z</time>
      </trkpt>
      <trkpt lat="43.63699" lon="7.13946">
        <ele>3</ele>
        <time>2026-05-14T09:39:15Z</time>
      </trkpt>
      <trkpt lat="43.63699" lon="7.13946">
        <ele>3</ele>
        <time>2026-05-14T09:39:16Z</time>
      </trkpt>
      <trkpt lat="43.63699" lon="7.13945">
        <ele>3</ele>
        <time>2026-05-14T09:39:17Z</time>
      </trkpt>
      <trkpt lat="43.63699" lon="7.13945">
        <ele>3</ele>
        <time>2026-05-14T09:39:18Z</time>
      </trkpt>
      <trkpt lat="43.63699" lon="7.13944">
        <ele>3</ele>
        <time>2026-05-14T09:39:19Z</time>
      </trkpt>
      <trkpt lat="43.637" lon="7.13944">
        <ele>3</ele>
        <time>2026-05-14T09:39:20Z</time>
      </trkpt>
      <trkpt lat="43.637" lon="7.13943">
        <ele>2.9</ele>
        <time>2026-05-14T09:39:21Z</time>
      </trkpt>
      <trkpt lat="43.637" lon="7.13943">
        <ele>2.9</ele>
        <time>2026-05-14T09:39:22Z</time>
      </trkpt>
      <trkpt lat="43.637" lon="7.13943">
        <ele>2.9</ele>
        <time>2026-05-14T09:39:23Z</time>
      </trkpt>
      <trkpt lat="43.637" lon="7.13942">
        <ele>2.9</ele>
        <time>2026-05-14T09:39:24Z</time>
      </trkpt>
      <trkpt lat="43.637" lon="7.13942">
        <ele>2.9</ele>
        <time>2026-05-14T09:39:25Z</time>
      </trkpt>
      <trkpt lat="43.637" lon="7.13941">
        <ele>2.9</ele>
        <time>2026-05-14T09:39:26Z</time>
      </trkpt>
      <trkpt lat="43.63701" lon="7.13941">
        <ele>2.9</ele>
        <time>2026-05-14T09:39:27Z</time>
      </trkpt>
      <trkpt lat="43.63701" lon="7.13941">
        <ele>2.9</ele>
        <time>2026-05-14T09:39:28Z</time>
      </trkpt>
      <trkpt lat="43.63701" lon="7.13941">
        <ele>2.9</ele>
        <time>2026-05-14T09:39:29Z</time>
      </trkpt>
      <trkpt lat="43.63701" lon="7.13941">
        <ele>2.9</ele>
        <time>2026-05-14T09:39:30Z</time>
      </trkpt>
      <trkpt lat="43.63701" lon="7.13941">
        <ele>2.9</ele>
        <time>2026-05-14T09:39:31Z</time>
      </trkpt>
      <trkpt lat="43.63701" lon="7.13941">
        <ele>2.9</ele>
        <time>2026-05-14T09:39:32Z</time>
      </trkpt>
      <trkpt lat="43.63701" lon="7.13941">
        <ele>2.9</ele>
        <time>2026-05-14T09:39:33Z</time>
      </trkpt>
      <trkpt lat="43.63701" lon="7.13941">
        <ele>2.9</ele>
        <time>2026-05-14T09:39:34Z</time>
      </trkpt>
      <trkpt lat="43.63701" lon="7.13941">
        <ele>2.9</ele>
        <time>2026-05-14T09:39:35Z</time>
      </trkpt>
      <trkpt lat="43.63701" lon="7.13941">
        <ele>2.9</ele>
        <time>2026-05-14T09:39:36Z</time>
      </trkpt>
      <trkpt lat="43.63701" lon="7.13941">
        <ele>2.9</ele>
        <time>2026-05-14T09:39:37Z</time>
      </trkpt>
      <trkpt lat="43.63701" lon="7.13941">
        <ele>2.9</ele>
        <time>2026-05-14T09:39:38Z</time>
      </trkpt>
      <trkpt lat="43.63701" lon="7.13941">
        <ele>2.9</ele>
        <time>2026-05-14T09:39:39Z</time>
      </trkpt>
      <trkpt lat="43.63701" lon="7.13941">
        <ele>2.9</ele>
        <time>2026-05-14T09:39:40Z</time>
      </trkpt>
      <trkpt lat="43.63701" lon="7.13941">
        <ele>2.9</ele>
        <time>2026-05-14T09:39:41Z</time>
      </trkpt>
      <trkpt lat="43.63701" lon="7.13941">
        <ele>2.9</ele>
        <time>2026-05-14T09:39:42Z</time>
      </trkpt>
      <trkpt lat="43.63701" lon="7.13941">
        <ele>2.9</ele>
        <time>2026-05-14T09:39:43Z</time>
      </trkpt>
      <trkpt lat="43.637" lon="7.13944">
        <ele>3</ele>
        <time>2026-05-14T09:39:44Z</time>
      </trkpt>
      <trkpt lat="43.63699" lon="7.13947">
        <ele>3</ele>
        <time>2026-05-14T09:39:45Z</time>
      </trkpt>
      <trkpt lat="43.63697" lon="7.13952">
        <ele>3</ele>
        <time>2026-05-14T09:39:46Z</time>
      </trkpt>
      <trkpt lat="43.63696" lon="7.13957">
        <ele>3</ele>
        <time>2026-05-14T09:39:47Z</time>
      </trkpt>
      <trkpt lat="43.63696" lon="7.13961">
        <ele>3</ele>
        <time>2026-05-14T09:39:48Z</time>
      </trkpt>
      <trkpt lat="43.63696" lon="7.13964">
        <ele>3</ele>
        <time>2026-05-14T09:39:49Z</time>
      </trkpt>
      <trkpt lat="43.63697" lon="7.13967">
        <ele>2.9</ele>
        <time>2026-05-14T09:39:50Z</time>
      </trkpt>
      <trkpt lat="43.63699" lon="7.13969">
        <ele>2.9</ele>
        <time>2026-05-14T09:39:51Z</time>
      </trkpt>
      <trkpt lat="43.63701" lon="7.13971">
        <ele>2.8</ele>
        <time>2026-05-14T09:39:52Z</time>
      </trkpt>
      <trkpt lat="43.63703" lon="7.13972">
        <ele>2.7</ele>
        <time>2026-05-14T09:39:53Z</time>
      </trkpt>
      <trkpt lat="43.63705" lon="7.13973">
        <ele>2.6</ele>
        <time>2026-05-14T09:39:54Z</time>
      </trkpt>
      <trkpt lat="43.63707" lon="7.13973">
        <ele>2.6</ele>
        <time>2026-05-14T09:39:55Z</time>
      </trkpt>
      <trkpt lat="43.63708" lon="7.13974">
        <ele>2.5</ele>
        <time>2026-05-14T09:39:56Z</time>
      </trkpt>
      <trkpt lat="43.6371" lon="7.13974">
        <ele>2.5</ele>
        <time>2026-05-14T09:39:57Z</time>
      </trkpt>
      <trkpt lat="43.63712" lon="7.13975">
        <ele>2.4</ele>
        <time>2026-05-14T09:39:58Z</time>
      </trkpt>
      <trkpt lat="43.63714" lon="7.13976">
        <ele>2.4</ele>
        <time>2026-05-14T09:39:59Z</time>
      </trkpt>
      <trkpt lat="43.63716" lon="7.13978">
        <ele>2.4</ele>
        <time>2026-05-14T09:40:00Z</time>
      </trkpt>
      <trkpt lat="43.63718" lon="7.1398">
        <ele>2.4</ele>
        <time>2026-05-14T09:40:01Z</time>
      </trkpt>
      <trkpt lat="43.63719" lon="7.13981">
        <ele>2.4</ele>
        <time>2026-05-14T09:40:02Z</time>
      </trkpt>
      <trkpt lat="43.63721" lon="7.13982">
        <ele>2.4</ele>
        <time>2026-05-14T09:40:03Z</time>
      </trkpt>
      <trkpt lat="43.63722" lon="7.13983">
        <ele>2.4</ele>
        <time>2026-05-14T09:40:04Z</time>
      </trkpt>
      <trkpt lat="43.63724" lon="7.13982">
        <ele>2.4</ele>
        <time>2026-05-14T09:40:05Z</time>
      </trkpt>
      <trkpt lat="43.63726" lon="7.1398">
        <ele>2.4</ele>
        <time>2026-05-14T09:40:06Z</time>
      </trkpt>
      <trkpt lat="43.63728" lon="7.13976">
        <ele>2.3</ele>
        <time>2026-05-14T09:40:07Z</time>
      </trkpt>
      <trkpt lat="43.63729" lon="7.1397">
        <ele>2.3</ele>
        <time>2026-05-14T09:40:08Z</time>
      </trkpt>
      <trkpt lat="43.6373" lon="7.13965">
        <ele>2.4</ele>
        <time>2026-05-14T09:40:09Z</time>
      </trkpt>
      <trkpt lat="43.63732" lon="7.13961">
        <ele>2.5</ele>
        <time>2026-05-14T09:40:10Z</time>
      </trkpt>
      <trkpt lat="43.63734" lon="7.13959">
        <ele>2.5</ele>
        <time>2026-05-14T09:40:11Z</time>
      </trkpt>
      <trkpt lat="43.63737" lon="7.13958">
        <ele>2.5</ele>
        <time>2026-05-14T09:40:12Z</time>
      </trkpt>
      <trkpt lat="43.6374" lon="7.13959">
        <ele>2.5</ele>
        <time>2026-05-14T09:40:13Z</time>
      </trkpt>
      <trkpt lat="43.63744" lon="7.13961">
        <ele>2.6</ele>
        <time>2026-05-14T09:40:14Z</time>
      </trkpt>
      <trkpt lat="43.63747" lon="7.13963">
        <ele>2.6</ele>
        <time>2026-05-14T09:40:15Z</time>
      </trkpt>
      <trkpt lat="43.63749" lon="7.13965">
        <ele>2.7</ele>
        <time>2026-05-14T09:40:16Z</time>
      </trkpt>
      <trkpt lat="43.6375" lon="7.13967">
        <ele>2.8</ele>
        <time>2026-05-14T09:40:17Z</time>
      </trkpt>
      <trkpt lat="43.63752" lon="7.13969">
        <ele>2.8</ele>
        <time>2026-05-14T09:40:18Z</time>
      </trkpt>
      <trkpt lat="43.63752" lon="7.13969">
        <ele>2.8</ele>
        <time>2026-05-14T09:40:19Z</time>
      </trkpt>
      <trkpt lat="43.63752" lon="7.1397">
        <ele>2.9</ele>
        <time>2026-05-14T09:40:20Z</time>
      </trkpt>
      <trkpt lat="43.63752" lon="7.1397">
        <ele>2.9</ele>
        <time>2026-05-14T09:40:21Z</time>
      </trkpt>
      <trkpt lat="43.63752" lon="7.1397">
        <ele>2.9</ele>
        <time>2026-05-14T09:40:22Z</time>
      </trkpt>
      <trkpt lat="43.63752" lon="7.1397">
        <ele>2.9</ele>
        <time>2026-05-14T09:40:23Z</time>
      </trkpt>
      <trkpt lat="43.63752" lon="7.1397">
        <ele>2.9</ele>
        <time>2026-05-14T09:40:24Z</time>
      </trkpt>
      <trkpt lat="43.63752" lon="7.13971">
        <ele>2.9</ele>
        <time>2026-05-14T09:40:25Z</time>
      </trkpt>
      <trkpt lat="43.63753" lon="7.13971">
        <ele>2.9</ele>
        <time>2026-05-14T09:40:26Z</time>
      </trkpt>
      <trkpt lat="43.63753" lon="7.13971">
        <ele>2.9</ele>
        <time>2026-05-14T09:40:27Z</time>
      </trkpt>
      <trkpt lat="43.63753" lon="7.13972">
        <ele>2.9</ele>
        <time>2026-05-14T09:40:28Z</time>
      </trkpt>
      <trkpt lat="43.63754" lon="7.13974">
        <ele>2.9</ele>
        <time>2026-05-14T09:40:29Z</time>
      </trkpt>
      <trkpt lat="43.63754" lon="7.13977">
        <ele>2.9</ele>
        <time>2026-05-14T09:40:30Z</time>
      </trkpt>
      <trkpt lat="43.63754" lon="7.13983">
        <ele>2.9</ele>
        <time>2026-05-14T09:40:31Z</time>
      </trkpt>
      <trkpt lat="43.6375" lon="7.1399">
        <ele>3</ele>
        <time>2026-05-14T09:40:32Z</time>
      </trkpt>
      <trkpt lat="43.63748" lon="7.13997">
        <ele>3</ele>
        <time>2026-05-14T09:40:33Z</time>
      </trkpt>
      <trkpt lat="43.63746" lon="7.14003">
        <ele>3</ele>
        <time>2026-05-14T09:40:34Z</time>
      </trkpt>
      <trkpt lat="43.63744" lon="7.14008">
        <ele>3</ele>
        <time>2026-05-14T09:40:35Z</time>
      </trkpt>
      <trkpt lat="43.63743" lon="7.14012">
        <ele>3</ele>
        <time>2026-05-14T09:40:36Z</time>
      </trkpt>
      <trkpt lat="43.63742" lon="7.14017">
        <ele>3</ele>
        <time>2026-05-14T09:40:37Z</time>
      </trkpt>
      <trkpt lat="43.6374" lon="7.1402">
        <ele>3</ele>
        <time>2026-05-14T09:40:38Z</time>
      </trkpt>
      <trkpt lat="43.63738" lon="7.14023">
        <ele>3</ele>
        <time>2026-05-14T09:40:39Z</time>
      </trkpt>
      <trkpt lat="43.63737" lon="7.14024">
        <ele>3</ele>
        <time>2026-05-14T09:40:40Z</time>
      </trkpt>
      <trkpt lat="43.63735" lon="7.14023">
        <ele>3</ele>
        <time>2026-05-14T09:40:41Z</time>
      </trkpt>
      <trkpt lat="43.63733" lon="7.14021">
        <ele>3</ele>
        <time>2026-05-14T09:40:42Z</time>
      </trkpt>
      <trkpt lat="43.63733" lon="7.1402">
        <ele>3</ele>
        <time>2026-05-14T09:40:43Z</time>
      </trkpt>
      <trkpt lat="43.63733" lon="7.14021">
        <ele>3</ele>
        <time>2026-05-14T09:40:44Z</time>
      </trkpt>
      <trkpt lat="43.63733" lon="7.14021">
        <ele>3</ele>
        <time>2026-05-14T09:40:45Z</time>
      </trkpt>
      <trkpt lat="43.63734" lon="7.14021">
        <ele>3</ele>
        <time>2026-05-14T09:40:46Z</time>
      </trkpt>
      <trkpt lat="43.63734" lon="7.14021">
        <ele>3</ele>
        <time>2026-05-14T09:40:47Z</time>
      </trkpt>
      <trkpt lat="43.63734" lon="7.14022">
        <ele>3</ele>
        <time>2026-05-14T09:40:48Z</time>
      </trkpt>
      <trkpt lat="43.63734" lon="7.14022">
        <ele>3</ele>
        <time>2026-05-14T09:40:49Z</time>
      </trkpt>
      <trkpt lat="43.63735" lon="7.14022">
        <ele>3</ele>
        <time>2026-05-14T09:40:50Z</time>
      </trkpt>
      <trkpt lat="43.63735" lon="7.14023">
        <ele>3</ele>
        <time>2026-05-14T09:40:51Z</time>
      </trkpt>
      <trkpt lat="43.63735" lon="7.14024">
        <ele>3</ele>
        <time>2026-05-14T09:40:52Z</time>
      </trkpt>
      <trkpt lat="43.63735" lon="7.14024">
        <ele>3</ele>
        <time>2026-05-14T09:40:53Z</time>
      </trkpt>
      <trkpt lat="43.63736" lon="7.14025">
        <ele>3</ele>
        <time>2026-05-14T09:40:54Z</time>
      </trkpt>
      <trkpt lat="43.63736" lon="7.14025">
        <ele>3</ele>
        <time>2026-05-14T09:40:55Z</time>
      </trkpt>
      <trkpt lat="43.63736" lon="7.14025">
        <ele>3</ele>
        <time>2026-05-14T09:40:56Z</time>
      </trkpt>
      <trkpt lat="43.63735" lon="7.14026">
        <ele>3</ele>
        <time>2026-05-14T09:40:57Z</time>
      </trkpt>
      <trkpt lat="43.63735" lon="7.14026">
        <ele>3</ele>
        <time>2026-05-14T09:40:58Z</time>
      </trkpt>
      <trkpt lat="43.63735" lon="7.14026">
        <ele>3</ele>
        <time>2026-05-14T09:40:59Z</time>
      </trkpt>
      <trkpt lat="43.63735" lon="7.14027">
        <ele>3</ele>
        <time>2026-05-14T09:41:00Z</time>
      </trkpt>
      <trkpt lat="43.63735" lon="7.14027">
        <ele>3</ele>
        <time>2026-05-14T09:41:01Z</time>
      </trkpt>
      <trkpt lat="43.63735" lon="7.14027">
        <ele>3</ele>
        <time>2026-05-14T09:41:02Z</time>
      </trkpt>
      <trkpt lat="43.63735" lon="7.14027">
        <ele>3</ele>
        <time>2026-05-14T09:41:03Z</time>
      </trkpt>
      <trkpt lat="43.63735" lon="7.14027">
        <ele>3</ele>
        <time>2026-05-14T09:41:04Z</time>
      </trkpt>
      <trkpt lat="43.63735" lon="7.14027">
        <ele>3</ele>
        <time>2026-05-14T09:41:05Z</time>
      </trkpt>
      <trkpt lat="43.63735" lon="7.14027">
        <ele>3</ele>
        <time>2026-05-14T09:41:06Z</time>
      </trkpt>
      <trkpt lat="43.63735" lon="7.14027">
        <ele>3</ele>
        <time>2026-05-14T09:41:07Z</time>
      </trkpt>
      <trkpt lat="43.63735" lon="7.14028">
        <ele>3</ele>
        <time>2026-05-14T09:41:08Z</time>
      </trkpt>
      <trkpt lat="43.63735" lon="7.14028">
        <ele>3</ele>
        <time>2026-05-14T09:41:09Z</time>
      </trkpt>
      <trkpt lat="43.63735" lon="7.14028">
        <ele>3</ele>
        <time>2026-05-14T09:41:10Z</time>
      </trkpt>
      <trkpt lat="43.63736" lon="7.14028">
        <ele>3</ele>
        <time>2026-05-14T09:41:11Z</time>
      </trkpt>
      <trkpt lat="43.63735" lon="7.14028">
        <ele>3</ele>
        <time>2026-05-14T09:41:12Z</time>
      </trkpt>
      <trkpt lat="43.63735" lon="7.14028">
        <ele>3</ele>
        <time>2026-05-14T09:41:13Z</time>
      </trkpt>
      <trkpt lat="43.63735" lon="7.14028">
        <ele>3</ele>
        <time>2026-05-14T09:41:14Z</time>
      </trkpt>
      <trkpt lat="43.63735" lon="7.14028">
        <ele>3</ele>
        <time>2026-05-14T09:41:15Z</time>
      </trkpt>
      <trkpt lat="43.63736" lon="7.14028">
        <ele>3</ele>
        <time>2026-05-14T09:41:16Z</time>
      </trkpt>
      <trkpt lat="43.63736" lon="7.14028">
        <ele>3</ele>
        <time>2026-05-14T09:41:17Z</time>
      </trkpt>
      <trkpt lat="43.63736" lon="7.14028">
        <ele>3</ele>
        <time>2026-05-14T09:41:18Z</time>
      </trkpt>
      <trkpt lat="43.63736" lon="7.14029">
        <ele>3</ele>
        <time>2026-05-14T09:41:19Z</time>
      </trkpt>
      <trkpt lat="43.63736" lon="7.14029">
        <ele>3</ele>
        <time>2026-05-14T09:41:20Z</time>
      </trkpt>
      <trkpt lat="43.63736" lon="7.14029">
        <ele>3</ele>
        <time>2026-05-14T09:41:21Z</time>
      </trkpt>
      <trkpt lat="43.63736" lon="7.14029">
        <ele>3</ele>
        <time>2026-05-14T09:41:22Z</time>
      </trkpt>
      <trkpt lat="43.63736" lon="7.14029">
        <ele>3</ele>
        <time>2026-05-14T09:41:23Z</time>
      </trkpt>
      <trkpt lat="43.63736" lon="7.14029">
        <ele>3</ele>
        <time>2026-05-14T09:41:24Z</time>
      </trkpt>
      <trkpt lat="43.63736" lon="7.14029">
        <ele>3</ele>
        <time>2026-05-14T09:41:25Z</time>
      </trkpt>
      <trkpt lat="43.63736" lon="7.14029">
        <ele>3</ele>
        <time>2026-05-14T09:41:26Z</time>
      </trkpt>
      <trkpt lat="43.63735" lon="7.14024">
        <ele>3</ele>
        <time>2026-05-14T12:25:02Z</time>
      </trkpt>
      <trkpt lat="43.63737" lon="7.14019">
        <ele>3</ele>
        <time>2026-05-14T12:25:03Z</time>
      </trkpt>
      <trkpt lat="43.63739" lon="7.14018">
        <ele>3</ele>
        <time>2026-05-14T12:25:04Z</time>
      </trkpt>
      <trkpt lat="43.63742" lon="7.14016">
        <ele>3</ele>
        <time>2026-05-14T12:25:05Z</time>
      </trkpt>
      <trkpt lat="43.63745" lon="7.14012">
        <ele>3</ele>
        <time>2026-05-14T12:25:06Z</time>
      </trkpt>
      <trkpt lat="43.63747" lon="7.14008">
        <ele>3</ele>
        <time>2026-05-14T12:25:07Z</time>
      </trkpt>
      <trkpt lat="43.63749" lon="7.14003">
        <ele>3</ele>
        <time>2026-05-14T12:25:08Z</time>
      </trkpt>
      <trkpt lat="43.6375" lon="7.13998">
        <ele>3</ele>
        <time>2026-05-14T12:25:09Z</time>
      </trkpt>
      <trkpt lat="43.63752" lon="7.13993">
        <ele>3</ele>
        <time>2026-05-14T12:25:10Z</time>
      </trkpt>
      <trkpt lat="43.63753" lon="7.13988">
        <ele>3</ele>
        <time>2026-05-14T12:25:11Z</time>
      </trkpt>
      <trkpt lat="43.63754" lon="7.13984">
        <ele>2.9</ele>
        <time>2026-05-14T12:25:12Z</time>
      </trkpt>
      <trkpt lat="43.63755" lon="7.13979">
        <ele>2.9</ele>
        <time>2026-05-14T12:25:13Z</time>
      </trkpt>
      <trkpt lat="43.63757" lon="7.13974">
        <ele>2.8</ele>
        <time>2026-05-14T12:25:14Z</time>
      </trkpt>
      <trkpt lat="43.63759" lon="7.1397">
        <ele>2.6</ele>
        <time>2026-05-14T12:25:15Z</time>
      </trkpt>
      <trkpt lat="43.63761" lon="7.13967">
        <ele>2.5</ele>
        <time>2026-05-14T12:25:16Z</time>
      </trkpt>
      <trkpt lat="43.63764" lon="7.13966">
        <ele>2.4</ele>
        <time>2026-05-14T12:25:17Z</time>
      </trkpt>
      <trkpt lat="43.63768" lon="7.13967">
        <ele>2.3</ele>
        <time>2026-05-14T12:25:18Z</time>
      </trkpt>
      <trkpt lat="43.63771" lon="7.13968">
        <ele>2.2</ele>
        <time>2026-05-14T12:25:19Z</time>
      </trkpt>
      <trkpt lat="43.63774" lon="7.1397">
        <ele>2.1</ele>
        <time>2026-05-14T12:25:20Z</time>
      </trkpt>
      <trkpt lat="43.63777" lon="7.13973">
        <ele>2.1</ele>
        <time>2026-05-14T12:25:21Z</time>
      </trkpt>
      <trkpt lat="43.63779" lon="7.13974">
        <ele>2.1</ele>
        <time>2026-05-14T12:25:22Z</time>
      </trkpt>
      <trkpt lat="43.6378" lon="7.13975">
        <ele>2.1</ele>
        <time>2026-05-14T12:25:23Z</time>
      </trkpt>
      <trkpt lat="43.63782" lon="7.13974">
        <ele>2.1</ele>
        <time>2026-05-14T12:25:24Z</time>
      </trkpt>
      <trkpt lat="43.63783" lon="7.13972">
        <ele>2</ele>
        <time>2026-05-14T12:25:25Z</time>
      </trkpt>
      <trkpt lat="43.63784" lon="7.1397">
        <ele>2</ele>
        <time>2026-05-14T12:25:26Z</time>
      </trkpt>
      <trkpt lat="43.63784" lon="7.13968">
        <ele>2</ele>
        <time>2026-05-14T12:25:27Z</time>
      </trkpt>
      <trkpt lat="43.63783" lon="7.13967">
        <ele>2</ele>
        <time>2026-05-14T12:25:28Z</time>
      </trkpt>
      <trkpt lat="43.63782" lon="7.13967">
        <ele>2</ele>
        <time>2026-05-14T12:25:29Z</time>
      </trkpt>
      <trkpt lat="43.63782" lon="7.13967">
        <ele>2</ele>
        <time>2026-05-14T12:25:30Z</time>
      </trkpt>
      <trkpt lat="43.63782" lon="7.13968">
        <ele>2</ele>
        <time>2026-05-14T12:25:31Z</time>
      </trkpt>
      <trkpt lat="43.63782" lon="7.13968">
        <ele>2</ele>
        <time>2026-05-14T12:25:32Z</time>
      </trkpt>
      <trkpt lat="43.63782" lon="7.13968">
        <ele>2</ele>
        <time>2026-05-14T12:25:33Z</time>
      </trkpt>
      <trkpt lat="43.63782" lon="7.13968">
        <ele>2</ele>
        <time>2026-05-14T12:25:34Z</time>
      </trkpt>
      <trkpt lat="43.63782" lon="7.13968">
        <ele>2</ele>
        <time>2026-05-14T12:25:35Z</time>
      </trkpt>
      <trkpt lat="43.63782" lon="7.13968">
        <ele>2</ele>
        <time>2026-05-14T12:25:36Z</time>
      </trkpt>
      <trkpt lat="43.63782" lon="7.13969">
        <ele>2</ele>
        <time>2026-05-14T12:25:37Z</time>
      </trkpt>
      <trkpt lat="43.63782" lon="7.13969">
        <ele>2</ele>
        <time>2026-05-14T12:25:38Z</time>
      </trkpt>
      <trkpt lat="43.63782" lon="7.13969">
        <ele>2</ele>
        <time>2026-05-14T12:25:39Z</time>
      </trkpt>
      <trkpt lat="43.63782" lon="7.1397">
        <ele>2</ele>
        <time>2026-05-14T12:25:40Z</time>
      </trkpt>
      <trkpt lat="43.63782" lon="7.1397">
        <ele>2</ele>
        <time>2026-05-14T12:25:41Z</time>
      </trkpt>
      <trkpt lat="43.63782" lon="7.1397">
        <ele>2</ele>
        <time>2026-05-14T12:25:42Z</time>
      </trkpt>
      <trkpt lat="43.63782" lon="7.13969">
        <ele>2</ele>
        <time>2026-05-14T12:25:43Z</time>
      </trkpt>
      <trkpt lat="43.63782" lon="7.13968">
        <ele>2</ele>
        <time>2026-05-14T12:25:44Z</time>
      </trkpt>
      <trkpt lat="43.63783" lon="7.13966">
        <ele>2</ele>
        <time>2026-05-14T12:25:45Z</time>
      </trkpt>
      <trkpt lat="43.63783" lon="7.13963">
        <ele>2</ele>
        <time>2026-05-14T12:25:46Z</time>
      </trkpt>
      <trkpt lat="43.63785" lon="7.13959">
        <ele>2</ele>
        <time>2026-05-14T12:25:47Z</time>
      </trkpt>
      <trkpt lat="43.63787" lon="7.13953">
        <ele>2</ele>
        <time>2026-05-14T12:25:48Z</time>
      </trkpt>
      <trkpt lat="43.63789" lon="7.13945">
        <ele>2</ele>
        <time>2026-05-14T12:25:49Z</time>
      </trkpt>
      <trkpt lat="43.63792" lon="7.13937">
        <ele>2</ele>
        <time>2026-05-14T12:25:50Z</time>
      </trkpt>
      <trkpt lat="43.63794" lon="7.13928">
        <ele>2</ele>
        <time>2026-05-14T12:25:51Z</time>
      </trkpt>
      <trkpt lat="43.63797" lon="7.1392">
        <ele>2</ele>
        <time>2026-05-14T12:25:52Z</time>
      </trkpt>
      <trkpt lat="43.638" lon="7.13913">
        <ele>2</ele>
        <time>2026-05-14T12:25:53Z</time>
      </trkpt>
      <trkpt lat="43.63802" lon="7.13905">
        <ele>2</ele>
        <time>2026-05-14T12:25:54Z</time>
      </trkpt>
      <trkpt lat="43.63805" lon="7.13896">
        <ele>2</ele>
        <time>2026-05-14T12:25:55Z</time>
      </trkpt>
      <trkpt lat="43.63807" lon="7.13888">
        <ele>2</ele>
        <time>2026-05-14T12:25:56Z</time>
      </trkpt>
      <trkpt lat="43.63809" lon="7.13881">
        <ele>2</ele>
        <time>2026-05-14T12:25:57Z</time>
      </trkpt>
      <trkpt lat="43.63811" lon="7.13874">
        <ele>2</ele>
        <time>2026-05-14T12:25:58Z</time>
      </trkpt>
      <trkpt lat="43.63813" lon="7.1387">
        <ele>2</ele>
        <time>2026-05-14T12:25:59Z</time>
      </trkpt>
      <trkpt lat="43.63815" lon="7.13864">
        <ele>2</ele>
        <time>2026-05-14T12:26:00Z</time>
      </trkpt>
      <trkpt lat="43.63816" lon="7.13859">
        <ele>2</ele>
        <time>2026-05-14T12:26:01Z</time>
      </trkpt>
      <trkpt lat="43.63817" lon="7.13855">
        <ele>2.1</ele>
        <time>2026-05-14T12:26:02Z</time>
      </trkpt>
      <trkpt lat="43.63818" lon="7.13851">
        <ele>2.2</ele>
        <time>2026-05-14T12:26:03Z</time>
      </trkpt>
      <trkpt lat="43.6382" lon="7.13849">
        <ele>2.2</ele>
        <time>2026-05-14T12:26:04Z</time>
      </trkpt>
      <trkpt lat="43.63823" lon="7.13848">
        <ele>2.2</ele>
        <time>2026-05-14T12:26:05Z</time>
      </trkpt>
      <trkpt lat="43.63827" lon="7.13849">
        <ele>2.1</ele>
        <time>2026-05-14T12:26:06Z</time>
      </trkpt>
      <trkpt lat="43.6383" lon="7.13852">
        <ele>2</ele>
        <time>2026-05-14T12:26:07Z</time>
      </trkpt>
      <trkpt lat="43.63834" lon="7.13855">
        <ele>2</ele>
        <time>2026-05-14T12:26:08Z</time>
      </trkpt>
      <trkpt lat="43.63839" lon="7.13858">
        <ele>2</ele>
        <time>2026-05-14T12:26:09Z</time>
      </trkpt>
      <trkpt lat="43.63844" lon="7.13862">
        <ele>2</ele>
        <time>2026-05-14T12:26:10Z</time>
      </trkpt>
      <trkpt lat="43.63848" lon="7.13864">
        <ele>2</ele>
        <time>2026-05-14T12:26:11Z</time>
      </trkpt>
      <trkpt lat="43.63853" lon="7.13867">
        <ele>2</ele>
        <time>2026-05-14T12:26:12Z</time>
      </trkpt>
      <trkpt lat="43.63858" lon="7.13869">
        <ele>2</ele>
        <time>2026-05-14T12:26:13Z</time>
      </trkpt>
      <trkpt lat="43.63864" lon="7.13869">
        <ele>2</ele>
        <time>2026-05-14T12:26:14Z</time>
      </trkpt>
      <trkpt lat="43.6387" lon="7.13872">
        <ele>2</ele>
        <time>2026-05-14T12:26:15Z</time>
      </trkpt>
      <trkpt lat="43.63877" lon="7.13876">
        <ele>2</ele>
        <time>2026-05-14T12:26:16Z</time>
      </trkpt>
      <trkpt lat="43.63884" lon="7.1388">
        <ele>2</ele>
        <time>2026-05-14T12:26:17Z</time>
      </trkpt>
      <trkpt lat="43.63891" lon="7.13882">
        <ele>2.1</ele>
        <time>2026-05-14T12:26:18Z</time>
      </trkpt>
      <trkpt lat="43.63897" lon="7.13886">
        <ele>2.3</ele>
        <time>2026-05-14T12:26:19Z</time>
      </trkpt>
      <trkpt lat="43.63903" lon="7.13889">
        <ele>2.5</ele>
        <time>2026-05-14T12:26:20Z</time>
      </trkpt>
      <trkpt lat="43.63908" lon="7.13892">
        <ele>2.6</ele>
        <time>2026-05-14T12:26:21Z</time>
      </trkpt>
      <trkpt lat="43.63912" lon="7.13894">
        <ele>2.7</ele>
        <time>2026-05-14T12:26:22Z</time>
      </trkpt>
      <trkpt lat="43.63915" lon="7.13896">
        <ele>2.7</ele>
        <time>2026-05-14T12:26:23Z</time>
      </trkpt>
      <trkpt lat="43.63919" lon="7.13897">
        <ele>2.7</ele>
        <time>2026-05-14T12:26:24Z</time>
      </trkpt>
      <trkpt lat="43.63923" lon="7.13895">
        <ele>2.8</ele>
        <time>2026-05-14T12:26:25Z</time>
      </trkpt>
      <trkpt lat="43.63927" lon="7.13893">
        <ele>2.9</ele>
        <time>2026-05-14T12:26:26Z</time>
      </trkpt>
      <trkpt lat="43.6393" lon="7.1389">
        <ele>3</ele>
        <time>2026-05-14T12:26:27Z</time>
      </trkpt>
      <trkpt lat="43.63934" lon="7.13887">
        <ele>3</ele>
        <time>2026-05-14T12:26:28Z</time>
      </trkpt>
      <trkpt lat="43.63938" lon="7.13886">
        <ele>3</ele>
        <time>2026-05-14T12:26:29Z</time>
      </trkpt>
      <trkpt lat="43.6394" lon="7.13885">
        <ele>3</ele>
        <time>2026-05-14T12:26:30Z</time>
      </trkpt>
      <trkpt lat="43.63942" lon="7.13884">
        <ele>3</ele>
        <time>2026-05-14T12:26:31Z</time>
      </trkpt>
      <trkpt lat="43.63944" lon="7.13884">
        <ele>3</ele>
        <time>2026-05-14T12:26:32Z</time>
      </trkpt>
      <trkpt lat="43.63945" lon="7.13883">
        <ele>3</ele>
        <time>2026-05-14T12:26:33Z</time>
      </trkpt>
      <trkpt lat="43.63945" lon="7.13884">
        <ele>3</ele>
        <time>2026-05-14T12:26:34Z</time>
      </trkpt>
      <trkpt lat="43.63944" lon="7.13884">
        <ele>3</ele>
        <time>2026-05-14T12:26:35Z</time>
      </trkpt>
      <trkpt lat="43.63944" lon="7.13885">
        <ele>3</ele>
        <time>2026-05-14T12:26:36Z</time>
      </trkpt>
      <trkpt lat="43.63944" lon="7.13885">
        <ele>3</ele>
        <time>2026-05-14T12:26:37Z</time>
      </trkpt>
      <trkpt lat="43.63944" lon="7.13885">
        <ele>3</ele>
        <time>2026-05-14T12:26:38Z</time>
      </trkpt>
      <trkpt lat="43.63944" lon="7.13885">
        <ele>3</ele>
        <time>2026-05-14T12:26:39Z</time>
      </trkpt>
      <trkpt lat="43.63944" lon="7.13885">
        <ele>3</ele>
        <time>2026-05-14T12:26:40Z</time>
      </trkpt>
      <trkpt lat="43.63944" lon="7.13885">
        <ele>3</ele>
        <time>2026-05-14T12:26:41Z</time>
      </trkpt>
      <trkpt lat="43.63944" lon="7.13885">
        <ele>3</ele>
        <time>2026-05-14T12:26:42Z</time>
      </trkpt>
      <trkpt lat="43.63945" lon="7.13885">
        <ele>3</ele>
        <time>2026-05-14T12:26:43Z</time>
      </trkpt>
      <trkpt lat="43.63946" lon="7.13885">
        <ele>3</ele>
        <time>2026-05-14T12:26:44Z</time>
      </trkpt>
      <trkpt lat="43.63949" lon="7.13885">
        <ele>3</ele>
        <time>2026-05-14T12:26:45Z</time>
      </trkpt>
      <trkpt lat="43.63956" lon="7.13887">
        <ele>3</ele>
        <time>2026-05-14T12:26:46Z</time>
      </trkpt>
      <trkpt lat="43.6396" lon="7.1389">
        <ele>3</ele>
        <time>2026-05-14T12:26:47Z</time>
      </trkpt>
      <trkpt lat="43.63963" lon="7.13894">
        <ele>3</ele>
        <time>2026-05-14T12:26:48Z</time>
      </trkpt>
      <trkpt lat="43.63965" lon="7.13899">
        <ele>3</ele>
        <time>2026-05-14T12:26:49Z</time>
      </trkpt>
      <trkpt lat="43.63968" lon="7.13903">
        <ele>3</ele>
        <time>2026-05-14T12:26:50Z</time>
      </trkpt>
      <trkpt lat="43.6397" lon="7.13907">
        <ele>3</ele>
        <time>2026-05-14T12:26:51Z</time>
      </trkpt>
      <trkpt lat="43.63971" lon="7.1391">
        <ele>3</ele>
        <time>2026-05-14T12:26:52Z</time>
      </trkpt>
      <trkpt lat="43.63973" lon="7.13913">
        <ele>3</ele>
        <time>2026-05-14T12:26:53Z</time>
      </trkpt>
      <trkpt lat="43.63974" lon="7.13915">
        <ele>3</ele>
        <time>2026-05-14T12:26:54Z</time>
      </trkpt>
      <trkpt lat="43.63974" lon="7.13916">
        <ele>3</ele>
        <time>2026-05-14T12:26:55Z</time>
      </trkpt>
      <trkpt lat="43.63975" lon="7.13917">
        <ele>3</ele>
        <time>2026-05-14T12:26:56Z</time>
      </trkpt>
      <trkpt lat="43.63975" lon="7.13917">
        <ele>3</ele>
        <time>2026-05-14T12:26:57Z</time>
      </trkpt>
      <trkpt lat="43.63975" lon="7.13917">
        <ele>3</ele>
        <time>2026-05-14T12:26:58Z</time>
      </trkpt>
      <trkpt lat="43.63975" lon="7.13917">
        <ele>3</ele>
        <time>2026-05-14T12:26:59Z</time>
      </trkpt>
      <trkpt lat="43.63975" lon="7.13917">
        <ele>3</ele>
        <time>2026-05-14T12:27:00Z</time>
      </trkpt>
      <trkpt lat="43.63975" lon="7.13918">
        <ele>3</ele>
        <time>2026-05-14T12:27:01Z</time>
      </trkpt>
      <trkpt lat="43.63976" lon="7.13919">
        <ele>3</ele>
        <time>2026-05-14T12:27:02Z</time>
      </trkpt>
      <trkpt lat="43.63977" lon="7.13921">
        <ele>3</ele>
        <time>2026-05-14T12:27:03Z</time>
      </trkpt>
      <trkpt lat="43.63979" lon="7.13926">
        <ele>3</ele>
        <time>2026-05-14T12:27:04Z</time>
      </trkpt>
      <trkpt lat="43.63982" lon="7.13931">
        <ele>3</ele>
        <time>2026-05-14T12:27:05Z</time>
      </trkpt>
      <trkpt lat="43.63985" lon="7.13938">
        <ele>3</ele>
        <time>2026-05-14T12:27:06Z</time>
      </trkpt>
      <trkpt lat="43.63988" lon="7.13943">
        <ele>3</ele>
        <time>2026-05-14T12:27:07Z</time>
      </trkpt>
      <trkpt lat="43.63991" lon="7.1395">
        <ele>3</ele>
        <time>2026-05-14T12:27:08Z</time>
      </trkpt>
      <trkpt lat="43.63995" lon="7.13957">
        <ele>3</ele>
        <time>2026-05-14T12:27:09Z</time>
      </trkpt>
      <trkpt lat="43.63999" lon="7.13965">
        <ele>3</ele>
        <time>2026-05-14T12:27:10Z</time>
      </trkpt>
      <trkpt lat="43.64003" lon="7.13972">
        <ele>3</ele>
        <time>2026-05-14T12:27:11Z</time>
      </trkpt>
      <trkpt lat="43.64006" lon="7.1398">
        <ele>3</ele>
        <time>2026-05-14T12:27:12Z</time>
      </trkpt>
      <trkpt lat="43.6401" lon="7.13987">
        <ele>3</ele>
        <time>2026-05-14T12:27:13Z</time>
      </trkpt>
      <trkpt lat="43.64013" lon="7.13994">
        <ele>3</ele>
        <time>2026-05-14T12:27:14Z</time>
      </trkpt>
      <trkpt lat="43.64018" lon="7.14003">
        <ele>3</ele>
        <time>2026-05-14T12:27:15Z</time>
      </trkpt>
      <trkpt lat="43.64022" lon="7.14012">
        <ele>2.9</ele>
        <time>2026-05-14T12:27:16Z</time>
      </trkpt>
      <trkpt lat="43.64027" lon="7.14022">
        <ele>3</ele>
        <time>2026-05-14T12:27:17Z</time>
      </trkpt>
      <trkpt lat="43.64032" lon="7.14031">
        <ele>3</ele>
        <time>2026-05-14T12:27:18Z</time>
      </trkpt>
      <trkpt lat="43.64037" lon="7.14041">
        <ele>3</ele>
        <time>2026-05-14T12:27:19Z</time>
      </trkpt>
      <trkpt lat="43.64043" lon="7.14052">
        <ele>3</ele>
        <time>2026-05-14T12:27:20Z</time>
      </trkpt>
      <trkpt lat="43.6405" lon="7.14063">
        <ele>2.9</ele>
        <time>2026-05-14T12:27:21Z</time>
      </trkpt>
      <trkpt lat="43.64056" lon="7.14074">
        <ele>3</ele>
        <time>2026-05-14T12:27:22Z</time>
      </trkpt>
      <trkpt lat="43.64061" lon="7.14084">
        <ele>3</ele>
        <time>2026-05-14T12:27:23Z</time>
      </trkpt>
      <trkpt lat="43.64067" lon="7.14093">
        <ele>3</ele>
        <time>2026-05-14T12:27:24Z</time>
      </trkpt>
      <trkpt lat="43.64072" lon="7.14101">
        <ele>3</ele>
        <time>2026-05-14T12:27:25Z</time>
      </trkpt>
      <trkpt lat="43.64076" lon="7.1411">
        <ele>3</ele>
        <time>2026-05-14T12:27:26Z</time>
      </trkpt>
      <trkpt lat="43.64081" lon="7.14118">
        <ele>3</ele>
        <time>2026-05-14T12:27:27Z</time>
      </trkpt>
      <trkpt lat="43.64085" lon="7.14126">
        <ele>3</ele>
        <time>2026-05-14T12:27:28Z</time>
      </trkpt>
      <trkpt lat="43.6409" lon="7.14134">
        <ele>3</ele>
        <time>2026-05-14T12:27:29Z</time>
      </trkpt>
      <trkpt lat="43.64094" lon="7.14141">
        <ele>3</ele>
        <time>2026-05-14T12:27:30Z</time>
      </trkpt>
      <trkpt lat="43.64098" lon="7.14148">
        <ele>2.8</ele>
        <time>2026-05-14T12:27:31Z</time>
      </trkpt>
      <trkpt lat="43.64102" lon="7.14156">
        <ele>2.8</ele>
        <time>2026-05-14T12:27:32Z</time>
      </trkpt>
      <trkpt lat="43.64107" lon="7.14162">
        <ele>2.9</ele>
        <time>2026-05-14T12:27:33Z</time>
      </trkpt>
      <trkpt lat="43.64112" lon="7.14167">
        <ele>3</ele>
        <time>2026-05-14T12:27:34Z</time>
      </trkpt>
      <trkpt lat="43.64116" lon="7.14173">
        <ele>2.9</ele>
        <time>2026-05-14T12:27:35Z</time>
      </trkpt>
      <trkpt lat="43.6412" lon="7.14178">
        <ele>2.8</ele>
        <time>2026-05-14T12:27:36Z</time>
      </trkpt>
      <trkpt lat="43.64123" lon="7.14182">
        <ele>2.8</ele>
        <time>2026-05-14T12:27:37Z</time>
      </trkpt>
      <trkpt lat="43.64125" lon="7.14186">
        <ele>2.8</ele>
        <time>2026-05-14T12:27:38Z</time>
      </trkpt>
      <trkpt lat="43.64128" lon="7.14189">
        <ele>2.9</ele>
        <time>2026-05-14T12:27:39Z</time>
      </trkpt>
      <trkpt lat="43.6413" lon="7.14191">
        <ele>2.9</ele>
        <time>2026-05-14T12:27:40Z</time>
      </trkpt>
      <trkpt lat="43.64131" lon="7.14193">
        <ele>3</ele>
        <time>2026-05-14T12:27:41Z</time>
      </trkpt>
      <trkpt lat="43.64132" lon="7.14194">
        <ele>3</ele>
        <time>2026-05-14T12:27:42Z</time>
      </trkpt>
      <trkpt lat="43.64132" lon="7.14193">
        <ele>3</ele>
        <time>2026-05-14T12:27:43Z</time>
      </trkpt>
      <trkpt lat="43.64132" lon="7.14193">
        <ele>3</ele>
        <time>2026-05-14T12:27:44Z</time>
      </trkpt>
      <trkpt lat="43.64132" lon="7.14193">
        <ele>3</ele>
        <time>2026-05-14T12:27:45Z</time>
      </trkpt>
      <trkpt lat="43.64132" lon="7.14193">
        <ele>3</ele>
        <time>2026-05-14T12:27:46Z</time>
      </trkpt>
      <trkpt lat="43.64132" lon="7.14193">
        <ele>3</ele>
        <time>2026-05-14T12:27:47Z</time>
      </trkpt>
      <trkpt lat="43.64132" lon="7.14193">
        <ele>3</ele>
        <time>2026-05-14T12:27:48Z</time>
      </trkpt>
      <trkpt lat="43.64132" lon="7.14193">
        <ele>3</ele>
        <time>2026-05-14T12:27:49Z</time>
      </trkpt>
      <trkpt lat="43.64132" lon="7.14193">
        <ele>3</ele>
        <time>2026-05-14T12:27:50Z</time>
      </trkpt>
      <trkpt lat="43.64132" lon="7.14193">
        <ele>3</ele>
        <time>2026-05-14T12:27:51Z</time>
      </trkpt>
      <trkpt lat="43.64132" lon="7.14193">
        <ele>3</ele>
        <time>2026-05-14T12:27:52Z</time>
      </trkpt>
      <trkpt lat="43.64132" lon="7.14193">
        <ele>3</ele>
        <time>2026-05-14T12:27:53Z</time>
      </trkpt>
      <trkpt lat="43.64132" lon="7.14193">
        <ele>3</ele>
        <time>2026-05-14T12:27:54Z</time>
      </trkpt>
      <trkpt lat="43.64132" lon="7.14194">
        <ele>3</ele>
        <time>2026-05-14T12:27:55Z</time>
      </trkpt>
      <trkpt lat="43.64132" lon="7.14194">
        <ele>3</ele>
        <time>2026-05-14T12:27:56Z</time>
      </trkpt>
      <trkpt lat="43.64132" lon="7.14194">
        <ele>3</ele>
        <time>2026-05-14T12:27:57Z</time>
      </trkpt>
      <trkpt lat="43.64132" lon="7.14194">
        <ele>3</ele>
        <time>2026-05-14T12:27:58Z</time>
      </trkpt>
      <trkpt lat="43.64132" lon="7.14194">
        <ele>3</ele>
        <time>2026-05-14T12:27:59Z</time>
      </trkpt>
      <trkpt lat="43.64132" lon="7.14194">
        <ele>3</ele>
        <time>2026-05-14T12:28:00Z</time>
      </trkpt>
      <trkpt lat="43.64132" lon="7.14194">
        <ele>3</ele>
        <time>2026-05-14T12:28:01Z</time>
      </trkpt>
      <trkpt lat="43.64132" lon="7.14194">
        <ele>3</ele>
        <time>2026-05-14T12:28:02Z</time>
      </trkpt>
      <trkpt lat="43.64132" lon="7.14194">
        <ele>3</ele>
        <time>2026-05-14T12:28:03Z</time>
      </trkpt>
      <trkpt lat="43.64132" lon="7.14194">
        <ele>3</ele>
        <time>2026-05-14T12:28:04Z</time>
      </trkpt>
      <trkpt lat="43.64132" lon="7.14194">
        <ele>3</ele>
        <time>2026-05-14T12:28:05Z</time>
      </trkpt>
      <trkpt lat="43.64132" lon="7.14194">
        <ele>3</ele>
        <time>2026-05-14T12:28:06Z</time>
      </trkpt>
      <trkpt lat="43.64132" lon="7.14194">
        <ele>3</ele>
        <time>2026-05-14T12:28:07Z</time>
      </trkpt>
      <trkpt lat="43.64132" lon="7.14194">
        <ele>3</ele>
        <time>2026-05-14T12:28:08Z</time>
      </trkpt>
      <trkpt lat="43.64132" lon="7.14194">
        <ele>3</ele>
        <time>2026-05-14T12:28:09Z</time>
      </trkpt>
      <trkpt lat="43.64132" lon="7.14194">
        <ele>3</ele>
        <time>2026-05-14T12:28:10Z</time>
      </trkpt>
      <trkpt lat="43.64132" lon="7.14194">
        <ele>3</ele>
        <time>2026-05-14T12:28:11Z</time>
      </trkpt>
      <trkpt lat="43.64132" lon="7.14194">
        <ele>3</ele>
        <time>2026-05-14T12:28:12Z</time>
      </trkpt>
      <trkpt lat="43.64132" lon="7.14194">
        <ele>3</ele>
        <time>2026-05-14T12:28:13Z</time>
      </trkpt>
      <trkpt lat="43.64132" lon="7.14194">
        <ele>3</ele>
        <time>2026-05-14T12:28:14Z</time>
      </trkpt>
      <trkpt lat="43.64132" lon="7.14194">
        <ele>3</ele>
        <time>2026-05-14T12:28:15Z</time>
      </trkpt>
      <trkpt lat="43.64132" lon="7.14194">
        <ele>3</ele>
        <time>2026-05-14T12:28:16Z</time>
      </trkpt>
      <trkpt lat="43.64132" lon="7.14194">
        <ele>3</ele>
        <time>2026-05-14T12:28:17Z</time>
      </trkpt>
      <trkpt lat="43.64132" lon="7.14194">
        <ele>3</ele>
        <time>2026-05-14T12:28:18Z</time>
      </trkpt>
      <trkpt lat="43.64132" lon="7.14194">
        <ele>3</ele>
        <time>2026-05-14T12:28:19Z</time>
      </trkpt>
      <trkpt lat="43.64132" lon="7.14194">
        <ele>3</ele>
        <time>2026-05-14T12:28:20Z</time>
      </trkpt>
      <trkpt lat="43.64132" lon="7.14194">
        <ele>3</ele>
        <time>2026-05-14T12:28:21Z</time>
      </trkpt>
      <trkpt lat="43.64132" lon="7.14194">
        <ele>3</ele>
        <time>2026-05-14T12:28:22Z</time>
      </trkpt>
      <trkpt lat="43.64132" lon="7.14194">
        <ele>3</ele>
        <time>2026-05-14T12:28:23Z</time>
      </trkpt>
      <trkpt lat="43.64132" lon="7.14194">
        <ele>3</ele>
        <time>2026-05-14T12:28:24Z</time>
      </trkpt>
      <trkpt lat="43.64132" lon="7.14194">
        <ele>3</ele>
        <time>2026-05-14T12:28:25Z</time>
      </trkpt>
      <trkpt lat="43.64132" lon="7.14194">
        <ele>3</ele>
        <time>2026-05-14T12:28:26Z</time>
      </trkpt>
      <trkpt lat="43.64132" lon="7.14194">
        <ele>3</ele>
        <time>2026-05-14T12:28:27Z</time>
      </trkpt>
      <trkpt lat="43.64132" lon="7.14194">
        <ele>3</ele>
        <time>2026-05-14T12:28:28Z</time>
      </trkpt>
      <trkpt lat="43.64132" lon="7.14194">
        <ele>3</ele>
        <time>2026-05-14T12:28:29Z</time>
      </trkpt>
      <trkpt lat="43.64132" lon="7.14194">
        <ele>3</ele>
        <time>2026-05-14T12:28:30Z</time>
      </trkpt>
      <trkpt lat="43.64132" lon="7.14194">
        <ele>3</ele>
        <time>2026-05-14T12:28:31Z</time>
      </trkpt>
      <trkpt lat="43.64132" lon="7.14194">
        <ele>3</ele>
        <time>2026-05-14T12:28:32Z</time>
      </trkpt>
      <trkpt lat="43.64132" lon="7.14194">
        <ele>3</ele>
        <time>2026-05-14T12:28:33Z</time>
      </trkpt>
      <trkpt lat="43.64132" lon="7.14194">
        <ele>3</ele>
        <time>2026-05-14T12:28:34Z</time>
      </trkpt>
      <trkpt lat="43.64132" lon="7.14194">
        <ele>3</ele>
        <time>2026-05-14T12:28:35Z</time>
      </trkpt>
      <trkpt lat="43.64132" lon="7.14194">
        <ele>3</ele>
        <time>2026-05-14T12:28:36Z</time>
      </trkpt>
      <trkpt lat="43.64132" lon="7.14194">
        <ele>3</ele>
        <time>2026-05-14T12:28:37Z</time>
      </trkpt>
      <trkpt lat="43.64132" lon="7.14194">
        <ele>3</ele>
        <time>2026-05-14T12:28:38Z</time>
      </trkpt>
      <trkpt lat="43.64132" lon="7.14194">
        <ele>3</ele>
        <time>2026-05-14T12:28:39Z</time>
      </trkpt>
      <trkpt lat="43.64134" lon="7.14197">
        <ele>3</ele>
        <time>2026-05-14T12:28:40Z</time>
      </trkpt>
      <trkpt lat="43.64137" lon="7.14201">
        <ele>3</ele>
        <time>2026-05-14T12:28:41Z</time>
      </trkpt>
      <trkpt lat="43.6414" lon="7.14205">
        <ele>3</ele>
        <time>2026-05-14T12:28:42Z</time>
      </trkpt>
      <trkpt lat="43.64143" lon="7.14208">
        <ele>2.9</ele>
        <time>2026-05-14T12:28:43Z</time>
      </trkpt>
      <trkpt lat="43.64145" lon="7.14211">
        <ele>2.9</ele>
        <time>2026-05-14T12:28:44Z</time>
      </trkpt>
      <trkpt lat="43.64147" lon="7.14214">
        <ele>2.9</ele>
        <time>2026-05-14T12:28:45Z</time>
      </trkpt>
      <trkpt lat="43.6415" lon="7.14216">
        <ele>2.9</ele>
        <time>2026-05-14T12:28:46Z</time>
      </trkpt>
      <trkpt lat="43.64154" lon="7.14218">
        <ele>2.9</ele>
        <time>2026-05-14T12:28:47Z</time>
      </trkpt>
      <trkpt lat="43.64158" lon="7.14217">
        <ele>2.9</ele>
        <time>2026-05-14T12:28:48Z</time>
      </trkpt>
      <trkpt lat="43.64162" lon="7.14214">
        <ele>2.8</ele>
        <time>2026-05-14T12:28:49Z</time>
      </trkpt>
      <trkpt lat="43.64163" lon="7.14201">
        <ele>2.3</ele>
        <time>2026-05-14T12:28:50Z</time>
      </trkpt>
      <trkpt lat="43.64164" lon="7.14194">
        <ele>2.1</ele>
        <time>2026-05-14T12:28:51Z</time>
      </trkpt>
      <trkpt lat="43.64164" lon="7.14187">
        <ele>2.1</ele>
        <time>2026-05-14T12:28:52Z</time>
      </trkpt>
      <trkpt lat="43.64163" lon="7.1418">
        <ele>2.1</ele>
        <time>2026-05-14T12:28:53Z</time>
      </trkpt>
      <trkpt lat="43.64163" lon="7.14172">
        <ele>2</ele>
        <time>2026-05-14T12:28:54Z</time>
      </trkpt>
      <trkpt lat="43.64163" lon="7.14164">
        <ele>2</ele>
        <time>2026-05-14T12:28:55Z</time>
      </trkpt>
      <trkpt lat="43.64164" lon="7.14156">
        <ele>2</ele>
        <time>2026-05-14T12:28:56Z</time>
      </trkpt>
      <trkpt lat="43.64165" lon="7.14146">
        <ele>2</ele>
        <time>2026-05-14T12:28:57Z</time>
      </trkpt>
      <trkpt lat="43.64167" lon="7.14137">
        <ele>2</ele>
        <time>2026-05-14T12:28:58Z</time>
      </trkpt>
      <trkpt lat="43.64167" lon="7.14128">
        <ele>2</ele>
        <time>2026-05-14T12:28:59Z</time>
      </trkpt>
      <trkpt lat="43.64167" lon="7.14119">
        <ele>2</ele>
        <time>2026-05-14T12:29:00Z</time>
      </trkpt>
      <trkpt lat="43.64168" lon="7.1411">
        <ele>2</ele>
        <time>2026-05-14T12:29:01Z</time>
      </trkpt>
      <trkpt lat="43.6417" lon="7.141">
        <ele>2</ele>
        <time>2026-05-14T12:29:02Z</time>
      </trkpt>
      <trkpt lat="43.64171" lon="7.14089">
        <ele>2</ele>
        <time>2026-05-14T12:29:03Z</time>
      </trkpt>
      <trkpt lat="43.64173" lon="7.14075">
        <ele>2</ele>
        <time>2026-05-14T12:29:04Z</time>
      </trkpt>
      <trkpt lat="43.64174" lon="7.1406">
        <ele>2</ele>
        <time>2026-05-14T12:29:05Z</time>
      </trkpt>
      <trkpt lat="43.64175" lon="7.14046">
        <ele>2</ele>
        <time>2026-05-14T12:29:06Z</time>
      </trkpt>
      <trkpt lat="43.64177" lon="7.14031">
        <ele>2</ele>
        <time>2026-05-14T12:29:07Z</time>
      </trkpt>
      <trkpt lat="43.64178" lon="7.14016">
        <ele>2.3</ele>
        <time>2026-05-14T12:29:08Z</time>
      </trkpt>
      <trkpt lat="43.6418" lon="7.14002">
        <ele>2.5</ele>
        <time>2026-05-14T12:29:09Z</time>
      </trkpt>
      <trkpt lat="43.64181" lon="7.13987">
        <ele>2.7</ele>
        <time>2026-05-14T12:29:10Z</time>
      </trkpt>
      <trkpt lat="43.64183" lon="7.13975">
        <ele>2.9</ele>
        <time>2026-05-14T12:29:11Z</time>
      </trkpt>
      <trkpt lat="43.64185" lon="7.13964">
        <ele>3</ele>
        <time>2026-05-14T12:29:12Z</time>
      </trkpt>
      <trkpt lat="43.64187" lon="7.13957">
        <ele>3</ele>
        <time>2026-05-14T12:29:13Z</time>
      </trkpt>
      <trkpt lat="43.64189" lon="7.13952">
        <ele>3</ele>
        <time>2026-05-14T12:29:14Z</time>
      </trkpt>
      <trkpt lat="43.6419" lon="7.13947">
        <ele>3</ele>
        <time>2026-05-14T12:29:15Z</time>
      </trkpt>
      <trkpt lat="43.64192" lon="7.1394">
        <ele>3</ele>
        <time>2026-05-14T12:29:16Z</time>
      </trkpt>
      <trkpt lat="43.64195" lon="7.13932">
        <ele>3</ele>
        <time>2026-05-14T12:29:17Z</time>
      </trkpt>
      <trkpt lat="43.642" lon="7.13923">
        <ele>3</ele>
        <time>2026-05-14T12:29:18Z</time>
      </trkpt>
      <trkpt lat="43.64204" lon="7.13914">
        <ele>3</ele>
        <time>2026-05-14T12:29:19Z</time>
      </trkpt>
      <trkpt lat="43.64209" lon="7.13906">
        <ele>3</ele>
        <time>2026-05-14T12:29:20Z</time>
      </trkpt>
      <trkpt lat="43.64213" lon="7.139">
        <ele>3</ele>
        <time>2026-05-14T12:29:21Z</time>
      </trkpt>
      <trkpt lat="43.64216" lon="7.13896">
        <ele>3</ele>
        <time>2026-05-14T12:29:22Z</time>
      </trkpt>
      <trkpt lat="43.64217" lon="7.13891">
        <ele>3</ele>
        <time>2026-05-14T12:29:23Z</time>
      </trkpt>
      <trkpt lat="43.64215" lon="7.13886">
        <ele>3.1</ele>
        <time>2026-05-14T12:29:24Z</time>
      </trkpt>
      <trkpt lat="43.64212" lon="7.13881">
        <ele>3.2</ele>
        <time>2026-05-14T12:29:25Z</time>
      </trkpt>
      <trkpt lat="43.64208" lon="7.13877">
        <ele>3.2</ele>
        <time>2026-05-14T12:29:26Z</time>
      </trkpt>
      <trkpt lat="43.64203" lon="7.13872">
        <ele>3.2</ele>
        <time>2026-05-14T12:29:27Z</time>
      </trkpt>
      <trkpt lat="43.64197" lon="7.13868">
        <ele>3.1</ele>
        <time>2026-05-14T12:29:28Z</time>
      </trkpt>
      <trkpt lat="43.64193" lon="7.13863">
        <ele>3.1</ele>
        <time>2026-05-14T12:29:29Z</time>
      </trkpt>
      <trkpt lat="43.64189" lon="7.13859">
        <ele>3.3</ele>
        <time>2026-05-14T12:29:30Z</time>
      </trkpt>
      <trkpt lat="43.64187" lon="7.13856">
        <ele>3.4</ele>
        <time>2026-05-14T12:29:31Z</time>
      </trkpt>
      <trkpt lat="43.64185" lon="7.13854">
        <ele>3.5</ele>
        <time>2026-05-14T12:29:32Z</time>
      </trkpt>
      <trkpt lat="43.64184" lon="7.13853">
        <ele>3.6</ele>
        <time>2026-05-14T12:29:33Z</time>
      </trkpt>
      <trkpt lat="43.64183" lon="7.13853">
        <ele>3.6</ele>
        <time>2026-05-14T12:29:34Z</time>
      </trkpt>
      <trkpt lat="43.64183" lon="7.13852">
        <ele>3.6</ele>
        <time>2026-05-14T12:29:35Z</time>
      </trkpt>
      <trkpt lat="43.64183" lon="7.13851">
        <ele>3.6</ele>
        <time>2026-05-14T12:29:36Z</time>
      </trkpt>
      <trkpt lat="43.64183" lon="7.13851">
        <ele>3.6</ele>
        <time>2026-05-14T12:29:37Z</time>
      </trkpt>
      <trkpt lat="43.64183" lon="7.13851">
        <ele>3.6</ele>
        <time>2026-05-14T12:29:38Z</time>
      </trkpt>
      <trkpt lat="43.64184" lon="7.13851">
        <ele>3.6</ele>
        <time>2026-05-14T12:29:39Z</time>
      </trkpt>
      <trkpt lat="43.64183" lon="7.1385">
        <ele>3.6</ele>
        <time>2026-05-14T12:29:40Z</time>
      </trkpt>
      <trkpt lat="43.64184" lon="7.1385">
        <ele>3.6</ele>
        <time>2026-05-14T12:29:41Z</time>
      </trkpt>
      <trkpt lat="43.64183" lon="7.1385">
        <ele>3.6</ele>
        <time>2026-05-14T12:29:42Z</time>
      </trkpt>
      <trkpt lat="43.64181" lon="7.13848">
        <ele>3.7</ele>
        <time>2026-05-14T12:29:43Z</time>
      </trkpt>
      <trkpt lat="43.64178" lon="7.13843">
        <ele>3.9</ele>
        <time>2026-05-14T12:29:44Z</time>
      </trkpt>
      <trkpt lat="43.64176" lon="7.13835">
        <ele>4</ele>
        <time>2026-05-14T12:29:45Z</time>
      </trkpt>
      <trkpt lat="43.64176" lon="7.13825">
        <ele>4</ele>
        <time>2026-05-14T12:29:46Z</time>
      </trkpt>
      <trkpt lat="43.64177" lon="7.13817">
        <ele>4</ele>
        <time>2026-05-14T12:29:47Z</time>
      </trkpt>
      <trkpt lat="43.64179" lon="7.1381">
        <ele>4</ele>
        <time>2026-05-14T12:29:48Z</time>
      </trkpt>
      <trkpt lat="43.64181" lon="7.13803">
        <ele>4</ele>
        <time>2026-05-14T12:29:49Z</time>
      </trkpt>
      <trkpt lat="43.64184" lon="7.13796">
        <ele>4</ele>
        <time>2026-05-14T12:29:50Z</time>
      </trkpt>
      <trkpt lat="43.64187" lon="7.13788">
        <ele>4</ele>
        <time>2026-05-14T12:29:51Z</time>
      </trkpt>
      <trkpt lat="43.6419" lon="7.1378">
        <ele>4</ele>
        <time>2026-05-14T12:29:52Z</time>
      </trkpt>
      <trkpt lat="43.64193" lon="7.13773">
        <ele>4.2</ele>
        <time>2026-05-14T12:29:53Z</time>
      </trkpt>
      <trkpt lat="43.64196" lon="7.13765">
        <ele>4.5</ele>
        <time>2026-05-14T12:29:54Z</time>
      </trkpt>
      <trkpt lat="43.642" lon="7.13755">
        <ele>4.9</ele>
        <time>2026-05-14T12:29:55Z</time>
      </trkpt>
      <trkpt lat="43.64204" lon="7.13744">
        <ele>5</ele>
        <time>2026-05-14T12:29:56Z</time>
      </trkpt>
      <trkpt lat="43.64207" lon="7.13734">
        <ele>5</ele>
        <time>2026-05-14T12:29:57Z</time>
      </trkpt>
      <trkpt lat="43.6421" lon="7.13723">
        <ele>5</ele>
        <time>2026-05-14T12:29:58Z</time>
      </trkpt>
      <trkpt lat="43.64212" lon="7.13711">
        <ele>5</ele>
        <time>2026-05-14T12:29:59Z</time>
      </trkpt>
      <trkpt lat="43.64213" lon="7.13701">
        <ele>5</ele>
        <time>2026-05-14T12:30:00Z</time>
      </trkpt>
      <trkpt lat="43.64215" lon="7.13689">
        <ele>5.1</ele>
        <time>2026-05-14T12:30:01Z</time>
      </trkpt>
      <trkpt lat="43.64216" lon="7.13677">
        <ele>5.5</ele>
        <time>2026-05-14T12:30:02Z</time>
      </trkpt>
      <trkpt lat="43.64217" lon="7.13666">
        <ele>5.8</ele>
        <time>2026-05-14T12:30:03Z</time>
      </trkpt>
      <trkpt lat="43.64218" lon="7.13656">
        <ele>6.2</ele>
        <time>2026-05-14T12:30:04Z</time>
      </trkpt>
      <trkpt lat="43.64219" lon="7.13646">
        <ele>6.6</ele>
        <time>2026-05-14T12:30:05Z</time>
      </trkpt>
      <trkpt lat="43.64219" lon="7.13636">
        <ele>7.1</ele>
        <time>2026-05-14T12:30:06Z</time>
      </trkpt>
      <trkpt lat="43.6422" lon="7.13626">
        <ele>7.8</ele>
        <time>2026-05-14T12:30:07Z</time>
      </trkpt>
      <trkpt lat="43.6422" lon="7.13616">
        <ele>8.5</ele>
        <time>2026-05-14T12:30:08Z</time>
      </trkpt>
      <trkpt lat="43.64221" lon="7.13607">
        <ele>9.2</ele>
        <time>2026-05-14T12:30:09Z</time>
      </trkpt>
      <trkpt lat="43.64221" lon="7.13598">
        <ele>9.8</ele>
        <time>2026-05-14T12:30:10Z</time>
      </trkpt>
      <trkpt lat="43.64221" lon="7.1359">
        <ele>10.4</ele>
        <time>2026-05-14T12:30:11Z</time>
      </trkpt>
      <trkpt lat="43.64222" lon="7.13583">
        <ele>11</ele>
        <time>2026-05-14T12:30:12Z</time>
      </trkpt>
      <trkpt lat="43.64222" lon="7.13574">
        <ele>11.6</ele>
        <time>2026-05-14T12:30:13Z</time>
      </trkpt>
      <trkpt lat="43.64221" lon="7.13565">
        <ele>12.2</ele>
        <time>2026-05-14T12:30:14Z</time>
      </trkpt>
      <trkpt lat="43.64221" lon="7.13555">
        <ele>12.9</ele>
        <time>2026-05-14T12:30:15Z</time>
      </trkpt>
      <trkpt lat="43.6422" lon="7.13545">
        <ele>13.5</ele>
        <time>2026-05-14T12:30:16Z</time>
      </trkpt>
      <trkpt lat="43.64221" lon="7.13536">
        <ele>14.3</ele>
        <time>2026-05-14T12:30:17Z</time>
      </trkpt>
      <trkpt lat="43.64221" lon="7.13526">
        <ele>14.9</ele>
        <time>2026-05-14T12:30:18Z</time>
      </trkpt>
      <trkpt lat="43.64221" lon="7.13516">
        <ele>14.9</ele>
        <time>2026-05-14T12:30:19Z</time>
      </trkpt>
      <trkpt lat="43.64221" lon="7.13507">
        <ele>14.9</ele>
        <time>2026-05-14T12:30:20Z</time>
      </trkpt>
      <trkpt lat="43.64223" lon="7.13497">
        <ele>14.5</ele>
        <time>2026-05-14T12:30:21Z</time>
      </trkpt>
      <trkpt lat="43.64224" lon="7.13489">
        <ele>13.4</ele>
        <time>2026-05-14T12:30:22Z</time>
      </trkpt>
      <trkpt lat="43.64226" lon="7.13481">
        <ele>12.5</ele>
        <time>2026-05-14T12:30:23Z</time>
      </trkpt>
      <trkpt lat="43.64227" lon="7.13472">
        <ele>11.6</ele>
        <time>2026-05-14T12:30:24Z</time>
      </trkpt>
      <trkpt lat="43.64228" lon="7.13465">
        <ele>13.2</ele>
        <time>2026-05-14T12:30:25Z</time>
      </trkpt>
      <trkpt lat="43.6423" lon="7.13459">
        <ele>14.5</ele>
        <time>2026-05-14T12:30:26Z</time>
      </trkpt>
      <trkpt lat="43.64231" lon="7.13452">
        <ele>15.9</ele>
        <time>2026-05-14T12:30:27Z</time>
      </trkpt>
      <trkpt lat="43.64231" lon="7.13446">
        <ele>17.1</ele>
        <time>2026-05-14T12:30:28Z</time>
      </trkpt>
      <trkpt lat="43.64233" lon="7.1344">
        <ele>17.4</ele>
        <time>2026-05-14T12:30:29Z</time>
      </trkpt>
      <trkpt lat="43.64234" lon="7.13434">
        <ele>17.5</ele>
        <time>2026-05-14T12:30:30Z</time>
      </trkpt>
      <trkpt lat="43.64234" lon="7.13429">
        <ele>17.7</ele>
        <time>2026-05-14T12:30:31Z</time>
      </trkpt>
      <trkpt lat="43.64235" lon="7.13424">
        <ele>17.8</ele>
        <time>2026-05-14T12:30:32Z</time>
      </trkpt>
      <trkpt lat="43.64235" lon="7.1342">
        <ele>18</ele>
        <time>2026-05-14T12:30:33Z</time>
      </trkpt>
      <trkpt lat="43.64236" lon="7.13418">
        <ele>18</ele>
        <time>2026-05-14T12:30:34Z</time>
      </trkpt>
      <trkpt lat="43.64237" lon="7.13416">
        <ele>17.9</ele>
        <time>2026-05-14T12:30:35Z</time>
      </trkpt>
      <trkpt lat="43.64238" lon="7.13413">
        <ele>17.9</ele>
        <time>2026-05-14T12:30:36Z</time>
      </trkpt>
      <trkpt lat="43.64238" lon="7.1341">
        <ele>18</ele>
        <time>2026-05-14T12:30:37Z</time>
      </trkpt>
      <trkpt lat="43.64239" lon="7.13407">
        <ele>18</ele>
        <time>2026-05-14T12:30:38Z</time>
      </trkpt>
      <trkpt lat="43.64239" lon="7.13403">
        <ele>18.1</ele>
        <time>2026-05-14T12:30:39Z</time>
      </trkpt>
      <trkpt lat="43.64238" lon="7.13398">
        <ele>18.2</ele>
        <time>2026-05-14T12:30:40Z</time>
      </trkpt>
      <trkpt lat="43.64237" lon="7.13393">
        <ele>18.4</ele>
        <time>2026-05-14T12:30:41Z</time>
      </trkpt>
      <trkpt lat="43.64234" lon="7.13387">
        <ele>18.6</ele>
        <time>2026-05-14T12:30:42Z</time>
      </trkpt>
      <trkpt lat="43.6423" lon="7.1338">
        <ele>18.8</ele>
        <time>2026-05-14T12:30:43Z</time>
      </trkpt>
      <trkpt lat="43.64227" lon="7.13376">
        <ele>18.9</ele>
        <time>2026-05-14T12:30:44Z</time>
      </trkpt>
      <trkpt lat="43.64225" lon="7.13371">
        <ele>19</ele>
        <time>2026-05-14T12:30:45Z</time>
      </trkpt>
      <trkpt lat="43.64223" lon="7.13366">
        <ele>19</ele>
        <time>2026-05-14T12:30:46Z</time>
      </trkpt>
      <trkpt lat="43.64221" lon="7.1336">
        <ele>19.1</ele>
        <time>2026-05-14T12:30:47Z</time>
      </trkpt>
      <trkpt lat="43.64221" lon="7.13356">
        <ele>19.2</ele>
        <time>2026-05-14T12:30:48Z</time>
      </trkpt>
      <trkpt lat="43.6422" lon="7.13352">
        <ele>19.4</ele>
        <time>2026-05-14T12:30:49Z</time>
      </trkpt>
      <trkpt lat="43.6422" lon="7.13349">
        <ele>19.5</ele>
        <time>2026-05-14T12:30:50Z</time>
      </trkpt>
      <trkpt lat="43.64219" lon="7.13348">
        <ele>19.5</ele>
        <time>2026-05-14T12:30:51Z</time>
      </trkpt>
      <trkpt lat="43.64219" lon="7.13349">
        <ele>19.5</ele>
        <time>2026-05-14T12:30:52Z</time>
      </trkpt>
      <trkpt lat="43.64219" lon="7.13349">
        <ele>19.5</ele>
        <time>2026-05-14T12:30:53Z</time>
      </trkpt>
      <trkpt lat="43.64219" lon="7.13348">
        <ele>19.5</ele>
        <time>2026-05-14T12:30:54Z</time>
      </trkpt>
      <trkpt lat="43.64219" lon="7.13348">
        <ele>19.5</ele>
        <time>2026-05-14T12:30:55Z</time>
      </trkpt>
      <trkpt lat="43.64219" lon="7.13348">
        <ele>19.5</ele>
        <time>2026-05-14T12:30:56Z</time>
      </trkpt>
      <trkpt lat="43.64219" lon="7.13348">
        <ele>19.5</ele>
        <time>2026-05-14T12:30:57Z</time>
      </trkpt>
      <trkpt lat="43.64219" lon="7.13348">
        <ele>19.5</ele>
        <time>2026-05-14T12:30:58Z</time>
      </trkpt>
      <trkpt lat="43.64219" lon="7.13348">
        <ele>19.5</ele>
        <time>2026-05-14T12:30:59Z</time>
      </trkpt>
      <trkpt lat="43.64219" lon="7.13348">
        <ele>19.5</ele>
        <time>2026-05-14T12:31:00Z</time>
      </trkpt>
      <trkpt lat="43.64219" lon="7.13348">
        <ele>19.5</ele>
        <time>2026-05-14T12:31:01Z</time>
      </trkpt>
      <trkpt lat="43.64219" lon="7.13347">
        <ele>19.6</ele>
        <time>2026-05-14T12:31:02Z</time>
      </trkpt>
      <trkpt lat="43.64219" lon="7.13347">
        <ele>19.6</ele>
        <time>2026-05-14T12:31:03Z</time>
      </trkpt>
      <trkpt lat="43.64219" lon="7.13347">
        <ele>19.6</ele>
        <time>2026-05-14T12:31:04Z</time>
      </trkpt>
      <trkpt lat="43.64219" lon="7.13347">
        <ele>19.6</ele>
        <time>2026-05-14T12:31:05Z</time>
      </trkpt>
      <trkpt lat="43.64219" lon="7.13347">
        <ele>19.6</ele>
        <time>2026-05-14T12:31:06Z</time>
      </trkpt>
      <trkpt lat="43.64219" lon="7.13347">
        <ele>19.6</ele>
        <time>2026-05-14T12:31:07Z</time>
      </trkpt>
      <trkpt lat="43.64219" lon="7.13345">
        <ele>19.6</ele>
        <time>2026-05-14T12:31:08Z</time>
      </trkpt>
      <trkpt lat="43.64219" lon="7.1334">
        <ele>19.8</ele>
        <time>2026-05-14T12:31:09Z</time>
      </trkpt>
      <trkpt lat="43.64221" lon="7.13333">
        <ele>20</ele>
        <time>2026-05-14T12:31:10Z</time>
      </trkpt>
      <trkpt lat="43.64225" lon="7.13326">
        <ele>20.4</ele>
        <time>2026-05-14T12:31:11Z</time>
      </trkpt>
      <trkpt lat="43.6423" lon="7.1332">
        <ele>20.8</ele>
        <time>2026-05-14T12:31:12Z</time>
      </trkpt>
      <trkpt lat="43.64237" lon="7.13316">
        <ele>21.2</ele>
        <time>2026-05-14T12:31:13Z</time>
      </trkpt>
      <trkpt lat="43.64245" lon="7.13313">
        <ele>21.6</ele>
        <time>2026-05-14T12:31:14Z</time>
      </trkpt>
      <trkpt lat="43.64254" lon="7.13311">
        <ele>21.3</ele>
        <time>2026-05-14T12:31:15Z</time>
      </trkpt>
      <trkpt lat="43.64263" lon="7.13309">
        <ele>20.1</ele>
        <time>2026-05-14T12:31:16Z</time>
      </trkpt>
      <trkpt lat="43.64272" lon="7.13308">
        <ele>18.8</ele>
        <time>2026-05-14T12:31:17Z</time>
      </trkpt>
      <trkpt lat="43.64281" lon="7.13307">
        <ele>17.9</ele>
        <time>2026-05-14T12:31:18Z</time>
      </trkpt>
      <trkpt lat="43.6429" lon="7.13306">
        <ele>17.6</ele>
        <time>2026-05-14T12:31:19Z</time>
      </trkpt>
      <trkpt lat="43.643" lon="7.13305">
        <ele>17.3</ele>
        <time>2026-05-14T12:31:20Z</time>
      </trkpt>
      <trkpt lat="43.6431" lon="7.13304">
        <ele>18.4</ele>
        <time>2026-05-14T12:31:21Z</time>
      </trkpt>
      <trkpt lat="43.6432" lon="7.13303">
        <ele>20.9</ele>
        <time>2026-05-14T12:31:22Z</time>
      </trkpt>
      <trkpt lat="43.64329" lon="7.13304">
        <ele>23</ele>
        <time>2026-05-14T12:31:23Z</time>
      </trkpt>
      <trkpt lat="43.64339" lon="7.13305">
        <ele>24.2</ele>
        <time>2026-05-14T12:31:24Z</time>
      </trkpt>
      <trkpt lat="43.6435" lon="7.13307">
        <ele>24.3</ele>
        <time>2026-05-14T12:31:25Z</time>
      </trkpt>
      <trkpt lat="43.64359" lon="7.13311">
        <ele>23.9</ele>
        <time>2026-05-14T12:31:26Z</time>
      </trkpt>
      <trkpt lat="43.64369" lon="7.13316">
        <ele>23.8</ele>
        <time>2026-05-14T12:31:27Z</time>
      </trkpt>
      <trkpt lat="43.64378" lon="7.13322">
        <ele>24.1</ele>
        <time>2026-05-14T12:31:28Z</time>
      </trkpt>
      <trkpt lat="43.64387" lon="7.13329">
        <ele>24.9</ele>
        <time>2026-05-14T12:31:29Z</time>
      </trkpt>
      <trkpt lat="43.64395" lon="7.13335">
        <ele>25.8</ele>
        <time>2026-05-14T12:31:30Z</time>
      </trkpt>
      <trkpt lat="43.64403" lon="7.13343">
        <ele>26</ele>
        <time>2026-05-14T12:31:31Z</time>
      </trkpt>
      <trkpt lat="43.6441" lon="7.13353">
        <ele>25.2</ele>
        <time>2026-05-14T12:31:32Z</time>
      </trkpt>
      <trkpt lat="43.64417" lon="7.13364">
        <ele>23.9</ele>
        <time>2026-05-14T12:31:33Z</time>
      </trkpt>
      <trkpt lat="43.64424" lon="7.13376">
        <ele>24.1</ele>
        <time>2026-05-14T12:31:34Z</time>
      </trkpt>
      <trkpt lat="43.64432" lon="7.13391">
        <ele>23.4</ele>
        <time>2026-05-14T12:31:35Z</time>
      </trkpt>
      <trkpt lat="43.64439" lon="7.13407">
        <ele>22.4</ele>
        <time>2026-05-14T12:31:36Z</time>
      </trkpt>
      <trkpt lat="43.64446" lon="7.13423">
        <ele>21.3</ele>
        <time>2026-05-14T12:31:37Z</time>
      </trkpt>
      <trkpt lat="43.64453" lon="7.13439">
        <ele>20</ele>
        <time>2026-05-14T12:31:38Z</time>
      </trkpt>
      <trkpt lat="43.6446" lon="7.13455">
        <ele>19.2</ele>
        <time>2026-05-14T12:31:39Z</time>
      </trkpt>
      <trkpt lat="43.64467" lon="7.1347">
        <ele>19.2</ele>
        <time>2026-05-14T12:31:40Z</time>
      </trkpt>
      <trkpt lat="43.64475" lon="7.13484">
        <ele>18.1</ele>
        <time>2026-05-14T12:31:41Z</time>
      </trkpt>
      <trkpt lat="43.64483" lon="7.13498">
        <ele>16.8</ele>
        <time>2026-05-14T12:31:42Z</time>
      </trkpt>
      <trkpt lat="43.64491" lon="7.13511">
        <ele>16.5</ele>
        <time>2026-05-14T12:31:43Z</time>
      </trkpt>
      <trkpt lat="43.645" lon="7.13524">
        <ele>15.5</ele>
        <time>2026-05-14T12:31:44Z</time>
      </trkpt>
      <trkpt lat="43.64509" lon="7.13537">
        <ele>16.2</ele>
        <time>2026-05-14T12:31:45Z</time>
      </trkpt>
      <trkpt lat="43.64518" lon="7.1355">
        <ele>16</ele>
        <time>2026-05-14T12:31:46Z</time>
      </trkpt>
      <trkpt lat="43.64528" lon="7.13562">
        <ele>15.3</ele>
        <time>2026-05-14T12:31:47Z</time>
      </trkpt>
      <trkpt lat="43.64538" lon="7.13575">
        <ele>15</ele>
        <time>2026-05-14T12:31:48Z</time>
      </trkpt>
      <trkpt lat="43.64547" lon="7.13586">
        <ele>14.3</ele>
        <time>2026-05-14T12:31:49Z</time>
      </trkpt>
      <trkpt lat="43.64556" lon="7.13596">
        <ele>14.1</ele>
        <time>2026-05-14T12:31:50Z</time>
      </trkpt>
      <trkpt lat="43.64564" lon="7.13605">
        <ele>14</ele>
        <time>2026-05-14T12:31:51Z</time>
      </trkpt>
      <trkpt lat="43.64572" lon="7.13614">
        <ele>13.5</ele>
        <time>2026-05-14T12:31:52Z</time>
      </trkpt>
      <trkpt lat="43.64581" lon="7.13623">
        <ele>13.5</ele>
        <time>2026-05-14T12:31:53Z</time>
      </trkpt>
      <trkpt lat="43.64589" lon="7.13631">
        <ele>13.5</ele>
        <time>2026-05-14T12:31:54Z</time>
      </trkpt>
      <trkpt lat="43.64599" lon="7.13638">
        <ele>13.1</ele>
        <time>2026-05-14T12:31:55Z</time>
      </trkpt>
      <trkpt lat="43.64607" lon="7.13644">
        <ele>12.8</ele>
        <time>2026-05-14T12:31:56Z</time>
      </trkpt>
      <trkpt lat="43.64616" lon="7.13651">
        <ele>12.6</ele>
        <time>2026-05-14T12:31:57Z</time>
      </trkpt>
      <trkpt lat="43.64624" lon="7.13659">
        <ele>12.3</ele>
        <time>2026-05-14T12:31:58Z</time>
      </trkpt>
      <trkpt lat="43.64631" lon="7.13668">
        <ele>12</ele>
        <time>2026-05-14T12:31:59Z</time>
      </trkpt>
      <trkpt lat="43.64636" lon="7.13678">
        <ele>11.6</ele>
        <time>2026-05-14T12:32:00Z</time>
      </trkpt>
      <trkpt lat="43.64641" lon="7.13688">
        <ele>11.2</ele>
        <time>2026-05-14T12:32:01Z</time>
      </trkpt>
      <trkpt lat="43.64646" lon="7.137">
        <ele>10.9</ele>
        <time>2026-05-14T12:32:02Z</time>
      </trkpt>
      <trkpt lat="43.64652" lon="7.13711">
        <ele>10.7</ele>
        <time>2026-05-14T12:32:03Z</time>
      </trkpt>
      <trkpt lat="43.64658" lon="7.13722">
        <ele>10.3</ele>
        <time>2026-05-14T12:32:04Z</time>
      </trkpt>
      <trkpt lat="43.64666" lon="7.13734">
        <ele>10</ele>
        <time>2026-05-14T12:32:05Z</time>
      </trkpt>
      <trkpt lat="43.64676" lon="7.13745">
        <ele>9.1</ele>
        <time>2026-05-14T12:32:06Z</time>
      </trkpt>
      <trkpt lat="43.64685" lon="7.13756">
        <ele>8.2</ele>
        <time>2026-05-14T12:32:07Z</time>
      </trkpt>
      <trkpt lat="43.64694" lon="7.13768">
        <ele>7.7</ele>
        <time>2026-05-14T12:32:08Z</time>
      </trkpt>
      <trkpt lat="43.64702" lon="7.13779">
        <ele>7.2</ele>
        <time>2026-05-14T12:32:09Z</time>
      </trkpt>
      <trkpt lat="43.64709" lon="7.13789">
        <ele>6.8</ele>
        <time>2026-05-14T12:32:10Z</time>
      </trkpt>
      <trkpt lat="43.64716" lon="7.13797">
        <ele>6</ele>
        <time>2026-05-14T12:32:11Z</time>
      </trkpt>
      <trkpt lat="43.64723" lon="7.13804">
        <ele>5</ele>
        <time>2026-05-14T12:32:12Z</time>
      </trkpt>
      <trkpt lat="43.64731" lon="7.13808">
        <ele>4.9</ele>
        <time>2026-05-14T12:32:13Z</time>
      </trkpt>
      <trkpt lat="43.64739" lon="7.13809">
        <ele>4.6</ele>
        <time>2026-05-14T12:32:14Z</time>
      </trkpt>
      <trkpt lat="43.64749" lon="7.13808">
        <ele>4</ele>
        <time>2026-05-14T12:32:15Z</time>
      </trkpt>
      <trkpt lat="43.64758" lon="7.13804">
        <ele>4</ele>
        <time>2026-05-14T12:32:16Z</time>
      </trkpt>
      <trkpt lat="43.64766" lon="7.13796">
        <ele>4</ele>
        <time>2026-05-14T12:32:17Z</time>
      </trkpt>
      <trkpt lat="43.64774" lon="7.13787">
        <ele>4</ele>
        <time>2026-05-14T12:32:18Z</time>
      </trkpt>
      <trkpt lat="43.64781" lon="7.13775">
        <ele>3.8</ele>
        <time>2026-05-14T12:32:19Z</time>
      </trkpt>
      <trkpt lat="43.64788" lon="7.13764">
        <ele>3.8</ele>
        <time>2026-05-14T12:32:20Z</time>
      </trkpt>
      <trkpt lat="43.64794" lon="7.13754">
        <ele>4.1</ele>
        <time>2026-05-14T12:32:21Z</time>
      </trkpt>
      <trkpt lat="43.64799" lon="7.13744">
        <ele>4.3</ele>
        <time>2026-05-14T12:32:22Z</time>
      </trkpt>
      <trkpt lat="43.64804" lon="7.13736">
        <ele>4.1</ele>
        <time>2026-05-14T12:32:23Z</time>
      </trkpt>
      <trkpt lat="43.64807" lon="7.1373">
        <ele>3.9</ele>
        <time>2026-05-14T12:32:24Z</time>
      </trkpt>
      <trkpt lat="43.64809" lon="7.13724">
        <ele>3.8</ele>
        <time>2026-05-14T12:32:25Z</time>
      </trkpt>
      <trkpt lat="43.64811" lon="7.13719">
        <ele>3.8</ele>
        <time>2026-05-14T12:32:26Z</time>
      </trkpt>
      <trkpt lat="43.64812" lon="7.13715">
        <ele>3.9</ele>
        <time>2026-05-14T12:32:27Z</time>
      </trkpt>
      <trkpt lat="43.64813" lon="7.13711">
        <ele>4.1</ele>
        <time>2026-05-14T12:32:28Z</time>
      </trkpt>
      <trkpt lat="43.64816" lon="7.13706">
        <ele>4.3</ele>
        <time>2026-05-14T12:32:29Z</time>
      </trkpt>
      <trkpt lat="43.6482" lon="7.13699">
        <ele>4.7</ele>
        <time>2026-05-14T12:32:30Z</time>
      </trkpt>
      <trkpt lat="43.64825" lon="7.13692">
        <ele>5</ele>
        <time>2026-05-14T12:32:31Z</time>
      </trkpt>
      <trkpt lat="43.6483" lon="7.13683">
        <ele>5</ele>
        <time>2026-05-14T12:32:32Z</time>
      </trkpt>
      <trkpt lat="43.64836" lon="7.13675">
        <ele>5</ele>
        <time>2026-05-14T12:32:33Z</time>
      </trkpt>
      <trkpt lat="43.64843" lon="7.13668">
        <ele>5.3</ele>
        <time>2026-05-14T12:32:34Z</time>
      </trkpt>
      <trkpt lat="43.64852" lon="7.13662">
        <ele>5.6</ele>
        <time>2026-05-14T12:32:35Z</time>
      </trkpt>
      <trkpt lat="43.6486" lon="7.13654">
        <ele>5.5</ele>
        <time>2026-05-14T12:32:36Z</time>
      </trkpt>
      <trkpt lat="43.64868" lon="7.13646">
        <ele>5</ele>
        <time>2026-05-14T12:32:37Z</time>
      </trkpt>
      <trkpt lat="43.64877" lon="7.13636">
        <ele>5</ele>
        <time>2026-05-14T12:32:38Z</time>
      </trkpt>
      <trkpt lat="43.64884" lon="7.13627">
        <ele>4.9</ele>
        <time>2026-05-14T12:32:39Z</time>
      </trkpt>
      <trkpt lat="43.64893" lon="7.13617">
        <ele>5.1</ele>
        <time>2026-05-14T12:32:40Z</time>
      </trkpt>
      <trkpt lat="43.64901" lon="7.13607">
        <ele>5.4</ele>
        <time>2026-05-14T12:32:41Z</time>
      </trkpt>
      <trkpt lat="43.64909" lon="7.13596">
        <ele>5.7</ele>
        <time>2026-05-14T12:32:42Z</time>
      </trkpt>
      <trkpt lat="43.64916" lon="7.13585">
        <ele>6</ele>
        <time>2026-05-14T12:32:43Z</time>
      </trkpt>
      <trkpt lat="43.64922" lon="7.13573">
        <ele>5.6</ele>
        <time>2026-05-14T12:32:44Z</time>
      </trkpt>
      <trkpt lat="43.64928" lon="7.13559">
        <ele>5.4</ele>
        <time>2026-05-14T12:32:45Z</time>
      </trkpt>
      <trkpt lat="43.64932" lon="7.13546">
        <ele>5.4</ele>
        <time>2026-05-14T12:32:46Z</time>
      </trkpt>
      <trkpt lat="43.64937" lon="7.13531">
        <ele>5.5</ele>
        <time>2026-05-14T12:32:47Z</time>
      </trkpt>
      <trkpt lat="43.64939" lon="7.13515">
        <ele>5.6</ele>
        <time>2026-05-14T12:32:48Z</time>
      </trkpt>
      <trkpt lat="43.64941" lon="7.13499">
        <ele>5.8</ele>
        <time>2026-05-14T12:32:49Z</time>
      </trkpt>
      <trkpt lat="43.6494" lon="7.13482">
        <ele>5.8</ele>
        <time>2026-05-14T12:32:50Z</time>
      </trkpt>
      <trkpt lat="43.6494" lon="7.13466">
        <ele>5.9</ele>
        <time>2026-05-14T12:32:51Z</time>
      </trkpt>
      <trkpt lat="43.64939" lon="7.13449">
        <ele>6.3</ele>
        <time>2026-05-14T12:32:52Z</time>
      </trkpt>
      <trkpt lat="43.64937" lon="7.13433">
        <ele>7.1</ele>
        <time>2026-05-14T12:32:53Z</time>
      </trkpt>
      <trkpt lat="43.64935" lon="7.13416">
        <ele>8.3</ele>
        <time>2026-05-14T12:32:54Z</time>
      </trkpt>
      <trkpt lat="43.64933" lon="7.134">
        <ele>7.5</ele>
        <time>2026-05-14T12:32:55Z</time>
      </trkpt>
      <trkpt lat="43.64931" lon="7.13384">
        <ele>7.9</ele>
        <time>2026-05-14T12:32:56Z</time>
      </trkpt>
      <trkpt lat="43.64929" lon="7.13368">
        <ele>11</ele>
        <time>2026-05-14T12:32:57Z</time>
      </trkpt>
      <trkpt lat="43.64927" lon="7.13352">
        <ele>12.5</ele>
        <time>2026-05-14T12:32:58Z</time>
      </trkpt>
      <trkpt lat="43.64926" lon="7.13336">
        <ele>11.6</ele>
        <time>2026-05-14T12:32:59Z</time>
      </trkpt>
      <trkpt lat="43.64926" lon="7.1332">
        <ele>9.1</ele>
        <time>2026-05-14T12:33:00Z</time>
      </trkpt>
      <trkpt lat="43.64928" lon="7.13303">
        <ele>6.1</ele>
        <time>2026-05-14T12:33:01Z</time>
      </trkpt>
      <trkpt lat="43.6493" lon="7.13286">
        <ele>5.9</ele>
        <time>2026-05-14T12:33:02Z</time>
      </trkpt>
      <trkpt lat="43.64933" lon="7.13269">
        <ele>5.9</ele>
        <time>2026-05-14T12:33:03Z</time>
      </trkpt>
      <trkpt lat="43.64937" lon="7.13253">
        <ele>5.8</ele>
        <time>2026-05-14T12:33:04Z</time>
      </trkpt>
      <trkpt lat="43.64941" lon="7.13237">
        <ele>5.9</ele>
        <time>2026-05-14T12:33:05Z</time>
      </trkpt>
      <trkpt lat="43.64945" lon="7.13222">
        <ele>6</ele>
        <time>2026-05-14T12:33:06Z</time>
      </trkpt>
      <trkpt lat="43.64949" lon="7.13207">
        <ele>5.8</ele>
        <time>2026-05-14T12:33:07Z</time>
      </trkpt>
      <trkpt lat="43.64953" lon="7.13192">
        <ele>5.7</ele>
        <time>2026-05-14T12:33:08Z</time>
      </trkpt>
      <trkpt lat="43.64957" lon="7.13177">
        <ele>5.8</ele>
        <time>2026-05-14T12:33:09Z</time>
      </trkpt>
      <trkpt lat="43.64962" lon="7.13162">
        <ele>6</ele>
        <time>2026-05-14T12:33:10Z</time>
      </trkpt>
      <trkpt lat="43.64967" lon="7.13146">
        <ele>6</ele>
        <time>2026-05-14T12:33:11Z</time>
      </trkpt>
      <trkpt lat="43.64972" lon="7.13131">
        <ele>6</ele>
        <time>2026-05-14T12:33:12Z</time>
      </trkpt>
      <trkpt lat="43.64977" lon="7.13116">
        <ele>6</ele>
        <time>2026-05-14T12:33:13Z</time>
      </trkpt>
      <trkpt lat="43.64983" lon="7.13101">
        <ele>6</ele>
        <time>2026-05-14T12:33:14Z</time>
      </trkpt>
      <trkpt lat="43.64989" lon="7.13086">
        <ele>6</ele>
        <time>2026-05-14T12:33:15Z</time>
      </trkpt>
      <trkpt lat="43.64995" lon="7.13072">
        <ele>6.1</ele>
        <time>2026-05-14T12:33:16Z</time>
      </trkpt>
      <trkpt lat="43.65002" lon="7.13059">
        <ele>6</ele>
        <time>2026-05-14T12:33:17Z</time>
      </trkpt>
      <trkpt lat="43.6501" lon="7.13046">
        <ele>6</ele>
        <time>2026-05-14T12:33:18Z</time>
      </trkpt>
      <trkpt lat="43.65017" lon="7.13034">
        <ele>6</ele>
        <time>2026-05-14T12:33:19Z</time>
      </trkpt>
      <trkpt lat="43.65025" lon="7.13022">
        <ele>6.2</ele>
        <time>2026-05-14T12:33:20Z</time>
      </trkpt>
      <trkpt lat="43.65032" lon="7.13011">
        <ele>6.5</ele>
        <time>2026-05-14T12:33:21Z</time>
      </trkpt>
      <trkpt lat="43.65041" lon="7.13">
        <ele>6.5</ele>
        <time>2026-05-14T12:33:22Z</time>
      </trkpt>
      <trkpt lat="43.65049" lon="7.1299">
        <ele>6.4</ele>
        <time>2026-05-14T12:33:23Z</time>
      </trkpt>
      <trkpt lat="43.65058" lon="7.1298">
        <ele>6.7</ele>
        <time>2026-05-14T12:33:24Z</time>
      </trkpt>
      <trkpt lat="43.65068" lon="7.1297">
        <ele>6.5</ele>
        <time>2026-05-14T12:33:25Z</time>
      </trkpt>
      <trkpt lat="43.65078" lon="7.12961">
        <ele>6.4</ele>
        <time>2026-05-14T12:33:26Z</time>
      </trkpt>
      <trkpt lat="43.65087" lon="7.12951">
        <ele>6.8</ele>
        <time>2026-05-14T12:33:27Z</time>
      </trkpt>
      <trkpt lat="43.65097" lon="7.12942">
        <ele>7</ele>
        <time>2026-05-14T12:33:28Z</time>
      </trkpt>
      <trkpt lat="43.65107" lon="7.12933">
        <ele>6.9</ele>
        <time>2026-05-14T12:33:29Z</time>
      </trkpt>
      <trkpt lat="43.65117" lon="7.12924">
        <ele>7.2</ele>
        <time>2026-05-14T12:33:30Z</time>
      </trkpt>
      <trkpt lat="43.65127" lon="7.12915">
        <ele>7.5</ele>
        <time>2026-05-14T12:33:31Z</time>
      </trkpt>
      <trkpt lat="43.65137" lon="7.12906">
        <ele>7.6</ele>
        <time>2026-05-14T12:33:32Z</time>
      </trkpt>
      <trkpt lat="43.65146" lon="7.12897">
        <ele>7.7</ele>
        <time>2026-05-14T12:33:33Z</time>
      </trkpt>
      <trkpt lat="43.65155" lon="7.12889">
        <ele>8.2</ele>
        <time>2026-05-14T12:33:34Z</time>
      </trkpt>
      <trkpt lat="43.65163" lon="7.1288">
        <ele>8.5</ele>
        <time>2026-05-14T12:33:35Z</time>
      </trkpt>
      <trkpt lat="43.65171" lon="7.12872">
        <ele>8.5</ele>
        <time>2026-05-14T12:33:36Z</time>
      </trkpt>
      <trkpt lat="43.65177" lon="7.12863">
        <ele>8.4</ele>
        <time>2026-05-14T12:33:37Z</time>
      </trkpt>
      <trkpt lat="43.65183" lon="7.12855">
        <ele>8.5</ele>
        <time>2026-05-14T12:33:38Z</time>
      </trkpt>
      <trkpt lat="43.65189" lon="7.12848">
        <ele>8.7</ele>
        <time>2026-05-14T12:33:39Z</time>
      </trkpt>
      <trkpt lat="43.65194" lon="7.12842">
        <ele>9</ele>
        <time>2026-05-14T12:33:40Z</time>
      </trkpt>
      <trkpt lat="43.65198" lon="7.12835">
        <ele>9.1</ele>
        <time>2026-05-14T12:33:41Z</time>
      </trkpt>
      <trkpt lat="43.65202" lon="7.12828">
        <ele>9.1</ele>
        <time>2026-05-14T12:33:42Z</time>
      </trkpt>
      <trkpt lat="43.65206" lon="7.12822">
        <ele>9.2</ele>
        <time>2026-05-14T12:33:43Z</time>
      </trkpt>
      <trkpt lat="43.65209" lon="7.12817">
        <ele>9.2</ele>
        <time>2026-05-14T12:33:44Z</time>
      </trkpt>
      <trkpt lat="43.65212" lon="7.12812">
        <ele>9.3</ele>
        <time>2026-05-14T12:33:45Z</time>
      </trkpt>
      <trkpt lat="43.65214" lon="7.12807">
        <ele>9.4</ele>
        <time>2026-05-14T12:33:46Z</time>
      </trkpt>
      <trkpt lat="43.65216" lon="7.12804">
        <ele>9.6</ele>
        <time>2026-05-14T12:33:47Z</time>
      </trkpt>
      <trkpt lat="43.65218" lon="7.12801">
        <ele>9.8</ele>
        <time>2026-05-14T12:33:48Z</time>
      </trkpt>
      <trkpt lat="43.65222" lon="7.12796">
        <ele>10.3</ele>
        <time>2026-05-14T12:33:49Z</time>
      </trkpt>
      <trkpt lat="43.65227" lon="7.12791">
        <ele>10.5</ele>
        <time>2026-05-14T12:33:50Z</time>
      </trkpt>
      <trkpt lat="43.65232" lon="7.12785">
        <ele>10.7</ele>
        <time>2026-05-14T12:33:51Z</time>
      </trkpt>
      <trkpt lat="43.65237" lon="7.12776">
        <ele>11</ele>
        <time>2026-05-14T12:33:52Z</time>
      </trkpt>
      <trkpt lat="43.65242" lon="7.12765">
        <ele>11</ele>
        <time>2026-05-14T12:33:53Z</time>
      </trkpt>
      <trkpt lat="43.65249" lon="7.12753">
        <ele>11</ele>
        <time>2026-05-14T12:33:54Z</time>
      </trkpt>
      <trkpt lat="43.65257" lon="7.12739">
        <ele>11.3</ele>
        <time>2026-05-14T12:33:55Z</time>
      </trkpt>
      <trkpt lat="43.65266" lon="7.12724">
        <ele>11.2</ele>
        <time>2026-05-14T12:33:56Z</time>
      </trkpt>
      <trkpt lat="43.65275" lon="7.1271">
        <ele>10.8</ele>
        <time>2026-05-14T12:33:57Z</time>
      </trkpt>
      <trkpt lat="43.65285" lon="7.12695">
        <ele>10.7</ele>
        <time>2026-05-14T12:33:58Z</time>
      </trkpt>
      <trkpt lat="43.65296" lon="7.12681">
        <ele>11.3</ele>
        <time>2026-05-14T12:33:59Z</time>
      </trkpt>
      <trkpt lat="43.65306" lon="7.12668">
        <ele>10.9</ele>
        <time>2026-05-14T12:34:00Z</time>
      </trkpt>
      <trkpt lat="43.65317" lon="7.12656">
        <ele>11.4</ele>
        <time>2026-05-14T12:34:01Z</time>
      </trkpt>
      <trkpt lat="43.65328" lon="7.12645">
        <ele>11.2</ele>
        <time>2026-05-14T12:34:02Z</time>
      </trkpt>
      <trkpt lat="43.65339" lon="7.12634">
        <ele>11.4</ele>
        <time>2026-05-14T12:34:03Z</time>
      </trkpt>
      <trkpt lat="43.6535" lon="7.12624">
        <ele>11.6</ele>
        <time>2026-05-14T12:34:04Z</time>
      </trkpt>
      <trkpt lat="43.65362" lon="7.12615">
        <ele>10.8</ele>
        <time>2026-05-14T12:34:05Z</time>
      </trkpt>
      <trkpt lat="43.65374" lon="7.12605">
        <ele>10.7</ele>
        <time>2026-05-14T12:34:06Z</time>
      </trkpt>
      <trkpt lat="43.65386" lon="7.12595">
        <ele>10.5</ele>
        <time>2026-05-14T12:34:07Z</time>
      </trkpt>
      <trkpt lat="43.65397" lon="7.12584">
        <ele>10.4</ele>
        <time>2026-05-14T12:34:08Z</time>
      </trkpt>
      <trkpt lat="43.65407" lon="7.12574">
        <ele>10.6</ele>
        <time>2026-05-14T12:34:09Z</time>
      </trkpt>
      <trkpt lat="43.65417" lon="7.12563">
        <ele>10.5</ele>
        <time>2026-05-14T12:34:10Z</time>
      </trkpt>
      <trkpt lat="43.65427" lon="7.12552">
        <ele>11.5</ele>
        <time>2026-05-14T12:34:11Z</time>
      </trkpt>
      <trkpt lat="43.65437" lon="7.12541">
        <ele>12.4</ele>
        <time>2026-05-14T12:34:12Z</time>
      </trkpt>
      <trkpt lat="43.65449" lon="7.1253">
        <ele>11.5</ele>
        <time>2026-05-14T12:34:13Z</time>
      </trkpt>
      <trkpt lat="43.65459" lon="7.12519">
        <ele>12.5</ele>
        <time>2026-05-14T12:34:14Z</time>
      </trkpt>
      <trkpt lat="43.65468" lon="7.1251">
        <ele>11.7</ele>
        <time>2026-05-14T12:34:15Z</time>
      </trkpt>
      <trkpt lat="43.65476" lon="7.12502">
        <ele>10.8</ele>
        <time>2026-05-14T12:34:16Z</time>
      </trkpt>
      <trkpt lat="43.65483" lon="7.12494">
        <ele>11.8</ele>
        <time>2026-05-14T12:34:17Z</time>
      </trkpt>
      <trkpt lat="43.65492" lon="7.12486">
        <ele>11.8</ele>
        <time>2026-05-14T12:34:18Z</time>
      </trkpt>
      <trkpt lat="43.655" lon="7.12476">
        <ele>10.9</ele>
        <time>2026-05-14T12:34:19Z</time>
      </trkpt>
      <trkpt lat="43.6551" lon="7.12466">
        <ele>12.2</ele>
        <time>2026-05-14T12:34:20Z</time>
      </trkpt>
      <trkpt lat="43.6552" lon="7.12456">
        <ele>12.3</ele>
        <time>2026-05-14T12:34:21Z</time>
      </trkpt>
      <trkpt lat="43.65529" lon="7.12444">
        <ele>11.1</ele>
        <time>2026-05-14T12:34:22Z</time>
      </trkpt>
      <trkpt lat="43.65539" lon="7.12432">
        <ele>14</ele>
        <time>2026-05-14T12:34:23Z</time>
      </trkpt>
      <trkpt lat="43.65548" lon="7.12418">
        <ele>14.1</ele>
        <time>2026-05-14T12:34:24Z</time>
      </trkpt>
      <trkpt lat="43.65557" lon="7.12404">
        <ele>13.1</ele>
        <time>2026-05-14T12:34:25Z</time>
      </trkpt>
      <trkpt lat="43.65565" lon="7.1239">
        <ele>13.8</ele>
        <time>2026-05-14T12:34:26Z</time>
      </trkpt>
      <trkpt lat="43.65572" lon="7.12376">
        <ele>15.2</ele>
        <time>2026-05-14T12:34:27Z</time>
      </trkpt>
      <trkpt lat="43.65578" lon="7.12361">
        <ele>14.5</ele>
        <time>2026-05-14T12:34:28Z</time>
      </trkpt>
      <trkpt lat="43.65584" lon="7.12346">
        <ele>11</ele>
        <time>2026-05-14T12:34:29Z</time>
      </trkpt>
      <trkpt lat="43.65588" lon="7.1233">
        <ele>11.1</ele>
        <time>2026-05-14T12:34:30Z</time>
      </trkpt>
      <trkpt lat="43.65593" lon="7.12314">
        <ele>12</ele>
        <time>2026-05-14T12:34:31Z</time>
      </trkpt>
      <trkpt lat="43.65597" lon="7.12298">
        <ele>11.9</ele>
        <time>2026-05-14T12:34:32Z</time>
      </trkpt>
      <trkpt lat="43.65601" lon="7.12283">
        <ele>11.2</ele>
        <time>2026-05-14T12:34:33Z</time>
      </trkpt>
      <trkpt lat="43.65604" lon="7.12267">
        <ele>11</ele>
        <time>2026-05-14T12:34:34Z</time>
      </trkpt>
      <trkpt lat="43.65608" lon="7.12252">
        <ele>11.1</ele>
        <time>2026-05-14T12:34:35Z</time>
      </trkpt>
      <trkpt lat="43.65611" lon="7.12237">
        <ele>11</ele>
        <time>2026-05-14T12:34:36Z</time>
      </trkpt>
      <trkpt lat="43.65613" lon="7.12221">
        <ele>10.8</ele>
        <time>2026-05-14T12:34:37Z</time>
      </trkpt>
      <trkpt lat="43.65616" lon="7.12205">
        <ele>10.8</ele>
        <time>2026-05-14T12:34:38Z</time>
      </trkpt>
      <trkpt lat="43.65619" lon="7.12189">
        <ele>10.9</ele>
        <time>2026-05-14T12:34:39Z</time>
      </trkpt>
      <trkpt lat="43.65622" lon="7.12173">
        <ele>11.3</ele>
        <time>2026-05-14T12:34:40Z</time>
      </trkpt>
      <trkpt lat="43.65627" lon="7.12157">
        <ele>10.8</ele>
        <time>2026-05-14T12:34:41Z</time>
      </trkpt>
      <trkpt lat="43.6563" lon="7.12142">
        <ele>11.2</ele>
        <time>2026-05-14T12:34:42Z</time>
      </trkpt>
      <trkpt lat="43.65635" lon="7.12127">
        <ele>11.8</ele>
        <time>2026-05-14T12:34:43Z</time>
      </trkpt>
      <trkpt lat="43.65638" lon="7.12113">
        <ele>12</ele>
        <time>2026-05-14T12:34:44Z</time>
      </trkpt>
      <trkpt lat="43.65642" lon="7.121">
        <ele>11.8</ele>
        <time>2026-05-14T12:34:45Z</time>
      </trkpt>
      <trkpt lat="43.65646" lon="7.12087">
        <ele>11.7</ele>
        <time>2026-05-14T12:34:46Z</time>
      </trkpt>
      <trkpt lat="43.6565" lon="7.12074">
        <ele>11.7</ele>
        <time>2026-05-14T12:34:47Z</time>
      </trkpt>
      <trkpt lat="43.65654" lon="7.12061">
        <ele>11.9</ele>
        <time>2026-05-14T12:34:48Z</time>
      </trkpt>
      <trkpt lat="43.65658" lon="7.1205">
        <ele>12.2</ele>
        <time>2026-05-14T12:34:49Z</time>
      </trkpt>
      <trkpt lat="43.65662" lon="7.1204">
        <ele>12.8</ele>
        <time>2026-05-14T12:34:50Z</time>
      </trkpt>
      <trkpt lat="43.65667" lon="7.12034">
        <ele>13.6</ele>
        <time>2026-05-14T12:34:51Z</time>
      </trkpt>
      <trkpt lat="43.65674" lon="7.12031">
        <ele>13.8</ele>
        <time>2026-05-14T12:34:52Z</time>
      </trkpt>
      <trkpt lat="43.65681" lon="7.12032">
        <ele>13.7</ele>
        <time>2026-05-14T12:34:53Z</time>
      </trkpt>
      <trkpt lat="43.65686" lon="7.12037">
        <ele>13.3</ele>
        <time>2026-05-14T12:34:54Z</time>
      </trkpt>
      <trkpt lat="43.65691" lon="7.12047">
        <ele>12.6</ele>
        <time>2026-05-14T12:34:55Z</time>
      </trkpt>
      <trkpt lat="43.65695" lon="7.12059">
        <ele>11.7</ele>
        <time>2026-05-14T12:34:56Z</time>
      </trkpt>
      <trkpt lat="43.65699" lon="7.12073">
        <ele>10.7</ele>
        <time>2026-05-14T12:34:57Z</time>
      </trkpt>
      <trkpt lat="43.65704" lon="7.12088">
        <ele>9.8</ele>
        <time>2026-05-14T12:34:58Z</time>
      </trkpt>
      <trkpt lat="43.65709" lon="7.12102">
        <ele>9.3</ele>
        <time>2026-05-14T12:34:59Z</time>
      </trkpt>
      <trkpt lat="43.65713" lon="7.12115">
        <ele>9</ele>
        <time>2026-05-14T12:35:00Z</time>
      </trkpt>
      <trkpt lat="43.65717" lon="7.12129">
        <ele>9.4</ele>
        <time>2026-05-14T12:35:01Z</time>
      </trkpt>
      <trkpt lat="43.65722" lon="7.12141">
        <ele>10.1</ele>
        <time>2026-05-14T12:35:02Z</time>
      </trkpt>
      <trkpt lat="43.65726" lon="7.12152">
        <ele>10.7</ele>
        <time>2026-05-14T12:35:03Z</time>
      </trkpt>
      <trkpt lat="43.65729" lon="7.12161">
        <ele>11.4</ele>
        <time>2026-05-14T12:35:04Z</time>
      </trkpt>
      <trkpt lat="43.65731" lon="7.12169">
        <ele>12</ele>
        <time>2026-05-14T12:35:05Z</time>
      </trkpt>
      <trkpt lat="43.65734" lon="7.12175">
        <ele>12.3</ele>
        <time>2026-05-14T12:35:06Z</time>
      </trkpt>
      <trkpt lat="43.65736" lon="7.12179">
        <ele>12.5</ele>
        <time>2026-05-14T12:35:07Z</time>
      </trkpt>
      <trkpt lat="43.65737" lon="7.12183">
        <ele>12.6</ele>
        <time>2026-05-14T12:35:08Z</time>
      </trkpt>
      <trkpt lat="43.65739" lon="7.12185">
        <ele>12.7</ele>
        <time>2026-05-14T12:35:09Z</time>
      </trkpt>
      <trkpt lat="43.65739" lon="7.12186">
        <ele>12.7</ele>
        <time>2026-05-14T12:35:10Z</time>
      </trkpt>
      <trkpt lat="43.6574" lon="7.12187">
        <ele>12.7</ele>
        <time>2026-05-14T12:35:11Z</time>
      </trkpt>
      <trkpt lat="43.65739" lon="7.12187">
        <ele>12.7</ele>
        <time>2026-05-14T12:35:12Z</time>
      </trkpt>
      <trkpt lat="43.65739" lon="7.12187">
        <ele>12.7</ele>
        <time>2026-05-14T12:35:13Z</time>
      </trkpt>
      <trkpt lat="43.65739" lon="7.12188">
        <ele>12.7</ele>
        <time>2026-05-14T12:35:14Z</time>
      </trkpt>
      <trkpt lat="43.65739" lon="7.12187">
        <ele>12.7</ele>
        <time>2026-05-14T12:35:15Z</time>
      </trkpt>
      <trkpt lat="43.65739" lon="7.12188">
        <ele>12.7</ele>
        <time>2026-05-14T12:35:16Z</time>
      </trkpt>
      <trkpt lat="43.65739" lon="7.12188">
        <ele>12.7</ele>
        <time>2026-05-14T12:35:17Z</time>
      </trkpt>
      <trkpt lat="43.65739" lon="7.12188">
        <ele>12.7</ele>
        <time>2026-05-14T12:35:18Z</time>
      </trkpt>
      <trkpt lat="43.6574" lon="7.12189">
        <ele>12.7</ele>
        <time>2026-05-14T12:35:19Z</time>
      </trkpt>
      <trkpt lat="43.65742" lon="7.12191">
        <ele>12.8</ele>
        <time>2026-05-14T12:35:20Z</time>
      </trkpt>
      <trkpt lat="43.65746" lon="7.12191">
        <ele>12.9</ele>
        <time>2026-05-14T12:35:21Z</time>
      </trkpt>
      <trkpt lat="43.6575" lon="7.12187">
        <ele>13.3</ele>
        <time>2026-05-14T12:35:22Z</time>
      </trkpt>
      <trkpt lat="43.65753" lon="7.12187">
        <ele>13.1</ele>
        <time>2026-05-14T12:35:23Z</time>
      </trkpt>
      <trkpt lat="43.65757" lon="7.12185">
        <ele>12.9</ele>
        <time>2026-05-14T12:35:24Z</time>
      </trkpt>
      <trkpt lat="43.65762" lon="7.12182">
        <ele>12.8</ele>
        <time>2026-05-14T12:35:25Z</time>
      </trkpt>
      <trkpt lat="43.65769" lon="7.1218">
        <ele>12.5</ele>
        <time>2026-05-14T12:35:26Z</time>
      </trkpt>
      <trkpt lat="43.65776" lon="7.12177">
        <ele>12.3</ele>
        <time>2026-05-14T12:35:27Z</time>
      </trkpt>
      <trkpt lat="43.65783" lon="7.12173">
        <ele>12.4</ele>
        <time>2026-05-14T12:35:28Z</time>
      </trkpt>
      <trkpt lat="43.65789" lon="7.1217">
        <ele>12.5</ele>
        <time>2026-05-14T12:35:29Z</time>
      </trkpt>
      <trkpt lat="43.65795" lon="7.12165">
        <ele>12.3</ele>
        <time>2026-05-14T12:35:30Z</time>
      </trkpt>
      <trkpt lat="43.65802" lon="7.12159">
        <ele>12.1</ele>
        <time>2026-05-14T12:35:31Z</time>
      </trkpt>
      <trkpt lat="43.65809" lon="7.12155">
        <ele>12.1</ele>
        <time>2026-05-14T12:35:32Z</time>
      </trkpt>
      <trkpt lat="43.65817" lon="7.12151">
        <ele>12.2</ele>
        <time>2026-05-14T12:35:33Z</time>
      </trkpt>
      <trkpt lat="43.65823" lon="7.12148">
        <ele>12.4</ele>
        <time>2026-05-14T12:35:34Z</time>
      </trkpt>
      <trkpt lat="43.65829" lon="7.12146">
        <ele>12.6</ele>
        <time>2026-05-14T12:35:35Z</time>
      </trkpt>
      <trkpt lat="43.65834" lon="7.12143">
        <ele>12.9</ele>
        <time>2026-05-14T12:35:36Z</time>
      </trkpt>
      <trkpt lat="43.6584" lon="7.12141">
        <ele>12.9</ele>
        <time>2026-05-14T12:35:37Z</time>
      </trkpt>
      <trkpt lat="43.65846" lon="7.12138">
        <ele>13</ele>
        <time>2026-05-14T12:35:38Z</time>
      </trkpt>
      <trkpt lat="43.65853" lon="7.12134">
        <ele>12.8</ele>
        <time>2026-05-14T12:35:39Z</time>
      </trkpt>
      <trkpt lat="43.6586" lon="7.12128">
        <ele>12.6</ele>
        <time>2026-05-14T12:35:40Z</time>
      </trkpt>
      <trkpt lat="43.65867" lon="7.12123">
        <ele>12.5</ele>
        <time>2026-05-14T12:35:41Z</time>
      </trkpt>
      <trkpt lat="43.65873" lon="7.12116">
        <ele>12.5</ele>
        <time>2026-05-14T12:35:42Z</time>
      </trkpt>
      <trkpt lat="43.65878" lon="7.1211">
        <ele>12.6</ele>
        <time>2026-05-14T12:35:43Z</time>
      </trkpt>
      <trkpt lat="43.65882" lon="7.12104">
        <ele>12.7</ele>
        <time>2026-05-14T12:35:44Z</time>
      </trkpt>
      <trkpt lat="43.65887" lon="7.12099">
        <ele>12.9</ele>
        <time>2026-05-14T12:35:45Z</time>
      </trkpt>
      <trkpt lat="43.65891" lon="7.12093">
        <ele>13.4</ele>
        <time>2026-05-14T12:35:46Z</time>
      </trkpt>
      <trkpt lat="43.65896" lon="7.12086">
        <ele>13.9</ele>
        <time>2026-05-14T12:35:47Z</time>
      </trkpt>
      <trkpt lat="43.65901" lon="7.1208">
        <ele>14.1</ele>
        <time>2026-05-14T12:35:48Z</time>
      </trkpt>
      <trkpt lat="43.65905" lon="7.12074">
        <ele>14.2</ele>
        <time>2026-05-14T12:35:49Z</time>
      </trkpt>
      <trkpt lat="43.65909" lon="7.12067">
        <ele>14.2</ele>
        <time>2026-05-14T12:35:50Z</time>
      </trkpt>
      <trkpt lat="43.65914" lon="7.1206">
        <ele>14.1</ele>
        <time>2026-05-14T12:35:51Z</time>
      </trkpt>
      <trkpt lat="43.65919" lon="7.12053">
        <ele>14.2</ele>
        <time>2026-05-14T12:35:52Z</time>
      </trkpt>
      <trkpt lat="43.65926" lon="7.12045">
        <ele>14.5</ele>
        <time>2026-05-14T12:35:53Z</time>
      </trkpt>
      <trkpt lat="43.65932" lon="7.12036">
        <ele>14.2</ele>
        <time>2026-05-14T12:35:54Z</time>
      </trkpt>
      <trkpt lat="43.6594" lon="7.12027">
        <ele>13.7</ele>
        <time>2026-05-14T12:35:55Z</time>
      </trkpt>
      <trkpt lat="43.65946" lon="7.12018">
        <ele>13.9</ele>
        <time>2026-05-14T12:35:56Z</time>
      </trkpt>
      <trkpt lat="43.65954" lon="7.1201">
        <ele>14.4</ele>
        <time>2026-05-14T12:35:57Z</time>
      </trkpt>
      <trkpt lat="43.65963" lon="7.12001">
        <ele>13.8</ele>
        <time>2026-05-14T12:35:58Z</time>
      </trkpt>
      <trkpt lat="43.65972" lon="7.11996">
        <ele>13.7</ele>
        <time>2026-05-14T12:35:59Z</time>
      </trkpt>
      <trkpt lat="43.65983" lon="7.11991">
        <ele>14.1</ele>
        <time>2026-05-14T12:36:00Z</time>
      </trkpt>
      <trkpt lat="43.65994" lon="7.11992">
        <ele>15.1</ele>
        <time>2026-05-14T12:36:01Z</time>
      </trkpt>
      <trkpt lat="43.66004" lon="7.11991">
        <ele>15.3</ele>
        <time>2026-05-14T12:36:02Z</time>
      </trkpt>
      <trkpt lat="43.66013" lon="7.11991">
        <ele>15.1</ele>
        <time>2026-05-14T12:36:03Z</time>
      </trkpt>
      <trkpt lat="43.66023" lon="7.11991">
        <ele>14.8</ele>
        <time>2026-05-14T12:36:04Z</time>
      </trkpt>
      <trkpt lat="43.66031" lon="7.1199">
        <ele>14.4</ele>
        <time>2026-05-14T12:36:05Z</time>
      </trkpt>
      <trkpt lat="43.66038" lon="7.11989">
        <ele>14</ele>
        <time>2026-05-14T12:36:06Z</time>
      </trkpt>
      <trkpt lat="43.66045" lon="7.11989">
        <ele>13.7</ele>
        <time>2026-05-14T12:36:07Z</time>
      </trkpt>
      <trkpt lat="43.66051" lon="7.11989">
        <ele>13.4</ele>
        <time>2026-05-14T12:36:08Z</time>
      </trkpt>
      <trkpt lat="43.66056" lon="7.11989">
        <ele>13.2</ele>
        <time>2026-05-14T12:36:09Z</time>
      </trkpt>
      <trkpt lat="43.66061" lon="7.11989">
        <ele>13.1</ele>
        <time>2026-05-14T12:36:10Z</time>
      </trkpt>
      <trkpt lat="43.66066" lon="7.11989">
        <ele>13</ele>
        <time>2026-05-14T12:36:11Z</time>
      </trkpt>
      <trkpt lat="43.66072" lon="7.11989">
        <ele>12.9</ele>
        <time>2026-05-14T12:36:12Z</time>
      </trkpt>
      <trkpt lat="43.66078" lon="7.11989">
        <ele>12.7</ele>
        <time>2026-05-14T12:36:13Z</time>
      </trkpt>
      <trkpt lat="43.66085" lon="7.11988">
        <ele>12.6</ele>
        <time>2026-05-14T12:36:14Z</time>
      </trkpt>
      <trkpt lat="43.66091" lon="7.11989">
        <ele>12.9</ele>
        <time>2026-05-14T12:36:15Z</time>
      </trkpt>
      <trkpt lat="43.66097" lon="7.11989">
        <ele>13.1</ele>
        <time>2026-05-14T12:36:16Z</time>
      </trkpt>
      <trkpt lat="43.66103" lon="7.11991">
        <ele>13.4</ele>
        <time>2026-05-14T12:36:17Z</time>
      </trkpt>
      <trkpt lat="43.6611" lon="7.11994">
        <ele>13.7</ele>
        <time>2026-05-14T12:36:18Z</time>
      </trkpt>
      <trkpt lat="43.66118" lon="7.11997">
        <ele>13.7</ele>
        <time>2026-05-14T12:36:19Z</time>
      </trkpt>
      <trkpt lat="43.66126" lon="7.12001">
        <ele>13.6</ele>
        <time>2026-05-14T12:36:20Z</time>
      </trkpt>
      <trkpt lat="43.66135" lon="7.12004">
        <ele>13.5</ele>
        <time>2026-05-14T12:36:21Z</time>
      </trkpt>
      <trkpt lat="43.66143" lon="7.12007">
        <ele>13.5</ele>
        <time>2026-05-14T12:36:22Z</time>
      </trkpt>
      <trkpt lat="43.66151" lon="7.12009">
        <ele>13.5</ele>
        <time>2026-05-14T12:36:23Z</time>
      </trkpt>
      <trkpt lat="43.66159" lon="7.1201">
        <ele>13.5</ele>
        <time>2026-05-14T12:36:24Z</time>
      </trkpt>
      <trkpt lat="43.66167" lon="7.12009">
        <ele>13.3</ele>
        <time>2026-05-14T12:36:25Z</time>
      </trkpt>
      <trkpt lat="43.66175" lon="7.12006">
        <ele>13.2</ele>
        <time>2026-05-14T12:36:26Z</time>
      </trkpt>
      <trkpt lat="43.66182" lon="7.12001">
        <ele>13</ele>
        <time>2026-05-14T12:36:27Z</time>
      </trkpt>
      <trkpt lat="43.6619" lon="7.11996">
        <ele>13</ele>
        <time>2026-05-14T12:36:28Z</time>
      </trkpt>
      <trkpt lat="43.66198" lon="7.11991">
        <ele>13.1</ele>
        <time>2026-05-14T12:36:29Z</time>
      </trkpt>
      <trkpt lat="43.66206" lon="7.11986">
        <ele>13.2</ele>
        <time>2026-05-14T12:36:30Z</time>
      </trkpt>
      <trkpt lat="43.66214" lon="7.1198">
        <ele>13.2</ele>
        <time>2026-05-14T12:36:31Z</time>
      </trkpt>
      <trkpt lat="43.66222" lon="7.11976">
        <ele>13.1</ele>
        <time>2026-05-14T12:36:32Z</time>
      </trkpt>
      <trkpt lat="43.6623" lon="7.11973">
        <ele>13</ele>
        <time>2026-05-14T12:36:33Z</time>
      </trkpt>
      <trkpt lat="43.66238" lon="7.1197">
        <ele>13</ele>
        <time>2026-05-14T12:36:34Z</time>
      </trkpt>
      <trkpt lat="43.66246" lon="7.11966">
        <ele>13</ele>
        <time>2026-05-14T12:36:35Z</time>
      </trkpt>
      <trkpt lat="43.66255" lon="7.11962">
        <ele>13</ele>
        <time>2026-05-14T12:36:36Z</time>
      </trkpt>
      <trkpt lat="43.66263" lon="7.11959">
        <ele>13</ele>
        <time>2026-05-14T12:36:37Z</time>
      </trkpt>
      <trkpt lat="43.66272" lon="7.11956">
        <ele>13</ele>
        <time>2026-05-14T12:36:38Z</time>
      </trkpt>
      <trkpt lat="43.6628" lon="7.11952">
        <ele>13.1</ele>
        <time>2026-05-14T12:36:39Z</time>
      </trkpt>
      <trkpt lat="43.66287" lon="7.1195">
        <ele>13.3</ele>
        <time>2026-05-14T12:36:40Z</time>
      </trkpt>
      <trkpt lat="43.66294" lon="7.11946">
        <ele>13.6</ele>
        <time>2026-05-14T12:36:41Z</time>
      </trkpt>
      <trkpt lat="43.66301" lon="7.11944">
        <ele>13.8</ele>
        <time>2026-05-14T12:36:42Z</time>
      </trkpt>
      <trkpt lat="43.66305" lon="7.11942">
        <ele>14</ele>
        <time>2026-05-14T12:36:43Z</time>
      </trkpt>
      <trkpt lat="43.66309" lon="7.11941">
        <ele>13.9</ele>
        <time>2026-05-14T12:36:44Z</time>
      </trkpt>
      <trkpt lat="43.66313" lon="7.1194">
        <ele>13.8</ele>
        <time>2026-05-14T12:36:45Z</time>
      </trkpt>
      <trkpt lat="43.66317" lon="7.11938">
        <ele>13.7</ele>
        <time>2026-05-14T12:36:46Z</time>
      </trkpt>
      <trkpt lat="43.66322" lon="7.11935">
        <ele>13.6</ele>
        <time>2026-05-14T12:36:47Z</time>
      </trkpt>
      <trkpt lat="43.66327" lon="7.1193">
        <ele>13.6</ele>
        <time>2026-05-14T12:36:48Z</time>
      </trkpt>
      <trkpt lat="43.66333" lon="7.11924">
        <ele>13.7</ele>
        <time>2026-05-14T12:36:49Z</time>
      </trkpt>
      <trkpt lat="43.66339" lon="7.11917">
        <ele>14</ele>
        <time>2026-05-14T12:36:50Z</time>
      </trkpt>
      <trkpt lat="43.66345" lon="7.1191">
        <ele>14</ele>
        <time>2026-05-14T12:36:51Z</time>
      </trkpt>
      <trkpt lat="43.66351" lon="7.11903">
        <ele>14</ele>
        <time>2026-05-14T12:36:52Z</time>
      </trkpt>
      <trkpt lat="43.66358" lon="7.11896">
        <ele>14</ele>
        <time>2026-05-14T12:36:53Z</time>
      </trkpt>
      <trkpt lat="43.66364" lon="7.11888">
        <ele>14</ele>
        <time>2026-05-14T12:36:54Z</time>
      </trkpt>
      <trkpt lat="43.66371" lon="7.11882">
        <ele>14</ele>
        <time>2026-05-14T12:36:55Z</time>
      </trkpt>
      <trkpt lat="43.66377" lon="7.11876">
        <ele>14</ele>
        <time>2026-05-14T12:36:56Z</time>
      </trkpt>
      <trkpt lat="43.66382" lon="7.1187">
        <ele>14</ele>
        <time>2026-05-14T12:36:57Z</time>
      </trkpt>
      <trkpt lat="43.66387" lon="7.11864">
        <ele>14</ele>
        <time>2026-05-14T12:36:58Z</time>
      </trkpt>
      <trkpt lat="43.66391" lon="7.1186">
        <ele>14.1</ele>
        <time>2026-05-14T12:36:59Z</time>
      </trkpt>
      <trkpt lat="43.66395" lon="7.11857">
        <ele>14.2</ele>
        <time>2026-05-14T12:37:00Z</time>
      </trkpt>
      <trkpt lat="43.66397" lon="7.11854">
        <ele>14.2</ele>
        <time>2026-05-14T12:37:01Z</time>
      </trkpt>
      <trkpt lat="43.664" lon="7.11851">
        <ele>14.3</ele>
        <time>2026-05-14T12:37:02Z</time>
      </trkpt>
      <trkpt lat="43.66402" lon="7.11849">
        <ele>14.3</ele>
        <time>2026-05-14T12:37:03Z</time>
      </trkpt>
      <trkpt lat="43.66404" lon="7.11847">
        <ele>14.3</ele>
        <time>2026-05-14T12:37:04Z</time>
      </trkpt>
      <trkpt lat="43.66406" lon="7.11845">
        <ele>14.3</ele>
        <time>2026-05-14T12:37:05Z</time>
      </trkpt>
      <trkpt lat="43.66408" lon="7.11842">
        <ele>14.2</ele>
        <time>2026-05-14T12:37:06Z</time>
      </trkpt>
      <trkpt lat="43.6641" lon="7.1184">
        <ele>14.2</ele>
        <time>2026-05-14T12:37:07Z</time>
      </trkpt>
      <trkpt lat="43.66412" lon="7.11838">
        <ele>14.1</ele>
        <time>2026-05-14T12:37:08Z</time>
      </trkpt>
      <trkpt lat="43.66414" lon="7.11837">
        <ele>14.1</ele>
        <time>2026-05-14T12:37:09Z</time>
      </trkpt>
      <trkpt lat="43.66415" lon="7.11836">
        <ele>14.1</ele>
        <time>2026-05-14T12:37:10Z</time>
      </trkpt>
      <trkpt lat="43.66415" lon="7.11835">
        <ele>14.1</ele>
        <time>2026-05-14T12:37:11Z</time>
      </trkpt>
      <trkpt lat="43.66415" lon="7.11835">
        <ele>14.1</ele>
        <time>2026-05-14T12:37:12Z</time>
      </trkpt>
      <trkpt lat="43.66415" lon="7.11836">
        <ele>14.1</ele>
        <time>2026-05-14T12:37:13Z</time>
      </trkpt>
      <trkpt lat="43.66415" lon="7.11836">
        <ele>14.1</ele>
        <time>2026-05-14T12:37:14Z</time>
      </trkpt>
      <trkpt lat="43.66414" lon="7.11837">
        <ele>14.1</ele>
        <time>2026-05-14T12:37:15Z</time>
      </trkpt>
      <trkpt lat="43.66414" lon="7.11837">
        <ele>14.1</ele>
        <time>2026-05-14T12:37:16Z</time>
      </trkpt>
      <trkpt lat="43.66414" lon="7.11837">
        <ele>14.1</ele>
        <time>2026-05-14T12:37:17Z</time>
      </trkpt>
      <trkpt lat="43.66414" lon="7.11837">
        <ele>14.1</ele>
        <time>2026-05-14T12:37:18Z</time>
      </trkpt>
      <trkpt lat="43.66414" lon="7.11837">
        <ele>14.1</ele>
        <time>2026-05-14T12:37:19Z</time>
      </trkpt>
      <trkpt lat="43.66414" lon="7.11837">
        <ele>14.1</ele>
        <time>2026-05-14T12:37:20Z</time>
      </trkpt>
      <trkpt lat="43.66414" lon="7.11837">
        <ele>14.1</ele>
        <time>2026-05-14T12:37:21Z</time>
      </trkpt>
      <trkpt lat="43.66414" lon="7.11837">
        <ele>14.1</ele>
        <time>2026-05-14T12:37:22Z</time>
      </trkpt>
      <trkpt lat="43.66414" lon="7.11837">
        <ele>14.1</ele>
        <time>2026-05-14T12:37:23Z</time>
      </trkpt>
      <trkpt lat="43.66414" lon="7.11837">
        <ele>14.1</ele>
        <time>2026-05-14T12:37:24Z</time>
      </trkpt>
      <trkpt lat="43.66414" lon="7.11837">
        <ele>14.1</ele>
        <time>2026-05-14T12:37:25Z</time>
      </trkpt>
      <trkpt lat="43.66414" lon="7.11837">
        <ele>14.1</ele>
        <time>2026-05-14T12:37:26Z</time>
      </trkpt>
      <trkpt lat="43.66414" lon="7.11837">
        <ele>14.1</ele>
        <time>2026-05-14T12:37:27Z</time>
      </trkpt>
      <trkpt lat="43.66414" lon="7.11837">
        <ele>14.1</ele>
        <time>2026-05-14T12:37:28Z</time>
      </trkpt>
      <trkpt lat="43.66414" lon="7.11837">
        <ele>14.1</ele>
        <time>2026-05-14T12:37:29Z</time>
      </trkpt>
      <trkpt lat="43.66414" lon="7.11837">
        <ele>14.1</ele>
        <time>2026-05-14T12:37:30Z</time>
      </trkpt>
      <trkpt lat="43.66414" lon="7.11837">
        <ele>14.1</ele>
        <time>2026-05-14T12:37:31Z</time>
      </trkpt>
      <trkpt lat="43.66414" lon="7.11837">
        <ele>14.1</ele>
        <time>2026-05-14T12:37:32Z</time>
      </trkpt>
      <trkpt lat="43.66414" lon="7.11837">
        <ele>14.1</ele>
        <time>2026-05-14T12:37:33Z</time>
      </trkpt>
      <trkpt lat="43.66414" lon="7.11837">
        <ele>14.1</ele>
        <time>2026-05-14T12:37:34Z</time>
      </trkpt>
      <trkpt lat="43.66414" lon="7.11837">
        <ele>14.1</ele>
        <time>2026-05-14T12:37:35Z</time>
      </trkpt>
      <trkpt lat="43.66414" lon="7.11837">
        <ele>14.1</ele>
        <time>2026-05-14T12:37:36Z</time>
      </trkpt>
      <trkpt lat="43.66414" lon="7.11837">
        <ele>14.1</ele>
        <time>2026-05-14T12:37:37Z</time>
      </trkpt>
      <trkpt lat="43.66414" lon="7.11837">
        <ele>14.1</ele>
        <time>2026-05-14T12:37:38Z</time>
      </trkpt>
      <trkpt lat="43.66414" lon="7.11837">
        <ele>14.1</ele>
        <time>2026-05-14T12:37:39Z</time>
      </trkpt>
      <trkpt lat="43.66414" lon="7.11837">
        <ele>14.1</ele>
        <time>2026-05-14T12:37:40Z</time>
      </trkpt>
      <trkpt lat="43.66414" lon="7.11837">
        <ele>14.1</ele>
        <time>2026-05-14T12:37:41Z</time>
      </trkpt>
      <trkpt lat="43.66414" lon="7.11837">
        <ele>14.1</ele>
        <time>2026-05-14T12:37:42Z</time>
      </trkpt>
      <trkpt lat="43.66414" lon="7.11837">
        <ele>14.1</ele>
        <time>2026-05-14T12:37:43Z</time>
      </trkpt>
      <trkpt lat="43.66414" lon="7.11837">
        <ele>14.1</ele>
        <time>2026-05-14T12:37:44Z</time>
      </trkpt>
      <trkpt lat="43.66414" lon="7.11837">
        <ele>14.1</ele>
        <time>2026-05-14T12:37:45Z</time>
      </trkpt>
      <trkpt lat="43.66414" lon="7.11837">
        <ele>14.1</ele>
        <time>2026-05-14T12:37:46Z</time>
      </trkpt>
      <trkpt lat="43.66414" lon="7.11837">
        <ele>14.1</ele>
        <time>2026-05-14T12:37:47Z</time>
      </trkpt>
      <trkpt lat="43.66414" lon="7.11837">
        <ele>14.1</ele>
        <time>2026-05-14T12:37:48Z</time>
      </trkpt>
      <trkpt lat="43.66414" lon="7.11837">
        <ele>14.1</ele>
        <time>2026-05-14T12:37:49Z</time>
      </trkpt>
      <trkpt lat="43.66414" lon="7.11837">
        <ele>14.1</ele>
        <time>2026-05-14T12:37:50Z</time>
      </trkpt>
      <trkpt lat="43.66414" lon="7.11837">
        <ele>14.1</ele>
        <time>2026-05-14T12:37:51Z</time>
      </trkpt>
      <trkpt lat="43.66414" lon="7.11837">
        <ele>14.1</ele>
        <time>2026-05-14T12:37:52Z</time>
      </trkpt>
      <trkpt lat="43.66414" lon="7.11837">
        <ele>14.1</ele>
        <time>2026-05-14T12:37:53Z</time>
      </trkpt>
      <trkpt lat="43.66414" lon="7.11837">
        <ele>14.1</ele>
        <time>2026-05-14T12:37:54Z</time>
      </trkpt>
      <trkpt lat="43.66414" lon="7.11837">
        <ele>14.1</ele>
        <time>2026-05-14T12:37:55Z</time>
      </trkpt>
      <trkpt lat="43.66414" lon="7.11837">
        <ele>14.1</ele>
        <time>2026-05-14T12:37:56Z</time>
      </trkpt>
      <trkpt lat="43.66414" lon="7.11837">
        <ele>14.1</ele>
        <time>2026-05-14T12:37:57Z</time>
      </trkpt>
      <trkpt lat="43.66414" lon="7.11837">
        <ele>14.1</ele>
        <time>2026-05-14T12:37:58Z</time>
      </trkpt>
      <trkpt lat="43.66414" lon="7.11837">
        <ele>14.1</ele>
        <time>2026-05-14T12:37:59Z</time>
      </trkpt>
      <trkpt lat="43.66414" lon="7.11837">
        <ele>14.1</ele>
        <time>2026-05-14T12:38:00Z</time>
      </trkpt>
      <trkpt lat="43.66414" lon="7.11837">
        <ele>14.1</ele>
        <time>2026-05-14T12:38:01Z</time>
      </trkpt>
      <trkpt lat="43.66414" lon="7.11837">
        <ele>14.1</ele>
        <time>2026-05-14T12:38:02Z</time>
      </trkpt>
      <trkpt lat="43.66414" lon="7.11837">
        <ele>14.1</ele>
        <time>2026-05-14T12:38:03Z</time>
      </trkpt>
      <trkpt lat="43.66414" lon="7.11837">
        <ele>14.1</ele>
        <time>2026-05-14T12:38:04Z</time>
      </trkpt>
      <trkpt lat="43.66414" lon="7.11837">
        <ele>14.1</ele>
        <time>2026-05-14T12:38:05Z</time>
      </trkpt>
      <trkpt lat="43.66414" lon="7.11837">
        <ele>14.1</ele>
        <time>2026-05-14T12:38:06Z</time>
      </trkpt>
      <trkpt lat="43.66414" lon="7.11837">
        <ele>14.1</ele>
        <time>2026-05-14T12:38:07Z</time>
      </trkpt>
      <trkpt lat="43.66414" lon="7.11837">
        <ele>14.1</ele>
        <time>2026-05-14T12:38:08Z</time>
      </trkpt>
      <trkpt lat="43.66414" lon="7.11837">
        <ele>14.1</ele>
        <time>2026-05-14T12:38:09Z</time>
      </trkpt>
      <trkpt lat="43.66414" lon="7.11837">
        <ele>14.1</ele>
        <time>2026-05-14T12:38:10Z</time>
      </trkpt>
      <trkpt lat="43.66414" lon="7.11837">
        <ele>14.1</ele>
        <time>2026-05-14T12:38:11Z</time>
      </trkpt>
      <trkpt lat="43.66414" lon="7.11837">
        <ele>14.1</ele>
        <time>2026-05-14T12:38:12Z</time>
      </trkpt>
      <trkpt lat="43.66414" lon="7.11837">
        <ele>14.1</ele>
        <time>2026-05-14T12:38:13Z</time>
      </trkpt>
      <trkpt lat="43.66414" lon="7.11837">
        <ele>14.1</ele>
        <time>2026-05-14T12:38:14Z</time>
      </trkpt>
      <trkpt lat="43.66414" lon="7.11837">
        <ele>14.1</ele>
        <time>2026-05-14T12:38:15Z</time>
      </trkpt>
      <trkpt lat="43.66414" lon="7.11837">
        <ele>14.1</ele>
        <time>2026-05-14T12:38:16Z</time>
      </trkpt>
      <trkpt lat="43.66414" lon="7.11837">
        <ele>14.1</ele>
        <time>2026-05-14T12:38:17Z</time>
      </trkpt>
      <trkpt lat="43.66414" lon="7.11837">
        <ele>14.1</ele>
        <time>2026-05-14T12:38:18Z</time>
      </trkpt>
      <trkpt lat="43.66414" lon="7.11837">
        <ele>14.1</ele>
        <time>2026-05-14T12:38:19Z</time>
      </trkpt>
      <trkpt lat="43.66414" lon="7.11837">
        <ele>14.1</ele>
        <time>2026-05-14T12:38:20Z</time>
      </trkpt>
      <trkpt lat="43.66414" lon="7.11837">
        <ele>14.1</ele>
        <time>2026-05-14T12:38:21Z</time>
      </trkpt>
      <trkpt lat="43.66414" lon="7.11837">
        <ele>14.1</ele>
        <time>2026-05-14T12:38:22Z</time>
      </trkpt>
      <trkpt lat="43.66414" lon="7.11837">
        <ele>14.1</ele>
        <time>2026-05-14T12:38:23Z</time>
      </trkpt>
      <trkpt lat="43.66414" lon="7.11837">
        <ele>14.1</ele>
        <time>2026-05-14T12:38:24Z</time>
      </trkpt>
      <trkpt lat="43.66414" lon="7.11837">
        <ele>14.1</ele>
        <time>2026-05-14T12:38:25Z</time>
      </trkpt>
      <trkpt lat="43.66414" lon="7.11837">
        <ele>14.1</ele>
        <time>2026-05-14T12:38:26Z</time>
      </trkpt>
      <trkpt lat="43.66414" lon="7.11837">
        <ele>14.1</ele>
        <time>2026-05-14T12:38:27Z</time>
      </trkpt>
      <trkpt lat="43.66414" lon="7.11837">
        <ele>14.1</ele>
        <time>2026-05-14T12:38:28Z</time>
      </trkpt>
      <trkpt lat="43.66414" lon="7.11837">
        <ele>14.1</ele>
        <time>2026-05-14T12:38:29Z</time>
      </trkpt>
      <trkpt lat="43.66414" lon="7.11837">
        <ele>14.1</ele>
        <time>2026-05-14T12:38:30Z</time>
      </trkpt>
      <trkpt lat="43.66414" lon="7.11837">
        <ele>14.1</ele>
        <time>2026-05-14T12:38:31Z</time>
      </trkpt>
      <trkpt lat="43.66414" lon="7.11837">
        <ele>14.1</ele>
        <time>2026-05-14T12:38:32Z</time>
      </trkpt>
      <trkpt lat="43.66414" lon="7.11837">
        <ele>14.1</ele>
        <time>2026-05-14T12:38:33Z</time>
      </trkpt>
      <trkpt lat="43.66414" lon="7.11837">
        <ele>14.1</ele>
        <time>2026-05-14T12:38:34Z</time>
      </trkpt>
      <trkpt lat="43.66414" lon="7.11837">
        <ele>14.1</ele>
        <time>2026-05-14T12:38:35Z</time>
      </trkpt>
      <trkpt lat="43.66414" lon="7.11837">
        <ele>14.1</ele>
        <time>2026-05-14T12:38:36Z</time>
      </trkpt>
      <trkpt lat="43.66414" lon="7.11837">
        <ele>14.1</ele>
        <time>2026-05-14T12:38:37Z</time>
      </trkpt>
      <trkpt lat="43.66414" lon="7.11837">
        <ele>14.1</ele>
        <time>2026-05-14T12:38:38Z</time>
      </trkpt>
      <trkpt lat="43.66414" lon="7.11837">
        <ele>14.1</ele>
        <time>2026-05-14T12:38:39Z</time>
      </trkpt>
      <trkpt lat="43.66414" lon="7.11837">
        <ele>14.1</ele>
        <time>2026-05-14T12:38:40Z</time>
      </trkpt>
      <trkpt lat="43.66414" lon="7.11837">
        <ele>14.1</ele>
        <time>2026-05-14T12:38:41Z</time>
      </trkpt>
      <trkpt lat="43.66414" lon="7.11837">
        <ele>14.1</ele>
        <time>2026-05-14T12:38:42Z</time>
      </trkpt>
      <trkpt lat="43.66414" lon="7.11837">
        <ele>14.1</ele>
        <time>2026-05-14T12:38:43Z</time>
      </trkpt>
      <trkpt lat="43.66414" lon="7.11837">
        <ele>14.1</ele>
        <time>2026-05-14T12:38:44Z</time>
      </trkpt>
      <trkpt lat="43.66414" lon="7.11837">
        <ele>14.1</ele>
        <time>2026-05-14T12:38:45Z</time>
      </trkpt>
      <trkpt lat="43.66414" lon="7.11837">
        <ele>14.1</ele>
        <time>2026-05-14T12:38:46Z</time>
      </trkpt>
      <trkpt lat="43.66414" lon="7.11837">
        <ele>14.1</ele>
        <time>2026-05-14T12:38:47Z</time>
      </trkpt>
      <trkpt lat="43.66414" lon="7.11837">
        <ele>14.1</ele>
        <time>2026-05-14T12:38:48Z</time>
      </trkpt>
      <trkpt lat="43.66414" lon="7.11837">
        <ele>14.1</ele>
        <time>2026-05-14T12:38:49Z</time>
      </trkpt>
      <trkpt lat="43.66414" lon="7.11837">
        <ele>14.1</ele>
        <time>2026-05-14T12:38:50Z</time>
      </trkpt>
      <trkpt lat="43.66414" lon="7.11837">
        <ele>14.1</ele>
        <time>2026-05-14T12:38:51Z</time>
      </trkpt>
      <trkpt lat="43.66414" lon="7.11837">
        <ele>14.1</ele>
        <time>2026-05-14T12:38:52Z</time>
      </trkpt>
      <trkpt lat="43.66414" lon="7.11837">
        <ele>14.1</ele>
        <time>2026-05-14T12:38:53Z</time>
      </trkpt>
      <trkpt lat="43.66414" lon="7.11837">
        <ele>14.1</ele>
        <time>2026-05-14T12:38:54Z</time>
      </trkpt>
      <trkpt lat="43.66415" lon="7.11837">
        <ele>14.1</ele>
        <time>2026-05-14T12:38:55Z</time>
      </trkpt>
      <trkpt lat="43.66417" lon="7.11834">
        <ele>14</ele>
        <time>2026-05-14T12:38:56Z</time>
      </trkpt>
      <trkpt lat="43.66423" lon="7.11827">
        <ele>14.2</ele>
        <time>2026-05-14T12:38:57Z</time>
      </trkpt>
      <trkpt lat="43.66428" lon="7.11821">
        <ele>14.4</ele>
        <time>2026-05-14T12:38:58Z</time>
      </trkpt>
      <trkpt lat="43.66434" lon="7.11814">
        <ele>14.6</ele>
        <time>2026-05-14T12:38:59Z</time>
      </trkpt>
      <trkpt lat="43.66439" lon="7.11808">
        <ele>14.8</ele>
        <time>2026-05-14T12:39:00Z</time>
      </trkpt>
      <trkpt lat="43.66444" lon="7.11802">
        <ele>14.9</ele>
        <time>2026-05-14T12:39:01Z</time>
      </trkpt>
      <trkpt lat="43.66449" lon="7.11797">
        <ele>14.9</ele>
        <time>2026-05-14T12:39:02Z</time>
      </trkpt>
      <trkpt lat="43.66455" lon="7.1179">
        <ele>14.8</ele>
        <time>2026-05-14T12:39:03Z</time>
      </trkpt>
      <trkpt lat="43.66462" lon="7.11783">
        <ele>14.8</ele>
        <time>2026-05-14T12:39:04Z</time>
      </trkpt>
      <trkpt lat="43.66469" lon="7.11775">
        <ele>14.8</ele>
        <time>2026-05-14T12:39:05Z</time>
      </trkpt>
      <trkpt lat="43.66477" lon="7.11765">
        <ele>14.8</ele>
        <time>2026-05-14T12:39:06Z</time>
      </trkpt>
      <trkpt lat="43.66485" lon="7.11756">
        <ele>14.8</ele>
        <time>2026-05-14T12:39:07Z</time>
      </trkpt>
      <trkpt lat="43.66493" lon="7.11747">
        <ele>14.6</ele>
        <time>2026-05-14T12:39:08Z</time>
      </trkpt>
      <trkpt lat="43.66502" lon="7.11741">
        <ele>14.7</ele>
        <time>2026-05-14T12:39:09Z</time>
      </trkpt>
      <trkpt lat="43.6651" lon="7.11736">
        <ele>14.9</ele>
        <time>2026-05-14T12:39:10Z</time>
      </trkpt>
      <trkpt lat="43.66518" lon="7.11732">
        <ele>15</ele>
        <time>2026-05-14T12:39:11Z</time>
      </trkpt>
      <trkpt lat="43.66524" lon="7.11728">
        <ele>15.1</ele>
        <time>2026-05-14T12:39:12Z</time>
      </trkpt>
      <trkpt lat="43.66531" lon="7.11725">
        <ele>15.2</ele>
        <time>2026-05-14T12:39:13Z</time>
      </trkpt>
      <trkpt lat="43.66538" lon="7.1172">
        <ele>15.3</ele>
        <time>2026-05-14T12:39:14Z</time>
      </trkpt>
      <trkpt lat="43.66546" lon="7.11715">
        <ele>15.4</ele>
        <time>2026-05-14T12:39:15Z</time>
      </trkpt>
      <trkpt lat="43.66554" lon="7.11708">
        <ele>15.4</ele>
        <time>2026-05-14T12:39:16Z</time>
      </trkpt>
      <trkpt lat="43.66563" lon="7.11701">
        <ele>15.5</ele>
        <time>2026-05-14T12:39:17Z</time>
      </trkpt>
      <trkpt lat="43.66571" lon="7.11693">
        <ele>15.5</ele>
        <time>2026-05-14T12:39:18Z</time>
      </trkpt>
      <trkpt lat="43.66578" lon="7.11685">
        <ele>15.5</ele>
        <time>2026-05-14T12:39:19Z</time>
      </trkpt>
      <trkpt lat="43.66586" lon="7.11677">
        <ele>15.5</ele>
        <time>2026-05-14T12:39:20Z</time>
      </trkpt>
      <trkpt lat="43.66593" lon="7.11667">
        <ele>15.4</ele>
        <time>2026-05-14T12:39:21Z</time>
      </trkpt>
      <trkpt lat="43.666" lon="7.11658">
        <ele>15.7</ele>
        <time>2026-05-14T12:39:22Z</time>
      </trkpt>
      <trkpt lat="43.66606" lon="7.1165">
        <ele>15.9</ele>
        <time>2026-05-14T12:39:23Z</time>
      </trkpt>
      <trkpt lat="43.66612" lon="7.11642">
        <ele>16</ele>
        <time>2026-05-14T12:39:24Z</time>
      </trkpt>
      <trkpt lat="43.66616" lon="7.11636">
        <ele>16.2</ele>
        <time>2026-05-14T12:39:25Z</time>
      </trkpt>
      <trkpt lat="43.6662" lon="7.1163">
        <ele>16.3</ele>
        <time>2026-05-14T12:39:26Z</time>
      </trkpt>
      <trkpt lat="43.66624" lon="7.11624">
        <ele>16.5</ele>
        <time>2026-05-14T12:39:27Z</time>
      </trkpt>
      <trkpt lat="43.66629" lon="7.11616">
        <ele>16.6</ele>
        <time>2026-05-14T12:39:28Z</time>
      </trkpt>
      <trkpt lat="43.66635" lon="7.11607">
        <ele>16.9</ele>
        <time>2026-05-14T12:39:29Z</time>
      </trkpt>
      <trkpt lat="43.66642" lon="7.11596">
        <ele>17.4</ele>
        <time>2026-05-14T12:39:30Z</time>
      </trkpt>
      <trkpt lat="43.66649" lon="7.11585">
        <ele>18.1</ele>
        <time>2026-05-14T12:39:31Z</time>
      </trkpt>
      <trkpt lat="43.66656" lon="7.11575">
        <ele>18.7</ele>
        <time>2026-05-14T12:39:32Z</time>
      </trkpt>
      <trkpt lat="43.66663" lon="7.11565">
        <ele>19</ele>
        <time>2026-05-14T12:39:33Z</time>
      </trkpt>
      <trkpt lat="43.66669" lon="7.11557">
        <ele>19.4</ele>
        <time>2026-05-14T12:39:34Z</time>
      </trkpt>
      <trkpt lat="43.66675" lon="7.11549">
        <ele>19.7</ele>
        <time>2026-05-14T12:39:35Z</time>
      </trkpt>
      <trkpt lat="43.66681" lon="7.11543">
        <ele>19.9</ele>
        <time>2026-05-14T12:39:36Z</time>
      </trkpt>
      <trkpt lat="43.66687" lon="7.11536">
        <ele>20</ele>
        <time>2026-05-14T12:39:37Z</time>
      </trkpt>
      <trkpt lat="43.66696" lon="7.11527">
        <ele>20.5</ele>
        <time>2026-05-14T12:39:38Z</time>
      </trkpt>
      <trkpt lat="43.66706" lon="7.11518">
        <ele>22.2</ele>
        <time>2026-05-14T12:39:39Z</time>
      </trkpt>
      <trkpt lat="43.66717" lon="7.11508">
        <ele>22</ele>
        <time>2026-05-14T12:39:40Z</time>
      </trkpt>
      <trkpt lat="43.66727" lon="7.11499">
        <ele>20.8</ele>
        <time>2026-05-14T12:39:41Z</time>
      </trkpt>
      <trkpt lat="43.66738" lon="7.11491">
        <ele>21.5</ele>
        <time>2026-05-14T12:39:42Z</time>
      </trkpt>
      <trkpt lat="43.66747" lon="7.11484">
        <ele>21.3</ele>
        <time>2026-05-14T12:39:43Z</time>
      </trkpt>
      <trkpt lat="43.66755" lon="7.11479">
        <ele>20.9</ele>
        <time>2026-05-14T12:39:44Z</time>
      </trkpt>
      <trkpt lat="43.6676" lon="7.11476">
        <ele>20.6</ele>
        <time>2026-05-14T12:39:45Z</time>
      </trkpt>
      <trkpt lat="43.66766" lon="7.11475">
        <ele>20.9</ele>
        <time>2026-05-14T12:39:46Z</time>
      </trkpt>
      <trkpt lat="43.66772" lon="7.11473">
        <ele>20.8</ele>
        <time>2026-05-14T12:39:47Z</time>
      </trkpt>
      <trkpt lat="43.66781" lon="7.11472">
        <ele>21.2</ele>
        <time>2026-05-14T12:39:48Z</time>
      </trkpt>
      <trkpt lat="43.66791" lon="7.11469">
        <ele>21.3</ele>
        <time>2026-05-14T12:39:49Z</time>
      </trkpt>
      <trkpt lat="43.66802" lon="7.11465">
        <ele>21.2</ele>
        <time>2026-05-14T12:39:50Z</time>
      </trkpt>
      <trkpt lat="43.66812" lon="7.11461">
        <ele>21.2</ele>
        <time>2026-05-14T12:39:51Z</time>
      </trkpt>
      <trkpt lat="43.66822" lon="7.11455">
        <ele>20.5</ele>
        <time>2026-05-14T12:39:52Z</time>
      </trkpt>
      <trkpt lat="43.66832" lon="7.1145">
        <ele>19.7</ele>
        <time>2026-05-14T12:39:53Z</time>
      </trkpt>
      <trkpt lat="43.66841" lon="7.11445">
        <ele>18.7</ele>
        <time>2026-05-14T12:39:54Z</time>
      </trkpt>
      <trkpt lat="43.66849" lon="7.11439">
        <ele>18.6</ele>
        <time>2026-05-14T12:39:55Z</time>
      </trkpt>
      <trkpt lat="43.66855" lon="7.11434">
        <ele>18.5</ele>
        <time>2026-05-14T12:39:56Z</time>
      </trkpt>
      <trkpt lat="43.66861" lon="7.11428">
        <ele>18.2</ele>
        <time>2026-05-14T12:39:57Z</time>
      </trkpt>
      <trkpt lat="43.66867" lon="7.11422">
        <ele>18.4</ele>
        <time>2026-05-14T12:39:58Z</time>
      </trkpt>
      <trkpt lat="43.66874" lon="7.11415">
        <ele>18.2</ele>
        <time>2026-05-14T12:39:59Z</time>
      </trkpt>
      <trkpt lat="43.66881" lon="7.11407">
        <ele>18</ele>
        <time>2026-05-14T12:40:00Z</time>
      </trkpt>
      <trkpt lat="43.66889" lon="7.114">
        <ele>17.6</ele>
        <time>2026-05-14T12:40:01Z</time>
      </trkpt>
      <trkpt lat="43.669" lon="7.11395">
        <ele>16.8</ele>
        <time>2026-05-14T12:40:02Z</time>
      </trkpt>
      <trkpt lat="43.66909" lon="7.1139">
        <ele>16.1</ele>
        <time>2026-05-14T12:40:03Z</time>
      </trkpt>
      <trkpt lat="43.66919" lon="7.11383">
        <ele>16.1</ele>
        <time>2026-05-14T12:40:04Z</time>
      </trkpt>
      <trkpt lat="43.66928" lon="7.11374">
        <ele>16.2</ele>
        <time>2026-05-14T12:40:05Z</time>
      </trkpt>
      <trkpt lat="43.66936" lon="7.11364">
        <ele>16.1</ele>
        <time>2026-05-14T12:40:06Z</time>
      </trkpt>
      <trkpt lat="43.66944" lon="7.11354">
        <ele>16</ele>
        <time>2026-05-14T12:40:07Z</time>
      </trkpt>
      <trkpt lat="43.66952" lon="7.11344">
        <ele>16.4</ele>
        <time>2026-05-14T12:40:08Z</time>
      </trkpt>
      <trkpt lat="43.66959" lon="7.11334">
        <ele>16.5</ele>
        <time>2026-05-14T12:40:09Z</time>
      </trkpt>
      <trkpt lat="43.66965" lon="7.11326">
        <ele>16.5</ele>
        <time>2026-05-14T12:40:10Z</time>
      </trkpt>
      <trkpt lat="43.6697" lon="7.1132">
        <ele>16.5</ele>
        <time>2026-05-14T12:40:11Z</time>
      </trkpt>
      <trkpt lat="43.66975" lon="7.11316">
        <ele>16.4</ele>
        <time>2026-05-14T12:40:12Z</time>
      </trkpt>
      <trkpt lat="43.6698" lon="7.11312">
        <ele>16.2</ele>
        <time>2026-05-14T12:40:13Z</time>
      </trkpt>
      <trkpt lat="43.66985" lon="7.11309">
        <ele>16.1</ele>
        <time>2026-05-14T12:40:14Z</time>
      </trkpt>
      <trkpt lat="43.66989" lon="7.11305">
        <ele>16</ele>
        <time>2026-05-14T12:40:15Z</time>
      </trkpt>
      <trkpt lat="43.66991" lon="7.11301">
        <ele>16</ele>
        <time>2026-05-14T12:40:16Z</time>
      </trkpt>
      <trkpt lat="43.66993" lon="7.11296">
        <ele>16</ele>
        <time>2026-05-14T12:40:17Z</time>
      </trkpt>
      <trkpt lat="43.66992" lon="7.11292">
        <ele>16</ele>
        <time>2026-05-14T12:40:18Z</time>
      </trkpt>
      <trkpt lat="43.66989" lon="7.11286">
        <ele>16</ele>
        <time>2026-05-14T12:40:19Z</time>
      </trkpt>
      <trkpt lat="43.66985" lon="7.1128">
        <ele>16</ele>
        <time>2026-05-14T12:40:20Z</time>
      </trkpt>
      <trkpt lat="43.66979" lon="7.11272">
        <ele>16</ele>
        <time>2026-05-14T12:40:21Z</time>
      </trkpt>
      <trkpt lat="43.66972" lon="7.11262">
        <ele>16</ele>
        <time>2026-05-14T12:40:22Z</time>
      </trkpt>
      <trkpt lat="43.66966" lon="7.11252">
        <ele>16.2</ele>
        <time>2026-05-14T12:40:23Z</time>
      </trkpt>
      <trkpt lat="43.66959" lon="7.11243">
        <ele>16.6</ele>
        <time>2026-05-14T12:40:24Z</time>
      </trkpt>
      <trkpt lat="43.66951" lon="7.11232">
        <ele>16.9</ele>
        <time>2026-05-14T12:40:25Z</time>
      </trkpt>
      <trkpt lat="43.66944" lon="7.1122">
        <ele>17</ele>
        <time>2026-05-14T12:40:26Z</time>
      </trkpt>
      <trkpt lat="43.66937" lon="7.11205">
        <ele>17.1</ele>
        <time>2026-05-14T12:40:27Z</time>
      </trkpt>
      <trkpt lat="43.66929" lon="7.11191">
        <ele>17</ele>
        <time>2026-05-14T12:40:28Z</time>
      </trkpt>
      <trkpt lat="43.66921" lon="7.11176">
        <ele>17</ele>
        <time>2026-05-14T12:40:29Z</time>
      </trkpt>
      <trkpt lat="43.66914" lon="7.11161">
        <ele>17</ele>
        <time>2026-05-14T12:40:30Z</time>
      </trkpt>
      <trkpt lat="43.66908" lon="7.11146">
        <ele>17</ele>
        <time>2026-05-14T12:40:31Z</time>
      </trkpt>
      <trkpt lat="43.66904" lon="7.11131">
        <ele>17</ele>
        <time>2026-05-14T12:40:32Z</time>
      </trkpt>
      <trkpt lat="43.66903" lon="7.11116">
        <ele>17</ele>
        <time>2026-05-14T12:40:33Z</time>
      </trkpt>
      <trkpt lat="43.66904" lon="7.11102">
        <ele>17</ele>
        <time>2026-05-14T12:40:34Z</time>
      </trkpt>
      <trkpt lat="43.66907" lon="7.11091">
        <ele>17</ele>
        <time>2026-05-14T12:40:35Z</time>
      </trkpt>
      <trkpt lat="43.66914" lon="7.11081">
        <ele>17</ele>
        <time>2026-05-14T12:40:36Z</time>
      </trkpt>
      <trkpt lat="43.66921" lon="7.11073">
        <ele>17</ele>
        <time>2026-05-14T12:40:37Z</time>
      </trkpt>
      <trkpt lat="43.66928" lon="7.11065">
        <ele>17</ele>
        <time>2026-05-14T12:40:38Z</time>
      </trkpt>
      <trkpt lat="43.66937" lon="7.11056">
        <ele>17</ele>
        <time>2026-05-14T12:40:39Z</time>
      </trkpt>
      <trkpt lat="43.66944" lon="7.11046">
        <ele>17</ele>
        <time>2026-05-14T12:40:40Z</time>
      </trkpt>
      <trkpt lat="43.66951" lon="7.11037">
        <ele>17</ele>
        <time>2026-05-14T12:40:41Z</time>
      </trkpt>
      <trkpt lat="43.66957" lon="7.11026">
        <ele>17</ele>
        <time>2026-05-14T12:40:42Z</time>
      </trkpt>
      <trkpt lat="43.66962" lon="7.11014">
        <ele>17</ele>
        <time>2026-05-14T12:40:43Z</time>
      </trkpt>
      <trkpt lat="43.66967" lon="7.11002">
        <ele>17</ele>
        <time>2026-05-14T12:40:44Z</time>
      </trkpt>
      <trkpt lat="43.66972" lon="7.1099">
        <ele>17</ele>
        <time>2026-05-14T12:40:45Z</time>
      </trkpt>
      <trkpt lat="43.66977" lon="7.10976">
        <ele>17</ele>
        <time>2026-05-14T12:40:46Z</time>
      </trkpt>
      <trkpt lat="43.66981" lon="7.10964">
        <ele>17</ele>
        <time>2026-05-14T12:40:47Z</time>
      </trkpt>
      <trkpt lat="43.66986" lon="7.10952">
        <ele>17</ele>
        <time>2026-05-14T12:40:48Z</time>
      </trkpt>
      <trkpt lat="43.6699" lon="7.10941">
        <ele>17</ele>
        <time>2026-05-14T12:40:49Z</time>
      </trkpt>
      <trkpt lat="43.66994" lon="7.10931">
        <ele>17</ele>
        <time>2026-05-14T12:40:50Z</time>
      </trkpt>
      <trkpt lat="43.66999" lon="7.10921">
        <ele>17</ele>
        <time>2026-05-14T12:40:51Z</time>
      </trkpt>
      <trkpt lat="43.67004" lon="7.10911">
        <ele>17</ele>
        <time>2026-05-14T12:40:52Z</time>
      </trkpt>
      <trkpt lat="43.67009" lon="7.10901">
        <ele>17.2</ele>
        <time>2026-05-14T12:40:53Z</time>
      </trkpt>
      <trkpt lat="43.67015" lon="7.10891">
        <ele>17.5</ele>
        <time>2026-05-14T12:40:54Z</time>
      </trkpt>
      <trkpt lat="43.67022" lon="7.10882">
        <ele>17.6</ele>
        <time>2026-05-14T12:40:55Z</time>
      </trkpt>
      <trkpt lat="43.6703" lon="7.10876">
        <ele>17.5</ele>
        <time>2026-05-14T12:40:56Z</time>
      </trkpt>
      <trkpt lat="43.67039" lon="7.10872">
        <ele>17.2</ele>
        <time>2026-05-14T12:40:57Z</time>
      </trkpt>
      <trkpt lat="43.67048" lon="7.10868">
        <ele>17.1</ele>
        <time>2026-05-14T12:40:58Z</time>
      </trkpt>
      <trkpt lat="43.67057" lon="7.10864">
        <ele>17</ele>
        <time>2026-05-14T12:40:59Z</time>
      </trkpt>
      <trkpt lat="43.67067" lon="7.1086">
        <ele>17</ele>
        <time>2026-05-14T12:41:00Z</time>
      </trkpt>
      <trkpt lat="43.67076" lon="7.10856">
        <ele>17</ele>
        <time>2026-05-14T12:41:01Z</time>
      </trkpt>
      <trkpt lat="43.67086" lon="7.10853">
        <ele>17</ele>
        <time>2026-05-14T12:41:02Z</time>
      </trkpt>
      <trkpt lat="43.67095" lon="7.10849">
        <ele>17</ele>
        <time>2026-05-14T12:41:03Z</time>
      </trkpt>
      <trkpt lat="43.67104" lon="7.10847">
        <ele>17</ele>
        <time>2026-05-14T12:41:04Z</time>
      </trkpt>
      <trkpt lat="43.67113" lon="7.10844">
        <ele>17</ele>
        <time>2026-05-14T12:41:05Z</time>
      </trkpt>
      <trkpt lat="43.67122" lon="7.10842">
        <ele>17.3</ele>
        <time>2026-05-14T12:41:06Z</time>
      </trkpt>
      <trkpt lat="43.67131" lon="7.10841">
        <ele>17.5</ele>
        <time>2026-05-14T12:41:07Z</time>
      </trkpt>
      <trkpt lat="43.6714" lon="7.1084">
        <ele>17.8</ele>
        <time>2026-05-14T12:41:08Z</time>
      </trkpt>
      <trkpt lat="43.67148" lon="7.1084">
        <ele>17.8</ele>
        <time>2026-05-14T12:41:09Z</time>
      </trkpt>
      <trkpt lat="43.67157" lon="7.10843">
        <ele>17.7</ele>
        <time>2026-05-14T12:41:10Z</time>
      </trkpt>
      <trkpt lat="43.67166" lon="7.10846">
        <ele>17.5</ele>
        <time>2026-05-14T12:41:11Z</time>
      </trkpt>
      <trkpt lat="43.67175" lon="7.1085">
        <ele>17.4</ele>
        <time>2026-05-14T12:41:12Z</time>
      </trkpt>
      <trkpt lat="43.67184" lon="7.10855">
        <ele>17.2</ele>
        <time>2026-05-14T12:41:13Z</time>
      </trkpt>
      <trkpt lat="43.67192" lon="7.1086">
        <ele>17</ele>
        <time>2026-05-14T12:41:14Z</time>
      </trkpt>
      <trkpt lat="43.67201" lon="7.10865">
        <ele>17.2</ele>
        <time>2026-05-14T12:41:15Z</time>
      </trkpt>
      <trkpt lat="43.67209" lon="7.10869">
        <ele>17.5</ele>
        <time>2026-05-14T12:41:16Z</time>
      </trkpt>
      <trkpt lat="43.67218" lon="7.10873">
        <ele>17.8</ele>
        <time>2026-05-14T12:41:17Z</time>
      </trkpt>
      <trkpt lat="43.67228" lon="7.10877">
        <ele>18</ele>
        <time>2026-05-14T12:41:18Z</time>
      </trkpt>
      <trkpt lat="43.67237" lon="7.10882">
        <ele>18</ele>
        <time>2026-05-14T12:41:19Z</time>
      </trkpt>
      <trkpt lat="43.67248" lon="7.10886">
        <ele>18</ele>
        <time>2026-05-14T12:41:20Z</time>
      </trkpt>
      <trkpt lat="43.67259" lon="7.10889">
        <ele>18</ele>
        <time>2026-05-14T12:41:21Z</time>
      </trkpt>
      <trkpt lat="43.67271" lon="7.10893">
        <ele>18</ele>
        <time>2026-05-14T12:41:22Z</time>
      </trkpt>
      <trkpt lat="43.67283" lon="7.10896">
        <ele>18</ele>
        <time>2026-05-14T12:41:23Z</time>
      </trkpt>
      <trkpt lat="43.67294" lon="7.109">
        <ele>18</ele>
        <time>2026-05-14T12:41:24Z</time>
      </trkpt>
      <trkpt lat="43.67305" lon="7.10902">
        <ele>18</ele>
        <time>2026-05-14T12:41:25Z</time>
      </trkpt>
      <trkpt lat="43.67313" lon="7.10905">
        <ele>18</ele>
        <time>2026-05-14T12:41:26Z</time>
      </trkpt>
      <trkpt lat="43.6732" lon="7.10907">
        <ele>18</ele>
        <time>2026-05-14T12:41:27Z</time>
      </trkpt>
      <trkpt lat="43.67327" lon="7.10909">
        <ele>18</ele>
        <time>2026-05-14T12:41:28Z</time>
      </trkpt>
      <trkpt lat="43.67334" lon="7.10911">
        <ele>18</ele>
        <time>2026-05-14T12:41:29Z</time>
      </trkpt>
      <trkpt lat="43.67341" lon="7.10914">
        <ele>18</ele>
        <time>2026-05-14T12:41:30Z</time>
      </trkpt>
      <trkpt lat="43.67351" lon="7.10917">
        <ele>18</ele>
        <time>2026-05-14T12:41:31Z</time>
      </trkpt>
      <trkpt lat="43.67361" lon="7.1092">
        <ele>18</ele>
        <time>2026-05-14T12:41:32Z</time>
      </trkpt>
      <trkpt lat="43.67372" lon="7.10924">
        <ele>18</ele>
        <time>2026-05-14T12:41:33Z</time>
      </trkpt>
      <trkpt lat="43.67383" lon="7.10928">
        <ele>18</ele>
        <time>2026-05-14T12:41:34Z</time>
      </trkpt>
      <trkpt lat="43.67395" lon="7.10931">
        <ele>18</ele>
        <time>2026-05-14T12:41:35Z</time>
      </trkpt>
      <trkpt lat="43.67407" lon="7.10933">
        <ele>18</ele>
        <time>2026-05-14T12:41:36Z</time>
      </trkpt>
      <trkpt lat="43.67419" lon="7.10934">
        <ele>18</ele>
        <time>2026-05-14T12:41:37Z</time>
      </trkpt>
      <trkpt lat="43.67431" lon="7.10932">
        <ele>18.2</ele>
        <time>2026-05-14T12:41:38Z</time>
      </trkpt>
      <trkpt lat="43.67443" lon="7.10931">
        <ele>18.5</ele>
        <time>2026-05-14T12:41:39Z</time>
      </trkpt>
      <trkpt lat="43.67454" lon="7.1093">
        <ele>18.5</ele>
        <time>2026-05-14T12:41:40Z</time>
      </trkpt>
      <trkpt lat="43.67464" lon="7.10929">
        <ele>18.6</ele>
        <time>2026-05-14T12:41:41Z</time>
      </trkpt>
      <trkpt lat="43.67474" lon="7.10931">
        <ele>18.5</ele>
        <time>2026-05-14T12:41:42Z</time>
      </trkpt>
      <trkpt lat="43.67483" lon="7.10932">
        <ele>18.7</ele>
        <time>2026-05-14T12:41:43Z</time>
      </trkpt>
      <trkpt lat="43.6749" lon="7.10936">
        <ele>18.7</ele>
        <time>2026-05-14T12:41:44Z</time>
      </trkpt>
      <trkpt lat="43.67496" lon="7.10942">
        <ele>18.9</ele>
        <time>2026-05-14T12:41:45Z</time>
      </trkpt>
      <trkpt lat="43.67502" lon="7.10945">
        <ele>19.1</ele>
        <time>2026-05-14T12:41:46Z</time>
      </trkpt>
      <trkpt lat="43.67508" lon="7.10943">
        <ele>19.3</ele>
        <time>2026-05-14T12:41:47Z</time>
      </trkpt>
      <trkpt lat="43.67512" lon="7.10939">
        <ele>19.4</ele>
        <time>2026-05-14T12:41:48Z</time>
      </trkpt>
      <trkpt lat="43.67518" lon="7.10936">
        <ele>19.6</ele>
        <time>2026-05-14T12:41:49Z</time>
      </trkpt>
      <trkpt lat="43.67526" lon="7.10936">
        <ele>19.9</ele>
        <time>2026-05-14T12:41:50Z</time>
      </trkpt>
      <trkpt lat="43.67534" lon="7.10937">
        <ele>20.1</ele>
        <time>2026-05-14T12:41:51Z</time>
      </trkpt>
      <trkpt lat="43.67543" lon="7.10937">
        <ele>20.1</ele>
        <time>2026-05-14T12:41:52Z</time>
      </trkpt>
      <trkpt lat="43.67554" lon="7.10936">
        <ele>20.3</ele>
        <time>2026-05-14T12:41:53Z</time>
      </trkpt>
      <trkpt lat="43.67565" lon="7.10934">
        <ele>20.4</ele>
        <time>2026-05-14T12:41:54Z</time>
      </trkpt>
      <trkpt lat="43.67576" lon="7.1093">
        <ele>20.5</ele>
        <time>2026-05-14T12:41:55Z</time>
      </trkpt>
      <trkpt lat="43.67587" lon="7.10926">
        <ele>20.7</ele>
        <time>2026-05-14T12:41:56Z</time>
      </trkpt>
      <trkpt lat="43.67598" lon="7.10923">
        <ele>20.9</ele>
        <time>2026-05-14T12:41:57Z</time>
      </trkpt>
      <trkpt lat="43.67608" lon="7.10919">
        <ele>21</ele>
        <time>2026-05-14T12:41:58Z</time>
      </trkpt>
      <trkpt lat="43.67619" lon="7.10915">
        <ele>21.3</ele>
        <time>2026-05-14T12:41:59Z</time>
      </trkpt>
      <trkpt lat="43.67629" lon="7.10911">
        <ele>21.7</ele>
        <time>2026-05-14T12:42:00Z</time>
      </trkpt>
      <trkpt lat="43.67639" lon="7.10907">
        <ele>22</ele>
        <time>2026-05-14T12:42:01Z</time>
      </trkpt>
      <trkpt lat="43.67648" lon="7.10903">
        <ele>22.3</ele>
        <time>2026-05-14T12:42:02Z</time>
      </trkpt>
      <trkpt lat="43.67657" lon="7.10898">
        <ele>22.7</ele>
        <time>2026-05-14T12:42:03Z</time>
      </trkpt>
      <trkpt lat="43.67666" lon="7.10893">
        <ele>23</ele>
        <time>2026-05-14T12:42:04Z</time>
      </trkpt>
      <trkpt lat="43.67674" lon="7.10888">
        <ele>23.3</ele>
        <time>2026-05-14T12:42:05Z</time>
      </trkpt>
      <trkpt lat="43.67681" lon="7.10882">
        <ele>23.5</ele>
        <time>2026-05-14T12:42:06Z</time>
      </trkpt>
      <trkpt lat="43.67688" lon="7.10876">
        <ele>23.8</ele>
        <time>2026-05-14T12:42:07Z</time>
      </trkpt>
      <trkpt lat="43.67694" lon="7.10871">
        <ele>24</ele>
        <time>2026-05-14T12:42:08Z</time>
      </trkpt>
      <trkpt lat="43.67701" lon="7.10864">
        <ele>24.2</ele>
        <time>2026-05-14T12:42:09Z</time>
      </trkpt>
      <trkpt lat="43.67708" lon="7.10857">
        <ele>24.4</ele>
        <time>2026-05-14T12:42:10Z</time>
      </trkpt>
      <trkpt lat="43.67715" lon="7.10849">
        <ele>24.4</ele>
        <time>2026-05-14T12:42:11Z</time>
      </trkpt>
      <trkpt lat="43.67723" lon="7.10842">
        <ele>24.4</ele>
        <time>2026-05-14T12:42:12Z</time>
      </trkpt>
      <trkpt lat="43.67731" lon="7.10834">
        <ele>24.7</ele>
        <time>2026-05-14T12:42:13Z</time>
      </trkpt>
      <trkpt lat="43.67739" lon="7.10827">
        <ele>25.1</ele>
        <time>2026-05-14T12:42:14Z</time>
      </trkpt>
      <trkpt lat="43.67747" lon="7.10821">
        <ele>25.4</ele>
        <time>2026-05-14T12:42:15Z</time>
      </trkpt>
      <trkpt lat="43.67755" lon="7.10814">
        <ele>25.5</ele>
        <time>2026-05-14T12:42:16Z</time>
      </trkpt>
      <trkpt lat="43.67762" lon="7.10808">
        <ele>25.6</ele>
        <time>2026-05-14T12:42:17Z</time>
      </trkpt>
      <trkpt lat="43.67771" lon="7.10801">
        <ele>25.6</ele>
        <time>2026-05-14T12:42:18Z</time>
      </trkpt>
      <trkpt lat="43.67779" lon="7.10795">
        <ele>25.7</ele>
        <time>2026-05-14T12:42:19Z</time>
      </trkpt>
      <trkpt lat="43.67788" lon="7.10788">
        <ele>25.9</ele>
        <time>2026-05-14T12:42:20Z</time>
      </trkpt>
      <trkpt lat="43.67798" lon="7.10781">
        <ele>25.9</ele>
        <time>2026-05-14T12:42:21Z</time>
      </trkpt>
      <trkpt lat="43.67808" lon="7.10773">
        <ele>26.3</ele>
        <time>2026-05-14T12:42:22Z</time>
      </trkpt>
      <trkpt lat="43.67818" lon="7.10766">
        <ele>26.9</ele>
        <time>2026-05-14T12:42:23Z</time>
      </trkpt>
      <trkpt lat="43.67828" lon="7.10759">
        <ele>27.2</ele>
        <time>2026-05-14T12:42:24Z</time>
      </trkpt>
      <trkpt lat="43.67836" lon="7.10753">
        <ele>27.2</ele>
        <time>2026-05-14T12:42:25Z</time>
      </trkpt>
      <trkpt lat="43.67843" lon="7.10749">
        <ele>27.4</ele>
        <time>2026-05-14T12:42:26Z</time>
      </trkpt>
      <trkpt lat="43.67849" lon="7.10745">
        <ele>27.6</ele>
        <time>2026-05-14T12:42:27Z</time>
      </trkpt>
      <trkpt lat="43.67854" lon="7.10741">
        <ele>27.8</ele>
        <time>2026-05-14T12:42:28Z</time>
      </trkpt>
      <trkpt lat="43.6786" lon="7.10738">
        <ele>28</ele>
        <time>2026-05-14T12:42:29Z</time>
      </trkpt>
      <trkpt lat="43.67866" lon="7.10735">
        <ele>28.3</ele>
        <time>2026-05-14T12:42:30Z</time>
      </trkpt>
      <trkpt lat="43.67874" lon="7.10733">
        <ele>28.6</ele>
        <time>2026-05-14T12:42:31Z</time>
      </trkpt>
      <trkpt lat="43.67882" lon="7.10731">
        <ele>29</ele>
        <time>2026-05-14T12:42:32Z</time>
      </trkpt>
      <trkpt lat="43.67891" lon="7.10729">
        <ele>29.3</ele>
        <time>2026-05-14T12:42:33Z</time>
      </trkpt>
      <trkpt lat="43.679" lon="7.10728">
        <ele>29.3</ele>
        <time>2026-05-14T12:42:34Z</time>
      </trkpt>
      <trkpt lat="43.67908" lon="7.10727">
        <ele>29.3</ele>
        <time>2026-05-14T12:42:35Z</time>
      </trkpt>
      <trkpt lat="43.67917" lon="7.10723">
        <ele>29.1</ele>
        <time>2026-05-14T12:42:36Z</time>
      </trkpt>
      <trkpt lat="43.67925" lon="7.1072">
        <ele>29.1</ele>
        <time>2026-05-14T12:42:37Z</time>
      </trkpt>
      <trkpt lat="43.67932" lon="7.10717">
        <ele>29.3</ele>
        <time>2026-05-14T12:42:38Z</time>
      </trkpt>
      <trkpt lat="43.67938" lon="7.10715">
        <ele>29.5</ele>
        <time>2026-05-14T12:42:39Z</time>
      </trkpt>
      <trkpt lat="43.67944" lon="7.10713">
        <ele>29.7</ele>
        <time>2026-05-14T12:42:40Z</time>
      </trkpt>
      <trkpt lat="43.6795" lon="7.10711">
        <ele>30</ele>
        <time>2026-05-14T12:42:41Z</time>
      </trkpt>
      <trkpt lat="43.67957" lon="7.10708">
        <ele>30.5</ele>
        <time>2026-05-14T12:42:42Z</time>
      </trkpt>
      <trkpt lat="43.67965" lon="7.10704">
        <ele>30.8</ele>
        <time>2026-05-14T12:42:43Z</time>
      </trkpt>
      <trkpt lat="43.67974" lon="7.10701">
        <ele>31</ele>
        <time>2026-05-14T12:42:44Z</time>
      </trkpt>
      <trkpt lat="43.67983" lon="7.10698">
        <ele>31</ele>
        <time>2026-05-14T12:42:45Z</time>
      </trkpt>
      <trkpt lat="43.67992" lon="7.10695">
        <ele>31</ele>
        <time>2026-05-14T12:42:46Z</time>
      </trkpt>
      <trkpt lat="43.68002" lon="7.10692">
        <ele>31.2</ele>
        <time>2026-05-14T12:42:47Z</time>
      </trkpt>
      <trkpt lat="43.68011" lon="7.1069">
        <ele>31.5</ele>
        <time>2026-05-14T12:42:48Z</time>
      </trkpt>
      <trkpt lat="43.68021" lon="7.10687">
        <ele>31.8</ele>
        <time>2026-05-14T12:42:49Z</time>
      </trkpt>
      <trkpt lat="43.6803" lon="7.10684">
        <ele>32.1</ele>
        <time>2026-05-14T12:42:50Z</time>
      </trkpt>
      <trkpt lat="43.68039" lon="7.10681">
        <ele>32.6</ele>
        <time>2026-05-14T12:42:51Z</time>
      </trkpt>
      <trkpt lat="43.68048" lon="7.10678">
        <ele>33</ele>
        <time>2026-05-14T12:42:52Z</time>
      </trkpt>
      <trkpt lat="43.68057" lon="7.10676">
        <ele>33.4</ele>
        <time>2026-05-14T12:42:53Z</time>
      </trkpt>
      <trkpt lat="43.68065" lon="7.10674">
        <ele>33.5</ele>
        <time>2026-05-14T12:42:54Z</time>
      </trkpt>
      <trkpt lat="43.68072" lon="7.10672">
        <ele>33.7</ele>
        <time>2026-05-14T12:42:55Z</time>
      </trkpt>
      <trkpt lat="43.6808" lon="7.1067">
        <ele>33.9</ele>
        <time>2026-05-14T12:42:56Z</time>
      </trkpt>
      <trkpt lat="43.68087" lon="7.10669">
        <ele>34</ele>
        <time>2026-05-14T12:42:57Z</time>
      </trkpt>
      <trkpt lat="43.68096" lon="7.10667">
        <ele>34</ele>
        <time>2026-05-14T12:42:58Z</time>
      </trkpt>
      <trkpt lat="43.68105" lon="7.10665">
        <ele>34.1</ele>
        <time>2026-05-14T12:42:59Z</time>
      </trkpt>
      <trkpt lat="43.68114" lon="7.10664">
        <ele>34.3</ele>
        <time>2026-05-14T12:43:00Z</time>
      </trkpt>
      <trkpt lat="43.68123" lon="7.10663">
        <ele>34.6</ele>
        <time>2026-05-14T12:43:01Z</time>
      </trkpt>
      <trkpt lat="43.68133" lon="7.10661">
        <ele>35</ele>
        <time>2026-05-14T12:43:02Z</time>
      </trkpt>
      <trkpt lat="43.68142" lon="7.10659">
        <ele>35.5</ele>
        <time>2026-05-14T12:43:03Z</time>
      </trkpt>
      <trkpt lat="43.68151" lon="7.10655">
        <ele>36.2</ele>
        <time>2026-05-14T12:43:04Z</time>
      </trkpt>
      <trkpt lat="43.6816" lon="7.10649">
        <ele>36.5</ele>
        <time>2026-05-14T12:43:05Z</time>
      </trkpt>
      <trkpt lat="43.68167" lon="7.10641">
        <ele>36.2</ele>
        <time>2026-05-14T12:43:06Z</time>
      </trkpt>
      <trkpt lat="43.68174" lon="7.10633">
        <ele>37.5</ele>
        <time>2026-05-14T12:43:07Z</time>
      </trkpt>
      <trkpt lat="43.68179" lon="7.10624">
        <ele>38</ele>
        <time>2026-05-14T12:43:08Z</time>
      </trkpt>
      <trkpt lat="43.68184" lon="7.10614">
        <ele>37.6</ele>
        <time>2026-05-14T12:43:09Z</time>
      </trkpt>
      <trkpt lat="43.68189" lon="7.10604">
        <ele>37.7</ele>
        <time>2026-05-14T12:43:10Z</time>
      </trkpt>
      <trkpt lat="43.68193" lon="7.10593">
        <ele>38.3</ele>
        <time>2026-05-14T12:43:11Z</time>
      </trkpt>
      <trkpt lat="43.68198" lon="7.10582">
        <ele>39.5</ele>
        <time>2026-05-14T12:43:12Z</time>
      </trkpt>
      <trkpt lat="43.68203" lon="7.10572">
        <ele>42</ele>
        <time>2026-05-14T12:43:13Z</time>
      </trkpt>
      <trkpt lat="43.68208" lon="7.10563">
        <ele>43.2</ele>
        <time>2026-05-14T12:43:14Z</time>
      </trkpt>
      <trkpt lat="43.68213" lon="7.10556">
        <ele>43.3</ele>
        <time>2026-05-14T12:43:15Z</time>
      </trkpt>
      <trkpt lat="43.68219" lon="7.10549">
        <ele>43.3</ele>
        <time>2026-05-14T12:43:16Z</time>
      </trkpt>
      <trkpt lat="43.68227" lon="7.10542">
        <ele>43.8</ele>
        <time>2026-05-14T12:43:17Z</time>
      </trkpt>
      <trkpt lat="43.68235" lon="7.10535">
        <ele>44.3</ele>
        <time>2026-05-14T12:43:18Z</time>
      </trkpt>
      <trkpt lat="43.68245" lon="7.1053">
        <ele>43.6</ele>
        <time>2026-05-14T12:43:19Z</time>
      </trkpt>
      <trkpt lat="43.68252" lon="7.10524">
        <ele>43.8</ele>
        <time>2026-05-14T12:43:20Z</time>
      </trkpt>
      <trkpt lat="43.6826" lon="7.10518">
        <ele>45</ele>
        <time>2026-05-14T12:43:21Z</time>
      </trkpt>
      <trkpt lat="43.68267" lon="7.10511">
        <ele>45.8</ele>
        <time>2026-05-14T12:43:22Z</time>
      </trkpt>
      <trkpt lat="43.68274" lon="7.10503">
        <ele>46.1</ele>
        <time>2026-05-14T12:43:23Z</time>
      </trkpt>
      <trkpt lat="43.68283" lon="7.10495">
        <ele>46.6</ele>
        <time>2026-05-14T12:43:24Z</time>
      </trkpt>
      <trkpt lat="43.6829" lon="7.10487">
        <ele>47.5</ele>
        <time>2026-05-14T12:43:25Z</time>
      </trkpt>
      <trkpt lat="43.68298" lon="7.10479">
        <ele>48</ele>
        <time>2026-05-14T12:43:26Z</time>
      </trkpt>
      <trkpt lat="43.68304" lon="7.10472">
        <ele>48.2</ele>
        <time>2026-05-14T12:43:27Z</time>
      </trkpt>
      <trkpt lat="43.6831" lon="7.10464">
        <ele>49.8</ele>
        <time>2026-05-14T12:43:28Z</time>
      </trkpt>
      <trkpt lat="43.68316" lon="7.10457">
        <ele>50.8</ele>
        <time>2026-05-14T12:43:29Z</time>
      </trkpt>
      <trkpt lat="43.68322" lon="7.1045">
        <ele>51.6</ele>
        <time>2026-05-14T12:43:30Z</time>
      </trkpt>
      <trkpt lat="43.6833" lon="7.10442">
        <ele>52.3</ele>
        <time>2026-05-14T12:43:31Z</time>
      </trkpt>
      <trkpt lat="43.68337" lon="7.10435">
        <ele>53.8</ele>
        <time>2026-05-14T12:43:32Z</time>
      </trkpt>
      <trkpt lat="43.68345" lon="7.10426">
        <ele>55.3</ele>
        <time>2026-05-14T12:43:33Z</time>
      </trkpt>
      <trkpt lat="43.68352" lon="7.10418">
        <ele>55.7</ele>
        <time>2026-05-14T12:43:34Z</time>
      </trkpt>
      <trkpt lat="43.68359" lon="7.1041">
        <ele>56.1</ele>
        <time>2026-05-14T12:43:35Z</time>
      </trkpt>
      <trkpt lat="43.68364" lon="7.10403">
        <ele>57.2</ele>
        <time>2026-05-14T12:43:36Z</time>
      </trkpt>
      <trkpt lat="43.6837" lon="7.10397">
        <ele>58</ele>
        <time>2026-05-14T12:43:37Z</time>
      </trkpt>
      <trkpt lat="43.68374" lon="7.10391">
        <ele>58.8</ele>
        <time>2026-05-14T12:43:38Z</time>
      </trkpt>
      <trkpt lat="43.6838" lon="7.10387">
        <ele>58.4</ele>
        <time>2026-05-14T12:43:39Z</time>
      </trkpt>
      <trkpt lat="43.68384" lon="7.1038">
        <ele>58.2</ele>
        <time>2026-05-14T12:43:40Z</time>
      </trkpt>
      <trkpt lat="43.68387" lon="7.1037">
        <ele>58.1</ele>
        <time>2026-05-14T12:43:41Z</time>
      </trkpt>
      <trkpt lat="43.6839" lon="7.10359">
        <ele>58.2</ele>
        <time>2026-05-14T12:43:42Z</time>
      </trkpt>
      <trkpt lat="43.68395" lon="7.10349">
        <ele>59.2</ele>
        <time>2026-05-14T12:43:43Z</time>
      </trkpt>
      <trkpt lat="43.684" lon="7.10338">
        <ele>60.1</ele>
        <time>2026-05-14T12:43:44Z</time>
      </trkpt>
      <trkpt lat="43.68406" lon="7.10326">
        <ele>61.2</ele>
        <time>2026-05-14T12:43:45Z</time>
      </trkpt>
      <trkpt lat="43.68411" lon="7.10316">
        <ele>61.8</ele>
        <time>2026-05-14T12:43:46Z</time>
      </trkpt>
      <trkpt lat="43.68416" lon="7.10307">
        <ele>62</ele>
        <time>2026-05-14T12:43:47Z</time>
      </trkpt>
      <trkpt lat="43.6842" lon="7.10299">
        <ele>62.6</ele>
        <time>2026-05-14T12:43:48Z</time>
      </trkpt>
      <trkpt lat="43.68424" lon="7.10292">
        <ele>63.2</ele>
        <time>2026-05-14T12:43:49Z</time>
      </trkpt>
      <trkpt lat="43.68427" lon="7.10284">
        <ele>63.9</ele>
        <time>2026-05-14T12:43:50Z</time>
      </trkpt>
      <trkpt lat="43.68431" lon="7.10275">
        <ele>64.8</ele>
        <time>2026-05-14T12:43:51Z</time>
      </trkpt>
      <trkpt lat="43.68433" lon="7.10265">
        <ele>65.8</ele>
        <time>2026-05-14T12:43:52Z</time>
      </trkpt>
      <trkpt lat="43.68437" lon="7.10256">
        <ele>66.4</ele>
        <time>2026-05-14T12:43:53Z</time>
      </trkpt>
      <trkpt lat="43.68441" lon="7.10246">
        <ele>66.7</ele>
        <time>2026-05-14T12:43:54Z</time>
      </trkpt>
      <trkpt lat="43.68446" lon="7.10236">
        <ele>67</ele>
        <time>2026-05-14T12:43:55Z</time>
      </trkpt>
      <trkpt lat="43.68452" lon="7.10227">
        <ele>67.2</ele>
        <time>2026-05-14T12:43:56Z</time>
      </trkpt>
      <trkpt lat="43.68458" lon="7.10217">
        <ele>67.8</ele>
        <time>2026-05-14T12:43:57Z</time>
      </trkpt>
      <trkpt lat="43.68464" lon="7.10207">
        <ele>68.6</ele>
        <time>2026-05-14T12:43:58Z</time>
      </trkpt>
      <trkpt lat="43.68468" lon="7.10197">
        <ele>69.3</ele>
        <time>2026-05-14T12:43:59Z</time>
      </trkpt>
      <trkpt lat="43.68473" lon="7.10187">
        <ele>69.9</ele>
        <time>2026-05-14T12:44:00Z</time>
      </trkpt>
      <trkpt lat="43.68478" lon="7.10176">
        <ele>71.3</ele>
        <time>2026-05-14T12:44:01Z</time>
      </trkpt>
      <trkpt lat="43.68483" lon="7.10165">
        <ele>72.5</ele>
        <time>2026-05-14T12:44:02Z</time>
      </trkpt>
      <trkpt lat="43.68487" lon="7.10153">
        <ele>73.2</ele>
        <time>2026-05-14T12:44:03Z</time>
      </trkpt>
      <trkpt lat="43.6849" lon="7.10142">
        <ele>73.6</ele>
        <time>2026-05-14T12:44:04Z</time>
      </trkpt>
      <trkpt lat="43.68493" lon="7.10131">
        <ele>73.8</ele>
        <time>2026-05-14T12:44:05Z</time>
      </trkpt>
      <trkpt lat="43.68495" lon="7.1012">
        <ele>74</ele>
        <time>2026-05-14T12:44:06Z</time>
      </trkpt>
      <trkpt lat="43.68495" lon="7.10108">
        <ele>74.6</ele>
        <time>2026-05-14T12:44:07Z</time>
      </trkpt>
      <trkpt lat="43.68495" lon="7.10096">
        <ele>75.4</ele>
        <time>2026-05-14T12:44:08Z</time>
      </trkpt>
      <trkpt lat="43.68494" lon="7.10084">
        <ele>76.2</ele>
        <time>2026-05-14T12:44:09Z</time>
      </trkpt>
      <trkpt lat="43.68491" lon="7.10072">
        <ele>76.6</ele>
        <time>2026-05-14T12:44:10Z</time>
      </trkpt>
      <trkpt lat="43.6849" lon="7.10059">
        <ele>77</ele>
        <time>2026-05-14T12:44:11Z</time>
      </trkpt>
      <trkpt lat="43.68488" lon="7.10046">
        <ele>77.6</ele>
        <time>2026-05-14T12:44:12Z</time>
      </trkpt>
      <trkpt lat="43.68485" lon="7.10034">
        <ele>78.5</ele>
        <time>2026-05-14T12:44:13Z</time>
      </trkpt>
      <trkpt lat="43.68483" lon="7.10021">
        <ele>78.9</ele>
        <time>2026-05-14T12:44:14Z</time>
      </trkpt>
      <trkpt lat="43.6848" lon="7.10008">
        <ele>79.1</ele>
        <time>2026-05-14T12:44:15Z</time>
      </trkpt>
      <trkpt lat="43.68478" lon="7.09996">
        <ele>79.2</ele>
        <time>2026-05-14T12:44:16Z</time>
      </trkpt>
      <trkpt lat="43.68476" lon="7.09984">
        <ele>79.5</ele>
        <time>2026-05-14T12:44:17Z</time>
      </trkpt>
      <trkpt lat="43.68475" lon="7.09972">
        <ele>79.6</ele>
        <time>2026-05-14T12:44:18Z</time>
      </trkpt>
      <trkpt lat="43.68475" lon="7.09961">
        <ele>80.3</ele>
        <time>2026-05-14T12:44:19Z</time>
      </trkpt>
      <trkpt lat="43.68477" lon="7.09951">
        <ele>80.6</ele>
        <time>2026-05-14T12:44:20Z</time>
      </trkpt>
      <trkpt lat="43.68479" lon="7.09942">
        <ele>81</ele>
        <time>2026-05-14T12:44:21Z</time>
      </trkpt>
      <trkpt lat="43.68482" lon="7.09934">
        <ele>81.6</ele>
        <time>2026-05-14T12:44:22Z</time>
      </trkpt>
      <trkpt lat="43.68486" lon="7.09928">
        <ele>81.4</ele>
        <time>2026-05-14T12:44:23Z</time>
      </trkpt>
      <trkpt lat="43.68489" lon="7.09922">
        <ele>81.3</ele>
        <time>2026-05-14T12:44:24Z</time>
      </trkpt>
      <trkpt lat="43.68492" lon="7.09919">
        <ele>80.6</ele>
        <time>2026-05-14T12:44:25Z</time>
      </trkpt>
      <trkpt lat="43.68495" lon="7.09916">
        <ele>79.8</ele>
        <time>2026-05-14T12:44:26Z</time>
      </trkpt>
      <trkpt lat="43.68498" lon="7.09913">
        <ele>78.5</ele>
        <time>2026-05-14T12:44:27Z</time>
      </trkpt>
      <trkpt lat="43.68498" lon="7.09909">
        <ele>78.4</ele>
        <time>2026-05-14T12:44:28Z</time>
      </trkpt>
      <trkpt lat="43.68497" lon="7.09904">
        <ele>78.4</ele>
        <time>2026-05-14T12:44:29Z</time>
      </trkpt>
      <trkpt lat="43.68494" lon="7.099">
        <ele>79</ele>
        <time>2026-05-14T12:44:30Z</time>
      </trkpt>
      <trkpt lat="43.68488" lon="7.09895">
        <ele>80.2</ele>
        <time>2026-05-14T12:44:31Z</time>
      </trkpt>
      <trkpt lat="43.68481" lon="7.09889">
        <ele>81.1</ele>
        <time>2026-05-14T12:44:32Z</time>
      </trkpt>
      <trkpt lat="43.68473" lon="7.09884">
        <ele>82</ele>
        <time>2026-05-14T12:44:33Z</time>
      </trkpt>
      <trkpt lat="43.68465" lon="7.09879">
        <ele>83.2</ele>
        <time>2026-05-14T12:44:34Z</time>
      </trkpt>
      <trkpt lat="43.68457" lon="7.09875">
        <ele>84.6</ele>
        <time>2026-05-14T12:44:35Z</time>
      </trkpt>
      <trkpt lat="43.6845" lon="7.09872">
        <ele>85.9</ele>
        <time>2026-05-14T12:44:36Z</time>
      </trkpt>
      <trkpt lat="43.68442" lon="7.09869">
        <ele>87.3</ele>
        <time>2026-05-14T12:44:37Z</time>
      </trkpt>
      <trkpt lat="43.68434" lon="7.09867">
        <ele>88.7</ele>
        <time>2026-05-14T12:44:38Z</time>
      </trkpt>
      <trkpt lat="43.68428" lon="7.09865">
        <ele>89.8</ele>
        <time>2026-05-14T12:44:39Z</time>
      </trkpt>
      <trkpt lat="43.68423" lon="7.09862">
        <ele>90.5</ele>
        <time>2026-05-14T12:44:40Z</time>
      </trkpt>
      <trkpt lat="43.68418" lon="7.0986">
        <ele>91.5</ele>
        <time>2026-05-14T12:44:41Z</time>
      </trkpt>
      <trkpt lat="43.68415" lon="7.09856">
        <ele>91.6</ele>
        <time>2026-05-14T12:44:42Z</time>
      </trkpt>
      <trkpt lat="43.68411" lon="7.09851">
        <ele>91.7</ele>
        <time>2026-05-14T12:44:43Z</time>
      </trkpt>
      <trkpt lat="43.68406" lon="7.09846">
        <ele>92.2</ele>
        <time>2026-05-14T12:44:44Z</time>
      </trkpt>
      <trkpt lat="43.684" lon="7.09839">
        <ele>92.8</ele>
        <time>2026-05-14T12:44:45Z</time>
      </trkpt>
      <trkpt lat="43.68397" lon="7.0983">
        <ele>92.9</ele>
        <time>2026-05-14T12:44:46Z</time>
      </trkpt>
      <trkpt lat="43.68393" lon="7.09821">
        <ele>93.8</ele>
        <time>2026-05-14T12:44:47Z</time>
      </trkpt>
      <trkpt lat="43.68388" lon="7.09812">
        <ele>95.2</ele>
        <time>2026-05-14T12:44:48Z</time>
      </trkpt>
      <trkpt lat="43.68384" lon="7.09804">
        <ele>96</ele>
        <time>2026-05-14T12:44:49Z</time>
      </trkpt>
      <trkpt lat="43.6838" lon="7.09797">
        <ele>96.8</ele>
        <time>2026-05-14T12:44:50Z</time>
      </trkpt>
      <trkpt lat="43.68376" lon="7.09791">
        <ele>97.5</ele>
        <time>2026-05-14T12:44:51Z</time>
      </trkpt>
      <trkpt lat="43.68373" lon="7.09785">
        <ele>98</ele>
        <time>2026-05-14T12:44:52Z</time>
      </trkpt>
      <trkpt lat="43.68369" lon="7.0978">
        <ele>98.6</ele>
        <time>2026-05-14T12:44:53Z</time>
      </trkpt>
      <trkpt lat="43.68364" lon="7.09774">
        <ele>99.5</ele>
        <time>2026-05-14T12:44:54Z</time>
      </trkpt>
      <trkpt lat="43.68359" lon="7.0977">
        <ele>100.3</ele>
        <time>2026-05-14T12:44:55Z</time>
      </trkpt>
      <trkpt lat="43.68353" lon="7.09767">
        <ele>101.1</ele>
        <time>2026-05-14T12:44:56Z</time>
      </trkpt>
      <trkpt lat="43.68347" lon="7.09765">
        <ele>101.8</ele>
        <time>2026-05-14T12:44:57Z</time>
      </trkpt>
      <trkpt lat="43.68339" lon="7.09763">
        <ele>102.7</ele>
        <time>2026-05-14T12:44:58Z</time>
      </trkpt>
      <trkpt lat="43.68331" lon="7.09763">
        <ele>103.5</ele>
        <time>2026-05-14T12:44:59Z</time>
      </trkpt>
      <trkpt lat="43.68324" lon="7.09763">
        <ele>103.7</ele>
        <time>2026-05-14T12:45:00Z</time>
      </trkpt>
      <trkpt lat="43.68317" lon="7.09766">
        <ele>104.4</ele>
        <time>2026-05-14T12:45:01Z</time>
      </trkpt>
      <trkpt lat="43.6831" lon="7.09769">
        <ele>105.2</ele>
        <time>2026-05-14T12:45:02Z</time>
      </trkpt>
      <trkpt lat="43.68302" lon="7.0977">
        <ele>106</ele>
        <time>2026-05-14T12:45:03Z</time>
      </trkpt>
      <trkpt lat="43.68294" lon="7.09769">
        <ele>106.7</ele>
        <time>2026-05-14T12:45:04Z</time>
      </trkpt>
      <trkpt lat="43.68287" lon="7.09766">
        <ele>106.9</ele>
        <time>2026-05-14T12:45:05Z</time>
      </trkpt>
      <trkpt lat="43.68281" lon="7.09763">
        <ele>107</ele>
        <time>2026-05-14T12:45:06Z</time>
      </trkpt>
      <trkpt lat="43.68274" lon="7.09758">
        <ele>107.5</ele>
        <time>2026-05-14T12:45:07Z</time>
      </trkpt>
      <trkpt lat="43.68266" lon="7.09753">
        <ele>108.7</ele>
        <time>2026-05-14T12:45:08Z</time>
      </trkpt>
      <trkpt lat="43.6826" lon="7.09747">
        <ele>109</ele>
        <time>2026-05-14T12:45:09Z</time>
      </trkpt>
      <trkpt lat="43.68252" lon="7.09742">
        <ele>110.3</ele>
        <time>2026-05-14T12:45:10Z</time>
      </trkpt>
      <trkpt lat="43.68244" lon="7.09735">
        <ele>111.1</ele>
        <time>2026-05-14T12:45:11Z</time>
      </trkpt>
      <trkpt lat="43.68237" lon="7.09727">
        <ele>111.5</ele>
        <time>2026-05-14T12:45:12Z</time>
      </trkpt>
      <trkpt lat="43.6823" lon="7.09719">
        <ele>111.9</ele>
        <time>2026-05-14T12:45:13Z</time>
      </trkpt>
      <trkpt lat="43.68223" lon="7.09712">
        <ele>113</ele>
        <time>2026-05-14T12:45:14Z</time>
      </trkpt>
      <trkpt lat="43.68217" lon="7.09706">
        <ele>114</ele>
        <time>2026-05-14T12:45:15Z</time>
      </trkpt>
      <trkpt lat="43.68211" lon="7.09701">
        <ele>115.1</ele>
        <time>2026-05-14T12:45:16Z</time>
      </trkpt>
      <trkpt lat="43.68204" lon="7.09697">
        <ele>116.7</ele>
        <time>2026-05-14T12:45:17Z</time>
      </trkpt>
      <trkpt lat="43.68197" lon="7.09697">
        <ele>118.4</ele>
        <time>2026-05-14T12:45:18Z</time>
      </trkpt>
      <trkpt lat="43.6819" lon="7.097">
        <ele>119.6</ele>
        <time>2026-05-14T12:45:19Z</time>
      </trkpt>
      <trkpt lat="43.68183" lon="7.09704">
        <ele>120.6</ele>
        <time>2026-05-14T12:45:20Z</time>
      </trkpt>
      <trkpt lat="43.68177" lon="7.0971">
        <ele>121.5</ele>
        <time>2026-05-14T12:45:21Z</time>
      </trkpt>
      <trkpt lat="43.68171" lon="7.09716">
        <ele>122.4</ele>
        <time>2026-05-14T12:45:22Z</time>
      </trkpt>
      <trkpt lat="43.68165" lon="7.09722">
        <ele>123.2</ele>
        <time>2026-05-14T12:45:23Z</time>
      </trkpt>
      <trkpt lat="43.6816" lon="7.09729">
        <ele>123.9</ele>
        <time>2026-05-14T12:45:24Z</time>
      </trkpt>
      <trkpt lat="43.68154" lon="7.09735">
        <ele>124.6</ele>
        <time>2026-05-14T12:45:25Z</time>
      </trkpt>
      <trkpt lat="43.6815" lon="7.09739">
        <ele>125</ele>
        <time>2026-05-14T12:45:26Z</time>
      </trkpt>
      <trkpt lat="43.68146" lon="7.09743">
        <ele>125.4</ele>
        <time>2026-05-14T12:45:27Z</time>
      </trkpt>
      <trkpt lat="43.68142" lon="7.09746">
        <ele>125.8</ele>
        <time>2026-05-14T12:45:28Z</time>
      </trkpt>
      <trkpt lat="43.68138" lon="7.0975">
        <ele>126</ele>
        <time>2026-05-14T12:45:29Z</time>
      </trkpt>
      <trkpt lat="43.68134" lon="7.09753">
        <ele>126.3</ele>
        <time>2026-05-14T12:45:30Z</time>
      </trkpt>
      <trkpt lat="43.68132" lon="7.09755">
        <ele>126.4</ele>
        <time>2026-05-14T12:45:31Z</time>
      </trkpt>
      <trkpt lat="43.68129" lon="7.09758">
        <ele>126.5</ele>
        <time>2026-05-14T12:45:32Z</time>
      </trkpt>
      <trkpt lat="43.68126" lon="7.0976">
        <ele>126.7</ele>
        <time>2026-05-14T12:45:33Z</time>
      </trkpt>
      <trkpt lat="43.68124" lon="7.0976">
        <ele>126.7</ele>
        <time>2026-05-14T12:45:34Z</time>
      </trkpt>
      <trkpt lat="43.68121" lon="7.09761">
        <ele>126.8</ele>
        <time>2026-05-14T12:45:35Z</time>
      </trkpt>
      <trkpt lat="43.68117" lon="7.09761">
        <ele>126.9</ele>
        <time>2026-05-14T12:45:36Z</time>
      </trkpt>
      <trkpt lat="43.68114" lon="7.09761">
        <ele>126.9</ele>
        <time>2026-05-14T12:45:37Z</time>
      </trkpt>
      <trkpt lat="43.68111" lon="7.09761">
        <ele>127</ele>
        <time>2026-05-14T12:45:38Z</time>
      </trkpt>
      <trkpt lat="43.68108" lon="7.09761">
        <ele>126.9</ele>
        <time>2026-05-14T12:45:39Z</time>
      </trkpt>
      <trkpt lat="43.68105" lon="7.0976">
        <ele>126.8</ele>
        <time>2026-05-14T12:45:40Z</time>
      </trkpt>
      <trkpt lat="43.68102" lon="7.09759">
        <ele>126.7</ele>
        <time>2026-05-14T12:45:41Z</time>
      </trkpt>
      <trkpt lat="43.68099" lon="7.09758">
        <ele>126.6</ele>
        <time>2026-05-14T12:45:42Z</time>
      </trkpt>
      <trkpt lat="43.68096" lon="7.09757">
        <ele>126.5</ele>
        <time>2026-05-14T12:45:43Z</time>
      </trkpt>
      <trkpt lat="43.68093" lon="7.09757">
        <ele>126.3</ele>
        <time>2026-05-14T12:45:44Z</time>
      </trkpt>
      <trkpt lat="43.68091" lon="7.09757">
        <ele>126.3</ele>
        <time>2026-05-14T12:45:45Z</time>
      </trkpt>
      <trkpt lat="43.68088" lon="7.09759">
        <ele>126.2</ele>
        <time>2026-05-14T12:45:46Z</time>
      </trkpt>
      <trkpt lat="43.68087" lon="7.09762">
        <ele>126.1</ele>
        <time>2026-05-14T12:45:47Z</time>
      </trkpt>
      <trkpt lat="43.68086" lon="7.09766">
        <ele>126.1</ele>
        <time>2026-05-14T12:45:48Z</time>
      </trkpt>
      <trkpt lat="43.68087" lon="7.09769">
        <ele>126.1</ele>
        <time>2026-05-14T12:45:49Z</time>
      </trkpt>
      <trkpt lat="43.68087" lon="7.09771">
        <ele>126.1</ele>
        <time>2026-05-14T12:45:50Z</time>
      </trkpt>
      <trkpt lat="43.68088" lon="7.09772">
        <ele>126.2</ele>
        <time>2026-05-14T12:45:51Z</time>
      </trkpt>
      <trkpt lat="43.6809" lon="7.09772">
        <ele>126.2</ele>
        <time>2026-05-14T12:45:52Z</time>
      </trkpt>
      <trkpt lat="43.68091" lon="7.09772">
        <ele>126.3</ele>
        <time>2026-05-14T12:45:53Z</time>
      </trkpt>
      <trkpt lat="43.68091" lon="7.09772">
        <ele>126.3</ele>
        <time>2026-05-14T12:45:54Z</time>
      </trkpt>
      <trkpt lat="43.68091" lon="7.09772">
        <ele>126.3</ele>
        <time>2026-05-14T12:45:55Z</time>
      </trkpt>
      <trkpt lat="43.68091" lon="7.09771">
        <ele>126.3</ele>
        <time>2026-05-14T12:45:56Z</time>
      </trkpt>
      <trkpt lat="43.68091" lon="7.09771">
        <ele>126.3</ele>
        <time>2026-05-14T12:45:57Z</time>
      </trkpt>
      <trkpt lat="43.68091" lon="7.09771">
        <ele>126.3</ele>
        <time>2026-05-14T12:45:58Z</time>
      </trkpt>
      <trkpt lat="43.68092" lon="7.09771">
        <ele>126.3</ele>
        <time>2026-05-14T12:45:59Z</time>
      </trkpt>
      <trkpt lat="43.68092" lon="7.09771">
        <ele>126.3</ele>
        <time>2026-05-14T12:46:00Z</time>
      </trkpt>
      <trkpt lat="43.68092" lon="7.09771">
        <ele>126.3</ele>
        <time>2026-05-14T12:46:01Z</time>
      </trkpt>
      <trkpt lat="43.68092" lon="7.09771">
        <ele>126.3</ele>
        <time>2026-05-14T12:46:02Z</time>
      </trkpt>
      <trkpt lat="43.68092" lon="7.09771">
        <ele>126.3</ele>
        <time>2026-05-14T12:46:03Z</time>
      </trkpt>
      <trkpt lat="43.68092" lon="7.09771">
        <ele>126.3</ele>
        <time>2026-05-14T12:46:04Z</time>
      </trkpt>
      <trkpt lat="43.68092" lon="7.09771">
        <ele>126.3</ele>
        <time>2026-05-14T12:46:05Z</time>
      </trkpt>
      <trkpt lat="43.68092" lon="7.09771">
        <ele>126.3</ele>
        <time>2026-05-14T12:46:06Z</time>
      </trkpt>
      <trkpt lat="43.68092" lon="7.09771">
        <ele>126.3</ele>
        <time>2026-05-14T12:46:07Z</time>
      </trkpt>
      <trkpt lat="43.68092" lon="7.09771">
        <ele>126.3</ele>
        <time>2026-05-14T12:46:08Z</time>
      </trkpt>
      <trkpt lat="43.68092" lon="7.09771">
        <ele>126.3</ele>
        <time>2026-05-14T12:46:09Z</time>
      </trkpt>
      <trkpt lat="43.68092" lon="7.09771">
        <ele>126.3</ele>
        <time>2026-05-14T12:46:10Z</time>
      </trkpt>
      <trkpt lat="43.68092" lon="7.09771">
        <ele>126.3</ele>
        <time>2026-05-14T12:46:11Z</time>
      </trkpt>
      <trkpt lat="43.68092" lon="7.09771">
        <ele>126.3</ele>
        <time>2026-05-14T12:46:12Z</time>
      </trkpt>
      <trkpt lat="43.68092" lon="7.09771">
        <ele>126.3</ele>
        <time>2026-05-14T12:46:13Z</time>
      </trkpt>
      <trkpt lat="43.68092" lon="7.09771">
        <ele>126.3</ele>
        <time>2026-05-14T12:46:14Z</time>
      </trkpt>
      <trkpt lat="43.68083" lon="7.09764">
        <ele>126</ele>
        <time>2026-05-14T12:46:38Z</time>
      </trkpt>
      <trkpt lat="43.6809" lon="7.0977">
        <ele>126.2</ele>
        <time>2026-05-14T12:46:39Z</time>
      </trkpt>
      <trkpt lat="43.68092" lon="7.09771">
        <ele>126.3</ele>
        <time>2026-05-14T12:46:40Z</time>
      </trkpt>
      <trkpt lat="43.68092" lon="7.09771">
        <ele>126.3</ele>
        <time>2026-05-14T12:46:41Z</time>
      </trkpt>
      <trkpt lat="43.68091" lon="7.09771">
        <ele>126.3</ele>
        <time>2026-05-14T12:46:42Z</time>
      </trkpt>
      <trkpt lat="43.68091" lon="7.09771">
        <ele>126.3</ele>
        <time>2026-05-14T12:46:43Z</time>
      </trkpt>
      <trkpt lat="43.68091" lon="7.09771">
        <ele>126.3</ele>
        <time>2026-05-14T12:46:44Z</time>
      </trkpt>
      <trkpt lat="43.68091" lon="7.09771">
        <ele>126.3</ele>
        <time>2026-05-14T12:46:45Z</time>
      </trkpt>
      <trkpt lat="43.68091" lon="7.09771">
        <ele>126.3</ele>
        <time>2026-05-14T12:46:46Z</time>
      </trkpt>
      <trkpt lat="43.68091" lon="7.09771">
        <ele>126.3</ele>
        <time>2026-05-14T12:46:47Z</time>
      </trkpt>
      <trkpt lat="43.68091" lon="7.09771">
        <ele>126.3</ele>
        <time>2026-05-14T12:46:48Z</time>
      </trkpt>
      <trkpt lat="43.68091" lon="7.09771">
        <ele>126.3</ele>
        <time>2026-05-14T12:46:49Z</time>
      </trkpt>
      <trkpt lat="43.68091" lon="7.09771">
        <ele>126.3</ele>
        <time>2026-05-14T12:46:50Z</time>
      </trkpt>
      <trkpt lat="43.68091" lon="7.09771">
        <ele>126.3</ele>
        <time>2026-05-14T12:46:51Z</time>
      </trkpt>
      <trkpt lat="43.68091" lon="7.09771">
        <ele>126.3</ele>
        <time>2026-05-14T12:46:52Z</time>
      </trkpt>
      <trkpt lat="43.68091" lon="7.09771">
        <ele>126.3</ele>
        <time>2026-05-14T12:46:53Z</time>
      </trkpt>
      <trkpt lat="43.68091" lon="7.09771">
        <ele>126.3</ele>
        <time>2026-05-14T12:46:54Z</time>
      </trkpt>
      <trkpt lat="43.68091" lon="7.09771">
        <ele>126.3</ele>
        <time>2026-05-14T12:46:55Z</time>
      </trkpt>
      <trkpt lat="43.68091" lon="7.09771">
        <ele>126.3</ele>
        <time>2026-05-14T12:46:56Z</time>
      </trkpt>
      <trkpt lat="43.68091" lon="7.09771">
        <ele>126.3</ele>
        <time>2026-05-14T12:46:57Z</time>
      </trkpt>
      <trkpt lat="43.68091" lon="7.09771">
        <ele>126.3</ele>
        <time>2026-05-14T12:46:58Z</time>
      </trkpt>
      <trkpt lat="43.6809" lon="7.09765">
        <ele>126.2</ele>
        <time>2026-05-14T12:47:43Z</time>
      </trkpt>
      <trkpt lat="43.68091" lon="7.09771">
        <ele>126.3</ele>
        <time>2026-05-14T12:47:44Z</time>
      </trkpt>
      <trkpt lat="43.68091" lon="7.09771">
        <ele>126.3</ele>
        <time>2026-05-14T12:47:45Z</time>
      </trkpt>
      <trkpt lat="43.68092" lon="7.0977">
        <ele>126.3</ele>
        <time>2026-05-14T12:47:46Z</time>
      </trkpt>
      <trkpt lat="43.68095" lon="7.0977">
        <ele>126.4</ele>
        <time>2026-05-14T12:47:47Z</time>
      </trkpt>
      <trkpt lat="43.68098" lon="7.0977">
        <ele>126.5</ele>
        <time>2026-05-14T12:47:48Z</time>
      </trkpt>
      <trkpt lat="43.68102" lon="7.09769">
        <ele>126.7</ele>
        <time>2026-05-14T12:47:49Z</time>
      </trkpt>
      <trkpt lat="43.68106" lon="7.09767">
        <ele>126.8</ele>
        <time>2026-05-14T12:47:50Z</time>
      </trkpt>
      <trkpt lat="43.68109" lon="7.09765">
        <ele>126.9</ele>
        <time>2026-05-14T12:47:51Z</time>
      </trkpt>
      <trkpt lat="43.68111" lon="7.09763">
        <ele>127</ele>
        <time>2026-05-14T12:47:52Z</time>
      </trkpt>
      <trkpt lat="43.68113" lon="7.09762">
        <ele>127</ele>
        <time>2026-05-14T12:47:53Z</time>
      </trkpt>
      <trkpt lat="43.68116" lon="7.09761">
        <ele>126.9</ele>
        <time>2026-05-14T12:47:54Z</time>
      </trkpt>
      <trkpt lat="43.68118" lon="7.0976">
        <ele>126.8</ele>
        <time>2026-05-14T12:47:55Z</time>
      </trkpt>
      <trkpt lat="43.68119" lon="7.0976">
        <ele>126.8</ele>
        <time>2026-05-14T12:47:56Z</time>
      </trkpt>
      <trkpt lat="43.6812" lon="7.0976">
        <ele>126.8</ele>
        <time>2026-05-14T12:47:57Z</time>
      </trkpt>
      <trkpt lat="43.6812" lon="7.0976">
        <ele>126.8</ele>
        <time>2026-05-14T12:47:58Z</time>
      </trkpt>
      <trkpt lat="43.6812" lon="7.0976">
        <ele>126.8</ele>
        <time>2026-05-14T12:47:59Z</time>
      </trkpt>
      <trkpt lat="43.6812" lon="7.0976">
        <ele>126.8</ele>
        <time>2026-05-14T12:48:00Z</time>
      </trkpt>
      <trkpt lat="43.68121" lon="7.0976">
        <ele>126.8</ele>
        <time>2026-05-14T12:48:01Z</time>
      </trkpt>
      <trkpt lat="43.68122" lon="7.0976">
        <ele>126.7</ele>
        <time>2026-05-14T12:48:02Z</time>
      </trkpt>
      <trkpt lat="43.68123" lon="7.0976">
        <ele>126.7</ele>
        <time>2026-05-14T12:48:03Z</time>
      </trkpt>
      <trkpt lat="43.68124" lon="7.0976">
        <ele>126.7</ele>
        <time>2026-05-14T12:48:04Z</time>
      </trkpt>
      <trkpt lat="43.68126" lon="7.09759">
        <ele>126.6</ele>
        <time>2026-05-14T12:48:05Z</time>
      </trkpt>
      <trkpt lat="43.68129" lon="7.09759">
        <ele>126.6</ele>
        <time>2026-05-14T12:48:06Z</time>
      </trkpt>
      <trkpt lat="43.68131" lon="7.0976">
        <ele>126.5</ele>
        <time>2026-05-14T12:48:07Z</time>
      </trkpt>
      <trkpt lat="43.68133" lon="7.09763">
        <ele>126.6</ele>
        <time>2026-05-14T12:48:08Z</time>
      </trkpt>
      <trkpt lat="43.68134" lon="7.09766">
        <ele>126.7</ele>
        <time>2026-05-14T12:48:09Z</time>
      </trkpt>
      <trkpt lat="43.68134" lon="7.0977">
        <ele>126.8</ele>
        <time>2026-05-14T12:48:10Z</time>
      </trkpt>
      <trkpt lat="43.68133" lon="7.09776">
        <ele>126.9</ele>
        <time>2026-05-14T12:48:11Z</time>
      </trkpt>
      <trkpt lat="43.68132" lon="7.09782">
        <ele>127.3</ele>
        <time>2026-05-14T12:48:12Z</time>
      </trkpt>
      <trkpt lat="43.68131" lon="7.09787">
        <ele>127.7</ele>
        <time>2026-05-14T12:48:13Z</time>
      </trkpt>
      <trkpt lat="43.68131" lon="7.09794">
        <ele>128.2</ele>
        <time>2026-05-14T12:48:14Z</time>
      </trkpt>
      <trkpt lat="43.68131" lon="7.098">
        <ele>128.6</ele>
        <time>2026-05-14T12:48:15Z</time>
      </trkpt>
      <trkpt lat="43.68131" lon="7.09809">
        <ele>129.2</ele>
        <time>2026-05-14T12:48:16Z</time>
      </trkpt>
      <trkpt lat="43.68131" lon="7.09815">
        <ele>129.6</ele>
        <time>2026-05-14T12:48:17Z</time>
      </trkpt>
      <trkpt lat="43.68131" lon="7.09822">
        <ele>130</ele>
        <time>2026-05-14T12:48:18Z</time>
      </trkpt>
      <trkpt lat="43.68131" lon="7.09829">
        <ele>130.4</ele>
        <time>2026-05-14T12:48:19Z</time>
      </trkpt>
      <trkpt lat="43.68131" lon="7.09836">
        <ele>130.9</ele>
        <time>2026-05-14T12:48:20Z</time>
      </trkpt>
      <trkpt lat="43.68131" lon="7.09843">
        <ele>131.4</ele>
        <time>2026-05-14T12:48:21Z</time>
      </trkpt>
      <trkpt lat="43.68132" lon="7.0985">
        <ele>132</ele>
        <time>2026-05-14T12:48:22Z</time>
      </trkpt>
      <trkpt lat="43.68132" lon="7.09857">
        <ele>132.5</ele>
        <time>2026-05-14T12:48:23Z</time>
      </trkpt>
      <trkpt lat="43.68134" lon="7.09865">
        <ele>133.1</ele>
        <time>2026-05-14T12:48:24Z</time>
      </trkpt>
      <trkpt lat="43.68134" lon="7.0987">
        <ele>133.4</ele>
        <time>2026-05-14T12:48:25Z</time>
      </trkpt>
      <trkpt lat="43.68133" lon="7.09873">
        <ele>133.5</ele>
        <time>2026-05-14T12:48:26Z</time>
      </trkpt>
      <trkpt lat="43.68131" lon="7.09876">
        <ele>133.5</ele>
        <time>2026-05-14T12:48:27Z</time>
      </trkpt>
      <trkpt lat="43.68129" lon="7.09878">
        <ele>133.4</ele>
        <time>2026-05-14T12:48:28Z</time>
      </trkpt>
      <trkpt lat="43.68126" lon="7.0988">
        <ele>133.3</ele>
        <time>2026-05-14T12:48:29Z</time>
      </trkpt>
      <trkpt lat="43.68123" lon="7.09881">
        <ele>133</ele>
        <time>2026-05-14T12:48:30Z</time>
      </trkpt>
      <trkpt lat="43.6812" lon="7.09881">
        <ele>132.8</ele>
        <time>2026-05-14T12:48:31Z</time>
      </trkpt>
      <trkpt lat="43.68117" lon="7.09882">
        <ele>132.5</ele>
        <time>2026-05-14T12:48:32Z</time>
      </trkpt>
      <trkpt lat="43.68114" lon="7.09883">
        <ele>132.3</ele>
        <time>2026-05-14T12:48:33Z</time>
      </trkpt>
      <trkpt lat="43.68112" lon="7.09883">
        <ele>132.1</ele>
        <time>2026-05-14T12:48:34Z</time>
      </trkpt>
      <trkpt lat="43.68109" lon="7.09884">
        <ele>131.9</ele>
        <time>2026-05-14T12:48:35Z</time>
      </trkpt>
      <trkpt lat="43.68107" lon="7.09886">
        <ele>131.8</ele>
        <time>2026-05-14T12:48:36Z</time>
      </trkpt>
      <trkpt lat="43.68104" lon="7.09887">
        <ele>131.7</ele>
        <time>2026-05-14T12:48:37Z</time>
      </trkpt>
      <trkpt lat="43.68102" lon="7.0989">
        <ele>131.7</ele>
        <time>2026-05-14T12:48:38Z</time>
      </trkpt>
      <trkpt lat="43.681" lon="7.09892">
        <ele>131.6</ele>
        <time>2026-05-14T12:48:39Z</time>
      </trkpt>
      <trkpt lat="43.68099" lon="7.09893">
        <ele>131.6</ele>
        <time>2026-05-14T12:48:40Z</time>
      </trkpt>
      <trkpt lat="43.68098" lon="7.09894">
        <ele>131.5</ele>
        <time>2026-05-14T12:48:41Z</time>
      </trkpt>
      <trkpt lat="43.68098" lon="7.09894">
        <ele>131.5</ele>
        <time>2026-05-14T12:48:42Z</time>
      </trkpt>
      <trkpt lat="43.68099" lon="7.09894">
        <ele>131.6</ele>
        <time>2026-05-14T12:48:43Z</time>
      </trkpt>
      <trkpt lat="43.68099" lon="7.09894">
        <ele>131.6</ele>
        <time>2026-05-14T12:48:44Z</time>
      </trkpt>
      <trkpt lat="43.68099" lon="7.09894">
        <ele>131.6</ele>
        <time>2026-05-14T12:48:45Z</time>
      </trkpt>
      <trkpt lat="43.68099" lon="7.09894">
        <ele>131.6</ele>
        <time>2026-05-14T12:48:46Z</time>
      </trkpt>
      <trkpt lat="43.68099" lon="7.09894">
        <ele>131.6</ele>
        <time>2026-05-14T12:48:47Z</time>
      </trkpt>
      <trkpt lat="43.68099" lon="7.09894">
        <ele>131.6</ele>
        <time>2026-05-14T12:48:48Z</time>
      </trkpt>
      <trkpt lat="43.68099" lon="7.09894">
        <ele>131.6</ele>
        <time>2026-05-14T12:48:49Z</time>
      </trkpt>
      <trkpt lat="43.68099" lon="7.09895">
        <ele>131.6</ele>
        <time>2026-05-14T12:48:50Z</time>
      </trkpt>
      <trkpt lat="43.68098" lon="7.09895">
        <ele>131.6</ele>
        <time>2026-05-14T12:48:51Z</time>
      </trkpt>
      <trkpt lat="43.68098" lon="7.09896">
        <ele>131.6</ele>
        <time>2026-05-14T12:48:52Z</time>
      </trkpt>
      <trkpt lat="43.68098" lon="7.09896">
        <ele>131.6</ele>
        <time>2026-05-14T12:48:53Z</time>
      </trkpt>
      <trkpt lat="43.68097" lon="7.09897">
        <ele>131.5</ele>
        <time>2026-05-14T12:48:54Z</time>
      </trkpt>
      <trkpt lat="43.68096" lon="7.09898">
        <ele>131.4</ele>
        <time>2026-05-14T12:48:55Z</time>
      </trkpt>
      <trkpt lat="43.68095" lon="7.09899">
        <ele>131.3</ele>
        <time>2026-05-14T12:48:56Z</time>
      </trkpt>
      <trkpt lat="43.68094" lon="7.099">
        <ele>131.2</ele>
        <time>2026-05-14T12:48:57Z</time>
      </trkpt>
      <trkpt lat="43.68093" lon="7.09901">
        <ele>131.1</ele>
        <time>2026-05-14T12:48:58Z</time>
      </trkpt>
      <trkpt lat="43.68092" lon="7.09902">
        <ele>131</ele>
        <time>2026-05-14T12:48:59Z</time>
      </trkpt>
      <trkpt lat="43.68091" lon="7.09903">
        <ele>130.8</ele>
        <time>2026-05-14T12:49:00Z</time>
      </trkpt>
      <trkpt lat="43.6809" lon="7.09904">
        <ele>130.7</ele>
        <time>2026-05-14T12:49:01Z</time>
      </trkpt>
      <trkpt lat="43.6809" lon="7.09905">
        <ele>130.6</ele>
        <time>2026-05-14T12:49:02Z</time>
      </trkpt>
      <trkpt lat="43.68089" lon="7.09906">
        <ele>130.5</ele>
        <time>2026-05-14T12:49:03Z</time>
      </trkpt>
      <trkpt lat="43.68089" lon="7.09907">
        <ele>130.4</ele>
        <time>2026-05-14T12:49:04Z</time>
      </trkpt>
      <trkpt lat="43.68088" lon="7.09908">
        <ele>130.3</ele>
        <time>2026-05-14T12:49:05Z</time>
      </trkpt>
      <trkpt lat="43.68087" lon="7.09909">
        <ele>130.1</ele>
        <time>2026-05-14T12:49:06Z</time>
      </trkpt>
      <trkpt lat="43.68087" lon="7.09911">
        <ele>130</ele>
        <time>2026-05-14T12:49:07Z</time>
      </trkpt>
      <trkpt lat="43.68087" lon="7.09913">
        <ele>129.9</ele>
        <time>2026-05-14T12:49:08Z</time>
      </trkpt>
      <trkpt lat="43.68087" lon="7.09915">
        <ele>129.7</ele>
        <time>2026-05-14T12:49:09Z</time>
      </trkpt>
      <trkpt lat="43.68088" lon="7.09916">
        <ele>129.9</ele>
        <time>2026-05-14T12:49:10Z</time>
      </trkpt>
      <trkpt lat="43.68089" lon="7.09916">
        <ele>130</ele>
        <time>2026-05-14T12:49:11Z</time>
      </trkpt>
      <trkpt lat="43.68089" lon="7.09916">
        <ele>130</ele>
        <time>2026-05-14T12:49:12Z</time>
      </trkpt>
      <trkpt lat="43.68089" lon="7.09915">
        <ele>130.1</ele>
        <time>2026-05-14T12:49:13Z</time>
      </trkpt>
      <trkpt lat="43.68089" lon="7.09915">
        <ele>130.1</ele>
        <time>2026-05-14T12:49:14Z</time>
      </trkpt>
      <trkpt lat="43.68088" lon="7.09915">
        <ele>129.9</ele>
        <time>2026-05-14T12:49:15Z</time>
      </trkpt>
      <trkpt lat="43.68088" lon="7.09915">
        <ele>129.9</ele>
        <time>2026-05-14T12:49:16Z</time>
      </trkpt>
      <trkpt lat="43.68088" lon="7.09915">
        <ele>129.9</ele>
        <time>2026-05-14T12:49:17Z</time>
      </trkpt>
      <trkpt lat="43.68087" lon="7.09915">
        <ele>129.7</ele>
        <time>2026-05-14T12:49:18Z</time>
      </trkpt>
      <trkpt lat="43.68087" lon="7.09915">
        <ele>129.7</ele>
        <time>2026-05-14T12:49:19Z</time>
      </trkpt>
      <trkpt lat="43.68087" lon="7.09915">
        <ele>129.7</ele>
        <time>2026-05-14T12:49:20Z</time>
      </trkpt>
      <trkpt lat="43.68087" lon="7.09915">
        <ele>129.7</ele>
        <time>2026-05-14T12:49:21Z</time>
      </trkpt>
      <trkpt lat="43.68087" lon="7.09915">
        <ele>129.7</ele>
        <time>2026-05-14T12:49:22Z</time>
      </trkpt>
      <trkpt lat="43.68087" lon="7.09915">
        <ele>129.7</ele>
        <time>2026-05-14T12:49:23Z</time>
      </trkpt>
      <trkpt lat="43.68087" lon="7.09915">
        <ele>129.7</ele>
        <time>2026-05-14T12:49:24Z</time>
      </trkpt>
      <trkpt lat="43.68087" lon="7.09915">
        <ele>129.7</ele>
        <time>2026-05-14T12:49:25Z</time>
      </trkpt>
      <trkpt lat="43.68087" lon="7.09915">
        <ele>129.7</ele>
        <time>2026-05-14T12:49:26Z</time>
      </trkpt>
      <trkpt lat="43.68087" lon="7.09915">
        <ele>129.7</ele>
        <time>2026-05-14T12:49:27Z</time>
      </trkpt>
      <trkpt lat="43.68087" lon="7.09915">
        <ele>129.7</ele>
        <time>2026-05-14T12:49:28Z</time>
      </trkpt>
      <trkpt lat="43.68087" lon="7.09914">
        <ele>129.8</ele>
        <time>2026-05-14T12:49:29Z</time>
      </trkpt>
      <trkpt lat="43.68088" lon="7.09912">
        <ele>130.1</ele>
        <time>2026-05-14T12:49:30Z</time>
      </trkpt>
      <trkpt lat="43.68089" lon="7.0991">
        <ele>130.3</ele>
        <time>2026-05-14T12:49:31Z</time>
      </trkpt>
      <trkpt lat="43.6809" lon="7.09909">
        <ele>130.5</ele>
        <time>2026-05-14T12:49:32Z</time>
      </trkpt>
      <trkpt lat="43.6809" lon="7.09909">
        <ele>130.5</ele>
        <time>2026-05-14T12:49:33Z</time>
      </trkpt>
      <trkpt lat="43.6809" lon="7.09909">
        <ele>130.5</ele>
        <time>2026-05-14T12:49:34Z</time>
      </trkpt>
      <trkpt lat="43.6809" lon="7.09909">
        <ele>130.5</ele>
        <time>2026-05-14T12:49:35Z</time>
      </trkpt>
      <trkpt lat="43.6809" lon="7.0991">
        <ele>130.4</ele>
        <time>2026-05-14T12:49:36Z</time>
      </trkpt>
      <trkpt lat="43.68089" lon="7.0991">
        <ele>130.3</ele>
        <time>2026-05-14T12:49:37Z</time>
      </trkpt>
      <trkpt lat="43.68089" lon="7.09911">
        <ele>130.3</ele>
        <time>2026-05-14T12:49:38Z</time>
      </trkpt>
      <trkpt lat="43.68089" lon="7.09912">
        <ele>130.2</ele>
        <time>2026-05-14T12:49:39Z</time>
      </trkpt>
      <trkpt lat="43.68089" lon="7.09912">
        <ele>130.2</ele>
        <time>2026-05-14T12:49:40Z</time>
      </trkpt>
      <trkpt lat="43.68089" lon="7.09913">
        <ele>130.2</ele>
        <time>2026-05-14T12:49:41Z</time>
      </trkpt>
      <trkpt lat="43.68089" lon="7.09913">
        <ele>130.2</ele>
        <time>2026-05-14T12:49:42Z</time>
      </trkpt>
      <trkpt lat="43.68089" lon="7.09914">
        <ele>130.1</ele>
        <time>2026-05-14T12:49:43Z</time>
      </trkpt>
      <trkpt lat="43.68089" lon="7.09914">
        <ele>130.1</ele>
        <time>2026-05-14T12:49:44Z</time>
      </trkpt>
      <trkpt lat="43.68089" lon="7.09914">
        <ele>130.1</ele>
        <time>2026-05-14T12:49:45Z</time>
      </trkpt>
      <trkpt lat="43.68089" lon="7.09915">
        <ele>130.1</ele>
        <time>2026-05-14T12:49:46Z</time>
      </trkpt>
      <trkpt lat="43.68089" lon="7.09915">
        <ele>130.1</ele>
        <time>2026-05-14T12:49:47Z</time>
      </trkpt>
      <trkpt lat="43.68089" lon="7.09915">
        <ele>130.1</ele>
        <time>2026-05-14T12:49:48Z</time>
      </trkpt>
      <trkpt lat="43.68089" lon="7.09915">
        <ele>130.1</ele>
        <time>2026-05-14T12:49:49Z</time>
      </trkpt>
      <trkpt lat="43.68089" lon="7.09915">
        <ele>130.1</ele>
        <time>2026-05-14T12:49:50Z</time>
      </trkpt>
      <trkpt lat="43.68088" lon="7.09915">
        <ele>129.9</ele>
        <time>2026-05-14T12:49:51Z</time>
      </trkpt>
      <trkpt lat="43.68088" lon="7.09915">
        <ele>129.9</ele>
        <time>2026-05-14T12:49:52Z</time>
      </trkpt>
      <trkpt lat="43.68089" lon="7.09915">
        <ele>130.1</ele>
        <time>2026-05-14T12:49:53Z</time>
      </trkpt>
      <trkpt lat="43.68089" lon="7.09916">
        <ele>130</ele>
        <time>2026-05-14T12:49:54Z</time>
      </trkpt>
      <trkpt lat="43.68089" lon="7.09916">
        <ele>130</ele>
        <time>2026-05-14T12:49:55Z</time>
      </trkpt>
      <trkpt lat="43.68089" lon="7.09916">
        <ele>130</ele>
        <time>2026-05-14T12:49:56Z</time>
      </trkpt>
      <trkpt lat="43.68089" lon="7.09916">
        <ele>130</ele>
        <time>2026-05-14T12:49:57Z</time>
      </trkpt>
      <trkpt lat="43.68089" lon="7.09917">
        <ele>130</ele>
        <time>2026-05-14T12:49:58Z</time>
      </trkpt>
      <trkpt lat="43.68089" lon="7.09917">
        <ele>130</ele>
        <time>2026-05-14T12:49:59Z</time>
      </trkpt>
      <trkpt lat="43.68089" lon="7.09917">
        <ele>130</ele>
        <time>2026-05-14T12:50:00Z</time>
      </trkpt>
      <trkpt lat="43.68089" lon="7.09917">
        <ele>130</ele>
        <time>2026-05-14T12:50:01Z</time>
      </trkpt>
      <trkpt lat="43.68089" lon="7.09917">
        <ele>130</ele>
        <time>2026-05-14T12:50:02Z</time>
      </trkpt>
      <trkpt lat="43.68089" lon="7.09917">
        <ele>130</ele>
        <time>2026-05-14T12:50:03Z</time>
      </trkpt>
      <trkpt lat="43.68089" lon="7.09917">
        <ele>130</ele>
        <time>2026-05-14T12:50:04Z</time>
      </trkpt>
      <trkpt lat="43.68088" lon="7.09917">
        <ele>129.8</ele>
        <time>2026-05-14T12:50:05Z</time>
      </trkpt>
      <trkpt lat="43.68088" lon="7.09916">
        <ele>129.9</ele>
        <time>2026-05-14T12:50:06Z</time>
      </trkpt>
      <trkpt lat="43.68088" lon="7.09917">
        <ele>129.8</ele>
        <time>2026-05-14T12:50:07Z</time>
      </trkpt>
      <trkpt lat="43.68088" lon="7.09917">
        <ele>129.8</ele>
        <time>2026-05-14T12:50:08Z</time>
      </trkpt>
      <trkpt lat="43.68089" lon="7.09916">
        <ele>130</ele>
        <time>2026-05-14T12:50:09Z</time>
      </trkpt>
      <trkpt lat="43.68089" lon="7.09916">
        <ele>130</ele>
        <time>2026-05-14T12:50:10Z</time>
      </trkpt>
      <trkpt lat="43.68089" lon="7.09916">
        <ele>130</ele>
        <time>2026-05-14T12:50:11Z</time>
      </trkpt>
      <trkpt lat="43.68089" lon="7.09915">
        <ele>130.1</ele>
        <time>2026-05-14T12:50:12Z</time>
      </trkpt>
      <trkpt lat="43.68089" lon="7.09915">
        <ele>130.1</ele>
        <time>2026-05-14T12:50:13Z</time>
      </trkpt>
      <trkpt lat="43.68089" lon="7.09915">
        <ele>130.1</ele>
        <time>2026-05-14T12:50:14Z</time>
      </trkpt>
      <trkpt lat="43.68089" lon="7.09915">
        <ele>130.1</ele>
        <time>2026-05-14T12:50:15Z</time>
      </trkpt>
      <trkpt lat="43.68089" lon="7.09915">
        <ele>130.1</ele>
        <time>2026-05-14T12:50:16Z</time>
      </trkpt>
      <trkpt lat="43.6809" lon="7.09915">
        <ele>130.3</ele>
        <time>2026-05-14T12:50:17Z</time>
      </trkpt>
      <trkpt lat="43.6809" lon="7.09915">
        <ele>130.3</ele>
        <time>2026-05-14T12:50:18Z</time>
      </trkpt>
      <trkpt lat="43.6809" lon="7.09915">
        <ele>130.3</ele>
        <time>2026-05-14T12:50:19Z</time>
      </trkpt>
      <trkpt lat="43.6809" lon="7.09915">
        <ele>130.3</ele>
        <time>2026-05-14T12:50:20Z</time>
      </trkpt>
      <trkpt lat="43.6809" lon="7.09915">
        <ele>130.3</ele>
        <time>2026-05-14T12:50:21Z</time>
      </trkpt>
      <trkpt lat="43.6809" lon="7.09915">
        <ele>130.3</ele>
        <time>2026-05-14T12:50:22Z</time>
      </trkpt>
      <trkpt lat="43.6809" lon="7.09915">
        <ele>130.3</ele>
        <time>2026-05-14T12:50:23Z</time>
      </trkpt>
      <trkpt lat="43.6809" lon="7.09915">
        <ele>130.3</ele>
        <time>2026-05-14T12:50:24Z</time>
      </trkpt>
      <trkpt lat="43.6809" lon="7.09915">
        <ele>130.3</ele>
        <time>2026-05-14T12:50:25Z</time>
      </trkpt>
      <trkpt lat="43.6809" lon="7.09915">
        <ele>130.3</ele>
        <time>2026-05-14T12:50:26Z</time>
      </trkpt>
      <trkpt lat="43.6809" lon="7.09915">
        <ele>130.3</ele>
        <time>2026-05-14T12:50:27Z</time>
      </trkpt>
      <trkpt lat="43.6809" lon="7.09915">
        <ele>130.3</ele>
        <time>2026-05-14T12:50:28Z</time>
      </trkpt>
      <trkpt lat="43.6809" lon="7.09915">
        <ele>130.3</ele>
        <time>2026-05-14T12:50:29Z</time>
      </trkpt>
      <trkpt lat="43.6809" lon="7.09915">
        <ele>130.3</ele>
        <time>2026-05-14T12:50:30Z</time>
      </trkpt>
      <trkpt lat="43.6809" lon="7.09915">
        <ele>130.3</ele>
        <time>2026-05-14T12:50:31Z</time>
      </trkpt>
      <trkpt lat="43.6809" lon="7.09915">
        <ele>130.3</ele>
        <time>2026-05-14T12:50:32Z</time>
      </trkpt>
      <trkpt lat="43.6809" lon="7.09915">
        <ele>130.3</ele>
        <time>2026-05-14T12:50:33Z</time>
      </trkpt>
      <trkpt lat="43.6809" lon="7.09915">
        <ele>130.3</ele>
        <time>2026-05-14T12:50:34Z</time>
      </trkpt>
      <trkpt lat="43.6809" lon="7.09915">
        <ele>130.3</ele>
        <time>2026-05-14T12:50:35Z</time>
      </trkpt>
      <trkpt lat="43.6809" lon="7.09915">
        <ele>130.3</ele>
        <time>2026-05-14T12:50:36Z</time>
      </trkpt>
      <trkpt lat="43.6809" lon="7.09915">
        <ele>130.3</ele>
        <time>2026-05-14T12:50:37Z</time>
      </trkpt>
      <trkpt lat="43.6809" lon="7.09915">
        <ele>130.3</ele>
        <time>2026-05-14T12:50:38Z</time>
      </trkpt>
      <trkpt lat="43.6809" lon="7.09915">
        <ele>130.3</ele>
        <time>2026-05-14T12:50:39Z</time>
      </trkpt>
      <trkpt lat="43.6809" lon="7.09915">
        <ele>130.3</ele>
        <time>2026-05-14T12:50:40Z</time>
      </trkpt>
      <trkpt lat="43.6809" lon="7.09915">
        <ele>130.3</ele>
        <time>2026-05-14T12:50:41Z</time>
      </trkpt>
      <trkpt lat="43.6809" lon="7.09915">
        <ele>130.3</ele>
        <time>2026-05-14T12:50:42Z</time>
      </trkpt>
      <trkpt lat="43.6809" lon="7.09915">
        <ele>130.3</ele>
        <time>2026-05-14T12:50:43Z</time>
      </trkpt>
      <trkpt lat="43.6809" lon="7.09915">
        <ele>130.3</ele>
        <time>2026-05-14T12:50:44Z</time>
      </trkpt>
      <trkpt lat="43.6809" lon="7.09915">
        <ele>130.3</ele>
        <time>2026-05-14T12:50:45Z</time>
      </trkpt>
      <trkpt lat="43.6809" lon="7.09915">
        <ele>130.3</ele>
        <time>2026-05-14T12:50:46Z</time>
      </trkpt>
      <trkpt lat="43.6809" lon="7.09915">
        <ele>130.3</ele>
        <time>2026-05-14T12:50:47Z</time>
      </trkpt>
      <trkpt lat="43.6809" lon="7.09915">
        <ele>130.3</ele>
        <time>2026-05-14T12:50:48Z</time>
      </trkpt>
      <trkpt lat="43.6809" lon="7.09915">
        <ele>130.3</ele>
        <time>2026-05-14T12:50:49Z</time>
      </trkpt>
      <trkpt lat="43.6809" lon="7.09916">
        <ele>130.2</ele>
        <time>2026-05-14T12:50:50Z</time>
      </trkpt>
      <trkpt lat="43.6809" lon="7.09916">
        <ele>130.2</ele>
        <time>2026-05-14T12:50:51Z</time>
      </trkpt>
      <trkpt lat="43.6809" lon="7.09916">
        <ele>130.2</ele>
        <time>2026-05-14T12:50:52Z</time>
      </trkpt>
      <trkpt lat="43.6809" lon="7.09916">
        <ele>130.2</ele>
        <time>2026-05-14T12:50:53Z</time>
      </trkpt>
      <trkpt lat="43.6809" lon="7.09916">
        <ele>130.2</ele>
        <time>2026-05-14T12:50:54Z</time>
      </trkpt>
      <trkpt lat="43.6809" lon="7.09915">
        <ele>130.3</ele>
        <time>2026-05-14T12:50:55Z</time>
      </trkpt>
      <trkpt lat="43.6809" lon="7.09916">
        <ele>130.2</ele>
        <time>2026-05-14T12:50:56Z</time>
      </trkpt>
      <trkpt lat="43.6809" lon="7.09916">
        <ele>130.2</ele>
        <time>2026-05-14T12:50:57Z</time>
      </trkpt>
      <trkpt lat="43.6809" lon="7.09916">
        <ele>130.2</ele>
        <time>2026-05-14T12:50:58Z</time>
      </trkpt>
      <trkpt lat="43.6809" lon="7.09916">
        <ele>130.2</ele>
        <time>2026-05-14T12:50:59Z</time>
      </trkpt>
      <trkpt lat="43.6809" lon="7.09916">
        <ele>130.2</ele>
        <time>2026-05-14T12:51:00Z</time>
      </trkpt>
      <trkpt lat="43.6809" lon="7.09916">
        <ele>130.2</ele>
        <time>2026-05-14T12:51:01Z</time>
      </trkpt>
      <trkpt lat="43.6809" lon="7.09916">
        <ele>130.2</ele>
        <time>2026-05-14T12:51:02Z</time>
      </trkpt>
      <trkpt lat="43.6809" lon="7.09916">
        <ele>130.2</ele>
        <time>2026-05-14T12:51:03Z</time>
      </trkpt>
      <trkpt lat="43.6809" lon="7.09916">
        <ele>130.2</ele>
        <time>2026-05-14T12:51:04Z</time>
      </trkpt>
      <trkpt lat="43.6809" lon="7.09916">
        <ele>130.2</ele>
        <time>2026-05-14T12:51:05Z</time>
      </trkpt>
      <trkpt lat="43.6809" lon="7.09916">
        <ele>130.2</ele>
        <time>2026-05-14T12:51:06Z</time>
      </trkpt>
      <trkpt lat="43.6809" lon="7.09916">
        <ele>130.2</ele>
        <time>2026-05-14T12:51:07Z</time>
      </trkpt>
      <trkpt lat="43.6809" lon="7.09916">
        <ele>130.2</ele>
        <time>2026-05-14T12:51:08Z</time>
      </trkpt>
      <trkpt lat="43.6809" lon="7.09916">
        <ele>130.2</ele>
        <time>2026-05-14T12:51:09Z</time>
      </trkpt>
      <trkpt lat="43.6809" lon="7.09916">
        <ele>130.2</ele>
        <time>2026-05-14T12:51:10Z</time>
      </trkpt>
      <trkpt lat="43.6809" lon="7.09916">
        <ele>130.2</ele>
        <time>2026-05-14T12:51:11Z</time>
      </trkpt>
      <trkpt lat="43.6809" lon="7.09916">
        <ele>130.2</ele>
        <time>2026-05-14T12:51:12Z</time>
      </trkpt>
      <trkpt lat="43.6809" lon="7.09916">
        <ele>130.2</ele>
        <time>2026-05-14T12:51:13Z</time>
      </trkpt>
      <trkpt lat="43.6809" lon="7.09916">
        <ele>130.2</ele>
        <time>2026-05-14T12:51:14Z</time>
      </trkpt>
      <trkpt lat="43.6809" lon="7.09916">
        <ele>130.2</ele>
        <time>2026-05-14T12:51:15Z</time>
      </trkpt>
      <trkpt lat="43.6809" lon="7.09916">
        <ele>130.2</ele>
        <time>2026-05-14T12:51:16Z</time>
      </trkpt>
      <trkpt lat="43.6809" lon="7.09916">
        <ele>130.2</ele>
        <time>2026-05-14T12:51:17Z</time>
      </trkpt>
      <trkpt lat="43.6809" lon="7.09916">
        <ele>130.2</ele>
        <time>2026-05-14T12:51:18Z</time>
      </trkpt>
      <trkpt lat="43.6809" lon="7.09916">
        <ele>130.2</ele>
        <time>2026-05-14T12:51:19Z</time>
      </trkpt>
      <trkpt lat="43.6809" lon="7.09916">
        <ele>130.2</ele>
        <time>2026-05-14T12:51:20Z</time>
      </trkpt>
      <trkpt lat="43.6809" lon="7.09916">
        <ele>130.2</ele>
        <time>2026-05-14T12:51:21Z</time>
      </trkpt>
      <trkpt lat="43.6809" lon="7.09916">
        <ele>130.2</ele>
        <time>2026-05-14T12:51:22Z</time>
      </trkpt>
      <trkpt lat="43.6809" lon="7.09916">
        <ele>130.2</ele>
        <time>2026-05-14T12:51:23Z</time>
      </trkpt>
      <trkpt lat="43.6809" lon="7.09916">
        <ele>130.2</ele>
        <time>2026-05-14T12:51:24Z</time>
      </trkpt>
      <trkpt lat="43.6809" lon="7.09916">
        <ele>130.2</ele>
        <time>2026-05-14T12:51:25Z</time>
      </trkpt>
      <trkpt lat="43.6809" lon="7.09916">
        <ele>130.2</ele>
        <time>2026-05-14T12:51:26Z</time>
      </trkpt>
      <trkpt lat="43.6809" lon="7.09916">
        <ele>130.2</ele>
        <time>2026-05-14T12:51:27Z</time>
      </trkpt>
      <trkpt lat="43.6809" lon="7.09916">
        <ele>130.2</ele>
        <time>2026-05-14T12:51:28Z</time>
      </trkpt>
      <trkpt lat="43.6809" lon="7.09916">
        <ele>130.2</ele>
        <time>2026-05-14T12:51:29Z</time>
      </trkpt>
      <trkpt lat="43.6809" lon="7.09916">
        <ele>130.2</ele>
        <time>2026-05-14T12:51:30Z</time>
      </trkpt>
      <trkpt lat="43.6809" lon="7.09916">
        <ele>130.2</ele>
        <time>2026-05-14T12:51:31Z</time>
      </trkpt>
      <trkpt lat="43.6809" lon="7.09916">
        <ele>130.2</ele>
        <time>2026-05-14T12:51:32Z</time>
      </trkpt>
      <trkpt lat="43.6809" lon="7.09916">
        <ele>130.2</ele>
        <time>2026-05-14T12:51:33Z</time>
      </trkpt>
      <trkpt lat="43.6809" lon="7.09916">
        <ele>130.2</ele>
        <time>2026-05-14T12:51:34Z</time>
      </trkpt>
      <trkpt lat="43.6809" lon="7.09916">
        <ele>130.2</ele>
        <time>2026-05-14T12:51:35Z</time>
      </trkpt>
      <trkpt lat="43.6809" lon="7.09916">
        <ele>130.2</ele>
        <time>2026-05-14T12:51:36Z</time>
      </trkpt>
      <trkpt lat="43.6809" lon="7.09916">
        <ele>130.2</ele>
        <time>2026-05-14T12:51:37Z</time>
      </trkpt>
      <trkpt lat="43.6809" lon="7.09916">
        <ele>130.2</ele>
        <time>2026-05-14T12:51:38Z</time>
      </trkpt>
      <trkpt lat="43.6809" lon="7.09916">
        <ele>130.2</ele>
        <time>2026-05-14T12:51:39Z</time>
      </trkpt>
      <trkpt lat="43.6809" lon="7.09916">
        <ele>130.2</ele>
        <time>2026-05-14T12:51:40Z</time>
      </trkpt>
      <trkpt lat="43.6809" lon="7.09916">
        <ele>130.2</ele>
        <time>2026-05-14T12:51:41Z</time>
      </trkpt>
      <trkpt lat="43.6809" lon="7.09916">
        <ele>130.2</ele>
        <time>2026-05-14T12:51:42Z</time>
      </trkpt>
      <trkpt lat="43.6809" lon="7.09916">
        <ele>130.2</ele>
        <time>2026-05-14T12:51:43Z</time>
      </trkpt>
      <trkpt lat="43.6809" lon="7.09916">
        <ele>130.2</ele>
        <time>2026-05-14T12:51:44Z</time>
      </trkpt>
      <trkpt lat="43.6809" lon="7.09916">
        <ele>130.2</ele>
        <time>2026-05-14T12:51:45Z</time>
      </trkpt>
      <trkpt lat="43.6809" lon="7.09916">
        <ele>130.2</ele>
        <time>2026-05-14T12:51:46Z</time>
      </trkpt>
      <trkpt lat="43.6809" lon="7.09916">
        <ele>130.2</ele>
        <time>2026-05-14T12:51:47Z</time>
      </trkpt>
      <trkpt lat="43.6809" lon="7.09916">
        <ele>130.2</ele>
        <time>2026-05-14T12:51:48Z</time>
      </trkpt>
      <trkpt lat="43.6809" lon="7.09916">
        <ele>130.2</ele>
        <time>2026-05-14T12:51:49Z</time>
      </trkpt>
      <trkpt lat="43.6809" lon="7.09916">
        <ele>130.2</ele>
        <time>2026-05-14T12:51:50Z</time>
      </trkpt>
      <trkpt lat="43.6809" lon="7.09916">
        <ele>130.2</ele>
        <time>2026-05-14T12:51:51Z</time>
      </trkpt>
      <trkpt lat="43.6809" lon="7.09916">
        <ele>130.2</ele>
        <time>2026-05-14T12:51:52Z</time>
      </trkpt>
      <trkpt lat="43.6809" lon="7.09916">
        <ele>130.2</ele>
        <time>2026-05-14T12:51:53Z</time>
      </trkpt>
      <trkpt lat="43.6809" lon="7.09916">
        <ele>130.2</ele>
        <time>2026-05-14T12:51:54Z</time>
      </trkpt>
      <trkpt lat="43.6809" lon="7.09916">
        <ele>130.2</ele>
        <time>2026-05-14T12:51:55Z</time>
      </trkpt>
      <trkpt lat="43.6809" lon="7.09916">
        <ele>130.2</ele>
        <time>2026-05-14T12:51:56Z</time>
      </trkpt>
      <trkpt lat="43.6809" lon="7.09916">
        <ele>130.2</ele>
        <time>2026-05-14T12:51:57Z</time>
      </trkpt>
      <trkpt lat="43.6809" lon="7.09916">
        <ele>130.2</ele>
        <time>2026-05-14T12:51:58Z</time>
      </trkpt>
      <trkpt lat="43.6809" lon="7.09916">
        <ele>130.2</ele>
        <time>2026-05-14T12:51:59Z</time>
      </trkpt>
      <trkpt lat="43.6809" lon="7.09916">
        <ele>130.2</ele>
        <time>2026-05-14T12:52:00Z</time>
      </trkpt>
      <trkpt lat="43.6809" lon="7.09916">
        <ele>130.2</ele>
        <time>2026-05-14T12:52:01Z</time>
      </trkpt>
      <trkpt lat="43.6809" lon="7.09916">
        <ele>130.2</ele>
        <time>2026-05-14T12:52:02Z</time>
      </trkpt>
      <trkpt lat="43.6809" lon="7.09916">
        <ele>130.2</ele>
        <time>2026-05-14T12:52:03Z</time>
      </trkpt>
      <trkpt lat="43.6809" lon="7.09916">
        <ele>130.2</ele>
        <time>2026-05-14T12:52:04Z</time>
      </trkpt>
      <trkpt lat="43.6809" lon="7.09916">
        <ele>130.2</ele>
        <time>2026-05-14T12:52:05Z</time>
      </trkpt>
      <trkpt lat="43.6809" lon="7.09916">
        <ele>130.2</ele>
        <time>2026-05-14T12:52:06Z</time>
      </trkpt>
      <trkpt lat="43.6809" lon="7.09916">
        <ele>130.2</ele>
        <time>2026-05-14T12:52:07Z</time>
      </trkpt>
      <trkpt lat="43.6808" lon="7.09902">
        <ele>129.9</ele>
        <time>2026-05-14T12:55:09Z</time>
      </trkpt>
      <trkpt lat="43.68082" lon="7.09907">
        <ele>129.6</ele>
        <time>2026-05-14T12:55:10Z</time>
      </trkpt>
      <trkpt lat="43.68088" lon="7.09915">
        <ele>129.9</ele>
        <time>2026-05-14T12:55:11Z</time>
      </trkpt>
      <trkpt lat="43.68091" lon="7.09919">
        <ele>130.4</ele>
        <time>2026-05-14T12:55:12Z</time>
      </trkpt>
      <trkpt lat="43.68093" lon="7.09918">
        <ele>130.7</ele>
        <time>2026-05-14T12:55:13Z</time>
      </trkpt>
      <trkpt lat="43.6809" lon="7.0991">
        <ele>130.4</ele>
        <time>2026-05-14T12:55:14Z</time>
      </trkpt>
      <trkpt lat="43.6809" lon="7.09916">
        <ele>130.2</ele>
        <time>2026-05-14T12:55:16Z</time>
      </trkpt>
      <trkpt lat="43.6809" lon="7.09916">
        <ele>130.2</ele>
        <time>2026-05-14T12:55:17Z</time>
      </trkpt>
      <trkpt lat="43.6809" lon="7.09916">
        <ele>130.2</ele>
        <time>2026-05-14T12:55:18Z</time>
      </trkpt>
      <trkpt lat="43.6809" lon="7.09916">
        <ele>130.2</ele>
        <time>2026-05-14T12:55:19Z</time>
      </trkpt>
      <trkpt lat="43.6809" lon="7.09916">
        <ele>130.2</ele>
        <time>2026-05-14T12:55:20Z</time>
      </trkpt>
      <trkpt lat="43.6809" lon="7.09916">
        <ele>130.2</ele>
        <time>2026-05-14T12:55:21Z</time>
      </trkpt>
      <trkpt lat="43.68089" lon="7.09916">
        <ele>130</ele>
        <time>2026-05-14T12:55:22Z</time>
      </trkpt>
      <trkpt lat="43.68089" lon="7.09916">
        <ele>130</ele>
        <time>2026-05-14T12:55:23Z</time>
      </trkpt>
      <trkpt lat="43.68089" lon="7.09916">
        <ele>130</ele>
        <time>2026-05-14T12:55:24Z</time>
      </trkpt>
      <trkpt lat="43.68089" lon="7.09916">
        <ele>130</ele>
        <time>2026-05-14T12:55:25Z</time>
      </trkpt>
      <trkpt lat="43.68089" lon="7.09915">
        <ele>130.1</ele>
        <time>2026-05-14T12:55:26Z</time>
      </trkpt>
      <trkpt lat="43.68089" lon="7.09915">
        <ele>130.1</ele>
        <time>2026-05-14T12:55:27Z</time>
      </trkpt>
      <trkpt lat="43.68089" lon="7.09915">
        <ele>130.1</ele>
        <time>2026-05-14T12:55:28Z</time>
      </trkpt>
      <trkpt lat="43.68089" lon="7.09915">
        <ele>130.1</ele>
        <time>2026-05-14T12:55:29Z</time>
      </trkpt>
      <trkpt lat="43.68089" lon="7.09915">
        <ele>130.1</ele>
        <time>2026-05-14T12:55:30Z</time>
      </trkpt>
      <trkpt lat="43.68089" lon="7.09915">
        <ele>130.1</ele>
        <time>2026-05-14T12:55:31Z</time>
      </trkpt>
      <trkpt lat="43.68089" lon="7.09915">
        <ele>130.1</ele>
        <time>2026-05-14T12:55:32Z</time>
      </trkpt>
      <trkpt lat="43.68089" lon="7.09915">
        <ele>130.1</ele>
        <time>2026-05-14T12:55:33Z</time>
      </trkpt>
      <trkpt lat="43.68089" lon="7.09915">
        <ele>130.1</ele>
        <time>2026-05-14T12:55:34Z</time>
      </trkpt>
      <trkpt lat="43.68089" lon="7.09915">
        <ele>130.1</ele>
        <time>2026-05-14T12:55:35Z</time>
      </trkpt>
      <trkpt lat="43.68089" lon="7.09915">
        <ele>130.1</ele>
        <time>2026-05-14T12:55:36Z</time>
      </trkpt>
      <trkpt lat="43.68089" lon="7.09915">
        <ele>130.1</ele>
        <time>2026-05-14T12:55:37Z</time>
      </trkpt>
      <trkpt lat="43.68089" lon="7.09915">
        <ele>130.1</ele>
        <time>2026-05-14T12:55:38Z</time>
      </trkpt>
      <trkpt lat="43.68089" lon="7.09915">
        <ele>130.1</ele>
        <time>2026-05-14T12:55:39Z</time>
      </trkpt>
      <trkpt lat="43.68089" lon="7.09915">
        <ele>130.1</ele>
        <time>2026-05-14T12:55:40Z</time>
      </trkpt>
      <trkpt lat="43.68089" lon="7.09915">
        <ele>130.1</ele>
        <time>2026-05-14T12:55:41Z</time>
      </trkpt>
      <trkpt lat="43.68089" lon="7.09915">
        <ele>130.1</ele>
        <time>2026-05-14T12:55:42Z</time>
      </trkpt>
      <trkpt lat="43.68089" lon="7.09915">
        <ele>130.1</ele>
        <time>2026-05-14T12:55:43Z</time>
      </trkpt>
      <trkpt lat="43.68089" lon="7.09915">
        <ele>130.1</ele>
        <time>2026-05-14T12:55:44Z</time>
      </trkpt>
      <trkpt lat="43.68089" lon="7.09915">
        <ele>130.1</ele>
        <time>2026-05-14T12:55:45Z</time>
      </trkpt>
      <trkpt lat="43.68089" lon="7.09915">
        <ele>130.1</ele>
        <time>2026-05-14T12:55:46Z</time>
      </trkpt>
      <trkpt lat="43.68089" lon="7.09915">
        <ele>130.1</ele>
        <time>2026-05-14T12:55:47Z</time>
      </trkpt>
      <trkpt lat="43.68089" lon="7.09915">
        <ele>130.1</ele>
        <time>2026-05-14T12:55:48Z</time>
      </trkpt>
      <trkpt lat="43.68089" lon="7.09915">
        <ele>130.1</ele>
        <time>2026-05-14T12:55:49Z</time>
      </trkpt>
      <trkpt lat="43.68089" lon="7.09915">
        <ele>130.1</ele>
        <time>2026-05-14T12:55:50Z</time>
      </trkpt>
      <trkpt lat="43.68089" lon="7.09915">
        <ele>130.1</ele>
        <time>2026-05-14T12:55:51Z</time>
      </trkpt>
      <trkpt lat="43.68089" lon="7.09915">
        <ele>130.1</ele>
        <time>2026-05-14T12:55:52Z</time>
      </trkpt>
      <trkpt lat="43.68089" lon="7.09915">
        <ele>130.1</ele>
        <time>2026-05-14T12:55:53Z</time>
      </trkpt>
      <trkpt lat="43.68089" lon="7.09915">
        <ele>130.1</ele>
        <time>2026-05-14T12:55:54Z</time>
      </trkpt>
      <trkpt lat="43.68089" lon="7.09915">
        <ele>130.1</ele>
        <time>2026-05-14T12:55:55Z</time>
      </trkpt>
      <trkpt lat="43.68089" lon="7.09915">
        <ele>130.1</ele>
        <time>2026-05-14T12:55:56Z</time>
      </trkpt>
      <trkpt lat="43.68089" lon="7.09915">
        <ele>130.1</ele>
        <time>2026-05-14T12:55:57Z</time>
      </trkpt>
      <trkpt lat="43.68089" lon="7.09915">
        <ele>130.1</ele>
        <time>2026-05-14T12:55:58Z</time>
      </trkpt>
      <trkpt lat="43.68089" lon="7.09915">
        <ele>130.1</ele>
        <time>2026-05-14T12:55:59Z</time>
      </trkpt>
      <trkpt lat="43.68089" lon="7.09915">
        <ele>130.1</ele>
        <time>2026-05-14T12:56:00Z</time>
      </trkpt>
      <trkpt lat="43.68089" lon="7.09915">
        <ele>130.1</ele>
        <time>2026-05-14T12:56:01Z</time>
      </trkpt>
      <trkpt lat="43.68089" lon="7.09915">
        <ele>130.1</ele>
        <time>2026-05-14T12:56:02Z</time>
      </trkpt>
      <trkpt lat="43.68089" lon="7.09915">
        <ele>130.1</ele>
        <time>2026-05-14T12:56:03Z</time>
      </trkpt>
      <trkpt lat="43.68089" lon="7.09915">
        <ele>130.1</ele>
        <time>2026-05-14T12:56:04Z</time>
      </trkpt>
      <trkpt lat="43.68089" lon="7.09915">
        <ele>130.1</ele>
        <time>2026-05-14T12:56:05Z</time>
      </trkpt>
      <trkpt lat="43.68089" lon="7.09915">
        <ele>130.1</ele>
        <time>2026-05-14T12:56:06Z</time>
      </trkpt>
      <trkpt lat="43.68089" lon="7.09915">
        <ele>130.1</ele>
        <time>2026-05-14T12:56:07Z</time>
      </trkpt>
      <trkpt lat="43.68089" lon="7.09915">
        <ele>130.1</ele>
        <time>2026-05-14T12:56:08Z</time>
      </trkpt>
      <trkpt lat="43.68089" lon="7.09915">
        <ele>130.1</ele>
        <time>2026-05-14T12:56:09Z</time>
      </trkpt>
      <trkpt lat="43.68089" lon="7.09915">
        <ele>130.1</ele>
        <time>2026-05-14T12:56:10Z</time>
      </trkpt>
      <trkpt lat="43.68089" lon="7.09915">
        <ele>130.1</ele>
        <time>2026-05-14T12:56:11Z</time>
      </trkpt>
      <trkpt lat="43.68089" lon="7.09915">
        <ele>130.1</ele>
        <time>2026-05-14T12:56:12Z</time>
      </trkpt>
      <trkpt lat="43.68089" lon="7.09915">
        <ele>130.1</ele>
        <time>2026-05-14T12:56:13Z</time>
      </trkpt>
      <trkpt lat="43.68089" lon="7.09915">
        <ele>130.1</ele>
        <time>2026-05-14T12:56:14Z</time>
      </trkpt>
      <trkpt lat="43.68089" lon="7.09915">
        <ele>130.1</ele>
        <time>2026-05-14T12:56:15Z</time>
      </trkpt>
      <trkpt lat="43.68089" lon="7.09915">
        <ele>130.1</ele>
        <time>2026-05-14T12:56:16Z</time>
      </trkpt>
      <trkpt lat="43.68089" lon="7.09915">
        <ele>130.1</ele>
        <time>2026-05-14T12:56:17Z</time>
      </trkpt>
      <trkpt lat="43.68089" lon="7.09915">
        <ele>130.1</ele>
        <time>2026-05-14T12:56:18Z</time>
      </trkpt>
      <trkpt lat="43.68089" lon="7.09915">
        <ele>130.1</ele>
        <time>2026-05-14T12:56:19Z</time>
      </trkpt>
      <trkpt lat="43.68089" lon="7.09915">
        <ele>130.1</ele>
        <time>2026-05-14T12:56:20Z</time>
      </trkpt>
      <trkpt lat="43.68089" lon="7.09915">
        <ele>130.1</ele>
        <time>2026-05-14T12:56:21Z</time>
      </trkpt>
      <trkpt lat="43.68089" lon="7.09915">
        <ele>130.1</ele>
        <time>2026-05-14T12:56:22Z</time>
      </trkpt>
      <trkpt lat="43.68089" lon="7.09915">
        <ele>130.1</ele>
        <time>2026-05-14T12:56:23Z</time>
      </trkpt>
      <trkpt lat="43.68089" lon="7.09915">
        <ele>130.1</ele>
        <time>2026-05-14T12:56:24Z</time>
      </trkpt>
      <trkpt lat="43.68089" lon="7.09915">
        <ele>130.1</ele>
        <time>2026-05-14T12:56:25Z</time>
      </trkpt>
      <trkpt lat="43.68089" lon="7.09915">
        <ele>130.1</ele>
        <time>2026-05-14T12:56:26Z</time>
      </trkpt>
      <trkpt lat="43.68089" lon="7.09915">
        <ele>130.1</ele>
        <time>2026-05-14T12:56:27Z</time>
      </trkpt>
      <trkpt lat="43.68089" lon="7.09915">
        <ele>130.1</ele>
        <time>2026-05-14T12:56:28Z</time>
      </trkpt>
      <trkpt lat="43.68089" lon="7.09915">
        <ele>130.1</ele>
        <time>2026-05-14T12:56:29Z</time>
      </trkpt>
      <trkpt lat="43.68089" lon="7.09915">
        <ele>130.1</ele>
        <time>2026-05-14T12:56:30Z</time>
      </trkpt>
      <trkpt lat="43.68089" lon="7.09915">
        <ele>130.1</ele>
        <time>2026-05-14T12:56:31Z</time>
      </trkpt>
      <trkpt lat="43.68089" lon="7.09915">
        <ele>130.1</ele>
        <time>2026-05-14T12:56:32Z</time>
      </trkpt>
      <trkpt lat="43.68089" lon="7.09915">
        <ele>130.1</ele>
        <time>2026-05-14T12:56:33Z</time>
      </trkpt>
      <trkpt lat="43.68089" lon="7.09915">
        <ele>130.1</ele>
        <time>2026-05-14T12:56:34Z</time>
      </trkpt>
      <trkpt lat="43.68089" lon="7.09915">
        <ele>130.1</ele>
        <time>2026-05-14T12:56:35Z</time>
      </trkpt>
      <trkpt lat="43.68089" lon="7.09915">
        <ele>130.1</ele>
        <time>2026-05-14T12:56:36Z</time>
      </trkpt>
      <trkpt lat="43.68089" lon="7.09915">
        <ele>130.1</ele>
        <time>2026-05-14T12:56:37Z</time>
      </trkpt>
      <trkpt lat="43.68089" lon="7.09915">
        <ele>130.1</ele>
        <time>2026-05-14T12:56:38Z</time>
      </trkpt>
      <trkpt lat="43.68089" lon="7.09915">
        <ele>130.1</ele>
        <time>2026-05-14T12:56:39Z</time>
      </trkpt>
      <trkpt lat="43.68089" lon="7.09915">
        <ele>130.1</ele>
        <time>2026-05-14T12:56:40Z</time>
      </trkpt>
      <trkpt lat="43.68089" lon="7.09915">
        <ele>130.1</ele>
        <time>2026-05-14T12:56:41Z</time>
      </trkpt>
      <trkpt lat="43.68089" lon="7.09915">
        <ele>130.1</ele>
        <time>2026-05-14T12:56:42Z</time>
      </trkpt>
      <trkpt lat="43.68089" lon="7.09915">
        <ele>130.1</ele>
        <time>2026-05-14T12:56:43Z</time>
      </trkpt>
      <trkpt lat="43.68089" lon="7.09915">
        <ele>130.1</ele>
        <time>2026-05-14T12:56:44Z</time>
      </trkpt>
      <trkpt lat="43.68089" lon="7.09915">
        <ele>130.1</ele>
        <time>2026-05-14T12:56:45Z</time>
      </trkpt>
      <trkpt lat="43.68089" lon="7.09915">
        <ele>130.1</ele>
        <time>2026-05-14T12:56:46Z</time>
      </trkpt>
      <trkpt lat="43.68089" lon="7.09915">
        <ele>130.1</ele>
        <time>2026-05-14T12:56:47Z</time>
      </trkpt>
      <trkpt lat="43.68089" lon="7.09915">
        <ele>130.1</ele>
        <time>2026-05-14T12:56:48Z</time>
      </trkpt>
      <trkpt lat="43.68089" lon="7.09915">
        <ele>130.1</ele>
        <time>2026-05-14T12:56:49Z</time>
      </trkpt>
      <trkpt lat="43.68089" lon="7.09915">
        <ele>130.1</ele>
        <time>2026-05-14T12:56:50Z</time>
      </trkpt>
      <trkpt lat="43.68089" lon="7.09915">
        <ele>130.1</ele>
        <time>2026-05-14T12:56:51Z</time>
      </trkpt>
      <trkpt lat="43.68089" lon="7.09915">
        <ele>130.1</ele>
        <time>2026-05-14T12:56:52Z</time>
      </trkpt>
      <trkpt lat="43.68089" lon="7.09915">
        <ele>130.1</ele>
        <time>2026-05-14T12:56:53Z</time>
      </trkpt>
      <trkpt lat="43.68089" lon="7.09915">
        <ele>130.1</ele>
        <time>2026-05-14T12:56:54Z</time>
      </trkpt>
      <trkpt lat="43.68089" lon="7.09915">
        <ele>130.1</ele>
        <time>2026-05-14T12:56:55Z</time>
      </trkpt>
      <trkpt lat="43.68089" lon="7.09915">
        <ele>130.1</ele>
        <time>2026-05-14T12:56:56Z</time>
      </trkpt>
      <trkpt lat="43.68089" lon="7.09915">
        <ele>130.1</ele>
        <time>2026-05-14T12:56:57Z</time>
      </trkpt>
      <trkpt lat="43.68089" lon="7.09915">
        <ele>130.1</ele>
        <time>2026-05-14T12:56:58Z</time>
      </trkpt>
      <trkpt lat="43.68089" lon="7.09915">
        <ele>130.1</ele>
        <time>2026-05-14T12:56:59Z</time>
      </trkpt>
      <trkpt lat="43.68089" lon="7.09915">
        <ele>130.1</ele>
        <time>2026-05-14T12:57:00Z</time>
      </trkpt>
      <trkpt lat="43.68089" lon="7.09915">
        <ele>130.1</ele>
        <time>2026-05-14T12:57:01Z</time>
      </trkpt>
      <trkpt lat="43.68089" lon="7.09915">
        <ele>130.1</ele>
        <time>2026-05-14T12:57:02Z</time>
      </trkpt>
      <trkpt lat="43.68089" lon="7.09915">
        <ele>130.1</ele>
        <time>2026-05-14T12:57:03Z</time>
      </trkpt>
      <trkpt lat="43.68089" lon="7.09915">
        <ele>130.1</ele>
        <time>2026-05-14T12:57:04Z</time>
      </trkpt>
      <trkpt lat="43.68089" lon="7.09915">
        <ele>130.1</ele>
        <time>2026-05-14T12:57:05Z</time>
      </trkpt>
      <trkpt lat="43.68089" lon="7.09915">
        <ele>130.1</ele>
        <time>2026-05-14T12:57:06Z</time>
      </trkpt>
      <trkpt lat="43.68089" lon="7.09915">
        <ele>130.1</ele>
        <time>2026-05-14T12:57:07Z</time>
      </trkpt>
      <trkpt lat="43.68089" lon="7.09915">
        <ele>130.1</ele>
        <time>2026-05-14T12:57:08Z</time>
      </trkpt>
      <trkpt lat="43.68089" lon="7.09915">
        <ele>130.1</ele>
        <time>2026-05-14T12:57:09Z</time>
      </trkpt>
      <trkpt lat="43.68089" lon="7.09915">
        <ele>130.1</ele>
        <time>2026-05-14T12:57:10Z</time>
      </trkpt>
      <trkpt lat="43.68089" lon="7.09915">
        <ele>130.1</ele>
        <time>2026-05-14T12:57:11Z</time>
      </trkpt>
      <trkpt lat="43.68089" lon="7.09915">
        <ele>130.1</ele>
        <time>2026-05-14T12:57:12Z</time>
      </trkpt>
      <trkpt lat="43.68089" lon="7.09915">
        <ele>130.1</ele>
        <time>2026-05-14T12:57:13Z</time>
      </trkpt>
      <trkpt lat="43.68089" lon="7.09915">
        <ele>130.1</ele>
        <time>2026-05-14T12:57:14Z</time>
      </trkpt>
      <trkpt lat="43.68089" lon="7.09915">
        <ele>130.1</ele>
        <time>2026-05-14T12:57:15Z</time>
      </trkpt>
      <trkpt lat="43.68089" lon="7.09915">
        <ele>130.1</ele>
        <time>2026-05-14T12:57:16Z</time>
      </trkpt>
      <trkpt lat="43.68089" lon="7.09915">
        <ele>130.1</ele>
        <time>2026-05-14T12:57:17Z</time>
      </trkpt>
      <trkpt lat="43.68089" lon="7.09915">
        <ele>130.1</ele>
        <time>2026-05-14T12:57:18Z</time>
      </trkpt>
      <trkpt lat="43.68089" lon="7.09915">
        <ele>130.1</ele>
        <time>2026-05-14T12:57:19Z</time>
      </trkpt>
      <trkpt lat="43.68089" lon="7.09915">
        <ele>130.1</ele>
        <time>2026-05-14T12:57:20Z</time>
      </trkpt>
      <trkpt lat="43.68089" lon="7.09915">
        <ele>130.1</ele>
        <time>2026-05-14T12:57:21Z</time>
      </trkpt>
      <trkpt lat="43.68089" lon="7.09915">
        <ele>130.1</ele>
        <time>2026-05-14T12:57:22Z</time>
      </trkpt>
      <trkpt lat="43.68089" lon="7.09915">
        <ele>130.1</ele>
        <time>2026-05-14T12:57:23Z</time>
      </trkpt>
      <trkpt lat="43.68089" lon="7.09915">
        <ele>130.1</ele>
        <time>2026-05-14T12:57:24Z</time>
      </trkpt>
      <trkpt lat="43.68089" lon="7.09915">
        <ele>130.1</ele>
        <time>2026-05-14T12:57:25Z</time>
      </trkpt>
      <trkpt lat="43.68089" lon="7.09915">
        <ele>130.1</ele>
        <time>2026-05-14T12:57:26Z</time>
      </trkpt>
      <trkpt lat="43.68089" lon="7.09915">
        <ele>130.1</ele>
        <time>2026-05-14T12:57:27Z</time>
      </trkpt>
      <trkpt lat="43.68089" lon="7.09915">
        <ele>130.1</ele>
        <time>2026-05-14T12:57:28Z</time>
      </trkpt>
      <trkpt lat="43.68089" lon="7.09915">
        <ele>130.1</ele>
        <time>2026-05-14T12:57:29Z</time>
      </trkpt>
      <trkpt lat="43.68089" lon="7.09915">
        <ele>130.1</ele>
        <time>2026-05-14T12:57:30Z</time>
      </trkpt>
      <trkpt lat="43.68084" lon="7.09904">
        <ele>130</ele>
        <time>2026-05-14T12:59:14Z</time>
      </trkpt>
      <trkpt lat="43.68084" lon="7.09908">
        <ele>129.7</ele>
        <time>2026-05-14T12:59:15Z</time>
      </trkpt>
      <trkpt lat="43.68086" lon="7.09908">
        <ele>130</ele>
        <time>2026-05-14T12:59:16Z</time>
      </trkpt>
      <trkpt lat="43.68086" lon="7.09908">
        <ele>130</ele>
        <time>2026-05-14T12:59:23Z</time>
      </trkpt>
      <trkpt lat="43.68084" lon="7.09902">
        <ele>130.1</ele>
        <time>2026-05-14T12:59:24Z</time>
      </trkpt>
      <trkpt lat="43.68087" lon="7.09907">
        <ele>130.2</ele>
        <time>2026-05-14T12:59:25Z</time>
      </trkpt>
      <trkpt lat="43.68087" lon="7.09901">
        <ele>130.5</ele>
        <time>2026-05-14T12:59:26Z</time>
      </trkpt>
      <trkpt lat="43.68087" lon="7.09902">
        <ele>130.4</ele>
        <time>2026-05-14T12:59:27Z</time>
      </trkpt>
      <trkpt lat="43.68087" lon="7.09903">
        <ele>130.4</ele>
        <time>2026-05-14T12:59:28Z</time>
      </trkpt>
    </trkseg>
  </trk>
</gpx>